
Distance (Route):
Temperature : 17.8°C
Humidity : 49.4%
Pressure : 0hPa| Receiver | Frames | First received | Last received |
|---|---|---|---|
| OM5KV | 799 | 2026-09-06 02:37:12 | 2026-09-06 04:54:41 |
| OE3MUC-15 | 781 | 2026-09-06 02:34:38 | 2026-09-06 04:16:16 |
| OE5MMP-10 | 508 | 2026-09-06 02:19:00 | 2026-09-06 04:05:25 |
| PETON7-10 | 371 | 2026-09-06 02:30:43 | 2026-09-06 04:46:14 |
| DO3MHA-12 | 292 | 2026-09-06 02:26:03 | 2026-09-06 03:59:00 |
| PG1ADW-2 | 239 | 2026-09-06 02:16:35 | 2026-09-06 04:38:14 |
| OE5DRO-10 | 238 | 2026-09-06 02:15:05 | 2026-09-06 04:31:39 |
| OE5WHR-10 | 202 | 2026-09-06 02:15:24 | 2026-09-06 04:15:24 |
| OE3JTB-15 | 200 | 2026-09-06 02:17:03 | 2026-09-06 04:47:39 |
| OE8JPQ-2 | 197 | 2026-09-06 02:46:27 | 2026-09-06 04:21:39 |
| OE5DXL-15 | 167 | 2026-09-06 02:17:37 | 2026-09-06 04:22:55 |
| S52SK | 166 | 2026-09-06 02:28:20 | 2026-09-06 05:05:54 |
| OE3OSB-13 | 148 | 2026-09-06 02:38:10 | 2026-09-06 04:50:44 |
| OE5FHM-15 | 140 | 2026-09-06 02:18:37 | 2026-09-06 03:46:02 |
| OE5HKT-10 | 59 | 2026-09-06 02:16:09 | 2026-09-06 02:50:19 |
| DB0NH | 51 | 2026-09-06 02:51:01 | 2026-09-06 03:52:13 |
| S57NTA-12 | 39 | 2026-09-06 04:06:03 | 2026-09-06 04:34:47 |
| DG1MFX-10 | 18 | 2026-09-06 02:35:39 | 2026-09-06 04:00:25 |
| DO8TBO-1 | 9 | 2026-09-06 03:20:19 | 2026-09-06 03:25:50 |
| HARRO8 | 7 | 2026-09-06 03:24:33 | 2026-09-06 03:29:43 |
| OE5REO-15 | 4 | 2026-09-06 02:36:07 | 2026-09-06 02:43:05 |
| DB0UT-7 | 2 | 2026-09-06 03:19:22 | 2026-09-06 03:19:52 |
| OK1ALN | 1 | 2026-09-06 02:54:36 | 2026-09-06 02:54:36 |
| SONDE2-11 | 1 | 2026-09-06 03:27:15 | 2026-09-06 03:27:15 |
| Receiver | Date | Latitude | Longitude | Direction | Speed | Altitude | Climb | Temperature | Humidity | Pressure | Voltage | Killtimer | Uptime | BKT | XDATA |
|---|---|---|---|---|---|---|---|---|---|---|---|---|---|---|---|
| S52SK | 2026-09-06 05:05:54 | 47.01625 | 16.48142 | 206° | 16km/h | 418m | -2.5m/s | 17.8°C | 49.4% | 0hPa | 2.7V | 00:00:00 | 00:00:00 | 00:00:00 | |
| S52SK | 2026-09-06 05:05:48 | 47.01647 | 16.48158 | 205° | 16km/h | 432m | -2.4m/s | 17.7°C | 49.4% | 0hPa | 2.7V | 00:00:00 | 00:00:00 | 00:00:00 | |
| S52SK | 2026-09-06 05:05:42 | 47.01673 | 16.48172 | 200° | 18km/h | 447m | -2.5m/s | 17.6°C | 49.4% | 0hPa | 2.7V | 00:00:00 | 00:00:00 | 00:00:00 | |
| S52SK | 2026-09-06 05:04:45 | 47.01962 | 16.48265 | 191° | 26km/h | 570m | -2.5m/s | 17.0°C | 49.0% | 0hPa | 2.7V | 00:00:00 | 00:00:00 | 00:00:00 | |
| S52SK | 2026-09-06 05:04:40 | 47.01994 | 16.48273 | 192° | 26km/h | 582m | -2.7m/s | 16.8°C | 49.3% | 0hPa | 2.7V | 00:00:00 | 00:00:00 | 00:00:00 | |
| S52SK | 2026-09-06 05:04:34 | 47.02032 | 16.48282 | 189° | 26km/h | 596m | -2.0m/s | 16.8°C | 49.3% | 0hPa | 2.7V | 00:00:00 | 00:00:00 | 00:00:00 | |
| S52SK | 2026-09-06 05:03:32 | 47.02482 | 16.48376 | 186° | 29km/h | 739m | -2.1m/s | 15.5°C | 52.1% | 0hPa | 2.7V | 00:00:00 | 00:00:00 | 00:00:00 | |
| S52SK | 2026-09-06 05:03:27 | 47.02517 | 16.48379 | 183° | 27km/h | 749m | -1.9m/s | 15.5°C | 52.3% | 0hPa | 2.7V | 00:00:00 | 00:00:00 | 00:00:00 | |
| S52SK | 2026-09-06 05:02:26 | 47.02973 | 16.48381 | 173° | 29km/h | 865m | -2.2m/s | 14.6°C | 54.6% | 0hPa | 2.7V | 00:00:00 | 00:00:00 | 00:00:00 | |
| S52SK | 2026-09-06 05:02:20 | 47.03016 | 16.48373 | 173° | 29km/h | 877m | -2.2m/s | 14.6°C | 54.9% | 0hPa | 2.7V | 00:00:00 | 00:00:00 | 00:00:00 | |
| S52SK | 2026-09-06 05:01:19 | 47.03366 | 16.48226 | 152° | 22km/h | 1004m | -2.6m/s | 14.0°C | 60.1% | 0hPa | 2.7V | 00:00:00 | 00:00:00 | 00:00:00 | |
| S52SK | 2026-09-06 05:01:14 | 47.03395 | 16.48202 | 150° | 22km/h | 1018m | -2.0m/s | 14.0°C | 60.6% | 0hPa | 2.7V | 00:00:00 | 00:00:00 | 00:00:00 | |
| S52SK | 2026-09-06 05:00:16 | 47.03725 | 16.47881 | 141° | 31km/h | 1131m | -2.0m/s | 13.6°C | 62.0% | 0hPa | 2.7V | 06:58:00 | 00:00:00 | 00:00:00 | |
| S52SK | 2026-09-06 05:00:10 | 47.03760 | 16.47835 | 139° | 31km/h | 1142m | -2.1m/s | 13.6°C | 62.1% | 0hPa | 2.7V | 06:58:00 | 00:00:00 | 00:00:00 | |
| S52SK | 2026-09-06 05:00:05 | 47.03789 | 16.47796 | 136° | 31km/h | 1153m | -2.0m/s | 13.8°C | 60.3% | 0hPa | 2.7V | 00:00:00 | 00:00:00 | 00:00:00 | |
| S52SK | 2026-09-06 04:59:08 | 47.04074 | 16.47334 | 132° | 35km/h | 1270m | -2.0m/s | 13.1°C | 60.3% | 0hPa | 2.7V | 00:00:00 | 00:00:00 | 00:00:00 | |
| S52SK | 2026-09-06 04:59:03 | 47.04104 | 16.47284 | 131° | 37km/h | 1280m | -2.3m/s | 13.0°C | 60.3% | 0hPa | 2.7V | 00:00:00 | 00:00:00 | 00:00:00 | |
| S52SK | 2026-09-06 04:58:57 | 47.04140 | 16.47223 | 134° | 37km/h | 1292m | -2.2m/s | 12.9°C | 60.5% | 0hPa | 2.7V | 00:00:00 | 00:00:00 | 00:00:00 | |
| S52SK | 2026-09-06 04:57:56 | 47.04515 | 16.46528 | 125° | 42km/h | 1426m | -2.3m/s | 11.9°C | 62.8% | 0hPa | 2.7V | 00:00:00 | 00:00:00 | 00:00:00 | |
| S52SK | 2026-09-06 04:57:50 | 47.04552 | 16.46452 | 127° | 42km/h | 1438m | -2.2m/s | 11.8°C | 63.2% | 0hPa | 2.7V | 00:00:00 | 00:00:00 | 00:00:00 | |
| S52SK | 2026-09-06 04:56:53 | 47.04902 | 16.45644 | 123° | 46km/h | 1555m | -1.8m/s | 11.2°C | 65.1% | 0hPa | 2.7V | 07:01:00 | 00:00:00 | 00:00:00 | |
| S52SK | 2026-09-06 04:56:48 | 47.04933 | 16.45569 | 121° | 47km/h | 1564m | -2.1m/s | 11.1°C | 65.4% | 0hPa | 2.7V | 07:01:00 | 00:00:00 | 00:00:00 | |
| S52SK | 2026-09-06 04:56:43 | 47.04962 | 16.45493 | 120° | 47km/h | 1574m | -2.2m/s | 11.0°C | 65.9% | 0hPa | 2.7V | 00:00:00 | 00:00:00 | 00:00:00 | |
| S52SK | 2026-09-06 04:55:41 | 47.05316 | 16.44471 | 117° | 53km/h | 1711m | -2.5m/s | 10.6°C | 64.7% | 0hPa | 2.7V | 00:00:00 | 00:00:00 | 00:00:00 | |
| S52SK | 2026-09-06 04:55:36 | 47.05343 | 16.44381 | 115° | 55km/h | 1723m | -2.4m/s | 10.5°C | 65.0% | 0hPa | 2.7V | 00:00:00 | 00:00:00 | 00:00:00 | |
| OM5KV | 2026-09-06 04:54:41 | 47.05697 | 16.43427 | 119° | 49km/h | 1845m | -2.3m/s | 9.9°C | 69.9% | 0hPa | 2.7V | 00:00:00 | 00:00:00 | 00:00:00 | |
| S52SK | 2026-09-06 04:54:35 | 47.05732 | 16.43332 | 118° | 49km/h | 1858m | -2.0m/s | 9.8°C | 70.7% | 0hPa | 2.7V | 00:00:00 | 00:00:00 | 00:00:00 | |
| OM5KV | 2026-09-06 04:54:30 | 47.05759 | 16.43252 | 119° | 47km/h | 1869m | -2.0m/s | 9.7°C | 71.0% | 0hPa | 2.7V | 00:00:00 | 00:00:00 | 00:00:00 | |
| S52SK | 2026-09-06 04:54:29 | 47.05765 | 16.43237 | 119° | 47km/h | 1871m | -2.1m/s | 9.7°C | 71.0% | 0hPa | 2.7V | 00:00:00 | 00:00:00 | 00:00:00 | |
| OM5KV | 2026-09-06 04:54:00 | 47.05899 | 16.42765 | 107° | 53km/h | 1933m | -2.2m/s | 9.2°C | 73.3% | 0hPa | 2.7V | 00:00:00 | 00:00:00 | 00:00:00 | |
| OM5KV | 2026-09-06 04:53:59 | 47.05903 | 16.42747 | 107° | 53km/h | 1935m | -2.3m/s | 9.2°C | 73.4% | 0hPa | 2.7V | 00:00:00 | 00:00:00 | 00:00:00 | |
| OM5KV | 2026-09-06 04:53:56 | 47.05914 | 16.42690 | 108° | 53km/h | 1942m | -2.3m/s | 9.1°C | 73.5% | 0hPa | 2.7V | 00:00:00 | 00:00:00 | 00:00:00 | |
| OM5KV | 2026-09-06 04:53:54 | 47.05921 | 16.42653 | 108° | 53km/h | 1947m | -2.3m/s | 9.1°C | 73.8% | 0hPa | 2.7V | 00:00:00 | 00:00:00 | 00:00:00 | |
| OM5KV | 2026-09-06 04:53:53 | 47.05926 | 16.42634 | 108° | 53km/h | 1949m | -2.3m/s | 9.0°C | 73.9% | 0hPa | 2.7V | 00:00:00 | 00:00:00 | 00:00:00 | |
| OM5KV | 2026-09-06 04:53:49 | 47.05945 | 16.42540 | 108° | 53km/h | 1962m | -2.6m/s | 8.9°C | 74.3% | 0hPa | 2.7V | 00:00:00 | 00:00:00 | 00:00:00 | |
| OM5KV | 2026-09-06 04:53:48 | 47.05945 | 16.42540 | 108° | 53km/h | 1962m | -2.6m/s | 8.9°C | 74.3% | 0hPa | 2.7V | 00:00:00 | 00:00:00 | 00:00:00 | |
| OM5KV | 2026-09-06 04:53:39 | 47.05979 | 16.42370 | 108° | 53km/h | 1985m | -2.3m/s | 8.7°C | 75.3% | 0hPa | 2.7V | 00:00:00 | 00:00:00 | 00:00:00 | |
| OM5KV | 2026-09-06 04:53:37 | 47.05987 | 16.42332 | 108° | 53km/h | 1990m | -2.5m/s | 8.6°C | 75.6% | 0hPa | 2.7V | 00:00:00 | 00:00:00 | 00:00:00 | |
| OM5KV | 2026-09-06 04:53:28 | 47.06020 | 16.42161 | 107° | 55km/h | 2013m | -2.6m/s | 8.4°C | 76.3% | 0hPa | 2.7V | 00:00:00 | 00:00:00 | 00:00:00 | |
| S52SK | 2026-09-06 04:53:27 | 47.06024 | 16.42142 | 107° | 55km/h | 2015m | -2.4m/s | 8.4°C | 76.4% | 0hPa | 2.7V | 07:04:00 | 00:00:00 | 00:00:00 | |
| OM5KV | 2026-09-06 04:53:23 | 47.06038 | 16.42064 | 106° | 55km/h | 2024m | -2.2m/s | 8.3°C | 76.6% | 0hPa | 2.7V | 00:00:00 | 00:00:00 | 00:00:00 | |
| S52SK | 2026-09-06 04:53:22 | 47.06042 | 16.42045 | 106° | 55km/h | 2026m | -2.2m/s | 8.3°C | 76.8% | 0hPa | 2.7V | 07:04:00 | 00:00:00 | 00:00:00 | |
| S52SK | 2026-09-06 04:52:20 | 47.06272 | 16.40749 | 103° | 58km/h | 2185m | -2.3m/s | 7.0°C | 81.1% | 0hPa | 2.7V | 00:00:00 | 00:00:00 | 00:00:00 | |
| S52SK | 2026-09-06 04:52:14 | 47.06289 | 16.40621 | 102° | 60km/h | 2199m | -2.5m/s | 6.9°C | 81.7% | 0hPa | 2.7V | 00:00:00 | 00:00:00 | 00:00:00 | |
| OM5KV | 2026-09-06 04:51:52 | 47.06351 | 16.40129 | 100° | 62km/h | 2256m | -2.6m/s | 6.7°C | 80.7% | 0hPa | 2.7V | 00:00:00 | 00:00:00 | 00:00:00 | |
| OM5KV | 2026-09-06 04:51:51 | 47.06353 | 16.40106 | 100° | 62km/h | 2259m | -2.4m/s | 6.6°C | 80.5% | 0hPa | 2.7V | 07:06:00 | 00:00:00 | 00:00:00 | |
| OM5KV | 2026-09-06 04:51:47 | 47.06363 | 16.40015 | 99° | 62km/h | 2269m | -2.8m/s | 6.6°C | 81.0% | 0hPa | 2.7V | 00:00:00 | 00:00:00 | 00:00:00 | |
| OM5KV | 2026-09-06 04:51:45 | 47.06367 | 16.39969 | 99° | 62km/h | 2274m | -2.7m/s | 6.5°C | 81.0% | 0hPa | 2.7V | 07:06:00 | 00:00:00 | 00:00:00 | |
| OM5KV | 2026-09-06 04:51:34 | 47.06392 | 16.39719 | 99° | 62km/h | 2305m | -2.6m/s | 6.2°C | 81.9% | 0hPa | 2.7V | 00:00:00 | 00:00:00 | 00:00:00 | |
| OM5KV | 2026-09-06 04:51:30 | 47.06399 | 16.39629 | 99° | 62km/h | 2315m | -2.5m/s | 6.1°C | 82.5% | 0hPa | 2.7V | 00:00:00 | 00:00:00 | 00:00:00 | |
| OM5KV | 2026-09-06 04:51:21 | 47.06419 | 16.39423 | 99° | 64km/h | 2338m | -2.6m/s | 6.0°C | 83.1% | 0hPa | 2.7V | 00:00:00 | 00:00:00 | 00:00:00 | |
| S52SK | 2026-09-06 04:51:17 | 47.06429 | 16.39329 | 99° | 64km/h | 2349m | -2.8m/s | 5.9°C | 82.5% | 0hPa | 2.7V | 00:00:00 | 00:00:00 | 00:00:00 | |
| S52SK | 2026-09-06 04:51:12 | 47.06441 | 16.39210 | 100° | 66km/h | 2363m | -2.7m/s | 5.9°C | 81.2% | 0hPa | 2.7V | 00:00:00 | 00:00:00 | 00:00:00 | |
| S52SK | 2026-09-06 04:51:07 | 47.06454 | 16.39089 | 100° | 66km/h | 2376m | -2.7m/s | 5.7°C | 82.5% | 0hPa | 2.7V | 00:00:00 | 00:00:00 | 00:00:00 | |
| OM5KV | 2026-09-06 04:50:48 | 47.06510 | 16.38631 | 102° | 66km/h | 2432m | -3.0m/s | 5.2°C | 84.3% | 0hPa | 2.7V | 00:00:00 | 00:00:00 | 00:00:00 | |
| OE3OSB-13 | 2026-09-06 04:50:44 | 47.06538 | 16.38413 | 100° | 66km/h | 2459m | -3.4m/s | 4.9°C | 86.1% | -1.0hPa | 2.7V | 00:00:00 | 00:00:00 | 00:00:00 | |
| OM5KV | 2026-09-06 04:50:32 | 47.06562 | 16.38245 | 102° | 66km/h | 2480m | -2.9m/s | 4.7°C | 85.3% | 0hPa | 2.7V | 00:00:00 | 00:00:00 | 00:00:00 | |
| OM5KV | 2026-09-06 04:50:19 | 47.06611 | 16.37930 | 104° | 69km/h | 2512m | -1.9m/s | 4.5°C | 86.3% | 0hPa | 2.7V | 00:00:00 | 00:00:00 | 00:00:00 | |
| OE3OSB-13 | 2026-09-06 04:50:13 | 47.06645 | 16.37737 | 106° | 66km/h | 2529m | -2.3m/s | 4.3°C | 87.0% | -1.0hPa | 2.7V | 00:00:00 | 00:00:00 | 00:00:00 | |
| OM5KV | 2026-09-06 04:50:12 | 47.06645 | 16.37737 | 108° | 66km/h | 2529m | -2.3m/s | 4.3°C | 87.0% | 0hPa | 2.7V | 00:00:00 | 00:00:00 | 00:00:00 | |
| OM5KV | 2026-09-06 04:50:11 | 47.06650 | 16.37713 | 108° | 68km/h | 2531m | -1.8m/s | 4.3°C | 87.0% | 0hPa | 2.7V | 00:00:00 | 00:00:00 | 00:00:00 | |
| S52SK | 2026-09-06 04:50:10 | 47.06650 | 16.37713 | 108° | 68km/h | 2531m | -1.8m/s | 4.3°C | 87.0% | 0hPa | 2.7V | 00:00:00 | 00:00:00 | 00:00:00 | |
| OM5KV | 2026-09-06 04:50:04 | 47.06680 | 16.37569 | 108° | 68km/h | 2543m | -1.8m/s | 4.2°C | 87.7% | 0hPa | 2.7V | 00:00:00 | 00:00:00 | 00:00:00 | |
| S52SK | 2026-09-06 04:49:59 | 47.06705 | 16.37448 | 107° | 68km/h | 2554m | -1.9m/s | 4.0°C | 88.8% | 0hPa | 2.7V | 00:00:00 | 00:00:00 | 00:00:00 | |
| OM5KV | 2026-09-06 04:49:54 | 47.06730 | 16.37327 | 108° | 68km/h | 2564m | -1.8m/s | 4.0°C | 88.9% | 0hPa | 2.7V | 07:09:00 | 00:00:00 | 00:00:00 | |
| OM5KV | 2026-09-06 04:49:50 | 47.06750 | 16.37231 | 109° | 68km/h | 2571m | -1.6m/s | 3.9°C | 89.3% | 0hPa | 2.7V | 00:00:00 | 00:00:00 | 00:00:00 | |
| OM5KV | 2026-09-06 04:49:47 | 47.06766 | 16.37159 | 110° | 68km/h | 2577m | -2.0m/s | 3.8°C | 89.9% | 0hPa | 2.7V | 07:09:00 | 00:00:00 | 00:00:00 | |
| OM5KV | 2026-09-06 04:49:46 | 47.06771 | 16.37136 | 110° | 68km/h | 2579m | -1.8m/s | 3.8°C | 89.9% | 0hPa | 2.7V | 07:09:00 | 00:00:00 | 00:00:00 | |
| OM5KV | 2026-09-06 04:49:44 | 47.06782 | 16.37088 | 110° | 66km/h | 2583m | -2.2m/s | 3.8°C | 90.1% | 0hPa | 2.7V | 00:00:00 | 00:00:00 | 00:00:00 | |
| OM5KV | 2026-09-06 04:49:41 | 47.06799 | 16.37018 | 111° | 66km/h | 2590m | -1.5m/s | 3.7°C | 89.8% | 0hPa | 2.7V | 07:09:00 | 00:00:00 | 00:00:00 | |
| OM5KV | 2026-09-06 04:49:40 | 47.06805 | 16.36995 | 110° | 66km/h | 2591m | -2.2m/s | 3.7°C | 89.2% | 0hPa | 2.7V | 07:09:00 | 00:00:00 | 00:00:00 | |
| OM5KV | 2026-09-06 04:49:25 | 47.06888 | 16.36642 | 110° | 69km/h | 2623m | -2.6m/s | 3.4°C | 92.5% | 0hPa | 2.7V | 00:00:00 | 00:00:00 | 00:00:00 | |
| OM5KV | 2026-09-06 04:49:17 | 47.06932 | 16.36448 | 108° | 69km/h | 2643m | -2.2m/s | 3.3°C | 89.5% | 0hPa | 2.7V | 00:00:00 | 00:00:00 | 00:00:00 | |
| OE3OSB-13 | 2026-09-06 04:49:11 | 47.06978 | 16.36251 | 108° | 69km/h | 2659m | -2.1m/s | 3.3°C | 84.5% | -1.0hPa | 2.7V | 00:00:00 | 00:00:00 | 00:00:00 | |
| OM5KV | 2026-09-06 04:49:09 | 47.06978 | 16.36250 | 109° | 69km/h | 2659m | -2.1m/s | 3.3°C | 84.5% | 0hPa | 2.7V | 07:09:00 | 00:00:00 | 00:00:00 | |
| OM5KV | 2026-09-06 04:49:05 | 47.07002 | 16.36151 | 112° | 71km/h | 2668m | -1.6m/s | 3.2°C | 83.0% | 0hPa | 2.7V | 07:10:00 | 00:00:00 | 00:00:00 | |
| OM5KV | 2026-09-06 04:49:04 | 47.07008 | 16.36127 | 110° | 71km/h | 2670m | -2.3m/s | 3.2°C | 83.1% | 0hPa | 2.7V | 07:10:00 | 00:00:00 | 00:00:00 | |
| OM5KV | 2026-09-06 04:49:03 | 47.07014 | 16.36102 | 112° | 71km/h | 2672m | -2.5m/s | 3.1°C | 84.4% | 0hPa | 2.7V | 07:10:00 | 00:00:00 | 00:00:00 | |
| OM5KV | 2026-09-06 04:48:59 | 47.07040 | 16.36004 | 111° | 71km/h | 2682m | -2.5m/s | 3.0°C | 85.5% | 0hPa | 2.7V | 07:10:00 | 00:00:00 | 00:00:00 | |
| S52SK | 2026-09-06 04:48:58 | 47.07046 | 16.35979 | 112° | 71km/h | 2685m | -2.9m/s | 3.0°C | 86.3% | 0hPa | 2.7V | 00:00:00 | 00:00:00 | 00:00:00 | |
| S52SK | 2026-09-06 04:48:52 | 47.07085 | 16.35836 | 113° | 68km/h | 2702m | -2.6m/s | 2.8°C | 85.7% | 0hPa | 2.7V | 00:00:00 | 00:00:00 | 00:00:00 | |
| OM5KV | 2026-09-06 04:48:50 | 47.07098 | 16.35790 | 112° | 68km/h | 2708m | -3.1m/s | 2.8°C | 86.4% | 0hPa | 2.7V | 07:10:00 | 00:00:00 | 00:00:00 | |
| OM5KV | 2026-09-06 04:48:49 | 47.07104 | 16.35766 | 113° | 69km/h | 2711m | -3.1m/s | 2.7°C | 87.3% | 0hPa | 2.7V | 07:10:00 | 00:00:00 | 00:00:00 | |
| OM5KV | 2026-09-06 04:48:44 | 47.07137 | 16.35646 | 111° | 69km/h | 2726m | -2.8m/s | 2.6°C | 87.5% | 0hPa | 2.7V | 07:10:00 | 00:00:00 | 00:00:00 | |
| OM5KV | 2026-09-06 04:48:43 | 47.07143 | 16.35622 | 111° | 69km/h | 2729m | -2.7m/s | 2.6°C | 87.6% | 0hPa | 2.7V | 07:10:00 | 00:00:00 | 00:00:00 | |
| OM5KV | 2026-09-06 04:48:39 | 47.07168 | 16.35524 | 113° | 71km/h | 2738m | -2.7m/s | 2.6°C | 85.2% | 0hPa | 2.7V | 07:10:00 | 00:00:00 | 00:00:00 | |
| OM5KV | 2026-09-06 04:48:33 | 47.07207 | 16.35375 | 113° | 73km/h | 2754m | -2.3m/s | 2.6°C | 80.4% | 0hPa | 2.7V | 07:10:00 | 00:00:00 | 00:00:00 | |
| OM5KV | 2026-09-06 04:48:31 | 47.07220 | 16.35325 | 112° | 71km/h | 2759m | -2.8m/s | 2.5°C | 79.0% | 0hPa | 2.7V | 07:10:00 | 00:00:00 | 00:00:00 | |
| OM5KV | 2026-09-06 04:48:21 | 47.07292 | 16.35079 | 115° | 71km/h | 2785m | -2.4m/s | 2.3°C | 79.5% | 0hPa | 2.7V | 07:10:00 | 00:00:00 | 00:00:00 | |
| OM5KV | 2026-09-06 04:48:15 | 47.07337 | 16.34931 | 115° | 73km/h | 2801m | -3.1m/s | 2.1°C | 80.5% | 0hPa | 2.7V | 07:10:00 | 00:00:00 | 00:00:00 | |
| OM5KV | 2026-09-06 04:48:14 | 47.07345 | 16.34906 | 116° | 73km/h | 2804m | -3.0m/s | 2.1°C | 80.2% | 0hPa | 2.7V | 07:10:00 | 00:00:00 | 00:00:00 | |
| OM5KV | 2026-09-06 04:48:11 | 47.07368 | 16.34832 | 116° | 73km/h | 2812m | -2.8m/s | 2.0°C | 80.1% | 0hPa | 2.7V | 07:10:00 | 00:00:00 | 00:00:00 | |
| OM5KV | 2026-09-06 04:48:08 | 47.07391 | 16.34758 | 116° | 73km/h | 2820m | -2.7m/s | 2.0°C | 74.6% | 0hPa | 2.7V | 07:10:00 | 00:00:00 | 00:00:00 | |
| OM5KV | 2026-09-06 04:48:03 | 47.07432 | 16.34638 | 118° | 71km/h | 2833m | -2.6m/s | 1.8°C | 82.6% | 0hPa | 2.7V | 07:10:00 | 00:00:00 | 00:00:00 | |
| OM5KV | 2026-09-06 04:47:57 | 47.07481 | 16.34497 | 118° | 71km/h | 2849m | -2.7m/s | 1.8°C | 76.5% | 0hPa | 2.7V | 07:10:00 | 00:00:00 | 00:00:00 | |
| OM5KV | 2026-09-06 04:47:56 | 47.07489 | 16.34473 | 118° | 71km/h | 2852m | -2.6m/s | 1.8°C | 75.2% | 0hPa | 2.7V | 07:10:00 | 00:00:00 | 00:00:00 | |
| S52SK | 2026-09-06 04:47:55 | 47.07497 | 16.34450 | 119° | 71km/h | 2854m | -2.4m/s | 1.8°C | 74.8% | 0hPa | 2.7V | 00:00:00 | 00:00:00 | 00:00:00 | |
| OM5KV | 2026-09-06 04:47:53 | 47.07514 | 16.34404 | 118° | 71km/h | 2860m | -2.6m/s | 1.7°C | 73.3% | 0hPa | 2.7V | 07:10:00 | 00:00:00 | 00:00:00 | |
| OM5KV | 2026-09-06 04:47:51 | 47.07530 | 16.34357 | 119° | 71km/h | 2865m | -2.7m/s | 1.7°C | 73.6% | 0hPa | 2.7V | 07:10:00 | 00:00:00 | 00:00:00 | |
| S52SK | 2026-09-06 04:47:50 | 47.07538 | 16.34333 | 118° | 71km/h | 2868m | -2.8m/s | 1.7°C | 72.7% | 0hPa | 2.7V | 00:00:00 | 00:00:00 | 00:00:00 | |
| OM5KV | 2026-09-06 04:47:48 | 47.07555 | 16.34287 | 119° | 71km/h | 2873m | -2.6m/s | 1.7°C | 72.5% | 0hPa | 2.7V | 07:10:00 | 00:00:00 | 00:00:00 | |
| OM5KV | 2026-09-06 04:47:46 | 47.07580 | 16.34216 | 119° | 71km/h | 2880m | -2.5m/s | 1.6°C | 69.6% | 0hPa | 2.7V | 07:10:00 | 00:00:00 | 00:00:00 | |
| S52SK | 2026-09-06 04:47:45 | 47.07580 | 16.34216 | 119° | 71km/h | 2880m | -2.5m/s | 1.6°C | 69.5% | 0hPa | 2.7V | 00:00:00 | 00:00:00 | 00:00:00 | |
| OE3JTB-15 | 2026-09-06 04:47:39 | 47.07641 | 16.34053 | 120° | 71km/h | 2899m | -3.0m/s | 1.5°C | 68.2% | 0hPa | 2.7V | 00:00:00 | 00:00:00 | 00:00:00 | |
| OE3OSB-13 | 2026-09-06 04:47:37 | 47.07667 | 16.33984 | 119° | 71km/h | 2908m | -2.9m/s | 1.5°C | 66.6% | -1.0hPa | 2.7V | 00:00:00 | 00:00:00 | 00:00:00 | |
| OM5KV | 2026-09-06 04:47:32 | 47.07693 | 16.33914 | 120° | 71km/h | 2916m | -2.7m/s | 1.4°C | 67.6% | 0hPa | 2.7V | 07:10:00 | 00:00:00 | 00:00:00 | |
| OM5KV | 2026-09-06 04:47:21 | 47.07792 | 16.33667 | 123° | 69km/h | 2946m | -2.7m/s | 1.1°C | 67.5% | 0hPa | 2.7V | 07:11:00 | 00:00:00 | 00:00:00 | |
| OE3JTB-15 | 2026-09-06 04:47:20 | 47.07811 | 16.33623 | 123° | 71km/h | 2951m | -2.5m/s | 1.1°C | 66.3% | 0hPa | 2.7V | 00:00:00 | 02:58:24 | 00:00:00 | |
| OM5KV | 2026-09-06 04:47:19 | 47.07811 | 16.33623 | 123° | 69km/h | 2951m | -2.6m/s | 1.1°C | 66.5% | 0hPa | 2.7V | 07:11:00 | 00:00:00 | 00:00:00 | |
| OM5KV | 2026-09-06 04:47:15 | 47.07850 | 16.33536 | 125° | 71km/h | 2962m | -3.0m/s | 1.0°C | 67.1% | 0hPa | 2.7V | 07:11:00 | 00:00:00 | 00:00:00 | |
| OM5KV | 2026-09-06 04:47:14 | 47.07860 | 16.33514 | 125° | 71km/h | 2965m | -3.0m/s | 1.0°C | 66.8% | 0hPa | 2.7V | 07:11:00 | 00:00:00 | 00:00:00 | |
| OM5KV | 2026-09-06 04:47:13 | 47.07870 | 16.33492 | 125° | 71km/h | 2968m | -2.9m/s | 1.0°C | 64.0% | 0hPa | 2.7V | 07:11:00 | 00:00:00 | 00:00:00 | |
| OM5KV | 2026-09-06 04:47:08 | 47.07920 | 16.33383 | 126° | 71km/h | 2982m | -2.7m/s | 1.0°C | 59.4% | 0hPa | 2.7V | 07:11:00 | 00:00:00 | 00:00:00 | |
| OE3OSB-13 | 2026-09-06 04:47:06 | 47.07951 | 16.33318 | 125° | 69km/h | 2990m | -2.5m/s | 1.0°C | 56.1% | -1.0hPa | 2.7V | 00:00:00 | 00:00:00 | 00:00:00 | |
| OM5KV | 2026-09-06 04:47:04 | 47.07962 | 16.33297 | 127° | 69km/h | 2993m | -2.5m/s | 1.0°C | 55.6% | 0hPa | 2.7V | 07:11:00 | 00:00:00 | 00:00:00 | |
| OM5KV | 2026-09-06 04:47:03 | 47.07972 | 16.33276 | 127° | 69km/h | 2995m | -2.4m/s | 1.0°C | 54.5% | 0hPa | 2.7V | 07:11:00 | 00:00:00 | 00:00:00 | |
| OE3JTB-15 | 2026-09-06 04:47:01 | 47.08004 | 16.33213 | 127° | 71km/h | 3001m | -2.3m/s | 1.0°C | 50.2% | 0hPa | 2.7V | 00:00:00 | 00:00:00 | 00:00:00 | |
| OM5KV | 2026-09-06 04:46:57 | 47.08037 | 16.33150 | 129° | 71km/h | 3008m | -2.2m/s | 1.1°C | 44.3% | 0hPa | 2.7V | 07:11:00 | 00:00:00 | 00:00:00 | |
| OM5KV | 2026-09-06 04:46:56 | 47.08048 | 16.33129 | 128° | 71km/h | 3010m | -2.1m/s | 1.1°C | 43.7% | 0hPa | 2.7V | 07:11:00 | 00:00:00 | 00:00:00 | |
| OM5KV | 2026-09-06 04:46:52 | 47.08093 | 16.33045 | 129° | 73km/h | 3018m | -1.9m/s | 1.2°C | 42.0% | 0hPa | 2.7V | 07:11:00 | 00:00:00 | 00:00:00 | |
| OM5KV | 2026-09-06 04:46:45 | 47.08172 | 16.32898 | 130° | 69km/h | 3031m | -2.1m/s | 1.6°C | 26.8% | 0hPa | 2.7V | 07:11:00 | 00:00:00 | 00:00:00 | |
| OM5KV | 2026-09-06 04:46:44 | 47.08183 | 16.32878 | 130° | 69km/h | 3033m | -2.1m/s | 1.6°C | 27.3% | 0hPa | 2.7V | 07:11:00 | 00:00:00 | 00:00:00 | |
| OE3JTB-15 | 2026-09-06 04:46:42 | 47.08216 | 16.32818 | 129° | 68km/h | 3038m | -1.8m/s | 1.7°C | 21.1% | 0hPa | 2.7V | 00:00:00 | 00:00:00 | 00:00:00 | |
| OM5KV | 2026-09-06 04:46:41 | 47.08216 | 16.32818 | 129° | 68km/h | 3038m | -1.9m/s | 1.8°C | 21.2% | 0hPa | 2.7V | 07:11:00 | 00:00:00 | 00:00:00 | |
| OM5KV | 2026-09-06 04:46:39 | 47.08237 | 16.32778 | 129° | 68km/h | 3042m | -2.0m/s | 1.9°C | 15.7% | 0hPa | 2.7V | 07:11:00 | 00:00:00 | 00:00:00 | |
| S52SK | 2026-09-06 04:46:38 | 47.08247 | 16.32758 | 128° | 68km/h | 3043m | -2.0m/s | 2.0°C | 13.3% | 0hPa | 2.7V | 00:00:00 | 00:00:00 | 00:00:00 | |
| OE3OSB-13 | 2026-09-06 04:46:35 | 47.08296 | 16.32656 | 123° | 66km/h | 3053m | -2.4m/s | 2.3°C | 11.7% | -1.0hPa | 2.7V | 00:00:00 | 00:00:00 | 00:00:00 | |
| OM5KV | 2026-09-06 04:46:34 | 47.08296 | 16.32656 | 125° | 68km/h | 3053m | -2.4m/s | 2.3°C | 11.7% | 0hPa | 2.7V | 07:12:00 | 00:00:00 | 00:00:00 | |
| OM5KV | 2026-09-06 04:46:32 | 47.08305 | 16.32636 | 125° | 68km/h | 3055m | -2.5m/s | 2.3°C | 11.1% | 0hPa | 2.7V | 07:12:00 | 00:00:00 | 00:00:00 | |
| OM5KV | 2026-09-06 04:46:29 | 47.08333 | 16.32573 | 124° | 68km/h | 3062m | -2.6m/s | 2.3°C | 11.2% | 0hPa | 2.7V | 07:12:00 | 00:00:00 | 00:00:00 | |
| OM5KV | 2026-09-06 04:46:26 | 47.08361 | 16.32509 | 124° | 68km/h | 3069m | -2.6m/s | 2.4°C | 10.7% | 0hPa | 2.7V | 07:12:00 | 00:00:00 | 00:00:00 | |
| OE3JTB-15 | 2026-09-06 04:46:23 | 47.08399 | 16.32423 | 123° | 69km/h | 3079m | -2.7m/s | 2.4°C | 10.3% | 0hPa | 2.7V | 00:00:00 | 02:57:27 | 00:00:00 | |
| OM5KV | 2026-09-06 04:46:22 | 47.08399 | 16.32423 | 123° | 69km/h | 3079m | -2.7m/s | 2.5°C | 10.4% | 0hPa | 2.7V | 07:12:00 | 00:00:00 | 00:00:00 | |
| OM5KV | 2026-09-06 04:46:21 | 47.08408 | 16.32402 | 123° | 69km/h | 3082m | -2.7m/s | 2.5°C | 11.3% | 0hPa | 2.7V | 07:12:00 | 00:00:00 | 00:00:00 | |
| OM5KV | 2026-09-06 04:46:20 | 47.08418 | 16.32380 | 123° | 69km/h | 3084m | -2.6m/s | 2.5°C | 11.5% | 0hPa | 2.7V | 07:12:00 | 00:00:00 | 00:00:00 | |
| PETON7-10 | 2026-09-06 04:46:14 | 47.08484 | 16.32228 | 123° | 69km/h | 3103m | -2.7m/s | 2.3°C | 13.2% | 0hPa | 2.7V | 00:00:00 | 00:00:00 | 00:00:00 | |
| OM5KV | 2026-09-06 04:46:11 | 47.08503 | 16.32184 | 125° | 69km/h | 3108m | -2.7m/s | 2.4°C | 13.9% | 0hPa | 2.7V | 07:12:00 | 00:00:00 | 00:00:00 | |
| OM5KV | 2026-09-06 04:46:07 | 47.08541 | 16.32098 | 123° | 71km/h | 3118m | -2.7m/s | 2.4°C | 20.7% | 0hPa | 2.7V | 07:12:00 | 00:00:00 | 00:00:00 | |
| OE3JTB-15 | 2026-09-06 04:46:04 | 47.08579 | 16.32011 | 122° | 71km/h | 3128m | -2.6m/s | 2.2°C | 21.4% | 0hPa | 2.7V | 00:00:00 | 00:00:00 | 00:00:00 | |
| OM5KV | 2026-09-06 04:46:01 | 47.08598 | 16.31967 | 123° | 69km/h | 3133m | -2.8m/s | 2.2°C | 21.6% | 0hPa | 2.7V | 07:12:00 | 00:00:00 | 00:00:00 | |
| PETON7-10 | 2026-09-06 04:45:59 | 47.08625 | 16.31901 | 122° | 71km/h | 3140m | -2.6m/s | 2.2°C | 20.5% | 0hPa | 2.7V | 00:00:00 | 02:57:03 | 00:00:00 | |
| OM5KV | 2026-09-06 04:45:58 | 47.08626 | 16.31901 | 123° | 69km/h | 3140m | -2.7m/s | 2.2°C | 20.5% | 0hPa | 2.7V | 07:12:00 | 00:00:00 | 00:00:00 | |
| OM5KV | 2026-09-06 04:45:53 | 47.08672 | 16.31790 | 122° | 71km/h | 3153m | -2.4m/s | 2.2°C | 20.7% | 0hPa | 2.7V | 07:12:00 | 00:00:00 | 00:00:00 | |
| OM5KV | 2026-09-06 04:45:48 | 47.08718 | 16.31677 | 121° | 71km/h | 3164m | -2.3m/s | 2.2°C | 23.3% | 0hPa | 2.7V | 07:12:00 | 00:00:00 | 00:00:00 | |
| OE3JTB-15 | 2026-09-06 04:45:45 | 47.08754 | 16.31586 | 122° | 73km/h | 3173m | -2.0m/s | 2.1°C | 23.6% | 0hPa | 2.7V | 00:00:00 | 00:00:00 | 00:00:00 | |
| OM5KV | 2026-09-06 04:45:41 | 47.08782 | 16.31517 | 122° | 73km/h | 3180m | -2.0m/s | 2.1°C | 23.5% | 0hPa | 2.7V | 00:00:00 | 00:00:00 | 00:00:00 | |
| PETON7-10 | 2026-09-06 04:45:37 | 47.08827 | 16.31401 | 120° | 75km/h | 3191m | -2.3m/s | 2.1°C | 23.5% | 0hPa | 2.7V | 07:12:00 | 00:00:00 | 00:00:00 | |
| S52SK | 2026-09-06 04:45:36 | 47.08827 | 16.31401 | 121° | 71km/h | 3191m | -2.3m/s | 2.2°C | 23.6% | 0hPa | 2.7V | 00:00:00 | 00:00:00 | 00:00:00 | |
| OM5KV | 2026-09-06 04:45:35 | 47.08836 | 16.31378 | 120° | 73km/h | 3193m | -2.5m/s | 2.1°C | 23.7% | 0hPa | 2.7V | 00:00:00 | 00:00:00 | 00:00:00 | |
| OM5KV | 2026-09-06 04:45:34 | 47.08845 | 16.31354 | 121° | 73km/h | 3196m | -2.3m/s | 2.1°C | 23.8% | 0hPa | 2.7V | 00:00:00 | 00:00:00 | 00:00:00 | |
| OE3OSB-13 | 2026-09-06 04:45:33 | 47.08874 | 16.31284 | 119° | 71km/h | 3202m | -2.0m/s | 2.1°C | 24.1% | -1.0hPa | 2.7V | 00:00:00 | 00:00:00 | 00:00:00 | |
| OM5KV | 2026-09-06 04:45:31 | 47.08882 | 16.31261 | 120° | 71km/h | 3204m | -2.2m/s | 2.1°C | 24.1% | 0hPa | 2.7V | 00:00:00 | 00:00:00 | 00:00:00 | |
| S52SK | 2026-09-06 04:45:30 | 47.08882 | 16.31261 | 120° | 71km/h | 3204m | -2.2m/s | 2.1°C | 24.0% | 0hPa | 2.7V | 00:00:00 | 00:00:00 | 00:00:00 | |
| OM5KV | 2026-09-06 04:45:29 | 47.08892 | 16.31238 | 120° | 73km/h | 3206m | -2.3m/s | 2.1°C | 24.1% | 0hPa | 2.7V | 00:00:00 | 00:00:00 | 00:00:00 | |
| OE3JTB-15 | 2026-09-06 04:45:26 | 47.08928 | 16.31143 | 120° | 75km/h | 3215m | -2.0m/s | 2.0°C | 23.9% | 0hPa | 2.7V | 07:12:00 | 02:56:30 | 00:00:00 | |
| OM5KV | 2026-09-06 04:45:24 | 47.08937 | 16.31119 | 120° | 75km/h | 3217m | -2.2m/s | 2.0°C | 23.9% | 0hPa | 2.7V | 00:00:00 | 00:00:00 | 00:00:00 | |
| OM5KV | 2026-09-06 04:45:23 | 47.08947 | 16.31094 | 120° | 73km/h | 3219m | -2.5m/s | 2.0°C | 23.9% | 0hPa | 2.7V | 00:00:00 | 00:00:00 | 00:00:00 | |
| OE3JTB-15 | 2026-09-06 04:45:07 | 47.09110 | 16.30684 | 121° | 78km/h | 3255m | -2.0m/s | 1.9°C | 24.1% | 0hPa | 2.7V | 00:00:00 | 00:00:00 | 00:00:00 | |
| PETON7-10 | 2026-09-06 04:45:05 | 47.09131 | 16.30634 | 122° | 78km/h | 3259m | -1.5m/s | 1.9°C | 24.2% | 0hPa | 2.7V | 00:00:00 | 00:00:00 | 00:00:00 | |
| OE3OSB-13 | 2026-09-06 04:45:02 | 47.09174 | 16.30536 | 122° | 78km/h | 3266m | -2.0m/s | 1.9°C | 24.3% | -1.0hPa | 2.7V | 00:00:00 | 00:00:00 | 00:00:00 | |
| PETON7-10 | 2026-09-06 04:44:50 | 47.09292 | 16.30265 | 124° | 78km/h | 3286m | -1.3m/s | 1.7°C | 23.8% | 0hPa | 2.7V | 00:00:00 | 02:55:54 | 00:00:00 | |
| OE3JTB-15 | 2026-09-06 04:44:48 | 47.09313 | 16.30216 | 123° | 78km/h | 3289m | -1.8m/s | 1.7°C | 23.8% | 0hPa | 2.7V | 00:00:00 | 00:00:00 | 00:00:00 | |
| PETON7-10 | 2026-09-06 04:44:35 | 47.09456 | 16.29898 | 125° | 71km/h | 3310m | -1.7m/s | 1.7°C | 22.5% | 0hPa | 2.7V | 00:00:00 | 00:00:00 | 00:00:00 | |
| OE3OSB-13 | 2026-09-06 04:44:32 | 47.09513 | 16.29777 | 125° | 78km/h | 3320m | -1.7m/s | 1.7°C | 21.9% | -1.0hPa | 2.7V | 00:00:00 | 00:00:00 | 00:00:00 | |
| S52SK | 2026-09-06 04:44:28 | 47.09525 | 16.29753 | 127° | 78km/h | 3321m | -1.9m/s | 1.7°C | 21.9% | 0hPa | 2.7V | 00:00:00 | 00:00:00 | 00:00:00 | |
| S52SK | 2026-09-06 04:44:23 | 47.09584 | 16.29633 | 127° | 80km/h | 3331m | -1.9m/s | 1.6°C | 21.9% | 0hPa | 2.7V | 00:00:00 | 00:00:00 | 00:00:00 | |
| OE3JTB-15 | 2026-09-06 04:44:19 | 47.09641 | 16.29514 | 125° | 78km/h | 3339m | -2.2m/s | 1.5°C | 21.9% | 0hPa | 2.7V | 00:00:00 | 02:55:23 | 00:00:00 | |
| OE3OSB-13 | 2026-09-06 04:44:00 | 47.09878 | 16.29035 | 128° | 78km/h | 3374m | -1.4m/s | 1.4°C | 22.0% | -1.0hPa | 2.7V | 00:00:00 | 00:00:00 | 00:00:00 | |
| OE3JTB-15 | 2026-09-06 04:43:50 | 47.09990 | 16.28834 | 131° | 73km/h | 3387m | -1.4m/s | 1.3°C | 21.7% | 0hPa | 2.7V | 00:00:00 | 00:00:00 | 00:00:00 | |
| OE3OSB-13 | 2026-09-06 04:43:29 | 47.10257 | 16.28378 | 130° | 69km/h | 3422m | -1.3m/s | 1.4°C | 20.2% | -1.0hPa | 2.7V | 00:00:00 | 00:00:00 | 00:00:00 | |
| OE3JTB-15 | 2026-09-06 04:43:21 | 47.10338 | 16.28236 | 129° | 71km/h | 3434m | -1.5m/s | 1.3°C | 20.2% | 0hPa | 2.7V | 00:00:00 | 00:00:00 | 00:00:00 | |
| S52SK | 2026-09-06 04:43:15 | 47.10395 | 16.28135 | 131° | 71km/h | 3442m | -1.8m/s | 1.3°C | 20.4% | 0hPa | 2.7V | 00:00:00 | 00:00:00 | 00:00:00 | |
| OM5KV | 2026-09-06 04:43:11 | 47.10441 | 16.28054 | 131° | 69km/h | 3449m | -2.1m/s | 1.2°C | 20.4% | 0hPa | 2.7V | 07:15:00 | 00:00:00 | 00:00:00 | |
| OM5KV | 2026-09-06 04:43:10 | 47.10452 | 16.28034 | 131° | 71km/h | 3451m | -1.8m/s | 1.2°C | 20.4% | 0hPa | 2.7V | 07:15:00 | 00:00:00 | 00:00:00 | |
| OM5KV | 2026-09-06 04:43:05 | 47.10510 | 16.27934 | 131° | 71km/h | 3460m | -1.6m/s | 1.2°C | 20.6% | 0hPa | 2.7V | 00:00:00 | 00:00:00 | 00:00:00 | |
| OE3OSB-13 | 2026-09-06 04:42:58 | 47.10617 | 16.27759 | 130° | 69km/h | 3475m | -1.8m/s | 1.1°C | 20.5% | -1.0hPa | 2.7V | 00:00:00 | 00:00:00 | 00:00:00 | |
| OM5KV | 2026-09-06 04:42:55 | 47.10629 | 16.27740 | 133° | 71km/h | 3477m | -1.9m/s | 1.1°C | 20.4% | 0hPa | 2.7V | 00:00:00 | 00:00:00 | 00:00:00 | |
| OE3JTB-15 | 2026-09-06 04:42:52 | 47.10676 | 16.27662 | 133° | 69km/h | 3484m | -1.5m/s | 1.1°C | 19.5% | 0hPa | 2.7V | 00:00:00 | 02:53:56 | 00:00:00 | |
| OM5KV | 2026-09-06 04:42:49 | 47.10699 | 16.27624 | 134° | 71km/h | 3487m | -2.0m/s | 1.2°C | 19.4% | 0hPa | 2.7V | 00:00:00 | 00:00:00 | 00:00:00 | |
| OM5KV | 2026-09-06 04:42:45 | 47.10747 | 16.27547 | 133° | 71km/h | 3494m | -1.7m/s | 1.2°C | 19.1% | 0hPa | 2.7V | 00:00:00 | 00:00:00 | 00:00:00 | |
| OM5KV | 2026-09-06 04:42:44 | 47.10759 | 16.27527 | 135° | 71km/h | 3495m | -1.3m/s | 1.3°C | 18.3% | 0hPa | 2.7V | 00:00:00 | 00:00:00 | 00:00:00 | |
| OM5KV | 2026-09-06 04:42:38 | 47.10831 | 16.27414 | 134° | 69km/h | 3506m | -1.9m/s | 1.2°C | 18.0% | 0hPa | 2.7V | 00:00:00 | 00:00:00 | 00:00:00 | |
| PETON7-10 | 2026-09-06 04:42:33 | 47.10903 | 16.27302 | 134° | 68km/h | 3519m | -2.0m/s | 1.2°C | 17.3% | 0hPa | 2.7V | 00:00:00 | 00:00:00 | 00:00:00 | |
| OE3OSB-13 | 2026-09-06 04:42:27 | 47.10987 | 16.27175 | 134° | 68km/h | 3534m | -1.8m/s | 1.2°C | 17.3% | -1.0hPa | 2.7V | 00:00:00 | 00:00:00 | 00:00:00 | |
| OE3JTB-15 | 2026-09-06 04:42:23 | 47.11023 | 16.27120 | 135° | 66km/h | 3540m | -1.9m/s | 1.3°C | 18.1% | 0hPa | 2.7V | 00:00:00 | 00:00:00 | 00:00:00 | |
| PETON7-10 | 2026-09-06 04:42:18 | 47.11082 | 16.27030 | 134° | 66km/h | 3550m | -2.1m/s | 1.3°C | 17.1% | 0hPa | 2.7V | 00:00:00 | 02:53:22 | 00:00:00 | |
| S52SK | 2026-09-06 04:42:13 | 47.11128 | 16.26958 | 134° | 66km/h | 3559m | -2.0m/s | 1.4°C | 16.9% | 0hPa | 2.7V | 00:00:00 | 00:00:00 | 00:00:00 | |
| S52SK | 2026-09-06 04:42:08 | 47.11186 | 16.26871 | 137° | 66km/h | 3570m | -2.2m/s | 1.9°C | 9.5% | 0hPa | 2.7V | 00:00:00 | 00:00:00 | 00:00:00 | |
| PETON7-10 | 2026-09-06 04:42:03 | 47.11258 | 16.26768 | 136° | 66km/h | 3583m | -2.4m/s | 2.1°C | 6.7% | 0hPa | 2.7V | 00:00:00 | 00:00:00 | 00:00:00 | |
| OE3OSB-13 | 2026-09-06 04:41:56 | 47.11356 | 16.26633 | 136° | 64km/h | 3601m | -2.2m/s | 2.6°C | 5.3% | -1.0hPa | 2.7V | 00:00:00 | 00:00:00 | 00:00:00 | |
| OE3JTB-15 | 2026-09-06 04:41:54 | 47.11368 | 16.26617 | 138° | 62km/h | 3603m | -2.2m/s | 2.6°C | 4.7% | 0hPa | 2.7V | 07:16:00 | 00:00:00 | 00:00:00 | |
| OM5KV | 2026-09-06 04:41:52 | 47.11380 | 16.26600 | 138° | 66km/h | 3605m | -2.2m/s | 2.8°C | 4.0% | 0hPa | 2.7V | 07:16:00 | 00:00:00 | 00:00:00 | |
| OM5KV | 2026-09-06 04:41:50 | 47.11403 | 16.26567 | 138° | 64km/h | 3610m | -2.3m/s | 2.9°C | 2.4% | 0hPa | 2.7V | 07:16:00 | 00:00:00 | 00:00:00 | |
| PETON7-10 | 2026-09-06 04:41:48 | 47.11438 | 16.26518 | 136° | 62km/h | 3617m | -2.5m/s | 2.9°C | 2.1% | 0hPa | 2.7V | 00:00:00 | 00:00:00 | 00:00:00 | |
| OM5KV | 2026-09-06 04:41:44 | 47.11471 | 16.26468 | 135° | 62km/h | 3625m | -2.8m/s | 3.0°C | 2.4% | 0hPa | 2.7V | 07:16:00 | 00:00:00 | 00:00:00 | |
| OM5KV | 2026-09-06 04:41:38 | 47.11535 | 16.26369 | 133° | 62km/h | 3641m | -2.4m/s | 2.9°C | 3.2% | 0hPa | 2.7V | 07:16:00 | 00:00:00 | 00:00:00 | |
| OM5KV | 2026-09-06 04:41:35 | 47.11566 | 16.26317 | 132° | 62km/h | 3648m | -2.2m/s | 2.9°C | 3.7% | 0hPa | 2.7V | 07:16:00 | 00:00:00 | 00:00:00 | |
| PETON7-10 | 2026-09-06 04:41:33 | 47.11597 | 16.26263 | 129° | 66km/h | 3655m | -2.5m/s | 2.8°C | 4.1% | 0hPa | 2.7V | 07:16:00 | 02:52:37 | 00:00:00 | |
| OM5KV | 2026-09-06 04:41:32 | 47.11597 | 16.26263 | 130° | 64km/h | 3655m | -2.5m/s | 2.8°C | 4.2% | 0hPa | 2.7V | 07:16:00 | 00:00:00 | 00:00:00 | |
| OM5KV | 2026-09-06 04:41:26 | 47.11658 | 16.26152 | 130° | 64km/h | 3671m | -2.7m/s | 2.7°C | 4.5% | 0hPa | 2.7V | 07:17:00 | 00:00:00 | 00:00:00 | |
| OE3JTB-15 | 2026-09-06 04:41:25 | 47.11678 | 16.26116 | 130° | 69km/h | 3676m | -2.8m/s | 2.6°C | 4.7% | 0hPa | 2.7V | 00:00:00 | 02:52:29 | 00:00:00 | |
| OE3OSB-13 | 2026-09-06 04:41:24 | 47.11689 | 16.26097 | 128° | 64km/h | 3679m | -2.9m/s | 2.6°C | 4.8% | -1.0hPa | 2.7V | 00:00:00 | 00:00:00 | 00:00:00 | |
| OM5KV | 2026-09-06 04:41:20 | 47.11720 | 16.26040 | 130° | 66km/h | 3687m | -2.8m/s | 2.5°C | 5.1% | 0hPa | 2.7V | 07:17:00 | 00:00:00 | 00:00:00 | |
| OM5KV | 2026-09-06 04:41:19 | 47.11730 | 16.26021 | 130° | 68km/h | 3689m | -2.5m/s | 2.5°C | 5.1% | 0hPa | 2.7V | 07:17:00 | 00:00:00 | 00:00:00 | |
| PETON7-10 | 2026-09-06 04:41:18 | 47.11752 | 16.25982 | 130° | 69km/h | 3694m | -2.1m/s | 2.5°C | 5.4% | 0hPa | 2.7V | 00:00:00 | 00:00:00 | 00:00:00 | |
| OM5KV | 2026-09-06 04:41:15 | 47.11774 | 16.25942 | 130° | 69km/h | 3700m | -2.5m/s | 2.5°C | 5.5% | 0hPa | 2.7V | 07:17:00 | 00:00:00 | 00:00:00 | |
| OM5KV | 2026-09-06 04:41:14 | 47.11786 | 16.25922 | 131° | 69km/h | 3702m | -2.8m/s | 2.5°C | 5.4% | 0hPa | 2.7V | 07:17:00 | 00:00:00 | 00:00:00 | |
| OM5KV | 2026-09-06 04:41:10 | 47.11831 | 16.25843 | 131° | 71km/h | 3713m | -2.6m/s | 2.6°C | 4.7% | 0hPa | 2.7V | 07:17:00 | 00:00:00 | 00:00:00 | |
| OM5KV | 2026-09-06 04:41:09 | 47.11843 | 16.25823 | 131° | 69km/h | 3716m | -2.8m/s | 2.7°C | 4.5% | 0hPa | 2.7V | 07:17:00 | 00:00:00 | 00:00:00 | |
| OM5KV | 2026-09-06 04:41:08 | 47.11854 | 16.25803 | 132° | 71km/h | 3718m | -2.7m/s | 2.7°C | 4.4% | 0hPa | 2.7V | 07:17:00 | 00:00:00 | 00:00:00 | |
| S52SK | 2026-09-06 04:41:07 | 47.11866 | 16.25783 | 131° | 71km/h | 3721m | -2.5m/s | 2.7°C | 4.3% | 0hPa | 2.7V | 00:00:00 | 00:00:00 | 00:00:00 | |
| OM5KV | 2026-09-06 04:41:04 | 47.11901 | 16.25723 | 133° | 71km/h | 3730m | -2.8m/s | 2.8°C | 4.2% | 0hPa | 2.7V | 07:17:00 | 00:00:00 | 00:00:00 | |
| OM5KV | 2026-09-06 04:41:03 | 47.11914 | 16.25703 | 132° | 71km/h | 3732m | -2.8m/s | 2.8°C | 4.0% | 0hPa | 2.7V | 07:17:00 | 00:00:00 | 00:00:00 | |
| S52SK | 2026-09-06 04:41:01 | 47.11938 | 16.25663 | 134° | 73km/h | 3737m | -2.4m/s | 2.8°C | 3.9% | 0hPa | 2.7V | 00:00:00 | 00:00:00 | 00:00:00 | |
| OE3OSB-13 | 2026-09-06 04:40:54 | 47.12052 | 16.25487 | 133° | 71km/h | 3761m | -2.7m/s | 2.9°C | 3.0% | -1.0hPa | 2.7V | 00:00:00 | 00:00:00 | 00:00:00 | |
| PETON7-10 | 2026-09-06 04:40:48 | 47.12116 | 16.25389 | 134° | 73km/h | 3775m | -2.7m/s | 2.8°C | 3.2% | 0hPa | 2.7V | 00:00:00 | 02:51:52 | 00:00:00 | |
| OM5KV | 2026-09-06 04:40:47 | 47.12116 | 16.25389 | 135° | 73km/h | 3775m | -2.7m/s | 2.8°C | 3.2% | 0hPa | 2.7V | 07:17:00 | 00:00:00 | 00:00:00 | |
| OM5KV | 2026-09-06 04:40:45 | 47.12142 | 16.25350 | 135° | 73km/h | 3780m | -3.2m/s | 2.8°C | 3.7% | 0hPa | 2.7V | 07:17:00 | 00:00:00 | 00:00:00 | |
| OM5KV | 2026-09-06 04:40:42 | 47.12181 | 16.25292 | 135° | 73km/h | 3788m | -2.9m/s | 2.7°C | 4.6% | 0hPa | 2.7V | 07:17:00 | 00:00:00 | 00:00:00 | |
| OM5KV | 2026-09-06 04:40:41 | 47.12194 | 16.25272 | 136° | 73km/h | 3791m | -2.9m/s | 2.7°C | 4.8% | 0hPa | 2.7V | 07:17:00 | 00:00:00 | 00:00:00 | |
| OM5KV | 2026-09-06 04:40:38 | 47.12232 | 16.25214 | 135° | 73km/h | 3800m | -3.2m/s | 2.7°C | 5.0% | 0hPa | 2.7V | 07:17:00 | 00:00:00 | 00:00:00 | |
| OM5KV | 2026-09-06 04:40:35 | 47.12271 | 16.25156 | 135° | 73km/h | 3809m | -3.2m/s | 2.6°C | 5.3% | 0hPa | 2.7V | 07:18:00 | 00:00:00 | 00:00:00 | |
| PETON7-10 | 2026-09-06 04:40:33 | 47.12310 | 16.25099 | 137° | 71km/h | 3817m | -2.6m/s | 2.5°C | 5.4% | 0hPa | 2.7V | 00:00:00 | 00:00:00 | 00:00:00 | |
| OM5KV | 2026-09-06 04:40:32 | 47.12310 | 16.25099 | 137° | 73km/h | 3817m | -2.7m/s | 2.5°C | 5.5% | 0hPa | 2.7V | 07:18:00 | 00:00:00 | 00:00:00 | |
| OE3JTB-15 | 2026-09-06 04:40:29 | 47.12390 | 16.24989 | 138° | 71km/h | 3835m | -2.9m/s | 2.3°C | 6.3% | 0hPa | 2.7V | 00:00:00 | 00:00:00 | 00:00:00 | |
| OM5KV | 2026-09-06 04:40:27 | 47.12390 | 16.24989 | 139° | 71km/h | 3835m | -3.0m/s | 2.4°C | 6.3% | 0hPa | 2.7V | 07:18:00 | 00:00:00 | 00:00:00 | |
| OM5KV | 2026-09-06 04:40:23 | 47.12431 | 16.24935 | 139° | 71km/h | 3843m | -2.8m/s | 2.3°C | 6.7% | 0hPa | 2.7V | 07:18:00 | 00:00:00 | 00:00:00 | |
| OE3OSB-13 | 2026-09-06 04:40:22 | 47.12458 | 16.24900 | 138° | 71km/h | 3849m | -3.1m/s | 2.3°C | 6.8% | -1.0hPa | 2.7V | 00:00:00 | 00:00:00 | 00:00:00 | |
| OM5KV | 2026-09-06 04:40:21 | 47.12458 | 16.24899 | 139° | 71km/h | 3849m | -3.1m/s | 2.3°C | 6.8% | 0hPa | 2.7V | 07:18:00 | 00:00:00 | 00:00:00 | |
| OM5KV | 2026-09-06 04:40:19 | 47.12485 | 16.24864 | 140° | 71km/h | 3854m | -3.0m/s | 2.2°C | 6.9% | 0hPa | 2.7V | 07:18:00 | 00:00:00 | 00:00:00 | |
| PETON7-10 | 2026-09-06 04:40:18 | 47.12512 | 16.24829 | 139° | 69km/h | 3860m | -3.0m/s | 2.1°C | 7.1% | 0hPa | 2.7V | 00:00:00 | 00:00:00 | 00:00:00 | |
| OM5KV | 2026-09-06 04:40:06 | 47.12662 | 16.24643 | 142° | 69km/h | 3892m | -3.0m/s | 2.0°C | 8.7% | 0hPa | 2.7V | 07:18:00 | 00:00:00 | 00:00:00 | |
| PETON7-10 | 2026-09-06 04:40:03 | 47.12716 | 16.24577 | 141° | 71km/h | 3904m | -3.1m/s | 1.9°C | 8.3% | 0hPa | 2.7V | 00:00:00 | 02:51:07 | 00:00:00 | |
| OE3OSB-13 | 2026-09-06 04:39:51 | 47.12882 | 16.24372 | 139° | 71km/h | 3938m | -3.3m/s | 1.6°C | 8.8% | -1.0hPa | 2.7V | 00:00:00 | 00:00:00 | 00:00:00 | |
| PETON7-10 | 2026-09-06 04:39:48 | 47.12923 | 16.24320 | 140° | 71km/h | 3948m | -3.4m/s | 1.5°C | 8.8% | 0hPa | 2.7V | 00:00:00 | 00:00:00 | 00:00:00 | |
| OM5KV | 2026-09-06 04:39:45 | 47.12951 | 16.24286 | 141° | 71km/h | 3954m | -2.9m/s | 1.5°C | 8.8% | 0hPa | 2.7V | 07:19:00 | 00:00:00 | 00:00:00 | |
| OM5KV | 2026-09-06 04:39:44 | 47.12966 | 16.24269 | 141° | 71km/h | 3957m | -3.0m/s | 1.5°C | 8.8% | 0hPa | 2.7V | 07:19:00 | 00:00:00 | 00:00:00 | |
| OM5KV | 2026-09-06 04:39:38 | 47.13050 | 16.24169 | 143° | 69km/h | 3976m | -3.2m/s | 1.3°C | 8.9% | 0hPa | 2.7V | 07:19:00 | 00:00:00 | 00:00:00 | |
| PETON7-10 | 2026-09-06 04:39:33 | 47.13133 | 16.24074 | 142° | 68km/h | 3993m | -2.8m/s | 1.1°C | 9.3% | 0hPa | 2.7V | 07:18:00 | 00:00:00 | 00:00:00 | |
| OM5KV | 2026-09-06 04:39:32 | 47.13133 | 16.24074 | 142° | 69km/h | 3993m | -2.8m/s | 1.2°C | 9.3% | 0hPa | 2.7V | 07:19:00 | 00:00:00 | 00:00:00 | |
| OE3JTB-15 | 2026-09-06 04:39:29 | 47.13188 | 16.24011 | 143° | 66km/h | 4005m | -2.7m/s | 1.1°C | 9.3% | 0hPa | 2.7V | 00:00:00 | 00:00:00 | 00:00:00 | |
| OM5KV | 2026-09-06 04:39:26 | 47.13216 | 16.23981 | 144° | 68km/h | 4011m | -2.8m/s | 1.1°C | 9.3% | 0hPa | 2.7V | 07:19:00 | 00:00:00 | 00:00:00 | |
| OM5KV | 2026-09-06 04:39:24 | 47.13243 | 16.23951 | 144° | 66km/h | 4016m | -3.0m/s | 1.0°C | 9.3% | 0hPa | 2.7V | 07:19:00 | 00:00:00 | 00:00:00 | |
| OM5KV | 2026-09-06 04:39:21 | 47.13284 | 16.23908 | 146° | 66km/h | 4025m | -2.6m/s | 1.0°C | 9.0% | 0hPa | 2.7V | 07:19:00 | 00:00:00 | 00:00:00 | |
| OE3OSB-13 | 2026-09-06 04:39:20 | 47.13312 | 16.23879 | 145° | 66km/h | 4030m | -2.8m/s | 0.9°C | 8.6% | -1.0hPa | 2.7V | 00:00:00 | 00:00:00 | 00:00:00 | |
| PETON7-10 | 2026-09-06 04:39:19 | 47.13339 | 16.23850 | 144° | 64km/h | 4036m | -3.2m/s | 0.9°C | 8.6% | 0hPa | 2.7V | 00:00:00 | 02:50:22 | 00:00:00 | |
| OM5KV | 2026-09-06 04:39:17 | 47.13353 | 16.23835 | 144° | 68km/h | 4039m | -3.4m/s | 0.9°C | 8.6% | 0hPa | 2.7V | 07:19:00 | 00:00:00 | 00:00:00 | |
| OM5KV | 2026-09-06 04:39:11 | 47.13420 | 16.23763 | 144° | 64km/h | 4054m | -2.5m/s | 0.8°C | 7.6% | 0hPa | 2.7V | 07:19:00 | 00:00:00 | 00:00:00 | |
| OM5KV | 2026-09-06 04:39:10 | 47.13432 | 16.23749 | 144° | 64km/h | 4056m | -2.6m/s | 0.8°C | 7.5% | 0hPa | 2.7V | 07:19:00 | 00:00:00 | 00:00:00 | |
| OM5KV | 2026-09-06 04:39:06 | 47.13483 | 16.23693 | 144° | 62km/h | 4067m | -2.8m/s | 0.7°C | 7.5% | 0hPa | 2.7V | 07:19:00 | 00:00:00 | 00:00:00 | |
| OM5KV | 2026-09-06 04:39:05 | 47.13496 | 16.23679 | 144° | 62km/h | 4070m | -2.6m/s | 0.7°C | 7.5% | 0hPa | 2.7V | 07:19:00 | 00:00:00 | 00:00:00 | |
| OM5KV | 2026-09-06 04:39:03 | 47.13521 | 16.23651 | 143° | 64km/h | 4075m | -2.6m/s | 0.6°C | 7.5% | 0hPa | 2.7V | 07:19:00 | 00:00:00 | 00:00:00 | |
| OE3OSB-13 | 2026-09-06 04:38:49 | 47.13724 | 16.23427 | 142° | 60km/h | 4116m | -2.6m/s | 0.5°C | 6.6% | -1.0hPa | 2.7V | 00:00:00 | 00:00:00 | 00:00:00 | |
| PETON7-10 | 2026-09-06 04:38:48 | 47.13723 | 16.23427 | 143° | 60km/h | 4116m | -2.6m/s | 0.5°C | 6.6% | 0hPa | 2.7V | 00:00:00 | 00:00:00 | 00:00:00 | |
| S52SK | 2026-09-06 04:38:46 | 47.13736 | 16.23412 | 142° | 62km/h | 4118m | -2.5m/s | 0.5°C | 6.7% | 0hPa | 2.7V | 00:00:00 | 00:00:00 | 00:00:00 | |
| OM5KV | 2026-09-06 04:38:43 | 47.13772 | 16.23370 | 142° | 60km/h | 4126m | -2.5m/s | 0.4°C | 8.2% | 0hPa | 2.7V | 07:20:00 | 00:00:00 | 00:00:00 | |
| OM5KV | 2026-09-06 04:38:37 | 47.13843 | 16.23284 | 141° | 60km/h | 4141m | -2.5m/s | 0.4°C | 8.3% | 0hPa | 2.7V | 07:20:00 | 00:00:00 | 00:00:00 | |
| PETON7-10 | 2026-09-06 04:38:33 | 47.13901 | 16.23211 | 140° | 60km/h | 4153m | -2.5m/s | 0.3°C | 8.3% | 0hPa | 2.7V | 00:00:00 | 02:49:37 | 00:00:00 | |
| OE3JTB-15 | 2026-09-06 04:38:31 | 47.13925 | 16.23182 | 140° | 60km/h | 4158m | -2.5m/s | 0.3°C | 8.3% | 0hPa | 2.7V | 00:00:00 | 02:49:35 | 00:00:00 | |
| OM5KV | 2026-09-06 04:38:30 | 47.13925 | 16.23182 | 140° | 60km/h | 4158m | -2.5m/s | 0.3°C | 8.3% | 0hPa | 2.7V | 07:20:00 | 00:00:00 | 00:00:00 | |
| OM5KV | 2026-09-06 04:38:25 | 47.13985 | 16.23110 | 141° | 62km/h | 4170m | -2.3m/s | 0.2°C | 8.0% | 0hPa | 2.7V | 07:20:00 | 00:00:00 | 00:00:00 | |
| OM5KV | 2026-09-06 04:38:24 | 47.13997 | 16.23096 | 142° | 60km/h | 4172m | -2.2m/s | 0.2°C | 8.0% | 0hPa | 2.7V | 07:20:00 | 00:00:00 | 00:00:00 | |
| OM5KV | 2026-09-06 04:38:19 | 47.14057 | 16.23025 | 143° | 62km/h | 4184m | -2.8m/s | 0.1°C | 7.8% | 0hPa | 2.7V | 07:20:00 | 00:00:00 | 00:00:00 | |
| PETON7-10 | 2026-09-06 04:38:18 | 47.14081 | 16.22997 | 142° | 60km/h | 4189m | -2.3m/s | 0.1°C | 7.8% | 0hPa | 2.7V | 00:00:00 | 00:00:00 | 00:00:00 | |
| PG1ADW-2 | 2026-09-06 04:38:14 | 47.14130 | 16.22942 | 143° | 60km/h | 4199m | -2.3m/s | 0.0°C | 7.6% | 0hPa | 2.7V | 00:00:00 | 00:00:00 | 00:00:00 | |
| OM5KV | 2026-09-06 04:38:13 | 47.14130 | 16.22942 | 143° | 60km/h | 4199m | -2.4m/s | 0.1°C | 7.6% | 0hPa | 2.7V | 07:20:00 | 00:00:00 | 00:00:00 | |
| OM5KV | 2026-09-06 04:38:07 | 47.14203 | 16.22858 | 143° | 60km/h | 4212m | -2.6m/s | -0.0°C | 7.7% | 0hPa | 2.7V | 07:20:00 | 00:00:00 | 00:00:00 | |
| OM5KV | 2026-09-06 04:38:01 | 47.14277 | 16.22776 | 143° | 60km/h | 4227m | -2.1m/s | -0.1°C | 7.6% | 0hPa | 2.7V | 07:21:00 | 00:00:00 | 00:00:00 | |
| OE3OSB-13 | 2026-09-06 04:37:47 | 47.14453 | 16.22543 | 132° | 58km/h | 4262m | -2.1m/s | -0.2°C | 7.3% | -1.0hPa | 2.7V | 00:00:00 | 00:00:00 | 00:00:00 | |
| OM5KV | 2026-09-06 04:37:46 | 47.14443 | 16.22559 | 136° | 58km/h | 4260m | -2.1m/s | -0.2°C | 7.3% | 0hPa | 2.7V | 07:21:00 | 00:00:00 | 00:00:00 | |
| S52SK | 2026-09-06 04:37:45 | 47.14453 | 16.22543 | 134° | 58km/h | 4262m | -2.1m/s | -0.2°C | 7.3% | 0hPa | 2.7V | 00:00:00 | 00:00:00 | 00:00:00 | |
| OM5KV | 2026-09-06 04:37:40 | 47.14505 | 16.22463 | 135° | 58km/h | 4273m | -2.3m/s | -0.3°C | 7.3% | 0hPa | 2.7V | 07:21:00 | 00:00:00 | 00:00:00 | |
| S52SK | 2026-09-06 04:37:39 | 47.14515 | 16.22447 | 135° | 60km/h | 4276m | -2.6m/s | -0.3°C | 7.4% | 0hPa | 2.7V | 00:00:00 | 00:00:00 | 00:00:00 | |
| PG1ADW-2 | 2026-09-06 04:37:34 | 47.14577 | 16.22350 | 133° | 62km/h | 4290m | -2.3m/s | -0.3°C | 7.7% | 0hPa | 2.7V | 00:00:00 | 02:48:38 | 00:00:00 | |
| PETON7-10 | 2026-09-06 04:37:33 | 47.14587 | 16.22333 | 133° | 62km/h | 4292m | -2.6m/s | -0.4°C | 7.7% | 0hPa | 2.7V | 07:20:00 | 00:00:00 | 00:00:00 | |
| OM5KV | 2026-09-06 04:37:29 | 47.14619 | 16.22282 | 132° | 64km/h | 4300m | -2.4m/s | -0.5°C | 7.7% | 0hPa | 2.7V | 07:21:00 | 00:00:00 | 00:00:00 | |
| OM5KV | 2026-09-06 04:37:27 | 47.14640 | 16.22247 | 133° | 64km/h | 4304m | -2.2m/s | -0.5°C | 7.8% | 0hPa | 2.7V | 07:21:00 | 00:00:00 | 00:00:00 | |
| OM5KV | 2026-09-06 04:37:24 | 47.14672 | 16.22194 | 132° | 64km/h | 4311m | -2.0m/s | -0.6°C | 7.8% | 0hPa | 2.7V | 07:21:00 | 00:00:00 | 00:00:00 | |
| OM5KV | 2026-09-06 04:37:20 | 47.14714 | 16.22123 | 132° | 64km/h | 4320m | -2.9m/s | -0.7°C | 7.9% | 0hPa | 2.7V | 07:21:00 | 00:00:00 | 00:00:00 | |
| OM5KV | 2026-09-06 04:37:19 | 47.14725 | 16.22105 | 131° | 64km/h | 4322m | -2.7m/s | -0.7°C | 7.9% | 0hPa | 2.7V | 07:21:00 | 00:00:00 | 00:00:00 | |
| PETON7-10 | 2026-09-06 04:37:18 | 47.14746 | 16.22070 | 133° | 64km/h | 4328m | -2.9m/s | -0.7°C | 8.0% | 0hPa | 2.7V | 00:00:00 | 00:00:00 | 00:00:00 | |
| OM5KV | 2026-09-06 04:37:17 | 47.14746 | 16.22070 | 133° | 62km/h | 4328m | -2.9m/s | -0.8°C | 7.9% | 0hPa | 2.7V | 07:21:00 | 00:00:00 | 00:00:00 | |
| OE3OSB-13 | 2026-09-06 04:37:16 | 47.14777 | 16.22016 | 130° | 64km/h | 4336m | -2.6m/s | -0.8°C | 8.0% | -1.0hPa | 2.7V | 00:00:00 | 00:00:00 | 00:00:00 | |
| PG1ADW-2 | 2026-09-06 04:37:14 | 47.14788 | 16.21998 | 130° | 64km/h | 4339m | -2.1m/s | -0.8°C | 8.0% | 0hPa | 2.7V | 00:00:00 | 00:00:00 | 00:00:00 | |
| OM5KV | 2026-09-06 04:37:12 | 47.14798 | 16.21980 | 130° | 66km/h | 4341m | -2.5m/s | -0.9°C | 8.0% | 0hPa | 2.7V | 07:21:00 | 00:00:00 | 00:00:00 | |
| OM5KV | 2026-09-06 04:37:07 | 47.14851 | 16.21889 | 131° | 62km/h | 4352m | -2.2m/s | -1.0°C | 8.1% | 0hPa | 2.7V | 07:21:00 | 00:00:00 | 00:00:00 | |
| OM5KV | 2026-09-06 04:37:06 | 47.14861 | 16.21871 | 131° | 62km/h | 4354m | -2.1m/s | -1.0°C | 8.2% | 0hPa | 2.7V | 07:21:00 | 00:00:00 | 00:00:00 | |
| OE3JTB-15 | 2026-09-06 04:37:04 | 47.14893 | 16.21816 | 129° | 66km/h | 4361m | -2.6m/s | -1.0°C | 8.3% | 0hPa | 2.7V | 00:00:00 | 02:48:08 | 00:00:00 | |
| PETON7-10 | 2026-09-06 04:37:03 | 47.14903 | 16.21797 | 129° | 66km/h | 4363m | -2.4m/s | -1.0°C | 8.3% | 0hPa | 2.7V | 00:00:00 | 02:48:07 | 00:00:00 | |
| OE3OSB-13 | 2026-09-06 04:36:45 | 47.15095 | 16.21429 | 125° | 66km/h | 4408m | -2.5m/s | -1.4°C | 9.1% | -1.0hPa | 2.7V | 00:00:00 | 00:00:00 | 00:00:00 | |
| OM5KV | 2026-09-06 04:36:42 | 47.15105 | 16.21410 | 129° | 66km/h | 4411m | -2.5m/s | -1.4°C | 9.1% | 0hPa | 2.7V | 07:21:00 | 00:00:00 | 00:00:00 | |
| S52SK | 2026-09-06 04:36:38 | 47.15144 | 16.21333 | 128° | 64km/h | 4420m | -2.2m/s | -1.4°C | 9.2% | 0hPa | 2.7V | 00:00:00 | 00:00:00 | 00:00:00 | |
| OM5KV | 2026-09-06 04:36:36 | 47.15163 | 16.21295 | 128° | 64km/h | 4425m | -2.6m/s | -1.5°C | 9.2% | 0hPa | 2.7V | 07:21:00 | 00:00:00 | 00:00:00 | |
| OE3JTB-15 | 2026-09-06 04:36:35 | 47.15183 | 16.21257 | 128° | 64km/h | 4430m | -2.5m/s | -1.4°C | 9.4% | 0hPa | 2.7V | 00:00:00 | 00:00:00 | 00:00:00 | |
| PG1ADW-2 | 2026-09-06 04:36:34 | 47.15192 | 16.21238 | 126° | 64km/h | 4432m | -2.4m/s | -1.5°C | 9.3% | 0hPa | 2.7V | 00:00:00 | 00:00:00 | 00:00:00 | |
| PETON7-10 | 2026-09-06 04:36:33 | 47.15201 | 16.21220 | 126° | 64km/h | 4435m | -2.5m/s | -1.4°C | 9.3% | 0hPa | 2.7V | 00:00:00 | 00:00:00 | 00:00:00 | |
| S52SK | 2026-09-06 04:36:32 | 47.15201 | 16.21220 | 127° | 62km/h | 4435m | -2.6m/s | -1.5°C | 9.3% | 0hPa | 2.7V | 00:00:00 | 00:00:00 | 00:00:00 | |
| OM5KV | 2026-09-06 04:36:30 | 47.15220 | 16.21182 | 128° | 62km/h | 4440m | -2.4m/s | -1.5°C | 9.3% | 0hPa | 2.7V | 07:21:00 | 00:00:00 | 00:00:00 | |
| OM5KV | 2026-09-06 04:36:24 | 47.15276 | 16.21083 | 125° | 64km/h | 4453m | -2.0m/s | -1.6°C | 9.2% | 0hPa | 2.7V | 07:21:00 | 00:00:00 | 00:00:00 | |
| PETON7-10 | 2026-09-06 04:36:18 | 47.15341 | 16.20931 | 127° | 62km/h | 4468m | -2.1m/s | -1.7°C | 9.2% | 0hPa | 2.7V | 00:00:00 | 02:47:22 | 00:00:00 | |
| PG1ADW-2 | 2026-09-06 04:36:14 | 47.15379 | 16.20856 | 125° | 64km/h | 4477m | -2.2m/s | -1.8°C | 9.1% | 0hPa | 2.7V | 00:00:00 | 02:47:18 | 00:00:00 | |
| OM5KV | 2026-09-06 04:36:12 | 47.15388 | 16.20837 | 127° | 64km/h | 4480m | -2.5m/s | -1.8°C | 8.9% | 0hPa | 2.7V | 07:22:00 | 00:00:00 | 00:00:00 | |
| OM5KV | 2026-09-06 04:36:07 | 47.15434 | 16.20741 | 125° | 62km/h | 4490m | -1.7m/s | -1.9°C | 8.3% | 0hPa | 2.7V | 07:22:00 | 00:00:00 | 00:00:00 | |
| OE3JTB-15 | 2026-09-06 04:36:06 | 47.15451 | 16.20703 | 126° | 68km/h | 4494m | -2.5m/s | -1.8°C | 8.3% | 0hPa | 2.7V | 00:00:00 | 00:00:00 | 00:00:00 | |
| OM5KV | 2026-09-06 04:36:05 | 47.15451 | 16.20703 | 127° | 64km/h | 4494m | -2.6m/s | -1.9°C | 8.2% | 0hPa | 2.7V | 07:22:00 | 00:00:00 | 00:00:00 | |
| OM5KV | 2026-09-06 04:36:03 | 47.15488 | 16.20624 | 126° | 64km/h | 4504m | -2.0m/s | -1.9°C | 8.1% | 0hPa | 2.7V | 07:22:00 | 00:00:00 | 00:00:00 | |
| OM5KV | 2026-09-06 04:36:01 | 47.15488 | 16.20624 | 126° | 64km/h | 4504m | -2.0m/s | -1.9°C | 8.1% | 0hPa | 2.7V | 07:22:00 | 00:00:00 | 00:00:00 | |
| OM5KV | 2026-09-06 04:36:00 | 47.15497 | 16.20604 | 124° | 66km/h | 4506m | -2.3m/s | -1.9°C | 8.2% | 0hPa | 2.7V | 07:22:00 | 00:00:00 | 00:00:00 | |
| PG1ADW-2 | 2026-09-06 04:35:54 | 47.15560 | 16.20459 | 124° | 69km/h | 4523m | -2.1m/s | -2.0°C | 7.9% | 0hPa | 2.7V | 00:00:00 | 00:00:00 | 00:00:00 | |
| OM5KV | 2026-09-06 04:35:53 | 47.15560 | 16.20459 | 125° | 66km/h | 4523m | -2.2m/s | -2.0°C | 7.8% | 0hPa | 2.7V | 07:22:00 | 00:00:00 | 00:00:00 | |
| PETON7-10 | 2026-09-06 04:35:48 | 47.15615 | 16.20333 | 124° | 69km/h | 4535m | -2.8m/s | -2.0°C | 7.8% | 0hPa | 2.7V | 00:00:00 | 00:00:00 | 00:00:00 | |
| OM5KV | 2026-09-06 04:35:44 | 47.15642 | 16.20267 | 122° | 68km/h | 4542m | -2.2m/s | -2.0°C | 7.9% | 0hPa | 2.7V | 07:22:00 | 00:00:00 | 00:00:00 | |
| OE3OSB-13 | 2026-09-06 04:35:43 | 47.15670 | 16.20201 | 119° | 69km/h | 4549m | -2.7m/s | -2.0°C | 7.9% | -1.0hPa | 2.7V | 00:00:00 | 00:00:00 | 00:00:00 | |
| OM5KV | 2026-09-06 04:35:41 | 47.15669 | 16.20201 | 121° | 71km/h | 4549m | -2.7m/s | -2.0°C | 7.9% | 0hPa | 2.7V | 07:22:00 | 00:00:00 | 00:00:00 | |
| OE3JTB-15 | 2026-09-06 04:35:37 | 47.15715 | 16.20091 | 121° | 71km/h | 4561m | -2.4m/s | -2.0°C | 8.0% | 0hPa | 2.7V | 00:00:00 | 02:46:41 | 00:00:00 | |
| OM5KV | 2026-09-06 04:35:36 | 47.15715 | 16.20091 | 121° | 69km/h | 4561m | -2.5m/s | -2.0°C | 7.9% | 0hPa | 2.7V | 07:22:00 | 00:00:00 | 00:00:00 | |
| PG1ADW-2 | 2026-09-06 04:35:34 | 47.15742 | 16.20023 | 121° | 71km/h | 4568m | -2.8m/s | -2.0°C | 8.2% | 0hPa | 2.7V | 00:00:00 | 00:00:00 | 00:00:00 | |
| PETON7-10 | 2026-09-06 04:35:33 | 47.15751 | 16.20001 | 119° | 71km/h | 4571m | -2.4m/s | -2.0°C | 8.2% | 0hPa | 2.6V | 07:22:00 | 02:46:37 | 00:00:00 | |
| S52SK | 2026-09-06 04:35:30 | 47.15768 | 16.19956 | 119° | 71km/h | 4576m | -2.5m/s | -2.0°C | 8.1% | 0hPa | 2.6V | 00:00:00 | 00:00:00 | 00:00:00 | |
| OM5KV | 2026-09-06 04:35:27 | 47.15794 | 16.19887 | 120° | 69km/h | 4582m | -2.3m/s | -2.1°C | 8.1% | 0hPa | 2.6V | 07:23:00 | 00:00:00 | 00:00:00 | |
| S52SK | 2026-09-06 04:35:24 | 47.15820 | 16.19817 | 120° | 69km/h | 4589m | -2.0m/s | -2.1°C | 8.1% | 0hPa | 2.6V | 00:00:00 | 00:00:00 | 00:00:00 | |
| OM5KV | 2026-09-06 04:35:21 | 47.15847 | 16.19749 | 121° | 71km/h | 4595m | -2.3m/s | -2.1°C | 8.1% | 0hPa | 2.6V | 07:23:00 | 00:00:00 | 00:00:00 | |
| OM5KV | 2026-09-06 04:35:19 | 47.15865 | 16.19703 | 122° | 71km/h | 4599m | -2.1m/s | -2.2°C | 8.1% | 0hPa | 2.6V | 07:23:00 | 00:00:00 | 00:00:00 | |
| PETON7-10 | 2026-09-06 04:35:18 | 47.15882 | 16.19657 | 119° | 73km/h | 4603m | -2.2m/s | -2.1°C | 8.2% | 0hPa | 2.6V | 00:00:00 | 00:00:00 | 00:00:00 | |
| PG1ADW-2 | 2026-09-06 04:35:14 | 47.15917 | 16.19563 | 120° | 75km/h | 4610m | -1.6m/s | -2.2°C | 8.2% | 0hPa | 2.7V | 00:00:00 | 00:00:00 | 00:00:00 | |
| OE3OSB-13 | 2026-09-06 04:35:12 | 47.15944 | 16.19492 | 119° | 73km/h | 4616m | -2.7m/s | -2.2°C | 7.6% | -1.0hPa | 2.7V | 00:00:00 | 00:00:00 | 00:00:00 | |
| OE3JTB-15 | 2026-09-06 04:35:08 | 47.15970 | 16.19419 | 118° | 75km/h | 4623m | -1.8m/s | -2.1°C | 7.1% | 0hPa | 2.7V | 00:00:00 | 00:00:00 | 00:00:00 | |
| OM5KV | 2026-09-06 04:35:07 | 47.15970 | 16.19419 | 118° | 73km/h | 4623m | -1.8m/s | -2.1°C | 7.0% | 0hPa | 2.7V | 07:23:00 | 00:00:00 | 00:00:00 | |
| PETON7-10 | 2026-09-06 04:35:03 | 47.16014 | 16.19299 | 120° | 75km/h | 4634m | -2.4m/s | -2.2°C | 7.3% | 0hPa | 2.7V | 00:00:00 | 00:00:00 | 00:00:00 | |
| OM5KV | 2026-09-06 04:35:00 | 47.16033 | 16.19250 | 121° | 77km/h | 4638m | -2.3m/s | -2.2°C | 7.1% | 0hPa | 2.7V | 07:23:00 | 00:00:00 | 00:00:00 | |
| OM5KV | 2026-09-06 04:34:57 | 47.16062 | 16.19177 | 121° | 75km/h | 4644m | -2.1m/s | -2.3°C | 7.0% | 0hPa | 2.7V | 07:23:00 | 00:00:00 | 00:00:00 | |
| OM5KV | 2026-09-06 04:34:55 | 47.16081 | 16.19128 | 121° | 77km/h | 4648m | -2.0m/s | -2.3°C | 6.8% | 0hPa | 2.7V | 07:23:00 | 00:00:00 | 00:00:00 | |
| PG1ADW-2 | 2026-09-06 04:34:54 | 47.16101 | 16.19080 | 122° | 75km/h | 4652m | -2.0m/s | -2.3°C | 6.7% | 0hPa | 2.7V | 00:00:00 | 02:45:58 | 00:00:00 | |
| OM5KV | 2026-09-06 04:34:49 | 47.16142 | 16.18985 | 124° | 75km/h | 4660m | -2.2m/s | -2.3°C | 6.3% | 0hPa | 2.7V | 07:23:00 | 00:00:00 | 00:00:00 | |
| PETON7-10 | 2026-09-06 04:34:48 | 47.16163 | 16.18938 | 123° | 73km/h | 4664m | -2.2m/s | -2.3°C | 6.3% | 0hPa | 2.7V | 00:00:00 | 02:45:52 | 00:00:00 | |
| S57NTA-12 | 2026-09-06 04:34:47 | 47.16163 | 16.18938 | 124° | 77km/h | 4664m | -2.3m/s | -2.3°C | 6.2% | 0hPa | 2.7V | 07:23:00 | 00:00:00 | 00:00:00 | |
| OM5KV | 2026-09-06 04:34:43 | 47.16205 | 16.18844 | 126° | 75km/h | 4672m | -2.2m/s | -2.4°C | 6.2% | 0hPa | 2.7V | 07:23:00 | 00:00:00 | 00:00:00 | |
| OM5KV | 2026-09-06 04:34:41 | 47.16227 | 16.18799 | 127° | 75km/h | 4676m | -1.8m/s | -2.4°C | 6.2% | 0hPa | 2.7V | 07:23:00 | 00:00:00 | 00:00:00 | |
| OE3OSB-13 | 2026-09-06 04:34:40 | 47.16248 | 16.18754 | 125° | 73km/h | 4680m | -2.4m/s | -2.4°C | 6.2% | -1.0hPa | 2.7V | 00:00:00 | 00:00:00 | 00:00:00 | |
| OE3JTB-15 | 2026-09-06 04:34:39 | 47.16258 | 16.18732 | 126° | 69km/h | 4682m | -2.0m/s | -2.4°C | 6.3% | 0hPa | 2.7V | 00:00:00 | 00:00:00 | 00:00:00 | |
| OM5KV | 2026-09-06 04:34:35 | 47.16290 | 16.18666 | 128° | 73km/h | 4689m | -2.7m/s | -2.5°C | 6.2% | 0hPa | 2.7V | 07:24:00 | 00:00:00 | 00:00:00 | |
| PG1ADW-2 | 2026-09-06 04:34:34 | 47.16312 | 16.18623 | 128° | 69km/h | 4694m | -2.3m/s | -2.5°C | 6.3% | 0hPa | 2.7V | 00:00:00 | 00:00:00 | 00:00:00 | |
| PETON7-10 | 2026-09-06 04:34:33 | 47.16323 | 16.18602 | 128° | 69km/h | 4696m | -2.2m/s | -2.5°C | 6.3% | 0hPa | 2.7V | 00:00:00 | 00:00:00 | 00:00:00 | |
| OM5KV | 2026-09-06 04:34:31 | 47.16334 | 16.18581 | 128° | 71km/h | 4698m | -2.9m/s | -2.5°C | 6.3% | 0hPa | 2.7V | 07:24:00 | 00:00:00 | 00:00:00 | |
| OM5KV | 2026-09-06 04:34:29 | 47.16356 | 16.18538 | 127° | 71km/h | 4704m | -2.8m/s | -2.6°C | 6.3% | 0hPa | 2.7V | 07:24:00 | 00:00:00 | 00:00:00 | |
| S57NTA-12 | 2026-09-06 04:34:25 | 47.16397 | 16.18456 | 129° | 69km/h | 4714m | -2.1m/s | -2.6°C | 6.5% | 0hPa | 2.7V | 00:00:00 | 00:00:00 | 00:00:00 | |
| S52SK | 2026-09-06 04:34:22 | 47.16430 | 16.18395 | 129° | 69km/h | 4720m | -2.1m/s | -2.7°C | 6.4% | 0hPa | 2.7V | 00:00:00 | 00:00:00 | 00:00:00 | |
| OM5KV | 2026-09-06 04:34:21 | 47.16440 | 16.18376 | 129° | 68km/h | 4722m | -2.5m/s | -2.7°C | 6.3% | 0hPa | 2.7V | 07:24:00 | 00:00:00 | 00:00:00 | |
| OM5KV | 2026-09-06 04:34:20 | 47.16451 | 16.18356 | 128° | 68km/h | 4724m | -2.3m/s | -2.7°C | 6.3% | 0hPa | 2.7V | 07:24:00 | 00:00:00 | 00:00:00 | |
| PETON7-10 | 2026-09-06 04:34:18 | 47.16482 | 16.18296 | 127° | 64km/h | 4730m | -2.1m/s | -2.7°C | 6.4% | 0hPa | 2.7V | 00:00:00 | 00:00:00 | 00:00:00 | |
| OM5KV | 2026-09-06 04:34:17 | 47.16481 | 16.18296 | 127° | 66km/h | 4730m | -2.2m/s | -2.8°C | 6.3% | 0hPa | 2.7V | 07:24:00 | 00:00:00 | 00:00:00 | |
| PG1ADW-2 | 2026-09-06 04:34:14 | 47.16521 | 16.18217 | 126° | 68km/h | 4739m | -1.9m/s | -2.8°C | 6.4% | 0hPa | 2.7V | 07:24:00 | 00:00:00 | 00:00:00 | |
| OE3OSB-13 | 2026-09-06 04:34:10 | 47.16568 | 16.18120 | 124° | 62km/h | 4749m | -2.0m/s | -2.9°C | 6.3% | -1.0hPa | 2.7V | 00:00:00 | 00:00:00 | 00:00:00 | |
| OM5KV | 2026-09-06 04:34:06 | 47.16586 | 16.18080 | 123° | 64km/h | 4753m | -1.9m/s | -2.9°C | 6.3% | 0hPa | 2.7V | 07:24:00 | 00:00:00 | 00:00:00 | |
| S57NTA-12 | 2026-09-06 04:34:04 | 47.16602 | 16.18039 | 121° | 66km/h | 4756m | -2.0m/s | -2.9°C | 6.1% | 0hPa | 2.7V | 00:00:00 | 00:00:00 | 00:00:00 | |
| PG1ADW-2 | 2026-09-06 04:33:54 | 47.16695 | 16.17789 | 120° | 75km/h | 4780m | -2.5m/s | -3.0°C | 5.5% | 0hPa | 2.7V | 00:00:00 | 00:00:00 | 00:00:00 | |
| OM5KV | 2026-09-06 04:33:52 | 47.16704 | 16.17766 | 120° | 73km/h | 4782m | -2.4m/s | -3.0°C | 5.2% | 0hPa | 2.7V | 07:24:00 | 00:00:00 | 00:00:00 | |
| OM5KV | 2026-09-06 04:33:49 | 47.16732 | 16.17694 | 122° | 75km/h | 4790m | -2.3m/s | -3.0°C | 4.8% | 0hPa | 2.7V | 07:24:00 | 00:00:00 | 00:00:00 | |
| PETON7-10 | 2026-09-06 04:33:48 | 47.16752 | 16.17647 | 121° | 75km/h | 4794m | -2.1m/s | -3.0°C | 4.9% | 0hPa | 2.7V | 00:00:00 | 00:00:00 | 00:00:00 | |
| OM5KV | 2026-09-06 04:33:43 | 47.16790 | 16.17551 | 122° | 75km/h | 4802m | -2.0m/s | -3.1°C | 4.7% | 0hPa | 2.7V | 07:25:00 | 00:00:00 | 00:00:00 | |
| OE3JTB-15 | 2026-09-06 04:33:41 | 47.16820 | 16.17480 | 123° | 78km/h | 4808m | -2.2m/s | -3.1°C | 4.8% | 0hPa | 2.7V | 00:00:00 | 00:00:00 | 00:00:00 | |
| OM5KV | 2026-09-06 04:33:40 | 47.16820 | 16.17480 | 124° | 77km/h | 4808m | -2.2m/s | -3.1°C | 4.7% | 0hPa | 2.6V | 07:25:00 | 00:00:00 | 00:00:00 | |
| OE3OSB-13 | 2026-09-06 04:33:38 | 47.16851 | 16.17408 | 121° | 75km/h | 4815m | -2.4m/s | -3.1°C | 4.7% | -1.0hPa | 2.6V | 00:00:00 | 00:00:00 | 00:00:00 | |
| PG1ADW-2 | 2026-09-06 04:33:34 | 47.16892 | 16.17312 | 122° | 78km/h | 4825m | -2.3m/s | -3.0°C | 4.8% | 0hPa | 2.6V | 00:00:00 | 02:44:38 | 00:00:00 | |
| OM5KV | 2026-09-06 04:33:26 | 47.16965 | 16.17143 | 124° | 77km/h | 4843m | -2.6m/s | -3.1°C | 4.7% | 0hPa | 2.7V | 07:25:00 | 00:00:00 | 00:00:00 | |
| OM5KV | 2026-09-06 04:33:24 | 47.16988 | 16.17094 | 125° | 77km/h | 4848m | -2.6m/s | -3.2°C | 4.7% | 0hPa | 2.7V | 07:25:00 | 00:00:00 | 00:00:00 | |
| OM5KV | 2026-09-06 04:33:21 | 47.17021 | 16.17022 | 125° | 77km/h | 4857m | -2.9m/s | -3.2°C | 4.7% | 0hPa | 2.7V | 07:25:00 | 00:00:00 | 00:00:00 | |
| OM5KV | 2026-09-06 04:33:20 | 47.17032 | 16.16998 | 125° | 80km/h | 4860m | -2.9m/s | -3.2°C | 4.7% | 0hPa | 2.7V | 07:25:00 | 00:00:00 | 00:00:00 | |
| OM5KV | 2026-09-06 04:33:19 | 47.17044 | 16.16973 | 127° | 80km/h | 4863m | -3.1m/s | -3.2°C | 4.7% | 0hPa | 2.7V | 07:25:00 | 00:00:00 | 00:00:00 | |
| PETON7-10 | 2026-09-06 04:33:18 | 47.17067 | 16.16925 | 128° | 80km/h | 4870m | -2.1m/s | -3.2°C | 4.7% | 0hPa | 2.7V | 00:00:00 | 02:44:22 | 00:00:00 | |
| OM5KV | 2026-09-06 04:33:16 | 47.17080 | 16.16902 | 127° | 78km/h | 4872m | -1.9m/s | -3.3°C | 4.6% | 0hPa | 2.7V | 07:25:00 | 00:00:00 | 00:00:00 | |
| OM5KV | 2026-09-06 04:33:15 | 47.17091 | 16.16878 | 127° | 78km/h | 4874m | -1.9m/s | -3.3°C | 4.5% | 0hPa | 2.7V | 07:25:00 | 00:00:00 | 00:00:00 | |
| PG1ADW-2 | 2026-09-06 04:33:14 | 47.17114 | 16.16831 | 126° | 80km/h | 4877m | -2.0m/s | -3.2°C | 4.4% | 0hPa | 2.7V | 00:00:00 | 00:00:00 | 00:00:00 | |
| OM5KV | 2026-09-06 04:33:13 | 47.17114 | 16.16831 | 127° | 78km/h | 4877m | -2.0m/s | -3.3°C | 4.3% | 0hPa | 2.7V | 07:25:00 | 00:00:00 | 00:00:00 | |
| OE3JTB-15 | 2026-09-06 04:33:12 | 47.17138 | 16.16784 | 127° | 82km/h | 4881m | -2.1m/s | -3.2°C | 4.4% | 0hPa | 2.7V | 00:00:00 | 00:00:00 | 00:00:00 | |
| OM5KV | 2026-09-06 04:33:10 | 47.17150 | 16.16760 | 129° | 80km/h | 4883m | -2.9m/s | -3.3°C | 4.3% | 0hPa | 2.7V | 07:25:00 | 00:00:00 | 00:00:00 | |
| OM5KV | 2026-09-06 04:33:09 | 47.17162 | 16.16736 | 128° | 82km/h | 4885m | -3.0m/s | -3.3°C | 4.4% | 0hPa | 2.7V | 07:25:00 | 00:00:00 | 00:00:00 | |
| OM5KV | 2026-09-06 04:33:08 | 47.17175 | 16.16712 | 127° | 82km/h | 4888m | -3.3m/s | -3.3°C | 4.4% | 0hPa | 2.7V | 07:25:00 | 00:00:00 | 00:00:00 | |
| OE3OSB-13 | 2026-09-06 04:33:07 | 47.17198 | 16.16664 | 127° | 77km/h | 4893m | -2.8m/s | -3.4°C | 4.5% | -1.0hPa | 2.7V | 00:00:00 | 00:00:00 | 00:00:00 | |
| OM5KV | 2026-09-06 04:33:05 | 47.17211 | 16.16641 | 129° | 80km/h | 4896m | -3.4m/s | -3.4°C | 4.5% | 0hPa | 2.7V | 07:25:00 | 00:00:00 | 00:00:00 | |
| OM5KV | 2026-09-06 04:33:04 | 47.17223 | 16.16617 | 128° | 82km/h | 4899m | -3.7m/s | -3.4°C | 4.4% | 0hPa | 2.7V | 07:25:00 | 00:00:00 | 00:00:00 | |
| OM5KV | 2026-09-06 04:32:57 | 47.17311 | 16.16450 | 128° | 82km/h | 4920m | -3.4m/s | -3.4°C | 4.4% | 0hPa | 2.7V | 07:26:00 | 00:00:00 | 00:00:00 | |
| PG1ADW-2 | 2026-09-06 04:32:54 | 47.17373 | 16.16327 | 128° | 80km/h | 4937m | -2.9m/s | -3.4°C | 4.6% | 0hPa | 2.7V | 00:00:00 | 00:00:00 | 00:00:00 | |
| OM5KV | 2026-09-06 04:32:52 | 47.17373 | 16.16327 | 129° | 84km/h | 4937m | -3.0m/s | -3.4°C | 4.5% | 0hPa | 2.7V | 07:26:00 | 00:00:00 | 00:00:00 | |
| PETON7-10 | 2026-09-06 04:32:48 | 47.17436 | 16.16204 | 129° | 80km/h | 4951m | -3.1m/s | -3.4°C | 4.5% | 0hPa | 2.7V | 00:00:00 | 00:00:00 | 00:00:00 | |
| OM5KV | 2026-09-06 04:32:47 | 47.17436 | 16.16204 | 129° | 82km/h | 4951m | -3.1m/s | -3.5°C | 4.4% | 0hPa | 2.7V | 07:26:00 | 00:00:00 | 00:00:00 | |
| OE3JTB-15 | 2026-09-06 04:32:43 | 47.17499 | 16.16082 | 128° | 77km/h | 4965m | -2.9m/s | -3.5°C | 4.4% | 0hPa | 2.7V | 00:00:00 | 02:43:47 | 00:00:00 | |
| OM5KV | 2026-09-06 04:32:41 | 47.17511 | 16.16058 | 128° | 84km/h | 4968m | -2.8m/s | -3.6°C | 4.3% | 0hPa | 2.7V | 07:26:00 | 00:00:00 | 00:00:00 | |
| OM5KV | 2026-09-06 04:32:39 | 47.17537 | 16.16010 | 129° | 82km/h | 4974m | -3.0m/s | -3.6°C | 4.3% | 0hPa | 2.7V | 07:26:00 | 00:00:00 | 00:00:00 | |
| OE3OSB-13 | 2026-09-06 04:32:36 | 47.17589 | 16.15918 | 130° | 77km/h | 4983m | -2.2m/s | -3.6°C | 4.3% | -1.0hPa | 2.7V | 00:00:00 | 00:00:00 | 00:00:00 | |
| OM5KV | 2026-09-06 04:32:35 | 47.17589 | 16.15918 | 131° | 78km/h | 4983m | -2.2m/s | -3.6°C | 4.3% | 0hPa | 2.7V | 07:26:00 | 00:00:00 | 00:00:00 | |
| PETON7-10 | 2026-09-06 04:32:33 | 47.17627 | 16.15852 | 131° | 75km/h | 4990m | -2.6m/s | -3.6°C | 4.3% | 0hPa | 2.7V | 00:00:00 | 02:43:37 | 00:00:00 | |
| OM5KV | 2026-09-06 04:32:30 | 47.17653 | 16.15809 | 133° | 77km/h | 4996m | -2.8m/s | -3.7°C | 4.2% | 0hPa | 2.7V | 07:26:00 | 00:00:00 | 00:00:00 | |
| OM5KV | 2026-09-06 04:32:25 | 47.17716 | 16.15704 | 132° | 75km/h | 5010m | -3.0m/s | -3.8°C | 4.2% | 0hPa | 2.7V | 07:26:00 | 00:00:00 | 00:00:00 | |
| OM5KV | 2026-09-06 04:32:24 | 47.17728 | 16.15683 | 133° | 75km/h | 5013m | -3.5m/s | -3.8°C | 4.2% | 0hPa | 2.7V | 07:26:00 | 00:00:00 | 00:00:00 | |
| OM5KV | 2026-09-06 04:32:22 | 47.17753 | 16.15642 | 132° | 73km/h | 5019m | -3.2m/s | -3.8°C | 4.0% | 0hPa | 2.7V | 07:26:00 | 00:00:00 | 00:00:00 | |
| OM5KV | 2026-09-06 04:32:19 | 47.17789 | 16.15580 | 132° | 73km/h | 5029m | -3.8m/s | -3.9°C | 4.1% | 0hPa | 2.7V | 07:26:00 | 00:00:00 | 00:00:00 | |
| PETON7-10 | 2026-09-06 04:32:18 | 47.17813 | 16.15539 | 131° | 71km/h | 5036m | -2.9m/s | -3.8°C | 4.2% | 0hPa | 2.7V | 00:00:00 | 00:00:00 | 00:00:00 | |
| OM5KV | 2026-09-06 04:32:17 | 47.17813 | 16.15539 | 132° | 73km/h | 5036m | -2.9m/s | -3.9°C | 4.1% | 0hPa | 2.6V | 07:26:00 | 00:00:00 | 00:00:00 | |
| OE3JTB-15 | 2026-09-06 04:32:15 | 47.17859 | 16.15457 | 130° | 69km/h | 5048m | -3.1m/s | -3.9°C | 4.1% | 0hPa | 2.6V | 00:00:00 | 00:00:00 | 00:00:00 | |
| PG1ADW-2 | 2026-09-06 04:32:14 | 47.17859 | 16.15457 | 130° | 71km/h | 5048m | -3.1m/s | -3.9°C | 4.1% | 0hPa | 2.7V | 00:00:00 | 02:43:18 | 00:00:00 | |
| S52SK | 2026-09-06 04:32:12 | 47.17871 | 16.15436 | 130° | 71km/h | 5051m | -3.8m/s | -4.0°C | 4.0% | 0hPa | 2.7V | 07:26:00 | 00:00:00 | 00:00:00 | |
| OM5KV | 2026-09-06 04:32:11 | 47.17882 | 16.15416 | 129° | 71km/h | 5054m | -3.7m/s | -4.0°C | 4.0% | 0hPa | 2.7V | 07:26:00 | 00:00:00 | 00:00:00 | |
| S52SK | 2026-09-06 04:32:06 | 47.17935 | 16.15310 | 127° | 69km/h | 5072m | -3.2m/s | -4.0°C | 4.5% | 0hPa | 2.7V | 00:00:00 | 00:00:00 | 00:00:00 | |
| OE3OSB-13 | 2026-09-06 04:32:05 | 47.17956 | 16.15268 | 126° | 68km/h | 5078m | -2.9m/s | -4.1°C | 5.5% | -1.0hPa | 2.7V | 00:00:00 | 00:00:00 | 00:00:00 | |
| PETON7-10 | 2026-09-06 04:32:03 | 47.17977 | 16.15227 | 128° | 69km/h | 5084m | -3.4m/s | -4.1°C | 6.2% | 0hPa | 2.7V | 00:00:00 | 00:00:00 | 00:00:00 | |
| S52SK | 2026-09-06 04:32:01 | 47.17988 | 16.15206 | 127° | 71km/h | 5088m | -3.5m/s | -4.1°C | 6.4% | 0hPa | 2.7V | 00:00:00 | 00:00:00 | 00:00:00 | |
| OM5KV | 2026-09-06 04:32:00 | 47.17999 | 16.15184 | 127° | 71km/h | 5091m | -3.3m/s | -4.2°C | 6.4% | 0hPa | 2.7V | 07:27:00 | 00:00:00 | 00:00:00 | |
| PG1ADW-2 | 2026-09-06 04:31:54 | 47.18072 | 16.15038 | 126° | 69km/h | 5113m | -3.0m/s | -4.3°C | 7.0% | 0hPa | 2.7V | 00:00:00 | 00:00:00 | 00:00:00 | |
| OM5KV | 2026-09-06 04:31:50 | 47.18103 | 16.14974 | 126° | 71km/h | 5123m | -3.1m/s | -4.4°C | 6.9% | 0hPa | 2.7V | 07:27:00 | 00:00:00 | 00:00:00 | |
| PETON7-10 | 2026-09-06 04:31:48 | 47.18134 | 16.14911 | 128° | 69km/h | 5132m | -3.4m/s | -4.4°C | 7.1% | 0hPa | 2.7V | 00:00:00 | 02:42:52 | 00:00:00 | |
| OE3JTB-15 | 2026-09-06 04:31:45 | 47.18165 | 16.14848 | 127° | 69km/h | 5143m | -3.2m/s | -4.5°C | 7.2% | 0hPa | 2.7V | 00:00:00 | 00:00:00 | 00:00:00 | |
| OM5KV | 2026-09-06 04:31:44 | 47.18165 | 16.14848 | 127° | 69km/h | 5143m | -3.2m/s | -4.6°C | 7.0% | 0hPa | 2.7V | 07:27:00 | 00:00:00 | 00:00:00 | |
| OE5DRO-10 | 2026-09-06 04:31:39 | 47.18230 | 16.14725 | 129° | 69km/h | 5162m | -3.3m/s | -4.6°C | 7.9% | 0hPa | 2.7V | 00:00:00 | 00:00:00 | 00:00:00 | |
| OM5KV | 2026-09-06 04:31:38 | 47.18230 | 16.14725 | 129° | 71km/h | 5162m | -3.3m/s | -4.7°C | 7.8% | 0hPa | 2.7V | 07:27:00 | 00:00:00 | 00:00:00 | |
| PG1ADW-2 | 2026-09-06 04:31:34 | 47.18282 | 16.14621 | 126° | 69km/h | 5178m | -3.1m/s | -4.7°C | 7.9% | 0hPa | 2.7V | 07:26:00 | 00:00:00 | 00:00:00 | |
| PETON7-10 | 2026-09-06 04:31:33 | 47.18293 | 16.14600 | 127° | 69km/h | 5181m | -3.2m/s | -4.8°C | 7.9% | 0hPa | 2.7V | 07:26:00 | 00:00:00 | 00:00:00 | |
| OM5KV | 2026-09-06 04:31:32 | 47.18292 | 16.14600 | 127° | 68km/h | 5181m | -3.3m/s | -4.8°C | 7.8% | 0hPa | 2.6V | 07:27:00 | 00:00:00 | 00:00:00 | |
| OM5KV | 2026-09-06 04:31:27 | 47.18342 | 16.14495 | 125° | 68km/h | 5197m | -3.1m/s | -4.9°C | 7.7% | 0hPa | 2.6V | 07:27:00 | 00:00:00 | 00:00:00 | |
| OM5KV | 2026-09-06 04:31:26 | 47.18352 | 16.14474 | 124° | 69km/h | 5200m | -3.4m/s | -4.9°C | 7.6% | 0hPa | 2.6V | 07:27:00 | 00:00:00 | 00:00:00 | |
| OM5KV | 2026-09-06 04:31:22 | 47.18390 | 16.14387 | 123° | 69km/h | 5213m | -3.1m/s | -5.0°C | 7.8% | 0hPa | 2.6V | 07:27:00 | 00:00:00 | 00:00:00 | |
| OM5KV | 2026-09-06 04:31:21 | 47.18399 | 16.14364 | 122° | 71km/h | 5216m | -3.6m/s | -5.1°C | 7.8% | 0hPa | 2.6V | 07:27:00 | 00:00:00 | 00:00:00 | |
| PETON7-10 | 2026-09-06 04:31:18 | 47.18435 | 16.14276 | 121° | 69km/h | 5230m | -3.5m/s | -5.1°C | 8.3% | 0hPa | 2.6V | 00:00:00 | 00:00:00 | 00:00:00 | |
| OE3JTB-15 | 2026-09-06 04:31:16 | 47.18453 | 16.14231 | 121° | 71km/h | 5236m | -4.0m/s | -5.2°C | 8.4% | 0hPa | 2.6V | 00:00:00 | 02:42:20 | 00:00:00 | |
| OM5KV | 2026-09-06 04:31:15 | 47.18453 | 16.14231 | 121° | 71km/h | 5236m | -4.1m/s | -5.2°C | 8.3% | 0hPa | 2.6V | 07:27:00 | 00:00:00 | 00:00:00 | |
| PG1ADW-2 | 2026-09-06 04:31:14 | 47.18471 | 16.14187 | 121° | 71km/h | 5244m | -3.3m/s | -5.2°C | 8.5% | 0hPa | 2.6V | 00:00:00 | 00:00:00 | 00:00:00 | |
| OM5KV | 2026-09-06 04:31:10 | 47.18498 | 16.14120 | 122° | 69km/h | 5254m | -3.2m/s | -5.4°C | 8.3% | 0hPa | 2.6V | 07:27:00 | 00:00:00 | 00:00:00 | |
| OM5KV | 2026-09-06 04:31:09 | 47.18507 | 16.14097 | 121° | 71km/h | 5257m | -3.9m/s | -5.4°C | 8.4% | 0hPa | 2.6V | 07:27:00 | 00:00:00 | 00:00:00 | |
| OM5KV | 2026-09-06 04:31:07 | 47.18525 | 16.14052 | 122° | 69km/h | 5264m | -3.4m/s | -5.4°C | 8.4% | 0hPa | 2.6V | 07:27:00 | 00:00:00 | 00:00:00 | |
| OM5KV | 2026-09-06 04:31:05 | 47.18542 | 16.14006 | 120° | 69km/h | 5271m | -3.4m/s | -5.5°C | 8.4% | 0hPa | 2.6V | 07:27:00 | 00:00:00 | 00:00:00 | |
| OM5KV | 2026-09-06 04:31:04 | 47.18551 | 16.13984 | 121° | 71km/h | 5274m | -3.7m/s | -5.5°C | 8.3% | 0hPa | 2.6V | 07:27:00 | 00:00:00 | 00:00:00 | |
| OE3OSB-13 | 2026-09-06 04:31:03 | 47.18577 | 16.13915 | 117° | 71km/h | 5284m | -3.6m/s | -5.6°C | 8.2% | -1.0hPa | 2.6V | 00:00:00 | 00:00:00 | 00:00:00 | |
| S52SK | 2026-09-06 04:31:01 | 47.18593 | 16.13868 | 119° | 73km/h | 5290m | -3.5m/s | -5.6°C | 8.2% | 0hPa | 2.6V | 00:00:00 | 00:00:00 | 00:00:00 | |
| OM5KV | 2026-09-06 04:30:58 | 47.18602 | 16.13844 | 118° | 71km/h | 5293m | -3.3m/s | -5.6°C | 8.2% | 0hPa | 2.6V | 07:27:00 | 00:00:00 | 00:00:00 | |
| OM5KV | 2026-09-06 04:30:56 | 47.18619 | 16.13797 | 118° | 73km/h | 5300m | -3.7m/s | -5.7°C | 7.9% | 0hPa | 2.6V | 07:27:00 | 00:00:00 | 00:00:00 | |
| PG1ADW-2 | 2026-09-06 04:30:54 | 47.18645 | 16.13724 | 117° | 73km/h | 5311m | -3.1m/s | -5.7°C | 8.0% | 0hPa | 2.6V | 00:00:00 | 02:41:58 | 00:00:00 | |
| OM5KV | 2026-09-06 04:30:53 | 47.18653 | 16.13699 | 118° | 75km/h | 5314m | -4.2m/s | -5.8°C | 7.8% | 0hPa | 2.6V | 07:27:00 | 00:00:00 | 00:00:00 | |
| OM5KV | 2026-09-06 04:30:52 | 47.18653 | 16.13699 | 118° | 75km/h | 5314m | -4.2m/s | -5.8°C | 7.8% | 0hPa | 2.6V | 07:27:00 | 00:00:00 | 00:00:00 | |
| OM5KV | 2026-09-06 04:30:49 | 47.18678 | 16.13626 | 117° | 75km/h | 5324m | -3.9m/s | -5.9°C | 7.7% | 0hPa | 2.6V | 07:27:00 | 00:00:00 | 00:00:00 | |
| PETON7-10 | 2026-09-06 04:30:48 | 47.18695 | 16.13577 | 117° | 73km/h | 5332m | -3.9m/s | -5.9°C | 7.5% | 0hPa | 2.6V | 00:00:00 | 00:00:00 | 00:00:00 | |
| OE3JTB-15 | 2026-09-06 04:30:47 | 47.18704 | 16.13553 | 119° | 73km/h | 5336m | -3.6m/s | -5.9°C | 6.8% | 0hPa | 2.7V | 00:00:00 | 00:00:00 | 00:00:00 | |
| OM5KV | 2026-09-06 04:30:46 | 47.18704 | 16.13553 | 119° | 73km/h | 5336m | -3.6m/s | -5.9°C | 6.6% | 0hPa | 2.7V | 07:27:00 | 00:00:00 | 00:00:00 | |
| OM5KV | 2026-09-06 04:30:45 | 47.18712 | 16.13528 | 117° | 75km/h | 5339m | -3.8m/s | -5.9°C | 6.3% | 0hPa | 2.7V | 07:27:00 | 00:00:00 | 00:00:00 | |
| OM5KV | 2026-09-06 04:30:38 | 47.18771 | 16.13360 | 118° | 73km/h | 5364m | -3.5m/s | -6.1°C | 6.3% | 0hPa | 2.7V | 07:27:00 | 00:00:00 | 00:00:00 | |
| OM5KV | 2026-09-06 04:30:36 | 47.18787 | 16.13312 | 118° | 69km/h | 5371m | -3.3m/s | -6.2°C | 6.3% | 0hPa | 2.7V | 07:27:00 | 00:00:00 | 00:00:00 | |
| PG1ADW-2 | 2026-09-06 04:30:34 | 47.18812 | 16.13242 | 117° | 75km/h | 5382m | -3.9m/s | -6.2°C | 6.2% | 0hPa | 2.7V | 00:00:00 | 00:00:00 | 00:00:00 | |
| OE3OSB-13 | 2026-09-06 04:30:32 | 47.18837 | 16.13170 | 115° | 71km/h | 5392m | -3.1m/s | -6.4°C | 5.7% | -1.0hPa | 2.6V | 00:00:00 | 00:00:00 | 00:00:00 | |
| OM5KV | 2026-09-06 04:30:29 | 47.18845 | 16.13146 | 118° | 73km/h | 5395m | -3.9m/s | -6.4°C | 5.7% | 0hPa | 2.6V | 07:27:00 | 00:00:00 | 00:00:00 | |
| PETON7-10 | 2026-09-06 04:30:23 | 47.18902 | 16.12971 | 115° | 78km/h | 5421m | -3.6m/s | -6.5°C | 5.9% | 0hPa | 2.6V | 00:00:00 | 00:00:00 | 00:00:00 | |
| OM5KV | 2026-09-06 04:30:22 | 47.18902 | 16.12971 | 115° | 77km/h | 5421m | -3.7m/s | -6.5°C | 5.7% | 0hPa | 2.6V | 07:28:00 | 00:00:00 | 00:00:00 | |
| OM5KV | 2026-09-06 04:30:21 | 47.18910 | 16.12945 | 116° | 75km/h | 5425m | -3.9m/s | -6.6°C | 5.8% | 0hPa | 2.6V | 07:28:00 | 00:00:00 | 00:00:00 | |
| OE5DRO-10 | 2026-09-06 04:30:19 | 47.18935 | 16.12869 | 116° | 80km/h | 5436m | -4.0m/s | -6.6°C | 6.1% | 0hPa | 2.6V | 00:00:00 | 00:00:00 | 00:00:00 | |
| OE3JTB-15 | 2026-09-06 04:30:18 | 47.18943 | 16.12842 | 115° | 80km/h | 5439m | -3.9m/s | -6.6°C | 6.1% | 0hPa | 2.7V | 07:28:00 | 00:00:00 | 00:00:00 | |
| PG1ADW-2 | 2026-09-06 04:30:14 | 47.18976 | 16.12737 | 115° | 80km/h | 5454m | -3.4m/s | -6.7°C | 6.0% | 0hPa | 2.7V | 00:00:00 | 00:00:00 | 00:00:00 | |
| OM5KV | 2026-09-06 04:30:11 | 47.18993 | 16.12684 | 116° | 78km/h | 5461m | -3.3m/s | -6.8°C | 5.8% | 0hPa | 2.7V | 07:28:00 | 00:00:00 | 00:00:00 | |
| OM5KV | 2026-09-06 04:30:10 | 47.19002 | 16.12657 | 117° | 80km/h | 5465m | -3.9m/s | -6.9°C | 5.9% | 0hPa | 2.7V | 07:28:00 | 00:00:00 | 00:00:00 | |
| OM5KV | 2026-09-06 04:30:06 | 47.19036 | 16.12549 | 116° | 82km/h | 5479m | -3.9m/s | -7.0°C | 6.0% | 0hPa | 2.7V | 07:28:00 | 00:00:00 | 00:00:00 | |
| OE3OSB-13 | 2026-09-06 04:30:01 | 47.19098 | 16.12358 | 114° | 82km/h | 5503m | -3.7m/s | -7.2°C | 6.1% | -1.0hPa | 2.7V | 00:00:00 | 00:00:00 | 00:00:00 | |
| OE5DRO-10 | 2026-09-06 04:30:00 | 47.19098 | 16.12358 | 115° | 82km/h | 5503m | -3.6m/s | -7.2°C | 6.3% | 0hPa | 2.7V | 07:28:00 | 00:00:00 | 00:00:00 | |
| OM5KV | 2026-09-06 04:29:55 | 47.19133 | 16.12248 | 116° | 80km/h | 5517m | -3.4m/s | -7.3°C | 6.4% | 0hPa | 2.7V | 07:28:00 | 00:00:00 | 00:00:00 | |
| PG1ADW-2 | 2026-09-06 04:29:54 | 47.19151 | 16.12192 | 115° | 84km/h | 5524m | -3.8m/s | -7.4°C | 6.8% | 0hPa | 2.7V | 00:00:00 | 00:00:00 | 00:00:00 | |
| PETON7-10 | 2026-09-06 04:29:49 | 47.19196 | 16.12054 | 115° | 84km/h | 5542m | -4.0m/s | -7.5°C | 6.8% | 0hPa | 2.7V | 00:00:00 | 02:40:53 | 00:00:00 | |
| OM5KV | 2026-09-06 04:29:48 | 47.19196 | 16.12054 | 116° | 84km/h | 5542m | -4.0m/s | -7.6°C | 6.6% | 0hPa | 2.7V | 07:28:00 | 00:00:00 | 00:00:00 | |
| OM5KV | 2026-09-06 04:29:44 | 47.19233 | 16.11942 | 118° | 84km/h | 5557m | -4.3m/s | -7.7°C | 6.5% | 0hPa | 2.7V | 07:28:00 | 00:00:00 | 00:00:00 | |
| S52SK | 2026-09-06 04:29:42 | 47.19251 | 16.11886 | 118° | 84km/h | 5564m | -4.4m/s | -7.7°C | 6.3% | 0hPa | 2.7V | 00:00:00 | 00:00:00 | 00:00:00 | |
| OE5DRO-10 | 2026-09-06 04:29:41 | 47.19270 | 16.11830 | 118° | 86km/h | 5572m | -4.1m/s | -7.8°C | 6.5% | 0hPa | 2.7V | 00:00:00 | 00:00:00 | 00:00:00 | |
| S52SK | 2026-09-06 04:29:36 | 47.19308 | 16.11718 | 119° | 84km/h | 5587m | -4.1m/s | -7.9°C | 6.4% | 0hPa | 2.7V | 00:00:00 | 00:00:00 | 00:00:00 | |
| PG1ADW-2 | 2026-09-06 04:29:34 | 47.19338 | 16.11633 | 117° | 86km/h | 5598m | -3.9m/s | -8.0°C | 7.0% | 0hPa | 2.7V | 00:00:00 | 02:40:38 | 00:00:00 | |
| PETON7-10 | 2026-09-06 04:29:32 | 47.19358 | 16.11576 | 117° | 86km/h | 5606m | -3.9m/s | -8.0°C | 7.1% | 0hPa | 2.7V | 00:00:00 | 00:00:00 | 00:00:00 | |
| OM5KV | 2026-09-06 04:29:29 | 47.19378 | 16.11519 | 118° | 86km/h | 5614m | -3.0m/s | -8.1°C | 6.9% | 0hPa | 2.7V | 07:29:00 | 00:00:00 | 00:00:00 | |
| OM5KV | 2026-09-06 04:29:26 | 47.19408 | 16.11434 | 118° | 88km/h | 5623m | -4.2m/s | -8.2°C | 7.1% | 0hPa | 2.7V | 07:29:00 | 00:00:00 | 00:00:00 | |
| OM5KV | 2026-09-06 04:29:24 | 47.19429 | 16.11377 | 119° | 88km/h | 5631m | -4.2m/s | -8.3°C | 7.1% | 0hPa | 2.7V | 07:29:00 | 00:00:00 | 00:00:00 | |
| OE5DRO-10 | 2026-09-06 04:29:22 | 47.19461 | 16.11292 | 120° | 88km/h | 5641m | -3.5m/s | -8.3°C | 7.4% | 0hPa | 2.7V | 00:00:00 | 00:00:00 | 00:00:00 | |
| OE3JTB-15 | 2026-09-06 04:29:20 | 47.19483 | 16.11236 | 120° | 88km/h | 5648m | -3.6m/s | -8.3°C | 7.4% | 0hPa | 2.6V | 00:00:00 | 00:00:00 | 00:00:00 | |
| OM5KV | 2026-09-06 04:29:18 | 47.19494 | 16.11209 | 122° | 88km/h | 5651m | -4.3m/s | -8.4°C | 7.2% | 0hPa | 2.7V | 07:29:00 | 00:00:00 | 00:00:00 | |
| PETON7-10 | 2026-09-06 04:29:17 | 47.19517 | 16.11154 | 122° | 88km/h | 5659m | -4.3m/s | -8.4°C | 7.5% | 0hPa | 2.7V | 00:00:00 | 00:00:00 | 00:00:00 | |
| OM5KV | 2026-09-06 04:29:15 | 47.19528 | 16.11127 | 122° | 86km/h | 5662m | -3.5m/s | -8.5°C | 7.2% | 0hPa | 2.7V | 07:29:00 | 00:00:00 | 00:00:00 | |
| PG1ADW-2 | 2026-09-06 04:29:14 | 47.19551 | 16.11072 | 123° | 88km/h | 5670m | -3.8m/s | -8.5°C | 7.5% | 0hPa | 2.7V | 00:00:00 | 00:00:00 | 00:00:00 | |
| OM5KV | 2026-09-06 04:29:13 | 47.19551 | 16.11072 | 123° | 86km/h | 5670m | -3.9m/s | -8.5°C | 7.2% | 0hPa | 2.7V | 07:29:00 | 00:00:00 | 00:00:00 | |
| OM5KV | 2026-09-06 04:29:08 | 47.19608 | 16.10936 | 122° | 88km/h | 5687m | -4.2m/s | -8.6°C | 7.1% | 0hPa | 2.7V | 07:29:00 | 00:00:00 | 00:00:00 | |
| OM5KV | 2026-09-06 04:29:07 | 47.19619 | 16.10908 | 122° | 89km/h | 5691m | -4.2m/s | -8.6°C | 7.1% | 0hPa | 2.7V | 07:29:00 | 00:00:00 | 00:00:00 | |
| PETON7-10 | 2026-09-06 04:29:02 | 47.19690 | 16.10740 | 122° | 88km/h | 5714m | -4.1m/s | -8.7°C | 7.1% | 0hPa | 2.7V | 07:29:00 | 02:40:06 | 00:00:00 | |
| OE3OSB-13 | 2026-09-06 04:28:59 | 47.19737 | 16.10630 | 123° | 86km/h | 5728m | -3.8m/s | -8.8°C | 6.8% | -1.0hPa | 2.7V | 00:00:00 | 00:00:00 | 00:00:00 | |
| OM5KV | 2026-09-06 04:28:57 | 47.19737 | 16.10630 | 125° | 86km/h | 5728m | -3.8m/s | -8.8°C | 6.8% | 0hPa | 2.7V | 07:29:00 | 00:00:00 | 00:00:00 | |
| OM5KV | 2026-09-06 04:28:56 | 47.19749 | 16.10603 | 123° | 89km/h | 5731m | -4.1m/s | -8.9°C | 6.9% | 0hPa | 2.7V | 07:29:00 | 00:00:00 | 00:00:00 | |
| PG1ADW-2 | 2026-09-06 04:28:54 | 47.19785 | 16.10521 | 124° | 88km/h | 5741m | -4.5m/s | -8.9°C | 6.9% | 0hPa | 2.7V | 07:29:00 | 00:00:00 | 00:00:00 | |
| OE3JTB-15 | 2026-09-06 04:28:51 | 47.19822 | 16.10440 | 123° | 88km/h | 5752m | -4.1m/s | -9.0°C | 6.7% | 0hPa | 2.7V | 00:00:00 | 00:00:00 | 00:00:00 | |
| OM5KV | 2026-09-06 04:28:50 | 47.19822 | 16.10440 | 124° | 88km/h | 5752m | -4.2m/s | -9.0°C | 6.5% | 0hPa | 2.7V | 07:29:00 | 00:00:00 | 00:00:00 | |
| OM5KV | 2026-09-06 04:28:49 | 47.19834 | 16.10413 | 125° | 86km/h | 5755m | -3.8m/s | -9.1°C | 6.5% | 0hPa | 2.7V | 07:29:00 | 00:00:00 | 00:00:00 | |
| OM5KV | 2026-09-06 04:28:48 | 47.19846 | 16.10386 | 125° | 89km/h | 5758m | -4.3m/s | -9.1°C | 6.5% | 0hPa | 2.7V | 07:29:00 | 00:00:00 | 00:00:00 | |
| PETON7-10 | 2026-09-06 04:28:47 | 47.19871 | 16.10332 | 126° | 88km/h | 5765m | -4.3m/s | -9.1°C | 6.7% | 0hPa | 2.7V | 00:00:00 | 00:00:00 | 00:00:00 | |
| PG1ADW-2 | 2026-09-06 04:28:34 | 47.20039 | 16.09982 | 126° | 88km/h | 5810m | -4.1m/s | -9.4°C | 7.2% | 0hPa | 2.6V | 00:00:00 | 00:00:00 | 00:00:00 | |
| PETON7-10 | 2026-09-06 04:28:32 | 47.20065 | 16.09929 | 126° | 88km/h | 5818m | -3.4m/s | -9.5°C | 8.0% | 0hPa | 2.7V | 00:00:00 | 00:00:00 | 00:00:00 | |
| OM5KV | 2026-09-06 04:28:31 | 47.20065 | 16.09929 | 126° | 89km/h | 5818m | -3.5m/s | -9.5°C | 7.7% | 0hPa | 2.7V | 07:30:00 | 00:00:00 | 00:00:00 | |
| OM5KV | 2026-09-06 04:28:29 | 47.20092 | 16.09876 | 127° | 89km/h | 5824m | -3.4m/s | -9.5°C | 8.3% | 0hPa | 2.7V | 07:30:00 | 00:00:00 | 00:00:00 | |
| OE3OSB-13 | 2026-09-06 04:28:28 | 47.20133 | 16.09798 | 127° | 84km/h | 5834m | -3.1m/s | -9.6°C | 8.8% | -1.0hPa | 2.7V | 00:00:00 | 00:00:00 | 00:00:00 | |
| S52SK | 2026-09-06 04:28:26 | 47.20133 | 16.09798 | 129° | 86km/h | 5834m | -3.1m/s | -9.6°C | 8.9% | 0hPa | 2.7V | 00:00:00 | 00:00:00 | 00:00:00 | |
| OM5KV | 2026-09-06 04:28:23 | 47.20174 | 16.09720 | 129° | 86km/h | 5843m | -3.3m/s | -9.6°C | 13.5% | 0hPa | 2.7V | 07:30:00 | 00:00:00 | 00:00:00 | |
| OE3JTB-15 | 2026-09-06 04:28:22 | 47.20202 | 16.09669 | 128° | 82km/h | 5850m | -3.5m/s | -9.6°C | 16.0% | 0hPa | 2.7V | 00:00:00 | 02:39:26 | 00:00:00 | |
| S52SK | 2026-09-06 04:28:21 | 47.20202 | 16.09669 | 129° | 89km/h | 5850m | -3.6m/s | -9.7°C | 15.6% | 0hPa | 2.7V | 00:00:00 | 00:00:00 | 00:00:00 | |
| OM5KV | 2026-09-06 04:28:19 | 47.20230 | 16.09617 | 130° | 86km/h | 5856m | -2.8m/s | -9.7°C | 19.3% | 0hPa | 2.7V | 07:30:00 | 00:00:00 | 00:00:00 | |
| PETON7-10 | 2026-09-06 04:28:17 | 47.20271 | 16.09542 | 131° | 84km/h | 5864m | -2.3m/s | -9.8°C | 20.9% | 0hPa | 2.7V | 00:00:00 | 02:39:21 | 00:00:00 | |
| PG1ADW-2 | 2026-09-06 04:28:14 | 47.20313 | 16.09469 | 130° | 80km/h | 5870m | -2.9m/s | -9.8°C | 21.3% | 0hPa | 2.7V | 00:00:00 | 02:39:18 | 00:00:00 | |
| OM5KV | 2026-09-06 04:28:12 | 47.20327 | 16.09444 | 131° | 86km/h | 5873m | -3.3m/s | -9.9°C | 21.9% | 0hPa | 2.7V | 07:30:00 | 00:00:00 | 00:00:00 | |
| S57NTA-12 | 2026-09-06 04:28:11 | 47.20341 | 16.09420 | 132° | 84km/h | 5876m | -3.1m/s | -9.9°C | 22.7% | 0hPa | 2.7V | 07:30:00 | 00:00:00 | 00:00:00 | |
| OM5KV | 2026-09-06 04:28:06 | 47.20409 | 16.09303 | 131° | 80km/h | 5891m | -2.5m/s | -10.1°C | 23.4% | 0hPa | 2.7V | 07:30:00 | 00:00:00 | 00:00:00 | |
| OM5KV | 2026-09-06 04:28:04 | 47.20435 | 16.09256 | 131° | 78km/h | 5896m | -2.5m/s | -10.1°C | 24.3% | 0hPa | 2.7V | 07:30:00 | 00:00:00 | 00:00:00 | |
| PETON7-10 | 2026-09-06 04:28:02 | 47.20473 | 16.09188 | 130° | 78km/h | 5903m | -2.5m/s | -10.1°C | 25.8% | 0hPa | 2.7V | 00:00:00 | 00:00:00 | 00:00:00 | |
| OM5KV | 2026-09-06 04:28:01 | 47.20473 | 16.09188 | 130° | 78km/h | 5903m | -2.6m/s | -10.2°C | 25.3% | 0hPa | 2.7V | 07:30:00 | 00:00:00 | 00:00:00 | |
| OE3OSB-13 | 2026-09-06 04:27:57 | 47.20546 | 16.09050 | 126° | 75km/h | 5918m | -2.6m/s | -10.3°C | 27.2% | -1.0hPa | 2.7V | 00:00:00 | 00:00:00 | 00:00:00 | |
| OM5KV | 2026-09-06 04:27:56 | 47.20534 | 16.09073 | 127° | 78km/h | 5916m | -2.7m/s | -10.3°C | 26.7% | 0hPa | 2.7V | 07:30:00 | 00:00:00 | 00:00:00 | |
| PG1ADW-2 | 2026-09-06 04:27:54 | 47.20569 | 16.09004 | 126° | 80km/h | 5923m | -2.6m/s | -10.2°C | 28.1% | 0hPa | 2.7V | 00:00:00 | 00:00:00 | 00:00:00 | |
| OE3JTB-15 | 2026-09-06 04:27:53 | 47.20580 | 16.08980 | 127° | 82km/h | 5926m | -2.8m/s | -10.2°C | 26.3% | 0hPa | 2.7V | 00:00:00 | 00:00:00 | 00:00:00 | |
| OM5KV | 2026-09-06 04:27:52 | 47.20580 | 16.08980 | 127° | 77km/h | 5926m | -2.9m/s | -10.3°C | 25.8% | 0hPa | 2.7V | 07:30:00 | 00:00:00 | 00:00:00 | |
| S57NTA-12 | 2026-09-06 04:27:51 | 47.20592 | 16.08956 | 125° | 78km/h | 5928m | -2.7m/s | -10.3°C | 24.1% | 0hPa | 2.7V | 00:00:00 | 00:00:00 | 00:00:00 | |
| OM5KV | 2026-09-06 04:27:50 | 47.20603 | 16.08932 | 126° | 78km/h | 5931m | -3.0m/s | -10.3°C | 23.9% | 0hPa | 2.7V | 07:31:00 | 00:00:00 | 00:00:00 | |
| PETON7-10 | 2026-09-06 04:27:47 | 47.20646 | 16.08835 | 123° | 80km/h | 5942m | -2.4m/s | -10.3°C | 30.4% | 0hPa | 2.7V | 00:00:00 | 00:00:00 | 00:00:00 | |
| OM5KV | 2026-09-06 04:27:46 | 47.20646 | 16.08835 | 123° | 78km/h | 5942m | -2.5m/s | -10.3°C | 29.9% | 0hPa | 2.7V | 07:31:00 | 00:00:00 | 00:00:00 | |
| OM5KV | 2026-09-06 04:27:45 | 47.20656 | 16.08810 | 123° | 78km/h | 5944m | -2.9m/s | -10.3°C | 30.9% | 0hPa | 2.7V | 07:31:00 | 00:00:00 | 00:00:00 | |
| OM5KV | 2026-09-06 04:27:41 | 47.20698 | 16.08708 | 124° | 80km/h | 5956m | -2.9m/s | -10.4°C | 34.6% | 0hPa | 2.7V | 07:31:00 | 00:00:00 | 00:00:00 | |
| OM5KV | 2026-09-06 04:27:40 | 47.20709 | 16.08682 | 124° | 80km/h | 5959m | -3.0m/s | -10.4°C | 34.7% | 0hPa | 2.7V | 07:31:00 | 00:00:00 | 00:00:00 | |
| PG1ADW-2 | 2026-09-06 04:27:34 | 47.20785 | 16.08503 | 122° | 86km/h | 5978m | -3.0m/s | -10.5°C | 36.8% | 0hPa | 2.7V | 00:00:00 | 00:00:00 | 00:00:00 | |
| PETON7-10 | 2026-09-06 04:27:32 | 47.20807 | 16.08450 | 122° | 86km/h | 5984m | -2.9m/s | -10.5°C | 37.4% | 0hPa | 2.6V | 00:00:00 | 02:38:36 | 00:00:00 | |
| OE5DRO-10 | 2026-09-06 04:27:31 | 47.20819 | 16.08424 | 122° | 86km/h | 5987m | -2.9m/s | -10.6°C | 37.4% | 0hPa | 2.6V | 00:00:00 | 00:00:00 | 00:00:00 | |
| OM5KV | 2026-09-06 04:27:30 | 47.20819 | 16.08424 | 123° | 84km/h | 5987m | -2.9m/s | -10.6°C | 36.8% | 0hPa | 2.6V | 07:31:00 | 00:00:00 | 00:00:00 | |
| OM5KV | 2026-09-06 04:27:29 | 47.20830 | 16.08397 | 123° | 84km/h | 5990m | -2.7m/s | -10.6°C | 36.9% | 0hPa | 2.6V | 07:31:00 | 00:00:00 | 00:00:00 | |
| OE3OSB-13 | 2026-09-06 04:27:26 | 47.20884 | 16.08262 | 120° | 84km/h | 6003m | -2.2m/s | -10.7°C | 37.2% | -1.0hPa | 2.6V | 00:00:00 | 00:00:00 | 00:00:00 | |
| OE3JTB-15 | 2026-09-06 04:27:24 | 47.20895 | 16.08235 | 121° | 86km/h | 6005m | -2.8m/s | -10.7°C | 38.1% | 0hPa | 2.6V | 00:00:00 | 00:00:00 | 00:00:00 | |
| OM5KV | 2026-09-06 04:27:23 | 47.20895 | 16.08235 | 122° | 88km/h | 6005m | -2.8m/s | -10.7°C | 37.4% | 0hPa | 2.6V | 07:31:00 | 00:00:00 | 00:00:00 | |
| OM5KV | 2026-09-06 04:27:18 | 47.20952 | 16.08096 | 122° | 88km/h | 6018m | -2.8m/s | -10.8°C | 37.8% | 0hPa | 2.6V | 07:31:00 | 00:00:00 | 00:00:00 | |
| PETON7-10 | 2026-09-06 04:27:17 | 47.20976 | 16.08040 | 123° | 88km/h | 6023m | -2.4m/s | -10.8°C | 38.7% | 0hPa | 2.6V | 00:00:00 | 00:00:00 | 00:00:00 | |
| OM5KV | 2026-09-06 04:27:16 | 47.20976 | 16.08040 | 123° | 89km/h | 6023m | -2.4m/s | -10.8°C | 38.0% | 0hPa | 2.6V | 07:31:00 | 00:00:00 | 00:00:00 | |
| PG1ADW-2 | 2026-09-06 04:27:14 | 47.21013 | 16.07958 | 125° | 86km/h | 6030m | -2.3m/s | -10.8°C | 38.5% | 0hPa | 2.6V | 00:00:00 | 00:00:00 | 00:00:00 | |
| S52SK | 2026-09-06 04:27:13 | 47.21013 | 16.07958 | 125° | 89km/h | 6030m | -2.3m/s | -10.9°C | 37.9% | 0hPa | 2.6V | 00:00:00 | 00:00:00 | 00:00:00 | |
| OE5DRO-10 | 2026-09-06 04:27:12 | 47.21039 | 16.07903 | 126° | 86km/h | 6035m | -2.4m/s | -10.8°C | 38.7% | 0hPa | 2.6V | 00:00:00 | 00:00:00 | 00:00:00 | |
| OM5KV | 2026-09-06 04:27:11 | 47.21039 | 16.07904 | 126° | 88km/h | 6035m | -2.5m/s | -10.9°C | 38.0% | 0hPa | 2.6V | 07:31:00 | 00:00:00 | 00:00:00 | |
| S57NTA-12 | 2026-09-06 04:27:10 | 47.21052 | 16.07877 | 127° | 88km/h | 6037m | -2.5m/s | -10.9°C | 38.1% | 0hPa | 2.6V | 00:00:00 | 00:00:00 | 00:00:00 | |
| S52SK | 2026-09-06 04:27:08 | 47.21078 | 16.07825 | 128° | 86km/h | 6042m | -2.4m/s | -11.0°C | 38.2% | 0hPa | 2.6V | 00:00:00 | 00:00:00 | 00:00:00 | |
| OM5KV | 2026-09-06 04:27:05 | 47.21118 | 16.07749 | 129° | 86km/h | 6049m | -2.6m/s | -11.0°C | 38.7% | 0hPa | 2.6V | 07:31:00 | 00:00:00 | 00:00:00 | |
| OM5KV | 2026-09-06 04:27:04 | 47.21132 | 16.07725 | 129° | 84km/h | 6052m | -2.6m/s | -11.0°C | 39.3% | 0hPa | 2.6V | 07:31:00 | 00:00:00 | 00:00:00 | |
| PETON7-10 | 2026-09-06 04:27:02 | 47.21171 | 16.07651 | 129° | 84km/h | 6060m | -2.6m/s | -10.9°C | 40.6% | 0hPa | 2.6V | 07:31:00 | 00:00:00 | 00:00:00 | |
| OE3OSB-13 | 2026-09-06 04:26:55 | 47.21278 | 16.07456 | 128° | 82km/h | 6081m | -2.4m/s | -10.8°C | 40.3% | -1.0hPa | 2.6V | 00:00:00 | 00:00:00 | 00:00:00 | |
| PG1ADW-2 | 2026-09-06 04:26:54 | 47.21278 | 16.07456 | 129° | 82km/h | 6081m | -2.4m/s | -10.8°C | 41.0% | 0hPa | 2.6V | 00:00:00 | 02:37:58 | 00:00:00 | |
| OE5DRO-10 | 2026-09-06 04:26:53 | 47.21291 | 16.07431 | 129° | 82km/h | 6084m | -2.2m/s | -10.8°C | 40.8% | 0hPa | 2.6V | 00:00:00 | 00:00:00 | 00:00:00 | |
| PETON7-10 | 2026-09-06 04:26:47 | 47.21371 | 16.07286 | 130° | 80km/h | 6098m | -2.5m/s | -10.8°C | 40.5% | 0hPa | 2.6V | 00:00:00 | 02:37:51 | 00:00:00 | |
| OM5KV | 2026-09-06 04:26:41 | 47.21438 | 16.07169 | 132° | 80km/h | 6110m | -2.9m/s | -10.8°C | 39.1% | 0hPa | 2.6V | 07:32:00 | 00:00:00 | 00:00:00 | |
| S57NTA-12 | 2026-09-06 04:26:40 | 47.21451 | 16.07146 | 132° | 80km/h | 6113m | -2.7m/s | -10.8°C | 39.2% | 0hPa | 2.6V | 07:32:00 | 00:00:00 | 00:00:00 | |
| OM5KV | 2026-09-06 04:26:35 | 47.21519 | 16.07034 | 133° | 80km/h | 6126m | -2.6m/s | -10.8°C | 38.5% | 0hPa | 2.6V | 07:32:00 | 00:00:00 | 00:00:00 | |
| PG1ADW-2 | 2026-09-06 04:26:34 | 47.21547 | 16.06990 | 133° | 78km/h | 6130m | -2.0m/s | -10.8°C | 39.4% | 0hPa | 2.6V | 00:00:00 | 00:00:00 | 00:00:00 | |
| PETON7-10 | 2026-09-06 04:26:32 | 47.21574 | 16.06947 | 134° | 78km/h | 6134m | -2.3m/s | -10.8°C | 39.5% | 0hPa | 2.7V | 00:00:00 | 00:00:00 | 00:00:00 | |
| OM5KV | 2026-09-06 04:26:28 | 47.21615 | 16.06884 | 134° | 78km/h | 6141m | -2.3m/s | -11.0°C | 39.0% | 0hPa | 2.7V | 07:32:00 | 00:00:00 | 00:00:00 | |
| OE3JTB-15 | 2026-09-06 04:26:26 | 47.21656 | 16.06821 | 134° | 77km/h | 6148m | -2.0m/s | -10.9°C | 39.5% | 0hPa | 2.7V | 07:31:00 | 00:00:00 | 00:00:00 | |
| OM5KV | 2026-09-06 04:26:23 | 47.21683 | 16.06779 | 136° | 78km/h | 6151m | -2.1m/s | -10.9°C | 38.7% | 0hPa | 2.7V | 07:32:00 | 00:00:00 | 00:00:00 | |
| OM5KV | 2026-09-06 04:26:22 | 47.21697 | 16.06759 | 136° | 78km/h | 6154m | -2.1m/s | -10.9°C | 38.4% | 0hPa | 2.7V | 07:32:00 | 00:00:00 | 00:00:00 | |
| S57NTA-12 | 2026-09-06 04:26:18 | 47.21753 | 16.06676 | 136° | 78km/h | 6162m | -2.2m/s | -11.0°C | 38.7% | 0hPa | 2.7V | 07:32:00 | 00:00:00 | 00:00:00 | |
| PETON7-10 | 2026-09-06 04:26:17 | 47.21782 | 16.06635 | 136° | 77km/h | 6165m | -2.0m/s | -11.0°C | 39.2% | 0hPa | 2.7V | 00:00:00 | 00:00:00 | 00:00:00 | |
| OM5KV | 2026-09-06 04:26:16 | 47.21782 | 16.06635 | 136° | 80km/h | 6165m | -2.1m/s | -11.0°C | 38.5% | 0hPa | 2.7V | 07:32:00 | 00:00:00 | 00:00:00 | |
| OE5DRO-10 | 2026-09-06 04:26:15 | 47.21810 | 16.06593 | 136° | 75km/h | 6169m | -1.9m/s | -11.0°C | 39.2% | 0hPa | 2.7V | 07:32:00 | 00:00:00 | 00:00:00 | |
| PG1ADW-2 | 2026-09-06 04:26:14 | 47.21825 | 16.06573 | 136° | 75km/h | 6172m | -2.1m/s | -11.0°C | 39.3% | 0hPa | 2.6V | 07:32:00 | 00:00:00 | 00:00:00 | |
| S52SK | 2026-09-06 04:26:11 | 47.21853 | 16.06532 | 137° | 78km/h | 6176m | -2.0m/s | -11.1°C | 38.6% | 0hPa | 2.6V | 07:32:00 | 00:00:00 | 00:00:00 | |
| OM5KV | 2026-09-06 04:26:10 | 47.21868 | 16.06511 | 137° | 78km/h | 6177m | -1.9m/s | -11.1°C | 38.4% | 0hPa | 2.6V | 07:32:00 | 00:00:00 | 00:00:00 | |
| OM5KV | 2026-09-06 04:26:09 | 47.21882 | 16.06491 | 137° | 77km/h | 6180m | -2.0m/s | -11.1°C | 38.8% | 0hPa | 2.6V | 07:33:00 | 00:00:00 | 00:00:00 | |
| S52SK | 2026-09-06 04:26:06 | 47.21923 | 16.06432 | 136° | 75km/h | 6185m | -1.9m/s | -11.1°C | 38.2% | 0hPa | 2.6V | 00:00:00 | 00:00:00 | 00:00:00 | |
| PETON7-10 | 2026-09-06 04:26:02 | 47.21988 | 16.06336 | 134° | 71km/h | 6195m | -1.9m/s | -11.0°C | 38.7% | 0hPa | 2.6V | 00:00:00 | 02:37:06 | 00:00:00 | |
| OE3OSB-13 | 2026-09-06 04:25:52 | 47.22109 | 16.06139 | 129° | 69km/h | 6214m | -1.9m/s | -10.9°C | 36.7% | -1.0hPa | 2.6V | 00:00:00 | 00:00:00 | 00:00:00 | |
| PETON7-10 | 2026-09-06 04:25:47 | 47.22166 | 16.06038 | 130° | 71km/h | 6224m | -2.0m/s | -10.8°C | 36.3% | 0hPa | 2.6V | 00:00:00 | 00:00:00 | 00:00:00 | |
| OM5KV | 2026-09-06 04:25:46 | 47.22166 | 16.06038 | 131° | 71km/h | 6224m | -2.1m/s | -10.9°C | 35.6% | 0hPa | 2.6V | 07:33:00 | 00:00:00 | 00:00:00 | |
| OM5KV | 2026-09-06 04:25:45 | 47.22177 | 16.06018 | 131° | 71km/h | 6226m | -2.1m/s | -10.9°C | 35.4% | 0hPa | 2.6V | 07:33:00 | 00:00:00 | 00:00:00 | |
| OE5DRO-10 | 2026-09-06 04:25:37 | 47.22278 | 16.05834 | 128° | 71km/h | 6246m | -2.1m/s | -10.9°C | 36.3% | 0hPa | 2.6V | 00:00:00 | 00:00:00 | 00:00:00 | |
| OM5KV | 2026-09-06 04:25:35 | 47.22289 | 16.05813 | 128° | 71km/h | 6248m | -2.1m/s | -11.0°C | 35.3% | 0hPa | 2.6V | 07:33:00 | 00:00:00 | 00:00:00 | |
| PG1ADW-2 | 2026-09-06 04:25:34 | 47.22311 | 16.05770 | 128° | 73km/h | 6252m | -2.1m/s | -10.9°C | 35.9% | 0hPa | 2.6V | 00:00:00 | 02:36:38 | 00:00:00 | |
| PETON7-10 | 2026-09-06 04:25:32 | 47.22334 | 16.05728 | 127° | 71km/h | 6256m | -2.0m/s | -10.9°C | 35.3% | 0hPa | 2.6V | 00:00:00 | 00:00:00 | 00:00:00 | |
| OM5KV | 2026-09-06 04:25:29 | 47.22356 | 16.05685 | 129° | 71km/h | 6261m | -2.1m/s | -10.9°C | 34.1% | 0hPa | 2.6V | 07:33:00 | 00:00:00 | 00:00:00 | |
| OE3JTB-15 | 2026-09-06 04:25:26 | 47.22400 | 16.05601 | 128° | 75km/h | 6269m | -2.0m/s | -10.9°C | 34.6% | 0hPa | 2.6V | 00:00:00 | 02:36:30 | 00:00:00 | |
| OM5KV | 2026-09-06 04:25:23 | 47.22422 | 16.05559 | 128° | 71km/h | 6273m | -2.2m/s | -11.0°C | 34.0% | 0hPa | 2.6V | 07:33:00 | 00:00:00 | 00:00:00 | |
| OE3OSB-13 | 2026-09-06 04:25:21 | 47.22455 | 16.05495 | 126° | 71km/h | 6279m | -2.1m/s | -11.1°C | 34.3% | -1.0hPa | 2.6V | 00:00:00 | 00:00:00 | 00:00:00 | |
| OE5DRO-10 | 2026-09-06 04:25:18 | 47.22487 | 16.05429 | 126° | 77km/h | 6286m | -2.1m/s | -11.0°C | 35.0% | 0hPa | 2.6V | 00:00:00 | 00:00:00 | 00:00:00 | |
| PETON7-10 | 2026-09-06 04:25:17 | 47.22498 | 16.05407 | 126° | 77km/h | 6288m | -2.2m/s | -11.1°C | 35.0% | 0hPa | 2.6V | 00:00:00 | 02:36:21 | 00:00:00 | |
| S57NTA-12 | 2026-09-06 04:25:16 | 47.22498 | 16.05407 | 126° | 73km/h | 6288m | -2.3m/s | -11.1°C | 34.4% | 0hPa | 2.6V | 07:33:00 | 00:00:00 | 00:00:00 | |
| OM5KV | 2026-09-06 04:25:15 | 47.22508 | 16.05385 | 126° | 75km/h | 6290m | -2.1m/s | -11.2°C | 34.3% | 0hPa | 2.6V | 07:33:00 | 00:00:00 | 00:00:00 | |
| PG1ADW-2 | 2026-09-06 04:25:14 | 47.22530 | 16.05340 | 125° | 77km/h | 6295m | -2.1m/s | -11.1°C | 34.9% | 0hPa | 2.6V | 00:00:00 | 00:00:00 | 00:00:00 | |
| OM5KV | 2026-09-06 04:25:11 | 47.22552 | 16.05293 | 126° | 75km/h | 6299m | -2.3m/s | -11.2°C | 34.5% | 0hPa | 2.6V | 07:33:00 | 00:00:00 | 00:00:00 | |
| OM5KV | 2026-09-06 04:25:10 | 47.22563 | 16.05270 | 125° | 77km/h | 6301m | -2.2m/s | -11.2°C | 34.4% | 0hPa | 2.6V | 07:33:00 | 00:00:00 | 00:00:00 | |
| OM5KV | 2026-09-06 04:25:06 | 47.22607 | 16.05176 | 125° | 78km/h | 6311m | -2.1m/s | -11.3°C | 35.0% | 0hPa | 2.6V | 07:33:00 | 00:00:00 | 00:00:00 | |
| OM5KV | 2026-09-06 04:25:05 | 47.22618 | 16.05152 | 125° | 78km/h | 6313m | -2.2m/s | -11.3°C | 35.2% | 0hPa | 2.6V | 07:33:00 | 00:00:00 | 00:00:00 | |
| PETON7-10 | 2026-09-06 04:25:02 | 47.22662 | 16.05057 | 125° | 80km/h | 6322m | -2.5m/s | -11.3°C | 36.2% | 0hPa | 2.6V | 07:33:00 | 00:00:00 | 00:00:00 | |
| OE3OSB-13 | 2026-09-06 04:24:50 | 47.22799 | 16.04764 | 125° | 80km/h | 6351m | -2.3m/s | -11.6°C | 36.2% | -1.0hPa | 2.6V | 00:00:00 | 00:00:00 | 00:00:00 | |
| OM5KV | 2026-09-06 04:24:48 | 47.22811 | 16.04740 | 126° | 82km/h | 6353m | -2.4m/s | -11.7°C | 36.4% | 0hPa | 2.6V | 07:33:00 | 00:00:00 | 00:00:00 | |
| PETON7-10 | 2026-09-06 04:24:47 | 47.22835 | 16.04690 | 126° | 82km/h | 6358m | -2.5m/s | -11.6°C | 37.0% | 0hPa | 2.6V | 00:00:00 | 00:00:00 | 00:00:00 | |
| S52SK | 2026-09-06 04:24:45 | 47.22847 | 16.04664 | 126° | 82km/h | 6361m | -2.4m/s | -11.7°C | 36.3% | 0hPa | 2.6V | 00:00:00 | 00:00:00 | 00:00:00 | |
| OM5KV | 2026-09-06 04:24:43 | 47.22871 | 16.04614 | 126° | 82km/h | 6366m | -2.6m/s | -11.7°C | 36.4% | 0hPa | 2.6V | 07:33:00 | 00:00:00 | 00:00:00 | |
| OE5DRO-10 | 2026-09-06 04:24:40 | 47.22918 | 16.04514 | 125° | 84km/h | 6376m | -2.5m/s | -11.8°C | 37.4% | 0hPa | 2.6V | 00:00:00 | 00:00:00 | 00:00:00 | |
| OM5KV | 2026-09-06 04:24:36 | 47.22953 | 16.04438 | 125° | 82km/h | 6383m | -2.5m/s | -11.9°C | 37.0% | 0hPa | 2.6V | 07:33:00 | 00:00:00 | 00:00:00 | |
| OM5KV | 2026-09-06 04:24:35 | 47.22965 | 16.04413 | 126° | 82km/h | 6386m | -2.5m/s | -11.9°C | 37.0% | 0hPa | 2.6V | 07:33:00 | 00:00:00 | 00:00:00 | |
| PG1ADW-2 | 2026-09-06 04:24:34 | 47.22989 | 16.04362 | 125° | 86km/h | 6391m | -2.5m/s | -11.9°C | 37.6% | 0hPa | 2.6V | 00:00:00 | 00:00:00 | 00:00:00 | |
| PETON7-10 | 2026-09-06 04:24:32 | 47.23013 | 16.04312 | 125° | 86km/h | 6396m | -2.6m/s | -11.9°C | 37.5% | 0hPa | 2.6V | 00:00:00 | 02:35:36 | 00:00:00 | |
| OM5KV | 2026-09-06 04:24:31 | 47.23013 | 16.04312 | 126° | 84km/h | 6396m | -2.6m/s | -12.0°C | 36.7% | 0hPa | 2.6V | 07:33:00 | 00:00:00 | 00:00:00 | |
| OM5KV | 2026-09-06 04:24:30 | 47.23025 | 16.04286 | 126° | 84km/h | 6398m | -2.5m/s | -12.0°C | 36.5% | 0hPa | 2.6V | 07:33:00 | 00:00:00 | 00:00:00 | |
| OE3JTB-15 | 2026-09-06 04:24:28 | 47.23062 | 16.04209 | 125° | 88km/h | 6405m | -2.5m/s | -12.0°C | 37.5% | 0hPa | 2.6V | 00:00:00 | 00:00:00 | 00:00:00 | |
| OM5KV | 2026-09-06 04:24:25 | 47.23086 | 16.04158 | 126° | 84km/h | 6411m | -2.6m/s | -12.1°C | 36.7% | 0hPa | 2.6V | 07:34:00 | 00:00:00 | 00:00:00 | |
| OM5KV | 2026-09-06 04:24:24 | 47.23099 | 16.04132 | 126° | 84km/h | 6413m | -2.6m/s | -12.1°C | 36.6% | 0hPa | 2.6V | 07:34:00 | 00:00:00 | 00:00:00 | |
| OE5DRO-10 | 2026-09-06 04:24:21 | 47.23149 | 16.04028 | 126° | 89km/h | 6423m | -2.6m/s | -12.0°C | 35.8% | 0hPa | 2.6V | 00:00:00 | 00:00:00 | 00:00:00 | |
| OM5KV | 2026-09-06 04:24:19 | 47.23161 | 16.04001 | 126° | 88km/h | 6426m | -2.7m/s | -12.1°C | 34.7% | 0hPa | 2.6V | 07:34:00 | 00:00:00 | 00:00:00 | |
| OM5KV | 2026-09-06 04:24:18 | 47.23174 | 16.03975 | 126° | 88km/h | 6429m | -2.9m/s | -12.1°C | 34.6% | 0hPa | 2.6V | 07:34:00 | 00:00:00 | 00:00:00 | |
| PETON7-10 | 2026-09-06 04:24:17 | 47.23200 | 16.03922 | 126° | 89km/h | 6434m | -2.7m/s | -12.1°C | 35.4% | 0hPa | 2.6V | 00:00:00 | 00:00:00 | 00:00:00 | |
| PG1ADW-2 | 2026-09-06 04:24:14 | 47.23239 | 16.03842 | 127° | 89km/h | 6442m | -2.7m/s | -12.1°C | 35.3% | 0hPa | 2.6V | 00:00:00 | 02:35:18 | 00:00:00 | |
| OM5KV | 2026-09-06 04:24:13 | 47.23239 | 16.03842 | 127° | 89km/h | 6442m | -2.7m/s | -12.2°C | 34.6% | 0hPa | 2.6V | 07:34:00 | 00:00:00 | 00:00:00 | |
| OM5KV | 2026-09-06 04:24:12 | 47.23252 | 16.03815 | 127° | 89km/h | 6445m | -2.7m/s | -12.2°C | 34.6% | 0hPa | 2.6V | 07:34:00 | 00:00:00 | 00:00:00 | |
| S57NTA-12 | 2026-09-06 04:24:11 | 47.23266 | 16.03789 | 127° | 89km/h | 6447m | -2.6m/s | -12.2°C | 34.7% | 0hPa | 2.6V | 00:00:00 | 00:00:00 | 00:00:00 | |
| OM5KV | 2026-09-06 04:24:07 | 47.23319 | 16.03682 | 127° | 89km/h | 6458m | -2.8m/s | -12.3°C | 34.8% | 0hPa | 2.6V | 07:34:00 | 00:00:00 | 00:00:00 | |
| PETON7-10 | 2026-09-06 04:24:02 | 47.23399 | 16.03519 | 126° | 91km/h | 6474m | -2.6m/s | -12.3°C | 35.3% | 0hPa | 2.6V | 00:00:00 | 00:00:00 | 00:00:00 | |
| OM5KV | 2026-09-06 04:24:01 | 47.23399 | 16.03519 | 126° | 89km/h | 6474m | -2.6m/s | -12.4°C | 34.6% | 0hPa | 2.6V | 07:34:00 | 00:00:00 | 00:00:00 | |
| OE3OSB-13 | 2026-09-06 04:23:48 | 47.23596 | 16.03104 | 125° | 91km/h | 6514m | -2.8m/s | -12.6°C | 34.4% | -1.0hPa | 2.6V | 00:00:00 | 00:00:00 | 00:00:00 | |
| PETON7-10 | 2026-09-06 04:23:47 | 47.23596 | 16.03104 | 126° | 93km/h | 6514m | -2.7m/s | -12.5°C | 35.1% | 0hPa | 2.6V | 00:00:00 | 02:34:51 | 00:00:00 | |
| OM5KV | 2026-09-06 04:23:44 | 47.23623 | 16.03048 | 127° | 93km/h | 6520m | -2.8m/s | -12.6°C | 33.3% | 0hPa | 2.6V | 07:34:00 | 00:00:00 | 00:00:00 | |
| OE5DRO-10 | 2026-09-06 04:23:43 | 47.23651 | 16.02992 | 127° | 95km/h | 6526m | -2.8m/s | -12.6°C | 34.4% | 0hPa | 2.6V | 07:34:00 | 00:00:00 | 00:00:00 | |
| OM5KV | 2026-09-06 04:23:42 | 47.23651 | 16.02992 | 127° | 93km/h | 6526m | -2.8m/s | -12.6°C | 33.7% | 0hPa | 2.6V | 07:34:00 | 00:00:00 | 00:00:00 | |
| OM5KV | 2026-09-06 04:23:38 | 47.23708 | 16.02881 | 128° | 95km/h | 6537m | -2.9m/s | -12.7°C | 33.7% | 0hPa | 2.6V | 07:34:00 | 00:00:00 | 00:00:00 | |
| OM5KV | 2026-09-06 04:23:37 | 47.23723 | 16.02853 | 129° | 95km/h | 6540m | -2.9m/s | -12.7°C | 33.6% | 0hPa | 2.6V | 07:34:00 | 00:00:00 | 00:00:00 | |
| S52SK | 2026-09-06 04:23:36 | 47.23737 | 16.02825 | 129° | 95km/h | 6543m | -2.7m/s | -12.6°C | 33.4% | 0hPa | 2.6V | 00:00:00 | 00:00:00 | 00:00:00 | |
| PG1ADW-2 | 2026-09-06 04:23:34 | 47.23782 | 16.02742 | 129° | 95km/h | 6551m | -3.0m/s | -12.6°C | 34.0% | 0hPa | 2.6V | 07:34:00 | 00:00:00 | 00:00:00 | |
| PETON7-10 | 2026-09-06 04:23:32 | 47.23812 | 16.02687 | 130° | 95km/h | 6557m | -3.2m/s | -12.7°C | 34.2% | 0hPa | 2.6V | 00:00:00 | 00:00:00 | 00:00:00 | |
| OM5KV | 2026-09-06 04:23:31 | 47.23812 | 16.02687 | 130° | 95km/h | 6557m | -3.2m/s | -12.8°C | 33.5% | 0hPa | 2.6V | 07:35:00 | 00:00:00 | 00:00:00 | |
| OE3JTB-15 | 2026-09-06 04:23:30 | 47.23843 | 16.02633 | 130° | 93km/h | 6564m | -3.2m/s | -12.7°C | 33.6% | 0hPa | 2.6V | 00:00:00 | 00:00:00 | 00:00:00 | |
| OM5KV | 2026-09-06 04:23:26 | 47.23890 | 16.02551 | 131° | 95km/h | 6573m | -3.2m/s | -12.8°C | 32.0% | 0hPa | 2.6V | 07:35:00 | 00:00:00 | 00:00:00 | |
| OE5DRO-10 | 2026-09-06 04:23:24 | 47.23937 | 16.02469 | 131° | 93km/h | 6583m | -3.2m/s | -12.8°C | 32.2% | 0hPa | 2.6V | 00:00:00 | 00:00:00 | 00:00:00 | |
| PETON7-10 | 2026-09-06 04:23:17 | 47.24047 | 16.02281 | 132° | 91km/h | 6605m | -2.9m/s | -13.0°C | 31.6% | 0hPa | 2.5V | 00:00:00 | 00:00:00 | 00:00:00 | |
| PG1ADW-2 | 2026-09-06 04:23:14 | 47.24094 | 16.02202 | 132° | 89km/h | 6614m | -3.1m/s | -13.0°C | 31.6% | 0hPa | 2.5V | 00:00:00 | 00:00:00 | 00:00:00 | |
| OM5KV | 2026-09-06 04:23:11 | 47.24126 | 16.02151 | 133° | 93km/h | 6620m | -3.1m/s | -13.1°C | 30.9% | 0hPa | 2.5V | 07:35:00 | 00:00:00 | 00:00:00 | |
| S57NTA-12 | 2026-09-06 04:23:07 | 47.24188 | 16.02051 | 133° | 89km/h | 6632m | -2.9m/s | -13.1°C | 30.3% | 0hPa | 2.5V | 00:00:00 | 00:00:00 | 00:00:00 | |
| OE5DRO-10 | 2026-09-06 04:23:05 | 47.24233 | 16.01977 | 132° | 89km/h | 6641m | -3.0m/s | -13.0°C | 30.1% | 0hPa | 2.5V | 00:00:00 | 00:00:00 | 00:00:00 | |
| PETON7-10 | 2026-09-06 04:23:02 | 47.24276 | 16.01902 | 130° | 89km/h | 6650m | -3.0m/s | -13.0°C | 29.7% | 0hPa | 2.5V | 07:35:00 | 02:34:06 | 00:00:00 | |
| OE3JTB-15 | 2026-09-06 04:23:01 | 47.24290 | 16.01877 | 129° | 93km/h | 6653m | -3.0m/s | -13.1°C | 29.7% | 0hPa | 2.5V | 00:00:00 | 00:00:00 | 00:00:00 | |
| OM5KV | 2026-09-06 04:23:00 | 47.24290 | 16.01877 | 129° | 88km/h | 6653m | -3.1m/s | -13.1°C | 29.0% | 0hPa | 2.5V | 07:35:00 | 00:00:00 | 00:00:00 | |
| OM5KV | 2026-09-06 04:22:59 | 47.24303 | 16.01851 | 129° | 88km/h | 6657m | -3.1m/s | -13.1°C | 29.1% | 0hPa | 2.5V | 07:35:00 | 00:00:00 | 00:00:00 | |
| OE5DXL-15 | 2026-09-06 04:22:55 | 47.24369 | 16.01718 | 125° | 95km/h | 6672m | -3.2m/s | -13.2°C | 30.1% | 0hPa | 2.5V | 00:00:00 | 00:00:00 | 00:00:00 | |
| PG1ADW-2 | 2026-09-06 04:22:54 | 47.24382 | 16.01690 | 125° | 93km/h | 6675m | -3.2m/s | -13.2°C | 30.2% | 0hPa | 2.6V | 00:00:00 | 02:33:58 | 00:00:00 | |
| OM5KV | 2026-09-06 04:22:52 | 47.24395 | 16.01662 | 126° | 91km/h | 6678m | -3.1m/s | -13.3°C | 29.5% | 0hPa | 2.6V | 07:35:00 | 00:00:00 | 00:00:00 | |
| PETON7-10 | 2026-09-06 04:22:47 | 47.24475 | 16.01492 | 125° | 95km/h | 6698m | -3.4m/s | -13.4°C | 30.7% | 0hPa | 2.6V | 00:00:00 | 00:00:00 | 00:00:00 | |
| OE5DRO-10 | 2026-09-06 04:22:46 | 47.24488 | 16.01463 | 125° | 95km/h | 6701m | -3.1m/s | -13.5°C | 30.8% | 0hPa | 2.6V | 00:00:00 | 00:00:00 | 00:00:00 | |
| S57NTA-12 | 2026-09-06 04:22:36 | 47.24610 | 16.01200 | 125° | 95km/h | 6732m | -3.3m/s | -13.7°C | 30.4% | 0hPa | 2.6V | 07:36:00 | 00:00:00 | 00:00:00 | |
| PG1ADW-2 | 2026-09-06 04:22:34 | 47.24651 | 16.01111 | 124° | 100km/h | 6742m | -3.5m/s | -13.8°C | 31.4% | 0hPa | 2.6V | 00:00:00 | 00:00:00 | 00:00:00 | |
| PETON7-10 | 2026-09-06 04:22:32 | 47.24678 | 16.01051 | 124° | 99km/h | 6749m | -3.5m/s | -13.8°C | 31.4% | 0hPa | 2.6V | 00:00:00 | 00:00:00 | 00:00:00 | |
| OE5DRO-10 | 2026-09-06 04:22:27 | 47.24747 | 16.00901 | 124° | 102km/h | 6767m | -3.5m/s | -14.0°C | 31.6% | 0hPa | 2.6V | 00:00:00 | 00:00:00 | 00:00:00 | |
| OE5DXL-15 | 2026-09-06 04:22:25 | 47.24774 | 16.00840 | 124° | 104km/h | 6774m | -3.5m/s | -14.1°C | 31.8% | 0hPa | 2.6V | 00:00:00 | 02:33:29 | 00:00:00 | |
| S52SK | 2026-09-06 04:22:24 | 47.24775 | 16.00840 | 125° | 99km/h | 6774m | -3.5m/s | -14.1°C | 30.9% | 0hPa | 2.6V | 00:00:00 | 00:00:00 | 00:00:00 | |
| PETON7-10 | 2026-09-06 04:22:17 | 47.24890 | 16.00592 | 125° | 104km/h | 6802m | -3.5m/s | -14.3°C | 32.0% | 0hPa | 2.6V | 00:00:00 | 02:33:21 | 00:00:00 | |
| OE3OSB-13 | 2026-09-06 04:22:15 | 47.24935 | 16.00498 | 125° | 102km/h | 6812m | -3.5m/s | -14.4°C | 31.5% | -1.0hPa | 2.6V | 00:00:00 | 00:00:00 | 00:00:00 | |
| PG1ADW-2 | 2026-09-06 04:22:14 | 47.24935 | 16.00498 | 126° | 106km/h | 6813m | -3.5m/s | -14.4°C | 32.4% | 0hPa | 2.6V | 00:00:00 | 00:00:00 | 00:00:00 | |
| OM5KV | 2026-09-06 04:22:12 | 47.24950 | 16.00466 | 126° | 104km/h | 6816m | -3.4m/s | -14.4°C | 31.7% | 0hPa | 2.6V | 07:36:00 | 00:00:00 | 00:00:00 | |
| OE5DRO-10 | 2026-09-06 04:22:08 | 47.25028 | 16.00308 | 127° | 106km/h | 6833m | -3.5m/s | -14.6°C | 32.8% | 0hPa | 2.6V | 00:00:00 | 00:00:00 | 00:00:00 | |
| OM5KV | 2026-09-06 04:22:07 | 47.25028 | 16.00308 | 128° | 106km/h | 6833m | -3.6m/s | -14.6°C | 32.0% | 0hPa | 2.6V | 07:36:00 | 00:00:00 | 00:00:00 | |
| OM5KV | 2026-09-06 04:22:06 | 47.25044 | 16.00277 | 128° | 106km/h | 6837m | -3.6m/s | -14.7°C | 32.2% | 0hPa | 2.6V | 07:36:00 | 00:00:00 | 00:00:00 | |
| PETON7-10 | 2026-09-06 04:22:02 | 47.25125 | 16.00119 | 128° | 108km/h | 6855m | -3.4m/s | -14.8°C | 32.8% | 0hPa | 2.6V | 00:00:00 | 00:00:00 | 00:00:00 | |
| OM5KV | 2026-09-06 04:22:01 | 47.25125 | 16.00119 | 128° | 106km/h | 6855m | -3.5m/s | -14.8°C | 31.9% | 0hPa | 2.6V | 07:36:00 | 00:00:00 | 00:00:00 | |
| OM5KV | 2026-09-06 04:21:59 | 47.25158 | 16.00056 | 128° | 106km/h | 6862m | -3.7m/s | -14.9°C | 32.0% | 0hPa | 2.6V | 07:36:00 | 00:00:00 | 00:00:00 | |
| OM5KV | 2026-09-06 04:21:56 | 47.25207 | 15.99962 | 129° | 108km/h | 6873m | -3.8m/s | -14.9°C | 32.3% | 0hPa | 2.6V | 07:36:00 | 00:00:00 | 00:00:00 | |
| OE5DXL-15 | 2026-09-06 04:21:55 | 47.25240 | 15.99899 | 128° | 108km/h | 6880m | -3.6m/s | -15.0°C | 33.6% | 0hPa | 2.6V | 00:00:00 | 00:00:00 | 00:00:00 | |
| PG1ADW-2 | 2026-09-06 04:21:54 | 47.25256 | 15.99868 | 128° | 108km/h | 6884m | -3.8m/s | -15.0°C | 33.6% | 0hPa | 2.6V | 00:00:00 | 00:00:00 | 00:00:00 | |
| OE5DRO-10 | 2026-09-06 04:21:49 | 47.25340 | 15.99710 | 129° | 108km/h | 6902m | -3.7m/s | -15.2°C | 34.2% | 0hPa | 2.6V | 00:00:00 | 00:00:00 | 00:00:00 | |
| PETON7-10 | 2026-09-06 04:21:47 | 47.25374 | 15.99647 | 128° | 108km/h | 6909m | -3.5m/s | -15.3°C | 34.3% | 0hPa | 2.6V | 00:00:00 | 00:00:00 | 00:00:00 | |
| OE3OSB-13 | 2026-09-06 04:21:43 | 47.25440 | 15.99521 | 127° | 106km/h | 6923m | -3.7m/s | -15.5°C | 33.7% | -1.0hPa | 2.6V | 00:00:00 | 00:00:00 | 00:00:00 | |
| OE8JPQ-2 | 2026-09-06 04:21:39 | 47.25507 | 15.99395 | 129° | 110km/h | 6938m | -3.9m/s | -15.5°C | 34.0% | 0hPa | 2.6V | 07:36:00 | 00:00:00 | 00:00:00 | |
| OE3JTB-15 | 2026-09-06 04:21:34 | 47.25593 | 15.99237 | 129° | 108km/h | 6956m | -3.7m/s | -15.7°C | 34.4% | 0hPa | 2.5V | 00:00:00 | 00:00:00 | 00:00:00 | |
| S57NTA-12 | 2026-09-06 04:21:33 | 47.25593 | 15.99237 | 130° | 108km/h | 6956m | -3.7m/s | -15.8°C | 33.4% | 0hPa | 2.5V | 07:37:00 | 00:00:00 | 00:00:00 | |
| PETON7-10 | 2026-09-06 04:21:32 | 47.25628 | 15.99175 | 129° | 108km/h | 6963m | -3.5m/s | -15.7°C | 34.4% | 0hPa | 2.5V | 00:00:00 | 02:32:36 | 00:00:00 | |
| OE5DRO-10 | 2026-09-06 04:21:30 | 47.25662 | 15.99112 | 129° | 108km/h | 6970m | -3.7m/s | -15.8°C | 34.6% | 0hPa | 2.5V | 00:00:00 | 00:00:00 | 00:00:00 | |
| OM5KV | 2026-09-06 04:21:28 | 47.25680 | 15.99080 | 130° | 110km/h | 6974m | -3.4m/s | -15.9°C | 33.6% | 0hPa | 2.5V | 00:00:00 | 00:00:00 | 00:00:00 | |
| OM5KV | 2026-09-06 04:21:25 | 47.25733 | 15.98986 | 131° | 110km/h | 6984m | -3.5m/s | -16.0°C | 34.1% | 0hPa | 2.5V | 00:00:00 | 00:00:00 | 00:00:00 | |
| OE5DXL-15 | 2026-09-06 04:21:24 | 47.25769 | 15.98925 | 132° | 102km/h | 6991m | -3.5m/s | -16.0°C | 35.2% | 0hPa | 2.5V | 00:00:00 | 00:00:00 | 00:00:00 | |
| OM5KV | 2026-09-06 04:21:23 | 47.25769 | 15.98925 | 132° | 110km/h | 6991m | -3.6m/s | -16.0°C | 34.2% | 0hPa | 2.6V | 00:00:00 | 00:00:00 | 00:00:00 | |
| OE8JPQ-2 | 2026-09-06 04:21:19 | 47.25860 | 15.98775 | 133° | 106km/h | 7009m | -3.8m/s | -16.1°C | 34.7% | 0hPa | 2.6V | 00:00:00 | 00:00:00 | 00:00:00 | |
| PETON7-10 | 2026-09-06 04:21:17 | 47.25897 | 15.98717 | 133° | 106km/h | 7017m | -3.7m/s | -16.2°C | 34.4% | 0hPa | 2.6V | 00:00:00 | 00:00:00 | 00:00:00 | |
| PG1ADW-2 | 2026-09-06 04:21:14 | 47.25953 | 15.98629 | 134° | 104km/h | 7027m | -3.8m/s | -16.3°C | 34.2% | 0hPa | 2.6V | 00:00:00 | 00:00:00 | 00:00:00 | |
| S52SK | 2026-09-06 04:21:12 | 47.25971 | 15.98599 | 134° | 108km/h | 7031m | -3.6m/s | -16.3°C | 33.3% | 0hPa | 2.6V | 00:00:00 | 00:00:00 | 00:00:00 | |
| OE5DRO-10 | 2026-09-06 04:21:11 | 47.26009 | 15.98542 | 134° | 104km/h | 7039m | -3.6m/s | -16.3°C | 34.4% | 0hPa | 2.6V | 07:37:00 | 00:00:00 | 00:00:00 | |
| S52SK | 2026-09-06 04:21:07 | 47.26065 | 15.98457 | 135° | 106km/h | 7049m | -3.6m/s | -16.5°C | 33.2% | 0hPa | 2.6V | 00:00:00 | 00:00:00 | 00:00:00 | |
| OE3JTB-15 | 2026-09-06 04:21:05 | 47.26121 | 15.98373 | 135° | 100km/h | 7060m | -3.6m/s | -16.5°C | 34.0% | 0hPa | 2.6V | 00:00:00 | 02:32:09 | 00:00:00 | |
| PETON7-10 | 2026-09-06 04:21:02 | 47.26176 | 15.98289 | 134° | 102km/h | 7070m | -3.5m/s | -16.6°C | 33.9% | 0hPa | 2.6V | 07:37:00 | 00:00:00 | 00:00:00 | |
| OM5KV | 2026-09-06 04:21:01 | 47.26176 | 15.98289 | 135° | 104km/h | 7070m | -3.5m/s | -16.6°C | 32.9% | 0hPa | 2.6V | 07:38:00 | 00:00:00 | 00:00:00 | |
| OM5KV | 2026-09-06 04:21:00 | 47.26194 | 15.98261 | 135° | 104km/h | 7074m | -3.3m/s | -16.6°C | 32.8% | 0hPa | 2.6V | 07:38:00 | 00:00:00 | 00:00:00 | |
| OE8JPQ-2 | 2026-09-06 04:20:56 | 47.26285 | 15.98122 | 134° | 99km/h | 7091m | -3.3m/s | -16.8°C | 33.9% | 0hPa | 2.6V | 00:00:00 | 02:32:00 | 00:00:00 | |
| PG1ADW-2 | 2026-09-06 04:20:54 | 47.26321 | 15.98068 | 135° | 99km/h | 7097m | -3.4m/s | -16.8°C | 34.0% | 0hPa | 2.6V | 07:37:00 | 00:00:00 | 00:00:00 | |
| OM5KV | 2026-09-06 04:20:53 | 47.26321 | 15.98068 | 135° | 100km/h | 7097m | -3.4m/s | -16.9°C | 33.0% | 0hPa | 2.6V | 07:38:00 | 00:00:00 | 00:00:00 | |
| OE5DRO-10 | 2026-09-06 04:20:52 | 47.26356 | 15.98014 | 135° | 97km/h | 7104m | -3.3m/s | -16.9°C | 34.1% | 0hPa | 2.6V | 00:00:00 | 00:00:00 | 00:00:00 | |
| PETON7-10 | 2026-09-06 04:20:47 | 47.26444 | 15.97881 | 135° | 97km/h | 7121m | -3.5m/s | -17.0°C | 34.6% | 0hPa | 2.6V | 00:00:00 | 02:31:51 | 00:00:00 | |
| OM5KV | 2026-09-06 04:20:44 | 47.26479 | 15.97828 | 135° | 99km/h | 7127m | -3.5m/s | -17.2°C | 33.3% | 0hPa | 2.6V | 07:38:00 | 00:00:00 | 00:00:00 | |
| OM5KV | 2026-09-06 04:20:43 | 47.26496 | 15.97802 | 135° | 97km/h | 7131m | -3.5m/s | -17.2°C | 33.1% | 0hPa | 2.6V | 07:38:00 | 00:00:00 | 00:00:00 | |
| OE3OSB-13 | 2026-09-06 04:20:42 | 47.26547 | 15.97724 | 133° | 97km/h | 7141m | -3.4m/s | -17.3°C | 32.8% | -1.0hPa | 2.6V | 00:00:00 | 00:00:00 | 00:00:00 | |
| OM5KV | 2026-09-06 04:20:37 | 47.26597 | 15.97645 | 133° | 95km/h | 7152m | -3.2m/s | -17.3°C | 32.8% | 0hPa | 2.6V | 07:38:00 | 00:00:00 | 00:00:00 | |
| OE8JPQ-2 | 2026-09-06 04:20:36 | 47.26629 | 15.97592 | 132° | 95km/h | 7158m | -3.2m/s | -17.3°C | 33.8% | 0hPa | 2.6V | 00:00:00 | 00:00:00 | 00:00:00 | |
| PG1ADW-2 | 2026-09-06 04:20:34 | 47.26660 | 15.97540 | 131° | 97km/h | 7164m | -3.1m/s | -17.4°C | 33.9% | 0hPa | 2.6V | 00:00:00 | 00:00:00 | 00:00:00 | |
| OE5DRO-10 | 2026-09-06 04:20:33 | 47.26676 | 15.97513 | 131° | 97km/h | 7167m | -3.2m/s | -17.4°C | 34.2% | 0hPa | 2.5V | 00:00:00 | 00:00:00 | 00:00:00 | |
| PETON7-10 | 2026-09-06 04:20:32 | 47.26691 | 15.97486 | 130° | 97km/h | 7171m | -3.2m/s | -17.4°C | 34.0% | 0hPa | 2.5V | 00:00:00 | 00:00:00 | 00:00:00 | |
| S57NTA-12 | 2026-09-06 04:20:31 | 47.26691 | 15.97486 | 131° | 95km/h | 7171m | -3.3m/s | -17.5°C | 33.0% | 0hPa | 2.6V | 07:38:00 | 00:00:00 | 00:00:00 | |
| OM5KV | 2026-09-06 04:20:26 | 47.26766 | 15.97349 | 129° | 95km/h | 7187m | -3.1m/s | -17.6°C | 33.5% | 0hPa | 2.6V | 07:38:00 | 00:00:00 | 00:00:00 | |
| OM5KV | 2026-09-06 04:20:21 | 47.26839 | 15.97207 | 128° | 97km/h | 7202m | -3.1m/s | -17.8°C | 34.4% | 0hPa | 2.6V | 07:38:00 | 00:00:00 | 00:00:00 | |
| OM5KV | 2026-09-06 04:20:20 | 47.26854 | 15.97178 | 127° | 97km/h | 7205m | -3.2m/s | -17.8°C | 34.7% | 0hPa | 2.6V | 07:38:00 | 00:00:00 | 00:00:00 | |
| PETON7-10 | 2026-09-06 04:20:17 | 47.26913 | 15.97060 | 126° | 104km/h | 7218m | -3.1m/s | -17.8°C | 35.1% | 0hPa | 2.6V | 00:00:00 | 00:00:00 | 00:00:00 | |
| OE8JPQ-2 | 2026-09-06 04:20:16 | 47.26928 | 15.97030 | 126° | 106km/h | 7222m | -3.1m/s | -17.8°C | 35.0% | 0hPa | 2.6V | 00:00:00 | 00:00:00 | 00:00:00 | |
| OM5KV | 2026-09-06 04:20:15 | 47.26927 | 15.97030 | 127° | 100km/h | 7222m | -3.1m/s | -17.9°C | 33.9% | 0hPa | 2.6V | 07:38:00 | 00:00:00 | 00:00:00 | |
| PG1ADW-2 | 2026-09-06 04:20:14 | 47.26957 | 15.96970 | 126° | 106km/h | 7228m | -3.1m/s | -17.9°C | 34.9% | 0hPa | 2.6V | 00:00:00 | 02:31:18 | 00:00:00 | |
| OM5KV | 2026-09-06 04:20:11 | 47.26987 | 15.96908 | 127° | 102km/h | 7234m | -3.0m/s | -18.0°C | 33.9% | 0hPa | 2.6V | 07:38:00 | 00:00:00 | 00:00:00 | |
| S57NTA-12 | 2026-09-06 04:20:10 | 47.27003 | 15.96877 | 127° | 104km/h | 7237m | -3.0m/s | -18.0°C | 33.7% | 0hPa | 2.6V | 07:38:00 | 00:00:00 | 00:00:00 | |
| OM5KV | 2026-09-06 04:20:09 | 47.27018 | 15.96846 | 127° | 104km/h | 7240m | -3.1m/s | -18.0°C | 33.7% | 0hPa | 2.6V | 07:38:00 | 00:00:00 | 00:00:00 | |
| OE3JTB-15 | 2026-09-06 04:20:07 | 47.27066 | 15.96751 | 127° | 108km/h | 7249m | -3.0m/s | -18.0°C | 34.8% | 0hPa | 2.6V | 00:00:00 | 00:00:00 | 00:00:00 | |
| S52SK | 2026-09-06 04:20:03 | 47.27114 | 15.96656 | 128° | 108km/h | 7258m | -2.9m/s | -18.2°C | 34.0% | 0hPa | 2.6V | 00:00:00 | 00:00:00 | 00:00:00 | |
| PETON7-10 | 2026-09-06 04:20:02 | 47.27148 | 15.96592 | 128° | 110km/h | 7264m | -2.9m/s | -18.2°C | 35.0% | 0hPa | 2.6V | 00:00:00 | 02:31:06 | 00:00:00 | |
| S52SK | 2026-09-06 04:19:57 | 47.27215 | 15.96465 | 129° | 108km/h | 7276m | -2.9m/s | -18.3°C | 34.2% | 0hPa | 2.6V | 00:00:00 | 00:00:00 | 00:00:00 | |
| OE8JPQ-2 | 2026-09-06 04:19:56 | 47.27249 | 15.96402 | 129° | 110km/h | 7282m | -3.0m/s | -18.3°C | 35.5% | 0hPa | 2.6V | 00:00:00 | 02:31:00 | 00:00:00 | |
| OE5DRO-10 | 2026-09-06 04:19:55 | 47.27266 | 15.96370 | 129° | 110km/h | 7284m | -2.8m/s | -18.4°C | 35.7% | 0hPa | 2.6V | 00:00:00 | 00:00:00 | 00:00:00 | |
| PG1ADW-2 | 2026-09-06 04:19:54 | 47.27283 | 15.96338 | 129° | 110km/h | 7287m | -3.0m/s | -18.4°C | 35.7% | 0hPa | 2.6V | 00:00:00 | 00:00:00 | 00:00:00 | |
| S57NTA-12 | 2026-09-06 04:19:50 | 47.27334 | 15.96243 | 130° | 110km/h | 7296m | -2.8m/s | -18.5°C | 34.7% | 0hPa | 2.6V | 07:38:00 | 00:00:00 | 00:00:00 | |
| OM5KV | 2026-09-06 04:19:48 | 47.27370 | 15.96180 | 130° | 110km/h | 7302m | -2.9m/s | -18.6°C | 34.8% | 0hPa | 2.6V | 07:38:00 | 00:00:00 | 00:00:00 | |
| PETON7-10 | 2026-09-06 04:19:47 | 47.27405 | 15.96117 | 130° | 110km/h | 7308m | -2.8m/s | -18.6°C | 36.0% | 0hPa | 2.6V | 00:00:00 | 00:00:00 | 00:00:00 | |
| OM5KV | 2026-09-06 04:19:41 | 47.27492 | 15.95960 | 130° | 110km/h | 7322m | -2.8m/s | -18.8°C | 35.3% | 0hPa | 2.6V | 07:38:00 | 00:00:00 | 00:00:00 | |
| OE3OSB-13 | 2026-09-06 04:19:40 | 47.27546 | 15.95866 | 130° | 108km/h | 7330m | -2.9m/s | -18.8°C | 35.5% | -1.0hPa | 2.6V | 00:00:00 | 00:00:00 | 00:00:00 | |
| OE3JTB-15 | 2026-09-06 04:19:38 | 47.27564 | 15.95836 | 131° | 104km/h | 7333m | -2.8m/s | -18.8°C | 36.5% | 0hPa | 2.6V | 00:00:00 | 02:30:42 | 00:00:00 | |
| OE8JPQ-2 | 2026-09-06 04:19:36 | 47.27600 | 15.95775 | 132° | 106km/h | 7339m | -2.7m/s | -18.8°C | 36.4% | 0hPa | 2.6V | 00:00:00 | 00:00:00 | 00:00:00 | |
| OE5DXL-15 | 2026-09-06 04:19:35 | 47.27619 | 15.95745 | 133° | 104km/h | 7341m | -2.7m/s | -18.9°C | 36.5% | 0hPa | 2.5V | 00:00:00 | 00:00:00 | 00:00:00 | |
| PG1ADW-2 | 2026-09-06 04:19:34 | 47.27637 | 15.95715 | 133° | 106km/h | 7344m | -3.0m/s | -18.9°C | 36.2% | 0hPa | 2.5V | 00:00:00 | 00:00:00 | 00:00:00 | |
| PETON7-10 | 2026-09-06 04:19:32 | 47.27675 | 15.95656 | 134° | 106km/h | 7350m | -3.0m/s | -18.9°C | 36.1% | 0hPa | 2.6V | 00:00:00 | 00:00:00 | 00:00:00 | |
| S57NTA-12 | 2026-09-06 04:19:29 | 47.27712 | 15.95597 | 135° | 108km/h | 7355m | -2.7m/s | -19.0°C | 35.1% | 0hPa | 2.6V | 07:38:00 | 00:00:00 | 00:00:00 | |
| OM5KV | 2026-09-06 04:19:22 | 47.27843 | 15.95397 | 135° | 106km/h | 7375m | -2.7m/s | -19.1°C | 33.3% | 0hPa | 2.6V | 07:38:00 | 00:00:00 | 00:00:00 | |
| OM5KV | 2026-09-06 04:19:19 | 47.27898 | 15.95314 | 135° | 104km/h | 7383m | -2.8m/s | -19.2°C | 32.7% | 0hPa | 2.6V | 07:39:00 | 00:00:00 | 00:00:00 | |
| PETON7-10 | 2026-09-06 04:19:17 | 47.27953 | 15.95232 | 135° | 100km/h | 7391m | -2.5m/s | -19.1°C | 33.5% | 0hPa | 2.6V | 00:00:00 | 02:30:21 | 00:00:00 | |
| PG1ADW-2 | 2026-09-06 04:19:14 | 47.28008 | 15.95150 | 135° | 99km/h | 7399m | -2.7m/s | -19.2°C | 33.5% | 0hPa | 2.6V | 00:00:00 | 00:00:00 | 00:00:00 | |
| OM5KV | 2026-09-06 04:19:13 | 47.28008 | 15.95150 | 136° | 102km/h | 7399m | -2.8m/s | -19.2°C | 32.3% | 0hPa | 2.6V | 07:39:00 | 00:00:00 | 00:00:00 | |
| OM5KV | 2026-09-06 04:19:08 | 47.28098 | 15.95016 | 136° | 100km/h | 7413m | -2.9m/s | -19.4°C | 32.2% | 0hPa | 2.6V | 07:39:00 | 00:00:00 | 00:00:00 | |
| OM5KV | 2026-09-06 04:19:07 | 47.28117 | 15.94989 | 136° | 102km/h | 7415m | -2.6m/s | -19.4°C | 32.2% | 0hPa | 2.6V | 07:39:00 | 00:00:00 | 00:00:00 | |
| OE3JTB-15 | 2026-09-06 04:19:06 | 47.28152 | 15.94936 | 135° | 95km/h | 7421m | -2.6m/s | -19.4°C | 33.6% | 0hPa | 2.6V | 00:00:00 | 00:00:00 | 00:00:00 | |
| OE5DXL-15 | 2026-09-06 04:19:05 | 47.28170 | 15.94909 | 135° | 95km/h | 7423m | -2.6m/s | -19.4°C | 33.6% | 0hPa | 2.5V | 07:39:00 | 00:00:00 | 00:00:00 | |
| PETON7-10 | 2026-09-06 04:19:02 | 47.28223 | 15.94831 | 135° | 97km/h | 7431m | -2.6m/s | -19.5°C | 33.8% | 0hPa | 2.6V | 07:39:00 | 00:00:00 | 00:00:00 | |
| OE5DRO-10 | 2026-09-06 04:18:58 | 47.28292 | 15.94728 | 135° | 95km/h | 7442m | -2.8m/s | -19.6°C | 34.1% | 0hPa | 2.5V | 00:00:00 | 00:00:00 | 00:00:00 | |
| OM5KV | 2026-09-06 04:18:57 | 47.28292 | 15.94728 | 136° | 97km/h | 7442m | -2.9m/s | -19.7°C | 32.9% | 0hPa | 2.5V | 07:39:00 | 00:00:00 | 00:00:00 | |
| OE8JPQ-2 | 2026-09-06 04:18:56 | 47.28327 | 15.94677 | 135° | 95km/h | 7447m | -2.9m/s | -19.6°C | 34.5% | 0hPa | 2.5V | 07:39:00 | 02:30:00 | 00:00:00 | |
| PG1ADW-2 | 2026-09-06 04:18:54 | 47.28362 | 15.94626 | 135° | 95km/h | 7453m | -2.7m/s | -19.7°C | 34.4% | 0hPa | 2.5V | 00:00:00 | 02:29:58 | 00:00:00 | |
| S52SK | 2026-09-06 04:18:52 | 47.28379 | 15.94600 | 136° | 97km/h | 7456m | -2.8m/s | -19.8°C | 33.4% | 0hPa | 2.5V | 00:00:00 | 00:00:00 | 00:00:00 | |
| OM5KV | 2026-09-06 04:18:48 | 47.28446 | 15.94498 | 135° | 95km/h | 7467m | -2.9m/s | -19.8°C | 33.1% | 0hPa | 2.5V | 07:39:00 | 00:00:00 | 00:00:00 | |
| PETON7-10 | 2026-09-06 04:18:47 | 47.28480 | 15.94448 | 134° | 93km/h | 7472m | -2.8m/s | -19.8°C | 34.4% | 0hPa | 2.5V | 00:00:00 | 00:00:00 | 00:00:00 | |
| S52SK | 2026-09-06 04:18:46 | 47.28479 | 15.94448 | 135° | 95km/h | 7472m | -2.9m/s | -19.9°C | 33.2% | 0hPa | 2.5V | 00:00:00 | 00:00:00 | 00:00:00 | |
| OM5KV | 2026-09-06 04:18:44 | 47.28513 | 15.94397 | 135° | 95km/h | 7478m | -2.7m/s | -19.9°C | 33.3% | 0hPa | 2.5V | 07:39:00 | 00:00:00 | 00:00:00 | |
| OM5KV | 2026-09-06 04:18:41 | 47.28562 | 15.94321 | 135° | 93km/h | 7486m | -2.8m/s | -20.0°C | 33.6% | 0hPa | 2.5V | 07:39:00 | 00:00:00 | 00:00:00 | |
| OM5KV | 2026-09-06 04:18:40 | 47.28579 | 15.94296 | 135° | 93km/h | 7489m | -2.9m/s | -20.0°C | 33.6% | 0hPa | 2.5V | 07:39:00 | 00:00:00 | 00:00:00 | |
| OE5DRO-10 | 2026-09-06 04:18:39 | 47.28612 | 15.94246 | 134° | 93km/h | 7494m | -2.7m/s | -20.0°C | 35.3% | 0hPa | 2.5V | 07:39:00 | 00:00:00 | 00:00:00 | |
| OM5KV | 2026-09-06 04:18:37 | 47.28628 | 15.94221 | 134° | 93km/h | 7497m | -2.7m/s | -20.1°C | 34.2% | 0hPa | 2.5V | 07:39:00 | 00:00:00 | 00:00:00 | |
| OM5KV | 2026-09-06 04:18:36 | 47.28643 | 15.94196 | 133° | 91km/h | 7500m | -2.8m/s | -20.1°C | 34.1% | 0hPa | 2.5V | 07:39:00 | 00:00:00 | 00:00:00 | |
| OE5DXL-15 | 2026-09-06 04:18:35 | 47.28675 | 15.94145 | 132° | 97km/h | 7505m | -2.7m/s | -20.1°C | 35.6% | 0hPa | 2.5V | 00:00:00 | 00:00:00 | 00:00:00 | |
| PG1ADW-2 | 2026-09-06 04:18:34 | 47.28690 | 15.94119 | 132° | 95km/h | 7508m | -2.7m/s | -20.1°C | 35.6% | 0hPa | 2.5V | 00:00:00 | 00:00:00 | 00:00:00 | |
| PETON7-10 | 2026-09-06 04:18:32 | 47.28721 | 15.94068 | 131° | 95km/h | 7513m | -2.5m/s | -20.2°C | 36.0% | 0hPa | 2.5V | 00:00:00 | 02:29:36 | 00:00:00 | |
| OE3JTB-15 | 2026-09-06 04:18:28 | 47.28780 | 15.93961 | 129° | 99km/h | 7524m | -2.8m/s | -20.3°C | 36.4% | 0hPa | 2.5V | 07:39:00 | 00:00:00 | 00:00:00 | |
| S57NTA-12 | 2026-09-06 04:18:27 | 47.28780 | 15.93961 | 129° | 93km/h | 7524m | -2.9m/s | -20.4°C | 35.1% | 0hPa | 2.5V | 07:40:00 | 00:00:00 | 00:00:00 | |
| OM5KV | 2026-09-06 04:18:22 | 47.28853 | 15.93822 | 128° | 95km/h | 7538m | -2.9m/s | -20.5°C | 35.2% | 0hPa | 2.5V | 07:40:00 | 00:00:00 | 00:00:00 | |
| OM5KV | 2026-09-06 04:18:21 | 47.28867 | 15.93793 | 128° | 97km/h | 7541m | -2.8m/s | -20.5°C | 35.1% | 0hPa | 2.5V | 07:40:00 | 00:00:00 | 00:00:00 | |
| OE5DRO-10 | 2026-09-06 04:18:20 | 47.28897 | 15.93736 | 127° | 100km/h | 7547m | -2.8m/s | -20.5°C | 36.1% | 0hPa | 2.5V | 00:00:00 | 00:00:00 | 00:00:00 | |
| OM5KV | 2026-09-06 04:18:18 | 47.28911 | 15.93707 | 128° | 97km/h | 7550m | -2.9m/s | -20.6°C | 34.2% | 0hPa | 2.5V | 07:40:00 | 00:00:00 | 00:00:00 | |
| PETON7-10 | 2026-09-06 04:18:17 | 47.28941 | 15.93649 | 127° | 100km/h | 7555m | -2.8m/s | -20.6°C | 34.6% | 0hPa | 2.5V | 00:00:00 | 00:00:00 | 00:00:00 | |
| OE8JPQ-2 | 2026-09-06 04:18:15 | 47.28971 | 15.93591 | 128° | 102km/h | 7561m | -2.8m/s | -20.6°C | 34.8% | 0hPa | 2.6V | 00:00:00 | 00:00:00 | 00:00:00 | |
| PG1ADW-2 | 2026-09-06 04:18:14 | 47.28986 | 15.93562 | 128° | 102km/h | 7564m | -3.0m/s | -20.7°C | 34.9% | 0hPa | 2.6V | 07:40:00 | 00:00:00 | 00:00:00 | |
| OM5KV | 2026-09-06 04:18:10 | 47.29031 | 15.93473 | 128° | 100km/h | 7572m | -2.9m/s | -20.8°C | 33.5% | 0hPa | 2.6V | 07:40:00 | 00:00:00 | 00:00:00 | |
| S57NTA-12 | 2026-09-06 04:18:06 | 47.29093 | 15.93353 | 129° | 102km/h | 7584m | -3.0m/s | -20.9°C | 33.9% | 0hPa | 2.6V | 07:40:00 | 00:00:00 | 00:00:00 | |
| OE5DXL-15 | 2026-09-06 04:18:05 | 47.29125 | 15.93293 | 129° | 104km/h | 7590m | -3.1m/s | -20.9°C | 35.4% | 0hPa | 2.6V | 00:00:00 | 00:00:00 | 00:00:00 | |
| PETON7-10 | 2026-09-06 04:18:02 | 47.29174 | 15.93202 | 129° | 104km/h | 7599m | -2.9m/s | -21.0°C | 35.5% | 0hPa | 2.6V | 00:00:00 | 00:00:00 | 00:00:00 | |
| OE5DRO-10 | 2026-09-06 04:18:01 | 47.29191 | 15.93172 | 129° | 104km/h | 7602m | -2.9m/s | -21.0°C | 35.8% | 0hPa | 2.6V | 00:00:00 | 00:00:00 | 00:00:00 | |
| OE3JTB-15 | 2026-09-06 04:17:59 | 47.29224 | 15.93111 | 129° | 104km/h | 7608m | -3.0m/s | -21.1°C | 35.8% | 0hPa | 2.6V | 00:00:00 | 02:29:03 | 00:00:00 | |
| OM5KV | 2026-09-06 04:17:58 | 47.29223 | 15.93111 | 130° | 104km/h | 7608m | -3.0m/s | -21.1°C | 34.4% | 0hPa | 2.6V | 07:40:00 | 00:00:00 | 00:00:00 | |
| OE8JPQ-2 | 2026-09-06 04:17:55 | 47.29289 | 15.92990 | 129° | 106km/h | 7620m | -3.0m/s | -21.2°C | 36.1% | 0hPa | 2.6V | 00:00:00 | 02:28:59 | 00:00:00 | |
| PG1ADW-2 | 2026-09-06 04:17:54 | 47.29306 | 15.92960 | 129° | 106km/h | 7623m | -3.0m/s | -21.2°C | 36.1% | 0hPa | 2.6V | 00:00:00 | 00:00:00 | 00:00:00 | |
| OM5KV | 2026-09-06 04:17:48 | 47.29388 | 15.92808 | 130° | 104km/h | 7639m | -3.1m/s | -21.4°C | 35.2% | 0hPa | 2.6V | 07:40:00 | 00:00:00 | 00:00:00 | |
| PETON7-10 | 2026-09-06 04:17:47 | 47.29421 | 15.92747 | 129° | 106km/h | 7645m | -3.0m/s | -21.4°C | 36.7% | 0hPa | 2.6V | 00:00:00 | 02:28:51 | 00:00:00 | |
| S57NTA-12 | 2026-09-06 04:17:46 | 47.29421 | 15.92747 | 129° | 104km/h | 7645m | -3.1m/s | -21.4°C | 35.3% | 0hPa | 2.6V | 07:40:00 | 00:00:00 | 00:00:00 | |
| S52SK | 2026-09-06 04:17:45 | 47.29437 | 15.92717 | 130° | 104km/h | 7648m | -2.9m/s | -21.5°C | 35.5% | 0hPa | 2.6V | 07:40:00 | 00:00:00 | 00:00:00 | |
| OE5DRO-10 | 2026-09-06 04:17:42 | 47.29504 | 15.92595 | 130° | 106km/h | 7659m | -3.0m/s | -21.6°C | 37.2% | 0hPa | 2.6V | 00:00:00 | 00:00:00 | 00:00:00 | |
| OM5KV | 2026-09-06 04:17:41 | 47.29504 | 15.92595 | 131° | 106km/h | 7659m | -3.1m/s | -21.6°C | 35.8% | 0hPa | 2.5V | 07:40:00 | 00:00:00 | 00:00:00 | |
| S52SK | 2026-09-06 04:17:39 | 47.29539 | 15.92534 | 131° | 106km/h | 7665m | -3.1m/s | -21.7°C | 36.1% | 0hPa | 2.5V | 00:00:00 | 00:00:00 | 00:00:00 | |
| OM5KV | 2026-09-06 04:17:36 | 47.29591 | 15.92445 | 132° | 106km/h | 7674m | -3.0m/s | -21.8°C | 36.2% | 0hPa | 2.5V | 07:41:00 | 00:00:00 | 00:00:00 | |
| OE8JPQ-2 | 2026-09-06 04:17:35 | 47.29627 | 15.92386 | 133° | 102km/h | 7680m | -3.0m/s | -21.8°C | 37.8% | 0hPa | 2.5V | 00:00:00 | 00:00:00 | 00:00:00 | |
| PG1ADW-2 | 2026-09-06 04:17:34 | 47.29645 | 15.92356 | 133° | 102km/h | 7683m | -2.9m/s | -21.8°C | 37.7% | 0hPa | 2.5V | 00:00:00 | 02:28:38 | 00:00:00 | |
| PETON7-10 | 2026-09-06 04:17:32 | 47.29681 | 15.92298 | 133° | 102km/h | 7689m | -3.1m/s | -21.9°C | 37.9% | 0hPa | 2.6V | 00:00:00 | 00:00:00 | 00:00:00 | |
| OM5KV | 2026-09-06 04:17:31 | 47.29681 | 15.92298 | 134° | 106km/h | 7689m | -3.1m/s | -21.9°C | 36.4% | 0hPa | 2.6V | 07:41:00 | 00:00:00 | 00:00:00 | |
| OE3JTB-15 | 2026-09-06 04:17:30 | 47.29717 | 15.92241 | 134° | 102km/h | 7695m | -3.1m/s | -21.9°C | 38.1% | 0hPa | 2.6V | 00:00:00 | 00:00:00 | 00:00:00 | |
| S57NTA-12 | 2026-09-06 04:17:25 | 47.29790 | 15.92129 | 135° | 104km/h | 7707m | -3.1m/s | -22.1°C | 36.9% | 0hPa | 2.5V | 07:41:00 | 00:00:00 | 00:00:00 | |
| OM5KV | 2026-09-06 04:17:24 | 47.29809 | 15.92101 | 136° | 102km/h | 7710m | -3.2m/s | -22.1°C | 37.1% | 0hPa | 2.5V | 07:41:00 | 00:00:00 | 00:00:00 | |
| OE5DRO-10 | 2026-09-06 04:17:23 | 47.29845 | 15.92047 | 136° | 97km/h | 7716m | -3.0m/s | -22.1°C | 38.6% | 0hPa | 2.5V | 00:00:00 | 00:00:00 | 00:00:00 | |
| OM5KV | 2026-09-06 04:17:20 | 47.29882 | 15.91994 | 136° | 100km/h | 7722m | -3.0m/s | -22.2°C | 37.1% | 0hPa | 2.5V | 07:41:00 | 00:00:00 | 00:00:00 | |
| OM5KV | 2026-09-06 04:17:19 | 47.29900 | 15.91968 | 136° | 100km/h | 7725m | -3.2m/s | -22.2°C | 37.1% | 0hPa | 2.5V | 07:41:00 | 00:00:00 | 00:00:00 | |
| PETON7-10 | 2026-09-06 04:17:17 | 47.29953 | 15.91889 | 136° | 95km/h | 7735m | -3.1m/s | -22.3°C | 38.8% | 0hPa | 2.5V | 00:00:00 | 00:00:00 | 00:00:00 | |
| OE8JPQ-2 | 2026-09-06 04:17:15 | 47.29988 | 15.91838 | 135° | 95km/h | 7741m | -3.3m/s | -22.3°C | 38.7% | 0hPa | 2.5V | 00:00:00 | 00:00:00 | 00:00:00 | |
| PG1ADW-2 | 2026-09-06 04:17:14 | 47.30006 | 15.91812 | 135° | 93km/h | 7745m | -3.1m/s | -22.3°C | 38.7% | 0hPa | 2.5V | 00:00:00 | 00:00:00 | 00:00:00 | |
| OM5KV | 2026-09-06 04:17:08 | 47.30091 | 15.91685 | 136° | 95km/h | 7761m | -3.4m/s | -22.5°C | 37.2% | 0hPa | 2.5V | 07:41:00 | 00:00:00 | 00:00:00 | |
| OE5DXL-15 | 2026-09-06 04:17:05 | 47.30158 | 15.91586 | 135° | 91km/h | 7774m | -3.3m/s | -22.6°C | 39.1% | 0hPa | 2.5V | 00:00:00 | 00:00:00 | 00:00:00 | |
| OE5DRO-10 | 2026-09-06 04:17:04 | 47.30175 | 15.91560 | 135° | 91km/h | 7777m | -3.3m/s | -22.6°C | 39.1% | 0hPa | 2.5V | 00:00:00 | 00:00:00 | 00:00:00 | |
| PETON7-10 | 2026-09-06 04:17:02 | 47.30208 | 15.91511 | 135° | 91km/h | 7783m | -3.2m/s | -22.7°C | 39.1% | 0hPa | 2.5V | 07:41:00 | 02:28:06 | 00:00:00 | |
| OE3JTB-15 | 2026-09-06 04:17:01 | 47.30225 | 15.91486 | 135° | 91km/h | 7787m | -3.4m/s | -22.7°C | 39.3% | 0hPa | 2.5V | 00:00:00 | 00:00:00 | 00:00:00 | |
| OM5KV | 2026-09-06 04:16:57 | 47.30273 | 15.91412 | 135° | 93km/h | 7797m | -3.3m/s | -22.8°C | 38.0% | 0hPa | 2.5V | 07:41:00 | 00:00:00 | 00:00:00 | |
| OM5KV | 2026-09-06 04:16:56 | 47.30289 | 15.91386 | 134° | 91km/h | 7800m | -3.4m/s | -22.9°C | 38.2% | 0hPa | 2.5V | 07:41:00 | 00:00:00 | 00:00:00 | |
| OE8JPQ-2 | 2026-09-06 04:16:55 | 47.30321 | 15.91337 | 133° | 91km/h | 7807m | -3.5m/s | -22.9°C | 40.1% | 0hPa | 2.5V | 00:00:00 | 02:27:59 | 00:00:00 | |
| PG1ADW-2 | 2026-09-06 04:16:54 | 47.30337 | 15.91312 | 133° | 91km/h | 7810m | -3.4m/s | -22.9°C | 39.9% | 0hPa | 2.5V | 00:00:00 | 00:00:00 | 00:00:00 | |
| OM5KV | 2026-09-06 04:16:51 | 47.30368 | 15.91262 | 134° | 91km/h | 7817m | -3.5m/s | -23.0°C | 38.6% | 0hPa | 2.5V | 07:41:00 | 00:00:00 | 00:00:00 | |
| OM5KV | 2026-09-06 04:16:50 | 47.30384 | 15.91236 | 134° | 91km/h | 7821m | -3.6m/s | -23.0°C | 38.6% | 0hPa | 2.5V | 07:41:00 | 00:00:00 | 00:00:00 | |
| OM5KV | 2026-09-06 04:16:48 | 47.30415 | 15.91186 | 134° | 91km/h | 7828m | -3.5m/s | -23.1°C | 38.8% | 0hPa | 2.5V | 07:42:00 | 00:00:00 | 00:00:00 | |
| PETON7-10 | 2026-09-06 04:16:47 | 47.30446 | 15.91136 | 132° | 89km/h | 7835m | -3.4m/s | -23.1°C | 40.8% | 0hPa | 2.5V | 00:00:00 | 00:00:00 | 00:00:00 | |
| S57NTA-12 | 2026-09-06 04:16:45 | 47.30476 | 15.91086 | 132° | 89km/h | 7842m | -3.5m/s | -23.2°C | 39.2% | 0hPa | 2.5V | 07:42:00 | 00:00:00 | 00:00:00 | |
| OM5KV | 2026-09-06 04:16:44 | 47.30476 | 15.91086 | 132° | 89km/h | 7842m | -3.5m/s | -23.2°C | 39.2% | 0hPa | 2.5V | 07:42:00 | 00:00:00 | 00:00:00 | |
| OM5KV | 2026-09-06 04:16:43 | 47.30491 | 15.91060 | 131° | 89km/h | 7845m | -3.6m/s | -23.3°C | 39.4% | 0hPa | 2.5V | 07:42:00 | 00:00:00 | 00:00:00 | |
| S52SK | 2026-09-06 04:16:38 | 47.30562 | 15.90931 | 129° | 89km/h | 7864m | -3.7m/s | -23.4°C | 39.4% | 0hPa | 2.5V | 00:00:00 | 00:00:00 | 00:00:00 | |
| OE8JPQ-2 | 2026-09-06 04:16:35 | 47.30618 | 15.90824 | 127° | 93km/h | 7878m | -3.7m/s | -23.5°C | 41.4% | 0hPa | 2.5V | 00:00:00 | 00:00:00 | 00:00:00 | |
| PG1ADW-2 | 2026-09-06 04:16:34 | 47.30631 | 15.90796 | 127° | 93km/h | 7882m | -3.6m/s | -23.5°C | 41.4% | 0hPa | 2.6V | 00:00:00 | 00:00:00 | 00:00:00 | |
| OE3OSB-13 | 2026-09-06 04:16:33 | 47.30658 | 15.90741 | 125° | 91km/h | 7889m | -3.7m/s | -23.6°C | 39.5% | -1.0hPa | 2.6V | 00:00:00 | 00:00:00 | 00:00:00 | |
| PETON7-10 | 2026-09-06 04:16:32 | 47.30658 | 15.90741 | 126° | 93km/h | 7889m | -3.6m/s | -23.6°C | 41.2% | 0hPa | 2.6V | 00:00:00 | 00:00:00 | 00:00:00 | |
| OM5KV | 2026-09-06 04:16:31 | 47.30658 | 15.90741 | 127° | 91km/h | 7889m | -3.7m/s | -23.6°C | 39.6% | 0hPa | 2.6V | 07:42:00 | 00:00:00 | 00:00:00 | |
| OE5DRO-10 | 2026-09-06 04:16:26 | 47.30739 | 15.90572 | 125° | 95km/h | 7911m | -3.7m/s | -23.8°C | 41.5% | 0hPa | 2.6V | 00:00:00 | 00:00:00 | 00:00:00 | |
| OE3JTB-15 | 2026-09-06 04:16:24 | 47.30766 | 15.90515 | 125° | 99km/h | 7918m | -3.8m/s | -23.8°C | 41.4% | 0hPa | 2.6V | 00:00:00 | 02:27:28 | 00:00:00 | |
| OM5KV | 2026-09-06 04:16:20 | 47.30807 | 15.90429 | 125° | 93km/h | 7930m | -3.6m/s | -23.9°C | 39.7% | 0hPa | 2.6V | 07:42:00 | 00:00:00 | 00:00:00 | |
| OM5KV | 2026-09-06 04:16:18 | 47.30833 | 15.90371 | 125° | 95km/h | 7937m | -3.7m/s | -24.0°C | 39.1% | 0hPa | 2.6V | 07:42:00 | 00:00:00 | 00:00:00 | |
| PETON7-10 | 2026-09-06 04:16:17 | 47.30860 | 15.90313 | 124° | 99km/h | 7945m | -3.6m/s | -23.9°C | 40.1% | 0hPa | 2.6V | 00:00:00 | 02:27:21 | 00:00:00 | |
| OE3MUC-15 | 2026-09-06 04:16:16 | 47.30873 | 15.90284 | 124° | 95km/h | 7948m | -3.6m/s | -24.0°C | 39.9% | 0hPa | 2.6V | 00:00:00 | 00:00:00 | 00:00:00 | |
| OE8JPQ-2 | 2026-09-06 04:16:15 | 47.30887 | 15.90254 | 124° | 100km/h | 7952m | -3.6m/s | -24.0°C | 39.5% | 0hPa | 2.6V | 07:42:00 | 00:00:00 | 00:00:00 | |
| PG1ADW-2 | 2026-09-06 04:16:14 | 47.30901 | 15.90224 | 124° | 100km/h | 7956m | -3.7m/s | -24.0°C | 39.1% | 0hPa | 2.6V | 00:00:00 | 02:27:18 | 00:00:00 | |
| OE3MUC-15 | 2026-09-06 04:16:12 | 47.30928 | 15.90164 | 124° | 99km/h | 7963m | -3.5m/s | -24.0°C | 38.0% | 0hPa | 2.6V | 00:00:00 | 00:00:00 | 00:00:00 | |
| OM5KV | 2026-09-06 04:16:09 | 47.30956 | 15.90103 | 125° | 99km/h | 7970m | -3.5m/s | -24.1°C | 35.9% | 0hPa | 2.6V | 07:42:00 | 00:00:00 | 00:00:00 | |
| OE3MUC-15 | 2026-09-06 04:16:08 | 47.30985 | 15.90042 | 125° | 100km/h | 7977m | -3.4m/s | -24.1°C | 37.4% | 0hPa | 2.6V | 00:00:00 | 00:00:00 | 00:00:00 | |
| OE5DRO-10 | 2026-09-06 04:16:07 | 47.30999 | 15.90012 | 125° | 100km/h | 7981m | -3.6m/s | -24.2°C | 37.5% | 0hPa | 2.5V | 07:42:00 | 00:00:00 | 00:00:00 | |
| OM5KV | 2026-09-06 04:16:06 | 47.30999 | 15.90012 | 126° | 100km/h | 7981m | -3.6m/s | -24.2°C | 35.8% | 0hPa | 2.5V | 07:42:00 | 00:00:00 | 00:00:00 | |
| OE5DXL-15 | 2026-09-06 04:16:05 | 47.31028 | 15.89950 | 125° | 100km/h | 7988m | -3.5m/s | -24.2°C | 37.2% | 0hPa | 2.5V | 00:00:00 | 00:00:00 | 00:00:00 | |
| OM5KV | 2026-09-06 04:16:03 | 47.31042 | 15.89920 | 126° | 100km/h | 7991m | -3.6m/s | -24.3°C | 35.2% | 0hPa | 2.5V | 07:42:00 | 00:00:00 | 00:00:00 | |
| PETON7-10 | 2026-09-06 04:16:02 | 47.31071 | 15.89858 | 125° | 100km/h | 7999m | -3.7m/s | -24.3°C | 36.4% | 0hPa | 2.5V | 00:00:00 | 00:00:00 | 00:00:00 | |
| OM5KV | 2026-09-06 04:16:00 | 47.31086 | 15.89828 | 126° | 100km/h | 8002m | -3.5m/s | -24.4°C | 34.5% | 0hPa | 2.6V | 07:42:00 | 00:00:00 | 00:00:00 | |
| OM5KV | 2026-09-06 04:15:59 | 47.31100 | 15.89797 | 126° | 100km/h | 8006m | -3.9m/s | -24.4°C | 34.5% | 0hPa | 2.6V | 07:42:00 | 00:00:00 | 00:00:00 | |
| OM5KV | 2026-09-06 04:15:57 | 47.31129 | 15.89736 | 126° | 100km/h | 8013m | -3.7m/s | -24.5°C | 34.7% | 0hPa | 2.6V | 07:43:00 | 00:00:00 | 00:00:00 | |
| OE8JPQ-2 | 2026-09-06 04:15:55 | 47.31173 | 15.89643 | 126° | 102km/h | 8024m | -3.7m/s | -24.5°C | 36.9% | 0hPa | 2.6V | 00:00:00 | 02:26:59 | 00:00:00 | |
| PG1ADW-2 | 2026-09-06 04:15:54 | 47.31188 | 15.89612 | 126° | 102km/h | 8028m | -3.6m/s | -24.5°C | 37.2% | 0hPa | 2.6V | 00:00:00 | 00:00:00 | 00:00:00 | |
| OM5KV | 2026-09-06 04:15:52 | 47.31203 | 15.89582 | 126° | 100km/h | 8031m | -3.7m/s | -24.6°C | 35.5% | 0hPa | 2.6V | 07:43:00 | 00:00:00 | 00:00:00 | |
| OM5KV | 2026-09-06 04:15:51 | 47.31218 | 15.89551 | 126° | 102km/h | 8035m | -3.7m/s | -24.6°C | 35.6% | 0hPa | 2.6V | 07:43:00 | 00:00:00 | 00:00:00 | |
| OE5DRO-10 | 2026-09-06 04:15:48 | 47.31277 | 15.89428 | 126° | 102km/h | 8050m | -3.8m/s | -24.7°C | 37.0% | 0hPa | 2.6V | 00:00:00 | 00:00:00 | 00:00:00 | |
| PETON7-10 | 2026-09-06 04:15:47 | 47.31292 | 15.89398 | 126° | 102km/h | 8053m | -3.4m/s | -24.7°C | 36.9% | 0hPa | 2.6V | 00:00:00 | 00:00:00 | 00:00:00 | |
| OM5KV | 2026-09-06 04:15:46 | 47.31292 | 15.89398 | 126° | 100km/h | 8053m | -3.5m/s | -24.7°C | 35.2% | 0hPa | 2.6V | 07:43:00 | 00:00:00 | 00:00:00 | |
| OM5KV | 2026-09-06 04:15:44 | 47.31321 | 15.89337 | 127° | 100km/h | 8061m | -3.8m/s | -24.8°C | 35.1% | 0hPa | 2.6V | 07:43:00 | 00:00:00 | 00:00:00 | |
| S57NTA-12 | 2026-09-06 04:15:43 | 47.31336 | 15.89306 | 127° | 100km/h | 8065m | -3.8m/s | -24.8°C | 35.2% | 0hPa | 2.6V | 07:43:00 | 00:00:00 | 00:00:00 | |
| OM5KV | 2026-09-06 04:15:42 | 47.31351 | 15.89276 | 127° | 100km/h | 8068m | -3.6m/s | -24.8°C | 35.4% | 0hPa | 2.6V | 07:43:00 | 00:00:00 | 00:00:00 | |
| OM5KV | 2026-09-06 04:15:41 | 47.31366 | 15.89245 | 127° | 102km/h | 8072m | -3.7m/s | -24.9°C | 35.4% | 0hPa | 2.6V | 07:43:00 | 00:00:00 | 00:00:00 | |
| OM5KV | 2026-09-06 04:15:38 | 47.31412 | 15.89154 | 128° | 102km/h | 8083m | -3.9m/s | -25.0°C | 36.3% | 0hPa | 2.6V | 07:43:00 | 00:00:00 | 00:00:00 | |
| OE3JTB-15 | 2026-09-06 04:15:37 | 47.31443 | 15.89092 | 128° | 106km/h | 8091m | -3.8m/s | -25.0°C | 38.4% | 0hPa | 2.6V | 00:00:00 | 00:00:00 | 00:00:00 | |
| OE8JPQ-2 | 2026-09-06 04:15:35 | 47.31475 | 15.89031 | 128° | 106km/h | 8099m | -3.8m/s | -25.1°C | 38.9% | 0hPa | 2.5V | 00:00:00 | 00:00:00 | 00:00:00 | |
| PG1ADW-2 | 2026-09-06 04:15:34 | 47.31491 | 15.89001 | 128° | 106km/h | 8102m | -3.8m/s | -25.1°C | 38.9% | 0hPa | 2.5V | 07:42:00 | 00:00:00 | 00:00:00 | |
| PETON7-10 | 2026-09-06 04:15:32 | 47.31524 | 15.88940 | 129° | 106km/h | 8110m | -3.7m/s | -25.1°C | 39.2% | 0hPa | 2.5V | 00:00:00 | 02:26:36 | 00:00:00 | |
| OE3OSB-13 | 2026-09-06 04:15:31 | 47.31557 | 15.88879 | 129° | 104km/h | 8117m | -4.1m/s | -25.3°C | 37.7% | -1.0hPa | 2.5V | 00:00:00 | 00:00:00 | 00:00:00 | |
| OE5DRO-10 | 2026-09-06 04:15:29 | 47.31574 | 15.88848 | 130° | 106km/h | 8121m | -3.9m/s | -25.2°C | 39.9% | 0hPa | 2.5V | 00:00:00 | 00:00:00 | 00:00:00 | |
| OM5KV | 2026-09-06 04:15:28 | 47.31574 | 15.88848 | 130° | 106km/h | 8121m | -3.9m/s | -25.3°C | 38.1% | 0hPa | 2.5V | 07:43:00 | 00:00:00 | 00:00:00 | |
| S52SK | 2026-09-06 04:15:27 | 47.31591 | 15.88818 | 131° | 106km/h | 8125m | -4.1m/s | -25.3°C | 38.3% | 0hPa | 2.5V | 00:00:00 | 00:00:00 | 00:00:00 | |
| OM5KV | 2026-09-06 04:15:25 | 47.31625 | 15.88758 | 132° | 106km/h | 8133m | -3.9m/s | -25.4°C | 38.7% | 0hPa | 2.5V | 07:43:00 | 00:00:00 | 00:00:00 | |
| OE5WHR-10 | 2026-09-06 04:15:24 | 47.31661 | 15.88698 | 132° | 106km/h | 8141m | -3.7m/s | -25.4°C | 40.5% | 0hPa | 2.5V | 00:00:00 | 00:00:00 | 00:00:00 | |
| OM5KV | 2026-09-06 04:15:23 | 47.31661 | 15.88698 | 132° | 106km/h | 8141m | -3.8m/s | -25.4°C | 38.7% | 0hPa | 2.5V | 07:43:00 | 00:00:00 | 00:00:00 | |
| S52SK | 2026-09-06 04:15:22 | 47.31679 | 15.88668 | 133° | 106km/h | 8145m | -4.0m/s | -25.5°C | 38.9% | 0hPa | 2.5V | 00:00:00 | 00:00:00 | 00:00:00 | |
| OM5KV | 2026-09-06 04:15:19 | 47.31732 | 15.88580 | 133° | 106km/h | 8156m | -4.1m/s | -25.6°C | 39.1% | 0hPa | 2.5V | 07:43:00 | 00:00:00 | 00:00:00 | |
| OM5KV | 2026-09-06 04:15:18 | 47.31751 | 15.88551 | 134° | 106km/h | 8161m | -4.3m/s | -25.6°C | 39.1% | 0hPa | 2.5V | 07:43:00 | 00:00:00 | 00:00:00 | |
| PETON7-10 | 2026-09-06 04:15:17 | 47.31788 | 15.88493 | 134° | 104km/h | 8169m | -3.9m/s | -25.6°C | 41.3% | 0hPa | 2.5V | 00:00:00 | 00:00:00 | 00:00:00 | |
| OM5KV | 2026-09-06 04:15:16 | 47.31788 | 15.88493 | 135° | 106km/h | 8169m | -3.9m/s | -25.7°C | 39.4% | 0hPa | 2.6V | 07:43:00 | 00:00:00 | 00:00:00 | |
| OE8JPQ-2 | 2026-09-06 04:15:15 | 47.31825 | 15.88437 | 135° | 100km/h | 8177m | -4.0m/s | -25.7°C | 41.3% | 0hPa | 2.6V | 00:00:00 | 00:00:00 | 00:00:00 | |
| PG1ADW-2 | 2026-09-06 04:15:14 | 47.31843 | 15.88409 | 135° | 100km/h | 8181m | -4.0m/s | -25.7°C | 41.4% | 0hPa | 2.6V | 00:00:00 | 00:00:00 | 00:00:00 | |
| OM5KV | 2026-09-06 04:15:12 | 47.31862 | 15.88381 | 136° | 104km/h | 8184m | -3.9m/s | -25.8°C | 39.8% | 0hPa | 2.6V | 07:43:00 | 00:00:00 | 00:00:00 | |
| OE5DRO-10 | 2026-09-06 04:15:10 | 47.31918 | 15.88300 | 136° | 99km/h | 8196m | -4.0m/s | -25.9°C | 41.8% | 0hPa | 2.6V | 00:00:00 | 00:00:00 | 00:00:00 | |
| OE3JTB-15 | 2026-09-06 04:15:08 | 47.31955 | 15.88247 | 137° | 95km/h | 8204m | -3.9m/s | -25.9°C | 42.0% | 0hPa | 2.6V | 00:00:00 | 00:00:00 | 00:00:00 | |
| OM5KV | 2026-09-06 04:15:07 | 47.31955 | 15.88247 | 137° | 102km/h | 8204m | -4.0m/s | -26.0°C | 40.1% | 0hPa | 2.6V | 07:43:00 | 00:00:00 | 00:00:00 | |
| OE5DXL-15 | 2026-09-06 04:15:05 | 47.32011 | 15.88168 | 137° | 93km/h | 8216m | -4.0m/s | -26.1°C | 42.6% | 0hPa | 2.6V | 07:43:00 | 00:00:00 | 00:00:00 | |
| OM5KV | 2026-09-06 04:15:04 | 47.32011 | 15.88168 | 137° | 102km/h | 8216m | -4.1m/s | -26.1°C | 40.7% | 0hPa | 2.6V | 07:44:00 | 00:00:00 | 00:00:00 | |
| PETON7-10 | 2026-09-06 04:15:02 | 47.32067 | 15.88091 | 137° | 95km/h | 8229m | -3.9m/s | -26.2°C | 43.3% | 0hPa | 2.6V | 07:43:00 | 00:00:00 | 00:00:00 | |
| OM5KV | 2026-09-06 04:15:01 | 47.32067 | 15.88091 | 138° | 99km/h | 8229m | -4.0m/s | -26.2°C | 41.3% | 0hPa | 2.6V | 07:44:00 | 00:00:00 | 00:00:00 | |
| OE3OSB-13 | 2026-09-06 04:15:00 | 47.32121 | 15.88016 | 136° | 95km/h | 8240m | -3.9m/s | -26.3°C | 41.8% | -1.0hPa | 2.6V | 00:00:00 | 00:00:00 | 00:00:00 | |
| OE3MUC-15 | 2026-09-06 04:14:56 | 47.32172 | 15.87943 | 136° | 93km/h | 8252m | -4.1m/s | -26.4°C | 44.5% | 0hPa | 2.6V | 00:00:00 | 00:00:00 | 00:00:00 | |
| OE8JPQ-2 | 2026-09-06 04:14:55 | 47.32189 | 15.87918 | 135° | 93km/h | 8256m | -3.9m/s | -26.5°C | 44.6% | 0hPa | 2.6V | 00:00:00 | 02:25:59 | 00:00:00 | |
| PG1ADW-2 | 2026-09-06 04:14:54 | 47.32205 | 15.87893 | 135° | 93km/h | 8260m | -4.1m/s | -26.5°C | 45.1% | 0hPa | 2.6V | 00:00:00 | 02:25:58 | 00:00:00 | |
| OM5KV | 2026-09-06 04:14:53 | 47.32206 | 15.87894 | 135° | 93km/h | 8260m | -4.1m/s | -26.6°C | 43.0% | 0hPa | 2.6V | 07:44:00 | 00:00:00 | 00:00:00 | |
| OE3MUC-15 | 2026-09-06 04:14:51 | 47.32254 | 15.87819 | 134° | 93km/h | 8272m | -3.9m/s | -26.6°C | 45.1% | 0hPa | 2.6V | 07:43:00 | 00:00:00 | 00:00:00 | |
| OM5KV | 2026-09-06 04:14:48 | 47.32287 | 15.87770 | 135° | 91km/h | 8280m | -4.1m/s | -26.7°C | 43.7% | 0hPa | 2.6V | 07:44:00 | 00:00:00 | 00:00:00 | |
| PETON7-10 | 2026-09-06 04:14:47 | 47.32319 | 15.87721 | 134° | 93km/h | 8288m | -4.1m/s | -26.8°C | 46.1% | 0hPa | 2.6V | 00:00:00 | 02:25:51 | 00:00:00 | |
| S57NTA-12 | 2026-09-06 04:14:41 | 47.32399 | 15.87597 | 134° | 91km/h | 8308m | -4.1m/s | -27.0°C | 44.7% | 0hPa | 2.6V | 07:44:00 | 00:00:00 | 00:00:00 | |
| OM5KV | 2026-09-06 04:14:37 | 47.32463 | 15.87496 | 134° | 91km/h | 8325m | -4.3m/s | -27.2°C | 45.5% | 0hPa | 2.6V | 07:44:00 | 00:00:00 | 00:00:00 | |
| OM5KV | 2026-09-06 04:14:36 | 47.32479 | 15.87471 | 134° | 93km/h | 8329m | -4.2m/s | -27.2°C | 45.4% | 0hPa | 2.6V | 07:44:00 | 00:00:00 | 00:00:00 | |
| OE3MUC-15 | 2026-09-06 04:14:35 | 47.32510 | 15.87421 | 133° | 93km/h | 8337m | -4.0m/s | -27.2°C | 47.5% | 0hPa | 2.6V | 00:00:00 | 00:00:00 | 00:00:00 | |
| PG1ADW-2 | 2026-09-06 04:14:34 | 47.32526 | 15.87395 | 133° | 95km/h | 8341m | -4.1m/s | -27.2°C | 47.4% | 0hPa | 2.6V | 00:00:00 | 00:00:00 | 00:00:00 | |
| PETON7-10 | 2026-09-06 04:14:32 | 47.32558 | 15.87344 | 132° | 93km/h | 8349m | -4.0m/s | -27.3°C | 46.9% | 0hPa | 2.5V | 00:00:00 | 00:00:00 | 00:00:00 | |
| OE3MUC-15 | 2026-09-06 04:14:31 | 47.32573 | 15.87318 | 132° | 93km/h | 8353m | -4.0m/s | -27.3°C | 47.3% | 0hPa | 2.6V | 00:00:00 | 00:00:00 | 00:00:00 | |
| OE3OSB-13 | 2026-09-06 04:14:29 | 47.32620 | 15.87241 | 131° | 91km/h | 8365m | -4.1m/s | -27.5°C | 45.0% | -1.0hPa | 2.6V | 00:00:00 | 00:00:00 | 00:00:00 | |
| OE3MUC-15 | 2026-09-06 04:14:27 | 47.32636 | 15.87215 | 131° | 93km/h | 8369m | -4.0m/s | -27.4°C | 46.9% | 0hPa | 2.6V | 00:00:00 | 00:00:00 | 00:00:00 | |
| OM5KV | 2026-09-06 04:14:26 | 47.32635 | 15.87214 | 132° | 93km/h | 8369m | -4.0m/s | -27.5°C | 44.7% | 0hPa | 2.6V | 07:44:00 | 00:00:00 | 00:00:00 | |
| S52SK | 2026-09-06 04:14:25 | 47.32651 | 15.87188 | 132° | 93km/h | 8373m | -4.0m/s | -27.5°C | 44.4% | 0hPa | 2.6V | 07:44:00 | 00:00:00 | 00:00:00 | |
| OE3MUC-15 | 2026-09-06 04:14:23 | 47.32697 | 15.87109 | 130° | 95km/h | 8386m | -4.2m/s | -27.6°C | 45.7% | 0hPa | 2.6V | 00:00:00 | 00:00:00 | 00:00:00 | |
| S57NTA-12 | 2026-09-06 04:14:21 | 47.32712 | 15.87082 | 130° | 95km/h | 8390m | -4.1m/s | -27.6°C | 43.3% | 0hPa | 2.5V | 07:44:00 | 00:00:00 | 00:00:00 | |
| OE3MUC-15 | 2026-09-06 04:14:19 | 47.32757 | 15.86999 | 129° | 97km/h | 8402m | -4.0m/s | -27.7°C | 45.2% | 0hPa | 2.5V | 07:44:00 | 00:00:00 | 00:00:00 | |
| OM5KV | 2026-09-06 04:14:18 | 47.32757 | 15.86999 | 129° | 97km/h | 8402m | -4.0m/s | -27.7°C | 43.1% | 0hPa | 2.5V | 07:44:00 | 00:00:00 | 00:00:00 | |
| PETON7-10 | 2026-09-06 04:14:17 | 47.32787 | 15.86942 | 128° | 102km/h | 8410m | -4.0m/s | -27.7°C | 45.2% | 0hPa | 2.5V | 00:00:00 | 00:00:00 | 00:00:00 | |
| OE8JPQ-2 | 2026-09-06 04:14:15 | 47.32817 | 15.86884 | 128° | 104km/h | 8418m | -3.9m/s | -27.8°C | 44.9% | 0hPa | 2.5V | 00:00:00 | 00:00:00 | 00:00:00 | |
| PG1ADW-2 | 2026-09-06 04:14:14 | 47.32833 | 15.86854 | 128° | 104km/h | 8422m | -4.0m/s | -27.8°C | 44.7% | 0hPa | 2.5V | 00:00:00 | 00:00:00 | 00:00:00 | |
| OE5DRO-10 | 2026-09-06 04:14:13 | 47.32848 | 15.86824 | 128° | 104km/h | 8426m | -4.0m/s | -27.9°C | 44.1% | 0hPa | 2.5V | 00:00:00 | 00:00:00 | 00:00:00 | |
| OE3MUC-15 | 2026-09-06 04:14:11 | 47.32880 | 15.86764 | 128° | 102km/h | 8434m | -4.2m/s | -27.9°C | 42.3% | 0hPa | 2.5V | 00:00:00 | 00:00:00 | 00:00:00 | |
| OE3JTB-15 | 2026-09-06 04:14:10 | 47.32896 | 15.86734 | 128° | 106km/h | 8438m | -4.1m/s | -27.9°C | 41.8% | 0hPa | 2.6V | 07:44:00 | 00:00:00 | 00:00:00 | |
| OM5KV | 2026-09-06 04:14:08 | 47.32912 | 15.86704 | 129° | 102km/h | 8442m | -4.3m/s | -28.0°C | 39.6% | 0hPa | 2.5V | 07:44:00 | 00:00:00 | 00:00:00 | |
| OE3MUC-15 | 2026-09-06 04:14:07 | 47.32944 | 15.86644 | 129° | 104km/h | 8451m | -4.1m/s | -28.0°C | 41.3% | 0hPa | 2.5V | 00:00:00 | 00:00:00 | 00:00:00 | |
| OE5DXL-15 | 2026-09-06 04:14:05 | 47.32977 | 15.86583 | 129° | 106km/h | 8459m | -4.1m/s | -28.0°C | 41.0% | 0hPa | 2.5V | 00:00:00 | 00:00:00 | 00:00:00 | |
| OM5KV | 2026-09-06 04:14:03 | 47.32994 | 15.86552 | 130° | 106km/h | 8463m | -4.0m/s | -28.1°C | 39.0% | 0hPa | 2.5V | 07:44:00 | 00:00:00 | 00:00:00 | |
| PETON7-10 | 2026-09-06 04:14:02 | 47.33027 | 15.86491 | 129° | 106km/h | 8471m | -4.1m/s | -28.1°C | 41.0% | 0hPa | 2.5V | 00:00:00 | 02:25:06 | 00:00:00 | |
| S57NTA-12 | 2026-09-06 04:14:01 | 47.33027 | 15.86491 | 130° | 106km/h | 8471m | -4.1m/s | -28.2°C | 38.9% | 0hPa | 2.5V | 07:44:00 | 00:00:00 | 00:00:00 | |
| OM5KV | 2026-09-06 04:14:00 | 47.33044 | 15.86460 | 130° | 106km/h | 8475m | -4.1m/s | -28.2°C | 38.8% | 0hPa | 2.5V | 07:44:00 | 00:00:00 | 00:00:00 | |
| OE3MUC-15 | 2026-09-06 04:13:58 | 47.33095 | 15.86369 | 130° | 106km/h | 8487m | -4.1m/s | -28.3°C | 41.0% | 0hPa | 2.5V | 00:00:00 | 00:00:00 | 00:00:00 | |
| OE5WHR-10 | 2026-09-06 04:13:57 | 47.33112 | 15.86338 | 130° | 106km/h | 8492m | -4.1m/s | -28.3°C | 40.9% | 0hPa | 2.6V | 00:00:00 | 02:25:01 | 00:00:00 | |
| OM5KV | 2026-09-06 04:13:56 | 47.33112 | 15.86338 | 130° | 106km/h | 8492m | -4.1m/s | -28.3°C | 38.8% | 0hPa | 2.6V | 07:44:00 | 00:00:00 | 00:00:00 | |
| OE8JPQ-2 | 2026-09-06 04:13:55 | 47.33146 | 15.86277 | 130° | 108km/h | 8500m | -4.1m/s | -28.4°C | 41.0% | 0hPa | 2.6V | 00:00:00 | 02:24:59 | 00:00:00 | |
| PG1ADW-2 | 2026-09-06 04:13:54 | 47.33163 | 15.86247 | 130° | 108km/h | 8504m | -4.1m/s | -28.4°C | 41.1% | 0hPa | 2.6V | 00:00:00 | 00:00:00 | 00:00:00 | |
| OM5KV | 2026-09-06 04:13:53 | 47.33163 | 15.86247 | 131° | 106km/h | 8504m | -4.2m/s | -28.5°C | 39.0% | 0hPa | 2.6V | 07:44:00 | 00:00:00 | 00:00:00 | |
| OM5KV | 2026-09-06 04:13:52 | 47.33180 | 15.86216 | 131° | 106km/h | 8508m | -4.1m/s | -28.5°C | 38.9% | 0hPa | 2.6V | 07:44:00 | 00:00:00 | 00:00:00 | |
| OE3MUC-15 | 2026-09-06 04:13:50 | 47.33233 | 15.86125 | 131° | 108km/h | 8520m | -4.1m/s | -28.6°C | 41.2% | 0hPa | 2.6V | 00:00:00 | 00:00:00 | 00:00:00 | |
| OM5KV | 2026-09-06 04:13:49 | 47.33233 | 15.86125 | 132° | 108km/h | 8520m | -4.2m/s | -28.6°C | 39.1% | 0hPa | 2.6V | 07:44:00 | 00:00:00 | 00:00:00 | |
| PETON7-10 | 2026-09-06 04:13:47 | 47.33287 | 15.86035 | 133° | 106km/h | 8533m | -4.2m/s | -28.6°C | 41.0% | 0hPa | 2.6V | 00:00:00 | 00:00:00 | 00:00:00 | |
| OE3MUC-15 | 2026-09-06 04:13:46 | 47.33305 | 15.86005 | 133° | 108km/h | 8537m | -4.0m/s | -28.7°C | 41.0% | 0hPa | 2.6V | 00:00:00 | 00:00:00 | 00:00:00 | |
| OE3JTB-15 | 2026-09-06 04:13:41 | 47.33400 | 15.85861 | 136° | 102km/h | 8557m | -4.0m/s | -28.8°C | 40.3% | 0hPa | 2.6V | 00:00:00 | 00:00:00 | 00:00:00 | |
| S57NTA-12 | 2026-09-06 04:13:40 | 47.33399 | 15.85861 | 136° | 108km/h | 8557m | -4.0m/s | -28.9°C | 38.2% | 0hPa | 2.6V | 07:44:00 | 00:00:00 | 00:00:00 | |
| OM5KV | 2026-09-06 04:13:36 | 47.33477 | 15.85749 | 137° | 106km/h | 8573m | -4.1m/s | -29.0°C | 38.4% | 0hPa | 2.6V | 07:44:00 | 00:00:00 | 00:00:00 | |
| OE8JPQ-2 | 2026-09-06 04:13:35 | 47.33515 | 15.85695 | 137° | 102km/h | 8581m | -4.2m/s | -29.1°C | 40.8% | 0hPa | 2.6V | 07:44:00 | 00:00:00 | 00:00:00 | |
| PG1ADW-2 | 2026-09-06 04:13:34 | 47.33535 | 15.85668 | 137° | 102km/h | 8585m | -4.1m/s | -29.1°C | 40.9% | 0hPa | 2.6V | 00:00:00 | 02:24:38 | 00:00:00 | |
| OM5KV | 2026-09-06 04:13:33 | 47.33535 | 15.85668 | 138° | 106km/h | 8585m | -4.2m/s | -29.1°C | 38.7% | 0hPa | 2.5V | 07:44:00 | 00:00:00 | 00:00:00 | |
| PETON7-10 | 2026-09-06 04:13:32 | 47.33573 | 15.85614 | 137° | 102km/h | 8594m | -4.1m/s | -29.2°C | 41.0% | 0hPa | 2.5V | 00:00:00 | 00:00:00 | 00:00:00 | |
| OE5WHR-10 | 2026-09-06 04:13:30 | 47.33612 | 15.85561 | 137° | 102km/h | 8602m | -4.1m/s | -29.2°C | 40.9% | 0hPa | 2.5V | 00:00:00 | 00:00:00 | 00:00:00 | |
| OE3OSB-13 | 2026-09-06 04:13:27 | 47.33689 | 15.85454 | 136° | 102km/h | 8618m | -4.1m/s | -29.4°C | 38.6% | -1.0hPa | 2.5V | 00:00:00 | 00:00:00 | 00:00:00 | |
| OM5KV | 2026-09-06 04:13:22 | 47.33746 | 15.85376 | 138° | 102km/h | 8630m | -4.1m/s | -29.5°C | 38.3% | 0hPa | 2.5V | 07:45:00 | 00:00:00 | 00:00:00 | |
| OM5KV | 2026-09-06 04:13:19 | 47.33802 | 15.85300 | 139° | 100km/h | 8642m | -4.0m/s | -29.6°C | 38.0% | 0hPa | 2.5V | 07:45:00 | 00:00:00 | 00:00:00 | |
| OE3MUC-15 | 2026-09-06 04:13:18 | 47.33840 | 15.85250 | 138° | 100km/h | 8651m | -4.1m/s | -29.6°C | 40.1% | 0hPa | 2.5V | 00:00:00 | 00:00:00 | 00:00:00 | |
| PETON7-10 | 2026-09-06 04:13:17 | 47.33858 | 15.85225 | 138° | 99km/h | 8654m | -4.0m/s | -29.6°C | 40.3% | 0hPa | 2.5V | 00:00:00 | 02:24:21 | 00:00:00 | |
| OE5DRO-10 | 2026-09-06 04:13:16 | 47.33877 | 15.85200 | 138° | 97km/h | 8658m | -4.1m/s | -29.6°C | 40.2% | 0hPa | 2.5V | 00:00:00 | 00:00:00 | 00:00:00 | |
| OE8JPQ-2 | 2026-09-06 04:13:15 | 47.33896 | 15.85175 | 138° | 97km/h | 8663m | -3.9m/s | -29.7°C | 40.1% | 0hPa | 2.5V | 00:00:00 | 00:00:00 | 00:00:00 | |
| OE3MUC-15 | 2026-09-06 04:13:14 | 47.33915 | 15.85150 | 138° | 100km/h | 8667m | -4.2m/s | -29.7°C | 40.3% | 0hPa | 2.5V | 00:00:00 | 00:00:00 | 00:00:00 | |
| OM5KV | 2026-09-06 04:13:13 | 47.33914 | 15.85150 | 139° | 100km/h | 8667m | -4.3m/s | -29.8°C | 38.0% | 0hPa | 2.5V | 07:45:00 | 00:00:00 | 00:00:00 | |
| OE3JTB-15 | 2026-09-06 04:13:12 | 47.33952 | 15.85100 | 138° | 95km/h | 8675m | -4.1m/s | -29.8°C | 40.0% | 0hPa | 2.5V | 00:00:00 | 02:24:16 | 00:00:00 | |
| OM5KV | 2026-09-06 04:13:11 | 47.33952 | 15.85100 | 139° | 100km/h | 8675m | -4.1m/s | -29.9°C | 37.8% | 0hPa | 2.5V | 07:45:00 | 00:00:00 | 00:00:00 | |
| OE3MUC-15 | 2026-09-06 04:13:10 | 47.33989 | 15.85050 | 138° | 97km/h | 8683m | -4.0m/s | -29.9°C | 40.0% | 0hPa | 2.5V | 07:45:00 | 00:00:00 | 00:00:00 | |
| OM5KV | 2026-09-06 04:13:08 | 47.34008 | 15.85025 | 139° | 99km/h | 8687m | -3.9m/s | -30.0°C | 38.0% | 0hPa | 2.5V | 07:45:00 | 00:00:00 | 00:00:00 | |
| OE5DXL-15 | 2026-09-06 04:13:05 | 47.34080 | 15.84927 | 138° | 93km/h | 8703m | -3.9m/s | -30.1°C | 40.5% | 0hPa | 2.5V | 00:00:00 | 00:00:00 | 00:00:00 | |
| OE3MUC-15 | 2026-09-06 04:13:04 | 47.34098 | 15.84903 | 138° | 95km/h | 8707m | -3.9m/s | -30.1°C | 40.5% | 0hPa | 2.5V | 00:00:00 | 00:00:00 | 00:00:00 | |
| OE3MUC-15 | 2026-09-06 04:13:00 | 47.34169 | 15.84806 | 137° | 95km/h | 8723m | -4.1m/s | -30.3°C | 41.1% | 0hPa | 2.5V | 00:00:00 | 00:00:00 | 00:00:00 | |
| S57NTA-12 | 2026-09-06 04:12:58 | 47.34186 | 15.84782 | 138° | 95km/h | 8727m | -4.1m/s | -30.4°C | 38.9% | 0hPa | 2.5V | 07:45:00 | 00:00:00 | 00:00:00 | |
| OE5DRO-10 | 2026-09-06 04:12:57 | 47.34222 | 15.84733 | 138° | 93km/h | 8736m | -4.0m/s | -30.4°C | 41.5% | 0hPa | 2.5V | 00:00:00 | 00:00:00 | 00:00:00 | |
| OE3MUC-15 | 2026-09-06 04:12:56 | 47.34239 | 15.84709 | 137° | 95km/h | 8740m | -4.1m/s | -30.5°C | 41.7% | 0hPa | 2.6V | 00:00:00 | 00:00:00 | 00:00:00 | |
| PG1ADW-2 | 2026-09-06 04:12:54 | 47.34274 | 15.84661 | 137° | 91km/h | 8748m | -4.1m/s | -30.5°C | 41.8% | 0hPa | 2.6V | 07:45:00 | 00:00:00 | 00:00:00 | |
| OE8JPQ-2 | 2026-09-06 04:12:53 | 47.34292 | 15.84636 | 137° | 91km/h | 8752m | -4.2m/s | -30.6°C | 42.1% | 0hPa | 2.6V | 00:00:00 | 02:23:57 | 00:00:00 | |
| OM5KV | 2026-09-06 04:12:52 | 47.34291 | 15.84636 | 137° | 95km/h | 8752m | -4.3m/s | -30.6°C | 0% | 0hPa | 2.6V | 07:45:00 | 00:00:00 | 00:00:00 | |
| OE3MUC-15 | 2026-09-06 04:12:47 | 47.34392 | 15.84490 | 135° | 91km/h | 8777m | -3.9m/s | -30.8°C | 42.6% | 0hPa | 2.6V | 00:00:00 | 00:00:00 | 00:00:00 | |
| OM5KV | 2026-09-06 04:12:46 | 47.34392 | 15.84491 | 135° | 93km/h | 8777m | -4.0m/s | -30.9°C | 0% | 0hPa | 2.6V | 07:45:00 | 00:00:00 | 00:00:00 | |
| OM5KV | 2026-09-06 04:12:45 | 47.34408 | 15.84466 | 135° | 91km/h | 8781m | -4.2m/s | -30.9°C | 40.5% | 0hPa | 2.6V | 07:45:00 | 00:00:00 | 00:00:00 | |
| OE3MUC-15 | 2026-09-06 04:12:43 | 47.34456 | 15.84392 | 134° | 91km/h | 8793m | -4.2m/s | -31.0°C | 43.3% | 0hPa | 2.6V | 00:00:00 | 00:00:00 | 00:00:00 | |
| OM5KV | 2026-09-06 04:12:42 | 47.34456 | 15.84392 | 134° | 91km/h | 8793m | -4.3m/s | -31.0°C | 40.9% | 0hPa | 2.6V | 07:45:00 | 00:00:00 | 00:00:00 | |
| OM5KV | 2026-09-06 04:12:41 | 47.34472 | 15.84367 | 134° | 91km/h | 8797m | -4.1m/s | 0°C | 0% | 0hPa | 2.6V | 07:45:00 | 00:00:00 | 00:00:00 | |
| OE3MUC-15 | 2026-09-06 04:12:39 | 47.34519 | 15.84292 | 133° | 91km/h | 8810m | -4.1m/s | -31.1°C | 43.6% | 0hPa | 2.6V | 00:00:00 | 00:00:00 | 00:00:00 | |
| OE5DRO-10 | 2026-09-06 04:12:38 | 47.34535 | 15.84267 | 133° | 91km/h | 8814m | -4.2m/s | -31.2°C | 43.9% | 0hPa | 2.5V | 00:00:00 | 00:00:00 | 00:00:00 | |
| OM5KV | 2026-09-06 04:12:37 | 47.34535 | 15.84267 | 134° | 91km/h | 8814m | -4.3m/s | -31.2°C | 41.4% | 0hPa | 2.5V | 07:45:00 | 00:00:00 | 00:00:00 | |
| OE5DXL-15 | 2026-09-06 04:12:35 | 47.34582 | 15.84192 | 133° | 95km/h | 8826m | -4.3m/s | -31.3°C | 44.1% | 0hPa | 2.5V | 00:00:00 | 00:00:00 | 00:00:00 | |
| PG1ADW-2 | 2026-09-06 04:12:34 | 47.34598 | 15.84167 | 133° | 93km/h | 8831m | -4.0m/s | -31.3°C | 44.1% | 0hPa | 2.5V | 00:00:00 | 00:00:00 | 00:00:00 | |
| PETON7-10 | 2026-09-06 04:12:32 | 47.34629 | 15.84117 | 133° | 93km/h | 8839m | -4.1m/s | -31.4°C | 44.5% | 0hPa | 2.6V | 00:00:00 | 02:23:36 | 00:00:00 | |
| OE3MUC-15 | 2026-09-06 04:12:31 | 47.34645 | 15.84092 | 133° | 91km/h | 8843m | -4.1m/s | -31.5°C | 44.7% | 0hPa | 2.6V | 00:00:00 | 00:00:00 | 00:00:00 | |
| OM5KV | 2026-09-06 04:12:29 | 47.34660 | 15.84067 | 133° | 91km/h | 8847m | -4.2m/s | 0°C | 0% | 0hPa | 2.6V | 00:00:00 | 00:00:00 | 00:00:00 | |
| OE3MUC-15 | 2026-09-06 04:12:27 | 47.34706 | 15.83990 | 132° | 93km/h | 8860m | -4.2m/s | -31.6°C | 45.4% | 0hPa | 2.6V | 00:00:00 | 00:00:00 | 00:00:00 | |
| OE3OSB-13 | 2026-09-06 04:12:25 | 47.34752 | 15.83911 | 129° | 91km/h | 8872m | -4.1m/s | -31.8°C | 42.8% | -1.0hPa | 2.5V | 00:00:00 | 00:00:00 | 00:00:00 | |
| OE3MUC-15 | 2026-09-06 04:12:23 | 47.34767 | 15.83884 | 130° | 93km/h | 8877m | -4.0m/s | -31.8°C | 45.4% | 0hPa | 2.5V | 00:00:00 | 02:23:27 | 00:00:00 | |
| OE3MUC-15 | 2026-09-06 04:12:19 | 47.34827 | 15.83776 | 130° | 95km/h | 8893m | -4.0m/s | -31.9°C | 45.2% | 0hPa | 2.5V | 00:00:00 | 00:00:00 | 00:00:00 | |
| OM5KV | 2026-09-06 04:12:18 | 47.34827 | 15.83776 | 130° | 95km/h | 8893m | -4.1m/s | 0°C | 0% | 0hPa | 2.5V | 00:00:00 | 00:00:00 | 00:00:00 | |
| S57NTA-12 | 2026-09-06 04:12:17 | 47.34843 | 15.83749 | 130° | 95km/h | 8897m | -4.1m/s | -32.0°C | 42.4% | 0hPa | 2.5V | 07:46:00 | 00:00:00 | 00:00:00 | |
| OE3MUC-15 | 2026-09-06 04:12:15 | 47.34888 | 15.83666 | 129° | 99km/h | 8909m | -4.1m/s | -32.0°C | 44.2% | 0hPa | 2.5V | 00:00:00 | 00:00:00 | 00:00:00 | |
| OE3JTB-15 | 2026-09-06 04:12:14 | 47.34903 | 15.83637 | 129° | 104km/h | 8913m | -4.0m/s | -32.1°C | 43.9% | 0hPa | 2.5V | 00:00:00 | 00:00:00 | 00:00:00 | |
| OE3MUC-15 | 2026-09-06 04:12:11 | 47.34949 | 15.83551 | 129° | 100km/h | 8926m | -4.2m/s | -32.2°C | 43.9% | 0hPa | 2.5V | 00:00:00 | 00:00:00 | 00:00:00 | |
| OE3MUC-15 | 2026-09-06 04:12:07 | 47.35013 | 15.83433 | 129° | 102km/h | 8942m | -4.2m/s | -32.3°C | 44.3% | 0hPa | 2.5V | 00:00:00 | 00:00:00 | 00:00:00 | |
| OM5KV | 2026-09-06 04:12:06 | 47.35013 | 15.83433 | 129° | 102km/h | 8942m | -4.2m/s | -32.4°C | 41.6% | 0hPa | 2.5V | 07:46:00 | 00:00:00 | 00:00:00 | |
| OE5DXL-15 | 2026-09-06 04:12:05 | 47.35045 | 15.83373 | 129° | 106km/h | 8950m | -4.1m/s | -32.4°C | 44.5% | 0hPa | 2.5V | 00:00:00 | 00:00:00 | 00:00:00 | |
| PETON7-10 | 2026-09-06 04:12:02 | 47.35094 | 15.83283 | 129° | 106km/h | 8963m | -4.3m/s | -32.5°C | 45.2% | 0hPa | 2.5V | 00:00:00 | 00:00:00 | 00:00:00 | |
| OM5KV | 2026-09-06 04:12:01 | 47.35094 | 15.83283 | 130° | 104km/h | 8963m | -4.3m/s | -32.6°C | 42.5% | 0hPa | 2.5V | 07:46:00 | 00:00:00 | 00:00:00 | |
| OE5DRO-10 | 2026-09-06 04:12:00 | 47.35127 | 15.83222 | 129° | 106km/h | 8971m | -4.4m/s | -32.6°C | 45.3% | 0hPa | 2.5V | 00:00:00 | 00:00:00 | 00:00:00 | |
| OE8JPQ-2 | 2026-09-06 04:11:59 | 47.35144 | 15.83192 | 129° | 108km/h | 8976m | -4.3m/s | -32.6°C | 45.7% | 0hPa | 2.5V | 00:00:00 | 00:00:00 | 00:00:00 | |
| OM5KV | 2026-09-06 04:11:57 | 47.35160 | 15.83161 | 130° | 106km/h | 8980m | -4.4m/s | -32.7°C | 42.9% | 0hPa | 2.5V | 07:46:00 | 00:00:00 | 00:00:00 | |
| OE5WHR-10 | 2026-09-06 04:11:56 | 47.35194 | 15.83100 | 129° | 108km/h | 8989m | -4.3m/s | -32.7°C | 45.5% | 0hPa | 2.5V | 00:00:00 | 00:00:00 | 00:00:00 | |
| OE3MUC-15 | 2026-09-06 04:11:55 | 47.35211 | 15.83069 | 129° | 106km/h | 8993m | -4.3m/s | -32.8°C | 45.8% | 0hPa | 2.5V | 00:00:00 | 00:00:00 | 00:00:00 | |
| PG1ADW-2 | 2026-09-06 04:11:54 | 47.35227 | 15.83039 | 129° | 108km/h | 8998m | -4.4m/s | -32.8°C | 45.6% | 0hPa | 2.5V | 00:00:00 | 00:00:00 | 00:00:00 | |
| S52SK | 2026-09-06 04:11:53 | 47.35227 | 15.83039 | 130° | 106km/h | 8998m | -4.4m/s | -32.9°C | 42.9% | 0hPa | 2.5V | 00:00:00 | 00:00:00 | 00:00:00 | |
| OE3MUC-15 | 2026-09-06 04:11:51 | 47.35278 | 15.82947 | 129° | 106km/h | 9010m | -4.2m/s | -32.9°C | 45.0% | 0hPa | 2.5V | 00:00:00 | 00:00:00 | 00:00:00 | |
| OM5KV | 2026-09-06 04:11:50 | 47.35278 | 15.82947 | 130° | 106km/h | 9010m | -4.2m/s | -33.0°C | 42.3% | 0hPa | 2.5V | 07:46:00 | 00:00:00 | 00:00:00 | |
| PETON7-10 | 2026-09-06 04:11:47 | 47.35345 | 15.82824 | 130° | 110km/h | 9028m | -4.1m/s | -33.0°C | 44.8% | 0hPa | 2.5V | 00:00:00 | 02:22:51 | 00:00:00 | |
| OE3JTB-15 | 2026-09-06 04:11:45 | 47.35380 | 15.82762 | 130° | 111km/h | 9036m | -4.4m/s | -33.1°C | 44.7% | 0hPa | 2.5V | 00:00:00 | 02:22:49 | 00:00:00 | |
| OE3MUC-15 | 2026-09-06 04:11:43 | 47.35414 | 15.82700 | 130° | 110km/h | 9045m | -4.4m/s | -33.1°C | 43.9% | 0hPa | 2.5V | 00:00:00 | 00:00:00 | 00:00:00 | |
| OE5DRO-10 | 2026-09-06 04:11:41 | 47.35449 | 15.82637 | 130° | 111km/h | 9053m | -4.4m/s | -33.2°C | 43.0% | 0hPa | 2.5V | 00:00:00 | 00:00:00 | 00:00:00 | |
| OM5KV | 2026-09-06 04:11:39 | 47.35467 | 15.82606 | 131° | 110km/h | 9058m | -4.3m/s | -33.3°C | 39.9% | 0hPa | 2.5V | 07:47:00 | 00:00:00 | 00:00:00 | |
| S57NTA-12 | 2026-09-06 04:11:36 | 47.35521 | 15.82511 | 131° | 111km/h | 9071m | -4.3m/s | -33.3°C | 39.5% | 0hPa | 2.5V | 07:47:00 | 00:00:00 | 00:00:00 | |
| OE5WHR-10 | 2026-09-06 04:11:35 | 47.35558 | 15.82448 | 131° | 111km/h | 9079m | -4.3m/s | -33.4°C | 42.5% | 0hPa | 2.5V | 00:00:00 | 02:22:39 | 00:00:00 | |
| PG1ADW-2 | 2026-09-06 04:11:34 | 47.35576 | 15.82417 | 131° | 111km/h | 9084m | -4.3m/s | -33.4°C | 42.2% | 0hPa | 2.5V | 00:00:00 | 00:00:00 | 00:00:00 | |
| OM5KV | 2026-09-06 04:11:33 | 47.35576 | 15.82417 | 132° | 111km/h | 9084m | -4.3m/s | -33.4°C | 39.5% | 0hPa | 2.5V | 07:47:00 | 00:00:00 | 00:00:00 | |
| PETON7-10 | 2026-09-06 04:11:32 | 47.35613 | 15.82354 | 132° | 111km/h | 9092m | -4.1m/s | -33.5°C | 42.0% | 0hPa | 2.5V | 00:00:00 | 00:00:00 | 00:00:00 | |
| OM5KV | 2026-09-06 04:11:28 | 47.35670 | 15.82261 | 133° | 111km/h | 9105m | -4.1m/s | -33.6°C | 38.6% | 0hPa | 2.5V | 07:47:00 | 00:00:00 | 00:00:00 | |
| OM5KV | 2026-09-06 04:11:27 | 47.35689 | 15.82230 | 134° | 111km/h | 9109m | -4.1m/s | -33.7°C | 38.7% | 0hPa | 2.5V | 07:47:00 | 00:00:00 | 00:00:00 | |
| OE3OSB-13 | 2026-09-06 04:11:23 | 47.35806 | 15.82050 | 134° | 111km/h | 9134m | -4.2m/s | -33.8°C | 40.3% | -1.0hPa | 2.5V | 00:00:00 | 00:00:00 | 00:00:00 | |
| OE5DRO-10 | 2026-09-06 04:11:22 | 47.35806 | 15.82050 | 135° | 111km/h | 9134m | -4.2m/s | -33.8°C | 43.2% | 0hPa | 2.5V | 00:00:00 | 00:00:00 | 00:00:00 | |
| OM5KV | 2026-09-06 04:11:21 | 47.35806 | 15.82050 | 135° | 111km/h | 9134m | -4.2m/s | -33.8°C | 40.4% | 0hPa | 2.5V | 07:47:00 | 00:00:00 | 00:00:00 | |
| PETON7-10 | 2026-09-06 04:11:17 | 47.35904 | 15.81900 | 134° | 111km/h | 9155m | -4.2m/s | -34.0°C | 44.1% | 0hPa | 2.5V | 00:00:00 | 00:00:00 | 00:00:00 | |
| OE3JTB-15 | 2026-09-06 04:11:16 | 47.35924 | 15.81870 | 135° | 110km/h | 9159m | -4.5m/s | -34.0°C | 44.4% | 0hPa | 2.5V | 00:00:00 | 00:00:00 | 00:00:00 | |
| S57NTA-12 | 2026-09-06 04:11:15 | 47.35924 | 15.81870 | 135° | 111km/h | 9159m | -4.5m/s | -34.0°C | 41.5% | 0hPa | 2.5V | 07:47:00 | 00:00:00 | 00:00:00 | |
| OE5WHR-10 | 2026-09-06 04:11:14 | 47.35963 | 15.81810 | 135° | 110km/h | 9168m | -4.3m/s | -34.1°C | 44.8% | 0hPa | 2.5V | 00:00:00 | 00:00:00 | 00:00:00 | |
| OE3MUC-15 | 2026-09-06 04:11:09 | 47.36062 | 15.81663 | 136° | 110km/h | 9190m | -4.4m/s | -34.2°C | 44.8% | 0hPa | 2.5V | 00:00:00 | 00:00:00 | 00:00:00 | |
| OE3MUC-15 | 2026-09-06 04:11:05 | 47.36142 | 15.81549 | 137° | 110km/h | 9209m | -4.5m/s | -34.4°C | 45.5% | 0hPa | 2.5V | 00:00:00 | 00:00:00 | 00:00:00 | |
| OM5KV | 2026-09-06 04:11:03 | 47.36162 | 15.81521 | 137° | 110km/h | 9213m | -4.8m/s | -34.5°C | 0% | 0hPa | 2.5V | 07:47:00 | 00:00:00 | 00:00:00 | |
| PETON7-10 | 2026-09-06 04:11:02 | 47.36202 | 15.81465 | 137° | 108km/h | 9223m | -4.6m/s | -34.5°C | 45.8% | 0hPa | 2.5V | 07:47:00 | 02:22:06 | 00:00:00 | |
| OE3OSB-13 | 2026-09-06 04:10:52 | 47.36421 | 15.81164 | 137° | 104km/h | 9272m | -4.4m/s | -35.0°C | 43.1% | -1.0hPa | 2.5V | 00:00:00 | 00:00:00 | 00:00:00 | |
| OE3MUC-15 | 2026-09-06 04:10:51 | 47.36421 | 15.81164 | 138° | 104km/h | 9273m | -4.4m/s | -35.0°C | 46.2% | 0hPa | 2.5V | 00:00:00 | 00:00:00 | 00:00:00 | |
| PETON7-10 | 2026-09-06 04:10:47 | 47.36500 | 15.81060 | 139° | 100km/h | 9291m | -4.3m/s | -35.2°C | 46.2% | 0hPa | 2.5V | 00:00:00 | 00:00:00 | 00:00:00 | |
| S52SK | 2026-09-06 04:10:45 | 47.36520 | 15.81034 | 140° | 104km/h | 9295m | -4.5m/s | -35.3°C | 43.4% | 0hPa | 2.5V | 00:00:00 | 00:00:00 | 00:00:00 | |
| OE5DRO-10 | 2026-09-06 04:10:44 | 47.36559 | 15.80983 | 139° | 100km/h | 9304m | -4.5m/s | -35.3°C | 46.6% | 0hPa | 2.5V | 00:00:00 | 00:00:00 | 00:00:00 | |
| OM5KV | 2026-09-06 04:10:41 | 47.36599 | 15.80933 | 140° | 102km/h | 9313m | -4.3m/s | 0°C | 0% | 0hPa | 2.5V | 00:00:00 | 00:00:00 | 00:00:00 | |
| OE3MUC-15 | 2026-09-06 04:10:40 | 47.36637 | 15.80883 | 139° | 102km/h | 9322m | -4.5m/s | -35.5°C | 46.6% | 0hPa | 2.5V | 00:00:00 | 00:00:00 | 00:00:00 | |
| S52SK | 2026-09-06 04:10:39 | 47.36637 | 15.80883 | 140° | 100km/h | 9322m | -4.5m/s | -35.5°C | 43.5% | 0hPa | 2.5V | 00:00:00 | 00:00:00 | 00:00:00 | |
| OE5DXL-15 | 2026-09-06 04:10:35 | 47.36730 | 15.80757 | 136° | 106km/h | 9344m | -4.3m/s | -35.6°C | 45.8% | 0hPa | 2.5V | 00:00:00 | 00:00:00 | 00:00:00 | |
| PG1ADW-2 | 2026-09-06 04:10:34 | 47.36747 | 15.80732 | 135° | 104km/h | 9348m | -4.2m/s | -35.7°C | 45.9% | 0hPa | 2.5V | 00:00:00 | 00:00:00 | 00:00:00 | |
| S57NTA-12 | 2026-09-06 04:10:33 | 47.36747 | 15.80732 | 136° | 99km/h | 9348m | -4.3m/s | -35.7°C | 42.8% | 0hPa | 2.5V | 07:48:00 | 00:00:00 | 00:00:00 | |
| PETON7-10 | 2026-09-06 04:10:32 | 47.36782 | 15.80679 | 134° | 104km/h | 9357m | -4.3m/s | -35.7°C | 44.9% | 0hPa | 2.5V | 00:00:00 | 00:00:00 | 00:00:00 | |
| OM5KV | 2026-09-06 04:10:30 | 47.36799 | 15.80652 | 134° | 99km/h | 9361m | -4.3m/s | 0°C | 0% | 0hPa | 2.5V | 00:00:00 | 00:00:00 | 00:00:00 | |
| OE5DRO-10 | 2026-09-06 04:10:25 | 47.36902 | 15.80484 | 132° | 110km/h | 9388m | -4.3m/s | -35.9°C | 38.0% | 0hPa | 2.5V | 00:00:00 | 00:00:00 | 00:00:00 | |
| OM5KV | 2026-09-06 04:10:24 | 47.36902 | 15.80484 | 133° | 104km/h | 9388m | -4.4m/s | 0°C | 0% | 0hPa | 2.5V | 00:00:00 | 00:00:00 | 00:00:00 | |
| OE3OSB-13 | 2026-09-06 04:10:21 | 47.36991 | 15.80337 | 131° | 108km/h | 9409m | -4.2m/s | -36.0°C | 31.1% | -1.0hPa | 2.5V | 00:00:00 | 00:00:00 | 00:00:00 | |
| OM5KV | 2026-09-06 04:10:18 | 47.37009 | 15.80307 | 133° | 108km/h | 9414m | -4.4m/s | 0°C | 0% | 0hPa | 2.5V | 00:00:00 | 00:00:00 | 00:00:00 | |
| PETON7-10 | 2026-09-06 04:10:17 | 47.37046 | 15.80247 | 133° | 113km/h | 9423m | -4.4m/s | -36.0°C | 33.1% | 0hPa | 2.5V | 00:00:00 | 02:21:21 | 00:00:00 | |
| PG1ADW-2 | 2026-09-06 04:10:14 | 47.37103 | 15.80155 | 133° | 115km/h | 9436m | -4.4m/s | -36.1°C | 33.6% | 0hPa | 2.5V | 07:48:00 | 00:00:00 | 00:00:00 | |
| OM5KV | 2026-09-06 04:10:13 | 47.37103 | 15.80155 | 133° | 111km/h | 9436m | -4.4m/s | 0°C | 0% | 0hPa | 2.5V | 00:00:00 | 00:00:00 | 00:00:00 | |
| S57NTA-12 | 2026-09-06 04:10:12 | 47.37122 | 15.80125 | 134° | 111km/h | 9440m | -4.4m/s | -36.2°C | 31.0% | 0hPa | 2.5V | 07:48:00 | 00:00:00 | 00:00:00 | |
| OE5WHR-10 | 2026-09-06 04:10:11 | 47.37160 | 15.80063 | 133° | 115km/h | 9449m | -4.3m/s | -36.2°C | 33.9% | 0hPa | 2.5V | 00:00:00 | 00:00:00 | 00:00:00 | |
| OM5KV | 2026-09-06 04:10:08 | 47.37199 | 15.80002 | 134° | 113km/h | 9457m | -4.2m/s | 0°C | 0% | 0hPa | 2.5V | 00:00:00 | 00:00:00 | 00:00:00 | |
| OE3JTB-15 | 2026-09-06 04:10:07 | 47.37238 | 15.79940 | 134° | 115km/h | 9466m | -4.1m/s | -36.3°C | 34.8% | 0hPa | 2.5V | 07:48:00 | 02:21:11 | 00:00:00 | |
| OE5DXL-15 | 2026-09-06 04:10:05 | 47.37279 | 15.79879 | 135° | 115km/h | 9475m | -4.1m/s | -36.4°C | 35.4% | 0hPa | 2.5V | 00:00:00 | 00:00:00 | 00:00:00 | |
| PETON7-10 | 2026-09-06 04:10:02 | 47.37341 | 15.79788 | 136° | 117km/h | 9487m | -4.1m/s | -36.5°C | 35.1% | 0hPa | 2.5V | 00:00:00 | 00:00:00 | 00:00:00 | |
| OE3OSB-13 | 2026-09-06 04:09:50 | 47.37619 | 15.79403 | 137° | 115km/h | 9541m | -3.9m/s | -37.0°C | 31.4% | -1.0hPa | 2.5V | 00:00:00 | 00:00:00 | 00:00:00 | |
| OE5WHR-10 | 2026-09-06 04:09:49 | 47.37619 | 15.79403 | 138° | 115km/h | 9541m | -3.9m/s | -37.0°C | 34.4% | 0hPa | 2.5V | 00:00:00 | 00:00:00 | 00:00:00 | |
| OE3MUC-15 | 2026-09-06 04:09:48 | 47.37641 | 15.79374 | 138° | 115km/h | 9545m | -4.0m/s | -37.0°C | 34.8% | 0hPa | 2.5V | 00:00:00 | 00:00:00 | 00:00:00 | |
| PETON7-10 | 2026-09-06 04:09:47 | 47.37662 | 15.79345 | 139° | 115km/h | 9549m | -4.0m/s | -37.0°C | 34.9% | 0hPa | 2.5V | 00:00:00 | 00:00:00 | 00:00:00 | |
| OE3MUC-15 | 2026-09-06 04:09:44 | 47.37728 | 15.79260 | 139° | 115km/h | 9561m | -4.0m/s | -37.1°C | 35.9% | 0hPa | 2.5V | 00:00:00 | 00:00:00 | 00:00:00 | |
| OE5DRO-10 | 2026-09-06 04:09:42 | 47.37772 | 15.79204 | 140° | 115km/h | 9569m | -4.3m/s | -37.2°C | 36.3% | 0hPa | 2.5V | 00:00:00 | 00:00:00 | 00:00:00 | |
| OE3JTB-15 | 2026-09-06 04:09:38 | 47.37860 | 15.79092 | 140° | 111km/h | 9585m | -4.2m/s | -37.3°C | 36.3% | 0hPa | 2.5V | 00:00:00 | 00:00:00 | 00:00:00 | |
| OE5DXL-15 | 2026-09-06 04:09:35 | 47.37926 | 15.79010 | 141° | 111km/h | 9597m | -4.1m/s | -37.4°C | 36.3% | 0hPa | 2.5V | 00:00:00 | 00:00:00 | 00:00:00 | |
| PG1ADW-2 | 2026-09-06 04:09:34 | 47.37949 | 15.78983 | 140° | 113km/h | 9602m | -4.0m/s | -37.5°C | 36.3% | 0hPa | 2.5V | 00:00:00 | 02:20:38 | 00:00:00 | |
| PETON7-10 | 2026-09-06 04:09:32 | 47.37993 | 15.78928 | 141° | 113km/h | 9609m | -4.2m/s | -37.5°C | 36.5% | 0hPa | 2.5V | 00:00:00 | 02:20:36 | 00:00:00 | |
| S57NTA-12 | 2026-09-06 04:09:31 | 47.37993 | 15.78928 | 141° | 115km/h | 9609m | -4.2m/s | -37.6°C | 33.5% | 0hPa | 2.5V | 07:49:00 | 00:00:00 | 00:00:00 | |
| S52SK | 2026-09-06 04:09:30 | 47.38015 | 15.78901 | 141° | 115km/h | 9614m | -4.2m/s | -37.6°C | 33.4% | 0hPa | 2.5V | 00:00:00 | 00:00:00 | 00:00:00 | |
| S52SK | 2026-09-06 04:09:24 | 47.38148 | 15.78739 | 142° | 113km/h | 9638m | -4.0m/s | -37.8°C | 33.4% | 0hPa | 2.5V | 00:00:00 | 00:00:00 | 00:00:00 | |
| OE5WHR-10 | 2026-09-06 04:09:23 | 47.38193 | 15.78685 | 141° | 130km/h | 9646m | -3.8m/s | -37.8°C | 36.3% | 0hPa | 2.5V | 00:00:00 | 02:20:27 | 00:00:00 | |
| OE3MUC-15 | 2026-09-06 04:09:20 | 47.38259 | 15.78606 | 142° | 111km/h | 9658m | -3.8m/s | -37.9°C | 36.4% | 0hPa | 2.5V | 00:00:00 | 00:00:00 | 00:00:00 | |
| OE3OSB-13 | 2026-09-06 04:09:19 | 47.38303 | 15.78555 | 141° | 110km/h | 9665m | -3.9m/s | -38.1°C | 33.4% | -1.0hPa | 2.5V | 00:00:00 | 00:00:00 | 00:00:00 | |
| PETON7-10 | 2026-09-06 04:09:17 | 47.38325 | 15.78530 | 142° | 106km/h | 9669m | -3.8m/s | -38.1°C | 36.5% | 0hPa | 2.5V | 00:00:00 | 00:00:00 | 00:00:00 | |
| OE3MUC-15 | 2026-09-06 04:09:16 | 47.38347 | 15.78504 | 142° | 110km/h | 9673m | -3.8m/s | -38.1°C | 36.4% | 0hPa | 2.5V | 00:00:00 | 00:00:00 | 00:00:00 | |
| PG1ADW-2 | 2026-09-06 04:09:14 | 47.38390 | 15.78454 | 142° | 104km/h | 9680m | -3.8m/s | -38.1°C | 36.3% | 0hPa | 2.5V | 00:00:00 | 00:00:00 | 00:00:00 | |
| OE3MUC-15 | 2026-09-06 04:09:12 | 47.38433 | 15.78404 | 142° | 106km/h | 9687m | -3.8m/s | -38.2°C | 36.5% | 0hPa | 2.5V | 00:00:00 | 00:00:00 | 00:00:00 | |
| S57NTA-12 | 2026-09-06 04:09:10 | 47.38454 | 15.78379 | 143° | 106km/h | 9691m | -3.8m/s | -38.3°C | 33.2% | 0hPa | 2.5V | 07:49:00 | 00:00:00 | 00:00:00 | |
| OE3JTB-15 | 2026-09-06 04:09:09 | 47.38496 | 15.78330 | 142° | 102km/h | 9699m | -3.8m/s | -38.3°C | 36.0% | 0hPa | 2.5V | 00:00:00 | 00:00:00 | 00:00:00 | |
| OE3MUC-15 | 2026-09-06 04:09:08 | 47.38517 | 15.78306 | 142° | 106km/h | 9703m | -3.7m/s | -38.4°C | 36.0% | 0hPa | 2.5V | 00:00:00 | 00:00:00 | 00:00:00 | |
| OE8JPQ-2 | 2026-09-06 04:09:07 | 47.38538 | 15.78282 | 142° | 102km/h | 9706m | -3.9m/s | -38.4°C | 36.2% | 0hPa | 2.5V | 00:00:00 | 02:20:11 | 00:00:00 | |
| OE5DXL-15 | 2026-09-06 04:09:05 | 47.38580 | 15.78233 | 142° | 102km/h | 9714m | -3.7m/s | -38.5°C | 36.5% | 0hPa | 2.5V | 00:00:00 | 00:00:00 | 00:00:00 | |
| OE5DRO-10 | 2026-09-06 04:09:04 | 47.38600 | 15.78208 | 142° | 102km/h | 9718m | -3.8m/s | -38.5°C | 36.4% | 0hPa | 2.5V | 00:00:00 | 00:00:00 | 00:00:00 | |
| OE3MUC-15 | 2026-09-06 04:09:03 | 47.38621 | 15.78184 | 142° | 104km/h | 9722m | -3.9m/s | -38.5°C | 36.6% | 0hPa | 2.5V | 00:00:00 | 00:00:00 | 00:00:00 | |
| PETON7-10 | 2026-09-06 04:09:02 | 47.38642 | 15.78160 | 142° | 102km/h | 9726m | -3.8m/s | -38.6°C | 36.7% | 0hPa | 2.5V | 07:49:00 | 00:00:00 | 00:00:00 | |
| OE3OSB-13 | 2026-09-06 04:08:48 | 47.38950 | 15.77762 | 135° | 100km/h | 9784m | -3.7m/s | -39.1°C | 34.5% | -1.0hPa | 2.5V | 00:00:00 | 00:00:00 | 00:00:00 | |
| PETON7-10 | 2026-09-06 04:08:47 | 47.38932 | 15.77788 | 137° | 102km/h | 9780m | -3.7m/s | -39.1°C | 37.7% | 0hPa | 2.5V | 00:00:00 | 02:19:51 | 00:00:00 | |
| OE3MUC-15 | 2026-09-06 04:08:46 | 47.38950 | 15.77762 | 136° | 100km/h | 9784m | -3.7m/s | -39.1°C | 37.8% | 0hPa | 2.5V | 00:00:00 | 00:00:00 | 00:00:00 | |
| OE5DRO-10 | 2026-09-06 04:08:45 | 47.38968 | 15.77735 | 136° | 104km/h | 9788m | -3.7m/s | -39.1°C | 37.7% | 0hPa | 2.5V | 00:00:00 | 00:00:00 | 00:00:00 | |
| OE3MUC-15 | 2026-09-06 04:08:41 | 47.39040 | 15.77627 | 134° | 102km/h | 9803m | -3.5m/s | -39.2°C | 38.1% | 0hPa | 2.5V | 00:00:00 | 00:00:00 | 00:00:00 | |
| OE3JTB-15 | 2026-09-06 04:08:40 | 47.39058 | 15.77599 | 134° | 106km/h | 9806m | -3.6m/s | -39.3°C | 38.0% | 0hPa | 2.5V | 00:00:00 | 02:19:44 | 00:00:00 | |
| OM5KV | 2026-09-06 04:08:39 | 47.39058 | 15.77599 | 135° | 102km/h | 9806m | -3.6m/s | -39.3°C | 34.8% | 0hPa | 2.5V | 07:50:00 | 00:00:00 | 00:00:00 | |
| OE3MUC-15 | 2026-09-06 04:08:37 | 47.39112 | 15.77516 | 133° | 104km/h | 9817m | -3.4m/s | -39.4°C | 38.7% | 0hPa | 2.5V | 00:00:00 | 00:00:00 | 00:00:00 | |
| OE5DXL-15 | 2026-09-06 04:08:35 | 47.39148 | 15.77459 | 133° | 106km/h | 9824m | -3.4m/s | -39.4°C | 38.9% | 0hPa | 2.5V | 00:00:00 | 00:00:00 | 00:00:00 | |
| PG1ADW-2 | 2026-09-06 04:08:34 | 47.39166 | 15.77430 | 133° | 108km/h | 9827m | -3.5m/s | -39.5°C | 39.2% | 0hPa | 2.5V | 00:00:00 | 00:00:00 | 00:00:00 | |
| OE3MUC-15 | 2026-09-06 04:08:33 | 47.39184 | 15.77401 | 133° | 106km/h | 9831m | -3.4m/s | -39.5°C | 39.2% | 0hPa | 2.5V | 00:00:00 | 00:00:00 | 00:00:00 | |
| PETON7-10 | 2026-09-06 04:08:32 | 47.39201 | 15.77372 | 133° | 108km/h | 9834m | -3.3m/s | -39.5°C | 39.1% | 0hPa | 2.5V | 00:00:00 | 00:00:00 | 00:00:00 | |
| OM5KV | 2026-09-06 04:08:31 | 47.39202 | 15.77372 | 133° | 106km/h | 9834m | -3.4m/s | -39.6°C | 35.8% | 0hPa | 2.5V | 07:50:00 | 00:00:00 | 00:00:00 | |
| OE3MUC-15 | 2026-09-06 04:08:29 | 47.39256 | 15.77286 | 133° | 106km/h | 9845m | -3.4m/s | -39.6°C | 39.6% | 0hPa | 2.5V | 00:00:00 | 00:00:00 | 00:00:00 | |
| S57NTA-12 | 2026-09-06 04:08:28 | 47.39256 | 15.77286 | 133° | 106km/h | 9845m | -3.5m/s | -39.7°C | 36.2% | 0hPa | 2.5V | 07:50:00 | 00:00:00 | 00:00:00 | |
| OE8JPQ-2 | 2026-09-06 04:08:27 | 47.39292 | 15.77227 | 133° | 115km/h | 9852m | -3.6m/s | -39.7°C | 39.7% | 0hPa | 2.5V | 00:00:00 | 00:00:00 | 00:00:00 | |
| OE5DRO-10 | 2026-09-06 04:08:26 | 47.39310 | 15.77198 | 133° | 108km/h | 9855m | -3.6m/s | -39.7°C | 40.0% | 0hPa | 2.5V | 07:49:00 | 00:00:00 | 00:00:00 | |
| OE3MUC-15 | 2026-09-06 04:08:25 | 47.39328 | 15.77168 | 132° | 108km/h | 9859m | -3.5m/s | -39.8°C | 40.1% | 0hPa | 2.5V | 00:00:00 | 02:19:29 | 00:00:00 | |
| OE3MUC-15 | 2026-09-06 04:08:21 | 47.39401 | 15.77047 | 132° | 110km/h | 9873m | -3.5m/s | -39.9°C | 40.8% | 0hPa | 2.5V | 07:50:00 | 00:00:00 | 00:00:00 | |
| OE3MUC-15 | 2026-09-06 04:08:17 | 47.39474 | 15.76926 | 132° | 106km/h | 9886m | -3.4m/s | -40.0°C | 40.5% | 0hPa | 2.5V | 00:00:00 | 00:00:00 | 00:00:00 | |
| S52SK | 2026-09-06 04:08:15 | 47.39492 | 15.76897 | 133° | 108km/h | 9890m | -3.6m/s | -40.1°C | 36.8% | 0hPa | 2.5V | 00:00:00 | 00:00:00 | 00:00:00 | |
| PG1ADW-2 | 2026-09-06 04:08:14 | 47.39528 | 15.76838 | 133° | 106km/h | 9897m | -3.3m/s | -40.1°C | 40.1% | 0hPa | 2.5V | 00:00:00 | 02:19:18 | 00:00:00 | |
| OE3MUC-15 | 2026-09-06 04:08:13 | 47.39546 | 15.76808 | 133° | 106km/h | 9900m | -3.4m/s | -40.2°C | 40.0% | 0hPa | 2.5V | 00:00:00 | 00:00:00 | 00:00:00 | |
| OE3JTB-15 | 2026-09-06 04:08:11 | 47.39582 | 15.76750 | 133° | 108km/h | 9907m | -3.3m/s | -40.2°C | 40.1% | 0hPa | 2.5V | 00:00:00 | 00:00:00 | 00:00:00 | |
| OM5KV | 2026-09-06 04:08:10 | 47.39582 | 15.76750 | 133° | 104km/h | 9907m | -3.3m/s | -40.3°C | 36.6% | 0hPa | 2.5V | 07:50:00 | 00:00:00 | 00:00:00 | |
| OE3MUC-15 | 2026-09-06 04:08:09 | 47.39618 | 15.76692 | 133° | 104km/h | 9914m | -3.4m/s | -40.3°C | 40.0% | 0hPa | 2.5V | 00:00:00 | 00:00:00 | 00:00:00 | |
| OE5DRO-10 | 2026-09-06 04:08:07 | 47.39654 | 15.76635 | 133° | 106km/h | 9921m | -3.4m/s | -40.3°C | 39.9% | 0hPa | 2.5V | 00:00:00 | 00:00:00 | 00:00:00 | |
| OE3MUC-15 | 2026-09-06 04:08:05 | 47.39690 | 15.76578 | 133° | 104km/h | 9928m | -3.5m/s | -40.4°C | 39.8% | 0hPa | 2.5V | 00:00:00 | 00:00:00 | 00:00:00 | |
| OM5KV | 2026-09-06 04:08:03 | 47.39708 | 15.76549 | 133° | 104km/h | 9931m | -3.4m/s | -40.5°C | 36.1% | 0hPa | 2.5V | 07:50:00 | 00:00:00 | 00:00:00 | |
| PETON7-10 | 2026-09-06 04:08:02 | 47.39743 | 15.76491 | 133° | 108km/h | 9938m | -3.3m/s | -40.5°C | 39.2% | 0hPa | 2.5V | 00:00:00 | 02:19:06 | 00:00:00 | |
| OM5KV | 2026-09-06 04:08:01 | 47.39743 | 15.76491 | 133° | 106km/h | 9938m | -3.3m/s | -40.5°C | 35.8% | 0hPa | 2.5V | 07:50:00 | 00:00:00 | 00:00:00 | |
| OE3OSB-13 | 2026-09-06 04:07:46 | 47.40070 | 15.75951 | 131° | 111km/h | 9999m | -3.3m/s | -40.9°C | 35.7% | -1.0hPa | 2.5V | 00:00:00 | 00:00:00 | 00:00:00 | |
| OM5KV | 2026-09-06 04:07:45 | 47.40033 | 15.76013 | 132° | 111km/h | 9992m | -3.2m/s | -40.9°C | 35.8% | 0hPa | 2.5V | 07:50:00 | 00:00:00 | 00:00:00 | |
| OE3MUC-15 | 2026-09-06 04:07:44 | 47.40070 | 15.75951 | 132° | 113km/h | 9999m | -3.3m/s | -40.9°C | 39.4% | 0hPa | 2.5V | 00:00:00 | 00:00:00 | 00:00:00 | |
| OE3JTB-15 | 2026-09-06 04:07:42 | 47.40107 | 15.75887 | 132° | 119km/h | 10006m | -3.1m/s | -41.0°C | 39.7% | 0hPa | 2.5V | 00:00:00 | 00:00:00 | 00:00:00 | |
| OM5KV | 2026-09-06 04:07:38 | 47.40164 | 15.75792 | 132° | 115km/h | 10016m | -3.3m/s | -41.1°C | 37.1% | 0hPa | 2.5V | 07:50:00 | 00:00:00 | 00:00:00 | |
| OE5DXL-15 | 2026-09-06 04:07:35 | 47.40241 | 15.75663 | 132° | 120km/h | 10029m | -3.2m/s | -41.2°C | 42.2% | 0hPa | 2.5V | 00:00:00 | 00:00:00 | 00:00:00 | |
| PG1ADW-2 | 2026-09-06 04:07:34 | 47.40260 | 15.75631 | 132° | 120km/h | 10032m | -3.3m/s | -41.2°C | 42.7% | 0hPa | 2.5V | 07:50:00 | 00:00:00 | 00:00:00 | |
| PETON7-10 | 2026-09-06 04:07:32 | 47.40300 | 15.75566 | 132° | 120km/h | 10039m | -3.1m/s | -41.2°C | 43.2% | 0hPa | 2.5V | 00:00:00 | 00:00:00 | 00:00:00 | |
| OE5DRO-10 | 2026-09-06 04:07:29 | 47.40360 | 15.75467 | 133° | 122km/h | 10048m | -3.2m/s | -41.3°C | 43.8% | 0hPa | 2.5V | 00:00:00 | 00:00:00 | 00:00:00 | |
| S57NTA-12 | 2026-09-06 04:07:26 | 47.40401 | 15.75402 | 134° | 120km/h | 10054m | -3.1m/s | -41.4°C | 40.5% | 0hPa | 2.5V | 07:51:00 | 00:00:00 | 00:00:00 | |
| OM5KV | 2026-09-06 04:07:22 | 47.40485 | 15.75271 | 135° | 122km/h | 10067m | -3.3m/s | -41.5°C | 40.9% | 0hPa | 2.5V | 07:51:00 | 00:00:00 | 00:00:00 | |
| OE3MUC-15 | 2026-09-06 04:07:20 | 47.40550 | 15.75173 | 135° | 122km/h | 10077m | -3.0m/s | -41.5°C | 44.6% | 0hPa | 2.5V | 00:00:00 | 00:00:00 | 00:00:00 | |
| PETON7-10 | 2026-09-06 04:07:17 | 47.40616 | 15.75075 | 136° | 122km/h | 10086m | -3.2m/s | -41.6°C | 44.8% | 0hPa | 2.5V | 00:00:00 | 02:18:21 | 00:00:00 | |
| OE3MUC-15 | 2026-09-06 04:07:16 | 47.40638 | 15.75043 | 136° | 124km/h | 10089m | -3.1m/s | -41.6°C | 45.1% | 0hPa | 2.5V | 07:51:00 | 00:00:00 | 00:00:00 | |
| PG1ADW-2 | 2026-09-06 04:07:14 | 47.40683 | 15.74979 | 136° | 120km/h | 10096m | -3.0m/s | -41.6°C | 45.0% | 0hPa | 2.5V | 00:00:00 | 00:00:00 | 00:00:00 | |
| OE3JTB-15 | 2026-09-06 04:07:13 | 47.40705 | 15.74947 | 137° | 119km/h | 10099m | -3.2m/s | -41.7°C | 45.4% | 0hPa | 2.5V | 00:00:00 | 02:18:17 | 00:00:00 | |
| OE3MUC-15 | 2026-09-06 04:07:12 | 47.40728 | 15.74915 | 137° | 122km/h | 10102m | -3.2m/s | -41.7°C | 45.5% | 0hPa | 2.5V | 00:00:00 | 00:00:00 | 00:00:00 | |
| OM5KV | 2026-09-06 04:07:11 | 47.40727 | 15.74915 | 138° | 122km/h | 10102m | -3.2m/s | -41.8°C | 41.6% | 0hPa | 2.5V | 07:51:00 | 00:00:00 | 00:00:00 | |
| OE5DRO-10 | 2026-09-06 04:07:10 | 47.40773 | 15.74853 | 138° | 120km/h | 10108m | -3.0m/s | -41.8°C | 45.8% | 0hPa | 2.5V | 00:00:00 | 00:00:00 | 00:00:00 | |
| OE3MUC-15 | 2026-09-06 04:07:08 | 47.40819 | 15.74792 | 139° | 122km/h | 10114m | -3.1m/s | -41.8°C | 46.0% | 0hPa | 2.5V | 00:00:00 | 00:00:00 | 00:00:00 | |
| OE5DXL-15 | 2026-09-06 04:07:05 | 47.40888 | 15.74702 | 139° | 115km/h | 10124m | -3.0m/s | -41.9°C | 46.4% | 0hPa | 2.5V | 07:51:00 | 00:00:00 | 00:00:00 | |
| OE3MUC-15 | 2026-09-06 04:07:04 | 47.40911 | 15.74672 | 140° | 120km/h | 10127m | -3.0m/s | -42.0°C | 46.6% | 0hPa | 2.5V | 00:00:00 | 00:00:00 | 00:00:00 | |
| PETON7-10 | 2026-09-06 04:07:02 | 47.40958 | 15.74614 | 140° | 119km/h | 10134m | -3.0m/s | -42.0°C | 46.9% | 0hPa | 2.5V | 07:51:00 | 00:00:00 | 00:00:00 | |
| OE8JPQ-2 | 2026-09-06 04:07:01 | 47.40981 | 15.74585 | 140° | 113km/h | 10137m | -3.1m/s | -42.1°C | 47.0% | 0hPa | 2.5V | 00:00:00 | 00:00:00 | 00:00:00 | |
| OE3MUC-15 | 2026-09-06 04:07:00 | 47.41004 | 15.74556 | 140° | 119km/h | 10140m | -3.1m/s | -42.1°C | 46.8% | 0hPa | 2.5V | 00:00:00 | 00:00:00 | 00:00:00 | |
| S52SK | 2026-09-06 04:06:59 | 47.41004 | 15.74556 | 141° | 119km/h | 10140m | -3.1m/s | -42.1°C | 42.8% | 0hPa | 2.5V | 00:00:00 | 00:00:00 | 00:00:00 | |
| OM5KV | 2026-09-06 04:06:58 | 47.41027 | 15.74528 | 141° | 119km/h | 10143m | -3.2m/s | -42.1°C | 42.4% | 0hPa | 2.5V | 07:51:00 | 00:00:00 | 00:00:00 | |
| OE3MUC-15 | 2026-09-06 04:06:56 | 47.41096 | 15.74442 | 141° | 119km/h | 10153m | -2.9m/s | -42.2°C | 46.5% | 0hPa | 2.5V | 00:00:00 | 00:00:00 | 00:00:00 | |
| PG1ADW-2 | 2026-09-06 04:06:54 | 47.41142 | 15.74386 | 141° | 113km/h | 10159m | -3.1m/s | -42.2°C | 46.4% | 0hPa | 2.5V | 00:00:00 | 02:17:58 | 00:00:00 | |
| S52SK | 2026-09-06 04:06:53 | 47.41142 | 15.74386 | 141° | 119km/h | 10159m | -3.2m/s | -42.3°C | 42.3% | 0hPa | 2.5V | 00:00:00 | 00:00:00 | 00:00:00 | |
| OE3MUC-15 | 2026-09-06 04:06:52 | 47.41188 | 15.74330 | 141° | 113km/h | 10165m | -2.9m/s | -42.3°C | 46.7% | 0hPa | 2.5V | 00:00:00 | 00:00:00 | 00:00:00 | |
| OE5DRO-10 | 2026-09-06 04:06:51 | 47.41211 | 15.74303 | 141° | 111km/h | 10168m | -3.0m/s | -42.3°C | 46.9% | 0hPa | 2.5V | 00:00:00 | 00:00:00 | 00:00:00 | |
| OM5KV | 2026-09-06 04:06:50 | 47.41211 | 15.74303 | 141° | 115km/h | 10168m | -3.1m/s | -42.4°C | 42.8% | 0hPa | 2.5V | 07:51:00 | 00:00:00 | 00:00:00 | |
| OM5KV | 2026-09-06 04:06:47 | 47.41301 | 15.74193 | 141° | 115km/h | 10180m | -2.9m/s | -42.5°C | 43.7% | 0hPa | 2.5V | 07:51:00 | 00:00:00 | 00:00:00 | |
| OM5KV | 2026-09-06 04:06:46 | 47.41301 | 15.74193 | 141° | 115km/h | 10180m | -2.9m/s | -42.5°C | 43.7% | 0hPa | 2.5V | 07:51:00 | 00:00:00 | 00:00:00 | |
| OE3JTB-15 | 2026-09-06 04:06:44 | 47.41367 | 15.74112 | 140° | 110km/h | 10189m | -2.7m/s | -42.5°C | 48.0% | 0hPa | 2.5V | 00:00:00 | 00:00:00 | 00:00:00 | |
| OE3OSB-13 | 2026-09-06 04:06:43 | 47.41410 | 15.74058 | 139° | 110km/h | 10194m | -3.0m/s | -42.7°C | 43.3% | -1.0hPa | 2.5V | 00:00:00 | 00:00:00 | 00:00:00 | |
| OE3MUC-15 | 2026-09-06 04:06:38 | 47.41493 | 15.73950 | 138° | 111km/h | 10206m | -2.8m/s | -42.7°C | 46.5% | 0hPa | 2.5V | 00:00:00 | 00:00:00 | 00:00:00 | |
| OE5DXL-15 | 2026-09-06 04:06:35 | 47.41554 | 15.73868 | 138° | 110km/h | 10215m | -2.9m/s | -42.7°C | 45.0% | 0hPa | 2.4V | 00:00:00 | 00:00:00 | 00:00:00 | |
| PG1ADW-2 | 2026-09-06 04:06:34 | 47.41574 | 15.73841 | 138° | 110km/h | 10218m | -3.0m/s | -42.8°C | 44.8% | 0hPa | 2.4V | 00:00:00 | 00:00:00 | 00:00:00 | |
| PETON7-10 | 2026-09-06 04:06:32 | 47.41614 | 15.73786 | 137° | 110km/h | 10224m | -3.0m/s | -42.8°C | 44.1% | 0hPa | 2.4V | 00:00:00 | 02:17:36 | 00:00:00 | |
| OM5KV | 2026-09-06 04:06:29 | 47.41655 | 15.73730 | 137° | 110km/h | 10230m | -2.9m/s | -42.9°C | 39.9% | 0hPa | 2.4V | 07:52:00 | 00:00:00 | 00:00:00 | |
| S57NTA-12 | 2026-09-06 04:06:24 | 47.41754 | 15.73590 | 138° | 110km/h | 10245m | -2.9m/s | 0°C | 0% | 0hPa | 2.4V | 00:00:00 | 00:00:00 | 00:00:00 | |
| OM5KV | 2026-09-06 04:06:18 | 47.41874 | 15.73421 | 137° | 110km/h | 10263m | -2.9m/s | -43.1°C | 41.8% | 0hPa | 2.4V | 07:52:00 | 00:00:00 | 00:00:00 | |
| PETON7-10 | 2026-09-06 04:06:17 | 47.41913 | 15.73364 | 136° | 110km/h | 10268m | -3.1m/s | -43.1°C | 46.2% | 0hPa | 2.4V | 00:00:00 | 00:00:00 | 00:00:00 | |
| OE3JTB-15 | 2026-09-06 04:06:15 | 47.41952 | 15.73306 | 135° | 111km/h | 10275m | -2.9m/s | -43.2°C | 46.6% | 0hPa | 2.5V | 07:52:00 | 00:00:00 | 00:00:00 | |
| PG1ADW-2 | 2026-09-06 04:06:14 | 47.41971 | 15.73277 | 135° | 111km/h | 10278m | -2.9m/s | -43.2°C | 46.5% | 0hPa | 2.5V | 00:00:00 | 00:00:00 | 00:00:00 | |
| OE5DRO-10 | 2026-09-06 04:06:13 | 47.41991 | 15.73247 | 135° | 111km/h | 10281m | -2.9m/s | -43.2°C | 46.7% | 0hPa | 2.5V | 00:00:00 | 00:00:00 | 00:00:00 | |
| OM5KV | 2026-09-06 04:06:07 | 47.42087 | 15.73097 | 134° | 111km/h | 10296m | -3.0m/s | -43.4°C | 43.1% | 0hPa | 2.4V | 07:52:00 | 00:00:00 | 00:00:00 | |
| OE5DXL-15 | 2026-09-06 04:06:05 | 47.42144 | 15.73006 | 133° | 117km/h | 10305m | -3.1m/s | -43.5°C | 47.8% | 0hPa | 2.4V | 00:00:00 | 00:00:00 | 00:00:00 | |
| OM5KV | 2026-09-06 04:06:04 | 47.42144 | 15.73006 | 134° | 111km/h | 10305m | -3.1m/s | -43.5°C | 43.5% | 0hPa | 2.4V | 07:52:00 | 00:00:00 | 00:00:00 | |
| S57NTA-12 | 2026-09-06 04:06:03 | 47.42163 | 15.72976 | 134° | 111km/h | 10308m | -3.0m/s | 0°C | 0% | 0hPa | 2.4V | 00:00:00 | 00:00:00 | 00:00:00 | |
| PETON7-10 | 2026-09-06 04:06:02 | 47.42201 | 15.72916 | 133° | 113km/h | 10314m | -3.0m/s | -43.5°C | 48.1% | 0hPa | 2.4V | 00:00:00 | 00:00:00 | 00:00:00 | |
| OM5KV | 2026-09-06 04:06:01 | 47.42201 | 15.72916 | 133° | 111km/h | 10314m | -3.0m/s | -43.6°C | 43.8% | 0hPa | 2.4V | 07:52:00 | 00:00:00 | 00:00:00 | |
| OM5KV | 2026-09-06 04:06:00 | 47.42220 | 15.72885 | 133° | 111km/h | 10317m | -3.1m/s | -43.6°C | 43.9% | 0hPa | 2.4V | 07:52:00 | 00:00:00 | 00:00:00 | |
| OM5KV | 2026-09-06 04:05:57 | 47.42277 | 15.72792 | 133° | 113km/h | 10327m | -3.2m/s | -43.7°C | 44.2% | 0hPa | 2.4V | 07:52:00 | 00:00:00 | 00:00:00 | |
| PG1ADW-2 | 2026-09-06 04:05:54 | 47.42352 | 15.72664 | 131° | 119km/h | 10339m | -3.0m/s | -43.7°C | 49.0% | 0hPa | 2.4V | 00:00:00 | 00:00:00 | 00:00:00 | |
| OE8JPQ-2 | 2026-09-06 04:05:53 | 47.42371 | 15.72632 | 132° | 124km/h | 10342m | -2.9m/s | -43.8°C | 48.9% | 0hPa | 2.4V | 00:00:00 | 02:16:57 | 00:00:00 | |
| OM5KV | 2026-09-06 04:05:50 | 47.42410 | 15.72567 | 132° | 115km/h | 10348m | -3.0m/s | -43.9°C | 44.8% | 0hPa | 2.4V | 07:52:00 | 00:00:00 | 00:00:00 | |
| OM5KV | 2026-09-06 04:05:48 | 47.42447 | 15.72502 | 132° | 117km/h | 10354m | -3.1m/s | -43.9°C | 44.6% | 0hPa | 2.4V | 07:52:00 | 00:00:00 | 00:00:00 | |
| PETON7-10 | 2026-09-06 04:05:47 | 47.42486 | 15.72436 | 131° | 122km/h | 10360m | -2.9m/s | -43.9°C | 49.1% | 0hPa | 2.4V | 00:00:00 | 02:16:51 | 00:00:00 | |
| OE3JTB-15 | 2026-09-06 04:05:45 | 47.42525 | 15.72369 | 131° | 126km/h | 10367m | -2.9m/s | -44.0°C | 48.9% | 0hPa | 2.4V | 00:00:00 | 02:16:49 | 00:00:00 | |
| OE3OSB-13 | 2026-09-06 04:05:41 | 47.42624 | 15.72197 | 130° | 122km/h | 10382m | -3.0m/s | -44.2°C | 43.5% | -1.0hPa | 2.4V | 00:00:00 | 00:00:00 | 00:00:00 | |
| OM5KV | 2026-09-06 04:05:39 | 47.42624 | 15.72197 | 132° | 122km/h | 10382m | -3.0m/s | -44.2°C | 43.7% | 0hPa | 2.4V | 07:53:00 | 00:00:00 | 00:00:00 | |
| OM5KV | 2026-09-06 04:05:38 | 47.42645 | 15.72162 | 132° | 124km/h | 10385m | -3.1m/s | -44.2°C | 43.8% | 0hPa | 2.4V | 07:53:00 | 00:00:00 | 00:00:00 | |
| OE5DXL-15 | 2026-09-06 04:05:35 | 47.42727 | 15.72022 | 132° | 126km/h | 10397m | -3.0m/s | -44.3°C | 48.9% | 0hPa | 2.4V | 00:00:00 | 00:00:00 | 00:00:00 | |
| PG1ADW-2 | 2026-09-06 04:05:34 | 47.42748 | 15.71986 | 132° | 126km/h | 10400m | -2.9m/s | -44.3°C | 49.1% | 0hPa | 2.4V | 00:00:00 | 02:16:38 | 00:00:00 | |
| OM5KV | 2026-09-06 04:05:33 | 47.42748 | 15.71987 | 132° | 126km/h | 10400m | -3.0m/s | -44.3°C | 44.6% | 0hPa | 2.5V | 07:53:00 | 00:00:00 | 00:00:00 | |
| PETON7-10 | 2026-09-06 04:05:32 | 47.42791 | 15.71916 | 132° | 128km/h | 10406m | -3.1m/s | -44.4°C | 48.9% | 0hPa | 2.5V | 00:00:00 | 00:00:00 | 00:00:00 | |
| OE8JPQ-2 | 2026-09-06 04:05:27 | 47.42900 | 15.71742 | 134° | 122km/h | 10421m | -2.8m/s | -44.5°C | 49.0% | 0hPa | 2.4V | 00:00:00 | 00:00:00 | 00:00:00 | |
| OM5KV | 2026-09-06 04:05:26 | 47.42900 | 15.71742 | 135° | 128km/h | 10421m | -2.9m/s | -44.6°C | 44.5% | 0hPa | 2.4V | 07:53:00 | 00:00:00 | 00:00:00 | |
| OE5MMP-10 | 2026-09-06 04:05:25 | 47.42945 | 15.71674 | 135° | 126km/h | 10428m | -3.1m/s | -44.6°C | 48.9% | 0hPa | 2.4V | 00:00:00 | 02:16:29 | 00:00:00 | |
| OM5KV | 2026-09-06 04:05:20 | 47.43037 | 15.71540 | 137° | 126km/h | 10439m | -2.9m/s | -44.7°C | 43.4% | 0hPa | 2.4V | 07:53:00 | 00:00:00 | 00:00:00 | |
| OE3MUC-15 | 2026-09-06 04:05:19 | 47.43083 | 15.71475 | 137° | 124km/h | 10445m | -2.9m/s | -44.7°C | 47.4% | 0hPa | 2.4V | 00:00:00 | 00:00:00 | 00:00:00 | |
| PETON7-10 | 2026-09-06 04:05:17 | 47.43129 | 15.71410 | 137° | 122km/h | 10451m | -2.8m/s | -44.8°C | 47.2% | 0hPa | 2.4V | 00:00:00 | 00:00:00 | 00:00:00 | |
| OE3JTB-15 | 2026-09-06 04:05:16 | 47.43152 | 15.71378 | 137° | 119km/h | 10454m | -3.0m/s | -44.8°C | 47.3% | 0hPa | 2.4V | 00:00:00 | 00:00:00 | 00:00:00 | |
| OM5KV | 2026-09-06 04:05:15 | 47.43152 | 15.71378 | 138° | 126km/h | 10454m | -3.1m/s | -44.9°C | 42.8% | 0hPa | 2.5V | 07:53:00 | 00:00:00 | 00:00:00 | |
| PG1ADW-2 | 2026-09-06 04:05:14 | 47.43198 | 15.71314 | 137° | 119km/h | 10460m | -3.2m/s | -44.9°C | 47.2% | 0hPa | 2.5V | 00:00:00 | 00:00:00 | 00:00:00 | |
| OM5KV | 2026-09-06 04:05:13 | 47.43198 | 15.71314 | 138° | 124km/h | 10460m | -3.2m/s | -44.9°C | 42.7% | 0hPa | 2.5V | 07:53:00 | 00:00:00 | 00:00:00 | |
| OE5MMP-10 | 2026-09-06 04:05:12 | 47.43244 | 15.71251 | 138° | 120km/h | 10466m | -3.2m/s | -44.9°C | 47.0% | 0hPa | 2.5V | 00:00:00 | 02:16:16 | 00:00:00 | |
| OE3OSB-13 | 2026-09-06 04:05:10 | 47.43313 | 15.71158 | 137° | 122km/h | 10476m | -3.2m/s | -45.0°C | 42.2% | -1.0hPa | 2.5V | 00:00:00 | 00:00:00 | 00:00:00 | |
| OM5KV | 2026-09-06 04:05:08 | 47.43313 | 15.71158 | 139° | 122km/h | 10476m | -3.2m/s | -45.0°C | 42.4% | 0hPa | 2.5V | 07:53:00 | 00:00:00 | 00:00:00 | |
| OM5KV | 2026-09-06 04:05:07 | 47.43336 | 15.71127 | 139° | 122km/h | 10479m | -2.9m/s | -45.0°C | 42.3% | 0hPa | 2.5V | 07:53:00 | 00:00:00 | 00:00:00 | |
| OE3MUC-15 | 2026-09-06 04:05:06 | 47.43382 | 15.71066 | 138° | 120km/h | 10485m | -3.0m/s | -45.1°C | 46.9% | 0hPa | 2.5V | 00:00:00 | 00:00:00 | 00:00:00 | |
| OE5DXL-15 | 2026-09-06 04:05:05 | 47.43404 | 15.71036 | 138° | 113km/h | 10488m | -3.0m/s | -45.1°C | 46.8% | 0hPa | 2.5V | 00:00:00 | 00:00:00 | 00:00:00 | |
| PETON7-10 | 2026-09-06 04:05:02 | 47.43471 | 15.70947 | 138° | 113km/h | 10497m | -2.9m/s | -45.2°C | 47.0% | 0hPa | 2.5V | 07:53:00 | 02:16:06 | 00:00:00 | |
| OM5KV | 2026-09-06 04:04:59 | 47.43515 | 15.70888 | 139° | 117km/h | 10503m | -3.0m/s | -45.2°C | 42.6% | 0hPa | 2.5V | 07:53:00 | 00:00:00 | 00:00:00 | |
| OE5DRO-10 | 2026-09-06 04:04:57 | 47.43580 | 15.70802 | 138° | 111km/h | 10512m | -2.9m/s | -45.3°C | 47.5% | 0hPa | 2.5V | 00:00:00 | 00:00:00 | 00:00:00 | |
| OM5KV | 2026-09-06 04:04:56 | 47.43580 | 15.70802 | 139° | 115km/h | 10512m | -2.9m/s | -45.3°C | 43.0% | 0hPa | 2.5V | 07:53:00 | 00:00:00 | 00:00:00 | |
| PG1ADW-2 | 2026-09-06 04:04:54 | 47.43644 | 15.70716 | 138° | 111km/h | 10521m | -2.9m/s | -45.3°C | 47.7% | 0hPa | 2.5V | 07:53:00 | 00:00:00 | 00:00:00 | |
| OE8JPQ-2 | 2026-09-06 04:04:53 | 47.43665 | 15.70687 | 138° | 111km/h | 10524m | -3.0m/s | -45.4°C | 48.0% | 0hPa | 2.5V | 00:00:00 | 00:00:00 | 00:00:00 | |
| OM5KV | 2026-09-06 04:04:51 | 47.43686 | 15.70659 | 138° | 113km/h | 10527m | -3.3m/s | -45.5°C | 43.4% | 0hPa | 2.5V | 07:54:00 | 00:00:00 | 00:00:00 | |
| OM5KV | 2026-09-06 04:04:50 | 47.43727 | 15.70601 | 138° | 111km/h | 10534m | -3.1m/s | -45.5°C | 43.3% | 0hPa | 2.5V | 07:54:00 | 00:00:00 | 00:00:00 | |
| OE3MUC-15 | 2026-09-06 04:04:49 | 47.43748 | 15.70573 | 136° | 110km/h | 10537m | -3.0m/s | -45.5°C | 47.6% | 0hPa | 2.5V | 07:53:00 | 00:00:00 | 00:00:00 | |
| OM5KV | 2026-09-06 04:04:48 | 47.43748 | 15.70573 | 137° | 111km/h | 10537m | -3.0m/s | -45.5°C | 43.0% | 0hPa | 2.4V | 07:54:00 | 00:00:00 | 00:00:00 | |
| PETON7-10 | 2026-09-06 04:04:47 | 47.43788 | 15.70515 | 135° | 110km/h | 10542m | -3.1m/s | -45.5°C | 47.7% | 0hPa | 2.4V | 00:00:00 | 00:00:00 | 00:00:00 | |
| OE3MUC-15 | 2026-09-06 04:04:45 | 47.43827 | 15.70456 | 135° | 110km/h | 10549m | -2.9m/s | -45.6°C | 47.7% | 0hPa | 2.5V | 00:00:00 | 00:00:00 | 00:00:00 | |
| OE5MMP-10 | 2026-09-06 04:04:44 | 47.43846 | 15.70427 | 135° | 110km/h | 10551m | -2.9m/s | -45.6°C | 47.5% | 0hPa | 2.5V | 00:00:00 | 02:15:48 | 00:00:00 | |
| OM5KV | 2026-09-06 04:04:42 | 47.43865 | 15.70397 | 135° | 110km/h | 10554m | -3.1m/s | -45.7°C | 43.0% | 0hPa | 2.5V | 07:54:00 | 00:00:00 | 00:00:00 | |
| OE3MUC-15 | 2026-09-06 04:04:41 | 47.43904 | 15.70339 | 134° | 110km/h | 10560m | -3.0m/s | -45.7°C | 47.6% | 0hPa | 2.5V | 00:00:00 | 00:00:00 | 00:00:00 | |
| OM5KV | 2026-09-06 04:04:39 | 47.43942 | 15.70280 | 135° | 110km/h | 10567m | -3.2m/s | -45.7°C | 42.2% | 0hPa | 2.5V | 07:54:00 | 00:00:00 | 00:00:00 | |
| OE5DRO-10 | 2026-09-06 04:04:38 | 47.43961 | 15.70250 | 134° | 110km/h | 10570m | -3.1m/s | -45.7°C | 46.2% | 0hPa | 2.5V | 00:00:00 | 00:00:00 | 00:00:00 | |
| OE3MUC-15 | 2026-09-06 04:04:37 | 47.43980 | 15.70220 | 134° | 110km/h | 10573m | -3.2m/s | -45.6°C | 45.6% | 0hPa | 2.5V | 00:00:00 | 00:00:00 | 00:00:00 | |
| OE5DXL-15 | 2026-09-06 04:04:35 | 47.44019 | 15.70160 | 134° | 111km/h | 10579m | -3.1m/s | -45.7°C | 45.4% | 0hPa | 2.4V | 00:00:00 | 00:00:00 | 00:00:00 | |
| OE5MMP-10 | 2026-09-06 04:04:34 | 47.44038 | 15.70130 | 133° | 110km/h | 10582m | -3.0m/s | -45.7°C | 45.4% | 0hPa | 2.4V | 00:00:00 | 02:15:38 | 00:00:00 | |
| OE3MUC-15 | 2026-09-06 04:04:33 | 47.44057 | 15.70101 | 133° | 110km/h | 10585m | -3.1m/s | -45.7°C | 45.1% | 0hPa | 2.5V | 00:00:00 | 00:00:00 | 00:00:00 | |
| PETON7-10 | 2026-09-06 04:04:32 | 47.44075 | 15.70071 | 133° | 110km/h | 10588m | -3.2m/s | -45.7°C | 45.2% | 0hPa | 2.5V | 00:00:00 | 00:00:00 | 00:00:00 | |
| OE3MUC-15 | 2026-09-06 04:04:29 | 47.44132 | 15.69980 | 133° | 110km/h | 10598m | -3.2m/s | -45.8°C | 45.0% | 0hPa | 2.5V | 00:00:00 | 00:00:00 | 00:00:00 | |
| OM5KV | 2026-09-06 04:04:28 | 47.44132 | 15.69980 | 134° | 110km/h | 10598m | -3.2m/s | -45.8°C | 40.5% | 0hPa | 2.5V | 07:54:00 | 00:00:00 | 00:00:00 | |
| S52SK | 2026-09-06 04:04:27 | 47.44152 | 15.69950 | 134° | 110km/h | 10601m | -3.0m/s | -45.8°C | 40.3% | 0hPa | 2.5V | 00:00:00 | 00:00:00 | 00:00:00 | |
| OE3MUC-15 | 2026-09-06 04:04:25 | 47.44208 | 15.69859 | 132° | 111km/h | 10610m | -3.0m/s | -45.8°C | 44.7% | 0hPa | 2.5V | 00:00:00 | 00:00:00 | 00:00:00 | |
| OE5MMP-10 | 2026-09-06 04:04:24 | 47.44227 | 15.69828 | 133° | 111km/h | 10613m | -3.1m/s | -45.9°C | 44.9% | 0hPa | 2.5V | 07:53:00 | 02:15:28 | 00:00:00 | |
| OM5KV | 2026-09-06 04:04:22 | 47.44245 | 15.69797 | 133° | 110km/h | 10616m | -2.9m/s | -45.9°C | 40.2% | 0hPa | 2.5V | 07:54:00 | 00:00:00 | 00:00:00 | |
| OE3MUC-15 | 2026-09-06 04:04:21 | 47.44283 | 15.69736 | 132° | 111km/h | 10623m | -3.0m/s | -46.0°C | 44.8% | 0hPa | 2.5V | 00:00:00 | 00:00:00 | 00:00:00 | |
| OE5DRO-10 | 2026-09-06 04:04:19 | 47.44320 | 15.69675 | 132° | 111km/h | 10629m | -3.0m/s | -46.0°C | 45.0% | 0hPa | 2.5V | 00:00:00 | 00:00:00 | 00:00:00 | |
| OE3JTB-15 | 2026-09-06 04:04:17 | 47.44357 | 15.69613 | 132° | 111km/h | 10635m | -3.1m/s | -46.1°C | 44.8% | 0hPa | 2.5V | 00:00:00 | 02:15:21 | 00:00:00 | |
| OE5MMP-10 | 2026-09-06 04:04:14 | 47.44413 | 15.69520 | 132° | 111km/h | 10644m | -3.0m/s | -46.1°C | 44.7% | 0hPa | 2.5V | 00:00:00 | 02:15:18 | 00:00:00 | |
| OE3MUC-15 | 2026-09-06 04:04:13 | 47.44431 | 15.69489 | 132° | 111km/h | 10647m | -2.9m/s | -46.2°C | 44.6% | 0hPa | 2.5V | 00:00:00 | 00:00:00 | 00:00:00 | |
| OM5KV | 2026-09-06 04:04:11 | 47.44450 | 15.69458 | 132° | 111km/h | 10650m | -3.1m/s | -46.3°C | 40.1% | 0hPa | 2.5V | 07:54:00 | 00:00:00 | 00:00:00 | |
| OM5KV | 2026-09-06 04:04:10 | 47.44468 | 15.69427 | 132° | 111km/h | 10653m | -3.2m/s | -46.3°C | 40.0% | 0hPa | 2.5V | 07:54:00 | 00:00:00 | 00:00:00 | |
| OM5KV | 2026-09-06 04:04:09 | 47.44486 | 15.69396 | 132° | 111km/h | 10656m | -3.1m/s | -46.3°C | 39.7% | 0hPa | 2.5V | 07:54:00 | 00:00:00 | 00:00:00 | |
| OE3MUC-15 | 2026-09-06 04:04:08 | 47.44523 | 15.69332 | 131° | 113km/h | 10663m | -3.1m/s | -46.3°C | 44.2% | 0hPa | 2.5V | 00:00:00 | 00:00:00 | 00:00:00 | |
| OE5DXL-15 | 2026-09-06 04:04:05 | 47.44577 | 15.69236 | 130° | 115km/h | 10672m | -3.0m/s | -46.4°C | 44.0% | 0hPa | 2.5V | 00:00:00 | 00:00:00 | 00:00:00 | |
| OE5MMP-10 | 2026-09-06 04:04:04 | 47.44595 | 15.69203 | 130° | 113km/h | 10675m | -3.1m/s | -46.4°C | 43.9% | 0hPa | 2.4V | 00:00:00 | 02:15:08 | 00:00:00 | |
| PETON7-10 | 2026-09-06 04:04:02 | 47.44632 | 15.69137 | 129° | 113km/h | 10681m | -3.2m/s | -46.4°C | 43.9% | 0hPa | 2.4V | 00:00:00 | 00:00:00 | 00:00:00 | |
| OM5KV | 2026-09-06 04:04:00 | 47.44649 | 15.69104 | 130° | 113km/h | 10684m | -3.0m/s | -46.5°C | 39.2% | 0hPa | 2.5V | 07:55:00 | 00:00:00 | 00:00:00 | |
| OM5KV | 2026-09-06 04:03:57 | 47.44703 | 15.69005 | 130° | 113km/h | 10694m | -3.1m/s | -46.6°C | 39.2% | 0hPa | 2.5V | 07:55:00 | 00:00:00 | 00:00:00 | |
| OE3MUC-15 | 2026-09-06 04:03:56 | 47.44739 | 15.68940 | 129° | 113km/h | 10700m | -3.1m/s | -46.6°C | 44.0% | 0hPa | 2.5V | 00:00:00 | 00:00:00 | 00:00:00 | |
| OE5MMP-10 | 2026-09-06 04:03:54 | 47.44775 | 15.68874 | 130° | 115km/h | 10706m | -3.2m/s | -46.6°C | 44.1% | 0hPa | 2.5V | 00:00:00 | 02:14:58 | 00:00:00 | |
| OE3MUC-15 | 2026-09-06 04:03:52 | 47.44811 | 15.68808 | 129° | 115km/h | 10713m | -3.1m/s | -46.7°C | 44.4% | 0hPa | 2.5V | 00:00:00 | 00:00:00 | 00:00:00 | |
| OM5KV | 2026-09-06 04:03:51 | 47.44811 | 15.68808 | 130° | 113km/h | 10713m | -3.1m/s | -46.7°C | 39.7% | 0hPa | 2.5V | 07:55:00 | 00:00:00 | 00:00:00 | |
| OE3MUC-15 | 2026-09-06 04:03:48 | 47.44883 | 15.68674 | 128° | 115km/h | 10725m | -3.2m/s | -46.7°C | 45.0% | 0hPa | 2.5V | 00:00:00 | 00:00:00 | 00:00:00 | |
| PETON7-10 | 2026-09-06 04:03:47 | 47.44901 | 15.68640 | 128° | 119km/h | 10728m | -3.0m/s | -46.7°C | 44.5% | 0hPa | 2.5V | 00:00:00 | 00:00:00 | 00:00:00 | |
| OM5KV | 2026-09-06 04:03:45 | 47.44918 | 15.68607 | 129° | 115km/h | 10732m | -3.2m/s | -46.8°C | 40.1% | 0hPa | 2.5V | 07:55:00 | 00:00:00 | 00:00:00 | |
| OE5MMP-10 | 2026-09-06 04:03:44 | 47.44954 | 15.68538 | 128° | 119km/h | 10738m | -3.1m/s | -46.8°C | 44.7% | 0hPa | 2.5V | 00:00:00 | 02:14:48 | 00:00:00 | |
| OE8JPQ-2 | 2026-09-06 04:03:42 | 47.44990 | 15.68469 | 128° | 124km/h | 10745m | -3.2m/s | -46.8°C | 44.4% | 0hPa | 2.5V | 00:00:00 | 00:00:00 | 00:00:00 | |
| OE5DRO-10 | 2026-09-06 04:03:41 | 47.45008 | 15.68434 | 128° | 124km/h | 10748m | -3.2m/s | -46.9°C | 44.4% | 0hPa | 2.5V | 00:00:00 | 00:00:00 | 00:00:00 | |
| OM5KV | 2026-09-06 04:03:39 | 47.45025 | 15.68399 | 128° | 119km/h | 10751m | -3.0m/s | -47.0°C | 39.4% | 0hPa | 2.5V | 07:55:00 | 00:00:00 | 00:00:00 | |
| OE3OSB-13 | 2026-09-06 04:03:37 | 47.45098 | 15.68256 | 126° | 120km/h | 10763m | -3.0m/s | -47.0°C | 39.1% | -1.0hPa | 2.5V | 00:00:00 | 00:00:00 | 00:00:00 | |
| OE5DXL-15 | 2026-09-06 04:03:35 | 47.45117 | 15.68219 | 127° | 128km/h | 10766m | -3.1m/s | -47.0°C | 43.8% | 0hPa | 2.5V | 00:00:00 | 00:00:00 | 00:00:00 | |
| OE5MMP-10 | 2026-09-06 04:03:34 | 47.45135 | 15.68183 | 127° | 126km/h | 10769m | -3.0m/s | -47.0°C | 43.9% | 0hPa | 2.5V | 00:00:00 | 02:14:38 | 00:00:00 | |
| PETON7-10 | 2026-09-06 04:03:32 | 47.45173 | 15.68109 | 128° | 128km/h | 10776m | -3.1m/s | -47.1°C | 44.0% | 0hPa | 2.5V | 00:00:00 | 02:14:36 | 00:00:00 | |
| OM5KV | 2026-09-06 04:03:29 | 47.45212 | 15.68035 | 129° | 126km/h | 10782m | -3.2m/s | -47.1°C | 39.3% | 0hPa | 2.5V | 07:55:00 | 00:00:00 | 00:00:00 | |
| OM5KV | 2026-09-06 04:03:28 | 47.45251 | 15.67961 | 129° | 126km/h | 10789m | -3.2m/s | -47.2°C | 39.3% | 0hPa | 2.5V | 07:55:00 | 00:00:00 | 00:00:00 | |
| OE5MMP-10 | 2026-09-06 04:03:24 | 47.45332 | 15.67812 | 130° | 130km/h | 10802m | -3.1m/s | -47.3°C | 44.3% | 0hPa | 2.5V | 00:00:00 | 02:14:28 | 00:00:00 | |
| OM5KV | 2026-09-06 04:03:23 | 47.45332 | 15.67811 | 130° | 130km/h | 10802m | -3.2m/s | -47.3°C | 39.5% | 0hPa | 2.5V | 07:55:00 | 00:00:00 | 00:00:00 | |
| OE8JPQ-2 | 2026-09-06 04:03:22 | 47.45374 | 15.67737 | 130° | 128km/h | 10808m | -3.2m/s | -47.3°C | 44.1% | 0hPa | 2.5V | 07:55:00 | 00:00:00 | 00:00:00 | |
| OE3MUC-15 | 2026-09-06 04:03:20 | 47.45416 | 15.67663 | 131° | 130km/h | 10815m | -3.3m/s | -47.4°C | 44.3% | 0hPa | 2.5V | 00:00:00 | 00:00:00 | 00:00:00 | |
| OE3JTB-15 | 2026-09-06 04:03:18 | 47.45459 | 15.67590 | 132° | 122km/h | 10821m | -3.4m/s | -47.5°C | 44.5% | 0hPa | 2.5V | 00:00:00 | 00:00:00 | 00:00:00 | |
| PETON7-10 | 2026-09-06 04:03:17 | 47.45481 | 15.67554 | 132° | 128km/h | 10824m | -3.3m/s | -47.5°C | 44.4% | 0hPa | 2.5V | 00:00:00 | 00:00:00 | 00:00:00 | |
| OE3MUC-15 | 2026-09-06 04:03:16 | 47.45503 | 15.67518 | 132° | 130km/h | 10828m | -3.2m/s | -47.5°C | 44.7% | 0hPa | 2.4V | 00:00:00 | 00:00:00 | 00:00:00 | |
| OE5MMP-10 | 2026-09-06 04:03:14 | 47.45547 | 15.67447 | 133° | 128km/h | 10834m | -3.1m/s | -47.6°C | 44.8% | 0hPa | 2.4V | 00:00:00 | 02:14:18 | 00:00:00 | |
| OM5KV | 2026-09-06 04:03:13 | 47.45547 | 15.67447 | 133° | 130km/h | 10834m | -3.2m/s | -47.6°C | 39.9% | 0hPa | 2.4V | 07:55:00 | 00:00:00 | 00:00:00 | |
| OE3MUC-15 | 2026-09-06 04:03:12 | 47.45590 | 15.67376 | 133° | 128km/h | 10841m | -3.2m/s | -47.6°C | 45.3% | 0hPa | 2.4V | 07:55:00 | 00:00:00 | 00:00:00 | |
| OM5KV | 2026-09-06 04:03:11 | 47.45590 | 15.67376 | 133° | 128km/h | 10841m | -3.2m/s | -47.7°C | 40.4% | 0hPa | 2.5V | 07:55:00 | 00:00:00 | 00:00:00 | |
| OE3MUC-15 | 2026-09-06 04:03:08 | 47.45678 | 15.67236 | 134° | 126km/h | 10854m | -3.3m/s | -47.7°C | 46.1% | 0hPa | 2.5V | 00:00:00 | 00:00:00 | 00:00:00 | |
| OE3OSB-13 | 2026-09-06 04:03:06 | 47.45744 | 15.67133 | 133° | 124km/h | 10863m | -3.1m/s | -47.9°C | 40.8% | -1.0hPa | 2.5V | 00:00:00 | 00:00:00 | 00:00:00 | |
| OE5DXL-15 | 2026-09-06 04:03:05 | 47.45744 | 15.67133 | 134° | 119km/h | 10863m | -3.0m/s | -47.8°C | 46.0% | 0hPa | 2.5V | 07:55:00 | 00:00:00 | 00:00:00 | |
| OE5MMP-10 | 2026-09-06 04:03:04 | 47.45766 | 15.67100 | 134° | 120km/h | 10866m | -3.1m/s | -47.8°C | 46.1% | 0hPa | 2.5V | 07:55:00 | 02:14:08 | 00:00:00 | |
| OE5DRO-10 | 2026-09-06 04:03:03 | 47.45788 | 15.67067 | 134° | 119km/h | 10869m | -3.1m/s | -47.9°C | 45.7% | 0hPa | 2.4V | 00:00:00 | 00:00:00 | 00:00:00 | |
| PETON7-10 | 2026-09-06 04:03:02 | 47.45809 | 15.67034 | 135° | 119km/h | 10873m | -3.3m/s | -47.9°C | 45.7% | 0hPa | 2.4V | 07:55:00 | 00:00:00 | 00:00:00 | |
| OE3MUC-15 | 2026-09-06 04:03:00 | 47.45852 | 15.66969 | 135° | 119km/h | 10879m | -3.5m/s | -47.9°C | 45.3% | 0hPa | 2.4V | 00:00:00 | 00:00:00 | 00:00:00 | |
| OM5KV | 2026-09-06 04:02:59 | 47.45852 | 15.66969 | 135° | 120km/h | 10879m | -3.6m/s | -48.0°C | 40.4% | 0hPa | 2.4V | 07:55:00 | 00:00:00 | 00:00:00 | |
| OE3MUC-15 | 2026-09-06 04:02:56 | 47.45936 | 15.66841 | 135° | 117km/h | 10892m | -3.2m/s | -48.0°C | 45.1% | 0hPa | 2.4V | 00:00:00 | 00:00:00 | 00:00:00 | |
| OE5MMP-10 | 2026-09-06 04:02:54 | 47.45978 | 15.66778 | 135° | 117km/h | 10899m | -3.2m/s | -48.0°C | 44.8% | 0hPa | 2.4V | 00:00:00 | 02:13:58 | 00:00:00 | |
| OE3MUC-15 | 2026-09-06 04:02:52 | 47.46019 | 15.66716 | 134° | 117km/h | 10906m | -3.2m/s | -48.0°C | 44.4% | 0hPa | 2.4V | 00:00:00 | 00:00:00 | 00:00:00 | |
| OM5KV | 2026-09-06 04:02:51 | 47.46019 | 15.66716 | 135° | 117km/h | 10906m | -3.3m/s | -48.1°C | 39.5% | 0hPa | 2.4V | 07:55:00 | 00:00:00 | 00:00:00 | |
| OE3JTB-15 | 2026-09-06 04:02:49 | 47.46081 | 15.66622 | 134° | 120km/h | 10916m | -3.4m/s | -48.1°C | 44.4% | 0hPa | 2.4V | 00:00:00 | 02:13:53 | 00:00:00 | |
| OE3MUC-15 | 2026-09-06 04:02:48 | 47.46101 | 15.66590 | 134° | 117km/h | 10919m | -3.3m/s | -48.1°C | 44.2% | 0hPa | 2.4V | 00:00:00 | 00:00:00 | 00:00:00 | |
| PETON7-10 | 2026-09-06 04:02:47 | 47.46121 | 15.66559 | 134° | 120km/h | 10923m | -3.3m/s | -48.1°C | 44.2% | 0hPa | 2.4V | 00:00:00 | 02:13:51 | 00:00:00 | |
| OM5KV | 2026-09-06 04:02:45 | 47.46142 | 15.66527 | 135° | 117km/h | 10926m | -3.3m/s | -48.2°C | 38.8% | 0hPa | 2.4V | 07:55:00 | 00:00:00 | 00:00:00 | |
| OE5MMP-10 | 2026-09-06 04:02:44 | 47.46183 | 15.66463 | 134° | 120km/h | 10933m | -3.3m/s | -48.2°C | 42.8% | 0hPa | 2.4V | 00:00:00 | 02:13:48 | 00:00:00 | |
| OM5KV | 2026-09-06 04:02:42 | 47.46203 | 15.66431 | 134° | 120km/h | 10936m | -3.2m/s | -48.3°C | 37.7% | 0hPa | 2.4V | 07:55:00 | 00:00:00 | 00:00:00 | |
| OE3MUC-15 | 2026-09-06 04:02:40 | 47.46266 | 15.66332 | 133° | 120km/h | 10946m | -2.9m/s | -48.3°C | 41.2% | 0hPa | 2.4V | 07:55:00 | 00:00:00 | 00:00:00 | |
| OE8JPQ-2 | 2026-09-06 04:02:39 | 47.46286 | 15.66298 | 133° | 120km/h | 10949m | -3.1m/s | -48.3°C | 40.9% | 0hPa | 2.4V | 00:00:00 | 00:00:00 | 00:00:00 | |
| OE3MUC-15 | 2026-09-06 04:02:36 | 47.46348 | 15.66197 | 132° | 122km/h | 10958m | -3.1m/s | -48.4°C | 39.3% | 0hPa | 2.4V | 00:00:00 | 00:00:00 | 00:00:00 | |
| OE5DXL-15 | 2026-09-06 04:02:35 | 47.46369 | 15.66164 | 133° | 119km/h | 10961m | -3.2m/s | -48.4°C | 38.6% | 0hPa | 2.4V | 00:00:00 | 00:00:00 | 00:00:00 | |
| OE5MMP-10 | 2026-09-06 04:02:34 | 47.46389 | 15.66130 | 133° | 122km/h | 10964m | -3.3m/s | -48.5°C | 38.0% | 0hPa | 2.4V | 00:00:00 | 02:13:38 | 00:00:00 | |
| OM5KV | 2026-09-06 04:02:33 | 47.46389 | 15.66130 | 133° | 122km/h | 10964m | -3.4m/s | -48.5°C | 33.3% | 0hPa | 2.5V | 07:55:00 | 00:00:00 | 00:00:00 | |
| PETON7-10 | 2026-09-06 04:02:32 | 47.46431 | 15.66062 | 133° | 120km/h | 10971m | -3.6m/s | -48.5°C | 36.5% | 0hPa | 2.5V | 00:00:00 | 00:00:00 | 00:00:00 | |
| OE3MUC-15 | 2026-09-06 04:02:28 | 47.46514 | 15.65927 | 133° | 122km/h | 10986m | -4.0m/s | -48.4°C | 33.2% | 0hPa | 2.5V | 00:00:00 | 00:00:00 | 00:00:00 | |
| OE5DRO-10 | 2026-09-06 04:02:25 | 47.46577 | 15.65827 | 134° | 119km/h | 10996m | -3.7m/s | -48.3°C | 30.6% | 0hPa | 2.5V | 00:00:00 | 00:00:00 | 00:00:00 | |
| OE5MMP-10 | 2026-09-06 04:02:24 | 47.46598 | 15.65793 | 133° | 120km/h | 11000m | -3.4m/s | -48.3°C | 29.6% | 0hPa | 2.5V | 00:00:00 | 02:13:28 | 00:00:00 | |
| OM5KV | 2026-09-06 04:02:22 | 47.46619 | 15.65760 | 134° | 120km/h | 11004m | -3.5m/s | -48.3°C | 25.1% | 0hPa | 2.5V | 07:55:00 | 00:00:00 | 00:00:00 | |
| OE3MUC-15 | 2026-09-06 04:02:20 | 47.46682 | 15.65662 | 134° | 119km/h | 11014m | -3.2m/s | -48.2°C | 27.1% | 0hPa | 2.5V | 00:00:00 | 00:00:00 | 00:00:00 | |
| PETON7-10 | 2026-09-06 04:02:17 | 47.46745 | 15.65566 | 135° | 115km/h | 11024m | -3.6m/s | -48.2°C | 25.5% | 0hPa | 2.5V | 00:00:00 | 00:00:00 | 00:00:00 | |
| OE3MUC-15 | 2026-09-06 04:02:16 | 47.46766 | 15.65534 | 135° | 119km/h | 11027m | -3.3m/s | -48.1°C | 24.9% | 0hPa | 2.5V | 00:00:00 | 00:00:00 | 00:00:00 | |
| OE8JPQ-2 | 2026-09-06 04:02:15 | 47.46787 | 15.65503 | 135° | 113km/h | 11030m | -3.1m/s | -48.1°C | 24.7% | 0hPa | 2.5V | 00:00:00 | 00:00:00 | 00:00:00 | |
| S52SK | 2026-09-06 04:02:14 | 47.46787 | 15.65503 | 136° | 119km/h | 11030m | -3.2m/s | -48.1°C | 21.0% | 0hPa | 2.5V | 00:00:00 | 00:00:00 | 00:00:00 | |
| OE3MUC-15 | 2026-09-06 04:02:12 | 47.46850 | 15.65410 | 136° | 117km/h | 11040m | -3.3m/s | -48.0°C | 24.2% | 0hPa | 2.5V | 00:00:00 | 00:00:00 | 00:00:00 | |
| OM5KV | 2026-09-06 04:02:11 | 47.46851 | 15.65410 | 137° | 117km/h | 11040m | -3.4m/s | -48.1°C | 20.6% | 0hPa | 2.4V | 00:00:00 | 00:00:00 | 00:00:00 | |
| OE3MUC-15 | 2026-09-06 04:02:08 | 47.46935 | 15.65290 | 137° | 113km/h | 11054m | -3.2m/s | -48.1°C | 24.1% | 0hPa | 2.4V | 07:56:00 | 00:00:00 | 00:00:00 | |
| OE5DRO-10 | 2026-09-06 04:02:06 | 47.46977 | 15.65232 | 137° | 108km/h | 11060m | -3.2m/s | -48.1°C | 24.2% | 0hPa | 2.4V | 00:00:00 | 00:00:00 | 00:00:00 | |
| OE5DXL-15 | 2026-09-06 04:02:05 | 47.46998 | 15.65204 | 137° | 108km/h | 11063m | -3.0m/s | -48.1°C | 24.1% | 0hPa | 2.4V | 00:00:00 | 00:00:00 | 00:00:00 | |
| OE5MMP-10 | 2026-09-06 04:02:04 | 47.47018 | 15.65175 | 137° | 108km/h | 11066m | -3.2m/s | -48.2°C | 24.2% | 0hPa | 2.4V | 00:00:00 | 02:13:08 | 00:00:00 | |
| PETON7-10 | 2026-09-06 04:02:02 | 47.47059 | 15.65119 | 137° | 106km/h | 11072m | -3.2m/s | -48.2°C | 24.1% | 0hPa | 2.4V | 00:00:00 | 02:13:06 | 00:00:00 | |
| OE3MUC-15 | 2026-09-06 04:02:00 | 47.47099 | 15.65063 | 137° | 108km/h | 11079m | -3.3m/s | -48.3°C | 24.0% | 0hPa | 2.4V | 00:00:00 | 00:00:00 | 00:00:00 | |
| OE3MUC-15 | 2026-09-06 04:01:56 | 47.47177 | 15.64952 | 136° | 106km/h | 11092m | -3.2m/s | -48.4°C | 24.0% | 0hPa | 2.4V | 00:00:00 | 00:00:00 | 00:00:00 | |
| OE8JPQ-2 | 2026-09-06 04:01:55 | 47.47195 | 15.64924 | 135° | 106km/h | 11095m | -3.1m/s | -48.4°C | 23.9% | 0hPa | 2.4V | 00:00:00 | 02:12:59 | 00:00:00 | |
| OE5MMP-10 | 2026-09-06 04:01:54 | 47.47214 | 15.64896 | 134° | 104km/h | 11098m | -3.3m/s | -48.4°C | 24.0% | 0hPa | 2.4V | 00:00:00 | 02:12:58 | 00:00:00 | |
| OE3MUC-15 | 2026-09-06 04:01:52 | 47.47250 | 15.64838 | 133° | 104km/h | 11105m | -3.3m/s | -48.5°C | 24.0% | 0hPa | 2.4V | 00:00:00 | 00:00:00 | 00:00:00 | |
| OE3JTB-15 | 2026-09-06 04:01:51 | 47.47268 | 15.64810 | 132° | 106km/h | 11108m | -3.1m/s | -48.5°C | 24.0% | 0hPa | 2.4V | 00:00:00 | 00:00:00 | 00:00:00 | |
| OM5KV | 2026-09-06 04:01:49 | 47.47285 | 15.64780 | 132° | 104km/h | 11111m | -3.5m/s | -48.6°C | 20.4% | 0hPa | 2.4V | 00:00:00 | 00:00:00 | 00:00:00 | |
| OE3MUC-15 | 2026-09-06 04:01:48 | 47.47319 | 15.64721 | 130° | 106km/h | 11118m | -3.4m/s | -48.6°C | 24.1% | 0hPa | 2.4V | 00:00:00 | 00:00:00 | 00:00:00 | |
| PETON7-10 | 2026-09-06 04:01:47 | 47.47336 | 15.64691 | 130° | 108km/h | 11122m | -3.3m/s | -48.6°C | 24.1% | 0hPa | 2.4V | 00:00:00 | 00:00:00 | 00:00:00 | |
| OE5MMP-10 | 2026-09-06 04:01:44 | 47.47387 | 15.64599 | 130° | 108km/h | 11132m | -3.4m/s | -48.7°C | 24.0% | 0hPa | 2.5V | 07:56:00 | 02:12:48 | 00:00:00 | |
| OM5KV | 2026-09-06 04:01:40 | 47.47438 | 15.64507 | 130° | 106km/h | 11142m | -3.4m/s | -48.8°C | 20.3% | 0hPa | 2.5V | 00:00:00 | 00:00:00 | 00:00:00 | |
| OE5DXL-15 | 2026-09-06 04:01:35 | 47.47539 | 15.64317 | 128° | 108km/h | 11163m | -3.5m/s | -48.9°C | 24.2% | 0hPa | 2.5V | 00:00:00 | 00:00:00 | 00:00:00 | |
| OE5MMP-10 | 2026-09-06 04:01:34 | 47.47556 | 15.64284 | 128° | 108km/h | 11166m | -3.2m/s | -48.9°C | 24.3% | 0hPa | 2.5V | 00:00:00 | 02:12:38 | 00:00:00 | |
| OE3OSB-13 | 2026-09-06 04:01:33 | 47.47589 | 15.64220 | 127° | 108km/h | 11173m | -3.4m/s | -49.1°C | 20.6% | -1.0hPa | 2.4V | 00:00:00 | 00:00:00 | 00:00:00 | |
| PETON7-10 | 2026-09-06 04:01:32 | 47.47589 | 15.64220 | 128° | 108km/h | 11173m | -3.3m/s | -49.0°C | 24.6% | 0hPa | 2.4V | 00:00:00 | 00:00:00 | 00:00:00 | |
| OM5KV | 2026-09-06 04:01:29 | 47.47623 | 15.64156 | 129° | 108km/h | 11180m | -3.4m/s | -49.1°C | 21.2% | 0hPa | 2.4V | 07:57:00 | 00:00:00 | 00:00:00 | |
| OE5DRO-10 | 2026-09-06 04:01:28 | 47.47657 | 15.64094 | 130° | 108km/h | 11186m | -3.3m/s | -49.2°C | 25.5% | 0hPa | 2.4V | 00:00:00 | 00:00:00 | 00:00:00 | |
| OE5MMP-10 | 2026-09-06 04:01:24 | 47.47726 | 15.63972 | 130° | 108km/h | 11200m | -3.1m/s | -49.3°C | 25.7% | 0hPa | 2.5V | 00:00:00 | 02:12:28 | 00:00:00 | |
| OE3JTB-15 | 2026-09-06 04:01:22 | 47.47760 | 15.63910 | 130° | 110km/h | 11206m | -3.1m/s | -49.4°C | 25.4% | 0hPa | 2.5V | 00:00:00 | 02:12:26 | 00:00:00 | |
| OE3MUC-15 | 2026-09-06 04:01:20 | 47.47795 | 15.63849 | 130° | 108km/h | 11213m | -3.2m/s | -49.4°C | 25.3% | 0hPa | 2.5V | 00:00:00 | 00:00:00 | 00:00:00 | |
| PETON7-10 | 2026-09-06 04:01:17 | 47.47847 | 15.63755 | 130° | 110km/h | 11222m | -3.3m/s | -49.5°C | 25.5% | 0hPa | 2.5V | 00:00:00 | 02:12:21 | 00:00:00 | |
| OE3MUC-15 | 2026-09-06 04:01:16 | 47.47864 | 15.63724 | 129° | 108km/h | 11226m | -3.4m/s | -49.5°C | 25.6% | 0hPa | 2.5V | 00:00:00 | 00:00:00 | 00:00:00 | |
| OE5MMP-10 | 2026-09-06 04:01:14 | 47.47898 | 15.63661 | 129° | 110km/h | 11232m | -3.3m/s | -49.6°C | 25.9% | 0hPa | 2.5V | 00:00:00 | 02:12:18 | 00:00:00 | |
| OE3MUC-15 | 2026-09-06 04:01:12 | 47.47932 | 15.63597 | 128° | 110km/h | 11239m | -3.3m/s | -49.6°C | 25.8% | 0hPa | 2.5V | 00:00:00 | 00:00:00 | 00:00:00 | |
| OM5KV | 2026-09-06 04:01:11 | 47.47932 | 15.63597 | 129° | 108km/h | 11239m | -3.3m/s | -49.7°C | 21.9% | 0hPa | 2.5V | 07:57:00 | 00:00:00 | 00:00:00 | |
| OE5DRO-10 | 2026-09-06 04:01:09 | 47.47982 | 15.63501 | 128° | 113km/h | 11249m | -3.3m/s | -49.7°C | 25.9% | 0hPa | 2.5V | 00:00:00 | 00:00:00 | 00:00:00 | |
| OE3MUC-15 | 2026-09-06 04:01:08 | 47.47999 | 15.63469 | 128° | 110km/h | 11252m | -3.4m/s | -49.7°C | 25.8% | 0hPa | 2.5V | 00:00:00 | 02:12:12 | 00:00:00 | |
| OE5DXL-15 | 2026-09-06 04:01:05 | 47.48049 | 15.63371 | 127° | 117km/h | 11263m | -3.4m/s | -49.8°C | 25.9% | 0hPa | 2.5V | 00:00:00 | 00:00:00 | 00:00:00 | |
| OE3MUC-15 | 2026-09-06 04:01:00 | 47.48131 | 15.63203 | 126° | 113km/h | 11279m | -3.2m/s | -50.0°C | 25.9% | 0hPa | 2.5V | 00:00:00 | 00:00:00 | 00:00:00 | |
| S52SK | 2026-09-06 04:00:57 | 47.48164 | 15.63135 | 126° | 113km/h | 11286m | -3.5m/s | -50.0°C | 21.8% | 0hPa | 2.5V | 00:00:00 | 00:00:00 | 00:00:00 | |
| OE3MUC-15 | 2026-09-06 04:00:56 | 47.48197 | 15.63065 | 125° | 115km/h | 11293m | -3.2m/s | -50.1°C | 25.9% | 0hPa | 2.5V | 00:00:00 | 00:00:00 | 00:00:00 | |
| OM5KV | 2026-09-06 04:00:55 | 47.48197 | 15.63065 | 126° | 115km/h | 11293m | -3.2m/s | -50.1°C | 21.9% | 0hPa | 2.5V | 07:57:00 | 00:00:00 | 00:00:00 | |
| OE5MMP-10 | 2026-09-06 04:00:54 | 47.48230 | 15.62994 | 125° | 119km/h | 11299m | -3.2m/s | -50.1°C | 25.8% | 0hPa | 2.5V | 00:00:00 | 02:11:58 | 00:00:00 | |
| OE3JTB-15 | 2026-09-06 04:00:53 | 47.48247 | 15.62958 | 125° | 120km/h | 11302m | -3.2m/s | -50.2°C | 25.9% | 0hPa | 2.5V | 00:00:00 | 00:00:00 | 00:00:00 | |
| OE3MUC-15 | 2026-09-06 04:00:52 | 47.48264 | 15.62923 | 125° | 117km/h | 11306m | -3.3m/s | -50.2°C | 25.8% | 0hPa | 2.4V | 00:00:00 | 00:00:00 | 00:00:00 | |
| S52SK | 2026-09-06 04:00:51 | 47.48264 | 15.62923 | 126° | 117km/h | 11306m | -3.3m/s | -50.3°C | 21.7% | 0hPa | 2.4V | 00:00:00 | 00:00:00 | 00:00:00 | |
| OE5DRO-10 | 2026-09-06 04:00:50 | 47.48297 | 15.62851 | 125° | 120km/h | 11312m | -3.2m/s | -50.3°C | 25.7% | 0hPa | 2.4V | 07:57:00 | 00:00:00 | 00:00:00 | |
| OE3MUC-15 | 2026-09-06 04:00:48 | 47.48331 | 15.62778 | 125° | 120km/h | 11319m | -3.2m/s | -50.3°C | 25.4% | 0hPa | 2.4V | 00:00:00 | 00:00:00 | 00:00:00 | |
| PETON7-10 | 2026-09-06 04:00:47 | 47.48349 | 15.62741 | 125° | 120km/h | 11322m | -3.2m/s | -50.4°C | 25.2% | 0hPa | 2.4V | 00:00:00 | 00:00:00 | 00:00:00 | |
| OE5MMP-10 | 2026-09-06 04:00:44 | 47.48401 | 15.62630 | 125° | 120km/h | 11332m | -3.3m/s | -50.5°C | 25.1% | 0hPa | 2.4V | 00:00:00 | 02:11:48 | 00:00:00 | |
| OE8JPQ-2 | 2026-09-06 04:00:42 | 47.48436 | 15.62556 | 125° | 122km/h | 11339m | -3.3m/s | -50.5°C | 25.0% | 0hPa | 2.4V | 00:00:00 | 02:11:46 | 00:00:00 | |
| OE3MUC-15 | 2026-09-06 04:00:40 | 47.48471 | 15.62482 | 126° | 120km/h | 11345m | -3.1m/s | -50.5°C | 24.9% | 0hPa | 2.4V | 00:00:00 | 00:00:00 | 00:00:00 | |
| OM5KV | 2026-09-06 04:00:39 | 47.48471 | 15.62482 | 126° | 120km/h | 11345m | -3.2m/s | -50.6°C | 20.9% | 0hPa | 2.4V | 07:58:00 | 00:00:00 | 00:00:00 | |
| OE3MUC-15 | 2026-09-06 04:00:36 | 47.48542 | 15.62334 | 126° | 122km/h | 11358m | -3.2m/s | -50.7°C | 25.1% | 0hPa | 2.4V | 00:00:00 | 00:00:00 | 00:00:00 | |
| OE5DXL-15 | 2026-09-06 04:00:35 | 47.48560 | 15.62297 | 126° | 126km/h | 11362m | -3.4m/s | -50.7°C | 25.2% | 0hPa | 2.4V | 00:00:00 | 00:00:00 | 00:00:00 | |
| OE5MMP-10 | 2026-09-06 04:00:34 | 47.48578 | 15.62260 | 126° | 124km/h | 11365m | -3.3m/s | -50.7°C | 25.2% | 0hPa | 2.4V | 00:00:00 | 02:11:38 | 00:00:00 | |
| PETON7-10 | 2026-09-06 04:00:32 | 47.48614 | 15.62186 | 126° | 126km/h | 11372m | -3.3m/s | -50.8°C | 25.4% | 0hPa | 2.5V | 00:00:00 | 02:11:36 | 00:00:00 | |
| OE3OSB-13 | 2026-09-06 04:00:31 | 47.48670 | 15.62074 | 126° | 124km/h | 11382m | -3.3m/s | -50.9°C | 21.2% | -1.0hPa | 2.5V | 00:00:00 | 00:00:00 | 00:00:00 | |
| OE3MUC-15 | 2026-09-06 04:00:28 | 47.48688 | 15.62037 | 127° | 124km/h | 11385m | -3.5m/s | -50.9°C | 25.7% | 0hPa | 2.5V | 00:00:00 | 00:00:00 | 00:00:00 | |
| OM5KV | 2026-09-06 04:00:27 | 47.48688 | 15.62037 | 128° | 124km/h | 11385m | -3.5m/s | -50.9°C | 21.5% | 0hPa | 2.5V | 07:58:00 | 00:00:00 | 00:00:00 | |
| DG1MFX-10 | 2026-09-06 04:00:25 | 47.48726 | 15.61962 | 128° | 126km/h | 11392m | -3.4m/s | -51.0°C | 21.6% | 0hPa | 2.5V | 00:00:00 | 00:00:00 | 00:00:00 | |
| OE3MUC-15 | 2026-09-06 04:00:24 | 47.48765 | 15.61888 | 128° | 126km/h | 11399m | -3.4m/s | -51.0°C | 25.9% | 0hPa | 2.5V | 00:00:00 | 00:00:00 | 00:00:00 | |
| OE8JPQ-2 | 2026-09-06 04:00:22 | 47.48803 | 15.61813 | 128° | 128km/h | 11406m | -3.2m/s | -51.1°C | 25.9% | 0hPa | 2.4V | 07:58:00 | 00:00:00 | 00:00:00 | |
| OE3MUC-15 | 2026-09-06 04:00:20 | 47.48842 | 15.61738 | 128° | 126km/h | 11413m | -3.4m/s | -51.1°C | 26.0% | 0hPa | 2.5V | 00:00:00 | 00:00:00 | 00:00:00 | |
| PETON7-10 | 2026-09-06 04:00:17 | 47.48901 | 15.61626 | 128° | 128km/h | 11423m | -3.3m/s | -51.2°C | 26.3% | 0hPa | 2.5V | 00:00:00 | 00:00:00 | 00:00:00 | |
| OE3MUC-15 | 2026-09-06 04:00:16 | 47.48921 | 15.61589 | 128° | 126km/h | 11426m | -3.4m/s | -51.2°C | 26.5% | 0hPa | 2.4V | 00:00:00 | 00:00:00 | 00:00:00 | |
| OE5MMP-10 | 2026-09-06 04:00:14 | 47.48960 | 15.61514 | 128° | 128km/h | 11433m | -3.4m/s | -51.3°C | 26.6% | 0hPa | 2.4V | 00:00:00 | 02:11:18 | 00:00:00 | |
| OE3MUC-15 | 2026-09-06 04:00:12 | 47.49000 | 15.61440 | 128° | 128km/h | 11440m | -3.3m/s | -51.4°C | 26.8% | 0hPa | 2.4V | 00:00:00 | 00:00:00 | 00:00:00 | |
| OM5KV | 2026-09-06 04:00:10 | 47.49019 | 15.61403 | 129° | 128km/h | 11443m | -3.5m/s | -51.4°C | 22.7% | 0hPa | 2.5V | 07:58:00 | 00:00:00 | 00:00:00 | |
| OE3MUC-15 | 2026-09-06 04:00:08 | 47.49079 | 15.61291 | 129° | 128km/h | 11454m | -3.4m/s | -51.5°C | 27.3% | 0hPa | 2.5V | 00:00:00 | 00:00:00 | 00:00:00 | |
| OE5DXL-15 | 2026-09-06 04:00:05 | 47.49140 | 15.61179 | 130° | 130km/h | 11464m | -3.4m/s | -51.5°C | 27.6% | 0hPa | 2.5V | 00:00:00 | 00:00:00 | 00:00:00 | |
| OE5MMP-10 | 2026-09-06 04:00:04 | 47.49161 | 15.61142 | 130° | 130km/h | 11467m | -3.3m/s | -51.6°C | 27.7% | 0hPa | 2.5V | 00:00:00 | 02:11:08 | 00:00:00 | |
| OM5KV | 2026-09-06 04:00:03 | 47.49161 | 15.61142 | 130° | 128km/h | 11467m | -3.3m/s | -51.6°C | 23.3% | 0hPa | 2.4V | 07:58:00 | 00:00:00 | 00:00:00 | |
| PETON7-10 | 2026-09-06 04:00:02 | 47.49202 | 15.61068 | 130° | 130km/h | 11474m | -3.5m/s | -51.6°C | 27.8% | 0hPa | 2.4V | 00:00:00 | 00:00:00 | 00:00:00 | |
| OE3MUC-15 | 2026-09-06 04:00:00 | 47.49244 | 15.60993 | 130° | 130km/h | 11481m | -3.5m/s | -51.7°C | 28.1% | 0hPa | 2.4V | 07:58:00 | 00:00:00 | 00:00:00 | |
| OE8JPQ-2 | 2026-09-06 03:59:59 | 47.49265 | 15.60957 | 131° | 130km/h | 11484m | -3.3m/s | -51.7°C | 28.2% | 0hPa | 2.4V | 00:00:00 | 00:00:00 | 00:00:00 | |
| OE3MUC-15 | 2026-09-06 03:59:56 | 47.49329 | 15.60847 | 132° | 130km/h | 11495m | -3.5m/s | 0°C | 0% | 0hPa | 2.4V | 00:00:00 | 00:00:00 | 00:00:00 | |
| OE3JTB-15 | 2026-09-06 03:59:55 | 47.49351 | 15.60810 | 132° | 130km/h | 11498m | -3.3m/s | -51.8°C | 28.6% | 0hPa | 2.4V | 00:00:00 | 02:10:59 | 00:00:00 | |
| PG1ADW-2 | 2026-09-06 03:59:54 | 47.49373 | 15.60774 | 132° | 130km/h | 11501m | -3.4m/s | -51.9°C | 28.7% | 0hPa | 2.4V | 00:00:00 | 00:00:00 | 00:00:00 | |
| OM5KV | 2026-09-06 03:59:53 | 47.49372 | 15.60774 | 133° | 130km/h | 11501m | -3.5m/s | -51.9°C | 24.2% | 0hPa | 2.4V | 07:58:00 | 00:00:00 | 00:00:00 | |
| OE3MUC-15 | 2026-09-06 03:59:52 | 47.49416 | 15.60701 | 132° | 130km/h | 11508m | -3.5m/s | -51.9°C | 29.0% | 0hPa | 2.4V | 00:00:00 | 00:00:00 | 00:00:00 | |
| OE3MUC-15 | 2026-09-06 03:59:48 | 47.49503 | 15.60556 | 132° | 130km/h | 11522m | -3.3m/s | -52.0°C | 29.4% | 0hPa | 2.4V | 00:00:00 | 00:00:00 | 00:00:00 | |
| PETON7-10 | 2026-09-06 03:59:47 | 47.49525 | 15.60520 | 132° | 130km/h | 11526m | -3.5m/s | -52.1°C | 29.8% | 0hPa | 2.5V | 00:00:00 | 02:10:51 | 00:00:00 | |
| OE5MMP-10 | 2026-09-06 03:59:44 | 47.49592 | 15.60412 | 133° | 130km/h | 11536m | -3.5m/s | -52.2°C | 30.2% | 0hPa | 2.5V | 00:00:00 | 02:10:48 | 00:00:00 | |
| OM5KV | 2026-09-06 03:59:41 | 47.49636 | 15.60339 | 133° | 130km/h | 11544m | -3.5m/s | -52.3°C | 25.7% | 0hPa | 2.5V | 07:59:00 | 00:00:00 | 00:00:00 | |
| OE8JPQ-2 | 2026-09-06 03:59:39 | 47.49703 | 15.60232 | 133° | 122km/h | 11554m | -3.6m/s | -52.3°C | 30.9% | 0hPa | 2.5V | 00:00:00 | 02:10:43 | 00:00:00 | |
| OM5KV | 2026-09-06 03:59:36 | 47.49747 | 15.60160 | 134° | 130km/h | 11561m | -3.4m/s | -52.5°C | 26.5% | 0hPa | 2.5V | 07:59:00 | 00:00:00 | 00:00:00 | |
| OE5DXL-15 | 2026-09-06 03:59:35 | 47.49793 | 15.60089 | 134° | 128km/h | 11568m | -3.3m/s | -52.5°C | 31.4% | 0hPa | 2.5V | 00:00:00 | 02:10:39 | 00:00:00 | |
| OE5MMP-10 | 2026-09-06 03:59:34 | 47.49815 | 15.60054 | 134° | 130km/h | 11571m | -3.5m/s | -52.5°C | 31.7% | 0hPa | 2.4V | 00:00:00 | 02:10:38 | 00:00:00 | |
| PETON7-10 | 2026-09-06 03:59:32 | 47.49861 | 15.59984 | 134° | 130km/h | 11579m | -3.5m/s | -52.6°C | 31.9% | 0hPa | 2.4V | 00:00:00 | 00:00:00 | 00:00:00 | |
| OM5KV | 2026-09-06 03:59:30 | 47.49884 | 15.59949 | 135° | 130km/h | 11582m | -3.4m/s | -52.7°C | 27.2% | 0hPa | 2.4V | 07:59:00 | 00:00:00 | 00:00:00 | |
| DG1MFX-10 | 2026-09-06 03:59:27 | 47.49953 | 15.59846 | 136° | 130km/h | 11593m | -3.7m/s | -52.7°C | 27.6% | 0hPa | 2.4V | 00:00:00 | 00:00:00 | 00:00:00 | |
| OE3JTB-15 | 2026-09-06 03:59:26 | 47.49999 | 15.59777 | 135° | 124km/h | 11600m | -3.7m/s | -52.8°C | 33.1% | 0hPa | 2.4V | 00:00:00 | 00:00:00 | 00:00:00 | |
| OM5KV | 2026-09-06 03:59:25 | 47.49999 | 15.59777 | 136° | 130km/h | 11600m | -3.8m/s | -52.8°C | 28.1% | 0hPa | 2.4V | 07:59:00 | 00:00:00 | 00:00:00 | |
| OE5MMP-10 | 2026-09-06 03:59:24 | 47.50045 | 15.59709 | 135° | 128km/h | 11608m | -3.4m/s | -52.8°C | 33.2% | 0hPa | 2.4V | 00:00:00 | 02:10:28 | 00:00:00 | |
| OE3MUC-15 | 2026-09-06 03:59:20 | 47.50138 | 15.59573 | 136° | 128km/h | 11622m | -3.6m/s | -53.0°C | 33.9% | 0hPa | 2.4V | 00:00:00 | 00:00:00 | 00:00:00 | |
| OM5KV | 2026-09-06 03:59:19 | 47.50138 | 15.59573 | 137° | 128km/h | 11622m | -3.6m/s | -53.0°C | 28.8% | 0hPa | 2.4V | 07:59:00 | 00:00:00 | 00:00:00 | |
| PETON7-10 | 2026-09-06 03:59:17 | 47.50208 | 15.59474 | 137° | 124km/h | 11633m | -3.7m/s | -53.1°C | 34.2% | 0hPa | 2.4V | 00:00:00 | 00:00:00 | 00:00:00 | |
| OE3MUC-15 | 2026-09-06 03:59:16 | 47.50231 | 15.59441 | 137° | 126km/h | 11637m | -3.4m/s | -53.1°C | 34.4% | 0hPa | 2.4V | 00:00:00 | 00:00:00 | 00:00:00 | |
| OE5DRO-10 | 2026-09-06 03:59:15 | 47.50255 | 15.59409 | 137° | 122km/h | 11640m | -3.6m/s | -53.1°C | 34.7% | 0hPa | 2.4V | 00:00:00 | 00:00:00 | 00:00:00 | |
| OE5MMP-10 | 2026-09-06 03:59:14 | 47.50278 | 15.59377 | 137° | 124km/h | 11644m | -3.7m/s | -53.2°C | 34.8% | 0hPa | 2.4V | 00:00:00 | 02:10:18 | 00:00:00 | |
| OE3MUC-15 | 2026-09-06 03:59:12 | 47.50325 | 15.59312 | 138° | 124km/h | 11652m | -3.4m/s | -53.2°C | 34.9% | 0hPa | 2.4V | 00:00:00 | 00:00:00 | 00:00:00 | |
| OE3MUC-15 | 2026-09-06 03:59:08 | 47.50417 | 15.59187 | 138° | 122km/h | 11666m | -3.6m/s | -53.3°C | 35.1% | 0hPa | 2.4V | 00:00:00 | 00:00:00 | 00:00:00 | |
| OM5KV | 2026-09-06 03:59:06 | 47.50440 | 15.59156 | 139° | 122km/h | 11670m | -3.6m/s | -53.4°C | 30.2% | 0hPa | 2.4V | 07:59:00 | 00:00:00 | 00:00:00 | |
| OE5DXL-15 | 2026-09-06 03:59:05 | 47.50486 | 15.59094 | 138° | 115km/h | 11677m | -3.6m/s | -53.4°C | 35.7% | 0hPa | 2.4V | 07:59:00 | 00:00:00 | 00:00:00 | |
| OE5MMP-10 | 2026-09-06 03:59:04 | 47.50509 | 15.59064 | 138° | 117km/h | 11681m | -3.6m/s | -53.4°C | 36.0% | 0hPa | 2.4V | 07:59:00 | 02:10:08 | 00:00:00 | |
| PETON7-10 | 2026-09-06 03:59:02 | 47.50554 | 15.59003 | 138° | 115km/h | 11688m | -3.6m/s | -53.5°C | 36.5% | 0hPa | 2.4V | 07:59:00 | 02:10:06 | 00:00:00 | |
| OM5KV | 2026-09-06 03:59:01 | 47.50554 | 15.59003 | 139° | 119km/h | 11688m | -3.7m/s | -53.6°C | 31.1% | 0hPa | 2.4V | 07:59:00 | 00:00:00 | 00:00:00 | |
| DO3MHA-12 | 2026-09-06 03:59:00 | 47.50599 | 15.58943 | 138° | 119km/h | 11695m | -3.5m/s | -53.6°C | 37.0% | 0hPa | 2.4V | 00:00:00 | 02:10:04 | 00:00:00 | |
| OE3MUC-15 | 2026-09-06 03:58:59 | 47.50620 | 15.58913 | 137° | 115km/h | 11699m | -3.6m/s | -53.7°C | 37.2% | 0hPa | 2.4V | 00:00:00 | 00:00:00 | 00:00:00 | |
| OE3JTB-15 | 2026-09-06 03:58:57 | 47.50662 | 15.58853 | 136° | 115km/h | 11706m | -3.3m/s | -53.8°C | 37.6% | 0hPa | 2.5V | 00:00:00 | 00:00:00 | 00:00:00 | |
| OE5DRO-10 | 2026-09-06 03:58:56 | 47.50683 | 15.58823 | 136° | 115km/h | 11709m | -3.4m/s | -53.8°C | 37.7% | 0hPa | 2.5V | 00:00:00 | 00:00:00 | 00:00:00 | |
| OE5MMP-10 | 2026-09-06 03:58:54 | 47.50724 | 15.58763 | 135° | 113km/h | 11716m | -3.7m/s | -53.8°C | 38.1% | 0hPa | 2.5V | 00:00:00 | 02:09:58 | 00:00:00 | |
| OE3MUC-15 | 2026-09-06 03:58:50 | 47.50805 | 15.58642 | 135° | 113km/h | 11730m | -3.6m/s | -54.0°C | 39.2% | 0hPa | 2.5V | 00:00:00 | 00:00:00 | 00:00:00 | |
| PETON7-10 | 2026-09-06 03:58:47 | 47.50865 | 15.58551 | 135° | 115km/h | 11742m | -3.7m/s | -54.1°C | 39.8% | 0hPa | 2.5V | 00:00:00 | 00:00:00 | 00:00:00 | |
| OE3MUC-15 | 2026-09-06 03:58:46 | 47.50886 | 15.58520 | 135° | 113km/h | 11745m | -3.6m/s | -54.1°C | 40.2% | 0hPa | 2.5V | 00:00:00 | 00:00:00 | 00:00:00 | |
| OE5MMP-10 | 2026-09-06 03:58:44 | 47.50926 | 15.58459 | 134° | 115km/h | 11752m | -3.5m/s | -54.1°C | 40.5% | 0hPa | 2.4V | 00:00:00 | 02:09:48 | 00:00:00 | |
| OE3MUC-15 | 2026-09-06 03:58:42 | 47.50965 | 15.58397 | 133° | 115km/h | 11760m | -3.6m/s | -54.2°C | 41.1% | 0hPa | 2.4V | 00:00:00 | 00:00:00 | 00:00:00 | |
| OM5KV | 2026-09-06 03:58:39 | 47.51004 | 15.58333 | 133° | 115km/h | 11767m | -3.6m/s | -54.3°C | 35.7% | 0hPa | 2.4V | 08:00:00 | 00:00:00 | 00:00:00 | |
| OE3MUC-15 | 2026-09-06 03:58:38 | 47.51042 | 15.58268 | 131° | 117km/h | 11774m | -3.8m/s | -54.3°C | 42.2% | 0hPa | 2.4V | 00:00:00 | 00:00:00 | 00:00:00 | |
| DO3MHA-12 | 2026-09-06 03:58:37 | 47.51062 | 15.58236 | 131° | 119km/h | 11778m | -3.7m/s | -54.4°C | 42.4% | 0hPa | 2.4V | 00:00:00 | 02:09:41 | 00:00:00 | |
| OE5DXL-15 | 2026-09-06 03:58:35 | 47.51100 | 15.58169 | 131° | 126km/h | 11785m | -3.6m/s | -54.5°C | 42.8% | 0hPa | 2.5V | 00:00:00 | 00:00:00 | 00:00:00 | |
| OE5MMP-10 | 2026-09-06 03:58:34 | 47.51119 | 15.58135 | 130° | 120km/h | 11789m | -3.8m/s | -54.5°C | 43.1% | 0hPa | 2.5V | 00:00:00 | 02:09:38 | 00:00:00 | |
| OM5KV | 2026-09-06 03:58:33 | 47.51119 | 15.58135 | 131° | 117km/h | 11789m | -3.8m/s | -54.5°C | 37.0% | 0hPa | 2.4V | 08:00:00 | 00:00:00 | 00:00:00 | |
| PETON7-10 | 2026-09-06 03:58:32 | 47.51158 | 15.58068 | 130° | 124km/h | 11797m | -3.8m/s | -54.5°C | 43.2% | 0hPa | 2.4V | 00:00:00 | 00:00:00 | 00:00:00 | |
| OE3MUC-15 | 2026-09-06 03:58:30 | 47.51196 | 15.57999 | 130° | 122km/h | 11805m | -3.7m/s | -54.6°C | 43.9% | 0hPa | 2.4V | 00:00:00 | 00:00:00 | 00:00:00 | |
| OE3JTB-15 | 2026-09-06 03:58:28 | 47.51235 | 15.57929 | 130° | 130km/h | 11812m | -3.8m/s | -54.7°C | 44.5% | 0hPa | 2.4V | 07:59:00 | 02:09:32 | 00:00:00 | |
| OM5KV | 2026-09-06 03:58:27 | 47.51235 | 15.57929 | 130° | 122km/h | 11812m | -3.9m/s | -54.8°C | 38.3% | 0hPa | 2.4V | 08:00:00 | 00:00:00 | 00:00:00 | |
| OE3MUC-15 | 2026-09-06 03:58:26 | 47.51274 | 15.57858 | 130° | 124km/h | 11820m | -3.7m/s | -54.7°C | 45.1% | 0hPa | 2.4V | 00:00:00 | 00:00:00 | 00:00:00 | |
| DO3MHA-12 | 2026-09-06 03:58:25 | 47.51294 | 15.57822 | 130° | 128km/h | 11823m | -3.8m/s | -54.8°C | 45.1% | 0hPa | 2.4V | 00:00:00 | 02:09:29 | 00:00:00 | |
| OE5MMP-10 | 2026-09-06 03:58:24 | 47.51314 | 15.57786 | 130° | 126km/h | 11827m | -3.8m/s | -54.8°C | 45.4% | 0hPa | 2.4V | 00:00:00 | 02:09:28 | 00:00:00 | |
| OE3MUC-15 | 2026-09-06 03:58:22 | 47.51353 | 15.57714 | 130° | 126km/h | 11835m | -3.7m/s | -54.9°C | 45.9% | 0hPa | 2.4V | 00:00:00 | 00:00:00 | 00:00:00 | |
| OM5KV | 2026-09-06 03:58:20 | 47.51373 | 15.57677 | 130° | 126km/h | 11839m | -3.8m/s | -55.0°C | 39.9% | 0hPa | 2.5V | 08:00:00 | 00:00:00 | 00:00:00 | |
| OE3MUC-15 | 2026-09-06 03:58:18 | 47.51434 | 15.57568 | 130° | 128km/h | 11851m | -3.6m/s | -55.0°C | 46.7% | 0hPa | 2.5V | 00:00:00 | 00:00:00 | 00:00:00 | |
| PETON7-10 | 2026-09-06 03:58:17 | 47.51454 | 15.57531 | 130° | 131km/h | 11854m | -3.8m/s | -55.1°C | 46.9% | 0hPa | 2.5V | 00:00:00 | 02:09:21 | 00:00:00 | |
| OM5KV | 2026-09-06 03:58:16 | 47.51454 | 15.57531 | 130° | 128km/h | 11854m | -3.8m/s | -55.1°C | 40.5% | 0hPa | 2.5V | 08:00:00 | 00:00:00 | 00:00:00 | |
| OM5KV | 2026-09-06 03:58:15 | 47.51474 | 15.57495 | 130° | 128km/h | 11858m | -3.7m/s | -55.2°C | 40.7% | 0hPa | 2.5V | 08:00:00 | 00:00:00 | 00:00:00 | |
| OE5MMP-10 | 2026-09-06 03:58:14 | 47.51516 | 15.57421 | 130° | 131km/h | 11866m | -3.7m/s | -55.2°C | 47.6% | 0hPa | 2.5V | 00:00:00 | 02:09:18 | 00:00:00 | |
| OE3MUC-15 | 2026-09-06 03:58:10 | 47.51601 | 15.57271 | 131° | 131km/h | 11881m | -3.7m/s | -55.3°C | 48.6% | 0hPa | 2.5V | 00:00:00 | 02:09:14 | 00:00:00 | |
| OE3MUC-15 | 2026-09-06 03:58:06 | 47.51690 | 15.57123 | 133° | 133km/h | 11896m | -3.8m/s | -55.5°C | 49.5% | 0hPa | 2.5V | 00:00:00 | 00:00:00 | 00:00:00 | |
| OE5DXL-15 | 2026-09-06 03:58:05 | 47.51713 | 15.57086 | 133° | 135km/h | 11900m | -3.7m/s | -55.5°C | 50.0% | 0hPa | 2.5V | 00:00:00 | 00:00:00 | 00:00:00 | |
| OE5MMP-10 | 2026-09-06 03:58:04 | 47.51736 | 15.57050 | 134° | 133km/h | 11904m | -3.7m/s | -55.6°C | 50.2% | 0hPa | 2.5V | 08:00:00 | 02:09:08 | 00:00:00 | |
| OE3MUC-15 | 2026-09-06 03:58:02 | 47.51782 | 15.56977 | 134° | 133km/h | 11911m | -3.9m/s | -55.6°C | 50.8% | 0hPa | 2.4V | 00:00:00 | 00:00:00 | 00:00:00 | |
| OE3OSB-13 | 2026-09-06 03:57:55 | 47.51971 | 15.56689 | 134° | 133km/h | 11942m | -3.8m/s | -55.9°C | 45.8% | -1.0hPa | 2.4V | 00:00:00 | 00:00:00 | 00:00:00 | |
| OE3MUC-15 | 2026-09-06 03:57:54 | 47.51971 | 15.56689 | 135° | 135km/h | 11942m | -3.7m/s | -55.8°C | 53.2% | 0hPa | 2.4V | 00:00:00 | 00:00:00 | 00:00:00 | |
| OE3MUC-15 | 2026-09-06 03:57:50 | 47.52067 | 15.56547 | 135° | 135km/h | 11958m | -3.9m/s | -56.0°C | 54.6% | 0hPa | 2.4V | 00:00:00 | 00:00:00 | 00:00:00 | |
| OM5KV | 2026-09-06 03:57:49 | 47.52067 | 15.56547 | 136° | 135km/h | 11958m | -3.9m/s | -56.0°C | 47.3% | 0hPa | 2.4V | 08:01:00 | 00:00:00 | 00:00:00 | |
| PETON7-10 | 2026-09-06 03:57:47 | 47.52139 | 15.56440 | 136° | 135km/h | 11969m | -4.0m/s | -56.1°C | 55.2% | 0hPa | 2.4V | 00:00:00 | 00:00:00 | 00:00:00 | |
| OE3MUC-15 | 2026-09-06 03:57:46 | 47.52163 | 15.56405 | 136° | 135km/h | 11973m | -4.0m/s | -56.1°C | 55.5% | 0hPa | 2.4V | 00:00:00 | 00:00:00 | 00:00:00 | |
| OE5MMP-10 | 2026-09-06 03:57:44 | 47.52212 | 15.56335 | 137° | 135km/h | 11981m | -3.9m/s | -56.2°C | 55.9% | 0hPa | 2.4V | 00:00:00 | 02:08:48 | 00:00:00 | |
| OE5DRO-10 | 2026-09-06 03:57:40 | 47.52311 | 15.56197 | 137° | 133km/h | 11998m | -4.2m/s | -56.3°C | 57.9% | 0hPa | 2.4V | 00:00:00 | 00:00:00 | 00:00:00 | |
| DO3MHA-12 | 2026-09-06 03:57:39 | 47.52336 | 15.56163 | 137° | 135km/h | 12002m | -4.0m/s | -56.3°C | 58.5% | 0hPa | 2.5V | 00:00:00 | 02:08:43 | 00:00:00 | |
| OE5DXL-15 | 2026-09-06 03:57:35 | 47.52436 | 15.56025 | 138° | 130km/h | 12018m | -3.9m/s | -56.5°C | 60.6% | 0hPa | 2.5V | 00:00:00 | 00:00:00 | 00:00:00 | |
| OE5MMP-10 | 2026-09-06 03:57:34 | 47.52460 | 15.55991 | 138° | 133km/h | 12022m | -3.9m/s | -56.5°C | 61.1% | 0hPa | 2.5V | 00:00:00 | 02:08:38 | 00:00:00 | |
| PETON7-10 | 2026-09-06 03:57:32 | 47.52511 | 15.55923 | 138° | 131km/h | 12030m | -4.0m/s | -56.6°C | 62.2% | 0hPa | 2.5V | 00:00:00 | 02:08:36 | 00:00:00 | |
| OE3JTB-15 | 2026-09-06 03:57:30 | 47.52562 | 15.55856 | 139° | 130km/h | 12038m | -4.0m/s | -56.7°C | 62.8% | 0hPa | 2.5V | 00:00:00 | 00:00:00 | 00:00:00 | |
| DO3MHA-12 | 2026-09-06 03:57:28 | 47.52612 | 15.55790 | 139° | 130km/h | 12046m | -3.8m/s | -56.7°C | 63.5% | 0hPa | 2.5V | 00:00:00 | 02:08:32 | 00:00:00 | |
| S52SK | 2026-09-06 03:57:27 | 47.52612 | 15.55790 | 140° | 133km/h | 12046m | -3.8m/s | -56.7°C | 55.6% | 0hPa | 2.4V | 00:00:00 | 00:00:00 | 00:00:00 | |
| OE5MMP-10 | 2026-09-06 03:57:24 | 47.52714 | 15.55662 | 140° | 130km/h | 12062m | -3.8m/s | -56.8°C | 64.7% | 0hPa | 2.4V | 00:00:00 | 02:08:28 | 00:00:00 | |
| OE5DRO-10 | 2026-09-06 03:57:21 | 47.52789 | 15.55569 | 141° | 128km/h | 12074m | -4.0m/s | -56.8°C | 65.2% | 0hPa | 2.4V | 00:00:00 | 00:00:00 | 00:00:00 | |
| DO3MHA-12 | 2026-09-06 03:57:18 | 47.52865 | 15.55478 | 141° | 128km/h | 12086m | -4.0m/s | -56.9°C | 65.0% | 0hPa | 2.4V | 00:00:00 | 02:08:22 | 00:00:00 | |
| PETON7-10 | 2026-09-06 03:57:17 | 47.52890 | 15.55447 | 141° | 128km/h | 12090m | -3.8m/s | -56.9°C | 64.6% | 0hPa | 2.4V | 00:00:00 | 00:00:00 | 00:00:00 | |
| OE5MMP-10 | 2026-09-06 03:57:14 | 47.52966 | 15.55357 | 142° | 128km/h | 12101m | -4.0m/s | -57.0°C | 65.3% | 0hPa | 2.4V | 00:00:00 | 02:08:18 | 00:00:00 | |
| OM5KV | 2026-09-06 03:57:11 | 47.53016 | 15.55296 | 142° | 128km/h | 12109m | -3.8m/s | -57.1°C | 57.6% | 0hPa | 2.4V | 08:01:00 | 00:00:00 | 00:00:00 | |
| OE3MUC-15 | 2026-09-06 03:57:10 | 47.53067 | 15.55236 | 142° | 128km/h | 12117m | -3.9m/s | -57.2°C | 66.2% | 0hPa | 2.4V | 00:00:00 | 00:00:00 | 00:00:00 | |
| DO3MHA-12 | 2026-09-06 03:57:08 | 47.53117 | 15.55176 | 142° | 126km/h | 12125m | -3.9m/s | -57.2°C | 66.8% | 0hPa | 2.5V | 00:00:00 | 02:08:12 | 00:00:00 | |
| OE3MUC-15 | 2026-09-06 03:57:06 | 47.53168 | 15.55116 | 142° | 126km/h | 12133m | -3.9m/s | -57.3°C | 67.6% | 0hPa | 2.5V | 00:00:00 | 00:00:00 | 00:00:00 | |
| OE5DXL-15 | 2026-09-06 03:57:05 | 47.53193 | 15.55086 | 142° | 122km/h | 12137m | -3.9m/s | -57.3°C | 68.2% | 0hPa | 2.5V | 00:00:00 | 00:00:00 | 00:00:00 | |
| OE5MMP-10 | 2026-09-06 03:57:04 | 47.53218 | 15.55057 | 142° | 122km/h | 12141m | -4.1m/s | -57.4°C | 68.6% | 0hPa | 2.5V | 00:00:00 | 02:08:08 | 00:00:00 | |
| PETON7-10 | 2026-09-06 03:57:02 | 47.53267 | 15.54998 | 141° | 120km/h | 12149m | -3.8m/s | -57.5°C | 68.8% | 0hPa | 2.5V | 00:00:00 | 00:00:00 | 00:00:00 | |
| OE3MUC-15 | 2026-09-06 03:57:01 | 47.53292 | 15.54968 | 141° | 122km/h | 12153m | -3.9m/s | -57.6°C | 69.1% | 0hPa | 2.5V | 00:00:00 | 00:00:00 | 00:00:00 | |
| OE8JPQ-2 | 2026-09-06 03:56:59 | 47.53339 | 15.54909 | 140° | 120km/h | 12160m | -3.9m/s | -57.6°C | 69.0% | 0hPa | 2.5V | 00:00:00 | 02:08:03 | 00:00:00 | |
| DO3MHA-12 | 2026-09-06 03:56:58 | 47.53362 | 15.54880 | 140° | 120km/h | 12164m | -3.8m/s | -57.7°C | 68.9% | 0hPa | 2.5V | 08:01:00 | 02:08:02 | 00:00:00 | |
| OE3MUC-15 | 2026-09-06 03:56:57 | 47.53385 | 15.54850 | 139° | 120km/h | 12168m | -3.9m/s | -57.7°C | 69.1% | 0hPa | 2.5V | 00:00:00 | 00:00:00 | 00:00:00 | |
| OE5MMP-10 | 2026-09-06 03:56:54 | 47.53454 | 15.54760 | 138° | 120km/h | 12180m | -3.9m/s | -57.8°C | 68.4% | 0hPa | 2.5V | 00:00:00 | 02:07:58 | 00:00:00 | |
| OE3MUC-15 | 2026-09-06 03:56:53 | 47.53476 | 15.54730 | 138° | 120km/h | 12184m | -3.9m/s | -57.9°C | 68.5% | 0hPa | 2.5V | 00:00:00 | 00:00:00 | 00:00:00 | |
| OM5KV | 2026-09-06 03:56:52 | 47.53476 | 15.54730 | 139° | 120km/h | 12184m | -4.0m/s | -57.9°C | 60.0% | 0hPa | 2.5V | 08:01:00 | 00:00:00 | 00:00:00 | |
| OE3MUC-15 | 2026-09-06 03:56:49 | 47.53566 | 15.54608 | 138° | 120km/h | 12200m | -4.2m/s | -58.0°C | 68.7% | 0hPa | 2.5V | 00:00:00 | 00:00:00 | 00:00:00 | |
| DO3MHA-12 | 2026-09-06 03:56:48 | 47.53589 | 15.54577 | 138° | 120km/h | 12204m | -4.0m/s | -58.0°C | 68.9% | 0hPa | 2.5V | 00:00:00 | 02:07:52 | 00:00:00 | |
| PETON7-10 | 2026-09-06 03:56:47 | 47.53611 | 15.54547 | 138° | 120km/h | 12208m | -4.1m/s | -58.1°C | 68.9% | 0hPa | 2.5V | 00:00:00 | 02:07:51 | 00:00:00 | |
| OE3MUC-15 | 2026-09-06 03:56:45 | 47.53656 | 15.54486 | 138° | 120km/h | 12216m | -4.0m/s | -58.1°C | 68.9% | 0hPa | 2.5V | 08:01:00 | 00:00:00 | 00:00:00 | |
| OE5DRO-10 | 2026-09-06 03:56:43 | 47.53701 | 15.54424 | 138° | 122km/h | 12224m | -4.1m/s | -58.2°C | 69.0% | 0hPa | 2.5V | 08:01:00 | 00:00:00 | 00:00:00 | |
| OE3MUC-15 | 2026-09-06 03:56:41 | 47.53746 | 15.54362 | 138° | 120km/h | 12232m | -4.1m/s | -58.3°C | 69.1% | 0hPa | 2.5V | 00:00:00 | 00:00:00 | 00:00:00 | |
| OM5KV | 2026-09-06 03:56:40 | 47.53746 | 15.54362 | 138° | 120km/h | 12232m | -4.2m/s | -58.4°C | 60.3% | 0hPa | 2.5V | 08:01:00 | 00:00:00 | 00:00:00 | |
| OE8JPQ-2 | 2026-09-06 03:56:39 | 47.53791 | 15.54301 | 137° | 124km/h | 12240m | -4.1m/s | -58.4°C | 69.2% | 0hPa | 2.5V | 00:00:00 | 00:00:00 | 00:00:00 | |
| DO3MHA-12 | 2026-09-06 03:56:38 | 47.53813 | 15.54270 | 137° | 122km/h | 12245m | -4.1m/s | -58.4°C | 69.2% | 0hPa | 2.5V | 00:00:00 | 02:07:42 | 00:00:00 | |
| OE3MUC-15 | 2026-09-06 03:56:37 | 47.53836 | 15.54239 | 137° | 122km/h | 12249m | -4.1m/s | -58.4°C | 69.0% | 0hPa | 2.5V | 00:00:00 | 00:00:00 | 00:00:00 | |
| OE5DXL-15 | 2026-09-06 03:56:35 | 47.53880 | 15.54176 | 137° | 130km/h | 12257m | -4.0m/s | -58.5°C | 68.7% | 0hPa | 2.5V | 08:01:00 | 00:00:00 | 00:00:00 | |
| OE5MMP-10 | 2026-09-06 03:56:34 | 47.53903 | 15.54145 | 137° | 124km/h | 12261m | -4.1m/s | -58.5°C | 68.7% | 0hPa | 2.5V | 08:01:00 | 02:07:38 | 00:00:00 | |
| OE3MUC-15 | 2026-09-06 03:56:33 | 47.53925 | 15.54113 | 137° | 122km/h | 12265m | -4.0m/s | -58.6°C | 68.5% | 0hPa | 2.5V | 00:00:00 | 00:00:00 | 00:00:00 | |
| PETON7-10 | 2026-09-06 03:56:32 | 47.53947 | 15.54081 | 136° | 126km/h | 12269m | -4.0m/s | -58.6°C | 68.6% | 0hPa | 2.5V | 08:01:00 | 00:00:00 | 00:00:00 | |
| OE3MUC-15 | 2026-09-06 03:56:29 | 47.54014 | 15.53984 | 135° | 124km/h | 12281m | -4.0m/s | -58.7°C | 68.4% | 0hPa | 2.5V | 00:00:00 | 00:00:00 | 00:00:00 | |
| DO3MHA-12 | 2026-09-06 03:56:28 | 47.54036 | 15.53951 | 135° | 126km/h | 12285m | -4.1m/s | -58.7°C | 68.2% | 0hPa | 2.5V | 00:00:00 | 02:07:32 | 00:00:00 | |
| OM5KV | 2026-09-06 03:56:27 | 47.54036 | 15.53951 | 136° | 124km/h | 12285m | -4.2m/s | -58.8°C | 59.4% | 0hPa | 2.5V | 08:01:00 | 00:00:00 | 00:00:00 | |
| OE3MUC-15 | 2026-09-06 03:56:25 | 47.54102 | 15.53852 | 135° | 126km/h | 12298m | -4.1m/s | -58.8°C | 68.1% | 0hPa | 2.5V | 00:00:00 | 00:00:00 | 00:00:00 | |
| OE5MMP-10 | 2026-09-06 03:56:24 | 47.54124 | 15.53818 | 134° | 130km/h | 12302m | -4.1m/s | -58.9°C | 68.0% | 0hPa | 2.5V | 00:00:00 | 02:07:28 | 00:00:00 | |
| OE3OSB-13 | 2026-09-06 03:56:22 | 47.54190 | 15.53716 | 133° | 126km/h | 12315m | -4.3m/s | -59.0°C | 58.2% | -1.0hPa | 2.5V | 00:00:00 | 00:00:00 | 00:00:00 | |
| OE3MUC-15 | 2026-09-06 03:56:21 | 47.54190 | 15.53716 | 134° | 128km/h | 12315m | -4.2m/s | -58.9°C | 67.4% | 0hPa | 2.5V | 00:00:00 | 00:00:00 | 00:00:00 | |
| OE8JPQ-2 | 2026-09-06 03:56:19 | 47.54234 | 15.53646 | 134° | 137km/h | 12323m | -4.4m/s | -58.9°C | 66.7% | 0hPa | 2.5V | 00:00:00 | 00:00:00 | 00:00:00 | |
| DO3MHA-12 | 2026-09-06 03:56:18 | 47.54257 | 15.53610 | 134° | 135km/h | 12328m | -4.1m/s | -58.9°C | 66.3% | 0hPa | 2.5V | 00:00:00 | 02:07:22 | 00:00:00 | |
| PETON7-10 | 2026-09-06 03:56:17 | 47.54279 | 15.53575 | 133° | 137km/h | 12332m | -4.3m/s | -59.0°C | 66.1% | 0hPa | 2.5V | 00:00:00 | 00:00:00 | 00:00:00 | |
| OM5KV | 2026-09-06 03:56:15 | 47.54302 | 15.53539 | 134° | 131km/h | 12336m | -4.3m/s | -59.1°C | 57.3% | 0hPa | 2.5V | 08:02:00 | 00:00:00 | 00:00:00 | |
| OE5MMP-10 | 2026-09-06 03:56:14 | 47.54348 | 15.53466 | 134° | 137km/h | 12345m | -4.2m/s | -59.1°C | 65.6% | 0hPa | 2.5V | 00:00:00 | 02:07:18 | 00:00:00 | |
| OE3MUC-15 | 2026-09-06 03:56:13 | 47.54371 | 15.53430 | 134° | 137km/h | 12349m | -4.3m/s | -59.1°C | 65.7% | 0hPa | 2.5V | 00:00:00 | 00:00:00 | 00:00:00 | |
| OM5KV | 2026-09-06 03:56:10 | 47.54442 | 15.53319 | 135° | 137km/h | 12362m | -4.2m/s | -59.3°C | 56.8% | 0hPa | 2.5V | 08:02:00 | 00:00:00 | 00:00:00 | |
| OE3MUC-15 | 2026-09-06 03:56:09 | 47.54467 | 15.53282 | 135° | 139km/h | 12366m | -4.1m/s | -59.3°C | 65.2% | 0hPa | 2.5V | 08:02:00 | 00:00:00 | 00:00:00 | |
| DO3MHA-12 | 2026-09-06 03:56:08 | 47.54491 | 15.53245 | 135° | 141km/h | 12370m | -4.1m/s | -59.3°C | 64.9% | 0hPa | 2.5V | 00:00:00 | 02:07:12 | 00:00:00 | |
| OE3MUC-15 | 2026-09-06 03:56:05 | 47.54565 | 15.53133 | 135° | 141km/h | 12383m | -4.0m/s | -59.4°C | 65.1% | 0hPa | 2.5V | 00:00:00 | 00:00:00 | 00:00:00 | |
| OE5MMP-10 | 2026-09-06 03:56:04 | 47.54590 | 15.53096 | 136° | 141km/h | 12387m | -4.2m/s | -59.5°C | 65.1% | 0hPa | 2.5V | 00:00:00 | 02:07:08 | 00:00:00 | |
| PETON7-10 | 2026-09-06 03:56:02 | 47.54641 | 15.53023 | 136° | 141km/h | 12395m | -4.3m/s | -59.6°C | 64.6% | 0hPa | 2.5V | 00:00:00 | 02:07:06 | 00:00:00 | |
| OE3OSB-13 | 2026-09-06 03:55:51 | 47.54958 | 15.52597 | 140° | 137km/h | 12446m | -4.2m/s | -60.1°C | 53.3% | -1.0hPa | 2.5V | 00:00:00 | 00:00:00 | 00:00:00 | |
| OE3MUC-15 | 2026-09-06 03:55:49 | 47.54984 | 15.52564 | 141° | 137km/h | 12450m | -4.4m/s | -60.1°C | 62.4% | 0hPa | 2.5V | 00:00:00 | 00:00:00 | 00:00:00 | |
| DO3MHA-12 | 2026-09-06 03:55:48 | 47.55011 | 15.52532 | 141° | 131km/h | 12455m | -4.2m/s | -60.1°C | 62.4% | 0hPa | 2.5V | 00:00:00 | 02:06:52 | 00:00:00 | |
| PETON7-10 | 2026-09-06 03:55:47 | 47.55038 | 15.52499 | 141° | 130km/h | 12459m | -4.6m/s | -60.1°C | 62.5% | 0hPa | 2.5V | 00:00:00 | 00:00:00 | 00:00:00 | |
| OE5DRO-10 | 2026-09-06 03:55:46 | 47.55064 | 15.52468 | 142° | 128km/h | 12464m | -4.3m/s | -60.2°C | 62.2% | 0hPa | 2.5V | 00:00:00 | 00:00:00 | 00:00:00 | |
| OE3MUC-15 | 2026-09-06 03:55:45 | 47.55091 | 15.52436 | 142° | 133km/h | 12468m | -4.5m/s | -60.2°C | 62.6% | 0hPa | 2.5V | 00:00:00 | 00:00:00 | 00:00:00 | |
| OE5MMP-10 | 2026-09-06 03:55:44 | 47.55117 | 15.52405 | 142° | 128km/h | 12472m | -4.5m/s | -60.2°C | 62.5% | 0hPa | 2.5V | 00:00:00 | 02:06:48 | 00:00:00 | |
| OE8JPQ-2 | 2026-09-06 03:55:37 | 47.55295 | 15.52192 | 141° | 124km/h | 12504m | -4.2m/s | -60.5°C | 62.3% | 0hPa | 2.5V | 08:02:00 | 00:00:00 | 00:00:00 | |
| OE5DXL-15 | 2026-09-06 03:55:35 | 47.55343 | 15.52131 | 140° | 126km/h | 12512m | -4.3m/s | -60.6°C | 62.0% | 0hPa | 2.5V | 00:00:00 | 00:00:00 | 00:00:00 | |
| OE5MMP-10 | 2026-09-06 03:55:34 | 47.55367 | 15.52101 | 139° | 124km/h | 12517m | -4.4m/s | -60.6°C | 62.1% | 0hPa | 2.5V | 00:00:00 | 02:06:38 | 00:00:00 | |
| PETON7-10 | 2026-09-06 03:55:32 | 47.55414 | 15.52040 | 138° | 124km/h | 12525m | -4.5m/s | -60.6°C | 61.5% | 0hPa | 2.5V | 00:00:00 | 00:00:00 | 00:00:00 | |
| OM5KV | 2026-09-06 03:55:31 | 47.55414 | 15.52040 | 139° | 122km/h | 12525m | -4.5m/s | -60.7°C | 52.6% | 0hPa | 2.5V | 08:03:00 | 00:00:00 | 00:00:00 | |
| DO3MHA-12 | 2026-09-06 03:55:28 | 47.55505 | 15.51914 | 137° | 124km/h | 12544m | -4.6m/s | -60.8°C | 60.4% | 0hPa | 2.5V | 08:02:00 | 02:06:32 | 00:00:00 | |
| OE5DRO-10 | 2026-09-06 03:55:27 | 47.55527 | 15.51882 | 136° | 126km/h | 12548m | -4.6m/s | -60.8°C | 60.1% | 0hPa | 2.5V | 00:00:00 | 00:00:00 | 00:00:00 | |
| OE5MMP-10 | 2026-09-06 03:55:24 | 47.55594 | 15.51784 | 136° | 124km/h | 12562m | -4.6m/s | -60.9°C | 60.5% | 0hPa | 2.5V | 00:00:00 | 02:06:28 | 00:00:00 | |
| OE3MUC-15 | 2026-09-06 03:55:21 | 47.55660 | 15.51686 | 135° | 126km/h | 12576m | -4.7m/s | -61.0°C | 60.7% | 0hPa | 2.5V | 00:00:00 | 00:00:00 | 00:00:00 | |
| OE3OSB-13 | 2026-09-06 03:55:20 | 47.55705 | 15.51619 | 134° | 124km/h | 12586m | -4.7m/s | -61.1°C | 51.2% | -1.0hPa | 2.5V | 00:00:00 | 00:00:00 | 00:00:00 | |
| DO3MHA-12 | 2026-09-06 03:55:18 | 47.55727 | 15.51586 | 135° | 126km/h | 12591m | -4.7m/s | -61.0°C | 60.1% | 0hPa | 2.5V | 00:00:00 | 02:06:22 | 00:00:00 | |
| PETON7-10 | 2026-09-06 03:55:17 | 47.55749 | 15.51553 | 135° | 128km/h | 12595m | -4.7m/s | -61.0°C | 59.7% | 0hPa | 2.5V | 00:00:00 | 02:06:21 | 00:00:00 | |
| OE5MMP-10 | 2026-09-06 03:55:14 | 47.55816 | 15.51451 | 134° | 128km/h | 12610m | -4.7m/s | -61.1°C | 59.9% | 0hPa | 2.5V | 00:00:00 | 02:06:18 | 00:00:00 | |
| OE3MUC-15 | 2026-09-06 03:55:13 | 47.55838 | 15.51418 | 134° | 128km/h | 12614m | -4.6m/s | -61.1°C | 60.0% | 0hPa | 2.5V | 00:00:00 | 02:06:17 | 00:00:00 | |
| OE8JPQ-2 | 2026-09-06 03:55:11 | 47.55882 | 15.51349 | 134° | 131km/h | 12623m | -4.7m/s | -61.2°C | 60.9% | 0hPa | 2.5V | 00:00:00 | 00:00:00 | 00:00:00 | |
| OE3MUC-15 | 2026-09-06 03:55:09 | 47.55926 | 15.51279 | 133° | 130km/h | 12633m | -4.7m/s | -61.3°C | 61.1% | 0hPa | 2.5V | 00:00:00 | 00:00:00 | 00:00:00 | |
| DO3MHA-12 | 2026-09-06 03:55:08 | 47.55948 | 15.51243 | 133° | 131km/h | 12638m | -4.7m/s | -61.3°C | 61.5% | 0hPa | 2.5V | 00:00:00 | 02:06:12 | 00:00:00 | |
| OM5KV | 2026-09-06 03:55:06 | 47.55970 | 15.51207 | 133° | 130km/h | 12642m | -4.9m/s | -61.4°C | 52.0% | 0hPa | 2.5V | 08:03:00 | 00:00:00 | 00:00:00 | |
| OE3MUC-15 | 2026-09-06 03:55:05 | 47.56014 | 15.51134 | 132° | 131km/h | 12652m | -4.8m/s | -61.4°C | 60.8% | 0hPa | 2.5V | 00:00:00 | 00:00:00 | 00:00:00 | |
| OE5MMP-10 | 2026-09-06 03:55:04 | 47.56036 | 15.51098 | 132° | 131km/h | 12657m | -4.9m/s | -61.5°C | 60.9% | 0hPa | 2.5V | 08:03:00 | 02:06:08 | 00:00:00 | |
| PETON7-10 | 2026-09-06 03:55:02 | 47.56080 | 15.51024 | 132° | 131km/h | 12667m | -5.1m/s | -61.6°C | 60.9% | 0hPa | 2.5V | 00:00:00 | 00:00:00 | 00:00:00 | |
| OE3OSB-13 | 2026-09-06 03:54:49 | 47.56382 | 15.50498 | 129° | 133km/h | 12735m | -4.7m/s | -62.0°C | 51.2% | -1.0hPa | 2.5V | 00:00:00 | 00:00:00 | 00:00:00 | |
| DO3MHA-12 | 2026-09-06 03:54:48 | 47.56382 | 15.50498 | 130° | 141km/h | 12735m | -4.7m/s | -61.9°C | 60.8% | 0hPa | 2.5V | 00:00:00 | 02:05:52 | 00:00:00 | |
| OE8JPQ-2 | 2026-09-06 03:54:47 | 47.56404 | 15.50459 | 130° | 142km/h | 12740m | -4.7m/s | -61.9°C | 60.4% | 0hPa | 2.5V | 00:00:00 | 02:05:51 | 00:00:00 | |
| OE3MUC-15 | 2026-09-06 03:54:45 | 47.56448 | 15.50381 | 130° | 137km/h | 12749m | -4.4m/s | -62.0°C | 60.6% | 0hPa | 2.5V | 00:00:00 | 00:00:00 | 00:00:00 | |
| OE5MMP-10 | 2026-09-06 03:54:44 | 47.56470 | 15.50342 | 130° | 141km/h | 12754m | -4.7m/s | -62.0°C | 60.7% | 0hPa | 2.5V | 00:00:00 | 02:05:48 | 00:00:00 | |
| OM5KV | 2026-09-06 03:54:42 | 47.56492 | 15.50302 | 131° | 137km/h | 12759m | -4.9m/s | -62.1°C | 51.8% | 0hPa | 2.5V | 08:04:00 | 00:00:00 | 00:00:00 | |
| OE3MUC-15 | 2026-09-06 03:54:41 | 47.56536 | 15.50223 | 130° | 141km/h | 12768m | -4.6m/s | -62.0°C | 60.7% | 0hPa | 2.5V | 00:00:00 | 00:00:00 | 00:00:00 | |
| OE3MUC-15 | 2026-09-06 03:54:37 | 47.56627 | 15.50061 | 131° | 142km/h | 12787m | -4.5m/s | -62.2°C | 61.3% | 0hPa | 2.5V | 00:00:00 | 00:00:00 | 00:00:00 | |
| OE3JTB-15 | 2026-09-06 03:54:36 | 47.56650 | 15.50021 | 131° | 146km/h | 12792m | -4.6m/s | -62.2°C | 61.6% | 0hPa | 2.5V | 00:00:00 | 00:00:00 | 00:00:00 | |
| OE5DXL-15 | 2026-09-06 03:54:35 | 47.56674 | 15.49980 | 131° | 148km/h | 12796m | -4.7m/s | -62.2°C | 61.8% | 0hPa | 2.5V | 00:00:00 | 00:00:00 | 00:00:00 | |
| OE5MMP-10 | 2026-09-06 03:54:34 | 47.56698 | 15.49940 | 132° | 146km/h | 12801m | -4.8m/s | -62.3°C | 61.7% | 0hPa | 2.5V | 00:00:00 | 02:05:38 | 00:00:00 | |
| DO3MHA-12 | 2026-09-06 03:54:33 | 47.56722 | 15.49899 | 132° | 146km/h | 12806m | -4.8m/s | -62.3°C | 62.1% | 0hPa | 2.5V | 00:00:00 | 02:05:37 | 00:00:00 | |
| PETON7-10 | 2026-09-06 03:54:32 | 47.56746 | 15.49859 | 132° | 148km/h | 12811m | -5.0m/s | -62.4°C | 62.5% | 0hPa | 2.5V | 00:00:00 | 02:05:36 | 00:00:00 | |
| OE5DRO-10 | 2026-09-06 03:54:30 | 47.56795 | 15.49777 | 132° | 148km/h | 12821m | -4.9m/s | -62.4°C | 62.6% | 0hPa | 2.5V | 00:00:00 | 00:00:00 | 00:00:00 | |
| OE3MUC-15 | 2026-09-06 03:54:29 | 47.56820 | 15.49736 | 132° | 146km/h | 12826m | -5.0m/s | -62.5°C | 63.3% | 0hPa | 2.5V | 00:00:00 | 00:00:00 | 00:00:00 | |
| OM5KV | 2026-09-06 03:54:28 | 47.56820 | 15.49736 | 133° | 146km/h | 12826m | -5.1m/s | -62.6°C | 53.7% | 0hPa | 2.5V | 08:04:00 | 00:00:00 | 00:00:00 | |
| OE8JPQ-2 | 2026-09-06 03:54:27 | 47.56869 | 15.49655 | 133° | 148km/h | 12836m | -5.1m/s | -62.6°C | 62.9% | 0hPa | 2.5V | 00:00:00 | 00:00:00 | 00:00:00 | |
| OE3MUC-15 | 2026-09-06 03:54:25 | 47.56919 | 15.49574 | 133° | 148km/h | 12846m | -5.1m/s | -62.7°C | 63.1% | 0hPa | 2.5V | 00:00:00 | 00:00:00 | 00:00:00 | |
| OE5MMP-10 | 2026-09-06 03:54:24 | 47.56945 | 15.49534 | 133° | 148km/h | 12852m | -5.1m/s | -62.7°C | 62.9% | 0hPa | 2.5V | 00:00:00 | 02:05:28 | 00:00:00 | |
| OE3MUC-15 | 2026-09-06 03:54:21 | 47.57022 | 15.49413 | 134° | 148km/h | 12867m | -5.1m/s | -62.9°C | 62.8% | 0hPa | 2.5V | 08:04:00 | 00:00:00 | 00:00:00 | |
| DO3MHA-12 | 2026-09-06 03:54:20 | 47.57047 | 15.49373 | 134° | 148km/h | 12872m | -5.0m/s | -63.0°C | 63.0% | 0hPa | 2.5V | 00:00:00 | 02:05:24 | 00:00:00 | |
| OE3OSB-13 | 2026-09-06 03:54:18 | 47.57126 | 15.49253 | 134° | 148km/h | 12887m | -5.2m/s | -63.2°C | 52.9% | -1.0hPa | 2.5V | 00:00:00 | 00:00:00 | 00:00:00 | |
| PETON7-10 | 2026-09-06 03:54:17 | 47.57125 | 15.49253 | 135° | 146km/h | 12888m | -5.2m/s | -63.1°C | 63.1% | 0hPa | 2.5V | 08:04:00 | 00:00:00 | 00:00:00 | |
| OE5WHR-10 | 2026-09-06 03:54:15 | 47.57178 | 15.49173 | 135° | 146km/h | 12898m | -5.0m/s | -63.2°C | 63.0% | 0hPa | 2.5V | 00:00:00 | 02:05:19 | 00:00:00 | |
| OE5MMP-10 | 2026-09-06 03:54:14 | 47.57204 | 15.49134 | 135° | 148km/h | 12903m | -4.9m/s | -63.2°C | 62.9% | 0hPa | 2.5V | 00:00:00 | 02:05:18 | 00:00:00 | |
| OE3MUC-15 | 2026-09-06 03:54:13 | 47.57231 | 15.49094 | 135° | 148km/h | 12908m | -5.1m/s | -63.3°C | 62.9% | 0hPa | 2.5V | 00:00:00 | 00:00:00 | 00:00:00 | |
| OM5KV | 2026-09-06 03:54:12 | 47.57231 | 15.49094 | 136° | 148km/h | 12908m | -5.1m/s | -63.3°C | 53.1% | 0hPa | 2.5V | 08:04:00 | 00:00:00 | 00:00:00 | |
| OE5DRO-10 | 2026-09-06 03:54:11 | 47.57284 | 15.49017 | 136° | 144km/h | 12918m | -4.9m/s | -63.3°C | 62.9% | 0hPa | 2.5V | 00:00:00 | 00:00:00 | 00:00:00 | |
| DO3MHA-12 | 2026-09-06 03:54:10 | 47.57310 | 15.48978 | 136° | 146km/h | 12923m | -4.9m/s | -63.3°C | 62.8% | 0hPa | 2.5V | 00:00:00 | 02:05:14 | 00:00:00 | |
| OE3MUC-15 | 2026-09-06 03:54:09 | 47.57337 | 15.48940 | 136° | 146km/h | 12927m | -4.8m/s | -63.3°C | 62.6% | 0hPa | 2.5V | 00:00:00 | 00:00:00 | 00:00:00 | |
| OE8JPQ-2 | 2026-09-06 03:54:07 | 47.57390 | 15.48864 | 137° | 144km/h | 12938m | -5.1m/s | -63.4°C | 62.5% | 0hPa | 2.5V | 00:00:00 | 00:00:00 | 00:00:00 | |
| OE3MUC-15 | 2026-09-06 03:54:05 | 47.57444 | 15.48789 | 137° | 144km/h | 12948m | -5.0m/s | -63.4°C | 62.2% | 0hPa | 2.5V | 00:00:00 | 00:00:00 | 00:00:00 | |
| OE5MMP-10 | 2026-09-06 03:54:04 | 47.57471 | 15.48752 | 138° | 144km/h | 12953m | -5.2m/s | -63.4°C | 62.4% | 0hPa | 2.5V | 00:00:00 | 02:05:08 | 00:00:00 | |
| OM5KV | 2026-09-06 03:54:03 | 47.57471 | 15.48752 | 138° | 144km/h | 12953m | -5.3m/s | -63.4°C | 52.6% | 0hPa | 2.5V | 08:04:00 | 00:00:00 | 00:00:00 | |
| PETON7-10 | 2026-09-06 03:54:02 | 47.57524 | 15.48679 | 138° | 144km/h | 12963m | -5.3m/s | -63.4°C | 62.2% | 0hPa | 2.5V | 00:00:00 | 00:00:00 | 00:00:00 | |
| OE3OSB-13 | 2026-09-06 03:53:47 | 47.57956 | 15.48099 | 138° | 144km/h | 13045m | -5.0m/s | -64.1°C | 50.0% | -1.0hPa | 2.5V | 00:00:00 | 00:00:00 | 00:00:00 | |
| OE3MUC-15 | 2026-09-06 03:53:45 | 47.57983 | 15.48063 | 139° | 144km/h | 13050m | -5.0m/s | -64.1°C | 60.5% | 0hPa | 2.5V | 08:04:00 | 00:00:00 | 00:00:00 | |
| OE5MMP-10 | 2026-09-06 03:53:44 | 47.58011 | 15.48027 | 139° | 139km/h | 13055m | -5.1m/s | -64.1°C | 60.6% | 0hPa | 2.5V | 00:00:00 | 02:04:48 | 00:00:00 | |
| DO3MHA-12 | 2026-09-06 03:53:40 | 47.58119 | 15.47887 | 139° | 135km/h | 13076m | -5.0m/s | -64.3°C | 60.5% | 0hPa | 2.5V | 00:00:00 | 02:04:44 | 00:00:00 | |
| S52SK | 2026-09-06 03:53:39 | 47.58118 | 15.47887 | 140° | 139km/h | 13076m | -5.0m/s | -64.4°C | 50.5% | 0hPa | 2.5V | 00:00:00 | 00:00:00 | 00:00:00 | |
| OE3JTB-15 | 2026-09-06 03:53:38 | 47.58171 | 15.47818 | 139° | 133km/h | 13086m | -4.9m/s | -64.5°C | 60.8% | 0hPa | 2.5V | 08:04:00 | 00:00:00 | 00:00:00 | |
| OE5DXL-15 | 2026-09-06 03:53:35 | 47.58247 | 15.47715 | 138° | 133km/h | 13101m | -5.1m/s | -64.6°C | 61.0% | 0hPa | 2.5V | 00:00:00 | 00:00:00 | 00:00:00 | |
| OE5MMP-10 | 2026-09-06 03:53:34 | 47.58272 | 15.47681 | 137° | 133km/h | 13106m | -4.8m/s | -64.7°C | 60.8% | 0hPa | 2.5V | 08:04:00 | 02:04:38 | 00:00:00 | |
| OE5WHR-10 | 2026-09-06 03:53:33 | 47.58297 | 15.47646 | 136° | 133km/h | 13111m | -5.0m/s | -64.7°C | 60.9% | 0hPa | 2.6V | 00:00:00 | 00:00:00 | 00:00:00 | |
| PETON7-10 | 2026-09-06 03:53:32 | 47.58321 | 15.47612 | 136° | 133km/h | 13116m | -4.9m/s | -64.8°C | 60.5% | 0hPa | 2.6V | 00:00:00 | 00:00:00 | 00:00:00 | |
| OM5KV | 2026-09-06 03:53:31 | 47.58321 | 15.47612 | 136° | 133km/h | 13116m | -5.0m/s | -64.8°C | 50.4% | 0hPa | 2.5V | 08:05:00 | 00:00:00 | 00:00:00 | |
| DO3MHA-12 | 2026-09-06 03:53:30 | 47.58368 | 15.47542 | 135° | 133km/h | 13126m | -5.1m/s | -64.9°C | 60.5% | 0hPa | 2.5V | 00:00:00 | 02:04:34 | 00:00:00 | |
| S52SK | 2026-09-06 03:53:28 | 47.58392 | 15.47506 | 135° | 133km/h | 13131m | -5.0m/s | -65.0°C | 50.3% | 0hPa | 2.5V | 00:00:00 | 00:00:00 | 00:00:00 | |
| OE8JPQ-2 | 2026-09-06 03:53:27 | 47.58439 | 15.47435 | 134° | 133km/h | 13141m | -5.1m/s | -65.0°C | 60.4% | 0hPa | 2.5V | 00:00:00 | 00:00:00 | 00:00:00 | |
| OM5KV | 2026-09-06 03:53:25 | 47.58462 | 15.47399 | 135° | 133km/h | 13147m | -5.2m/s | -65.1°C | 50.3% | 0hPa | 2.5V | 08:05:00 | 00:00:00 | 00:00:00 | |
| OE5MMP-10 | 2026-09-06 03:53:24 | 47.58508 | 15.47327 | 134° | 133km/h | 13157m | -5.0m/s | -65.1°C | 60.1% | 0hPa | 2.5V | 00:00:00 | 02:04:28 | 00:00:00 | |
| OM5KV | 2026-09-06 03:53:22 | 47.58532 | 15.47291 | 135° | 133km/h | 13162m | -5.3m/s | -65.2°C | 50.0% | 0hPa | 2.5V | 08:05:00 | 00:00:00 | 00:00:00 | |
| OE3MUC-15 | 2026-09-06 03:53:21 | 47.58578 | 15.47219 | 135° | 133km/h | 13172m | -5.0m/s | -65.2°C | 59.7% | 0hPa | 2.5V | 00:00:00 | 00:00:00 | 00:00:00 | |
| DO3MHA-12 | 2026-09-06 03:53:20 | 47.58602 | 15.47184 | 135° | 133km/h | 13177m | -5.3m/s | -65.2°C | 59.6% | 0hPa | 2.5V | 00:00:00 | 02:04:24 | 00:00:00 | |
| OM5KV | 2026-09-06 03:53:19 | 47.58602 | 15.47184 | 135° | 133km/h | 13177m | -5.3m/s | -65.3°C | 49.4% | 0hPa | 2.5V | 08:05:00 | 00:00:00 | 00:00:00 | |
| OE3MUC-15 | 2026-09-06 03:53:17 | 47.58672 | 15.47077 | 135° | 133km/h | 13193m | -5.2m/s | -65.4°C | 59.0% | 0hPa | 2.5V | 00:00:00 | 00:00:00 | 00:00:00 | |
| OE3OSB-13 | 2026-09-06 03:53:16 | 47.58743 | 15.46970 | 133° | 131km/h | 13209m | -5.3m/s | -65.6°C | 48.4% | -1.0hPa | 2.5V | 00:00:00 | 00:00:00 | 00:00:00 | |
| OE5MMP-10 | 2026-09-06 03:53:14 | 47.58742 | 15.46969 | 134° | 133km/h | 13209m | -5.2m/s | -65.5°C | 59.1% | 0hPa | 2.5V | 00:00:00 | 02:04:18 | 00:00:00 | |
| OE3MUC-15 | 2026-09-06 03:53:13 | 47.58766 | 15.46933 | 134° | 133km/h | 13214m | -5.2m/s | -65.6°C | 58.7% | 0hPa | 2.5V | 00:00:00 | 00:00:00 | 00:00:00 | |
| OE5WHR-10 | 2026-09-06 03:53:12 | 47.58789 | 15.46897 | 134° | 133km/h | 13219m | -5.2m/s | -65.6°C | 58.4% | 0hPa | 2.5V | 00:00:00 | 02:04:16 | 00:00:00 | |
| DO3MHA-12 | 2026-09-06 03:53:10 | 47.58835 | 15.46824 | 133° | 133km/h | 13230m | -5.2m/s | -65.7°C | 58.3% | 0hPa | 2.5V | 00:00:00 | 02:04:14 | 00:00:00 | |
| OE3MUC-15 | 2026-09-06 03:53:09 | 47.58858 | 15.46788 | 133° | 133km/h | 13235m | -5.2m/s | -65.7°C | 57.9% | 0hPa | 2.5V | 08:05:00 | 00:00:00 | 00:00:00 | |
| OM5KV | 2026-09-06 03:53:08 | 47.58858 | 15.46788 | 134° | 133km/h | 13235m | -5.2m/s | -65.8°C | 47.7% | 0hPa | 2.5V | 08:05:00 | 00:00:00 | 00:00:00 | |
| OE8JPQ-2 | 2026-09-06 03:53:07 | 47.58904 | 15.46714 | 133° | 133km/h | 13246m | -5.3m/s | -65.8°C | 58.0% | 0hPa | 2.5V | 00:00:00 | 00:00:00 | 00:00:00 | |
| OE3MUC-15 | 2026-09-06 03:53:05 | 47.58950 | 15.46640 | 133° | 133km/h | 13256m | -5.1m/s | -65.9°C | 57.5% | 0hPa | 2.5V | 00:00:00 | 00:00:00 | 00:00:00 | |
| OE5MMP-10 | 2026-09-06 03:53:04 | 47.58973 | 15.46603 | 133° | 133km/h | 13261m | -5.3m/s | -66.0°C | 57.3% | 0hPa | 2.5V | 00:00:00 | 02:04:08 | 00:00:00 | |
| PETON7-10 | 2026-09-06 03:53:02 | 47.59018 | 15.46529 | 132° | 133km/h | 13272m | -5.0m/s | -66.0°C | 56.7% | 0hPa | 2.5V | 00:00:00 | 02:04:06 | 00:00:00 | |
| OE3MUC-15 | 2026-09-06 03:53:01 | 47.59041 | 15.46491 | 132° | 133km/h | 13277m | -5.1m/s | -66.1°C | 56.8% | 0hPa | 2.5V | 00:00:00 | 00:00:00 | 00:00:00 | |
| DO3MHA-12 | 2026-09-06 03:53:00 | 47.59063 | 15.46454 | 133° | 133km/h | 13282m | -5.2m/s | -66.1°C | 56.5% | 0hPa | 2.5V | 00:00:00 | 02:04:04 | 00:00:00 | |
| OM5KV | 2026-09-06 03:52:59 | 47.59063 | 15.46454 | 133° | 133km/h | 13282m | -5.2m/s | -66.2°C | 46.3% | 0hPa | 2.5V | 08:06:00 | 00:00:00 | 00:00:00 | |
| OE3MUC-15 | 2026-09-06 03:52:57 | 47.59131 | 15.46344 | 133° | 133km/h | 13298m | -5.3m/s | -66.3°C | 56.2% | 0hPa | 2.5V | 00:00:00 | 00:00:00 | 00:00:00 | |
| OE5DRO-10 | 2026-09-06 03:52:55 | 47.59177 | 15.46272 | 133° | 133km/h | 13308m | -5.2m/s | -66.4°C | 55.8% | 0hPa | 2.5V | 00:00:00 | 00:00:00 | 00:00:00 | |
| PG1ADW-2 | 2026-09-06 03:52:54 | 47.59199 | 15.46235 | 133° | 135km/h | 13314m | -5.3m/s | -66.4°C | 55.8% | 0hPa | 2.5V | 00:00:00 | 00:00:00 | 00:00:00 | |
| OE3MUC-15 | 2026-09-06 03:52:53 | 47.59222 | 15.46199 | 133° | 133km/h | 13319m | -5.2m/s | -66.5°C | 55.4% | 0hPa | 2.5V | 00:00:00 | 00:00:00 | 00:00:00 | |
| OE5WHR-10 | 2026-09-06 03:52:51 | 47.59267 | 15.46125 | 132° | 135km/h | 13330m | -5.2m/s | -66.6°C | 55.5% | 0hPa | 2.5V | 00:00:00 | 00:00:00 | 00:00:00 | |
| OE3MUC-15 | 2026-09-06 03:52:49 | 47.59312 | 15.46051 | 132° | 133km/h | 13340m | -5.0m/s | -66.6°C | 55.3% | 0hPa | 2.5V | 00:00:00 | 00:00:00 | 00:00:00 | |
| OE8JPQ-2 | 2026-09-06 03:52:47 | 47.59357 | 15.45976 | 132° | 137km/h | 13350m | -5.2m/s | -66.7°C | 55.2% | 0hPa | 2.5V | 00:00:00 | 02:03:51 | 00:00:00 | |
| OE3MUC-15 | 2026-09-06 03:52:45 | 47.59401 | 15.45901 | 132° | 133km/h | 13361m | -5.0m/s | -66.8°C | 55.3% | 0hPa | 2.5V | 00:00:00 | 00:00:00 | 00:00:00 | |
| OE5MMP-10 | 2026-09-06 03:52:44 | 47.59423 | 15.45864 | 131° | 135km/h | 13366m | -5.1m/s | -66.8°C | 55.4% | 0hPa | 2.5V | 00:00:00 | 02:03:48 | 00:00:00 | |
| OE3MUC-15 | 2026-09-06 03:52:41 | 47.59490 | 15.45749 | 131° | 135km/h | 13381m | -5.2m/s | -67.1°C | 55.4% | 0hPa | 2.5V | 00:00:00 | 00:00:00 | 00:00:00 | |
| DO3MHA-12 | 2026-09-06 03:52:40 | 47.59512 | 15.45710 | 130° | 139km/h | 13386m | -5.1m/s | -67.1°C | 55.4% | 0hPa | 2.5V | 00:00:00 | 02:03:44 | 00:00:00 | |
| OE3MUC-15 | 2026-09-06 03:52:37 | 47.59578 | 15.45593 | 130° | 139km/h | 13402m | -5.2m/s | -67.3°C | 55.2% | 0hPa | 2.5V | 00:00:00 | 00:00:00 | 00:00:00 | |
| OE5DRO-10 | 2026-09-06 03:52:36 | 47.59599 | 15.45553 | 130° | 144km/h | 13408m | -5.2m/s | -67.3°C | 55.4% | 0hPa | 2.5V | 00:00:00 | 00:00:00 | 00:00:00 | |
| OE5DXL-15 | 2026-09-06 03:52:35 | 47.59621 | 15.45513 | 129° | 150km/h | 13413m | -5.3m/s | -67.4°C | 55.8% | 0hPa | 2.5V | 00:00:00 | 00:00:00 | 00:00:00 | |
| OE5MMP-10 | 2026-09-06 03:52:34 | 47.59643 | 15.45472 | 129° | 142km/h | 13419m | -5.4m/s | -67.4°C | 55.9% | 0hPa | 2.5V | 00:00:00 | 02:03:38 | 00:00:00 | |
| OE3MUC-15 | 2026-09-06 03:52:33 | 47.59665 | 15.45431 | 129° | 141km/h | 13424m | -5.5m/s | -67.4°C | 56.2% | 0hPa | 2.5V | 08:05:00 | 00:00:00 | 00:00:00 | |
| PETON7-10 | 2026-09-06 03:52:32 | 47.59687 | 15.45390 | 129° | 146km/h | 13429m | -5.6m/s | -67.4°C | 56.1% | 0hPa | 2.5V | 00:00:00 | 00:00:00 | 00:00:00 | |
| DO3MHA-12 | 2026-09-06 03:52:30 | 47.59731 | 15.45307 | 128° | 144km/h | 13441m | -5.8m/s | -67.4°C | 56.3% | 0hPa | 2.5V | 00:00:00 | 02:03:34 | 00:00:00 | |
| OE3MUC-15 | 2026-09-06 03:52:29 | 47.59753 | 15.45265 | 128° | 144km/h | 13447m | -5.9m/s | -67.5°C | 56.2% | 0hPa | 2.5V | 00:00:00 | 00:00:00 | 00:00:00 | |
| OM5KV | 2026-09-06 03:52:28 | 47.59753 | 15.45265 | 129° | 142km/h | 13447m | -6.0m/s | -67.5°C | 45.3% | 0hPa | 2.5V | 08:06:00 | 00:00:00 | 00:00:00 | |
| OE8JPQ-2 | 2026-09-06 03:52:27 | 47.59797 | 15.45180 | 128° | 151km/h | 13458m | -5.6m/s | -67.6°C | 55.7% | 0hPa | 2.5V | 08:05:00 | 00:00:00 | 00:00:00 | |
| OE3MUC-15 | 2026-09-06 03:52:25 | 47.59842 | 15.45095 | 128° | 146km/h | 13470m | -5.6m/s | -67.7°C | 55.4% | 0hPa | 2.6V | 00:00:00 | 00:00:00 | 00:00:00 | |
| OE5MMP-10 | 2026-09-06 03:52:24 | 47.59864 | 15.45051 | 128° | 150km/h | 13476m | -5.4m/s | -67.7°C | 54.9% | 0hPa | 2.6V | 00:00:00 | 02:03:28 | 00:00:00 | |
| OE3MUC-15 | 2026-09-06 03:52:21 | 47.59932 | 15.44921 | 128° | 150km/h | 13492m | -5.4m/s | -67.8°C | 54.4% | 0hPa | 2.6V | 00:00:00 | 00:00:00 | 00:00:00 | |
| DO3MHA-12 | 2026-09-06 03:52:20 | 47.59956 | 15.44877 | 128° | 153km/h | 13497m | -5.6m/s | -67.8°C | 54.4% | 0hPa | 2.5V | 08:06:00 | 02:03:24 | 00:00:00 | |
| PETON7-10 | 2026-09-06 03:52:17 | 47.60026 | 15.44743 | 128° | 157km/h | 13514m | -5.2m/s | -67.7°C | 53.0% | 0hPa | 2.5V | 00:00:00 | 02:03:21 | 00:00:00 | |
| S52SK | 2026-09-06 03:52:15 | 47.60050 | 15.44697 | 129° | 153km/h | 13520m | -5.5m/s | -67.8°C | 42.4% | 0hPa | 2.5V | 08:06:00 | 00:00:00 | 00:00:00 | |
| OE5MMP-10 | 2026-09-06 03:52:14 | 47.60098 | 15.44607 | 129° | 157km/h | 13530m | -5.2m/s | -67.7°C | 52.8% | 0hPa | 2.5V | 00:00:00 | 02:03:18 | 00:00:00 | |
| DB0NH | 2026-09-06 03:52:13 | 47.60123 | 15.44562 | 130° | 153km/h | 13536m | -5.1m/s | -67.7°C | 52.8% | 0hPa | 2.5V | 00:00:00 | 02:03:17 | 00:00:00 | |
| OE3JTB-15 | 2026-09-06 03:52:11 | 47.60173 | 15.44471 | 130° | 153km/h | 13546m | -5.3m/s | -67.7°C | 52.7% | 0hPa | 2.5V | 00:00:00 | 00:00:00 | 00:00:00 | |
| DO3MHA-12 | 2026-09-06 03:52:10 | 47.60199 | 15.44426 | 131° | 157km/h | 13551m | -5.0m/s | -67.7°C | 52.8% | 0hPa | 2.5V | 00:00:00 | 02:03:14 | 00:00:00 | |
| OE3MUC-15 | 2026-09-06 03:52:09 | 47.60225 | 15.44381 | 131° | 157km/h | 13556m | -5.1m/s | -67.7°C | 52.5% | 0hPa | 2.5V | 00:00:00 | 00:00:00 | 00:00:00 | |
| OE8JPQ-2 | 2026-09-06 03:52:07 | 47.60276 | 15.44292 | 131° | 153km/h | 13567m | -5.4m/s | -67.7°C | 52.4% | 0hPa | 2.5V | 00:00:00 | 00:00:00 | 00:00:00 | |
| OM5KV | 2026-09-06 03:52:06 | 47.60276 | 15.44292 | 132° | 157km/h | 13567m | -5.5m/s | -67.8°C | 41.8% | 0hPa | 2.5V | 08:07:00 | 00:00:00 | 00:00:00 | |
| OE5DXL-15 | 2026-09-06 03:52:05 | 47.60329 | 15.44203 | 132° | 150km/h | 13578m | -5.6m/s | -67.7°C | 51.3% | 0hPa | 2.5V | 08:06:00 | 00:00:00 | 00:00:00 | |
| OE5MMP-10 | 2026-09-06 03:52:04 | 47.60355 | 15.44158 | 132° | 157km/h | 13583m | -5.3m/s | -67.6°C | 50.8% | 0hPa | 2.5V | 08:06:00 | 02:03:08 | 00:00:00 | |
| OE3MUC-15 | 2026-09-06 03:52:01 | 47.60434 | 15.44026 | 133° | 157km/h | 13600m | -5.5m/s | -67.6°C | 50.2% | 0hPa | 2.5V | 00:00:00 | 00:00:00 | 00:00:00 | |
| DO3MHA-12 | 2026-09-06 03:52:00 | 47.60461 | 15.43983 | 133° | 153km/h | 13605m | -5.4m/s | -67.7°C | 49.9% | 0hPa | 2.5V | 00:00:00 | 02:03:04 | 00:00:00 | |
| OM5KV | 2026-09-06 03:51:59 | 47.60461 | 15.43983 | 133° | 157km/h | 13605m | -5.4m/s | -67.7°C | 39.6% | 0hPa | 2.5V | 08:07:00 | 00:00:00 | 00:00:00 | |
| OE5DRO-10 | 2026-09-06 03:51:58 | 47.60515 | 15.43896 | 133° | 148km/h | 13616m | -5.4m/s | -67.7°C | 49.7% | 0hPa | 2.5V | 00:00:00 | 00:00:00 | 00:00:00 | |
| OE3MUC-15 | 2026-09-06 03:51:57 | 47.60541 | 15.43854 | 134° | 153km/h | 13622m | -5.6m/s | -67.8°C | 49.7% | 0hPa | 2.5V | 08:06:00 | 00:00:00 | 00:00:00 | |
| OM5KV | 2026-09-06 03:51:55 | 47.60568 | 15.43812 | 134° | 153km/h | 13627m | -5.4m/s | -67.9°C | 39.2% | 0hPa | 2.5V | 08:07:00 | 00:00:00 | 00:00:00 | |
| OE5MMP-10 | 2026-09-06 03:51:54 | 47.60621 | 15.43728 | 134° | 148km/h | 13638m | -5.5m/s | -67.8°C | 49.2% | 0hPa | 2.5V | 00:00:00 | 02:02:58 | 00:00:00 | |
| OE3MUC-15 | 2026-09-06 03:51:53 | 47.60647 | 15.43687 | 134° | 150km/h | 13643m | -5.5m/s | -67.8°C | 49.1% | 0hPa | 2.5V | 00:00:00 | 00:00:00 | 00:00:00 | |
| OM5KV | 2026-09-06 03:51:52 | 47.60647 | 15.43688 | 135° | 151km/h | 13643m | -5.6m/s | -67.9°C | 38.8% | 0hPa | 2.5V | 08:07:00 | 00:00:00 | 00:00:00 | |
| DO3MHA-12 | 2026-09-06 03:51:50 | 47.60726 | 15.43567 | 135° | 146km/h | 13660m | -5.6m/s | -67.8°C | 48.2% | 0hPa | 2.5V | 00:00:00 | 02:02:54 | 00:00:00 | |
| OE3MUC-15 | 2026-09-06 03:51:49 | 47.60752 | 15.43527 | 135° | 146km/h | 13666m | -5.8m/s | -67.8°C | 48.2% | 0hPa | 2.5V | 00:00:00 | 00:00:00 | 00:00:00 | |
| OE5WHR-10 | 2026-09-06 03:51:48 | 47.60778 | 15.43488 | 135° | 144km/h | 13672m | -5.9m/s | -67.8°C | 47.9% | 0hPa | 2.5V | 00:00:00 | 00:00:00 | 00:00:00 | |
| PETON7-10 | 2026-09-06 03:51:47 | 47.60804 | 15.43448 | 135° | 144km/h | 13678m | -5.9m/s | -67.8°C | 47.7% | 0hPa | 2.5V | 00:00:00 | 00:00:00 | 00:00:00 | |
| OE3MUC-15 | 2026-09-06 03:51:45 | 47.60855 | 15.43369 | 134° | 146km/h | 13689m | -5.6m/s | -67.6°C | 46.5% | 0hPa | 2.5V | 00:00:00 | 00:00:00 | 00:00:00 | |
| OE5MMP-10 | 2026-09-06 03:51:44 | 47.60880 | 15.43330 | 134° | 144km/h | 13695m | -5.6m/s | -67.6°C | 46.4% | 0hPa | 2.5V | 00:00:00 | 02:02:48 | 00:00:00 | |
| DB0NH | 2026-09-06 03:51:43 | 47.60906 | 15.43290 | 134° | 150km/h | 13700m | -5.5m/s | -67.6°C | 46.2% | 0hPa | 2.5V | 00:00:00 | 02:02:47 | 00:00:00 | |
| OE3JTB-15 | 2026-09-06 03:51:42 | 47.60931 | 15.43251 | 133° | 150km/h | 13706m | -5.5m/s | -67.6°C | 46.1% | 0hPa | 2.5V | 00:00:00 | 00:00:00 | 00:00:00 | |
| OE5DRO-10 | 2026-09-06 03:51:39 | 47.61005 | 15.43131 | 132° | 146km/h | 13722m | -5.5m/s | -67.7°C | 45.9% | 0hPa | 2.5V | 00:00:00 | 00:00:00 | 00:00:00 | |
| OE5DXL-15 | 2026-09-06 03:51:35 | 47.61101 | 15.42971 | 132° | 153km/h | 13745m | -5.6m/s | -67.7°C | 44.4% | 0hPa | 2.5V | 00:00:00 | 00:00:00 | 00:00:00 | |
| OE5MMP-10 | 2026-09-06 03:51:34 | 47.61125 | 15.42930 | 132° | 146km/h | 13750m | -5.6m/s | -67.6°C | 43.8% | 0hPa | 2.5V | 00:00:00 | 02:02:38 | 00:00:00 | |
| OM5KV | 2026-09-06 03:51:33 | 47.61125 | 15.42930 | 132° | 142km/h | 13750m | -5.6m/s | -67.7°C | 34.1% | 0hPa | 2.5V | 08:07:00 | 00:00:00 | 00:00:00 | |
| PETON7-10 | 2026-09-06 03:51:32 | 47.61172 | 15.42849 | 131° | 150km/h | 13761m | -5.5m/s | -67.5°C | 43.0% | 0hPa | 2.5V | 00:00:00 | 02:02:36 | 00:00:00 | |
| DO3MHA-12 | 2026-09-06 03:51:30 | 47.61219 | 15.42766 | 130° | 150km/h | 13773m | -5.6m/s | -67.4°C | 42.1% | 0hPa | 2.5V | 00:00:00 | 02:02:34 | 00:00:00 | |
| OM5KV | 2026-09-06 03:51:28 | 47.61242 | 15.42723 | 130° | 146km/h | 13778m | -5.7m/s | -67.3°C | 31.8% | 0hPa | 2.5V | 08:07:00 | 00:00:00 | 00:00:00 | |
| OE8JPQ-2 | 2026-09-06 03:51:27 | 47.61288 | 15.42638 | 129° | 155km/h | 13790m | -5.7m/s | -67.0°C | 39.1% | 0hPa | 2.5V | 00:00:00 | 00:00:00 | 00:00:00 | |
| OE5MMP-10 | 2026-09-06 03:51:24 | 47.61358 | 15.42506 | 129° | 157km/h | 13807m | -5.5m/s | -67.1°C | 39.1% | 0hPa | 2.5V | 00:00:00 | 02:02:28 | 00:00:00 | |
| OM5KV | 2026-09-06 03:51:23 | 47.61358 | 15.42506 | 129° | 151km/h | 13807m | -5.6m/s | -67.1°C | 30.1% | 0hPa | 2.5V | 08:07:00 | 00:00:00 | 00:00:00 | |
| OE3MUC-15 | 2026-09-06 03:51:21 | 47.61431 | 15.42371 | 130° | 157km/h | 13824m | -5.4m/s | -67.3°C | 39.1% | 0hPa | 2.5V | 08:07:00 | 00:00:00 | 00:00:00 | |
| DO3MHA-12 | 2026-09-06 03:51:20 | 47.61456 | 15.42326 | 130° | 159km/h | 13829m | -5.4m/s | -67.2°C | 38.3% | 0hPa | 2.5V | 00:00:00 | 02:02:24 | 00:00:00 | |
| PETON7-10 | 2026-09-06 03:51:17 | 47.61534 | 15.42191 | 132° | 157km/h | 13845m | -5.5m/s | -67.2°C | 36.8% | 0hPa | 2.5V | 00:00:00 | 00:00:00 | 00:00:00 | |
| OM5KV | 2026-09-06 03:51:15 | 47.61560 | 15.42147 | 133° | 159km/h | 13851m | -5.5m/s | 0°C | 0% | 0hPa | 2.5V | 00:00:00 | 00:00:00 | 00:00:00 | |
| OE5MMP-10 | 2026-09-06 03:51:14 | 47.61614 | 15.42058 | 133° | 157km/h | 13861m | -5.4m/s | -67.2°C | 35.6% | 0hPa | 2.5V | 00:00:00 | 02:02:18 | 00:00:00 | |
| OE3MUC-15 | 2026-09-06 03:51:13 | 47.61641 | 15.42014 | 133° | 159km/h | 13867m | -5.4m/s | -67.2°C | 35.2% | 0hPa | 2.5V | 00:00:00 | 00:00:00 | 00:00:00 | |
| OE3OSB-13 | 2026-09-06 03:51:12 | 47.61722 | 15.41884 | 132° | 157km/h | 13883m | -5.5m/s | -67.3°C | 25.2% | -1.0hPa | 2.5V | 00:00:00 | 00:00:00 | 00:00:00 | |
| DO3MHA-12 | 2026-09-06 03:51:10 | 47.61722 | 15.41884 | 133° | 155km/h | 13883m | -5.4m/s | -67.2°C | 34.2% | 0hPa | 2.5V | 00:00:00 | 02:02:14 | 00:00:00 | |
| OE3MUC-15 | 2026-09-06 03:51:09 | 47.61749 | 15.41841 | 133° | 157km/h | 13889m | -5.3m/s | -67.3°C | 33.9% | 0hPa | 2.5V | 00:00:00 | 00:00:00 | 00:00:00 | |
| OE8JPQ-2 | 2026-09-06 03:51:07 | 47.61804 | 15.41755 | 134° | 148km/h | 13900m | -5.5m/s | -67.3°C | 33.1% | 0hPa | 2.6V | 00:00:00 | 00:00:00 | 00:00:00 | |
| OE5WHR-10 | 2026-09-06 03:51:06 | 47.61832 | 15.41712 | 134° | 146km/h | 13905m | -5.4m/s | -67.3°C | 32.9% | 0hPa | 2.6V | 00:00:00 | 02:02:10 | 00:00:00 | |
| OE3MUC-15 | 2026-09-06 03:51:05 | 47.61859 | 15.41670 | 135° | 155km/h | 13910m | -5.4m/s | -67.3°C | 32.4% | 0hPa | 2.6V | 00:00:00 | 00:00:00 | 00:00:00 | |
| OE5MMP-10 | 2026-09-06 03:51:04 | 47.61887 | 15.41629 | 135° | 150km/h | 13916m | -5.6m/s | -67.4°C | 32.3% | 0hPa | 2.6V | 00:00:00 | 02:02:08 | 00:00:00 | |
| OM5KV | 2026-09-06 03:51:03 | 47.61886 | 15.41629 | 136° | 155km/h | 13916m | -5.6m/s | 0°C | 0% | 0hPa | 2.6V | 00:00:00 | 00:00:00 | 00:00:00 | |
| PETON7-10 | 2026-09-06 03:51:02 | 47.61942 | 15.41547 | 136° | 144km/h | 13927m | -5.4m/s | -67.4°C | 32.0% | 0hPa | 2.6V | 00:00:00 | 00:00:00 | 00:00:00 | |
| OE3MUC-15 | 2026-09-06 03:51:01 | 47.61970 | 15.41507 | 137° | 151km/h | 13932m | -5.4m/s | -67.4°C | 31.8% | 0hPa | 2.6V | 00:00:00 | 00:00:00 | 00:00:00 | |
| DO3MHA-12 | 2026-09-06 03:51:00 | 47.61998 | 15.41468 | 137° | 144km/h | 13938m | -5.5m/s | -67.4°C | 31.6% | 0hPa | 2.6V | 00:00:00 | 02:02:04 | 00:00:00 | |
| OE3MUC-15 | 2026-09-06 03:50:57 | 47.62082 | 15.41355 | 139° | 144km/h | 13955m | -5.7m/s | !°C | 31.0% | 0hPa | 2.6V | 00:00:00 | 00:00:00 | 00:00:00 | |
| OE5MMP-10 | 2026-09-06 03:50:54 | 47.62164 | 15.41248 | 139° | 139km/h | 13972m | -6.0m/s | -67.1°C | 30.8% | 0hPa | 2.5V | 00:00:00 | 02:01:58 | 00:00:00 | |
| OE3MUC-15 | 2026-09-06 03:50:53 | 47.62191 | 15.41213 | 139° | 139km/h | 13978m | -5.9m/s | -67.0°C | 30.5% | 0hPa | 2.5V | 00:00:00 | 00:00:00 | 00:00:00 | |
| DO3MHA-12 | 2026-09-06 03:50:50 | 47.62269 | 15.41109 | 139° | 137km/h | 13996m | -5.9m/s | -66.8°C | 28.8% | 0hPa | 2.5V | 08:07:00 | 02:01:54 | 00:00:00 | |
| OE3MUC-15 | 2026-09-06 03:50:49 | 47.62296 | 15.41075 | 139° | 137km/h | 14002m | -5.9m/s | -66.7°C | 28.3% | 0hPa | 2.5V | 00:00:00 | 00:00:00 | 00:00:00 | |
| OE8JPQ-2 | 2026-09-06 03:50:47 | 47.62348 | 15.41007 | 139° | 135km/h | 14014m | -5.7m/s | -66.7°C | 27.4% | 0hPa | 2.5V | 00:00:00 | 02:01:51 | 00:00:00 | |
| OE3MUC-15 | 2026-09-06 03:50:45 | 47.62400 | 15.40940 | 140° | 137km/h | 14026m | -5.7m/s | -66.7°C | 26.8% | 0hPa | 2.5V | 08:07:00 | 00:00:00 | 00:00:00 | |
| OE5MMP-10 | 2026-09-06 03:50:44 | 47.62426 | 15.40907 | 140° | 137km/h | 14031m | -5.8m/s | -66.6°C | 26.6% | 0hPa | 2.6V | 00:00:00 | 02:01:48 | 00:00:00 | |
| DB0NH | 2026-09-06 03:50:43 | 47.62453 | 15.40874 | 140° | 131km/h | 14037m | -5.6m/s | -66.5°C | 26.0% | 0hPa | 2.6V | 00:00:00 | 02:01:47 | 00:00:00 | |
| OE5DRO-10 | 2026-09-06 03:50:42 | 47.62479 | 15.40841 | 141° | 135km/h | 14043m | -5.7m/s | -66.4°C | 25.6% | 0hPa | 2.5V | 00:00:00 | 00:00:00 | 00:00:00 | |
| OE3MUC-15 | 2026-09-06 03:50:41 | 47.62506 | 15.40808 | 141° | 137km/h | 14049m | -5.4m/s | -66.4°C | 25.5% | 0hPa | 2.5V | 00:00:00 | 00:00:00 | 00:00:00 | |
| DO3MHA-12 | 2026-09-06 03:50:40 | 47.62532 | 15.40776 | 142° | 137km/h | 14054m | -5.4m/s | -66.3°C | 25.2% | 0hPa | 2.5V | 00:00:00 | 02:01:44 | 00:00:00 | |
| OE3MUC-15 | 2026-09-06 03:50:37 | 47.62614 | 15.40681 | 143° | 137km/h | 14070m | -5.1m/s | -65.8°C | 23.6% | 0hPa | 2.5V | 00:00:00 | 00:00:00 | 00:00:00 | |
| OE5DXL-15 | 2026-09-06 03:50:35 | 47.62668 | 15.40619 | 143° | 128km/h | 14080m | -5.1m/s | -65.5°C | 22.4% | 0hPa | 2.5V | 00:00:00 | 00:00:00 | 00:00:00 | |
| OM5KV | 2026-09-06 03:50:34 | 47.62668 | 15.40619 | 144° | 137km/h | 14080m | -5.1m/s | -65.6°C | 15.7% | 0hPa | 2.5V | 08:07:00 | 00:00:00 | 00:00:00 | |
| OE3MUC-15 | 2026-09-06 03:50:33 | 47.62723 | 15.40557 | 144° | 135km/h | 14090m | -5.1m/s | -65.4°C | 21.8% | 0hPa | 2.5V | 00:00:00 | 00:00:00 | 00:00:00 | |
| PETON7-10 | 2026-09-06 03:50:32 | 47.62750 | 15.40527 | 144° | 131km/h | 14095m | -5.1m/s | -65.3°C | 21.4% | 0hPa | 2.5V | 00:00:00 | 00:00:00 | 00:00:00 | |
| DO3MHA-12 | 2026-09-06 03:50:30 | 47.62805 | 15.40467 | 145° | 131km/h | 14106m | -5.1m/s | -65.2°C | 20.8% | 0hPa | 2.5V | 00:00:00 | 02:01:34 | 00:00:00 | |
| OE3MUC-15 | 2026-09-06 03:50:29 | 47.62833 | 15.40438 | 145° | 133km/h | 14111m | -5.0m/s | -65.1°C | 20.5% | 0hPa | 2.5V | 00:00:00 | 00:00:00 | 00:00:00 | |
| OM5KV | 2026-09-06 03:50:28 | 47.62832 | 15.40438 | 146° | 133km/h | 14111m | -5.1m/s | -65.1°C | 14.2% | 0hPa | 2.5V | 08:07:00 | 00:00:00 | 00:00:00 | |
| OE8JPQ-2 | 2026-09-06 03:50:27 | 47.62888 | 15.40381 | 146° | 126km/h | 14121m | -5.2m/s | -64.9°C | 19.9% | 0hPa | 2.5V | 00:00:00 | 00:00:00 | 00:00:00 | |
| OE3MUC-15 | 2026-09-06 03:50:25 | 47.62943 | 15.40325 | 146° | 131km/h | 14131m | -5.2m/s | -64.9°C | 19.5% | 0hPa | 2.5V | 00:00:00 | 00:00:00 | 00:00:00 | |
| OE5WHR-10 | 2026-09-06 03:50:24 | 47.62971 | 15.40297 | 146° | 111km/h | 14137m | -5.3m/s | -64.9°C | 19.3% | 0hPa | 2.5V | 00:00:00 | 00:00:00 | 00:00:00 | |
| OE5DRO-10 | 2026-09-06 03:50:23 | 47.62998 | 15.40270 | 147° | 122km/h | 14142m | -5.3m/s | -64.8°C | 19.1% | 0hPa | 2.5V | 00:00:00 | 00:00:00 | 00:00:00 | |
| OE3MUC-15 | 2026-09-06 03:50:21 | 47.63053 | 15.40216 | 147° | 128km/h | 14152m | -5.4m/s | -64.7°C | 18.6% | 0hPa | 2.5V | 00:00:00 | 00:00:00 | 00:00:00 | |
| DO3MHA-12 | 2026-09-06 03:50:20 | 47.63080 | 15.40189 | 147° | 124km/h | 14158m | -5.4m/s | -64.8°C | 18.4% | 0hPa | 2.5V | 00:00:00 | 02:01:24 | 00:00:00 | |
| OE3MUC-15 | 2026-09-06 03:50:17 | 47.63160 | 15.40112 | 148° | 124km/h | 14174m | -5.1m/s | -64.7°C | 17.7% | 0hPa | 2.5V | 00:00:00 | 00:00:00 | 00:00:00 | |
| OE3JTB-15 | 2026-09-06 03:50:15 | 47.63213 | 15.40061 | 148° | 113km/h | 14184m | -5.1m/s | -64.7°C | 17.4% | 0hPa | 2.5V | 00:00:00 | 00:00:00 | 00:00:00 | |
| OE5MMP-10 | 2026-09-06 03:50:14 | 47.63239 | 15.40036 | 148° | 119km/h | 14190m | -5.0m/s | -64.7°C | 17.1% | 0hPa | 2.5V | 00:00:00 | 02:01:18 | 00:00:00 | |
| DB0NH | 2026-09-06 03:50:13 | 47.63265 | 15.40012 | 148° | 113km/h | 14195m | -4.9m/s | -64.7°C | 17.1% | 0hPa | 2.5V | 00:00:00 | 02:01:17 | 00:00:00 | |
| DG1MFX-10 | 2026-09-06 03:50:12 | 47.63265 | 15.40012 | 148° | 122km/h | 14195m | -5.0m/s | -64.8°C | 11.4% | 0hPa | 2.5V | 08:08:00 | 00:00:00 | 00:00:00 | |
| OE3MUC-15 | 2026-09-06 03:50:09 | 47.63367 | 15.39914 | 147° | 117km/h | 14215m | -4.8m/s | -64.8°C | 16.5% | 0hPa | 2.5V | 08:08:00 | 00:00:00 | 00:00:00 | |
| OE8JPQ-2 | 2026-09-06 03:50:07 | 47.63417 | 15.39865 | 147° | 111km/h | 14224m | -4.9m/s | -64.8°C | 16.2% | 0hPa | 2.6V | 00:00:00 | 00:00:00 | 00:00:00 | |
| OE5DXL-15 | 2026-09-06 03:50:05 | 47.63466 | 15.39817 | 146° | 110km/h | 14234m | -4.9m/s | -64.8°C | 16.0% | 0hPa | 2.6V | 00:00:00 | 00:00:00 | 00:00:00 | |
| OE5MMP-10 | 2026-09-06 03:50:04 | 47.63489 | 15.39793 | 146° | 111km/h | 14239m | -4.9m/s | -64.7°C | 15.8% | 0hPa | 2.6V | 00:00:00 | 02:01:08 | 00:00:00 | |
| PETON7-10 | 2026-09-06 03:50:02 | 47.63536 | 15.39744 | 145° | 110km/h | 14249m | -4.8m/s | -64.7°C | 15.5% | 0hPa | 2.6V | 00:00:00 | 02:01:06 | 00:00:00 | |
| OE3MUC-15 | 2026-09-06 03:50:01 | 47.63559 | 15.39719 | 144° | 111km/h | 14254m | -4.9m/s | -64.7°C | 15.5% | 0hPa | 2.6V | 00:00:00 | 00:00:00 | 00:00:00 | |
| DO3MHA-12 | 2026-09-06 03:50:00 | 47.63582 | 15.39695 | 144° | 110km/h | 14259m | -4.9m/s | -64.6°C | 15.3% | 0hPa | 2.6V | 00:00:00 | 02:01:04 | 00:00:00 | |
| OE3MUC-15 | 2026-09-06 03:49:57 | 47.63649 | 15.39619 | 143° | 111km/h | 14274m | -5.1m/s | -64.6°C | 14.9% | 0hPa | 2.6V | 00:00:00 | 00:00:00 | 00:00:00 | |
| OE5MMP-10 | 2026-09-06 03:49:54 | 47.63715 | 15.39542 | 142° | 108km/h | 14289m | -4.7m/s | -64.6°C | 14.5% | 0hPa | 2.6V | 00:00:00 | 02:00:58 | 00:00:00 | |
| OE3MUC-15 | 2026-09-06 03:49:53 | 47.63736 | 15.39516 | 142° | 108km/h | 14294m | -5.1m/s | -64.6°C | 14.3% | 0hPa | 2.6V | 00:00:00 | 00:00:00 | 00:00:00 | |
| DG1MFX-10 | 2026-09-06 03:49:51 | 47.63758 | 15.39491 | 142° | 110km/h | 14299m | -5.1m/s | -64.7°C | 8.9% | 0hPa | 2.6V | 08:08:00 | 00:00:00 | 00:00:00 | |
| DO3MHA-12 | 2026-09-06 03:49:50 | 47.63801 | 15.39440 | 141° | 108km/h | 14309m | -4.9m/s | -64.6°C | 13.8% | 0hPa | 2.6V | 00:00:00 | 02:00:54 | 00:00:00 | |
| OE3MUC-15 | 2026-09-06 03:49:49 | 47.63822 | 15.39415 | 141° | 108km/h | 14314m | -4.9m/s | -64.5°C | 13.6% | 0hPa | 2.5V | 00:00:00 | 00:00:00 | 00:00:00 | |
| OE8JPQ-2 | 2026-09-06 03:49:47 | 47.63863 | 15.39364 | 140° | 106km/h | 14324m | -4.8m/s | -64.5°C | 13.3% | 0hPa | 2.5V | 00:00:00 | 02:00:51 | 00:00:00 | |
| OE3MUC-15 | 2026-09-06 03:49:45 | 47.63904 | 15.39312 | 139° | 106km/h | 14334m | -4.8m/s | -64.5°C | 13.0% | 0hPa | 2.5V | 00:00:00 | 00:00:00 | 00:00:00 | |
| OE5MMP-10 | 2026-09-06 03:49:44 | 47.63924 | 15.39285 | 138° | 106km/h | 14339m | -4.9m/s | -64.5°C | 12.9% | 0hPa | 2.5V | 00:00:00 | 02:00:48 | 00:00:00 | |
| DB0NH | 2026-09-06 03:49:43 | 47.63944 | 15.39258 | 138° | 110km/h | 14344m | -4.8m/s | -64.5°C | 12.8% | 0hPa | 2.5V | 00:00:00 | 02:00:47 | 00:00:00 | |
| DO3MHA-12 | 2026-09-06 03:49:40 | 47.64003 | 15.39176 | 137° | 106km/h | 14358m | -4.8m/s | -64.4°C | 12.3% | 0hPa | 2.5V | 00:00:00 | 02:00:44 | 00:00:00 | |
| OE3OSB-13 | 2026-09-06 03:49:38 | 47.64061 | 15.39093 | 135° | 104km/h | 14372m | -4.7m/s | -64.3°C | 6.5% | -1.0hPa | 2.5V | 00:00:00 | 00:00:00 | 00:00:00 | |
| OE5DXL-15 | 2026-09-06 03:49:35 | 47.64098 | 15.39037 | 135° | 115km/h | 14382m | -4.7m/s | -64.2°C | 11.6% | 0hPa | 2.5V | 00:00:00 | 00:00:00 | 00:00:00 | |
| OE5MMP-10 | 2026-09-06 03:49:34 | 47.64117 | 15.39009 | 135° | 106km/h | 14387m | -4.7m/s | -64.2°C | 11.5% | 0hPa | 2.5V | 00:00:00 | 02:00:38 | 00:00:00 | |
| OM5KV | 2026-09-06 03:49:33 | 47.64117 | 15.39009 | 135° | 104km/h | 14387m | -4.8m/s | -64.3°C | 6.7% | 0hPa | 2.5V | 08:09:00 | 00:00:00 | 00:00:00 | |
| PETON7-10 | 2026-09-06 03:49:32 | 47.64153 | 15.38952 | 133° | 110km/h | 14397m | -4.9m/s | -64.1°C | 11.4% | 0hPa | 2.5V | 00:00:00 | 00:00:00 | 00:00:00 | |
| OM5KV | 2026-09-06 03:49:31 | 47.64153 | 15.38952 | 134° | 104km/h | 14397m | -5.0m/s | -64.2°C | 6.5% | 0hPa | 2.5V | 00:00:00 | 00:00:00 | 00:00:00 | |
| DO3MHA-12 | 2026-09-06 03:49:30 | 47.64188 | 15.38893 | 132° | 110km/h | 14406m | -4.8m/s | -63.8°C | 10.9% | 0hPa | 2.5V | 00:00:00 | 02:00:34 | 00:00:00 | |
| OE8JPQ-2 | 2026-09-06 03:49:27 | 47.64241 | 15.38803 | 131° | 117km/h | 14421m | -5.1m/s | -63.8°C | 10.8% | 0hPa | 2.5V | 08:08:00 | 00:00:00 | 00:00:00 | |
| OE5DRO-10 | 2026-09-06 03:49:26 | 47.64259 | 15.38771 | 130° | 117km/h | 14426m | -5.1m/s | -63.7°C | 10.6% | 0hPa | 2.5V | 00:00:00 | 00:00:00 | 00:00:00 | |
| OE5MMP-10 | 2026-09-06 03:49:24 | 47.64294 | 15.38708 | 129° | 115km/h | 14437m | -5.0m/s | -63.6°C | 10.2% | 0hPa | 2.5V | 00:00:00 | 02:00:28 | 00:00:00 | |
| OE3MUC-15 | 2026-09-06 03:49:21 | 47.64347 | 15.38610 | 128° | 115km/h | 14453m | -5.2m/s | -63.6°C | 10.1% | 0hPa | 2.5V | 00:00:00 | 02:00:25 | 00:00:00 | |
| DO3MHA-12 | 2026-09-06 03:49:20 | 47.64364 | 15.38576 | 128° | 119km/h | 14458m | -5.2m/s | -63.6°C | 10.0% | 0hPa | 2.5V | 08:09:00 | 02:00:24 | 00:00:00 | |
| PETON7-10 | 2026-09-06 03:49:17 | 47.64418 | 15.38472 | 128° | 122km/h | 14473m | -4.9m/s | -63.6°C | 9.8% | 0hPa | 2.5V | 00:00:00 | 02:00:21 | 00:00:00 | |
| OE5MMP-10 | 2026-09-06 03:49:14 | 47.64474 | 15.38366 | 129° | 122km/h | 14488m | -4.7m/s | -63.5°C | 9.6% | 0hPa | 2.5V | 00:00:00 | 02:00:18 | 00:00:00 | |
| OE3MUC-15 | 2026-09-06 03:49:13 | 47.64493 | 15.38331 | 129° | 122km/h | 14493m | -4.7m/s | -63.5°C | 9.5% | 0hPa | 2.5V | 00:00:00 | 00:00:00 | 00:00:00 | |
| DO3MHA-12 | 2026-09-06 03:49:10 | 47.64553 | 15.38224 | 130° | 122km/h | 14507m | -4.6m/s | -63.4°C | 9.1% | 0hPa | 2.5V | 00:00:00 | 02:00:14 | 00:00:00 | |
| OE3MUC-15 | 2026-09-06 03:49:09 | 47.64573 | 15.38189 | 131° | 122km/h | 14511m | -4.4m/s | -63.3°C | 9.0% | 0hPa | 2.5V | 00:00:00 | 00:00:00 | 00:00:00 | |
| S52SK | 2026-09-06 03:49:08 | 47.64573 | 15.38189 | 131° | 124km/h | 14511m | -4.5m/s | -63.3°C | 4.7% | 0hPa | 2.6V | 00:00:00 | 00:00:00 | 00:00:00 | |
| OE8JPQ-2 | 2026-09-06 03:49:07 | 47.64613 | 15.38119 | 131° | 115km/h | 14520m | -4.6m/s | -63.0°C | 8.9% | 0hPa | 2.6V | 00:00:00 | 00:00:00 | 00:00:00 | |
| OE3MUC-15 | 2026-09-06 03:49:05 | 47.64654 | 15.38050 | 132° | 120km/h | 14530m | -4.5m/s | -62.7°C | 8.7% | 0hPa | 2.6V | 00:00:00 | 00:00:00 | 00:00:00 | |
| OE5MMP-10 | 2026-09-06 03:49:04 | 47.64674 | 15.38016 | 132° | 119km/h | 14534m | -4.6m/s | -62.7°C | 8.7% | 0hPa | 2.6V | 08:09:00 | 02:00:08 | 00:00:00 | |
| PETON7-10 | 2026-09-06 03:49:02 | 47.64715 | 15.37949 | 132° | 113km/h | 14543m | -4.6m/s | -62.5°C | 8.5% | 0hPa | 2.5V | 00:00:00 | 00:00:00 | 00:00:00 | |
| OE3MUC-15 | 2026-09-06 03:49:01 | 47.64735 | 15.37916 | 133° | 119km/h | 14548m | -4.7m/s | -62.5°C | 8.6% | 0hPa | 2.6V | 00:00:00 | 00:00:00 | 00:00:00 | |
| DO3MHA-12 | 2026-09-06 03:49:00 | 47.64756 | 15.37884 | 133° | 115km/h | 14553m | -4.7m/s | -62.5°C | 8.6% | 0hPa | 2.6V | 00:00:00 | 02:00:04 | 00:00:00 | |
| OE3MUC-15 | 2026-09-06 03:48:57 | 47.64816 | 15.37786 | 133° | 115km/h | 14567m | -4.7m/s | -62.2°C | 8.4% | 0hPa | 2.6V | 08:09:00 | 00:00:00 | 00:00:00 | |
| OM5KV | 2026-09-06 03:48:56 | 47.64816 | 15.37786 | 134° | 117km/h | 14567m | -4.8m/s | -62.3°C | 4.3% | 0hPa | 2.5V | 00:00:00 | 00:00:00 | 00:00:00 | |
| OE5MMP-10 | 2026-09-06 03:48:54 | 47.64875 | 15.37691 | 133° | 110km/h | 14582m | -4.8m/s | -62.2°C | 8.3% | 0hPa | 2.5V | 00:00:00 | 01:59:58 | 00:00:00 | |
| OE3MUC-15 | 2026-09-06 03:48:53 | 47.64894 | 15.37660 | 132° | 110km/h | 14586m | -4.8m/s | -62.2°C | 8.2% | 0hPa | 2.5V | 00:00:00 | 00:00:00 | 00:00:00 | |
| DO3MHA-12 | 2026-09-06 03:48:50 | 47.64948 | 15.37566 | 129° | 108km/h | 14601m | -4.6m/s | -62.1°C | 8.2% | 0hPa | 2.5V | 00:00:00 | 01:59:54 | 00:00:00 | |
| OE3MUC-15 | 2026-09-06 03:48:49 | 47.64965 | 15.37534 | 128° | 108km/h | 14606m | -4.7m/s | -62.1°C | 8.2% | 0hPa | 2.5V | 00:00:00 | 00:00:00 | 00:00:00 | |
| OE3JTB-15 | 2026-09-06 03:48:48 | 47.64982 | 15.37502 | 127° | 113km/h | 14610m | -4.6m/s | -62.1°C | 8.1% | 0hPa | 2.5V | 00:00:00 | 00:00:00 | 00:00:00 | |
| PETON7-10 | 2026-09-06 03:48:47 | 47.64998 | 15.37470 | 126° | 108km/h | 14615m | -4.7m/s | -62.1°C | 8.2% | 0hPa | 2.5V | 00:00:00 | 00:00:00 | 00:00:00 | |
| OE5MMP-10 | 2026-09-06 03:48:44 | 47.65044 | 15.37372 | 125° | 108km/h | 14630m | -5.2m/s | -62.0°C | 8.2% | 0hPa | 2.5V | 00:00:00 | 01:59:48 | 00:00:00 | |
| DB0NH | 2026-09-06 03:48:43 | 47.65059 | 15.37338 | 124° | 117km/h | 14635m | -5.1m/s | -62.0°C | 8.3% | 0hPa | 2.5V | 00:00:00 | 01:59:47 | 00:00:00 | |
| OE3MUC-15 | 2026-09-06 03:48:41 | 47.65090 | 15.37272 | 124° | 108km/h | 14645m | -5.1m/s | -61.8°C | 8.1% | 0hPa | 2.5V | 00:00:00 | 00:00:00 | 00:00:00 | |
| OE3MUC-15 | 2026-09-06 03:48:37 | 47.65149 | 15.37136 | 123° | 110km/h | 14666m | -5.0m/s | -61.5°C | 7.8% | 0hPa | 2.5V | 00:00:00 | 00:00:00 | 00:00:00 | |
| OE3OSB-13 | 2026-09-06 03:48:36 | 47.65179 | 15.37067 | 122° | 110km/h | 14676m | -4.9m/s | -61.5°C | 3.7% | -1.0hPa | 2.5V | 00:00:00 | 00:00:00 | 00:00:00 | |
| OE5DXL-15 | 2026-09-06 03:48:35 | 47.65179 | 15.37067 | 123° | 120km/h | 14676m | -4.9m/s | -61.4°C | 7.7% | 0hPa | 2.5V | 00:00:00 | 00:00:00 | 00:00:00 | |
| OE5MMP-10 | 2026-09-06 03:48:34 | 47.65194 | 15.37032 | 122° | 113km/h | 14681m | -4.8m/s | -61.4°C | 7.7% | 0hPa | 2.5V | 00:00:00 | 01:59:38 | 00:00:00 | |
| OE3MUC-15 | 2026-09-06 03:48:33 | 47.65208 | 15.36997 | 122° | 111km/h | 14686m | -4.9m/s | -61.4°C | 7.6% | 0hPa | 2.5V | 00:00:00 | 00:00:00 | 00:00:00 | |
| PETON7-10 | 2026-09-06 03:48:32 | 47.65223 | 15.36961 | 121° | 119km/h | 14691m | -4.9m/s | -61.4°C | 7.7% | 0hPa | 2.5V | 00:00:00 | 01:59:36 | 00:00:00 | |
| DO3MHA-12 | 2026-09-06 03:48:30 | 47.65251 | 15.36888 | 120° | 119km/h | 14701m | -4.9m/s | -61.3°C | 7.6% | 0hPa | 2.5V | 00:00:00 | 01:59:34 | 00:00:00 | |
| OE3MUC-15 | 2026-09-06 03:48:29 | 47.65266 | 15.36851 | 120° | 115km/h | 14706m | -5.2m/s | -61.3°C | 7.7% | 0hPa | 2.5V | 00:00:00 | 00:00:00 | 00:00:00 | |
| OE8JPQ-2 | 2026-09-06 03:48:27 | 47.65294 | 15.36777 | 120° | 124km/h | 14716m | -5.0m/s | -61.3°C | 7.6% | 0hPa | 2.5V | 00:00:00 | 00:00:00 | 00:00:00 | |
| OE3MUC-15 | 2026-09-06 03:48:25 | 47.65324 | 15.36700 | 120° | 120km/h | 14726m | -5.0m/s | -61.4°C | 7.7% | 0hPa | 2.5V | 00:00:00 | 00:00:00 | 00:00:00 | |
| OE5MMP-10 | 2026-09-06 03:48:24 | 47.65339 | 15.36661 | 121° | 124km/h | 14731m | -4.7m/s | -61.4°C | 7.7% | 0hPa | 2.5V | 00:00:00 | 01:59:28 | 00:00:00 | |
| OE3MUC-15 | 2026-09-06 03:48:21 | 47.65386 | 15.36543 | 122° | 124km/h | 14746m | -5.0m/s | -61.5°C | 7.8% | 0hPa | 2.5V | 08:10:00 | 00:00:00 | 00:00:00 | |
| DO3MHA-12 | 2026-09-06 03:48:20 | 47.65403 | 15.36504 | 122° | 126km/h | 14751m | -5.1m/s | -61.5°C | 7.8% | 0hPa | 2.5V | 00:00:00 | 01:59:24 | 00:00:00 | |
| OE3JTB-15 | 2026-09-06 03:48:19 | 47.65419 | 15.36464 | 123° | 126km/h | 14757m | -5.1m/s | -61.6°C | 7.9% | 0hPa | 2.5V | 00:00:00 | 01:59:23 | 00:00:00 | |
| OE3MUC-15 | 2026-09-06 03:48:17 | 47.65454 | 15.36385 | 124° | 126km/h | 14767m | -5.1m/s | -61.6°C | 7.9% | 0hPa | 2.5V | 00:00:00 | 00:00:00 | 00:00:00 | |
| OE5MMP-10 | 2026-09-06 03:48:14 | 47.65507 | 15.36267 | 125° | 126km/h | 14782m | -5.2m/s | -61.5°C | 7.8% | 0hPa | 2.5V | 00:00:00 | 01:59:18 | 00:00:00 | |
| DB0NH | 2026-09-06 03:48:13 | 47.65525 | 15.36229 | 125° | 124km/h | 14788m | -5.4m/s | -61.4°C | 7.7% | 0hPa | 2.5V | 00:00:00 | 01:59:17 | 00:00:00 | |
| DO3MHA-12 | 2026-09-06 03:48:10 | 47.65580 | 15.36112 | 125° | 126km/h | 14804m | -5.4m/s | -61.3°C | 7.5% | 0hPa | 2.5V | 00:00:00 | 01:59:14 | 00:00:00 | |
| OE3MUC-15 | 2026-09-06 03:48:09 | 47.65598 | 15.36073 | 125° | 126km/h | 14809m | -5.2m/s | -61.3°C | 7.5% | 0hPa | 2.5V | 00:00:00 | 00:00:00 | 00:00:00 | |
| OE8JPQ-2 | 2026-09-06 03:48:07 | 47.65634 | 15.35995 | 125° | 124km/h | 14820m | -5.3m/s | -61.3°C | 7.4% | 0hPa | 2.5V | 00:00:00 | 00:00:00 | 00:00:00 | |
| OE5DXL-15 | 2026-09-06 03:48:05 | 47.65670 | 15.35918 | 125° | 120km/h | 14830m | -5.3m/s | -61.3°C | 7.3% | 0hPa | 2.5V | 00:00:00 | 00:00:00 | 00:00:00 | |
| OE5MMP-10 | 2026-09-06 03:48:04 | 47.65689 | 15.35879 | 126° | 126km/h | 14836m | -5.4m/s | -61.3°C | 7.3% | 0hPa | 2.5V | 00:00:00 | 01:59:08 | 00:00:00 | |
| PETON7-10 | 2026-09-06 03:48:02 | 47.65726 | 15.35802 | 127° | 122km/h | 14847m | -5.3m/s | -61.2°C | 7.2% | 0hPa | 2.5V | 00:00:00 | 00:00:00 | 00:00:00 | |
| OE3MUC-15 | 2026-09-06 03:48:01 | 47.65745 | 15.35764 | 127° | 126km/h | 14852m | -5.2m/s | -61.2°C | 7.1% | 0hPa | 2.5V | 00:00:00 | 00:00:00 | 00:00:00 | |
| DO3MHA-12 | 2026-09-06 03:48:00 | 47.65764 | 15.35726 | 128° | 124km/h | 14857m | -5.3m/s | -61.2°C | 7.1% | 0hPa | 2.5V | 00:00:00 | 01:59:04 | 00:00:00 | |
| OE3MUC-15 | 2026-09-06 03:47:57 | 47.65823 | 15.35614 | 129° | 124km/h | 14872m | -5.0m/s | -61.2°C | 7.1% | 0hPa | 2.5V | 00:00:00 | 00:00:00 | 00:00:00 | |
| OE5MMP-10 | 2026-09-06 03:47:54 | 47.65882 | 15.35506 | 130° | 120km/h | 14888m | -5.2m/s | -61.2°C | 7.1% | 0hPa | 2.5V | 00:00:00 | 01:58:58 | 00:00:00 | |
| OE5DRO-10 | 2026-09-06 03:47:51 | 47.65941 | 15.35402 | 131° | 115km/h | 14904m | -5.3m/s | -61.3°C | 7.2% | 0hPa | 2.5V | 00:00:00 | 00:00:00 | 00:00:00 | |
| DO3MHA-12 | 2026-09-06 03:47:50 | 47.65961 | 15.35368 | 132° | 117km/h | 14909m | -5.4m/s | -61.3°C | 7.2% | 0hPa | 2.5V | 08:10:00 | 01:58:54 | 00:00:00 | |
| OE3MUC-15 | 2026-09-06 03:47:49 | 47.65981 | 15.35334 | 132° | 119km/h | 14915m | -5.4m/s | -61.3°C | 7.2% | 0hPa | 2.5V | 00:00:00 | 00:00:00 | 00:00:00 | |
| PETON7-10 | 2026-09-06 03:47:47 | 47.66021 | 15.35268 | 133° | 113km/h | 14926m | -5.8m/s | -61.3°C | 7.2% | 0hPa | 2.5V | 00:00:00 | 01:58:51 | 00:00:00 | |
| OE3MUC-15 | 2026-09-06 03:47:45 | 47.66061 | 15.35203 | 133° | 117km/h | 14938m | -5.8m/s | -61.3°C | 7.2% | 0hPa | 2.5V | 08:10:00 | 00:00:00 | 00:00:00 | |
| OE5MMP-10 | 2026-09-06 03:47:44 | 47.66081 | 15.35171 | 133° | 113km/h | 14944m | -6.0m/s | -61.2°C | 7.2% | 0hPa | 2.5V | 00:00:00 | 01:58:48 | 00:00:00 | |
| DB0NH | 2026-09-06 03:47:42 | 47.66121 | 15.35106 | 133° | 102km/h | 14956m | -6.1m/s | -61.2°C | 7.1% | 0hPa | 2.5V | 00:00:00 | 01:58:46 | 00:00:00 | |
| S52SK | 2026-09-06 03:47:41 | 47.66121 | 15.35106 | 134° | 117km/h | 14956m | -6.1m/s | -61.3°C | 3.3% | 0hPa | 2.5V | 00:00:00 | 00:00:00 | 00:00:00 | |
| DO3MHA-12 | 2026-09-06 03:47:36 | 47.66238 | 15.34921 | 135° | 104km/h | 14991m | -5.7m/s | -61.3°C | 7.0% | 0hPa | 2.5V | 00:00:00 | 01:58:40 | 00:00:00 | |
| OE5DXL-15 | 2026-09-06 03:47:35 | 47.66258 | 15.34892 | 135° | 95km/h | 14997m | -5.6m/s | -61.3°C | 6.9% | 0hPa | 2.5V | 08:10:00 | 00:00:00 | 00:00:00 | |
| OE5MMP-10 | 2026-09-06 03:47:34 | 47.66277 | 15.34863 | 135° | 102km/h | 15002m | -5.4m/s | -61.3°C | 6.9% | 0hPa | 2.6V | 08:10:00 | 01:58:38 | 00:00:00 | |
| PETON7-10 | 2026-09-06 03:47:32 | 47.66314 | 15.34807 | 135° | 97km/h | 15014m | -5.4m/s | -61.3°C | 6.9% | 0hPa | 2.5V | 08:10:00 | 00:00:00 | 00:00:00 | |
| OE8JPQ-2 | 2026-09-06 03:47:27 | 47.66404 | 15.34671 | 134° | 91km/h | 15042m | -5.6m/s | -61.2°C | 6.9% | 0hPa | 2.6V | 00:00:00 | 00:00:00 | 00:00:00 | |
| DO3MHA-12 | 2026-09-06 03:47:26 | 47.66421 | 15.34644 | 134° | 95km/h | 15047m | -5.5m/s | -61.2°C | 6.9% | 0hPa | 2.6V | 00:00:00 | 01:58:30 | 00:00:00 | |
| OE5MMP-10 | 2026-09-06 03:47:24 | 47.66453 | 15.34591 | 133° | 93km/h | 15058m | -5.7m/s | -61.1°C | 6.9% | 0hPa | 2.6V | 00:00:00 | 01:58:28 | 00:00:00 | |
| OE3MUC-15 | 2026-09-06 03:47:21 | 47.66501 | 15.34512 | 131° | 93km/h | 15075m | -5.7m/s | -60.9°C | 6.7% | 0hPa | 2.6V | 00:00:00 | 00:00:00 | 00:00:00 | |
| OM5KV | 2026-09-06 03:47:19 | 47.66516 | 15.34485 | 132° | 93km/h | 15081m | -5.6m/s | -60.8°C | 2.5% | 0hPa | 2.5V | 00:00:00 | 00:00:00 | 00:00:00 | |
| PETON7-10 | 2026-09-06 03:47:17 | 47.66562 | 15.34406 | 131° | 88km/h | 15098m | -5.5m/s | -60.7°C | 6.6% | 0hPa | 2.5V | 00:00:00 | 00:00:00 | 00:00:00 | |
| DO3MHA-12 | 2026-09-06 03:47:16 | 47.66577 | 15.34380 | 131° | 88km/h | 15104m | -5.5m/s | -60.7°C | 6.6% | 0hPa | 2.5V | 00:00:00 | 01:58:20 | 00:00:00 | |
| OE5MMP-10 | 2026-09-06 03:47:14 | 47.66607 | 15.34328 | 131° | 88km/h | 15115m | -5.4m/s | -60.6°C | 6.4% | 0hPa | 2.5V | 00:00:00 | 01:58:18 | 00:00:00 | |
| OE3MUC-15 | 2026-09-06 03:47:13 | 47.66621 | 15.34303 | 131° | 88km/h | 15120m | -5.5m/s | -60.5°C | 6.4% | 0hPa | 2.5V | 00:00:00 | 00:00:00 | 00:00:00 | |
| DB0NH | 2026-09-06 03:47:12 | 47.66636 | 15.34277 | 131° | 86km/h | 15126m | -5.6m/s | -60.5°C | 6.4% | 0hPa | 2.5V | 00:00:00 | 01:58:16 | 00:00:00 | |
| OE3MUC-15 | 2026-09-06 03:47:09 | 47.66678 | 15.34202 | 129° | 86km/h | 15143m | -5.6m/s | -60.4°C | 6.3% | 0hPa | 2.5V | 08:11:00 | 00:00:00 | 00:00:00 | |
| OE8JPQ-2 | 2026-09-06 03:47:07 | 47.66705 | 15.34152 | 128° | 86km/h | 15154m | -5.4m/s | -60.4°C | 6.2% | 0hPa | 2.5V | 00:00:00 | 00:00:00 | 00:00:00 | |
| DO3MHA-12 | 2026-09-06 03:47:06 | 47.66718 | 15.34127 | 128° | 86km/h | 15159m | -5.4m/s | -60.4°C | 6.3% | 0hPa | 2.5V | 00:00:00 | 01:58:10 | 00:00:00 | |
| OE3MUC-15 | 2026-09-06 03:47:05 | 47.66731 | 15.34101 | 127° | 86km/h | 15165m | -5.4m/s | -60.4°C | 6.2% | 0hPa | 2.5V | 00:00:00 | 00:00:00 | 00:00:00 | |
| OE5MMP-10 | 2026-09-06 03:47:04 | 47.66744 | 15.34075 | 127° | 86km/h | 15170m | -5.3m/s | -60.4°C | 6.2% | 0hPa | 2.5V | 00:00:00 | 01:58:08 | 00:00:00 | |
| OE3OSB-13 | 2026-09-06 03:47:03 | 47.66770 | 15.34024 | 125° | 86km/h | 15181m | -5.3m/s | -60.4°C | 2.5% | -1.0hPa | 2.5V | 00:00:00 | 00:00:00 | 00:00:00 | |
| PETON7-10 | 2026-09-06 03:47:02 | 47.66769 | 15.34024 | 126° | 86km/h | 15181m | -5.2m/s | -60.4°C | 6.2% | 0hPa | 2.5V | 00:00:00 | 01:58:06 | 00:00:00 | |
| OE3MUC-15 | 2026-09-06 03:47:01 | 47.66782 | 15.33997 | 126° | 88km/h | 15186m | -5.3m/s | -60.4°C | 6.2% | 0hPa | 2.5V | 00:00:00 | 00:00:00 | 00:00:00 | |
| OE3MUC-15 | 2026-09-06 03:46:57 | 47.66831 | 15.33890 | 124° | 86km/h | 15208m | -5.4m/s | -60.3°C | 6.1% | 0hPa | 2.5V | 00:00:00 | 00:00:00 | 00:00:00 | |
| DO3MHA-12 | 2026-09-06 03:46:56 | 47.66843 | 15.33863 | 124° | 84km/h | 15213m | -5.3m/s | -60.3°C | 6.2% | 0hPa | 2.5V | 00:00:00 | 01:58:00 | 00:00:00 | |
| OE5MMP-10 | 2026-09-06 03:46:54 | 47.66867 | 15.33810 | 124° | 86km/h | 15224m | -5.5m/s | -60.3°C | 6.1% | 0hPa | 2.5V | 00:00:00 | 01:57:58 | 00:00:00 | |
| OE3MUC-15 | 2026-09-06 03:46:53 | 47.66879 | 15.33783 | 124° | 84km/h | 15230m | -5.4m/s | -60.4°C | 6.2% | 0hPa | 2.5V | 00:00:00 | 00:00:00 | 00:00:00 | |
| OE3JTB-15 | 2026-09-06 03:46:52 | 47.66891 | 15.33757 | 124° | 95km/h | 15235m | -5.5m/s | -60.3°C | 6.1% | 0hPa | 2.5V | 00:00:00 | 01:57:56 | 00:00:00 | |
| OE3MUC-15 | 2026-09-06 03:46:49 | 47.66926 | 15.33679 | 124° | 86km/h | 15252m | -5.5m/s | -60.2°C | 6.1% | 0hPa | 2.5V | 00:00:00 | 00:00:00 | 00:00:00 | |
| PETON7-10 | 2026-09-06 03:46:47 | 47.66950 | 15.33625 | 123° | 97km/h | 15263m | -5.5m/s | -60.1°C | 6.0% | 0hPa | 2.5V | 00:00:00 | 00:00:00 | 00:00:00 | |
| DO3MHA-12 | 2026-09-06 03:46:46 | 47.66962 | 15.33597 | 123° | 95km/h | 15269m | -5.5m/s | -60.1°C | 6.1% | 0hPa | 2.5V | 00:00:00 | 01:57:50 | 00:00:00 | |
| OE3MUC-15 | 2026-09-06 03:46:45 | 47.66973 | 15.33569 | 122° | 91km/h | 15274m | -5.6m/s | -60.0°C | 6.1% | 0hPa | 2.5V | 00:00:00 | 00:00:00 | 00:00:00 | |
| OE5MMP-10 | 2026-09-06 03:46:44 | 47.66985 | 15.33540 | 122° | 99km/h | 15280m | -5.4m/s | -60.0°C | 6.0% | 0hPa | 2.5V | 00:00:00 | 01:57:48 | 00:00:00 | |
| DB0NH | 2026-09-06 03:46:42 | 47.67010 | 15.33481 | 122° | 95km/h | 15291m | -5.5m/s | -60.1°C | 6.1% | 0hPa | 2.5V | 00:00:00 | 01:57:46 | 00:00:00 | |
| OE3MUC-15 | 2026-09-06 03:46:41 | 47.67022 | 15.33451 | 123° | 99km/h | 15297m | -5.6m/s | -60.1°C | 6.1% | 0hPa | 2.5V | 00:00:00 | 00:00:00 | 00:00:00 | |
| OE3MUC-15 | 2026-09-06 03:46:37 | 47.67077 | 15.33327 | 126° | 102km/h | 15319m | -5.7m/s | -60.1°C | 6.0% | 0hPa | 2.5V | 00:00:00 | 00:00:00 | 00:00:00 | |
| DO3MHA-12 | 2026-09-06 03:46:36 | 47.67093 | 15.33296 | 127° | 100km/h | 15324m | -5.6m/s | -60.1°C | 6.0% | 0hPa | 2.5V | 00:00:00 | 01:57:40 | 00:00:00 | |
| OE5DRO-10 | 2026-09-06 03:46:35 | 47.67108 | 15.33266 | 128° | 95km/h | 15330m | -5.6m/s | -60.1°C | 6.0% | 0hPa | 2.5V | 00:00:00 | 00:00:00 | 00:00:00 | |
| OE5MMP-10 | 2026-09-06 03:46:34 | 47.67124 | 15.33235 | 129° | 99km/h | 15336m | -5.7m/s | -60.1°C | 6.1% | 0hPa | 2.5V | 00:00:00 | 01:57:38 | 00:00:00 | |
| OE3MUC-15 | 2026-09-06 03:46:33 | 47.67140 | 15.33205 | 129° | 102km/h | 15342m | -5.6m/s | -60.1°C | 6.0% | 0hPa | 2.5V | 08:11:00 | 00:00:00 | 00:00:00 | |
| PETON7-10 | 2026-09-06 03:46:32 | 47.67157 | 15.33175 | 130° | 95km/h | 15347m | -5.5m/s | -60.1°C | 6.1% | 0hPa | 2.5V | 00:00:00 | 00:00:00 | 00:00:00 | |
| OE3MUC-15 | 2026-09-06 03:46:29 | 47.67207 | 15.33090 | 133° | 97km/h | 15364m | -5.5m/s | -60.2°C | 6.2% | 0hPa | 2.5V | 00:00:00 | 00:00:00 | 00:00:00 | |
| OE8JPQ-2 | 2026-09-06 03:46:27 | 47.67241 | 15.33036 | 134° | 89km/h | 15375m | -5.4m/s | -60.2°C | 6.2% | 0hPa | 2.5V | 08:11:00 | 00:00:00 | 00:00:00 | |
| DO3MHA-12 | 2026-09-06 03:46:26 | 47.67258 | 15.33011 | 135° | 91km/h | 15381m | -5.5m/s | -60.1°C | 6.2% | 0hPa | 2.6V | 00:00:00 | 01:57:30 | 00:00:00 | |
| OE3MUC-15 | 2026-09-06 03:46:25 | 47.67275 | 15.32985 | 135° | 91km/h | 15386m | -5.3m/s | -60.0°C | 6.1% | 0hPa | 2.6V | 00:00:00 | 01:57:29 | 00:00:00 | |
| OE5MMP-10 | 2026-09-06 03:46:24 | 47.67291 | 15.32960 | 135° | 89km/h | 15392m | -5.5m/s | -60.0°C | 6.1% | 0hPa | 2.6V | 00:00:00 | 01:57:28 | 00:00:00 | |
| OE3JTB-15 | 2026-09-06 03:46:23 | 47.67307 | 15.32936 | 135° | 86km/h | 15397m | -5.4m/s | -60.0°C | 6.1% | 0hPa | 2.6V | 00:00:00 | 00:00:00 | 00:00:00 | |
| S52SK | 2026-09-06 03:46:22 | 47.67307 | 15.32936 | 136° | 91km/h | 15397m | -5.5m/s | -60.0°C | 2.6% | 0hPa | 2.6V | 00:00:00 | 00:00:00 | 00:00:00 | |
| PETON7-10 | 2026-09-06 03:46:17 | 47.67403 | 15.32793 | 135° | 86km/h | 15431m | -5.6m/s | -59.8°C | 6.2% | 0hPa | 2.6V | 00:00:00 | 01:57:21 | 00:00:00 | |
| DO3MHA-12 | 2026-09-06 03:46:16 | 47.67419 | 15.32769 | 135° | 88km/h | 15437m | -5.8m/s | -59.8°C | 6.2% | 0hPa | 2.6V | 08:12:00 | 01:57:20 | 00:00:00 | |
| OE5MMP-10 | 2026-09-06 03:46:14 | 47.67451 | 15.32722 | 136° | 86km/h | 15448m | -5.9m/s | -59.7°C | 6.2% | 0hPa | 2.5V | 00:00:00 | 01:57:18 | 00:00:00 | |
| OE3MUC-15 | 2026-09-06 03:46:13 | 47.67467 | 15.32698 | 136° | 88km/h | 15455m | -6.1m/s | -59.6°C | 6.2% | 0hPa | 2.5V | 00:00:00 | 00:00:00 | 00:00:00 | |
| DB0NH | 2026-09-06 03:46:12 | 47.67483 | 15.32675 | 136° | 82km/h | 15461m | -6.0m/s | -59.6°C | 6.2% | 0hPa | 2.5V | 00:00:00 | 01:57:16 | 00:00:00 | |
| OE3MUC-15 | 2026-09-06 03:46:09 | 47.67530 | 15.32605 | 136° | 86km/h | 15479m | -5.9m/s | -59.3°C | 6.0% | 0hPa | 2.5V | 00:00:00 | 00:00:00 | 00:00:00 | |
| OE8JPQ-2 | 2026-09-06 03:46:07 | 47.67561 | 15.32560 | 136° | 82km/h | 15491m | -5.9m/s | -59.0°C | 5.9% | 0hPa | 2.6V | 00:00:00 | 00:00:00 | 00:00:00 | |
| DO3MHA-12 | 2026-09-06 03:46:06 | 47.67576 | 15.32538 | 136° | 84km/h | 15497m | -5.6m/s | -58.8°C | 5.8% | 0hPa | 2.6V | 00:00:00 | 01:57:10 | 00:00:00 | |
| OE3MUC-15 | 2026-09-06 03:46:05 | 47.67591 | 15.32517 | 136° | 84km/h | 15502m | -5.8m/s | -58.7°C | 5.7% | 0hPa | 2.6V | 00:00:00 | 00:00:00 | 00:00:00 | |
| OE5MMP-10 | 2026-09-06 03:46:04 | 47.67606 | 15.32495 | 136° | 84km/h | 15508m | -5.6m/s | -58.5°C | 5.7% | 0hPa | 2.6V | 08:12:00 | 01:57:08 | 00:00:00 | |
| OE5FHM-15 | 2026-09-06 03:46:02 | 47.67636 | 15.32452 | 137° | 75km/h | 15520m | -5.7m/s | -58.2°C | 5.4% | 0hPa | 2.6V | 00:00:00 | 01:57:06 | 00:00:00 | |
| OE3MUC-15 | 2026-09-06 03:46:01 | 47.67651 | 15.32430 | 137° | 84km/h | 15525m | -5.8m/s | -58.0°C | 5.4% | 0hPa | 2.6V | 00:00:00 | 00:00:00 | 00:00:00 | |
| OE3MUC-15 | 2026-09-06 03:45:57 | 47.67714 | 15.32345 | 139° | 84km/h | 15548m | -5.7m/s | -57.8°C | 5.4% | 0hPa | 2.6V | 08:12:00 | 00:00:00 | 00:00:00 | |
| DO3MHA-12 | 2026-09-06 03:45:56 | 47.67730 | 15.32324 | 139° | 80km/h | 15554m | -5.7m/s | -57.8°C | 5.3% | 0hPa | 2.5V | 00:00:00 | 01:57:00 | 00:00:00 | |
| OE3JTB-15 | 2026-09-06 03:45:54 | 47.67762 | 15.32282 | 139° | 75km/h | 15566m | -5.7m/s | -57.8°C | 5.4% | 0hPa | 2.5V | 00:00:00 | 00:00:00 | 00:00:00 | |
| OE3MUC-15 | 2026-09-06 03:45:53 | 47.67777 | 15.32262 | 138° | 80km/h | 15572m | -5.6m/s | -57.7°C | 5.4% | 0hPa | 2.5V | 00:00:00 | 00:00:00 | 00:00:00 | |
| OE3MUC-15 | 2026-09-06 03:45:49 | 47.67837 | 15.32180 | 137° | 77km/h | 15594m | -5.7m/s | -57.6°C | 5.3% | 0hPa | 2.5V | 00:00:00 | 00:00:00 | 00:00:00 | |
| PETON7-10 | 2026-09-06 03:45:47 | 47.67865 | 15.32141 | 136° | 73km/h | 15605m | -5.7m/s | -57.5°C | 5.2% | 0hPa | 2.5V | 00:00:00 | 00:00:00 | 00:00:00 | |
| DO3MHA-12 | 2026-09-06 03:45:46 | 47.67878 | 15.32121 | 136° | 73km/h | 15611m | -5.8m/s | -57.5°C | 5.2% | 0hPa | 2.5V | 00:00:00 | 01:56:50 | 00:00:00 | |
| OE3MUC-15 | 2026-09-06 03:45:45 | 47.67892 | 15.32101 | 135° | 73km/h | 15617m | -5.6m/s | -57.5°C | 5.2% | 0hPa | 2.6V | 00:00:00 | 00:00:00 | 00:00:00 | |
| OE5MMP-10 | 2026-09-06 03:45:44 | 47.67905 | 15.32082 | 135° | 71km/h | 15623m | -6.0m/s | -57.5°C | 5.2% | 0hPa | 2.5V | 00:00:00 | 01:56:48 | 00:00:00 | |
| OE5WHR-10 | 2026-09-06 03:45:42 | 47.67930 | 15.32042 | 134° | 73km/h | 15635m | -6.0m/s | -57.6°C | 5.2% | 0hPa | 2.5V | 00:00:00 | 00:00:00 | 00:00:00 | |
| OE5DRO-10 | 2026-09-06 03:45:38 | 47.67978 | 15.31962 | 130° | 73km/h | 15659m | -5.9m/s | -57.5°C | 5.1% | 0hPa | 2.5V | 00:00:00 | 00:00:00 | 00:00:00 | |
| DO3MHA-12 | 2026-09-06 03:45:36 | 47.68000 | 15.31919 | 127° | 73km/h | 15671m | -5.7m/s | -57.5°C | 5.1% | 0hPa | 2.5V | 00:00:00 | 01:56:40 | 00:00:00 | |
| OE5DXL-15 | 2026-09-06 03:45:35 | 47.68011 | 15.31898 | 126° | 77km/h | 15676m | -5.8m/s | -57.5°C | 5.1% | 0hPa | 2.5V | 00:00:00 | 00:00:00 | 00:00:00 | |
| OE5MMP-10 | 2026-09-06 03:45:34 | 47.68021 | 15.31875 | 125° | 73km/h | 15683m | -5.7m/s | -57.5°C | 5.1% | 0hPa | 2.5V | 00:00:00 | 01:56:38 | 00:00:00 | |
| OE5FHM-15 | 2026-09-06 03:45:32 | 47.68042 | 15.31830 | 123° | 75km/h | 15694m | -5.9m/s | -57.5°C | 5.1% | 0hPa | 2.6V | 08:12:00 | 01:56:36 | 00:00:00 | |
| OE3OSB-13 | 2026-09-06 03:45:30 | 47.68081 | 15.31737 | 122° | 71km/h | 15719m | -6.1m/s | -57.7°C | 1.9% | -1.0hPa | 2.5V | 00:00:00 | 00:00:00 | 00:00:00 | |
| OE8JPQ-2 | 2026-09-06 03:45:27 | 47.68090 | 15.31714 | 122° | 77km/h | 15725m | -6.0m/s | -57.6°C | 5.2% | 0hPa | 2.5V | 00:00:00 | 00:00:00 | 00:00:00 | |
| DO3MHA-12 | 2026-09-06 03:45:26 | 47.68100 | 15.31691 | 122° | 62km/h | 15731m | -6.1m/s | -57.6°C | 5.2% | 0hPa | 2.6V | 00:00:00 | 01:56:30 | 00:00:00 | |
| OE3JTB-15 | 2026-09-06 03:45:25 | 47.68110 | 15.31668 | 122° | 78km/h | 15737m | -5.9m/s | -57.6°C | 5.1% | 0hPa | 2.6V | 00:00:00 | 01:56:29 | 00:00:00 | |
| OE5MMP-10 | 2026-09-06 03:45:24 | 47.68119 | 15.31645 | 122° | 73km/h | 15743m | -5.9m/s | -57.6°C | 5.1% | 0hPa | 2.6V | 00:00:00 | 01:56:28 | 00:00:00 | |
| OE5WHR-10 | 2026-09-06 03:45:21 | 47.68148 | 15.31576 | 122° | 80km/h | 15761m | -6.1m/s | -57.8°C | 5.1% | 0hPa | 2.6V | 00:00:00 | 01:56:25 | 00:00:00 | |
| OE5DRO-10 | 2026-09-06 03:45:19 | 47.68167 | 15.31530 | 121° | 80km/h | 15773m | -6.0m/s | -57.9°C | 5.2% | 0hPa | 2.6V | 08:13:00 | 00:00:00 | 00:00:00 | |
| PETON7-10 | 2026-09-06 03:45:17 | 47.68185 | 15.31482 | 121° | 80km/h | 15786m | -5.9m/s | -58.1°C | 5.2% | 0hPa | 2.5V | 08:13:00 | 00:00:00 | 00:00:00 | |
| OE5MMP-10 | 2026-09-06 03:45:14 | 47.68214 | 15.31407 | 121° | 82km/h | 15804m | -5.7m/s | -58.2°C | 5.2% | 0hPa | 2.5V | 00:00:00 | 01:56:18 | 00:00:00 | |
| OE3MUC-15 | 2026-09-06 03:45:13 | 47.68225 | 15.31382 | 121° | 82km/h | 15810m | -5.8m/s | -58.3°C | 5.3% | 0hPa | 2.5V | 00:00:00 | 00:00:00 | 00:00:00 | |
| DB0NH | 2026-09-06 03:45:11 | 47.68246 | 15.31329 | 122° | 80km/h | 15822m | -6.0m/s | -58.4°C | 5.3% | 0hPa | 2.5V | 00:00:00 | 01:56:15 | 00:00:00 | |
| OE3MUC-15 | 2026-09-06 03:45:09 | 47.68268 | 15.31276 | 122° | 84km/h | 15834m | -5.9m/s | -58.4°C | 5.3% | 0hPa | 2.5V | 00:00:00 | 00:00:00 | 00:00:00 | |
| OE8JPQ-2 | 2026-09-06 03:45:07 | 47.68290 | 15.31223 | 122° | 82km/h | 15846m | -6.0m/s | -58.5°C | 5.3% | 0hPa | 2.5V | 00:00:00 | 00:00:00 | 00:00:00 | |
| OE5DXL-15 | 2026-09-06 03:45:05 | 47.68312 | 15.31171 | 123° | 77km/h | 15858m | -5.9m/s | -58.6°C | 5.4% | 0hPa | 2.5V | 00:00:00 | 00:00:00 | 00:00:00 | |
| OE5MMP-10 | 2026-09-06 03:45:04 | 47.68323 | 15.31145 | 124° | 84km/h | 15864m | -5.9m/s | -58.6°C | 5.4% | 0hPa | 2.5V | 00:00:00 | 01:56:08 | 00:00:00 | |
| OE5FHM-15 | 2026-09-06 03:45:02 | 47.68347 | 15.31093 | 125° | 73km/h | 15876m | -5.8m/s | -58.6°C | 5.4% | 0hPa | 2.5V | 00:00:00 | 01:56:06 | 00:00:00 | |
| OM5KV | 2026-09-06 03:45:01 | 47.68347 | 15.31093 | 126° | 84km/h | 15876m | -5.9m/s | -58.6°C | 2.2% | 0hPa | 2.5V | 08:13:00 | 00:00:00 | 00:00:00 | |
| OE3OSB-13 | 2026-09-06 03:44:58 | 47.68408 | 15.30965 | 125° | 82km/h | 15906m | -5.9m/s | -58.6°C | 2.0% | -1.0hPa | 2.5V | 00:00:00 | 00:00:00 | 00:00:00 | |
| OE3MUC-15 | 2026-09-06 03:44:57 | 47.68408 | 15.30965 | 126° | 82km/h | 15906m | -5.8m/s | -58.5°C | 5.4% | 0hPa | 2.5V | 00:00:00 | 00:00:00 | 00:00:00 | |
| OE3JTB-15 | 2026-09-06 03:44:56 | 47.68420 | 15.30940 | 127° | 71km/h | 15912m | -5.8m/s | -58.6°C | 5.4% | 0hPa | 2.5V | 08:13:00 | 00:00:00 | 00:00:00 | |
| OM5KV | 2026-09-06 03:44:55 | 47.68420 | 15.30940 | 127° | 82km/h | 15912m | -5.8m/s | -58.6°C | 2.2% | 0hPa | 2.5V | 08:13:00 | 00:00:00 | 00:00:00 | |
| OE5MMP-10 | 2026-09-06 03:44:54 | 47.68445 | 15.30890 | 127° | 78km/h | 15924m | -5.7m/s | -58.6°C | 5.4% | 0hPa | 2.5V | 00:00:00 | 01:55:58 | 00:00:00 | |
| OE3MUC-15 | 2026-09-06 03:44:53 | 47.68458 | 15.30866 | 128° | 80km/h | 15930m | -5.5m/s | -58.6°C | 5.4% | 0hPa | 2.5V | 00:00:00 | 00:00:00 | 00:00:00 | |
| OE3MUC-15 | 2026-09-06 03:44:49 | 47.68508 | 15.30774 | 132° | 77km/h | 15953m | -5.7m/s | -58.6°C | 5.4% | 0hPa | 2.5V | 00:00:00 | 00:00:00 | 00:00:00 | |
| OE8JPQ-2 | 2026-09-06 03:44:47 | 47.68534 | 15.30732 | 134° | 68km/h | 15964m | -5.6m/s | -58.7°C | 5.4% | 0hPa | 2.5V | 00:00:00 | 01:55:51 | 00:00:00 | |
| OE3MUC-15 | 2026-09-06 03:44:45 | 47.68561 | 15.30691 | 135° | 73km/h | 15976m | -5.8m/s | -58.7°C | 5.4% | 0hPa | 2.5V | 08:13:00 | 00:00:00 | 00:00:00 | |
| OE5MMP-10 | 2026-09-06 03:44:44 | 47.68574 | 15.30671 | 136° | 68km/h | 15982m | -5.7m/s | -58.8°C | 5.4% | 0hPa | 2.6V | 00:00:00 | 01:55:48 | 00:00:00 | |
| OE3MUC-15 | 2026-09-06 03:44:41 | 47.68612 | 15.30613 | 134° | 69km/h | 15999m | -5.5m/s | -58.7°C | 5.5% | 0hPa | 2.6V | 00:00:00 | 00:00:00 | 00:00:00 | |
| OE5WHR-10 | 2026-09-06 03:44:38 | 47.68649 | 15.30559 | 134° | 60km/h | 16017m | -5.9m/s | -58.7°C | 5.4% | 0hPa | 2.6V | 00:00:00 | 00:00:00 | 00:00:00 | |
| OE3MUC-15 | 2026-09-06 03:44:37 | 47.68661 | 15.30541 | 136° | 64km/h | 16023m | -5.6m/s | -58.7°C | 5.4% | 0hPa | 2.6V | 00:00:00 | 00:00:00 | 00:00:00 | |
| OE5DXL-15 | 2026-09-06 03:44:35 | 47.68683 | 15.30507 | 134° | 58km/h | 16034m | -5.7m/s | -58.7°C | 5.4% | 0hPa | 2.6V | 00:00:00 | 00:00:00 | 00:00:00 | |
| OE5MMP-10 | 2026-09-06 03:44:34 | 47.68694 | 15.30490 | 133° | 60km/h | 16040m | -5.5m/s | -58.6°C | 5.4% | 0hPa | 2.5V | 08:13:00 | 01:55:38 | 00:00:00 | |
| OE3MUC-15 | 2026-09-06 03:44:33 | 47.68705 | 15.30473 | 132° | 62km/h | 16046m | -5.8m/s | -58.6°C | 5.3% | 0hPa | 2.5V | 00:00:00 | 00:00:00 | 00:00:00 | |
| OE5FHM-15 | 2026-09-06 03:44:32 | 47.68715 | 15.30456 | 132° | 58km/h | 16052m | -5.9m/s | -58.6°C | 5.4% | 0hPa | 2.5V | 00:00:00 | 01:55:36 | 00:00:00 | |
| OE3MUC-15 | 2026-09-06 03:44:29 | 47.68745 | 15.30404 | 130° | 60km/h | 16070m | -5.7m/s | -58.6°C | 5.4% | 0hPa | 2.5V | 00:00:00 | 00:00:00 | 00:00:00 | |
| OM5KV | 2026-09-06 03:44:28 | 47.68745 | 15.30404 | 130° | 60km/h | 16070m | -5.7m/s | -58.7°C | 2.1% | 0hPa | 2.5V | 00:00:00 | 00:00:00 | 00:00:00 | |
| OE8JPQ-2 | 2026-09-06 03:44:27 | 47.68764 | 15.30370 | 129° | 58km/h | 16081m | -5.8m/s | -58.7°C | 5.4% | 0hPa | 2.5V | 00:00:00 | 00:00:00 | 00:00:00 | |
| OE3MUC-15 | 2026-09-06 03:44:25 | 47.68784 | 15.30335 | 128° | 60km/h | 16093m | -5.6m/s | -58.7°C | 5.5% | 0hPa | 2.6V | 00:00:00 | 00:00:00 | 00:00:00 | |
| OE5MMP-10 | 2026-09-06 03:44:24 | 47.68793 | 15.30318 | 128° | 58km/h | 16099m | -5.6m/s | -58.7°C | 5.5% | 0hPa | 2.6V | 00:00:00 | 01:55:28 | 00:00:00 | |
| OE5DRO-10 | 2026-09-06 03:44:22 | 47.68811 | 15.30282 | 130° | 57km/h | 16110m | -5.9m/s | -58.7°C | 5.5% | 0hPa | 2.6V | 00:00:00 | 00:00:00 | 00:00:00 | |
| OE3MUC-15 | 2026-09-06 03:44:21 | 47.68821 | 15.30265 | 127° | 58km/h | 16116m | -5.8m/s | -58.7°C | 5.5% | 0hPa | 2.5V | 00:00:00 | 00:00:00 | 00:00:00 | |
| PETON7-10 | 2026-09-06 03:44:17 | 47.68855 | 15.30194 | 125° | 57km/h | 16140m | -6.3m/s | -58.6°C | 5.5% | 0hPa | 2.5V | 00:00:00 | 00:00:00 | 00:00:00 | |
| OE5MMP-10 | 2026-09-06 03:44:14 | 47.68878 | 15.30140 | 121° | 55km/h | 16159m | -6.3m/s | -58.6°C | 5.5% | 0hPa | 2.5V | 00:00:00 | 01:55:18 | 00:00:00 | |
| OE3MUC-15 | 2026-09-06 03:44:13 | 47.68886 | 15.30121 | 120° | 57km/h | 16166m | -6.1m/s | -58.7°C | 5.5% | 0hPa | 2.5V | 00:00:00 | 00:00:00 | 00:00:00 | |
| DB0NH | 2026-09-06 03:44:11 | 47.68899 | 15.30084 | 120° | 55km/h | 16178m | -6.2m/s | -58.6°C | 5.5% | 0hPa | 2.5V | 00:00:00 | 01:55:15 | 00:00:00 | |
| OE3MUC-15 | 2026-09-06 03:44:09 | 47.68914 | 15.30048 | 119° | 55km/h | 16191m | -5.7m/s | -58.5°C | 5.4% | 0hPa | 2.5V | 08:14:00 | 00:00:00 | 00:00:00 | |
| OE8JPQ-2 | 2026-09-06 03:44:07 | 47.68927 | 15.30012 | 123° | 53km/h | 16203m | -6.0m/s | -58.2°C | 5.2% | 0hPa | 2.6V | 00:00:00 | 00:00:00 | 00:00:00 | |
| OE5DXL-15 | 2026-09-06 03:44:05 | 47.68940 | 15.29978 | 119° | 51km/h | 16214m | -5.9m/s | -58.1°C | 5.1% | 0hPa | 2.6V | 00:00:00 | 00:00:00 | 00:00:00 | |
| OE5MMP-10 | 2026-09-06 03:44:04 | 47.68947 | 15.29961 | 121° | 53km/h | 16220m | -5.8m/s | -58.0°C | 5.1% | 0hPa | 2.6V | 00:00:00 | 01:55:08 | 00:00:00 | |
| PETON7-10 | 2026-09-06 03:44:02 | 47.68960 | 15.29926 | 118° | 53km/h | 16232m | -5.5m/s | -58.0°C | 5.1% | 0hPa | 2.6V | 00:00:00 | 01:55:06 | 00:00:00 | |
| OE3OSB-13 | 2026-09-06 03:43:56 | 47.69004 | 15.29807 | 118° | 51km/h | 16273m | -5.6m/s | -58.0°C | 1.8% | -1.0hPa | 2.6V | 00:00:00 | 00:00:00 | 00:00:00 | |
| OE5MMP-10 | 2026-09-06 03:43:54 | 47.69010 | 15.29790 | 119° | 53km/h | 16278m | -5.5m/s | -58.0°C | 5.2% | 0hPa | 2.6V | 00:00:00 | 01:54:58 | 00:00:00 | |
| OE3MUC-15 | 2026-09-06 03:43:53 | 47.69017 | 15.29773 | 119° | 51km/h | 16284m | -5.6m/s | -58.0°C | 5.2% | 0hPa | 2.6V | 00:00:00 | 00:00:00 | 00:00:00 | |
| OE3MUC-15 | 2026-09-06 03:43:49 | 47.69043 | 15.29705 | 122° | 53km/h | 16307m | -5.6m/s | -58.1°C | 5.2% | 0hPa | 2.6V | 00:00:00 | 00:00:00 | 00:00:00 | |
| OE3MUC-15 | 2026-09-06 03:43:45 | 47.69071 | 15.29638 | 124° | 51km/h | 16331m | -5.8m/s | -58.2°C | 5.3% | 0hPa | 2.6V | 00:00:00 | 00:00:00 | 00:00:00 | |
| OE5MMP-10 | 2026-09-06 03:43:44 | 47.69078 | 15.29621 | 120° | 49km/h | 16337m | -5.8m/s | -58.2°C | 5.3% | 0hPa | 2.5V | 00:00:00 | 01:54:48 | 00:00:00 | |
| S52SK | 2026-09-06 03:43:42 | 47.69084 | 15.29604 | 120° | 49km/h | 16343m | -6.1m/s | -58.3°C | 2.1% | 0hPa | 2.5V | 08:14:00 | 00:00:00 | 00:00:00 | |
| S52SK | 2026-09-06 03:43:37 | 47.69113 | 15.29522 | 118° | 49km/h | 16373m | -5.7m/s | -58.1°C | 2.0% | 0hPa | 2.5V | 00:00:00 | 00:00:00 | 00:00:00 | |
| OE5WHR-10 | 2026-09-06 03:43:35 | 47.69126 | 15.29472 | 109° | 51km/h | 16390m | -5.8m/s | -58.0°C | 5.2% | 0hPa | 2.5V | 00:00:00 | 00:00:00 | 00:00:00 | |
| OE5MMP-10 | 2026-09-06 03:43:34 | 47.69130 | 15.29455 | 108° | 47km/h | 16396m | -5.9m/s | -57.9°C | 5.2% | 0hPa | 2.5V | 00:00:00 | 01:54:38 | 00:00:00 | |
| OE5FHM-15 | 2026-09-06 03:43:32 | 47.69137 | 15.29422 | 106° | 58km/h | 16408m | -5.9m/s | -57.7°C | 5.1% | 0hPa | 2.5V | 00:00:00 | 01:54:36 | 00:00:00 | |
| S52SK | 2026-09-06 03:43:31 | 47.69137 | 15.29422 | 106° | 46km/h | 16408m | -5.9m/s | -57.8°C | 2.0% | 0hPa | 2.5V | 00:00:00 | 00:00:00 | 00:00:00 | |
| OE3JTB-15 | 2026-09-06 03:43:29 | 47.69147 | 15.29372 | 107° | 60km/h | 16426m | -6.2m/s | -57.6°C | 5.1% | 0hPa | 2.5V | 00:00:00 | 00:00:00 | 00:00:00 | |
| OE8JPQ-2 | 2026-09-06 03:43:27 | 47.69152 | 15.29338 | 104° | 58km/h | 16439m | -6.0m/s | -57.6°C | 5.1% | 0hPa | 2.6V | 08:14:00 | 00:00:00 | 00:00:00 | |
| OE5DRO-10 | 2026-09-06 03:43:25 | 47.69157 | 15.29304 | 102° | 60km/h | 16451m | -5.7m/s | -57.7°C | 5.1% | 0hPa | 2.5V | 00:00:00 | 00:00:00 | 00:00:00 | |
| OE5MMP-10 | 2026-09-06 03:43:24 | 47.69160 | 15.29286 | 104° | 57km/h | 16457m | -5.9m/s | -57.7°C | 5.1% | 0hPa | 2.6V | 00:00:00 | 01:54:28 | 00:00:00 | |
| OE3MUC-15 | 2026-09-06 03:43:21 | 47.69167 | 15.29230 | 102° | 57km/h | 16474m | -5.7m/s | -57.5°C | 5.1% | 0hPa | 2.6V | 00:00:00 | 00:00:00 | 00:00:00 | |
| OE3MUC-15 | 2026-09-06 03:43:17 | 47.69175 | 15.29146 | 99° | 62km/h | 16498m | -5.8m/s | -57.4°C | 5.1% | 0hPa | 2.5V | 00:00:00 | 00:00:00 | 00:00:00 | |
| OE5MMP-10 | 2026-09-06 03:43:14 | 47.69184 | 15.29077 | 103° | 68km/h | 16515m | -5.7m/s | -57.4°C | 5.0% | 0hPa | 2.5V | 00:00:00 | 01:54:18 | 00:00:00 | |
| OE3MUC-15 | 2026-09-06 03:43:13 | 47.69188 | 15.29053 | 103° | 66km/h | 16521m | -5.6m/s | -57.4°C | 5.0% | 0hPa | 2.5V | 00:00:00 | 00:00:00 | 00:00:00 | |
| OE3MUC-15 | 2026-09-06 03:43:09 | 47.69203 | 15.28956 | 103° | 68km/h | 16545m | -6.1m/s | -57.5°C | 5.0% | 0hPa | 2.5V | 00:00:00 | 00:00:00 | 00:00:00 | |
| DB0NH | 2026-09-06 03:43:08 | 47.69206 | 15.28931 | 103° | 73km/h | 16551m | -5.9m/s | -57.5°C | 5.0% | 0hPa | 2.5V | 00:00:00 | 01:54:12 | 00:00:00 | |
| OE8JPQ-2 | 2026-09-06 03:43:07 | 47.69210 | 15.28907 | 106° | 75km/h | 16557m | -6.2m/s | -57.5°C | 5.0% | 0hPa | 2.5V | 00:00:00 | 00:00:00 | 00:00:00 | |
| OE5DRO-10 | 2026-09-06 03:43:06 | 47.69215 | 15.28882 | 103° | 75km/h | 16563m | -6.1m/s | -57.4°C | 5.0% | 0hPa | 2.5V | 00:00:00 | 00:00:00 | 00:00:00 | |
| OE3MUC-15 | 2026-09-06 03:43:05 | 47.69219 | 15.28856 | 106° | 71km/h | 16569m | -5.9m/s | -57.4°C | 4.9% | 0hPa | 2.5V | 00:00:00 | 00:00:00 | 00:00:00 | |
| OE5MMP-10 | 2026-09-06 03:43:04 | 47.69223 | 15.28831 | 104° | 75km/h | 16575m | -6.1m/s | -57.3°C | 4.9% | 0hPa | 2.5V | 08:15:00 | 01:54:08 | 00:00:00 | |
| OE5FHM-15 | 2026-09-06 03:43:02 | 47.69233 | 15.28779 | 106° | 69km/h | 16587m | -6.0m/s | -57.1°C | 4.7% | 0hPa | 2.5V | 00:00:00 | 01:54:06 | 00:00:00 | |
| OE3MUC-15 | 2026-09-06 03:43:01 | 47.69238 | 15.28753 | 106° | 75km/h | 16593m | -6.2m/s | -57.2°C | 4.8% | 0hPa | 2.5V | 00:00:00 | 00:00:00 | 00:00:00 | |
| OE3JTB-15 | 2026-09-06 03:43:00 | 47.69243 | 15.28726 | 108° | 69km/h | 16599m | -6.1m/s | -57.2°C | 4.8% | 0hPa | 2.5V | 00:00:00 | 00:00:00 | 00:00:00 | |
| OE3MUC-15 | 2026-09-06 03:42:57 | 47.69260 | 15.28645 | 109° | 78km/h | 16617m | -6.5m/s | -57.4°C | 4.9% | 0hPa | 2.5V | 08:15:00 | 00:00:00 | 00:00:00 | |
| OE5MMP-10 | 2026-09-06 03:42:54 | 47.69280 | 15.28563 | 115° | 75km/h | 16636m | -5.9m/s | -57.5°C | 4.9% | 0hPa | 2.5V | 00:00:00 | 01:53:58 | 00:00:00 | |
| OE3MUC-15 | 2026-09-06 03:42:53 | 47.69289 | 15.28536 | 117° | 78km/h | 16641m | -6.0m/s | -57.5°C | 4.9% | 0hPa | 2.5V | 00:00:00 | 00:00:00 | 00:00:00 | |
| OE3MUC-15 | 2026-09-06 03:42:49 | 47.69326 | 15.28435 | 122° | 73km/h | 16666m | -6.1m/s | -57.7°C | 5.0% | 0hPa | 2.5V | 00:00:00 | 00:00:00 | 00:00:00 | |
| PETON7-10 | 2026-09-06 03:42:47 | 47.69346 | 15.28387 | 122° | 64km/h | 16679m | -6.2m/s | -57.8°C | 5.1% | 0hPa | 2.5V | 00:00:00 | 00:00:00 | 00:00:00 | |
| OE3MUC-15 | 2026-09-06 03:42:45 | 47.69365 | 15.28341 | 122° | 68km/h | 16691m | -6.1m/s | -57.8°C | 5.2% | 0hPa | 2.5V | 00:00:00 | 00:00:00 | 00:00:00 | |
| OE5MMP-10 | 2026-09-06 03:42:44 | 47.69374 | 15.28319 | 124° | 62km/h | 16697m | -6.1m/s | -57.8°C | 5.1% | 0hPa | 2.5V | 00:00:00 | 01:53:48 | 00:00:00 | |
| OE3MUC-15 | 2026-09-06 03:42:41 | 47.69402 | 15.28257 | 126° | 62km/h | 16716m | -6.7m/s | -57.8°C | 5.1% | 0hPa | 2.5V | 00:00:00 | 00:00:00 | 00:00:00 | |
| DB0NH | 2026-09-06 03:42:38 | 47.69429 | 15.28200 | 126° | 51km/h | 16736m | -6.4m/s | -58.0°C | 5.2% | 0hPa | 2.5V | 00:00:00 | 01:53:42 | 00:00:00 | |
| OE3MUC-15 | 2026-09-06 03:42:37 | 47.69438 | 15.28182 | 124° | 57km/h | 16742m | -6.3m/s | -58.0°C | 5.3% | 0hPa | 2.5V | 00:00:00 | 00:00:00 | 00:00:00 | |
| OE5DXL-15 | 2026-09-06 03:42:35 | 47.69455 | 15.28146 | 127° | 53km/h | 16755m | -6.6m/s | -58.1°C | 5.3% | 0hPa | 2.5V | 00:00:00 | 00:00:00 | 00:00:00 | |
| OE5MMP-10 | 2026-09-06 03:42:34 | 47.69463 | 15.28129 | 125° | 49km/h | 16761m | -6.3m/s | -58.0°C | 5.3% | 0hPa | 2.5V | 00:00:00 | 01:53:38 | 00:00:00 | |
| OE3MUC-15 | 2026-09-06 03:42:33 | 47.69471 | 15.28112 | 123° | 53km/h | 16768m | -6.1m/s | -58.0°C | 5.3% | 0hPa | 2.5V | 00:00:00 | 00:00:00 | 00:00:00 | |
| PETON7-10 | 2026-09-06 03:42:32 | 47.69478 | 15.28095 | 124° | 47km/h | 16773m | -6.2m/s | -58.0°C | 5.3% | 0hPa | 2.5V | 00:00:00 | 01:53:36 | 00:00:00 | |
| OE3JTB-15 | 2026-09-06 03:42:31 | 47.69486 | 15.28079 | 126° | 53km/h | 16780m | -6.1m/s | -57.9°C | 5.2% | 0hPa | 2.5V | 00:00:00 | 01:53:35 | 00:00:00 | |
| OE3MUC-15 | 2026-09-06 03:42:29 | 47.69499 | 15.28048 | 121° | 47km/h | 16792m | -5.8m/s | -57.8°C | 5.2% | 0hPa | 2.5V | 00:00:00 | 00:00:00 | 00:00:00 | |
| OE5DRO-10 | 2026-09-06 03:42:28 | 47.69506 | 15.28032 | 121° | 49km/h | 16798m | -6.3m/s | -57.7°C | 5.1% | 0hPa | 2.5V | 08:15:00 | 00:00:00 | 00:00:00 | |
| OE8JPQ-2 | 2026-09-06 03:42:27 | 47.69512 | 15.28017 | 121° | 51km/h | 16804m | -6.4m/s | -57.6°C | 5.1% | 0hPa | 2.5V | 00:00:00 | 00:00:00 | 00:00:00 | |
| OE3MUC-15 | 2026-09-06 03:42:25 | 47.69523 | 15.27986 | 117° | 44km/h | 16817m | -6.4m/s | -57.4°C | 5.0% | 0hPa | 2.5V | 00:00:00 | 00:00:00 | 00:00:00 | |
| OE5MMP-10 | 2026-09-06 03:42:24 | 47.69528 | 15.27971 | 114° | 47km/h | 16823m | -6.3m/s | -57.3°C | 4.9% | 0hPa | 2.5V | 00:00:00 | 01:53:28 | 00:00:00 | |
| OE3OSB-13 | 2026-09-06 03:42:23 | 47.69536 | 15.27940 | 109° | 42km/h | 16836m | -6.5m/s | -57.3°C | 1.7% | -1.0hPa | 2.5V | 00:00:00 | 00:00:00 | 00:00:00 | |
| OE3MUC-15 | 2026-09-06 03:42:21 | 47.69540 | 15.27925 | 109° | 46km/h | 16842m | -6.4m/s | -57.3°C | 4.9% | 0hPa | 2.5V | 08:16:00 | 00:00:00 | 00:00:00 | |
| PETON7-10 | 2026-09-06 03:42:17 | 47.69554 | 15.27858 | 107° | 58km/h | 16867m | -5.9m/s | -57.4°C | 5.0% | 0hPa | 2.5V | 00:00:00 | 00:00:00 | 00:00:00 | |
| S52SK | 2026-09-06 03:42:16 | 47.69555 | 15.27858 | 107° | 49km/h | 16867m | -5.9m/s | -57.4°C | 1.9% | 0hPa | 2.5V | 00:00:00 | 00:00:00 | 00:00:00 | |
| OE5MMP-10 | 2026-09-06 03:42:14 | 47.69566 | 15.27802 | 107° | 60km/h | 16885m | -5.9m/s | -57.4°C | 5.0% | 0hPa | 2.5V | 00:00:00 | 01:53:18 | 00:00:00 | |
| OE3MUC-15 | 2026-09-06 03:42:13 | 47.69570 | 15.27782 | 109° | 58km/h | 16891m | -6.0m/s | -57.5°C | 5.0% | 0hPa | 2.5V | 00:00:00 | 00:00:00 | 00:00:00 | |
| OE5WHR-10 | 2026-09-06 03:42:11 | 47.69580 | 15.27742 | 114° | 62km/h | 16904m | -5.8m/s | -57.5°C | 5.0% | 0hPa | 2.5V | 00:00:00 | 01:53:15 | 00:00:00 | |
| S52SK | 2026-09-06 03:42:10 | 47.69580 | 15.27742 | 114° | 58km/h | 16904m | -5.9m/s | -57.6°C | 1.9% | 0hPa | 2.5V | 00:00:00 | 00:00:00 | 00:00:00 | |
| OE3MUC-15 | 2026-09-06 03:42:09 | 47.69593 | 15.27700 | 117° | 62km/h | 16915m | -5.9m/s | -57.4°C | 5.0% | 0hPa | 2.5V | 00:00:00 | 00:00:00 | 00:00:00 | |
| DB0NH | 2026-09-06 03:42:08 | 47.69600 | 15.27680 | 117° | 49km/h | 16921m | -5.9m/s | -57.3°C | 5.0% | 0hPa | 2.5V | 00:00:00 | 01:53:12 | 00:00:00 | |
| OE8JPQ-2 | 2026-09-06 03:42:07 | 47.69607 | 15.27659 | 117° | 64km/h | 16927m | -6.1m/s | -57.3°C | 4.9% | 0hPa | 2.5V | 00:00:00 | 00:00:00 | 00:00:00 | |
| OE5DXL-15 | 2026-09-06 03:42:05 | 47.69622 | 15.27617 | 117° | 66km/h | 16940m | -6.2m/s | -57.3°C | 4.9% | 0hPa | 2.5V | 00:00:00 | 00:00:00 | 00:00:00 | |
| OE5MMP-10 | 2026-09-06 03:42:04 | 47.69629 | 15.27595 | 117° | 62km/h | 16946m | -6.2m/s | -57.3°C | 4.9% | 0hPa | 2.5V | 00:00:00 | 01:53:08 | 00:00:00 | |
| OE5FHM-15 | 2026-09-06 03:42:02 | 47.69644 | 15.27552 | 117° | 68km/h | 16959m | -6.2m/s | -57.3°C | 4.9% | 0hPa | 2.5V | 00:00:00 | 01:53:06 | 00:00:00 | |
| OE3OSB-13 | 2026-09-06 03:41:52 | 47.69722 | 15.27323 | 119° | 66km/h | 17026m | -6.2m/s | -57.3°C | 1.7% | -1.0hPa | 2.5V | 00:00:00 | 00:00:00 | 00:00:00 | |
| OE5WHR-10 | 2026-09-06 03:41:50 | 47.69730 | 15.27301 | 117° | 69km/h | 17032m | -6.1m/s | -57.3°C | 4.9% | 0hPa | 2.5V | 00:00:00 | 00:00:00 | 00:00:00 | |
| OE3MUC-15 | 2026-09-06 03:41:49 | 47.69738 | 15.27279 | 118° | 68km/h | 17038m | -5.9m/s | -57.4°C | 4.9% | 0hPa | 2.5V | 00:00:00 | 00:00:00 | 00:00:00 | |
| PETON7-10 | 2026-09-06 03:41:47 | 47.69754 | 15.27236 | 121° | 71km/h | 17050m | -6.2m/s | -57.4°C | 4.9% | 0hPa | 2.5V | 00:00:00 | 01:52:51 | 00:00:00 | |
| OE3MUC-15 | 2026-09-06 03:41:45 | 47.69771 | 15.27192 | 121° | 69km/h | 17063m | -6.1m/s | -57.5°C | 4.9% | 0hPa | 2.5V | 08:16:00 | 00:00:00 | 00:00:00 | |
| OE5MMP-10 | 2026-09-06 03:41:44 | 47.69780 | 15.27169 | 122° | 71km/h | 17069m | -6.4m/s | -57.6°C | 4.9% | 0hPa | 2.6V | 00:00:00 | 01:52:48 | 00:00:00 | |
| OE5DXL-15 | 2026-09-06 03:41:35 | 47.69876 | 15.26975 | 134° | 62km/h | 17124m | -6.0m/s | -58.0°C | 5.1% | 0hPa | 2.6V | 00:00:00 | 00:00:00 | 00:00:00 | |
| OE3JTB-15 | 2026-09-06 03:41:33 | 47.69901 | 15.26937 | 135° | 62km/h | 17136m | -6.0m/s | -58.1°C | 5.1% | 0hPa | 2.5V | 00:00:00 | 00:00:00 | 00:00:00 | |
| OE5FHM-15 | 2026-09-06 03:41:32 | 47.69915 | 15.26918 | 138° | 62km/h | 17142m | -6.2m/s | -58.1°C | 5.1% | 0hPa | 2.5V | 00:00:00 | 01:52:36 | 00:00:00 | |
| OE5DRO-10 | 2026-09-06 03:41:31 | 47.69928 | 15.26899 | 136° | 64km/h | 17149m | -6.2m/s | -58.2°C | 5.1% | 0hPa | 2.5V | 00:00:00 | 00:00:00 | 00:00:00 | |
| OE5WHR-10 | 2026-09-06 03:41:29 | 47.69955 | 15.26864 | 140° | 60km/h | 17161m | -6.6m/s | -58.2°C | 5.2% | 0hPa | 2.5V | 00:00:00 | 00:00:00 | 00:00:00 | |
| OE8JPQ-2 | 2026-09-06 03:41:27 | 47.69981 | 15.26830 | 141° | 60km/h | 17174m | -6.3m/s | -58.3°C | 5.2% | 0hPa | 2.5V | 00:00:00 | 00:00:00 | 00:00:00 | |
| OE5MMP-10 | 2026-09-06 03:41:24 | 47.70022 | 15.26781 | 141° | 60km/h | 17193m | -5.8m/s | -58.3°C | 5.2% | 0hPa | 2.5V | 00:00:00 | 01:52:28 | 00:00:00 | |
| OE3OSB-13 | 2026-09-06 03:41:21 | 47.70071 | 15.26724 | 141° | 58km/h | 17216m | -5.6m/s | -58.3°C | 1.8% | -1.0hPa | 2.5V | 00:00:00 | 00:00:00 | 00:00:00 | |
| PETON7-10 | 2026-09-06 03:41:17 | 47.70106 | 15.26682 | 140° | 57km/h | 17233m | -5.5m/s | -58.3°C | 5.2% | 0hPa | 2.5V | 00:00:00 | 00:00:00 | 00:00:00 | |
| OE5MMP-10 | 2026-09-06 03:41:14 | 47.70139 | 15.26641 | 140° | 57km/h | 17251m | -5.9m/s | -58.3°C | 5.2% | 0hPa | 2.5V | 00:00:00 | 01:52:18 | 00:00:00 | |
| OE3MUC-15 | 2026-09-06 03:41:13 | 47.70150 | 15.26627 | 141° | 57km/h | 17257m | -6.0m/s | -58.3°C | 5.2% | 0hPa | 2.5V | 00:00:00 | 00:00:00 | 00:00:00 | |
| OE5DRO-10 | 2026-09-06 03:41:12 | 47.70161 | 15.26614 | 142° | 55km/h | 17263m | -6.1m/s | -58.3°C | 5.2% | 0hPa | 2.5V | 00:00:00 | 00:00:00 | 00:00:00 | |
| OE3MUC-15 | 2026-09-06 03:41:09 | 47.70195 | 15.26575 | 141° | 57km/h | 17281m | -6.1m/s | -58.3°C | 5.2% | 0hPa | 2.5V | 08:17:00 | 00:00:00 | 00:00:00 | |
| OE5WHR-10 | 2026-09-06 03:41:08 | 47.70206 | 15.26562 | 142° | 51km/h | 17287m | -6.0m/s | -58.3°C | 5.2% | 0hPa | 2.6V | 00:00:00 | 01:52:12 | 00:00:00 | |
| OE8JPQ-2 | 2026-09-06 03:41:07 | 47.70217 | 15.26549 | 143° | 51km/h | 17293m | -6.0m/s | -58.2°C | 5.2% | 0hPa | 2.6V | 00:00:00 | 00:00:00 | 00:00:00 | |
| OE3MUC-15 | 2026-09-06 03:41:05 | 47.70240 | 15.26523 | 142° | 57km/h | 17305m | -5.7m/s | -58.2°C | 5.2% | 0hPa | 2.6V | 00:00:00 | 00:00:00 | 00:00:00 | |
| OE5MMP-10 | 2026-09-06 03:41:04 | 47.70251 | 15.26510 | 143° | 55km/h | 17311m | -5.8m/s | -58.2°C | 5.2% | 0hPa | 2.6V | 00:00:00 | 01:52:08 | 00:00:00 | |
| OE5FHM-15 | 2026-09-06 03:41:02 | 47.70274 | 15.26483 | 142° | 47km/h | 17322m | -5.6m/s | -58.2°C | 5.2% | 0hPa | 2.5V | 08:17:00 | 01:52:06 | 00:00:00 | |
| OE3OSB-13 | 2026-09-06 03:40:50 | 47.70403 | 15.26328 | 135° | 40km/h | 17397m | -6.0m/s | -57.9°C | 1.7% | -1.0hPa | 2.5V | 00:00:00 | 00:00:00 | 00:00:00 | |
| OE3MUC-15 | 2026-09-06 03:40:49 | 47.70403 | 15.26328 | 136° | 42km/h | 17397m | -5.9m/s | -57.8°C | 5.0% | 0hPa | 2.5V | 00:00:00 | 00:00:00 | 00:00:00 | |
| OE8JPQ-2 | 2026-09-06 03:40:47 | 47.70418 | 15.26305 | 132° | 46km/h | 17409m | -5.8m/s | -57.9°C | 5.0% | 0hPa | 2.5V | 00:00:00 | 01:51:51 | 00:00:00 | |
| OE3MUC-15 | 2026-09-06 03:40:45 | 47.70431 | 15.26283 | 130° | 42km/h | 17421m | -5.7m/s | -57.9°C | 5.0% | 0hPa | 2.5V | 00:00:00 | 00:00:00 | 00:00:00 | |
| OE5MMP-10 | 2026-09-06 03:40:44 | 47.70437 | 15.26271 | 126° | 44km/h | 17427m | -5.5m/s | -58.0°C | 5.0% | 0hPa | 2.6V | 00:00:00 | 01:51:48 | 00:00:00 | |
| OE3MUC-15 | 2026-09-06 03:40:41 | 47.70455 | 15.26232 | 125° | 42km/h | 17443m | -5.6m/s | -58.0°C | 5.1% | 0hPa | 2.6V | 00:00:00 | 00:00:00 | 00:00:00 | |
| S52SK | 2026-09-06 03:40:40 | 47.70454 | 15.26232 | 125° | 42km/h | 17443m | -5.6m/s | -58.0°C | 1.8% | 0hPa | 2.6V | 00:00:00 | 00:00:00 | 00:00:00 | |
| OE3MUC-15 | 2026-09-06 03:40:37 | 47.70475 | 15.26176 | 118° | 47km/h | 17466m | -5.6m/s | -57.9°C | 5.1% | 0hPa | 2.6V | 00:00:00 | 00:00:00 | 00:00:00 | |
| OE5DXL-15 | 2026-09-06 03:40:35 | 47.70485 | 15.26145 | 118° | 53km/h | 17477m | -5.2m/s | -57.7°C | 5.0% | 0hPa | 2.6V | 00:00:00 | 00:00:00 | 00:00:00 | |
| OE5MMP-10 | 2026-09-06 03:40:34 | 47.70491 | 15.26129 | 117° | 55km/h | 17482m | -5.6m/s | -57.6°C | 4.9% | 0hPa | 2.6V | 00:00:00 | 01:51:38 | 00:00:00 | |
| OE3MUC-15 | 2026-09-06 03:40:33 | 47.70497 | 15.26113 | 118° | 53km/h | 17488m | -5.3m/s | -57.6°C | 4.9% | 0hPa | 2.5V | 08:17:00 | 01:51:37 | 00:00:00 | |
| PETON7-10 | 2026-09-06 03:40:32 | 47.70503 | 15.26096 | 119° | 58km/h | 17493m | -5.3m/s | -57.6°C | 4.9% | 0hPa | 2.5V | 00:00:00 | 00:00:00 | 00:00:00 | |
| OE3MUC-15 | 2026-09-06 03:40:29 | 47.70523 | 15.26043 | 123° | 58km/h | 17510m | -5.5m/s | -57.7°C | 4.9% | 0hPa | 2.5V | 00:00:00 | 00:00:00 | 00:00:00 | |
| OE8JPQ-2 | 2026-09-06 03:40:27 | 47.70539 | 15.26008 | 125° | 55km/h | 17521m | -5.5m/s | -57.7°C | 5.0% | 0hPa | 2.5V | 08:17:00 | 00:00:00 | 00:00:00 | |
| OE5WHR-10 | 2026-09-06 03:40:26 | 47.70548 | 15.25990 | 127° | 53km/h | 17526m | -5.4m/s | -57.8°C | 5.0% | 0hPa | 2.5V | 00:00:00 | 00:00:00 | 00:00:00 | |
| OE5MMP-10 | 2026-09-06 03:40:24 | 47.70567 | 15.25953 | 130° | 58km/h | 17538m | -6.0m/s | -57.7°C | 5.0% | 0hPa | 2.5V | 00:00:00 | 01:51:28 | 00:00:00 | |
| OE3MUC-15 | 2026-09-06 03:40:21 | 47.70598 | 15.25903 | 137° | 60km/h | 17556m | -5.6m/s | -57.6°C | 5.0% | 0hPa | 2.5V | 00:00:00 | 00:00:00 | 00:00:00 | |
| OE3OSB-13 | 2026-09-06 03:40:19 | 47.70633 | 15.25861 | 144° | 57km/h | 17572m | -5.1m/s | -57.7°C | 1.7% | -1.0hPa | 2.5V | 00:00:00 | 00:00:00 | 00:00:00 | |
| PETON7-10 | 2026-09-06 03:40:17 | 47.70645 | 15.25849 | 149° | 47km/h | 17578m | -4.9m/s | -57.6°C | 5.1% | 0hPa | 2.5V | 00:00:00 | 01:51:21 | 00:00:00 | |
| OE5DRO-10 | 2026-09-06 03:40:15 | 47.70669 | 15.25829 | 150° | 47km/h | 17588m | -5.3m/s | -57.6°C | 5.1% | 0hPa | 2.5V | 00:00:00 | 00:00:00 | 00:00:00 | |
| OE5MMP-10 | 2026-09-06 03:40:14 | 47.70680 | 15.25819 | 150° | 47km/h | 17593m | -4.9m/s | -57.6°C | 5.2% | 0hPa | 2.5V | 00:00:00 | 01:51:18 | 00:00:00 | |
| OE3MUC-15 | 2026-09-06 03:40:13 | 47.70690 | 15.25810 | 151° | 46km/h | 17599m | -4.9m/s | -57.6°C | 5.2% | 0hPa | 2.5V | 00:00:00 | 00:00:00 | 00:00:00 | |
| OE3MUC-15 | 2026-09-06 03:40:09 | 47.70730 | 15.25775 | 150° | 47km/h | 17619m | -4.7m/s | -57.4°C | 5.2% | 0hPa | 2.5V | 00:00:00 | 00:00:00 | 00:00:00 | |
| OE8JPQ-2 | 2026-09-06 03:40:07 | 47.70750 | 15.25756 | 148° | 47km/h | 17629m | -4.8m/s | -57.4°C | 5.2% | 0hPa | 2.6V | 00:00:00 | 00:00:00 | 00:00:00 | |
| OE3JTB-15 | 2026-09-06 03:40:06 | 47.70760 | 15.25746 | 144° | 42km/h | 17634m | -4.7m/s | -57.4°C | 5.2% | 0hPa | 2.6V | 00:00:00 | 00:00:00 | 00:00:00 | |
| OE5DXL-15 | 2026-09-06 03:40:05 | 47.70770 | 15.25736 | 147° | 40km/h | 17638m | -5.0m/s | -57.3°C | 5.2% | 0hPa | 2.6V | 00:00:00 | 00:00:00 | 00:00:00 | |
| OE5MMP-10 | 2026-09-06 03:40:04 | 47.70779 | 15.25726 | 144° | 47km/h | 17644m | -5.0m/s | -57.1°C | 5.1% | 0hPa | 2.6V | 08:18:00 | 01:51:08 | 00:00:00 | |
| OE5FHM-15 | 2026-09-06 03:40:02 | 47.70799 | 15.25705 | 145° | 38km/h | 17654m | -5.0m/s | !°C | 5.0% | 0hPa | 2.5V | 00:00:00 | 01:51:06 | 00:00:00 | |
| OE3MUC-15 | 2026-09-06 03:40:01 | 47.70808 | 15.25695 | 142° | 47km/h | 17660m | -4.9m/s | -56.9°C | 5.1% | 0hPa | 2.5V | 00:00:00 | 00:00:00 | 00:00:00 | |
| OE3MUC-15 | 2026-09-06 03:39:57 | 47.70845 | 15.25649 | 139° | 49km/h | 17680m | -4.9m/s | -56.3°C | 4.8% | 0hPa | 2.5V | 08:18:00 | 00:00:00 | 00:00:00 | |
| OE5DRO-10 | 2026-09-06 03:39:56 | 47.70854 | 15.25638 | 140° | 40km/h | 17685m | -5.1m/s | -56.2°C | 4.8% | 0hPa | 2.5V | 00:00:00 | 00:00:00 | 00:00:00 | |
| OE5MMP-10 | 2026-09-06 03:39:54 | 47.70873 | 15.25613 | 139° | 44km/h | 17695m | -5.0m/s | -55.8°C | 4.6% | 0hPa | 2.5V | 00:00:00 | 01:50:58 | 00:00:00 | |
| OE3MUC-15 | 2026-09-06 03:39:53 | 47.70882 | 15.25602 | 140° | 46km/h | 17700m | -5.1m/s | -55.8°C | 4.6% | 0hPa | 2.5V | 00:00:00 | 00:00:00 | 00:00:00 | |
| OE3MUC-15 | 2026-09-06 03:39:49 | 47.70918 | 15.25558 | 139° | 42km/h | 17721m | -5.3m/s | -55.7°C | 4.5% | 0hPa | 2.5V | 00:00:00 | 00:00:00 | 00:00:00 | |
| OE8JPQ-2 | 2026-09-06 03:39:47 | 47.70934 | 15.25538 | 144° | 27km/h | 17732m | -5.3m/s | -55.7°C | 4.4% | 0hPa | 2.5V | 00:00:00 | 01:50:51 | 00:00:00 | |
| OE3MUC-15 | 2026-09-06 03:39:45 | 47.70950 | 15.25520 | 143° | 35km/h | 17742m | -5.3m/s | -55.7°C | 4.5% | 0hPa | 2.5V | 00:00:00 | 00:00:00 | 00:00:00 | |
| OE5WHR-10 | 2026-09-06 03:39:44 | 47.70957 | 15.25511 | 142° | 27km/h | 17748m | -5.8m/s | -55.7°C | 4.4% | 0hPa | 2.5V | 00:00:00 | 00:00:00 | 00:00:00 | |
| OE5DRO-10 | 2026-09-06 03:39:37 | 47.70995 | 15.25461 | 123° | 27km/h | 17786m | -5.0m/s | -55.8°C | 4.5% | 0hPa | 2.5V | 08:18:00 | 00:00:00 | 00:00:00 | |
| OE5DXL-15 | 2026-09-06 03:39:35 | 47.71001 | 15.25448 | 110° | 33km/h | 17796m | -5.0m/s | -56.0°C | 4.6% | 0hPa | 2.6V | 00:00:00 | 00:00:00 | 00:00:00 | |
| OE5MMP-10 | 2026-09-06 03:39:34 | 47.71002 | 15.25440 | 104° | 26km/h | 17801m | -4.9m/s | -56.0°C | 4.6% | 0hPa | 2.6V | 00:00:00 | 01:50:38 | 00:00:00 | |
| OE5FHM-15 | 2026-09-06 03:39:32 | 47.71004 | 15.25425 | 91° | 35km/h | 17812m | -5.1m/s | -56.1°C | 4.6% | 0hPa | 2.5V | 00:00:00 | 01:50:36 | 00:00:00 | |
| OE8JPQ-2 | 2026-09-06 03:39:27 | 47.71002 | 15.25375 | 80° | 35km/h | 17838m | -5.0m/s | -56.2°C | 4.7% | 0hPa | 2.5V | 00:00:00 | 00:00:00 | 00:00:00 | |
| OE5MMP-10 | 2026-09-06 03:39:24 | 47.70997 | 15.25344 | 85° | 35km/h | 17852m | -6.0m/s | -56.3°C | 4.6% | 0hPa | 2.5V | 00:00:00 | 01:50:28 | 00:00:00 | |
| OE5WHR-10 | 2026-09-06 03:39:23 | 47.70996 | 15.25333 | 77° | 37km/h | 17859m | -6.2m/s | -56.3°C | 4.6% | 0hPa | 2.5V | 00:00:00 | 00:00:00 | 00:00:00 | |
| OE3MUC-15 | 2026-09-06 03:39:21 | 47.70993 | 15.25310 | 78° | 35km/h | 17872m | -7.0m/s | -56.3°C | 4.6% | 0hPa | 2.5V | 08:19:00 | 00:00:00 | 00:00:00 | |
| OE5DRO-10 | 2026-09-06 03:39:18 | 47.70987 | 15.25272 | 75° | 38km/h | 17890m | -5.4m/s | -56.3°C | 4.6% | 0hPa | 2.6V | 00:00:00 | 00:00:00 | 00:00:00 | |
| PETON7-10 | 2026-09-06 03:39:17 | 47.70985 | 15.25258 | 78° | 38km/h | 17895m | -4.8m/s | -56.4°C | 4.6% | 0hPa | 2.6V | 00:00:00 | 00:00:00 | 00:00:00 | |
| OE3OSB-13 | 2026-09-06 03:39:16 | 47.70982 | 15.25244 | 74° | 37km/h | 17900m | -4.8m/s | -56.6°C | 1.5% | -1.0hPa | 2.5V | 00:00:00 | 00:00:00 | 00:00:00 | |
| OE5MMP-10 | 2026-09-06 03:39:14 | 47.70977 | 15.25217 | 75° | 38km/h | 17911m | -5.8m/s | -56.5°C | 4.6% | 0hPa | 2.5V | 00:00:00 | 01:50:18 | 00:00:00 | |
| OE3MUC-15 | 2026-09-06 03:39:13 | 47.70974 | 15.25203 | 73° | 38km/h | 17916m | -6.0m/s | -56.4°C | 4.6% | 0hPa | 2.5V | 00:00:00 | 00:00:00 | 00:00:00 | |
| OE3MUC-15 | 2026-09-06 03:39:09 | 47.70962 | 15.25147 | 72° | 38km/h | 17940m | -5.5m/s | -56.6°C | 4.6% | 0hPa | 2.5V | 00:00:00 | 00:00:00 | 00:00:00 | |
| OE3JTB-15 | 2026-09-06 03:39:08 | 47.70960 | 15.25134 | 76° | 42km/h | 17945m | -5.4m/s | -56.6°C | 4.6% | 0hPa | 2.5V | 00:00:00 | 00:00:00 | 00:00:00 | |
| OE8JPQ-2 | 2026-09-06 03:39:07 | 47.70957 | 15.25120 | 71° | 40km/h | 17951m | -5.5m/s | -56.7°C | 4.6% | 0hPa | 2.6V | 00:00:00 | 00:00:00 | 00:00:00 | |
| OE3MUC-15 | 2026-09-06 03:39:05 | 47.70951 | 15.25094 | 71° | 37km/h | 17961m | -5.7m/s | -56.8°C | 4.7% | 0hPa | 2.6V | 00:00:00 | 00:00:00 | 00:00:00 | |
| OE5MMP-10 | 2026-09-06 03:39:04 | 47.70948 | 15.25081 | 69° | 37km/h | 17967m | -5.5m/s | -56.9°C | 4.7% | 0hPa | 2.6V | 00:00:00 | 01:50:08 | 00:00:00 | |
| OE5FHM-15 | 2026-09-06 03:39:02 | 47.70941 | 15.25056 | 65° | 46km/h | 17978m | -5.5m/s | -57.0°C | 4.7% | 0hPa | 2.5V | 00:00:00 | 01:50:06 | 00:00:00 | |
| OE3MUC-15 | 2026-09-06 03:39:01 | 47.70937 | 15.25043 | 65° | 37km/h | 17984m | -5.5m/s | -57.1°C | 4.7% | 0hPa | 2.5V | 00:00:00 | 00:00:00 | 00:00:00 | |
| OE5DRO-10 | 2026-09-06 03:38:59 | 47.70929 | 15.25019 | 67° | 46km/h | 17995m | -5.9m/s | -57.2°C | 4.8% | 0hPa | 2.5V | 00:00:00 | 00:00:00 | 00:00:00 | |
| OE3MUC-15 | 2026-09-06 03:38:57 | 47.70921 | 15.24995 | 66° | 38km/h | 18008m | -6.1m/s | -57.3°C | 4.8% | 0hPa | 2.5V | 00:00:00 | 00:00:00 | 00:00:00 | |
| PG1ADW-2 | 2026-09-06 03:38:54 | 47.70910 | 15.24956 | 70° | 47km/h | 18025m | -5.1m/s | -57.5°C | 4.9% | 0hPa | 2.5V | 00:00:00 | 01:49:58 | 00:00:00 | |
| OE3MUC-15 | 2026-09-06 03:38:53 | 47.70906 | 15.24941 | 68° | 46km/h | 18030m | -4.9m/s | -57.6°C | 4.9% | 0hPa | 2.5V | 00:00:00 | 00:00:00 | 00:00:00 | |
| OE3MUC-15 | 2026-09-06 03:38:49 | 47.70891 | 15.24875 | 75° | 49km/h | 18053m | -5.7m/s | -57.7°C | 4.9% | 0hPa | 2.5V | 00:00:00 | 00:00:00 | 00:00:00 | |
| PETON7-10 | 2026-09-06 03:38:47 | 47.70884 | 15.24840 | 78° | 49km/h | 18065m | -6.3m/s | -57.8°C | 4.9% | 0hPa | 2.5V | 00:00:00 | 01:49:51 | 00:00:00 | |
| OE3MUC-15 | 2026-09-06 03:38:45 | 47.70879 | 15.24803 | 77° | 49km/h | 18077m | -5.8m/s | -57.8°C | 4.9% | 0hPa | 2.5V | 08:19:00 | 00:00:00 | 00:00:00 | |
| OE5MMP-10 | 2026-09-06 03:38:44 | 47.70877 | 15.24785 | 78° | 49km/h | 18083m | -5.9m/s | -57.8°C | 4.9% | 0hPa | 2.6V | 00:00:00 | 01:49:48 | 00:00:00 | |
| OE3MUC-15 | 2026-09-06 03:38:41 | 47.70869 | 15.24730 | 79° | 49km/h | 18104m | -7.3m/s | -58.0°C | 5.0% | 0hPa | 2.6V | 00:00:00 | 00:00:00 | 00:00:00 | |
| OE5DRO-10 | 2026-09-06 03:38:40 | 47.70867 | 15.24712 | 82° | 53km/h | 18111m | -7.4m/s | -58.1°C | 5.0% | 0hPa | 2.6V | 00:00:00 | 00:00:00 | 00:00:00 | |
| OE3JTB-15 | 2026-09-06 03:38:39 | 47.70865 | 15.24693 | 80° | 57km/h | 18118m | -7.0m/s | -58.1°C | 5.0% | 0hPa | 2.6V | 00:00:00 | 00:00:00 | 00:00:00 | |
| OE3MUC-15 | 2026-09-06 03:38:37 | 47.70862 | 15.24656 | 81° | 51km/h | 18132m | -6.9m/s | -58.2°C | 5.0% | 0hPa | 2.6V | 00:00:00 | 00:00:00 | 00:00:00 | |
| OE5DXL-15 | 2026-09-06 03:38:35 | 47.70858 | 15.24619 | 82° | 58km/h | 18146m | -6.7m/s | -58.3°C | 5.1% | 0hPa | 2.6V | 08:19:00 | 00:00:00 | 00:00:00 | |
| OE5MMP-10 | 2026-09-06 03:38:34 | 47.70856 | 15.24600 | 82° | 53km/h | 18153m | -6.7m/s | -58.2°C | 5.1% | 0hPa | 2.6V | 08:19:00 | 01:49:38 | 00:00:00 | |
| OE3MUC-15 | 2026-09-06 03:38:33 | 47.70855 | 15.24581 | 83° | 51km/h | 18159m | -6.4m/s | -58.3°C | 5.1% | 0hPa | 2.5V | 00:00:00 | 00:00:00 | 00:00:00 | |
| OE5FHM-15 | 2026-09-06 03:38:32 | 47.70853 | 15.24562 | 80° | 60km/h | 18166m | -6.4m/s | -58.4°C | 5.2% | 0hPa | 2.5V | 00:00:00 | 01:49:36 | 00:00:00 | |
| OE8JPQ-2 | 2026-09-06 03:38:27 | 47.70842 | 15.24464 | 83° | 60km/h | 18198m | -6.5m/s | -58.4°C | 5.1% | 0hPa | 2.5V | 00:00:00 | 00:00:00 | 00:00:00 | |
| OE3MUC-15 | 2026-09-06 03:38:25 | 47.70838 | 15.24421 | 87° | 58km/h | 18211m | -6.6m/s | -58.5°C | 5.2% | 0hPa | 2.5V | 00:00:00 | 00:00:00 | 00:00:00 | |
| OE5MMP-10 | 2026-09-06 03:38:24 | 47.70838 | 15.24400 | 88° | 60km/h | 18218m | -6.7m/s | -58.4°C | 5.1% | 0hPa | 2.5V | 00:00:00 | 01:49:28 | 00:00:00 | |
| OE3MUC-15 | 2026-09-06 03:38:21 | 47.70839 | 15.24333 | 94° | 60km/h | 18238m | -6.6m/s | -58.3°C | 5.0% | 0hPa | 2.5V | 00:00:00 | 00:00:00 | 00:00:00 | |
| OE5WHR-10 | 2026-09-06 03:38:20 | 47.70840 | 15.24310 | 95° | 64km/h | 18245m | -7.1m/s | -58.4°C | 5.0% | 0hPa | 2.5V | 00:00:00 | 00:00:00 | 00:00:00 | |
| OE3MUC-15 | 2026-09-06 03:38:17 | 47.70845 | 15.24243 | 99° | 62km/h | 18265m | -6.8m/s | -58.5°C | 5.1% | 0hPa | 2.5V | 00:00:00 | 00:00:00 | 00:00:00 | |
| OE5MMP-10 | 2026-09-06 03:38:14 | 47.70854 | 15.24176 | 101° | 66km/h | 18285m | -6.9m/s | -58.7°C | 5.1% | 0hPa | 2.5V | 00:00:00 | 01:49:18 | 00:00:00 | |
| OE3MUC-15 | 2026-09-06 03:38:13 | 47.70857 | 15.24153 | 104° | 64km/h | 18292m | -7.0m/s | -58.7°C | 5.1% | 0hPa | 2.5V | 00:00:00 | 00:00:00 | 00:00:00 | |
| OE3JTB-15 | 2026-09-06 03:38:10 | 47.70867 | 15.24082 | 103° | 68km/h | 18313m | -7.0m/s | -58.7°C | 5.2% | 0hPa | 2.5V | 00:00:00 | 01:49:14 | 00:00:00 | |
| OE3MUC-15 | 2026-09-06 03:38:09 | 47.70870 | 15.24058 | 100° | 68km/h | 18320m | -6.9m/s | -58.8°C | 5.1% | 0hPa | 2.5V | 08:20:00 | 00:00:00 | 00:00:00 | |
| OE8JPQ-2 | 2026-09-06 03:38:07 | 47.70876 | 15.24009 | 99° | 68km/h | 18334m | -6.8m/s | -58.8°C | 5.2% | 0hPa | 2.6V | 00:00:00 | 00:00:00 | 00:00:00 | |
| OE3MUC-15 | 2026-09-06 03:38:05 | 47.70882 | 15.23960 | 100° | 68km/h | 18347m | -6.8m/s | -58.9°C | 5.2% | 0hPa | 2.6V | 00:00:00 | 00:00:00 | 00:00:00 | |
| OE5MMP-10 | 2026-09-06 03:38:04 | 47.70884 | 15.23934 | 98° | 68km/h | 18354m | -6.6m/s | -58.9°C | 5.2% | 0hPa | 2.6V | 00:00:00 | 01:49:08 | 00:00:00 | |
| PETON7-10 | 2026-09-06 03:38:02 | 47.70889 | 15.23885 | 100° | 68km/h | 18367m | -6.5m/s | -58.9°C | 5.3% | 0hPa | 2.5V | 00:00:00 | 01:49:06 | 00:00:00 | |
| OE3MUC-15 | 2026-09-06 03:38:01 | 47.70892 | 15.23861 | 101° | 68km/h | 18373m | -6.8m/s | -58.9°C | 5.3% | 0hPa | 2.5V | 00:00:00 | 00:00:00 | 00:00:00 | |
| OE5WHR-10 | 2026-09-06 03:37:59 | 47.70898 | 15.23810 | 100° | 68km/h | 18387m | -7.0m/s | -58.8°C | 5.2% | 0hPa | 2.5V | 00:00:00 | 01:49:03 | 00:00:00 | |
| OE3MUC-15 | 2026-09-06 03:37:57 | 47.70904 | 15.23760 | 100° | 68km/h | 18401m | -6.7m/s | -58.6°C | 5.1% | 0hPa | 2.5V | 00:00:00 | 00:00:00 | 00:00:00 | |
| PG1ADW-2 | 2026-09-06 03:37:54 | 47.70912 | 15.23684 | 100° | 69km/h | 18421m | -6.8m/s | -58.6°C | 5.1% | 0hPa | 2.6V | 00:00:00 | 00:00:00 | 00:00:00 | |
| OE3MUC-15 | 2026-09-06 03:37:53 | 47.70915 | 15.23660 | 101° | 68km/h | 18428m | -6.8m/s | -58.6°C | 5.1% | 0hPa | 2.6V | 00:00:00 | 00:00:00 | 00:00:00 | |
| OE3MUC-15 | 2026-09-06 03:37:49 | 47.70928 | 15.23562 | 103° | 66km/h | 18455m | -6.6m/s | -58.7°C | 5.2% | 0hPa | 2.6V | 00:00:00 | 00:00:00 | 00:00:00 | |
| PETON7-10 | 2026-09-06 03:37:47 | 47.70936 | 15.23514 | 103° | 71km/h | 18468m | -6.5m/s | -58.7°C | 5.1% | 0hPa | 2.6V | 00:00:00 | 00:00:00 | 00:00:00 | |
| OE3MUC-15 | 2026-09-06 03:37:45 | 47.70943 | 15.23466 | 103° | 68km/h | 18481m | -6.8m/s | -58.7°C | 5.1% | 0hPa | 2.5V | 00:00:00 | 00:00:00 | 00:00:00 | |
| OE5MMP-10 | 2026-09-06 03:37:44 | 47.70948 | 15.23441 | 106° | 71km/h | 18488m | -6.8m/s | -58.8°C | 5.2% | 0hPa | 2.5V | 00:00:00 | 01:48:48 | 00:00:00 | |
| OE5DRO-10 | 2026-09-06 03:37:43 | 47.70952 | 15.23417 | 104° | 73km/h | 18494m | -6.9m/s | -58.8°C | 5.2% | 0hPa | 2.5V | 00:00:00 | 00:00:00 | 00:00:00 | |
| OE3JTB-15 | 2026-09-06 03:37:41 | 47.70961 | 15.23367 | 106° | 66km/h | 18508m | -7.0m/s | -58.9°C | 5.3% | 0hPa | 2.6V | 00:00:00 | 00:00:00 | 00:00:00 | |
| OE5WHR-10 | 2026-09-06 03:37:38 | 47.70977 | 15.23292 | 109° | 68km/h | 18529m | -7.1m/s | -59.0°C | 5.4% | 0hPa | 2.5V | 08:20:00 | 00:00:00 | 00:00:00 | |
| OE5DXL-15 | 2026-09-06 03:37:35 | 47.70996 | 15.23214 | 114° | 62km/h | 18552m | -7.5m/s | -59.1°C | 5.4% | 0hPa | 2.6V | 00:00:00 | 01:48:39 | 00:00:00 | |
| OE5MMP-10 | 2026-09-06 03:37:34 | 47.71004 | 15.23189 | 116° | 73km/h | 18560m | -7.3m/s | -59.1°C | 5.5% | 0hPa | 2.6V | 00:00:00 | 01:48:38 | 00:00:00 | |
| OE5FHM-15 | 2026-09-06 03:37:32 | 47.71022 | 15.23139 | 119° | 62km/h | 18575m | -7.7m/s | -59.1°C | 5.5% | 0hPa | 2.5V | 00:00:00 | 01:48:36 | 00:00:00 | |
| S52SK | 2026-09-06 03:37:29 | 47.71041 | 15.23091 | 122° | 75km/h | 18591m | -7.4m/s | -59.2°C | 1.9% | 0hPa | 2.5V | 00:00:00 | 00:00:00 | 00:00:00 | |
| OE8JPQ-2 | 2026-09-06 03:37:27 | 47.71073 | 15.23023 | 131° | 57km/h | 18613m | -7.0m/s | -59.1°C | 5.6% | 0hPa | 2.5V | 08:20:00 | 00:00:00 | 00:00:00 | |
| OE5MMP-10 | 2026-09-06 03:37:24 | 47.71107 | 15.22966 | 134° | 55km/h | 18635m | -7.5m/s | -59.0°C | 5.6% | 0hPa | 2.5V | 00:00:00 | 01:48:28 | 00:00:00 | |
| S52SK | 2026-09-06 03:37:23 | 47.71107 | 15.22966 | 134° | 64km/h | 18635m | -7.5m/s | -59.0°C | 1.9% | 0hPa | 2.5V | 00:00:00 | 00:00:00 | 00:00:00 | |
| OE3MUC-15 | 2026-09-06 03:37:21 | 47.71138 | 15.22916 | 132° | 55km/h | 18658m | -7.3m/s | -58.8°C | 5.7% | 0hPa | 2.5V | 00:00:00 | 00:00:00 | 00:00:00 | |
| OE5WHR-10 | 2026-09-06 03:37:17 | 47.71172 | 15.22852 | 124° | 62km/h | 18687m | -7.0m/s | -58.2°C | 5.4% | 0hPa | 2.5V | 00:00:00 | 00:00:00 | 00:00:00 | |
| OE3JTB-15 | 2026-09-06 03:37:12 | 47.71203 | 15.22771 | 116° | 73km/h | 18722m | -6.6m/s | -57.1°C | 5.0% | 0hPa | 2.5V | 00:00:00 | 00:00:00 | 00:00:00 | |
| OE3MUC-15 | 2026-09-06 03:37:09 | 47.71220 | 15.22714 | 114° | 62km/h | 18743m | -6.9m/s | -57.0°C | 4.9% | 0hPa | 2.5V | 00:00:00 | 00:00:00 | 00:00:00 | |
| OE8JPQ-2 | 2026-09-06 03:37:07 | 47.71233 | 15.22673 | 118° | 75km/h | 18757m | -6.7m/s | -56.8°C | 4.9% | 0hPa | 2.6V | 00:00:00 | 00:00:00 | 00:00:00 | |
| OE3MUC-15 | 2026-09-06 03:37:05 | 47.71249 | 15.22630 | 120° | 69km/h | 18771m | -6.9m/s | -56.8°C | 4.9% | 0hPa | 2.6V | 00:00:00 | 00:00:00 | 00:00:00 | |
| OE5MMP-10 | 2026-09-06 03:37:04 | 47.71258 | 15.22608 | 122° | 75km/h | 18778m | -6.6m/s | -56.8°C | 4.9% | 0hPa | 2.6V | 08:21:00 | 01:48:08 | 00:00:00 | |
| OE5FHM-15 | 2026-09-06 03:37:02 | 47.71278 | 15.22564 | 127° | 78km/h | 18791m | -6.8m/s | -56.6°C | 4.8% | 0hPa | 2.5V | 00:00:00 | 01:48:06 | 00:00:00 | |
| OE3MUC-15 | 2026-09-06 03:37:01 | 47.71289 | 15.22541 | 127° | 77km/h | 18798m | -7.1m/s | -56.5°C | 4.8% | 0hPa | 2.5V | 00:00:00 | 00:00:00 | 00:00:00 | |
| OE3MUC-15 | 2026-09-06 03:36:57 | 47.71337 | 15.22452 | 129° | 77km/h | 18826m | -7.0m/s | -56.4°C | 4.8% | 0hPa | 2.5V | 08:21:00 | 00:00:00 | 00:00:00 | |
| OE5WHR-10 | 2026-09-06 03:36:56 | 47.71349 | 15.22430 | 132° | 80km/h | 18833m | -6.9m/s | -56.4°C | 4.8% | 0hPa | 2.5V | 00:00:00 | 01:48:00 | 00:00:00 | |
| OE5MMP-10 | 2026-09-06 03:36:54 | 47.71375 | 15.22387 | 134° | 80km/h | 18847m | -7.0m/s | -56.2°C | 4.7% | 0hPa | 2.5V | 00:00:00 | 01:47:58 | 00:00:00 | |
| OE3MUC-15 | 2026-09-06 03:36:53 | 47.71388 | 15.22365 | 132° | 78km/h | 18854m | -7.3m/s | -55.9°C | 4.6% | 0hPa | 2.5V | 00:00:00 | 00:00:00 | 00:00:00 | |
| OE3MUC-15 | 2026-09-06 03:36:49 | 47.71445 | 15.22281 | 138° | 82km/h | 18883m | -6.8m/s | -55.6°C | 4.5% | 0hPa | 2.5V | 00:00:00 | 00:00:00 | 00:00:00 | |
| PETON7-10 | 2026-09-06 03:36:47 | 47.71475 | 15.22240 | 139° | 78km/h | 18897m | -7.4m/s | -55.7°C | 4.5% | 0hPa | 2.5V | 00:00:00 | 00:00:00 | 00:00:00 | |
| OE5DRO-10 | 2026-09-06 03:36:46 | 47.71491 | 15.22220 | 141° | 77km/h | 18905m | -7.0m/s | -55.7°C | 4.5% | 0hPa | 2.5V | 08:21:00 | 00:00:00 | 00:00:00 | |
| OE3MUC-15 | 2026-09-06 03:36:45 | 47.71507 | 15.22200 | 140° | 82km/h | 18912m | -7.2m/s | -55.8°C | 4.6% | 0hPa | 2.5V | 00:00:00 | 00:00:00 | 00:00:00 | |
| OE5MMP-10 | 2026-09-06 03:36:44 | 47.71523 | 15.22181 | 143° | 78km/h | 18919m | -6.9m/s | -55.7°C | 4.5% | 0hPa | 2.6V | 00:00:00 | 01:47:48 | 00:00:00 | |
| OE3JTB-15 | 2026-09-06 03:36:43 | 47.71539 | 15.22162 | 142° | 68km/h | 18926m | -7.2m/s | -55.7°C | 4.5% | 0hPa | 2.6V | 00:00:00 | 01:47:47 | 00:00:00 | |
| OE3MUC-15 | 2026-09-06 03:36:41 | 47.71572 | 15.22125 | 145° | 80km/h | 18940m | -7.1m/s | -55.6°C | 4.4% | 0hPa | 2.6V | 00:00:00 | 00:00:00 | 00:00:00 | |
| OE3MUC-15 | 2026-09-06 03:36:37 | 47.71639 | 15.22060 | 148° | 75km/h | 18968m | -6.7m/s | -55.8°C | 4.5% | 0hPa | 2.6V | 00:00:00 | 00:00:00 | 00:00:00 | |
| OE5WHR-10 | 2026-09-06 03:36:35 | 47.71671 | 15.22031 | 150° | 64km/h | 18981m | -7.2m/s | -55.8°C | 4.5% | 0hPa | 2.6V | 00:00:00 | 00:00:00 | 00:00:00 | |
| OE5MMP-10 | 2026-09-06 03:36:34 | 47.71688 | 15.22017 | 149° | 69km/h | 18989m | -7.0m/s | -55.8°C | 4.5% | 0hPa | 2.5V | 00:00:00 | 01:47:38 | 00:00:00 | |
| OE3MUC-15 | 2026-09-06 03:36:33 | 47.71703 | 15.22003 | 151° | 73km/h | 18996m | -7.2m/s | -55.8°C | 4.5% | 0hPa | 2.5V | 00:00:00 | 00:00:00 | 00:00:00 | |
| PETON7-10 | 2026-09-06 03:36:32 | 47.71719 | 15.21989 | 150° | 64km/h | 19003m | -7.4m/s | -55.8°C | 4.5% | 0hPa | 2.5V | 00:00:00 | 01:47:36 | 00:00:00 | |
| OE3MUC-15 | 2026-09-06 03:36:29 | 47.71766 | 15.21948 | 150° | 69km/h | 19025m | -7.0m/s | -55.9°C | 4.5% | 0hPa | 2.5V | 00:00:00 | 00:00:00 | 00:00:00 | |
| OE8JPQ-2 | 2026-09-06 03:36:27 | 47.71797 | 15.21921 | 150° | 57km/h | 19040m | -7.0m/s | -55.8°C | 4.5% | 0hPa | 2.5V | 00:00:00 | 00:00:00 | 00:00:00 | |
| OE3MUC-15 | 2026-09-06 03:36:25 | 47.71825 | 15.21896 | 150° | 62km/h | 19054m | -7.0m/s | -55.9°C | 4.6% | 0hPa | 2.5V | 00:00:00 | 00:00:00 | 00:00:00 | |
| OE5MMP-10 | 2026-09-06 03:36:24 | 47.71839 | 15.21884 | 150° | 57km/h | 19061m | -7.0m/s | -56.0°C | 4.6% | 0hPa | 2.5V | 00:00:00 | 01:47:28 | 00:00:00 | |
| OE3MUC-15 | 2026-09-06 03:36:21 | 47.71879 | 15.21849 | 151° | 57km/h | 19083m | -7.0m/s | -56.0°C | 4.7% | 0hPa | 2.5V | 08:22:00 | 00:00:00 | 00:00:00 | |
| PETON7-10 | 2026-09-06 03:36:17 | 47.71927 | 15.21806 | 149° | 53km/h | 19112m | -7.4m/s | -56.2°C | 4.8% | 0hPa | 2.6V | 08:22:00 | 00:00:00 | 00:00:00 | |
| OE5MMP-10 | 2026-09-06 03:36:14 | 47.71962 | 15.21775 | 149° | 53km/h | 19134m | -7.0m/s | -56.2°C | 4.8% | 0hPa | 2.5V | 00:00:00 | 01:47:18 | 00:00:00 | |
| OE3MUC-15 | 2026-09-06 03:36:13 | 47.71973 | 15.21764 | 150° | 53km/h | 19141m | -7.0m/s | -56.1°C | 4.8% | 0hPa | 2.5V | 00:00:00 | 00:00:00 | 00:00:00 | |
| OE3OSB-13 | 2026-09-06 03:36:10 | 47.72020 | 15.21727 | 154° | 51km/h | 19169m | -7.1m/s | -55.9°C | 1.5% | -1.0hPa | 2.5V | 00:00:00 | 00:00:00 | 00:00:00 | |
| OE3MUC-15 | 2026-09-06 03:36:09 | 47.72019 | 15.21727 | 155° | 53km/h | 19169m | -7.0m/s | -55.9°C | 4.8% | 0hPa | 2.5V | 00:00:00 | 00:00:00 | 00:00:00 | |
| OE5DRO-10 | 2026-09-06 03:36:08 | 47.72032 | 15.21718 | 154° | 44km/h | 19177m | -7.2m/s | -55.8°C | 4.7% | 0hPa | 2.5V | 00:00:00 | 00:00:00 | 00:00:00 | |
| OE8JPQ-2 | 2026-09-06 03:36:07 | 47.72044 | 15.21710 | 157° | 42km/h | 19184m | -7.2m/s | -55.7°C | 4.7% | 0hPa | 2.5V | 00:00:00 | 00:00:00 | 00:00:00 | |
| OE5DXL-15 | 2026-09-06 03:36:05 | 47.72068 | 15.21693 | 155° | 37km/h | 19198m | -7.2m/s | -55.6°C | 4.7% | 0hPa | 2.5V | 00:00:00 | 00:00:00 | 00:00:00 | |
| OE5MMP-10 | 2026-09-06 03:36:04 | 47.72080 | 15.21684 | 153° | 46km/h | 19205m | -7.0m/s | -55.6°C | 4.7% | 0hPa | 2.5V | 00:00:00 | 01:47:08 | 00:00:00 | |
| OE5FHM-15 | 2026-09-06 03:36:02 | 47.72102 | 15.21666 | 152° | 35km/h | 19219m | -6.9m/s | -55.5°C | 4.7% | 0hPa | 2.6V | 00:00:00 | 01:47:06 | 00:00:00 | |
| DO3MHA-12 | 2026-09-06 03:36:01 | 47.72113 | 15.21657 | 151° | 40km/h | 19226m | -6.7m/s | -55.5°C | 4.7% | 0hPa | 2.6V | 00:00:00 | 01:47:05 | 00:00:00 | |
| OE3MUC-15 | 2026-09-06 03:35:57 | 47.72153 | 15.21625 | 153° | 40km/h | 19255m | -7.1m/s | -55.3°C | 4.7% | 0hPa | 2.5V | 00:00:00 | 00:00:00 | 00:00:00 | |
| OE5MMP-10 | 2026-09-06 03:35:54 | 47.72180 | 15.21606 | 153° | 33km/h | 19277m | -7.5m/s | -55.2°C | 4.7% | 0hPa | 2.5V | 00:00:00 | 01:46:58 | 00:00:00 | |
| OE5WHR-10 | 2026-09-06 03:35:53 | 47.72188 | 15.21599 | 152° | 29km/h | 19284m | -7.5m/s | -55.0°C | 4.7% | 0hPa | 2.5V | 00:00:00 | 01:46:57 | 00:00:00 | |
| DO3MHA-12 | 2026-09-06 03:35:51 | 47.72203 | 15.21585 | 149° | 33km/h | 19299m | -7.3m/s | -54.8°C | 4.6% | 0hPa | 2.5V | 00:00:00 | 01:46:55 | 00:00:00 | |
| OE3MUC-15 | 2026-09-06 03:35:49 | 47.72217 | 15.21572 | 146° | 31km/h | 19314m | -7.3m/s | -54.6°C | 4.6% | 0hPa | 2.5V | 00:00:00 | 00:00:00 | 00:00:00 | |
| PETON7-10 | 2026-09-06 03:35:47 | 47.72230 | 15.21559 | 149° | 29km/h | 19328m | -7.1m/s | -54.5°C | 4.5% | 0hPa | 2.5V | 00:00:00 | 01:46:51 | 00:00:00 | |
| OE3JTB-15 | 2026-09-06 03:35:45 | 47.72245 | 15.21547 | 155° | 26km/h | 19343m | -6.9m/s | -54.1°C | 4.4% | 0hPa | 2.5V | 00:00:00 | 00:00:00 | 00:00:00 | |
| OE5MMP-10 | 2026-09-06 03:35:44 | 47.72252 | 15.21541 | 157° | 29km/h | 19350m | -7.1m/s | -53.9°C | 4.3% | 0hPa | 2.5V | 00:00:00 | 01:46:48 | 00:00:00 | |
| OE3OSB-13 | 2026-09-06 03:35:39 | 47.72296 | 15.21515 | 160° | 26km/h | 19392m | -7.3m/s | -53.3°C | 1.3% | -1.0hPa | 2.5V | 00:00:00 | 00:00:00 | 00:00:00 | |
| DO3MHA-12 | 2026-09-06 03:35:37 | 47.72302 | 15.21511 | 156° | 20km/h | 19399m | -7.2m/s | -53.2°C | 4.1% | 0hPa | 2.5V | 00:00:00 | 01:46:41 | 00:00:00 | |
| OE5DXL-15 | 2026-09-06 03:35:35 | 47.72313 | 15.21503 | 154° | 31km/h | 19414m | -7.2m/s | -53.0°C | 4.0% | 0hPa | 2.5V | 00:00:00 | 00:00:00 | 00:00:00 | |
| OE5MMP-10 | 2026-09-06 03:35:34 | 47.72318 | 15.21499 | 145° | 18km/h | 19421m | -7.0m/s | -53.0°C | 4.0% | 0hPa | 2.5V | 08:22:00 | 01:46:38 | 00:00:00 | |
| OE5FHM-15 | 2026-09-06 03:35:32 | 47.72326 | 15.21491 | 144° | 35km/h | 19435m | -7.1m/s | -52.9°C | 3.9% | 0hPa | 2.6V | 00:00:00 | 01:46:36 | 00:00:00 | |
| OE5WHR-10 | 2026-09-06 03:35:31 | 47.72329 | 15.21487 | 135° | 29km/h | 19442m | -7.2m/s | -52.8°C | 3.9% | 0hPa | 2.6V | 00:00:00 | 00:00:00 | 00:00:00 | |
| OE5DRO-10 | 2026-09-06 03:35:30 | 47.72332 | 15.21483 | 137° | 29km/h | 19449m | -7.3m/s | -52.8°C | 3.9% | 0hPa | 2.5V | 00:00:00 | 00:00:00 | 00:00:00 | |
| DO3MHA-12 | 2026-09-06 03:35:27 | 47.72340 | 15.21468 | 119° | 24km/h | 19470m | -7.2m/s | -52.9°C | 3.9% | 0hPa | 2.5V | 08:22:00 | 01:46:31 | 00:00:00 | |
| OE5MMP-10 | 2026-09-06 03:35:24 | 47.72345 | 15.21448 | 105° | 31km/h | 19492m | -7.2m/s | -52.8°C | 3.9% | 0hPa | 2.5V | 00:00:00 | 01:46:28 | 00:00:00 | |
| OE3MUC-15 | 2026-09-06 03:35:21 | 47.72349 | 15.21421 | 100° | 31km/h | 19513m | -7.4m/s | -53.0°C | 4.0% | 0hPa | 2.5V | 00:00:00 | 00:00:00 | 00:00:00 | |
| DO3MHA-12 | 2026-09-06 03:35:17 | 47.72355 | 15.21374 | 104° | 46km/h | 19543m | -7.3m/s | -53.2°C | 4.0% | 0hPa | 2.5V | 00:00:00 | 01:46:21 | 00:00:00 | |
| OE3JTB-15 | 2026-09-06 03:35:16 | 47.72357 | 15.21360 | 104° | 44km/h | 19551m | -7.5m/s | -53.3°C | 4.0% | 0hPa | 2.5V | 00:00:00 | 01:46:20 | 00:00:00 | |
| OE5MMP-10 | 2026-09-06 03:35:14 | 47.72364 | 15.21330 | 112° | 49km/h | 19565m | -7.3m/s | -53.3°C | 4.1% | 0hPa | 2.5V | 00:00:00 | 01:46:18 | 00:00:00 | |
| OE3MUC-15 | 2026-09-06 03:35:13 | 47.72368 | 15.21314 | 117° | 49km/h | 19573m | -7.2m/s | -53.4°C | 4.1% | 0hPa | 2.5V | 00:00:00 | 00:00:00 | 00:00:00 | |
| OE5DRO-10 | 2026-09-06 03:35:11 | 47.72380 | 15.21283 | 125° | 46km/h | 19588m | -7.1m/s | -53.3°C | 4.1% | 0hPa | 2.5V | 00:00:00 | 00:00:00 | 00:00:00 | |
| OE5WHR-10 | 2026-09-06 03:35:10 | 47.72388 | 15.21268 | 126° | 44km/h | 19596m | -7.3m/s | -53.3°C | 4.1% | 0hPa | 2.5V | 00:00:00 | 00:00:00 | 00:00:00 | |
| OE3MUC-15 | 2026-09-06 03:35:09 | 47.72396 | 15.21253 | 132° | 49km/h | 19604m | -6.9m/s | -53.3°C | 4.0% | 0hPa | 2.5V | 08:23:00 | 00:00:00 | 00:00:00 | |
| OE3OSB-13 | 2026-09-06 03:35:08 | 47.72413 | 15.21226 | 138° | 49km/h | 19619m | -7.1m/s | -53.3°C | 1.2% | -1.0hPa | 2.5V | 00:00:00 | 00:00:00 | 00:00:00 | |
| DO3MHA-12 | 2026-09-06 03:35:07 | 47.72413 | 15.21226 | 139° | 47km/h | 19619m | -7.0m/s | -53.2°C | 4.0% | 0hPa | 2.5V | 00:00:00 | 01:46:11 | 00:00:00 | |
| OE3MUC-15 | 2026-09-06 03:35:05 | 47.72432 | 15.21203 | 146° | 47km/h | 19634m | -7.4m/s | -53.2°C | 4.0% | 0hPa | 2.5V | 00:00:00 | 00:00:00 | 00:00:00 | |
| OE5MMP-10 | 2026-09-06 03:35:04 | 47.72442 | 15.21193 | 145° | 44km/h | 19642m | -7.7m/s | -53.3°C | 4.0% | 0hPa | 2.5V | 00:00:00 | 01:46:08 | 00:00:00 | |
| OE5FHM-15 | 2026-09-06 03:35:02 | 47.72462 | 15.21174 | 154° | 42km/h | 19657m | -7.7m/s | -53.3°C | 4.1% | 0hPa | 2.6V | 00:00:00 | 01:46:06 | 00:00:00 | |
| OE3MUC-15 | 2026-09-06 03:35:01 | 47.72473 | 15.21167 | 152° | 44km/h | 19665m | -7.4m/s | -53.3°C | 4.0% | 0hPa | 2.6V | 00:00:00 | 00:00:00 | 00:00:00 | |
| OE3MUC-15 | 2026-09-06 03:34:57 | 47.72514 | 15.21143 | 166° | 42km/h | 19695m | -7.2m/s | -53.3°C | 4.0% | 0hPa | 2.6V | 00:00:00 | 00:00:00 | 00:00:00 | |
| DO3MHA-12 | 2026-09-06 03:34:56 | 47.72524 | 15.21140 | 169° | 38km/h | 19702m | -7.3m/s | -53.3°C | 4.0% | 0hPa | 2.6V | 00:00:00 | 01:46:00 | 00:00:00 | |
| OE5MMP-10 | 2026-09-06 03:34:54 | 47.72545 | 15.21134 | 172° | 40km/h | 19717m | -7.6m/s | -53.4°C | 4.0% | 0hPa | 2.5V | 00:00:00 | 01:45:58 | 00:00:00 | |
| OE3MUC-15 | 2026-09-06 03:34:53 | 47.72555 | 15.21132 | 176° | 38km/h | 19724m | -7.0m/s | -53.4°C | 4.0% | 0hPa | 2.5V | 00:00:00 | 00:00:00 | 00:00:00 | |
| OE5DRO-10 | 2026-09-06 03:34:52 | 47.72564 | 15.21131 | 175° | 40km/h | 19731m | -7.2m/s | -53.5°C | 4.0% | 0hPa | 2.5V | 00:00:00 | 00:00:00 | 00:00:00 | |
| DB0NH | 2026-09-06 03:34:50 | 47.72584 | 15.21129 | 180° | 38km/h | 19746m | -7.1m/s | -53.6°C | 4.1% | 0hPa | 2.5V | 00:00:00 | 01:45:54 | 00:00:00 | |
| OE3MUC-15 | 2026-09-06 03:34:49 | 47.72593 | 15.21129 | 180° | 38km/h | 19753m | -7.3m/s | -53.7°C | 4.1% | 0hPa | 2.5V | 00:00:00 | 00:00:00 | 00:00:00 | |
| PETON7-10 | 2026-09-06 03:34:47 | 47.72613 | 15.21128 | 181° | 42km/h | 19767m | -7.1m/s | -53.7°C | 4.1% | 0hPa | 2.5V | 00:00:00 | 00:00:00 | 00:00:00 | |
| DO3MHA-12 | 2026-09-06 03:34:45 | 47.72633 | 15.21129 | 181° | 42km/h | 19782m | -7.4m/s | -53.8°C | 4.1% | 0hPa | 2.5V | 00:00:00 | 01:45:49 | 00:00:00 | |
| OE5MMP-10 | 2026-09-06 03:34:44 | 47.72643 | 15.21129 | 183° | 42km/h | 19789m | -7.3m/s | -53.7°C | 4.1% | 0hPa | 2.5V | 00:00:00 | 01:45:48 | 00:00:00 | |
| OE3MUC-15 | 2026-09-06 03:34:41 | 47.72675 | 15.21129 | 179° | 44km/h | 19811m | -7.3m/s | -53.8°C | 4.1% | 0hPa | 2.5V | 00:00:00 | 01:45:45 | 00:00:00 | |
| OE3MUC-15 | 2026-09-06 03:34:37 | 47.72719 | 15.21130 | 184° | 42km/h | 19841m | -7.5m/s | -53.8°C | 4.1% | 0hPa | 2.5V | 00:00:00 | 00:00:00 | 00:00:00 | |
| OE3OSB-13 | 2026-09-06 03:34:36 | 47.72729 | 15.21131 | 181° | 40km/h | 19848m | -7.8m/s | -53.9°C | 1.2% | -1.0hPa | 2.5V | 00:00:00 | 00:00:00 | 00:00:00 | |
| DO3MHA-12 | 2026-09-06 03:34:35 | 47.72740 | 15.21132 | 188° | 37km/h | 19856m | -7.3m/s | -53.8°C | 4.1% | 0hPa | 2.5V | 00:00:00 | 01:45:39 | 00:00:00 | |
| OE5MMP-10 | 2026-09-06 03:34:34 | 47.72750 | 15.21134 | 187° | 37km/h | 19864m | -7.6m/s | -53.9°C | 4.0% | 0hPa | 2.5V | 00:00:00 | 01:45:38 | 00:00:00 | |
| OE3MUC-15 | 2026-09-06 03:34:33 | 47.72760 | 15.21136 | 191° | 38km/h | 19871m | -7.6m/s | -53.9°C | 4.0% | 0hPa | 2.6V | 08:23:00 | 00:00:00 | 00:00:00 | |
| PETON7-10 | 2026-09-06 03:34:32 | 47.72770 | 15.21139 | 196° | 31km/h | 19878m | -7.6m/s | -53.9°C | 4.0% | 0hPa | 2.5V | 00:00:00 | 00:00:00 | 00:00:00 | |
| OE3MUC-15 | 2026-09-06 03:34:29 | 47.72797 | 15.21152 | 200° | 35km/h | 19901m | -7.6m/s | -53.9°C | 4.0% | 0hPa | 2.5V | 00:00:00 | 00:00:00 | 00:00:00 | |
| OE5WHR-10 | 2026-09-06 03:34:28 | 47.72806 | 15.21157 | 204° | 26km/h | 19909m | -7.5m/s | -53.9°C | 4.0% | 0hPa | 2.5V | 08:23:00 | 00:00:00 | 00:00:00 | |
| OE8JPQ-2 | 2026-09-06 03:34:27 | 47.72814 | 15.21162 | 204° | 24km/h | 19916m | -7.5m/s | -53.9°C | 4.0% | 0hPa | 2.6V | 08:23:00 | 00:00:00 | 00:00:00 | |
| DO3MHA-12 | 2026-09-06 03:34:25 | 47.72829 | 15.21173 | 207° | 26km/h | 19932m | -7.5m/s | -54.0°C | 4.1% | 0hPa | 2.5V | 00:00:00 | 01:45:29 | 00:00:00 | |
| OE5MMP-10 | 2026-09-06 03:34:24 | 47.72836 | 15.21179 | 214° | 24km/h | 19940m | -7.3m/s | -54.0°C | 4.1% | 0hPa | 2.6V | 00:00:00 | 01:45:28 | 00:00:00 | |
| S52SK | 2026-09-06 03:34:22 | 47.72842 | 15.21184 | 211° | 27km/h | 19947m | -7.4m/s | -54.1°C | 1.4% | 0hPa | 2.6V | 00:00:00 | 00:00:00 | 00:00:00 | |
| OE3MUC-15 | 2026-09-06 03:34:21 | 47.72854 | 15.21196 | 212° | 24km/h | 19962m | -7.4m/s | -54.2°C | 4.1% | 0hPa | 2.6V | 00:00:00 | 00:00:00 | 00:00:00 | |
| DB0NH | 2026-09-06 03:34:20 | 47.72859 | 15.21201 | 215° | 16km/h | 19969m | -7.2m/s | -54.3°C | 4.1% | 0hPa | 2.5V | 00:00:00 | 01:45:24 | 00:00:00 | |
| OE3JTB-15 | 2026-09-06 03:34:18 | 47.72869 | 15.21211 | 213° | 15km/h | 19984m | -7.3m/s | -54.4°C | 4.2% | 0hPa | 2.6V | 00:00:00 | 00:00:00 | 00:00:00 | |
| PETON7-10 | 2026-09-06 03:34:17 | 47.72873 | 15.21216 | 219° | 20km/h | 19991m | -7.3m/s | -54.5°C | 4.2% | 0hPa | 2.6V | 00:00:00 | 01:45:21 | 00:00:00 | |
| DO3MHA-12 | 2026-09-06 03:34:15 | 47.72882 | 15.21225 | 219° | 20km/h | 20006m | -7.1m/s | -54.6°C | 4.3% | 0hPa | 2.6V | 00:00:00 | 01:45:19 | 00:00:00 | |
| OE5MMP-10 | 2026-09-06 03:34:14 | 47.72886 | 15.21229 | 212° | 20km/h | 20013m | -7.2m/s | -54.7°C | 4.3% | 0hPa | 2.6V | 00:00:00 | 01:45:18 | 00:00:00 | |
| OE3MUC-15 | 2026-09-06 03:34:13 | 47.72890 | 15.21233 | 218° | 20km/h | 20020m | -7.0m/s | -54.7°C | 4.4% | 0hPa | 2.6V | 00:00:00 | 00:00:00 | 00:00:00 | |
| OE3MUC-15 | 2026-09-06 03:34:09 | 47.72907 | 15.21251 | 220° | 20km/h | 20049m | -7.3m/s | -55.0°C | 4.4% | 0hPa | 2.6V | 00:00:00 | 00:00:00 | 00:00:00 | |
| OE8JPQ-2 | 2026-09-06 03:34:07 | 47.72915 | 15.21260 | 220° | 11km/h | 20064m | -7.2m/s | -55.1°C | 4.5% | 0hPa | 2.6V | 00:00:00 | 00:00:00 | 00:00:00 | |
| DO3MHA-12 | 2026-09-06 03:34:05 | 47.72924 | 15.21269 | 219° | 13km/h | 20078m | -7.3m/s | -55.2°C | 4.5% | 0hPa | 2.6V | 00:00:00 | 01:45:09 | 00:00:00 | |
| OE5MMP-10 | 2026-09-06 03:34:04 | 47.72927 | 15.21273 | 212° | 11km/h | 20085m | -7.2m/s | -55.2°C | 4.6% | 0hPa | 2.6V | 08:24:00 | 01:45:08 | 00:00:00 | |
| PETON7-10 | 2026-09-06 03:34:02 | 47.72935 | 15.21281 | 216° | 7km/h | 20099m | -7.0m/s | -55.2°C | 4.6% | 0hPa | 2.5V | 08:24:00 | 00:00:00 | 00:00:00 | |
| OE3MUC-15 | 2026-09-06 03:34:01 | 47.72938 | 15.21284 | 217° | 11km/h | 20106m | -7.0m/s | -55.1°C | 4.6% | 0hPa | 2.6V | 00:00:00 | 00:00:00 | 00:00:00 | |
| OE3MUC-15 | 2026-09-06 03:33:57 | 47.72944 | 15.21297 | 254° | 7km/h | 20136m | -7.3m/s | -54.8°C | 4.5% | 0hPa | 2.6V | 08:24:00 | 00:00:00 | 00:00:00 | |
| DO3MHA-12 | 2026-09-06 03:33:55 | 47.72945 | 15.21302 | 281° | 7km/h | 20151m | -7.4m/s | -54.5°C | 4.4% | 0hPa | 2.5V | 08:24:00 | 01:44:59 | 00:00:00 | |
| OE5MMP-10 | 2026-09-06 03:33:54 | 47.72944 | 15.21304 | 277° | 7km/h | 20158m | -7.3m/s | -54.4°C | 4.3% | 0hPa | 2.6V | 00:00:00 | 01:44:58 | 00:00:00 | |
| OE3MUC-15 | 2026-09-06 03:33:53 | 47.72944 | 15.21306 | 319° | 5km/h | 20165m | -7.3m/s | -54.2°C | 4.2% | 0hPa | 2.6V | 00:00:00 | 00:00:00 | 00:00:00 | |
| DB0NH | 2026-09-06 03:33:50 | 47.72940 | 15.21308 | 360° | 16km/h | 20187m | -7.3m/s | -53.9°C | 4.1% | 0hPa | 2.6V | 00:00:00 | 01:44:54 | 00:00:00 | |
| OE3MUC-15 | 2026-09-06 03:33:49 | 47.72939 | 15.21308 | 346° | 7km/h | 20194m | -7.3m/s | -53.9°C | 4.1% | 0hPa | 2.6V | 00:00:00 | 00:00:00 | 00:00:00 | |
| PETON7-10 | 2026-09-06 03:33:47 | 47.72935 | 15.21309 | 3° | 15km/h | 20209m | -7.4m/s | -53.9°C | 4.1% | 0hPa | 2.6V | 00:00:00 | 00:00:00 | 00:00:00 | |
| OE5WHR-10 | 2026-09-06 03:33:46 | 47.72932 | 15.21310 | 353° | 18km/h | 20216m | -7.4m/s | -54.0°C | 4.1% | 0hPa | 2.6V | 00:00:00 | 01:44:50 | 00:00:00 | |
| DO3MHA-12 | 2026-09-06 03:33:45 | 47.72930 | 15.21310 | 347° | 15km/h | 20224m | -7.4m/s | -54.0°C | 4.1% | 0hPa | 2.6V | 00:00:00 | 01:44:49 | 00:00:00 | |
| OE5MMP-10 | 2026-09-06 03:33:44 | 47.72927 | 15.21311 | 354° | 15km/h | 20231m | -7.9m/s | -54.1°C | 4.1% | 0hPa | 2.6V | 00:00:00 | 01:44:48 | 00:00:00 | |
| OE5DRO-10 | 2026-09-06 03:33:36 | 47.72899 | 15.21319 | 356° | 24km/h | 20290m | -7.1m/s | -54.2°C | 4.1% | 0hPa | 2.6V | 00:00:00 | 00:00:00 | 00:00:00 | |
| OE5DXL-15 | 2026-09-06 03:33:35 | 47.72895 | 15.21320 | 355° | 27km/h | 20297m | -7.4m/s | -54.3°C | 4.1% | 0hPa | 2.6V | 00:00:00 | 00:00:00 | 00:00:00 | |
| OE5MMP-10 | 2026-09-06 03:33:34 | 47.72890 | 15.21319 | 6° | 24km/h | 20305m | -7.4m/s | -54.3°C | 4.1% | 0hPa | 2.6V | 00:00:00 | 01:44:38 | 00:00:00 | |
| OE5FHM-15 | 2026-09-06 03:33:32 | 47.72880 | 15.21319 | 1° | 29km/h | 20319m | -7.5m/s | -54.4°C | 4.1% | 0hPa | 2.5V | 00:00:00 | 01:44:36 | 00:00:00 | |
| OE8JPQ-2 | 2026-09-06 03:33:27 | 47.72851 | 15.21314 | 10° | 29km/h | 20357m | -7.5m/s | -54.7°C | 4.2% | 0hPa | 2.5V | 00:00:00 | 00:00:00 | 00:00:00 | |
| DO3MHA-12 | 2026-09-06 03:33:25 | 47.72838 | 15.21310 | 16° | 27km/h | 20371m | -7.4m/s | -54.9°C | 4.2% | 0hPa | 2.5V | 00:00:00 | 01:44:29 | 00:00:00 | |
| OE5MMP-10 | 2026-09-06 03:33:24 | 47.72832 | 15.21307 | 18° | 29km/h | 20379m | -7.3m/s | -54.9°C | 4.3% | 0hPa | 2.5V | 00:00:00 | 01:44:28 | 00:00:00 | |
| OE3MUC-15 | 2026-09-06 03:33:21 | 47.72812 | 15.21297 | 19° | 29km/h | 20401m | -7.2m/s | -55.2°C | 4.3% | 0hPa | 2.5V | 08:25:00 | 00:00:00 | 00:00:00 | |
| DB0NH | 2026-09-06 03:33:20 | 47.72805 | 15.21293 | 24° | 29km/h | 20408m | -7.7m/s | -55.2°C | 4.3% | 0hPa | 2.6V | 00:00:00 | 01:44:24 | 00:00:00 | |
| PETON7-10 | 2026-09-06 03:33:17 | 47.72785 | 15.21280 | 30° | 31km/h | 20430m | -7.5m/s | -55.4°C | 4.3% | 0hPa | 2.6V | 00:00:00 | 00:00:00 | 00:00:00 | |
| DO3MHA-12 | 2026-09-06 03:33:15 | 47.72771 | 15.21268 | 32° | 31km/h | 20444m | -7.5m/s | -55.5°C | 4.4% | 0hPa | 2.5V | 00:00:00 | 01:44:19 | 00:00:00 | |
| OE5MMP-10 | 2026-09-06 03:33:14 | 47.72765 | 15.21262 | 36° | 31km/h | 20452m | -7.2m/s | -55.6°C | 4.4% | 0hPa | 2.5V | 00:00:00 | 01:44:18 | 00:00:00 | |
| OE3MUC-15 | 2026-09-06 03:33:13 | 47.72758 | 15.21256 | 34° | 31km/h | 20459m | -7.4m/s | -55.7°C | 4.4% | 0hPa | 2.5V | 00:00:00 | 00:00:00 | 00:00:00 | |
| OE3MUC-15 | 2026-09-06 03:33:09 | 47.72735 | 15.21224 | 48° | 33km/h | 20489m | -8.0m/s | -55.9°C | 4.5% | 0hPa | 2.5V | 00:00:00 | 00:00:00 | 00:00:00 | |
| OE8JPQ-2 | 2026-09-06 03:33:07 | 47.72725 | 15.21205 | 54° | 24km/h | 20505m | -8.0m/s | -56.1°C | 4.5% | 0hPa | 2.5V | 00:00:00 | 00:00:00 | 00:00:00 | |
| DO3MHA-12 | 2026-09-06 03:33:05 | 47.72716 | 15.21184 | 66° | 29km/h | 20521m | -8.1m/s | -56.2°C | 4.6% | 0hPa | 2.5V | 00:00:00 | 01:44:09 | 00:00:00 | |
| OE5WHR-10 | 2026-09-06 03:33:04 | 47.72713 | 15.21172 | 69° | 51km/h | 20530m | -8.0m/s | -56.2°C | 4.6% | 0hPa | 2.5V | 00:00:00 | 00:00:00 | 00:00:00 | |
| OE3OSB-13 | 2026-09-06 03:33:03 | 47.72710 | 15.21162 | 71° | 29km/h | 20538m | -8.4m/s | -56.4°C | 1.4% | -1.0hPa | 2.5V | 00:00:00 | 00:00:00 | 00:00:00 | |
| OE5FHM-15 | 2026-09-06 03:33:02 | 47.72708 | 15.21150 | 78° | 24km/h | 20547m | -8.0m/s | -56.4°C | 4.7% | 0hPa | 2.5V | 00:00:00 | 01:44:06 | 00:00:00 | |
| OE3MUC-15 | 2026-09-06 03:33:01 | 47.72707 | 15.21138 | 87° | 27km/h | 20554m | -7.7m/s | -56.5°C | 4.7% | 0hPa | 2.5V | 00:00:00 | 00:00:00 | 00:00:00 | |
| OE5DRO-10 | 2026-09-06 03:32:58 | 47.72706 | 15.21108 | 99° | 16km/h | 20578m | -7.7m/s | -56.6°C | 4.8% | 0hPa | 2.5V | 00:00:00 | 00:00:00 | 00:00:00 | |
| OE3MUC-15 | 2026-09-06 03:32:57 | 47.72707 | 15.21098 | 98° | 22km/h | 20586m | -8.1m/s | -56.6°C | 4.8% | 0hPa | 2.5V | 00:00:00 | 00:00:00 | 00:00:00 | |
| DO3MHA-12 | 2026-09-06 03:32:55 | 47.72709 | 15.21081 | 109° | 15km/h | 20603m | -7.5m/s | -56.5°C | 4.8% | 0hPa | 2.6V | 00:00:00 | 01:43:59 | 00:00:00 | |
| OE5MMP-10 | 2026-09-06 03:32:54 | 47.72710 | 15.21074 | 108° | 13km/h | 20610m | -8.0m/s | -56.5°C | 4.7% | 0hPa | 2.5V | 00:00:00 | 01:43:58 | 00:00:00 | |
| OE3MUC-15 | 2026-09-06 03:32:53 | 47.72712 | 15.21067 | 107° | 16km/h | 20618m | -8.1m/s | -56.3°C | 4.7% | 0hPa | 2.5V | 00:00:00 | 00:00:00 | 00:00:00 | |
| OE3JTB-15 | 2026-09-06 03:32:51 | 47.72715 | 15.21056 | 119° | 33km/h | 20634m | -8.2m/s | -56.3°C | 4.7% | 0hPa | 2.5V | 00:00:00 | 00:00:00 | 00:00:00 | |
| DB0NH | 2026-09-06 03:32:50 | 47.72717 | 15.21051 | 118° | 35km/h | 20642m | -8.2m/s | -56.4°C | 4.7% | 0hPa | 2.5V | 08:25:00 | 01:43:54 | 00:00:00 | |
| OE3MUC-15 | 2026-09-06 03:32:49 | 47.72718 | 15.21047 | 125° | 9km/h | 20650m | -7.8m/s | -56.4°C | 4.8% | 0hPa | 2.5V | 00:00:00 | 00:00:00 | 00:00:00 | |
| PETON7-10 | 2026-09-06 03:32:47 | 47.72721 | 15.21041 | 111° | 26km/h | 20665m | -7.7m/s | -56.5°C | 4.8% | 0hPa | 2.5V | 00:00:00 | 01:43:51 | 00:00:00 | |
| DO3MHA-12 | 2026-09-06 03:32:45 | 47.72720 | 15.21036 | 41° | 24km/h | 20681m | -7.8m/s | -56.6°C | 4.9% | 0hPa | 2.5V | 00:00:00 | 01:43:49 | 00:00:00 | |
| OE5MMP-10 | 2026-09-06 03:32:44 | 47.72718 | 15.21034 | 35° | 27km/h | 20688m | -7.6m/s | -56.7°C | 4.9% | 0hPa | 2.5V | 00:00:00 | 01:43:48 | 00:00:00 | |
| OE3MUC-15 | 2026-09-06 03:32:41 | 47.72706 | 15.21025 | 21° | 27km/h | 20712m | -8.0m/s | -56.7°C | 5.0% | 0hPa | 2.5V | 00:00:00 | 00:00:00 | 00:00:00 | |
| OE5DRO-10 | 2026-09-06 03:32:39 | 47.72694 | 15.21017 | 25° | 46km/h | 20728m | -8.1m/s | -56.7°C | 5.1% | 0hPa | 2.5V | 00:00:00 | 00:00:00 | 00:00:00 | |
| OE3MUC-15 | 2026-09-06 03:32:37 | 47.72680 | 15.21005 | 31° | 38km/h | 20744m | -8.4m/s | -56.5°C | 5.0% | 0hPa | 2.5V | 00:00:00 | 00:00:00 | 00:00:00 | |
| DO3MHA-12 | 2026-09-06 03:32:35 | 47.72665 | 15.20989 | 41° | 47km/h | 20761m | -8.2m/s | -55.9°C | 4.7% | 0hPa | 2.5V | 00:00:00 | 01:43:39 | 00:00:00 | |
| OE5MMP-10 | 2026-09-06 03:32:34 | 47.72658 | 15.20979 | 42° | 49km/h | 20768m | -8.3m/s | -55.5°C | 4.6% | 0hPa | 2.5V | 08:25:00 | 01:43:38 | 00:00:00 | |
| OE3MUC-15 | 2026-09-06 03:32:33 | 47.72650 | 15.20968 | 47° | 46km/h | 20777m | -8.0m/s | -55.5°C | 4.6% | 0hPa | 2.5V | 00:00:00 | 00:00:00 | 00:00:00 | |
| PETON7-10 | 2026-09-06 03:32:32 | 47.72642 | 15.20956 | 48° | 51km/h | 20784m | -8.0m/s | -55.4°C | 4.5% | 0hPa | 2.6V | 00:00:00 | 00:00:00 | 00:00:00 | |
| OE3MUC-15 | 2026-09-06 03:32:29 | 47.72622 | 15.20911 | 61° | 53km/h | 20807m | -7.8m/s | -55.4°C | 4.5% | 0hPa | 2.6V | 00:00:00 | 00:00:00 | 00:00:00 | |
| OE8JPQ-2 | 2026-09-06 03:32:27 | 47.72610 | 15.20877 | 68° | 47km/h | 20822m | -7.7m/s | -55.3°C | 4.5% | 0hPa | 2.6V | 00:00:00 | 00:00:00 | 00:00:00 | |
| DO3MHA-12 | 2026-09-06 03:32:25 | 47.72601 | 15.20838 | 76° | 53km/h | 20839m | -8.1m/s | -55.3°C | 4.4% | 0hPa | 2.5V | 08:25:00 | 01:43:29 | 00:00:00 | |
| OE5MMP-10 | 2026-09-06 03:32:24 | 47.72598 | 15.20819 | 77° | 53km/h | 20846m | -8.8m/s | -55.3°C | 4.4% | 0hPa | 2.6V | 00:00:00 | 01:43:28 | 00:00:00 | |
| OE3JTB-15 | 2026-09-06 03:32:22 | 47.72593 | 15.20779 | 84° | 37km/h | 20864m | -8.3m/s | -55.3°C | 4.5% | 0hPa | 2.6V | 00:00:00 | 01:43:26 | 00:00:00 | |
| OE3MUC-15 | 2026-09-06 03:32:21 | 47.72592 | 15.20759 | 86° | 53km/h | 20872m | -8.8m/s | -55.3°C | 4.4% | 0hPa | 2.6V | 00:00:00 | 00:00:00 | 00:00:00 | |
| DB0NH | 2026-09-06 03:32:20 | 47.72591 | 15.20739 | 90° | 37km/h | 20881m | -8.3m/s | -55.3°C | 4.4% | 0hPa | 2.6V | 00:00:00 | 01:43:24 | 00:00:00 | |
| PETON7-10 | 2026-09-06 03:32:17 | 47.72596 | 15.20680 | 102° | 35km/h | 20906m | -8.8m/s | -55.3°C | 4.4% | 0hPa | 2.6V | 00:00:00 | 00:00:00 | 00:00:00 | |
| DO3MHA-12 | 2026-09-06 03:32:15 | 47.72603 | 15.20643 | 113° | 37km/h | 20924m | -8.2m/s | -55.3°C | 4.4% | 0hPa | 2.6V | 00:00:00 | 01:43:19 | 00:00:00 | |
| OE5MMP-10 | 2026-09-06 03:32:14 | 47.72608 | 15.20626 | 117° | 33km/h | 20932m | -8.3m/s | -55.4°C | 4.5% | 0hPa | 2.6V | 00:00:00 | 01:43:18 | 00:00:00 | |
| OE3MUC-15 | 2026-09-06 03:32:13 | 47.72614 | 15.20611 | 119° | 42km/h | 20940m | -8.3m/s | -55.4°C | 4.5% | 0hPa | 2.6V | 00:00:00 | 00:00:00 | 00:00:00 | |
| OE3MUC-15 | 2026-09-06 03:32:09 | 47.72636 | 15.20562 | 130° | 26km/h | 20974m | -8.3m/s | -55.7°C | 4.6% | 0hPa | 2.6V | 08:26:00 | 00:00:00 | 00:00:00 | |
| OE8JPQ-2 | 2026-09-06 03:32:07 | 47.72646 | 15.20547 | 135° | 35km/h | 20990m | -8.1m/s | -55.8°C | 4.6% | 0hPa | 2.6V | 00:00:00 | 00:00:00 | 00:00:00 | |
| DO3MHA-12 | 2026-09-06 03:32:05 | 47.72653 | 15.20534 | 129° | 24km/h | 21006m | -8.3m/s | -55.9°C | 4.8% | 0hPa | 2.6V | 00:00:00 | 01:43:09 | 00:00:00 | |
| OE5MMP-10 | 2026-09-06 03:32:04 | 47.72655 | 15.20529 | 117° | 26km/h | 21014m | -8.4m/s | -55.9°C | 4.8% | 0hPa | 2.6V | 00:00:00 | 01:43:08 | 00:00:00 | |
| OE5FHM-15 | 2026-09-06 03:32:02 | 47.72657 | 15.20518 | 99° | 51km/h | 21031m | -8.3m/s | -55.9°C | 4.9% | 0hPa | 2.5V | 08:26:00 | 01:43:06 | 00:00:00 | |
| OE3MUC-15 | 2026-09-06 03:32:01 | 47.72657 | 15.20511 | 81° | 24km/h | 21039m | -8.5m/s | -55.8°C | 4.8% | 0hPa | 2.6V | 00:00:00 | 00:00:00 | 00:00:00 | |
| OE3MUC-15 | 2026-09-06 03:31:57 | 47.72653 | 15.20473 | 80° | 38km/h | 21071m | -7.8m/s | -55.5°C | 4.8% | 0hPa | 2.6V | 00:00:00 | 00:00:00 | 00:00:00 | |
| DO3MHA-12 | 2026-09-06 03:31:55 | 47.72650 | 15.20445 | 86° | 51km/h | 21087m | -7.9m/s | -55.3°C | 4.7% | 0hPa | 2.5V | 00:00:00 | 01:42:59 | 00:00:00 | |
| PG1ADW-2 | 2026-09-06 03:31:54 | 47.72649 | 15.20429 | 87° | 60km/h | 21095m | -8.2m/s | -55.3°C | 4.7% | 0hPa | 2.6V | 00:00:00 | 00:00:00 | 00:00:00 | |
| OE3MUC-15 | 2026-09-06 03:31:53 | 47.72649 | 15.20412 | 93° | 51km/h | 21103m | -8.1m/s | -55.3°C | 4.7% | 0hPa | 2.6V | 00:00:00 | 00:00:00 | 00:00:00 | |
| DB0NH | 2026-09-06 03:31:50 | 47.72652 | 15.20355 | 99° | 62km/h | 21127m | -8.1m/s | -55.1°C | 4.5% | 0hPa | 2.6V | 00:00:00 | 01:42:54 | 00:00:00 | |
| OE3MUC-15 | 2026-09-06 03:31:49 | 47.72654 | 15.20334 | 100° | 58km/h | 21135m | -8.5m/s | -54.8°C | 4.5% | 0hPa | 2.6V | 00:00:00 | 00:00:00 | 00:00:00 | |
| PETON7-10 | 2026-09-06 03:31:47 | 47.72661 | 15.20293 | 106° | 66km/h | 21151m | -8.0m/s | -54.4°C | 4.3% | 0hPa | 2.6V | 08:26:00 | 00:00:00 | 00:00:00 | |
| DO3MHA-12 | 2026-09-06 03:31:45 | 47.72669 | 15.20249 | 110° | 66km/h | 21167m | -7.8m/s | -54.3°C | 4.3% | 0hPa | 2.6V | 00:00:00 | 01:42:49 | 00:00:00 | |
| OE5MMP-10 | 2026-09-06 03:31:44 | 47.72675 | 15.20228 | 111° | 66km/h | 21175m | -8.4m/s | -54.4°C | 4.3% | 0hPa | 2.6V | 00:00:00 | 01:42:48 | 00:00:00 | |
| OE5DRO-10 | 2026-09-06 03:31:42 | 47.72686 | 15.20183 | 115° | 66km/h | 21192m | -7.9m/s | -54.2°C | 4.2% | 0hPa | 2.6V | 00:00:00 | 00:00:00 | 00:00:00 | |
| OE5WHR-10 | 2026-09-06 03:31:41 | 47.72693 | 15.20161 | 117° | 38km/h | 21200m | -8.8m/s | -54.1°C | 4.2% | 0hPa | 2.6V | 00:00:00 | 01:42:45 | 00:00:00 | |
| S52SK | 2026-09-06 03:31:37 | 47.72718 | 15.20098 | 126° | 66km/h | 21226m | -8.7m/s | -54.1°C | 1.4% | 0hPa | 2.6V | 00:00:00 | 00:00:00 | 00:00:00 | |
| DO3MHA-12 | 2026-09-06 03:31:35 | 47.72750 | 15.20038 | 133° | 66km/h | 21252m | -8.8m/s | -54.2°C | 4.2% | 0hPa | 2.6V | 00:00:00 | 01:42:39 | 00:00:00 | |
| OE5MMP-10 | 2026-09-06 03:31:34 | 47.72761 | 15.20020 | 132° | 64km/h | 21260m | -8.7m/s | -54.2°C | 4.2% | 0hPa | 2.6V | 00:00:00 | 01:42:38 | 00:00:00 | |
| OE5FHM-15 | 2026-09-06 03:31:32 | 47.72785 | 15.19984 | 138° | 57km/h | 21278m | -8.6m/s | -54.3°C | 4.3% | 0hPa | 2.5V | 00:00:00 | 01:42:36 | 00:00:00 | |
| OE3OSB-13 | 2026-09-06 03:31:30 | 47.72810 | 15.19951 | 140° | 66km/h | 21295m | -8.6m/s | -54.5°C | 1.3% | -1.0hPa | 2.5V | 00:00:00 | 00:00:00 | 00:00:00 | |
| OE8JPQ-2 | 2026-09-06 03:31:27 | 47.72849 | 15.19908 | 147° | 55km/h | 21322m | -8.2m/s | -54.6°C | 4.4% | 0hPa | 2.5V | 08:26:00 | 00:00:00 | 00:00:00 | |
| DO3MHA-12 | 2026-09-06 03:31:25 | 47.72875 | 15.19885 | 150° | 57km/h | 21340m | -8.7m/s | -54.6°C | 4.4% | 0hPa | 2.6V | 00:00:00 | 01:42:29 | 00:00:00 | |
| OE5MMP-10 | 2026-09-06 03:31:24 | 47.72888 | 15.19874 | 150° | 55km/h | 21348m | -8.7m/s | -54.7°C | 4.5% | 0hPa | 2.5V | 00:00:00 | 01:42:28 | 00:00:00 | |
| OE5DRO-10 | 2026-09-06 03:31:23 | 47.72901 | 15.19864 | 154° | 53km/h | 21357m | -8.3m/s | -54.7°C | 4.5% | 0hPa | 2.5V | 00:00:00 | 00:00:00 | 00:00:00 | |
| OE3MUC-15 | 2026-09-06 03:31:21 | 47.72926 | 15.19846 | 154° | 55km/h | 21374m | -8.8m/s | -54.8°C | 4.5% | 0hPa | 2.5V | 00:00:00 | 00:00:00 | 00:00:00 | |
| DB0NH | 2026-09-06 03:31:20 | 47.72939 | 15.19837 | 156° | 49km/h | 21383m | -8.7m/s | -54.8°C | 4.5% | 0hPa | 2.5V | 00:00:00 | 01:42:24 | 00:00:00 | |
| PETON7-10 | 2026-09-06 03:31:17 | 47.72977 | 15.19814 | 159° | 53km/h | 21408m | -8.5m/s | -54.6°C | 4.5% | 0hPa | 2.5V | 00:00:00 | 01:42:21 | 00:00:00 | |
| DO3MHA-12 | 2026-09-06 03:31:15 | 47.73003 | 15.19800 | 163° | 53km/h | 21425m | -8.3m/s | -54.3°C | 4.3% | 0hPa | 2.5V | 00:00:00 | 01:42:19 | 00:00:00 | |
| OE5MMP-10 | 2026-09-06 03:31:14 | 47.73016 | 15.19794 | 166° | 53km/h | 21433m | -8.3m/s | -54.2°C | 4.3% | 0hPa | 2.5V | 00:00:00 | 01:42:18 | 00:00:00 | |
| OE3MUC-15 | 2026-09-06 03:31:13 | 47.73029 | 15.19789 | 166° | 53km/h | 21442m | -8.5m/s | -54.2°C | 4.3% | 0hPa | 2.5V | 00:00:00 | 00:00:00 | 00:00:00 | |
| OE3MUC-15 | 2026-09-06 03:31:09 | 47.73082 | 15.19773 | 173° | 51km/h | 21475m | -8.6m/s | -53.8°C | 4.2% | 0hPa | 2.5V | 00:00:00 | 00:00:00 | 00:00:00 | |
| OE8JPQ-2 | 2026-09-06 03:31:07 | 47.73107 | 15.19769 | 177° | 42km/h | 21493m | -8.4m/s | -53.7°C | 4.1% | 0hPa | 2.5V | 00:00:00 | 00:00:00 | 00:00:00 | |
| OE5DXL-15 | 2026-09-06 03:31:05 | 47.73133 | 15.19768 | 179° | 29km/h | 21510m | -8.8m/s | -53.6°C | 4.1% | 0hPa | 2.5V | 00:00:00 | 00:00:00 | 00:00:00 | |
| OE5MMP-10 | 2026-09-06 03:31:04 | 47.73146 | 15.19768 | 181° | 46km/h | 21519m | -8.5m/s | -53.6°C | 4.1% | 0hPa | 2.5V | 08:27:00 | 01:42:08 | 00:00:00 | |
| OE5FHM-15 | 2026-09-06 03:31:02 | 47.73171 | 15.19770 | 187° | 26km/h | 21536m | -8.4m/s | -53.7°C | 4.1% | 0hPa | 2.6V | 00:00:00 | 01:42:06 | 00:00:00 | |
| OE3OSB-13 | 2026-09-06 03:30:59 | 47.73205 | 15.19777 | 193° | 44km/h | 21561m | -8.4m/s | -53.7°C | 1.2% | -1.0hPa | 2.6V | 00:00:00 | 00:00:00 | 00:00:00 | |
| OE3MUC-15 | 2026-09-06 03:30:57 | 47.73227 | 15.19785 | 196° | 42km/h | 21578m | -8.5m/s | -53.7°C | 4.1% | 0hPa | 2.6V | 08:27:00 | 00:00:00 | 00:00:00 | |
| DO3MHA-12 | 2026-09-06 03:30:55 | 47.73248 | 15.19795 | 201° | 29km/h | 21596m | -8.8m/s | -53.8°C | 4.1% | 0hPa | 2.6V | 08:27:00 | 01:41:59 | 00:00:00 | |
| OE5MMP-10 | 2026-09-06 03:30:54 | 47.73257 | 15.19801 | 201° | 26km/h | 21604m | -8.7m/s | -53.8°C | 4.2% | 0hPa | 2.5V | 00:00:00 | 01:41:58 | 00:00:00 | |
| OE3MUC-15 | 2026-09-06 03:30:53 | 47.73266 | 15.19806 | 206° | 33km/h | 21613m | -8.6m/s | -53.9°C | 4.1% | 0hPa | 2.5V | 00:00:00 | 00:00:00 | 00:00:00 | |
| DB0NH | 2026-09-06 03:30:50 | 47.73287 | 15.19824 | 215° | 26km/h | 21638m | -8.2m/s | -53.9°C | 4.2% | 0hPa | 2.5V | 00:00:00 | 01:41:54 | 00:00:00 | |
| OE3MUC-15 | 2026-09-06 03:30:49 | 47.73293 | 15.19830 | 223° | 20km/h | 21646m | -8.4m/s | -53.9°C | 4.2% | 0hPa | 2.5V | 00:00:00 | 00:00:00 | 00:00:00 | |
| OE8JPQ-2 | 2026-09-06 03:30:47 | 47.73301 | 15.19841 | 227° | 18km/h | 21663m | -8.3m/s | -53.9°C | 4.2% | 0hPa | 2.5V | 00:00:00 | 01:41:51 | 00:00:00 | |
| DO3MHA-12 | 2026-09-06 03:30:45 | 47.73306 | 15.19851 | 247° | 11km/h | 21681m | -8.5m/s | -53.8°C | 4.1% | 0hPa | 2.5V | 00:00:00 | 01:41:49 | 00:00:00 | |
| OE5MMP-10 | 2026-09-06 03:30:44 | 47.73307 | 15.19856 | 252° | 11km/h | 21689m | -8.7m/s | -53.7°C | 4.1% | 0hPa | 2.5V | 00:00:00 | 01:41:48 | 00:00:00 | |
| OE5WHR-10 | 2026-09-06 03:30:42 | 47.73308 | 15.19863 | 285° | 22km/h | 21707m | -8.7m/s | -53.7°C | 4.1% | 0hPa | 2.5V | 00:00:00 | 00:00:00 | 00:00:00 | |
| OE3MUC-15 | 2026-09-06 03:30:41 | 47.73307 | 15.19865 | 311° | 9km/h | 21715m | -8.8m/s | -53.7°C | 4.1% | 0hPa | 2.6V | 00:00:00 | 00:00:00 | 00:00:00 | |
| OE3MUC-15 | 2026-09-06 03:30:37 | 47.73299 | 15.19865 | 30° | 18km/h | 21749m | -8.4m/s | -53.8°C | 4.1% | 0hPa | 2.6V | 00:00:00 | 00:00:00 | 00:00:00 | |
| DO3MHA-12 | 2026-09-06 03:30:35 | 47.73292 | 15.19856 | 52° | 31km/h | 21766m | -8.5m/s | -53.9°C | 4.2% | 0hPa | 2.6V | 00:00:00 | 01:41:39 | 00:00:00 | |
| OE5MMP-10 | 2026-09-06 03:30:34 | 47.73288 | 15.19850 | 50° | 35km/h | 21775m | -8.9m/s | -54.0°C | 4.2% | 0hPa | 2.6V | 00:00:00 | 01:41:38 | 00:00:00 | |
| OE3MUC-15 | 2026-09-06 03:30:33 | 47.73285 | 15.19843 | 55° | 29km/h | 21783m | -8.8m/s | -54.0°C | 4.2% | 0hPa | 2.6V | 00:00:00 | 00:00:00 | 00:00:00 | |
| PETON7-10 | 2026-09-06 03:30:32 | 47.73281 | 15.19834 | 62° | 40km/h | 21792m | -8.6m/s | -54.1°C | 4.2% | 0hPa | 2.6V | 00:00:00 | 01:41:36 | 00:00:00 | |
| OE3MUC-15 | 2026-09-06 03:30:29 | 47.73274 | 15.19800 | 80° | 40km/h | 21817m | -8.7m/s | -54.2°C | 4.3% | 0hPa | 2.6V | 00:00:00 | 00:00:00 | 00:00:00 | |
| OE3OSB-13 | 2026-09-06 03:30:28 | 47.73272 | 15.19787 | 84° | 37km/h | 21826m | -8.7m/s | -54.3°C | 1.3% | -1.0hPa | 2.6V | 00:00:00 | 00:00:00 | 00:00:00 | |
| OE8JPQ-2 | 2026-09-06 03:30:27 | 47.73272 | 15.19772 | 90° | 40km/h | 21835m | -8.9m/s | -54.2°C | 4.3% | 0hPa | 2.6V | 00:00:00 | 00:00:00 | 00:00:00 | |
| OE3JTB-15 | 2026-09-06 03:30:26 | 47.73272 | 15.19756 | 96° | 31km/h | 21844m | -8.5m/s | -54.1°C | 4.3% | 0hPa | 2.6V | 00:00:00 | 00:00:00 | 00:00:00 | |
| DO3MHA-12 | 2026-09-06 03:30:25 | 47.73274 | 15.19740 | 103° | 44km/h | 21852m | -8.4m/s | -54.1°C | 4.3% | 0hPa | 2.5V | 00:00:00 | 01:41:29 | 00:00:00 | |
| OE5MMP-10 | 2026-09-06 03:30:24 | 47.73276 | 15.19725 | 107° | 44km/h | 21861m | -9.0m/s | -54.2°C | 4.3% | 0hPa | 2.6V | 00:00:00 | 01:41:28 | 00:00:00 | |
| OE5WHR-10 | 2026-09-06 03:30:21 | 47.73289 | 15.19678 | 121° | 24km/h | 21887m | -8.4m/s | -54.3°C | 4.5% | 0hPa | 2.6V | 00:00:00 | 00:00:00 | 00:00:00 | |
| DB0NH | 2026-09-06 03:30:20 | 47.73295 | 15.19664 | 126° | 24km/h | 21896m | -9.1m/s | -54.4°C | 4.5% | 0hPa | 2.6V | 00:00:00 | 01:41:24 | 00:00:00 | |
| PETON7-10 | 2026-09-06 03:30:17 | 47.73316 | 15.19625 | 136° | 29km/h | 21925m | -9.0m/s | -54.4°C | 4.6% | 0hPa | 2.6V | 00:00:00 | 00:00:00 | 00:00:00 | |
| DO3MHA-12 | 2026-09-06 03:30:15 | 47.73332 | 15.19606 | 149° | 31km/h | 21943m | -9.1m/s | -54.2°C | 4.6% | 0hPa | 2.6V | 00:00:00 | 01:41:19 | 00:00:00 | |
| OE5MMP-10 | 2026-09-06 03:30:14 | 47.73341 | 15.19599 | 151° | 29km/h | 21952m | -8.8m/s | -54.2°C | 4.6% | 0hPa | 2.6V | 00:00:00 | 01:41:18 | 00:00:00 | |
| OE3MUC-15 | 2026-09-06 03:30:13 | 47.73349 | 15.19593 | 157° | 37km/h | 21960m | -8.8m/s | -54.2°C | 4.6% | 0hPa | 2.6V | 00:00:00 | 00:00:00 | 00:00:00 | |
| S52SK | 2026-09-06 03:30:12 | 47.73349 | 15.19593 | 158° | 37km/h | 21960m | -8.9m/s | -54.2°C | 1.5% | 0hPa | 2.6V | 00:00:00 | 00:00:00 | 00:00:00 | |
| OE8JPQ-2 | 2026-09-06 03:30:07 | 47.73393 | 15.19585 | 190° | 18km/h | 22012m | -8.9m/s | -53.5°C | 4.5% | 0hPa | 2.6V | 00:00:00 | 00:00:00 | 00:00:00 | |
| OE3MUC-15 | 2026-09-06 03:30:06 | 47.73399 | 15.19587 | 199° | 24km/h | 22021m | -8.8m/s | -53.5°C | 4.4% | 0hPa | 2.6V | 00:00:00 | 00:00:00 | 00:00:00 | |
| DO3MHA-12 | 2026-09-06 03:30:05 | 47.73404 | 15.19590 | 209° | 15km/h | 22029m | -8.9m/s | -53.4°C | 4.4% | 0hPa | 2.6V | 00:00:00 | 01:41:09 | 00:00:00 | |
| OE5MMP-10 | 2026-09-06 03:30:04 | 47.73408 | 15.19594 | 223° | 15km/h | 22038m | -8.8m/s | -53.2°C | 4.3% | 0hPa | 2.6V | 00:00:00 | 01:41:08 | 00:00:00 | |
| OE5FHM-15 | 2026-09-06 03:30:02 | 47.73412 | 15.19603 | 246° | 24km/h | 22055m | -9.0m/s | -52.6°C | 4.1% | 0hPa | 2.6V | 00:00:00 | 01:41:06 | 00:00:00 | |
| OE3MUC-15 | 2026-09-06 03:29:58 | 47.73412 | 15.19621 | 309° | 20km/h | 22090m | -8.9m/s | -52.0°C | 3.9% | 0hPa | 2.6V | 00:00:00 | 00:00:00 | 00:00:00 | |
| OE3JTB-15 | 2026-09-06 03:29:57 | 47.73409 | 15.19624 | 326° | 27km/h | 22099m | -9.0m/s | -51.9°C | 3.8% | 0hPa | 2.6V | 00:00:00 | 00:00:00 | 00:00:00 | |
| DO3MHA-12 | 2026-09-06 03:29:55 | 47.73403 | 15.19627 | 1° | 24km/h | 22117m | -8.8m/s | -51.8°C | 3.7% | 0hPa | 2.6V | 00:00:00 | 01:40:59 | 00:00:00 | |
| OE5MMP-10 | 2026-09-06 03:29:54 | 47.73399 | 15.19627 | 11° | 24km/h | 22126m | -9.1m/s | -51.7°C | 3.7% | 0hPa | 2.6V | 00:00:00 | 01:40:58 | 00:00:00 | |
| DB0NH | 2026-09-06 03:29:48 | 47.73374 | 15.19595 | 65° | 26km/h | 22178m | -8.7m/s | -51.9°C | 3.8% | 0hPa | 2.6V | 00:00:00 | 01:40:52 | 00:00:00 | |
| PETON7-10 | 2026-09-06 03:29:47 | 47.73372 | 15.19586 | 75° | 31km/h | 22187m | -9.2m/s | -51.9°C | 3.8% | 0hPa | 2.6V | 00:00:00 | 01:40:51 | 00:00:00 | |
| DO3MHA-12 | 2026-09-06 03:29:45 | 47.73370 | 15.19564 | 96° | 31km/h | 22205m | -8.6m/s | -52.0°C | 3.9% | 0hPa | 2.6V | 00:00:00 | 01:40:49 | 00:00:00 | |
| OE5MMP-10 | 2026-09-06 03:29:44 | 47.73371 | 15.19553 | 101° | 31km/h | 22213m | -9.1m/s | -52.0°C | 3.9% | 0hPa | 2.6V | 00:00:00 | 01:40:48 | 00:00:00 | |
| HARRO8 | 2026-09-06 03:29:43 | 47.73372 | 15.19542 | 106° | 29km/h | 22222m | -9.5m/s | -52.1°C | 1.1% | -1.0hPa | 2.6V | 00:00:00 | 00:00:00 | 00:00:00 | |
| OE5WHR-10 | 2026-09-06 03:29:36 | 47.73405 | 15.19479 | 148° | 24km/h | 22286m | -9.4m/s | -52.3°C | 4.0% | 0hPa | 2.6V | 08:28:00 | 00:00:00 | 00:00:00 | |
| DO3MHA-12 | 2026-09-06 03:29:35 | 47.73412 | 15.19473 | 157° | 27km/h | 22296m | -9.5m/s | -52.1°C | 3.9% | 0hPa | 2.5V | 00:00:00 | 01:40:39 | 00:00:00 | |
| OE5MMP-10 | 2026-09-06 03:29:34 | 47.73420 | 15.19469 | 165° | 26km/h | 22306m | -9.3m/s | -52.1°C | 3.9% | 0hPa | 2.5V | 08:28:00 | 01:40:38 | 00:00:00 | |
| OE5FHM-15 | 2026-09-06 03:29:32 | 47.73436 | 15.19467 | 186° | 31km/h | 22324m | -9.4m/s | -52.0°C | 3.9% | 0hPa | 2.6V | 00:00:00 | 01:40:36 | 00:00:00 | |
| OE5DRO-10 | 2026-09-06 03:29:29 | 47.73455 | 15.19477 | 219° | 26km/h | 22351m | -9.1m/s | -52.0°C | 3.9% | 0hPa | 2.6V | 00:00:00 | 00:00:00 | 00:00:00 | |
| OE3JTB-15 | 2026-09-06 03:29:28 | 47.73459 | 15.19483 | 233° | 33km/h | 22360m | -8.9m/s | -52.1°C | 3.9% | 0hPa | 2.6V | 00:00:00 | 01:40:32 | 00:00:00 | |
| OE8JPQ-2 | 2026-09-06 03:29:27 | 47.73461 | 15.19490 | 246° | 29km/h | 22369m | -9.0m/s | -52.1°C | 3.9% | 0hPa | 2.6V | 00:00:00 | 00:00:00 | 00:00:00 | |
| OE3OSB-13 | 2026-09-06 03:29:26 | 47.73462 | 15.19502 | 296° | 15km/h | 22387m | -8.8m/s | -52.1°C | 1.1% | -1.0hPa | 2.6V | 00:00:00 | 00:00:00 | 00:00:00 | |
| DO3MHA-12 | 2026-09-06 03:29:25 | 47.73462 | 15.19501 | 297° | 18km/h | 22387m | -8.8m/s | -52.1°C | 3.9% | 0hPa | 2.6V | 08:28:00 | 01:40:29 | 00:00:00 | |
| OE5MMP-10 | 2026-09-06 03:29:24 | 47.73460 | 15.19506 | 321° | 20km/h | 22395m | -8.4m/s | -52.1°C | 3.9% | 0hPa | 2.6V | 00:00:00 | 01:40:28 | 00:00:00 | |
| DB0NH | 2026-09-06 03:29:18 | 47.73447 | 15.19485 | 87° | 35km/h | 22450m | -9.3m/s | -52.0°C | 3.9% | 0hPa | 2.6V | 00:00:00 | 01:40:22 | 00:00:00 | |
| PETON7-10 | 2026-09-06 03:29:17 | 47.73447 | 15.19475 | 99° | 44km/h | 22459m | -9.5m/s | -52.0°C | 3.9% | 0hPa | 2.6V | 00:00:00 | 00:00:00 | 00:00:00 | |
| DO3MHA-12 | 2026-09-06 03:29:15 | 47.73453 | 15.19454 | 121° | 46km/h | 22478m | -9.3m/s | -52.0°C | 3.9% | 0hPa | 2.6V | 00:00:00 | 01:40:19 | 00:00:00 | |
| OE5MMP-10 | 2026-09-06 03:29:14 | 47.73458 | 15.19443 | 125° | 47km/h | 22488m | -9.1m/s | -52.0°C | 3.9% | 0hPa | 2.6V | 00:00:00 | 01:40:18 | 00:00:00 | |
| HARRO8 | 2026-09-06 03:29:12 | 47.73472 | 15.19421 | 144° | 44km/h | 22506m | -9.3m/s | -51.8°C | 1.1% | -1.0hPa | 2.6V | 00:00:00 | 00:00:00 | 00:00:00 | |
| OE5DRO-10 | 2026-09-06 03:29:10 | 47.73492 | 15.19404 | 154° | 38km/h | 22525m | -10.0m/s | -51.6°C | 3.8% | 0hPa | 2.6V | 00:00:00 | 00:00:00 | 00:00:00 | |
| OE8JPQ-2 | 2026-09-06 03:29:07 | 47.73528 | 15.19390 | 178° | 29km/h | 22554m | -9.1m/s | -51.7°C | 3.7% | 0hPa | 2.6V | 00:00:00 | 00:00:00 | 00:00:00 | |
| DO3MHA-12 | 2026-09-06 03:29:05 | 47.73553 | 15.19391 | 187° | 40km/h | 22572m | -8.8m/s | -51.7°C | 3.8% | 0hPa | 2.6V | 00:00:00 | 01:40:09 | 00:00:00 | |
| OE5MMP-10 | 2026-09-06 03:29:04 | 47.73565 | 15.19395 | 194° | 37km/h | 22581m | -8.3m/s | -51.7°C | 3.7% | 0hPa | 2.6V | 00:00:00 | 01:40:08 | 00:00:00 | |
| OE5FHM-15 | 2026-09-06 03:29:02 | 47.73587 | 15.19408 | 208° | 20km/h | 22598m | -8.7m/s | -51.8°C | 3.8% | 0hPa | 2.6V | 00:00:00 | 01:40:06 | 00:00:00 | |
| OE3JTB-15 | 2026-09-06 03:28:59 | 47.73612 | 15.19433 | 225° | 16km/h | 22624m | -9.1m/s | -51.9°C | 3.8% | 0hPa | 2.6V | 00:00:00 | 00:00:00 | 00:00:00 | |
| DO3MHA-12 | 2026-09-06 03:28:55 | 47.73630 | 15.19469 | 253° | 13km/h | 22661m | -9.5m/s | -51.9°C | 3.8% | 0hPa | 2.6V | 00:00:00 | 01:39:59 | 00:00:00 | |
| OE5MMP-10 | 2026-09-06 03:28:54 | 47.73632 | 15.19476 | 268° | 13km/h | 22671m | -9.4m/s | -51.9°C | 3.7% | 0hPa | 2.6V | 00:00:00 | 01:39:58 | 00:00:00 | |
| OE5DRO-10 | 2026-09-06 03:28:51 | 47.73632 | 15.19488 | 305° | 15km/h | 22700m | -9.3m/s | -52.0°C | 3.8% | 0hPa | 2.6V | 00:00:00 | 00:00:00 | 00:00:00 | |
| DB0NH | 2026-09-06 03:28:48 | 47.73627 | 15.19486 | 65° | 15km/h | 22726m | -8.7m/s | -52.1°C | 3.8% | 0hPa | 2.6V | 00:00:00 | 01:39:52 | 00:00:00 | |
| PETON7-10 | 2026-09-06 03:28:47 | 47.73625 | 15.19481 | 75° | 16km/h | 22735m | -8.5m/s | -52.2°C | 3.8% | 0hPa | 2.6V | 00:00:00 | 00:00:00 | 00:00:00 | |
| DO3MHA-12 | 2026-09-06 03:28:45 | 47.73623 | 15.19468 | 76° | 20km/h | 22753m | -9.1m/s | -52.3°C | 3.8% | 0hPa | 2.6V | 00:00:00 | 01:39:49 | 00:00:00 | |
| OE5MMP-10 | 2026-09-06 03:28:44 | 47.73621 | 15.19459 | 75° | 18km/h | 22762m | -9.1m/s | -52.4°C | 3.9% | 0hPa | 2.6V | 00:00:00 | 01:39:48 | 00:00:00 | |
| S52SK | 2026-09-06 03:28:42 | 47.73619 | 15.19450 | 76° | 27km/h | 22773m | -9.3m/s | -52.5°C | 1.2% | 0hPa | 2.6V | 00:00:00 | 00:00:00 | 00:00:00 | |
| HARRO8 | 2026-09-06 03:28:41 | 47.73616 | 15.19431 | 70° | 24km/h | 22791m | -9.6m/s | -52.6°C | 1.1% | -1.0hPa | 2.6V | 00:00:00 | 00:00:00 | 00:00:00 | |
| OE3MUC-15 | 2026-09-06 03:28:40 | 47.73614 | 15.19423 | 61° | 9km/h | 22801m | -9.7m/s | -52.6°C | 4.0% | 0hPa | 2.6V | 00:00:00 | 00:00:00 | 00:00:00 | |
| PG1ADW-2 | 2026-09-06 03:28:38 | 47.73608 | 15.19410 | 55° | 13km/h | 22820m | -8.8m/s | -52.7°C | 4.0% | 0hPa | 2.6V | 00:00:00 | 00:00:00 | 00:00:00 | |
| DO3MHA-12 | 2026-09-06 03:28:35 | 47.73601 | 15.19406 | 344° | 5km/h | 22846m | -8.6m/s | -52.7°C | 4.0% | 0hPa | 2.6V | 00:00:00 | 01:39:39 | 00:00:00 | |
| OE5MMP-10 | 2026-09-06 03:28:34 | 47.73600 | 15.19408 | 315° | 5km/h | 22854m | -8.5m/s | -52.8°C | 4.0% | 0hPa | 2.6V | 00:00:00 | 01:39:38 | 00:00:00 | |
| OE5WHR-10 | 2026-09-06 03:28:32 | 47.73599 | 15.19410 | 269° | 18km/h | 22871m | -8.6m/s | -52.9°C | 4.1% | 0hPa | 2.6V | 00:00:00 | 00:00:00 | 00:00:00 | |
| OE3JTB-15 | 2026-09-06 03:28:30 | 47.73599 | 15.19413 | 268° | 31km/h | 22889m | -9.2m/s | -52.8°C | 4.0% | 0hPa | 2.6V | 00:00:00 | 00:00:00 | 00:00:00 | |
| OE3MUC-15 | 2026-09-06 03:28:28 | 47.73600 | 15.19416 | 235° | 9km/h | 22907m | -9.4m/s | -52.8°C | 4.0% | 0hPa | 2.6V | 00:00:00 | 00:00:00 | 00:00:00 | |
| OE8JPQ-2 | 2026-09-06 03:28:27 | 47.73601 | 15.19418 | 219° | 27km/h | 22916m | -9.5m/s | -52.8°C | 4.0% | 0hPa | 2.6V | 08:29:00 | 00:00:00 | 00:00:00 | |
| OE3OSB-13 | 2026-09-06 03:28:24 | 47.73609 | 15.19428 | 220° | 15km/h | 22954m | -8.9m/s | -52.4°C | 1.1% | -1.0hPa | 2.6V | 00:00:00 | 00:00:00 | 00:00:00 | |
| OE3MUC-15 | 2026-09-06 03:28:20 | 47.73619 | 15.19441 | 217° | 26km/h | 22980m | -9.5m/s | -52.3°C | 3.8% | 0hPa | 2.6V | 00:00:00 | 00:00:00 | 08:30:00 | |
| PETON7-10 | 2026-09-06 03:28:17 | 47.73636 | 15.19457 | 210° | 44km/h | 23008m | -9.8m/s | -52.4°C | 3.8% | 0hPa | 2.6V | 00:00:00 | 01:39:21 | 00:00:00 | |
| OE3MUC-15 | 2026-09-06 03:28:16 | 47.73643 | 15.19462 | 207° | 37km/h | 23018m | -9.7m/s | -52.4°C | 3.8% | 0hPa | 2.6V | 00:00:00 | 00:00:00 | 00:00:00 | |
| OE5MMP-10 | 2026-09-06 03:28:14 | 47.73659 | 15.19474 | 207° | 46km/h | 23036m | -9.2m/s | -52.6°C | 3.8% | 0hPa | 2.6V | 00:00:00 | 01:39:18 | 00:00:00 | |
| OE5DRO-10 | 2026-09-06 03:28:13 | 47.73668 | 15.19480 | 203° | 40km/h | 23044m | -8.5m/s | -52.6°C | 3.8% | 0hPa | 2.6V | 00:00:00 | 00:00:00 | 08:30:00 | |
| OE3MUC-15 | 2026-09-06 03:28:12 | 47.73677 | 15.19485 | 201° | 33km/h | 23053m | -9.0m/s | -52.7°C | 3.9% | 0hPa | 2.6V | 00:00:00 | 00:00:00 | 00:00:00 | |
| OE5WHR-10 | 2026-09-06 03:28:11 | 47.73688 | 15.19491 | 200° | 47km/h | 23062m | -9.1m/s | -52.7°C | 3.9% | 0hPa | 2.6V | 00:00:00 | 00:00:00 | 00:00:00 | |
| HARRO8 | 2026-09-06 03:28:10 | 47.73698 | 15.19497 | 201° | 46km/h | 23071m | -9.2m/s | -52.8°C | 1.1% | -1.0hPa | 2.6V | 00:00:00 | 00:00:00 | 00:00:00 | |
| OE8JPQ-2 | 2026-09-06 03:28:07 | 47.73732 | 15.19516 | 201° | 31km/h | 23098m | -10.0m/s | -52.8°C | 3.9% | 0hPa | 2.6V | 00:00:00 | 00:00:00 | 00:00:00 | |
| OE5DXL-15 | 2026-09-06 03:28:05 | 47.73757 | 15.19529 | 199° | 29km/h | 23119m | -10.7m/s | -52.9°C | 4.0% | 0hPa | 2.6V | 00:00:00 | 00:00:00 | 00:00:00 | |
| OE5MMP-10 | 2026-09-06 03:28:04 | 47.73770 | 15.19536 | 200° | 35km/h | 23129m | -10.7m/s | -53.0°C | 4.0% | 0hPa | 2.6V | 00:00:00 | 01:39:08 | 08:30:00 | |
| OE5FHM-15 | 2026-09-06 03:28:02 | 47.73794 | 15.19547 | 196° | 24km/h | 23150m | -9.6m/s | -53.1°C | 4.0% | 0hPa | 2.6V | 00:00:00 | 01:39:06 | 00:00:00 | |
| OE3OSB-13 | 2026-09-06 03:27:53 | 47.73856 | 15.19592 | 236° | 15km/h | 23296m | 6.6m/s | -54.0°C | 1.2% | -1.0hPa | 2.6V | 00:00:00 | 00:00:00 | 00:00:00 | |
| PETON7-10 | 2026-09-06 03:27:47 | 47.73864 | 15.19606 | 188° | 26km/h | 23273m | 4.9m/s | -53.8°C | 4.2% | 0hPa | 2.6V | 00:00:00 | 00:00:00 | 00:00:00 | |
| DB0NH | 2026-09-06 03:27:46 | 47.73868 | 15.19607 | 189° | 26km/h | 23268m | 5.6m/s | -53.7°C | 4.3% | 0hPa | 2.6V | 00:00:00 | 01:38:50 | 00:00:00 | |
| DO3MHA-12 | 2026-09-06 03:27:44 | 47.73879 | 15.19611 | 201° | 29km/h | 23256m | 5.2m/s | -53.6°C | 4.2% | 0hPa | 2.6V | 00:00:00 | 01:38:48 | 00:00:00 | |
| OE5DXL-15 | 2026-09-06 03:27:35 | 47.73942 | 15.19649 | 213° | 26km/h | 23203m | 6.7m/s | -53.4°C | 4.2% | 0hPa | 2.6V | 00:00:00 | 00:00:00 | 00:00:00 | |
| DO3MHA-12 | 2026-09-06 03:27:34 | 47.73946 | 15.19652 | 216° | 26km/h | 23197m | 4.9m/s | -53.4°C | 4.2% | 0hPa | 2.6V | 00:00:00 | 01:38:38 | 00:00:00 | |
| OE5FHM-15 | 2026-09-06 03:27:32 | 47.73955 | 15.19657 | 185° | 27km/h | 23185m | 6.9m/s | -53.3°C | 4.2% | 0hPa | 2.6V | 00:00:00 | 01:38:36 | 08:30:00 | |
| S52SK | 2026-09-06 03:27:28 | 47.73973 | 15.19657 | 188° | 29km/h | 23168m | 6.6m/s | -53.2°C | 1.3% | 0hPa | 2.6V | 00:00:00 | 00:00:00 | 00:00:00 | |
| OE8JPQ-2 | 2026-09-06 03:27:27 | 47.73988 | 15.19661 | 191° | 27km/h | 23156m | 5.9m/s | -53.1°C | 4.2% | 0hPa | 2.6V | 00:00:00 | 00:00:00 | 00:00:00 | |
| DO3MHA-12 | 2026-09-06 03:27:24 | 47.74010 | 15.19667 | 194° | 26km/h | 23138m | 6.8m/s | -53.0°C | 4.1% | 0hPa | 2.6V | 00:00:00 | 01:38:28 | 00:00:00 | |
| S52SK | 2026-09-06 03:27:23 | 47.74010 | 15.19667 | 195° | 27km/h | 23138m | 6.8m/s | -53.0°C | 1.3% | 0hPa | 2.6V | 00:00:00 | 00:00:00 | 00:00:00 | |
| OE3OSB-13 | 2026-09-06 03:27:22 | 47.74029 | 15.19673 | 186° | 24km/h | 23121m | 6.4m/s | -52.9°C | 1.2% | -1.0hPa | 2.6V | 00:00:00 | 00:00:00 | 00:00:00 | |
| PETON7-10 | 2026-09-06 03:27:17 | 47.74056 | 15.19674 | 181° | 27km/h | 23097m | 4.9m/s | -52.9°C | 4.1% | 0hPa | 2.6V | 00:00:00 | 00:00:00 | 08:30:00 | |
| OE5DRO-10 | 2026-09-06 03:27:16 | 47.74063 | 15.19673 | 175° | 27km/h | 23091m | 6.9m/s | -52.8°C | 4.1% | 0hPa | 2.6V | 00:00:00 | 00:00:00 | 00:00:00 | |
| SONDE2-11 | 2026-09-06 03:27:15 | 47.74076 | 15.19670 | 168° | 26km/h | 23079m | 5.7m/s | 0°C | -1.0% | -1.0hPa | 2.6V | 00:00:00 | 00:00:00 | 00:00:00 | |
| OE5MMP-10 | 2026-09-06 03:27:14 | 47.74076 | 15.19669 | 169° | 26km/h | 23079m | 5.7m/s | -52.8°C | 4.1% | 0hPa | 2.6V | 00:00:00 | 01:38:18 | 00:00:00 | |
| HARRO8 | 2026-09-06 03:27:08 | 47.74115 | 15.19662 | 183° | 26km/h | 23044m | 7.6m/s | -52.6°C | 1.2% | -1.0hPa | 2.6V | 00:00:00 | 00:00:00 | 00:00:00 | |
| OE8JPQ-2 | 2026-09-06 03:27:07 | 47.74121 | 15.19663 | 192° | 26km/h | 23038m | 5.1m/s | -52.5°C | 4.0% | 0hPa | 2.6V | 00:00:00 | 00:00:00 | 00:00:00 | |
| OE5DXL-15 | 2026-09-06 03:27:05 | 47.74135 | 15.19666 | 183° | 26km/h | 23028m | 6.4m/s | -52.5°C | 4.0% | 0hPa | 2.6V | 00:00:00 | 00:00:00 | 00:00:00 | |
| DO3MHA-12 | 2026-09-06 03:27:04 | 47.74142 | 15.19665 | 168° | 29km/h | 23022m | 5.2m/s | -52.4°C | 4.0% | 0hPa | 2.6V | 00:00:00 | 01:38:08 | 00:00:00 | |
| OE5FHM-15 | 2026-09-06 03:27:02 | 47.74156 | 15.19657 | 153° | 24km/h | 23011m | 6.2m/s | -52.4°C | 3.9% | 0hPa | 2.6V | 00:00:00 | 01:38:06 | 00:00:00 | |
| OE3OSB-13 | 2026-09-06 03:26:52 | 47.74228 | 15.19618 | 147° | 16km/h | 22940m | 6.0m/s | -52.6°C | 1.2% | -1.0hPa | 2.6V | 00:00:00 | 00:00:00 | 00:00:00 | |
| PETON7-10 | 2026-09-06 03:26:47 | 47.74240 | 15.19601 | 135° | 24km/h | 22922m | 4.7m/s | -52.8°C | 4.0% | 0hPa | 2.6V | 00:00:00 | 01:37:51 | 00:00:00 | |
| DB0NH | 2026-09-06 03:26:46 | 47.74245 | 15.19594 | 133° | 20km/h | 22916m | 6.1m/s | -52.8°C | 4.0% | 0hPa | 2.6V | 00:00:00 | 01:37:50 | 00:00:00 | |
| OE5MMP-10 | 2026-09-06 03:26:44 | 47.74254 | 15.19578 | 130° | 24km/h | 22904m | 4.6m/s | -52.8°C | 4.0% | 0hPa | 2.6V | 00:00:00 | 01:37:48 | 00:00:00 | |
| OE5DRO-10 | 2026-09-06 03:26:38 | 47.74282 | 15.19540 | 137° | 16km/h | 22870m | 6.1m/s | -52.8°C | 4.1% | 0hPa | 2.6V | 00:00:00 | 00:00:00 | 00:00:00 | |
| HARRO8 | 2026-09-06 03:26:37 | 47.74286 | 15.19535 | 140° | 18km/h | 22864m | 7.1m/s | -52.8°C | 1.2% | -1.0hPa | 2.6V | 00:00:00 | 00:00:00 | 00:00:00 | |
| OE5DXL-15 | 2026-09-06 03:26:35 | 47.74293 | 15.19526 | 142° | 16km/h | 22853m | 5.3m/s | -52.8°C | 4.1% | 0hPa | 2.6V | 00:00:00 | 00:00:00 | 00:00:00 | |
| OE5MMP-10 | 2026-09-06 03:26:34 | 47.74296 | 15.19522 | 128° | 16km/h | 22848m | 5.9m/s | -52.8°C | 4.1% | 0hPa | 2.6V | 00:00:00 | 01:37:38 | 08:30:00 | |
| PETON7-10 | 2026-09-06 03:26:32 | 47.74301 | 15.19511 | 123° | 15km/h | 22836m | 7.1m/s | -52.8°C | 4.1% | 0hPa | 2.6V | 00:00:00 | 00:00:00 | 00:00:00 | |
| OM5KV | 2026-09-06 03:26:31 | 47.74304 | 15.19505 | 129° | 22km/h | 22830m | 5.2m/s | -52.8°C | 1.3% | 0hPa | 2.6V | 00:00:00 | 00:00:00 | 00:00:00 | |
| OE3MUC-15 | 2026-09-06 03:26:29 | 47.74310 | 15.19493 | 124° | 15km/h | 22820m | 6.3m/s | -52.7°C | 4.1% | 0hPa | 2.6V | 00:00:00 | 00:00:00 | 00:00:00 | |
| OM5KV | 2026-09-06 03:26:28 | 47.74310 | 15.19493 | 124° | 18km/h | 22820m | 6.3m/s | -52.8°C | 1.3% | 0hPa | 2.6V | 00:00:00 | 00:00:00 | 00:00:00 | |
| OE8JPQ-2 | 2026-09-06 03:26:27 | 47.74314 | 15.19484 | 125° | 16km/h | 22809m | 4.8m/s | -52.7°C | 4.1% | 0hPa | 2.6V | 00:00:00 | 00:00:00 | 00:00:00 | |
| OE3MUC-15 | 2026-09-06 03:26:25 | 47.74319 | 15.19477 | 152° | 13km/h | 22798m | 4.8m/s | -52.6°C | 4.1% | 0hPa | 2.6V | 00:00:00 | 00:00:00 | 00:00:00 | |
| DO3MHA-12 | 2026-09-06 03:26:24 | 47.74322 | 15.19475 | 158° | 16km/h | 22794m | 4.2m/s | -52.6°C | 4.0% | 0hPa | 2.6V | 00:00:00 | 01:37:28 | 08:30:00 | |
| OE3MUC-15 | 2026-09-06 03:26:21 | 47.74330 | 15.19470 | 155° | 16km/h | 22777m | 4.8m/s | -52.5°C | 4.0% | 0hPa | 2.6V | 00:00:00 | 00:00:00 | 00:00:00 | |
| OE5DRO-10 | 2026-09-06 03:26:19 | 47.74336 | 15.19466 | 158° | 20km/h | 22765m | 5.1m/s | -52.4°C | 4.0% | 0hPa | 2.6V | 00:00:00 | 00:00:00 | 00:00:00 | |
| OM5KV | 2026-09-06 03:26:18 | 47.74336 | 15.19466 | 158° | 20km/h | 22765m | 5.1m/s | -52.5°C | 1.3% | 0hPa | 2.6V | 00:00:00 | 00:00:00 | 00:00:00 | |
| OE3MUC-15 | 2026-09-06 03:26:17 | 47.74346 | 15.19460 | 156° | 22km/h | 22753m | 7.3m/s | -52.4°C | 3.9% | 0hPa | 2.6V | 00:00:00 | 00:00:00 | 00:00:00 | |
| DB0NH | 2026-09-06 03:26:16 | 47.74351 | 15.19456 | 156° | 24km/h | 22747m | 5.2m/s | -52.3°C | 4.0% | 0hPa | 2.6V | 00:00:00 | 01:37:20 | 00:00:00 | |
| DO3MHA-12 | 2026-09-06 03:26:14 | 47.74360 | 15.19450 | 158° | 18km/h | 22736m | 6.4m/s | -52.3°C | 4.0% | 0hPa | 2.6V | 00:00:00 | 01:37:18 | 00:00:00 | |
| OE3MUC-15 | 2026-09-06 03:26:13 | 47.74366 | 15.19447 | 159° | 20km/h | 22730m | 5.4m/s | -52.2°C | 4.0% | 0hPa | 2.6V | 00:00:00 | 00:00:00 | 00:00:00 | |
| OM5KV | 2026-09-06 03:26:12 | 47.74366 | 15.19447 | 160° | 24km/h | 22730m | 5.4m/s | -52.3°C | 1.3% | 0hPa | 2.6V | 00:00:00 | 00:00:00 | 00:00:00 | |
| OE3MUC-15 | 2026-09-06 03:26:09 | 47.74383 | 15.19439 | 172° | 20km/h | 22707m | 6.7m/s | -52.2°C | 3.9% | 0hPa | 2.6V | 00:00:00 | 00:00:00 | 08:30:00 | |
| OM5KV | 2026-09-06 03:26:08 | 47.74383 | 15.19439 | 172° | 18km/h | 22707m | 6.7m/s | -52.2°C | 1.2% | 0hPa | 2.6V | 00:00:00 | 00:00:00 | 00:00:00 | |
| OE3JTB-15 | 2026-09-06 03:26:05 | 47.74401 | 15.19438 | 181° | 26km/h | 22684m | 6.3m/s | -52.2°C | 3.9% | 0hPa | 2.6V | 00:00:00 | 00:00:00 | 00:00:00 | |
| OE5MMP-10 | 2026-09-06 03:26:04 | 47.74407 | 15.19438 | 177° | 24km/h | 22678m | 5.6m/s | -52.2°C | 3.9% | 0hPa | 2.7V | 00:00:00 | 01:37:08 | 00:00:00 | |
| S52SK | 2026-09-06 03:26:03 | 47.74408 | 15.19438 | 178° | 26km/h | 22678m | 5.6m/s | -52.2°C | 1.2% | 0hPa | 2.6V | 00:00:00 | 00:00:00 | 00:00:00 | |
| OE5FHM-15 | 2026-09-06 03:26:02 | 47.74421 | 15.19437 | 173° | 26km/h | 22668m | 6.1m/s | -52.1°C | 3.9% | 0hPa | 2.6V | 00:00:00 | 01:37:06 | 00:00:00 | |
| OM5KV | 2026-09-06 03:26:01 | 47.74421 | 15.19436 | 174° | 27km/h | 22668m | 6.2m/s | -52.2°C | 1.3% | 0hPa | 2.6V | 00:00:00 | 00:00:00 | 00:00:00 | |
| OE3MUC-15 | 2026-09-06 03:26:00 | 47.74433 | 15.19434 | 169° | 22km/h | 22656m | 4.7m/s | -52.1°C | 3.9% | 0hPa | 2.6V | 00:00:00 | 00:00:00 | 00:00:00 | |
| S52SK | 2026-09-06 03:25:58 | 47.74438 | 15.19432 | 164° | 20km/h | 22651m | 5.4m/s | -52.1°C | 1.3% | 0hPa | 2.6V | 00:00:00 | 00:00:00 | 00:00:00 | |
| OM5KV | 2026-09-06 03:25:57 | 47.74443 | 15.19430 | 162° | 24km/h | 22645m | 6.2m/s | -52.1°C | 1.3% | 0hPa | 2.6V | 00:00:00 | 00:00:00 | 00:00:00 | |
| OE3MUC-15 | 2026-09-06 03:25:56 | 47.74454 | 15.19425 | 167° | 24km/h | 22634m | 6.8m/s | -52.1°C | 3.9% | 0hPa | 2.6V | 00:00:00 | 00:00:00 | 00:00:00 | |
| OM5KV | 2026-09-06 03:25:55 | 47.74454 | 15.19425 | 168° | 22km/h | 22634m | 6.8m/s | -52.1°C | 1.3% | 0hPa | 2.6V | 00:00:00 | 00:00:00 | 00:00:00 | |
| OE5MMP-10 | 2026-09-06 03:25:54 | 47.74465 | 15.19423 | 178° | 29km/h | 22623m | 4.0m/s | -52.0°C | 3.9% | 0hPa | 2.6V | 00:00:00 | 01:36:58 | 00:00:00 | |
| DO8TBO-1 | 2026-09-06 03:25:50 | 47.74495 | 15.19417 | 173° | 26km/h | 22602m | 6.6m/s | -51.9°C | 3.8% | 0hPa | 2.6V | 00:00:00 | 01:36:54 | 00:00:00 | |
| OE3MUC-15 | 2026-09-06 03:25:48 | 47.74510 | 15.19415 | 177° | 27km/h | 22590m | 5.1m/s | -51.9°C | 3.8% | 0hPa | 2.6V | 00:00:00 | 01:36:52 | 00:00:00 | |
| OE8JPQ-2 | 2026-09-06 03:25:47 | 47.74518 | 15.19414 | 177° | 26km/h | 22584m | 6.3m/s | -51.9°C | 3.9% | 0hPa | 2.6V | 00:00:00 | 01:36:51 | 00:00:00 | |
| OE5WHR-10 | 2026-09-06 03:25:45 | 47.74531 | 15.19415 | 186° | 24km/h | 22573m | 6.6m/s | -51.9°C | 3.8% | 0hPa | 2.6V | 00:00:00 | 00:00:00 | 00:00:00 | |
| DO3MHA-12 | 2026-09-06 03:25:44 | 47.74536 | 15.19416 | 195° | 24km/h | 22567m | 5.6m/s | -51.9°C | 3.8% | 0hPa | 2.6V | 00:00:00 | 01:36:48 | 00:00:00 | |
| OM5KV | 2026-09-06 03:25:39 | 47.74557 | 15.19422 | 186° | 24km/h | 22544m | 6.4m/s | -52.0°C | 1.2% | 0hPa | 2.6V | 00:00:00 | 00:00:00 | 00:00:00 | |
| OE5DXL-15 | 2026-09-06 03:25:35 | 47.74591 | 15.19422 | 179° | 22km/h | 22516m | 6.4m/s | -52.3°C | 3.9% | 0hPa | 2.6V | 00:00:00 | 00:00:00 | 00:00:00 | |
| OM5KV | 2026-09-06 03:25:34 | 47.74598 | 15.19422 | 184° | 27km/h | 22510m | 5.2m/s | -52.4°C | 1.3% | 0hPa | 2.6V | 00:00:00 | 00:00:00 | 00:00:00 | |
| OE5FHM-15 | 2026-09-06 03:25:32 | 47.74611 | 15.19422 | 178° | 20km/h | 22500m | 6.6m/s | -52.3°C | 3.9% | 0hPa | 2.6V | 00:00:00 | 01:36:36 | 00:00:00 | |
| OM5KV | 2026-09-06 03:25:31 | 47.74611 | 15.19422 | 178° | 26km/h | 22500m | 6.7m/s | -52.4°C | 1.2% | 0hPa | 2.6V | 00:00:00 | 00:00:00 | 00:00:00 | |
| OM5KV | 2026-09-06 03:25:30 | 47.74623 | 15.19419 | 168° | 24km/h | 22489m | 4.7m/s | -52.3°C | 1.2% | 0hPa | 2.6V | 00:00:00 | 00:00:00 | 00:00:00 | |
| OE8JPQ-2 | 2026-09-06 03:25:27 | 47.74639 | 15.19413 | 163° | 20km/h | 22472m | 5.8m/s | -52.3°C | 3.8% | 0hPa | 2.6V | 00:00:00 | 00:00:00 | 08:30:00 | |
| DO3MHA-12 | 2026-09-06 03:25:24 | 47.74656 | 15.19404 | 161° | 24km/h | 22455m | 6.5m/s | -52.3°C | 3.9% | 0hPa | 2.7V | 00:00:00 | 01:36:28 | 00:00:00 | |
| OM5KV | 2026-09-06 03:25:23 | 47.74656 | 15.19404 | 162° | 26km/h | 22455m | 6.5m/s | -52.4°C | 1.2% | 0hPa | 2.6V | 00:00:00 | 00:00:00 | 00:00:00 | |
| OE5DRO-10 | 2026-09-06 03:25:22 | 47.74668 | 15.19396 | 155° | 18km/h | 22445m | 6.0m/s | -52.4°C | 3.9% | 0hPa | 2.6V | 00:00:00 | 00:00:00 | 08:30:00 | |
| OE3MUC-15 | 2026-09-06 03:25:20 | 47.74681 | 15.19385 | 151° | 24km/h | 22433m | 4.9m/s | -52.4°C | 3.9% | 0hPa | 2.6V | 00:00:00 | 00:00:00 | 00:00:00 | |
| DO8TBO-1 | 2026-09-06 03:25:19 | 47.74688 | 15.19380 | 153° | 15km/h | 22427m | 6.6m/s | -52.4°C | 3.9% | 0hPa | 2.6V | 00:00:00 | 01:36:23 | 00:00:00 | |
| OM5KV | 2026-09-06 03:25:18 | 47.74688 | 15.19380 | 153° | 27km/h | 22427m | 6.6m/s | -52.4°C | 1.3% | 0hPa | 2.6V | 00:00:00 | 00:00:00 | 00:00:00 | |
| PETON7-10 | 2026-09-06 03:25:17 | 47.74698 | 15.19373 | 158° | 16km/h | 22416m | 4.4m/s | -52.4°C | 3.9% | 0hPa | 2.6V | 00:00:00 | 01:36:21 | 00:00:00 | |
| OE3MUC-15 | 2026-09-06 03:25:16 | 47.74701 | 15.19370 | 145° | 13km/h | 22410m | 6.2m/s | -52.4°C | 4.0% | 0hPa | 2.6V | 00:00:00 | 00:00:00 | 00:00:00 | |
| DO3MHA-12 | 2026-09-06 03:25:14 | 47.74706 | 15.19362 | 114° | 16km/h | 22399m | 5.3m/s | -52.5°C | 4.0% | 0hPa | 2.6V | 00:00:00 | 01:36:18 | 00:00:00 | |
| OM5KV | 2026-09-06 03:25:13 | 47.74706 | 15.19362 | 114° | 13km/h | 22399m | 5.4m/s | -52.5°C | 1.3% | 0hPa | 2.6V | 00:00:00 | 00:00:00 | 00:00:00 | |
| OE3MUC-15 | 2026-09-06 03:25:12 | 47.74708 | 15.19353 | 110° | 15km/h | 22387m | 5.3m/s | -52.4°C | 4.0% | 0hPa | 2.6V | 00:00:00 | 00:00:00 | 00:00:00 | |
| OM5KV | 2026-09-06 03:25:09 | 47.74710 | 15.19344 | 114° | 16km/h | 22377m | 6.3m/s | -52.4°C | 1.3% | 0hPa | 2.6V | 00:00:00 | 00:00:00 | 00:00:00 | |
| OE3MUC-15 | 2026-09-06 03:25:08 | 47.74715 | 15.19332 | 124° | 18km/h | 22367m | 5.4m/s | -52.4°C | 3.9% | 0hPa | 2.6V | 00:00:00 | 00:00:00 | 00:00:00 | |
| OE8JPQ-2 | 2026-09-06 03:25:07 | 47.74718 | 15.19327 | 130° | 13km/h | 22361m | 5.6m/s | -52.4°C | 3.9% | 0hPa | 2.6V | 00:00:00 | 00:00:00 | 00:00:00 | |
| OE5DXL-15 | 2026-09-06 03:25:05 | 47.74723 | 15.19317 | 128° | 11km/h | 22350m | 6.3m/s | -52.4°C | 3.9% | 0hPa | 2.6V | 00:00:00 | 00:00:00 | 08:30:00 | |
| DO3MHA-12 | 2026-09-06 03:25:04 | 47.74726 | 15.19311 | 122° | 15km/h | 22344m | 5.1m/s | -52.5°C | 3.9% | 0hPa | 2.6V | 00:00:00 | 01:36:08 | 00:00:00 | |
| OE5WHR-10 | 2026-09-06 03:25:03 | 47.74729 | 15.19305 | 123° | 11km/h | 22339m | 5.4m/s | -52.6°C | 4.0% | 0hPa | 2.6V | 00:00:00 | 01:36:07 | 00:00:00 | |
| PETON7-10 | 2026-09-06 03:25:02 | 47.74731 | 15.19300 | 125° | 13km/h | 22333m | 5.4m/s | -52.7°C | 4.0% | 0hPa | 2.6V | 00:00:00 | 00:00:00 | 08:30:00 | |
| OE3OSB-13 | 2026-09-06 03:24:46 | 47.74740 | 15.19236 | 98° | 5km/h | 22242m | 6.8m/s | -52.4°C | 1.1% | -1.0hPa | 2.6V | 00:00:00 | 00:00:00 | 00:00:00 | |
| OM5KV | 2026-09-06 03:24:45 | 47.74740 | 15.19236 | 100° | 7km/h | 22242m | 6.8m/s | -52.4°C | 1.2% | 0hPa | 2.6V | 00:00:00 | 00:00:00 | 00:00:00 | |
| OE5MMP-10 | 2026-09-06 03:24:44 | 47.74740 | 15.19232 | 72° | 9km/h | 22231m | 5.0m/s | -52.4°C | 3.9% | 0hPa | 2.6V | 00:00:00 | 01:35:48 | 00:00:00 | |
| OE5WHR-10 | 2026-09-06 03:24:42 | 47.74740 | 15.19226 | 106° | 13km/h | 22220m | 4.1m/s | -52.3°C | 3.8% | 0hPa | 2.6V | 00:00:00 | 00:00:00 | 08:30:00 | |
| OM5KV | 2026-09-06 03:24:39 | 47.74742 | 15.19222 | 150° | 5km/h | 22209m | 5.6m/s | -52.3°C | 1.2% | 0hPa | 2.7V | 00:00:00 | 00:00:00 | 00:00:00 | |
| OE3JTB-15 | 2026-09-06 03:24:38 | 47.74745 | 15.19220 | 157° | 18km/h | 22199m | 5.7m/s | -52.3°C | 3.7% | 0hPa | 2.7V | 00:00:00 | 00:00:00 | 00:00:00 | |
| OE5DXL-15 | 2026-09-06 03:24:35 | 47.74754 | 15.19214 | 157° | 20km/h | 22181m | 6.8m/s | -52.3°C | 3.7% | 0hPa | 2.7V | 00:00:00 | 00:00:00 | 00:00:00 | |
| DO3MHA-12 | 2026-09-06 03:24:34 | 47.74756 | 15.19212 | 158° | 13km/h | 22175m | 5.7m/s | -52.4°C | 3.7% | 0hPa | 2.7V | 00:00:00 | 01:35:38 | 00:00:00 | |
| HARRO8 | 2026-09-06 03:24:33 | 47.74758 | 15.19211 | 144° | 5km/h | 22170m | 4.2m/s | -52.5°C | 1.1% | -1.0hPa | 2.7V | 00:00:00 | 00:00:00 | 00:00:00 | |
| OE5FHM-15 | 2026-09-06 03:24:32 | 47.74760 | 15.19209 | 134° | 22km/h | 22164m | 7.2m/s | -52.5°C | 3.7% | 0hPa | 2.7V | 00:00:00 | 01:35:36 | 00:00:00 | |
| OM5KV | 2026-09-06 03:24:31 | 47.74760 | 15.19209 | 135° | 7km/h | 22164m | 7.2m/s | -52.5°C | 1.2% | 0hPa | 2.7V | 00:00:00 | 00:00:00 | 00:00:00 | |
| S52SK | 2026-09-06 03:24:28 | 47.74764 | 15.19201 | 131° | 9km/h | 22146m | 5.0m/s | -52.7°C | 1.2% | 0hPa | 2.7V | 00:00:00 | 00:00:00 | 00:00:00 | |
| OE8JPQ-2 | 2026-09-06 03:24:27 | 47.74769 | 15.19194 | 143° | 24km/h | 22135m | 5.8m/s | -52.8°C | 3.7% | 0hPa | 2.7V | 00:00:00 | 00:00:00 | 00:00:00 | |
| OE5DRO-10 | 2026-09-06 03:24:25 | 47.74777 | 15.19187 | 156° | 24km/h | 22123m | 6.8m/s | -53.1°C | 3.8% | 0hPa | 2.6V | 00:00:00 | 00:00:00 | 00:00:00 | |
| OE5MMP-10 | 2026-09-06 03:24:24 | 47.74782 | 15.19184 | 160° | 22km/h | 22117m | 4.9m/s | -53.3°C | 3.9% | 0hPa | 2.6V | 00:00:00 | 01:35:28 | 00:00:00 | |
| OM5KV | 2026-09-06 03:24:22 | 47.74786 | 15.19181 | 159° | 20km/h | 22112m | 5.2m/s | -53.6°C | 1.3% | 0hPa | 2.6V | 00:00:00 | 00:00:00 | 00:00:00 | |
| OE5WHR-10 | 2026-09-06 03:24:21 | 47.74796 | 15.19174 | 149° | 26km/h | 22100m | 5.4m/s | -53.9°C | 4.0% | 0hPa | 2.6V | 00:00:00 | 00:00:00 | 00:00:00 | |
| DO8TBO-1 | 2026-09-06 03:24:19 | 47.74803 | 15.19166 | 136° | 26km/h | 22089m | 3.8m/s | -54.1°C | 4.1% | 0hPa | 2.6V | 00:00:00 | 01:35:23 | 00:00:00 | |
| DO3MHA-12 | 2026-09-06 03:24:14 | 47.74821 | 15.19130 | 127° | 27km/h | 22061m | 4.9m/s | -54.2°C | 4.1% | 0hPa | 2.6V | 00:00:00 | 01:35:18 | 00:00:00 | |
| DB0NH | 2026-09-06 03:24:13 | 47.74825 | 15.19122 | 130° | 24km/h | 22056m | 5.0m/s | -54.3°C | 4.1% | 0hPa | 2.6V | 00:00:00 | 01:35:17 | 00:00:00 | |
| OM5KV | 2026-09-06 03:24:09 | 47.74842 | 15.19096 | 134° | 31km/h | 22039m | 6.2m/s | -54.6°C | 1.4% | 0hPa | 2.6V | 00:00:00 | 00:00:00 | 00:00:00 | |
| OE8JPQ-2 | 2026-09-06 03:24:07 | 47.74855 | 15.19073 | 126° | 22km/h | 22022m | 6.5m/s | -54.7°C | 4.3% | 0hPa | 2.6V | 00:00:00 | 00:00:00 | 00:00:00 | |
| OE5DRO-10 | 2026-09-06 03:24:06 | 47.74858 | 15.19064 | 122° | 22km/h | 22017m | 4.3m/s | -54.7°C | 4.3% | 0hPa | 2.6V | 00:00:00 | 00:00:00 | 00:00:00 | |
| OE5DXL-15 | 2026-09-06 03:24:05 | 47.74862 | 15.19056 | 117° | 20km/h | 22011m | 6.4m/s | -54.8°C | 4.3% | 0hPa | 2.6V | 00:00:00 | 00:00:00 | 00:00:00 | |
| DO3MHA-12 | 2026-09-06 03:24:04 | 47.74864 | 15.19048 | 111° | 24km/h | 22005m | 5.1m/s | -54.8°C | 4.3% | 0hPa | 2.6V | 00:00:00 | 01:35:08 | 00:00:00 | |
| OM5KV | 2026-09-06 03:24:03 | 47.74864 | 15.19049 | 111° | 22km/h | 22005m | 5.1m/s | -54.8°C | 1.4% | 0hPa | 2.6V | 00:00:00 | 00:00:00 | 00:00:00 | |
| PETON7-10 | 2026-09-06 03:24:02 | 47.74868 | 15.19033 | 115° | 22km/h | 21995m | 6.0m/s | -54.8°C | 4.4% | 0hPa | 2.6V | 00:00:00 | 00:00:00 | 00:00:00 | |
| OE5WHR-10 | 2026-09-06 03:24:00 | 47.74874 | 15.19016 | 118° | 20km/h | 21984m | 6.4m/s | -54.9°C | 4.4% | 0hPa | 2.6V | 00:00:00 | 01:35:04 | 00:00:00 | |
| OM5KV | 2026-09-06 03:23:57 | 47.74880 | 15.19000 | 116° | 26km/h | 21971m | 6.7m/s | -55.1°C | 1.4% | 0hPa | 2.6V | 00:00:00 | 00:00:00 | 00:00:00 | |
| OM5KV | 2026-09-06 03:23:56 | 47.74882 | 15.18990 | 111° | 27km/h | 21965m | 4.9m/s | -55.0°C | 1.5% | 0hPa | 2.6V | 00:00:00 | 00:00:00 | 00:00:00 | |
| DO3MHA-12 | 2026-09-06 03:23:54 | 47.74886 | 15.18964 | 83° | 20km/h | 21949m | 5.0m/s | -54.9°C | 4.4% | 0hPa | 2.6V | 00:00:00 | 01:34:58 | 00:00:00 | |
| DO8TBO-1 | 2026-09-06 03:23:49 | 47.74886 | 15.18925 | 99° | 13km/h | 21921m | 5.3m/s | -54.7°C | 4.4% | 0hPa | 2.6V | 00:00:00 | 01:34:53 | 00:00:00 | |
| PETON7-10 | 2026-09-06 03:23:47 | 47.74888 | 15.18912 | 101° | 16km/h | 21910m | 6.2m/s | -54.6°C | 4.4% | 0hPa | 2.6V | 00:00:00 | 01:34:51 | 00:00:00 | |
| OM5KV | 2026-09-06 03:23:46 | 47.74888 | 15.18912 | 102° | 18km/h | 21910m | 6.3m/s | -54.7°C | 1.4% | 0hPa | 2.6V | 00:00:00 | 00:00:00 | 00:00:00 | |
| OM5KV | 2026-09-06 03:23:45 | 47.74889 | 15.18905 | 101° | 20km/h | 21904m | 4.9m/s | -54.7°C | 1.4% | 0hPa | 2.6V | 00:00:00 | 00:00:00 | 00:00:00 | |
| DO3MHA-12 | 2026-09-06 03:23:44 | 47.74891 | 15.18890 | 93° | 16km/h | 21893m | 6.5m/s | -54.6°C | 4.4% | 0hPa | 2.6V | 00:00:00 | 01:34:48 | 00:00:00 | |
| DB0NH | 2026-09-06 03:23:43 | 47.74891 | 15.18884 | 90° | 13km/h | 21888m | 4.4m/s | -54.6°C | 4.4% | 0hPa | 2.6V | 00:00:00 | 01:34:47 | 08:30:00 | |
| OE3JTB-15 | 2026-09-06 03:23:40 | 47.74892 | 15.18864 | 102° | 13km/h | 21871m | 6.9m/s | -54.7°C | 4.4% | 0hPa | 2.6V | 00:00:00 | 01:34:44 | 00:00:00 | |
| OE5WHR-10 | 2026-09-06 03:23:39 | 47.74893 | 15.18860 | 114° | 11km/h | 21865m | 4.4m/s | -54.7°C | 4.4% | 0hPa | 2.6V | 00:00:00 | 00:00:00 | 00:00:00 | |
| OM5KV | 2026-09-06 03:23:37 | 47.74895 | 15.18855 | 120° | 15km/h | 21860m | 6.0m/s | -54.7°C | 1.5% | 0hPa | 2.6V | 00:00:00 | 00:00:00 | 00:00:00 | |
| DO3MHA-12 | 2026-09-06 03:23:34 | 47.74906 | 15.18833 | 132° | 7km/h | 21839m | 6.8m/s | -54.5°C | 4.4% | 0hPa | 2.6V | 00:00:00 | 01:34:38 | 00:00:00 | |
| OM5KV | 2026-09-06 03:23:33 | 47.74906 | 15.18833 | 133° | 16km/h | 21839m | 6.8m/s | -54.6°C | 1.4% | 0hPa | 2.6V | 00:00:00 | 00:00:00 | 00:00:00 | |
| OE5FHM-15 | 2026-09-06 03:23:32 | 47.74910 | 15.18827 | 133° | 15km/h | 21826m | 5.3m/s | -54.4°C | 4.4% | 0hPa | 2.6V | 00:00:00 | 01:34:36 | 00:00:00 | |
| OM5KV | 2026-09-06 03:23:31 | 47.74910 | 15.18827 | 134° | 7km/h | 21826m | 5.3m/s | -54.5°C | 1.4% | 0hPa | 2.6V | 00:00:00 | 00:00:00 | 00:00:00 | |
| OE5DRO-10 | 2026-09-06 03:23:28 | 47.74910 | 15.18814 | 67° | 13km/h | 21802m | 6.8m/s | -54.3°C | 4.3% | 0hPa | 2.6V | 00:00:00 | 00:00:00 | 00:00:00 | |
| OE8JPQ-2 | 2026-09-06 03:23:27 | 47.74910 | 15.18813 | 81° | 13km/h | 21796m | 5.1m/s | -54.3°C | 4.4% | 0hPa | 2.6V | 00:00:00 | 00:00:00 | 00:00:00 | |
| DO3MHA-12 | 2026-09-06 03:23:24 | 47.74911 | 15.18807 | 140° | 15km/h | 21780m | 3.7m/s | -54.2°C | 4.3% | 0hPa | 2.6V | 00:00:00 | 01:34:28 | 08:30:00 | |
| OM5KV | 2026-09-06 03:23:22 | 47.74913 | 15.18805 | 154° | 11km/h | 21775m | 7.0m/s | -54.3°C | 1.4% | 0hPa | 2.6V | 00:00:00 | 00:00:00 | 00:00:00 | |
| OM5KV | 2026-09-06 03:23:21 | 47.74916 | 15.18804 | 165° | 15km/h | 21769m | 5.3m/s | -54.2°C | 1.4% | 0hPa | 2.6V | 00:00:00 | 00:00:00 | 00:00:00 | |
| OE3MUC-15 | 2026-09-06 03:23:19 | 47.74928 | 15.18796 | 152° | 22km/h | 21751m | 5.1m/s | -54.1°C | 4.3% | 0hPa | 2.6V | 00:00:00 | 00:00:00 | 00:00:00 | |
| OE5WHR-10 | 2026-09-06 03:23:18 | 47.74932 | 15.18793 | 157° | 18km/h | 21745m | 6.8m/s | -54.1°C | 4.2% | 0hPa | 2.6V | 00:00:00 | 00:00:00 | 00:00:00 | |
| PETON7-10 | 2026-09-06 03:23:17 | 47.74935 | 15.18791 | 149° | 16km/h | 21739m | 5.5m/s | -54.1°C | 4.2% | 0hPa | 2.6V | 00:00:00 | 00:00:00 | 00:00:00 | |
| OM5KV | 2026-09-06 03:23:16 | 47.74935 | 15.18791 | 150° | 13km/h | 21739m | 5.5m/s | -54.1°C | 1.4% | 0hPa | 2.6V | 00:00:00 | 00:00:00 | 00:00:00 | |
| OE5MMP-10 | 2026-09-06 03:23:14 | 47.74942 | 15.18782 | 142° | 16km/h | 21722m | 4.0m/s | -54.1°C | 4.2% | 0hPa | 2.6V | 00:00:00 | 01:34:18 | 00:00:00 | |
| DB0NH | 2026-09-06 03:23:13 | 47.74945 | 15.18779 | 156° | 26km/h | 21717m | 6.3m/s | -54.1°C | 4.3% | 0hPa | 2.6V | 00:00:00 | 01:34:17 | 00:00:00 | |
| OE3JTB-15 | 2026-09-06 03:23:11 | 47.74951 | 15.18777 | 163° | 27km/h | 21706m | 5.5m/s | -54.1°C | 4.2% | 0hPa | 2.6V | 00:00:00 | 00:00:00 | 08:30:00 | |
| OE5DRO-10 | 2026-09-06 03:23:09 | 47.74958 | 15.18772 | 157° | 26km/h | 21696m | 4.4m/s | -54.1°C | 4.3% | 0hPa | 2.6V | 00:00:00 | 00:00:00 | 00:00:00 | |
| OM5KV | 2026-09-06 03:23:08 | 47.74959 | 15.18772 | 157° | 18km/h | 21696m | 4.4m/s | -54.2°C | 1.4% | 0hPa | 2.6V | 00:00:00 | 00:00:00 | 00:00:00 | |
| OE8JPQ-2 | 2026-09-06 03:23:07 | 47.74968 | 15.18769 | 173° | 27km/h | 21684m | 5.6m/s | -54.1°C | 4.3% | 0hPa | 2.6V | 00:00:00 | 00:00:00 | 00:00:00 | |
| OE5DXL-15 | 2026-09-06 03:23:05 | 47.74979 | 15.18767 | 168° | 31km/h | 21673m | 6.5m/s | -54.1°C | 4.3% | 0hPa | 2.6V | 00:00:00 | 00:00:00 | 00:00:00 | |
| OE5MMP-10 | 2026-09-06 03:23:04 | 47.74984 | 15.18764 | 164° | 24km/h | 21667m | 4.5m/s | -54.1°C | 4.3% | 0hPa | 2.6V | 00:00:00 | 01:34:08 | 00:00:00 | |
| OE3MUC-15 | 2026-09-06 03:23:03 | 47.74990 | 15.18762 | 167° | 22km/h | 21662m | 5.6m/s | -54.0°C | 4.2% | 0hPa | 2.6V | 00:00:00 | 00:00:00 | 00:00:00 | |
| OE5FHM-15 | 2026-09-06 03:23:02 | 47.74996 | 15.18761 | 175° | 33km/h | 21656m | 6.3m/s | -54.0°C | 4.3% | 0hPa | 2.6V | 00:00:00 | 01:34:06 | 08:30:00 | |
| OM5KV | 2026-09-06 03:23:01 | 47.74996 | 15.18761 | 176° | 22km/h | 21656m | 6.3m/s | -54.1°C | 1.4% | 0hPa | 2.7V | 00:00:00 | 00:00:00 | 00:00:00 | |
| OE3MUC-15 | 2026-09-06 03:22:59 | 47.75011 | 15.18760 | 170° | 24km/h | 21640m | 5.3m/s | -54.0°C | 4.2% | 0hPa | 2.7V | 00:00:00 | 00:00:00 | 00:00:00 | |
| OE5WHR-10 | 2026-09-06 03:22:57 | 47.75022 | 15.18758 | 177° | 35km/h | 21629m | 6.5m/s | -54.0°C | 4.2% | 0hPa | 2.7V | 00:00:00 | 01:34:01 | 00:00:00 | |
| OE3MUC-15 | 2026-09-06 03:22:55 | 47.75036 | 15.18757 | 175° | 35km/h | 21617m | 6.3m/s | -54.0°C | 4.2% | 0hPa | 2.7V | 00:00:00 | 00:00:00 | 00:00:00 | |
| DO3MHA-12 | 2026-09-06 03:22:54 | 47.75045 | 15.18755 | 169° | 33km/h | 21611m | 6.6m/s | -54.0°C | 4.2% | 0hPa | 2.7V | 00:00:00 | 01:33:58 | 00:00:00 | |
| OE3MUC-15 | 2026-09-06 03:22:51 | 47.75072 | 15.18747 | 169° | 35km/h | 21592m | 5.6m/s | -54.0°C | 4.2% | 0hPa | 2.6V | 00:00:00 | 00:00:00 | 08:30:00 | |
| OE5DRO-10 | 2026-09-06 03:22:50 | 47.75080 | 15.18744 | 166° | 37km/h | 21586m | 7.3m/s | -54.0°C | 4.2% | 0hPa | 2.6V | 00:00:00 | 00:00:00 | 00:00:00 | |
| DO8TBO-1 | 2026-09-06 03:22:49 | 47.75089 | 15.18741 | 163° | 40km/h | 21580m | 4.7m/s | -54.0°C | 4.2% | 0hPa | 2.6V | 00:00:00 | 01:33:53 | 00:00:00 | |
| OE8JPQ-2 | 2026-09-06 03:22:47 | 47.75104 | 15.18736 | 174° | 38km/h | 21569m | 6.2m/s | -54.0°C | 4.2% | 0hPa | 2.6V | 00:00:00 | 01:33:51 | 00:00:00 | |
| OM5KV | 2026-09-06 03:22:45 | 47.75111 | 15.18734 | 176° | 29km/h | 21564m | 3.8m/s | -54.0°C | 1.4% | 0hPa | 2.6V | 00:00:00 | 00:00:00 | 00:00:00 | |
| OE5MMP-10 | 2026-09-06 03:22:44 | 47.75127 | 15.18730 | 163° | 38km/h | 21553m | 6.1m/s | -54.0°C | 4.2% | 0hPa | 2.6V | 00:00:00 | 01:33:48 | 00:00:00 | |
| DB0NH | 2026-09-06 03:22:43 | 47.75135 | 15.18726 | 158° | 44km/h | 21547m | 5.7m/s | -54.0°C | 4.1% | 0hPa | 2.6V | 00:00:00 | 01:33:47 | 00:00:00 | |
| OE3JTB-15 | 2026-09-06 03:22:42 | 47.75144 | 15.18720 | 157° | 44km/h | 21542m | 5.4m/s | -54.0°C | 4.2% | 0hPa | 2.6V | 00:00:00 | 00:00:00 | 00:00:00 | |
| OE3MUC-15 | 2026-09-06 03:22:39 | 47.75170 | 15.18705 | 158° | 40km/h | 21525m | 6.7m/s | -54.0°C | 4.2% | 0hPa | 2.6V | 00:00:00 | 00:00:00 | 00:00:00 | |
| OM5KV | 2026-09-06 03:22:38 | 47.75170 | 15.18705 | 158° | 40km/h | 21525m | 6.8m/s | -54.1°C | 1.4% | 0hPa | 2.7V | 00:00:00 | 00:00:00 | 00:00:00 | |
| OM5KV | 2026-09-06 03:22:37 | 47.75179 | 15.18699 | 155° | 42km/h | 21519m | 6.3m/s | -54.1°C | 1.3% | 0hPa | 2.7V | 00:00:00 | 00:00:00 | 00:00:00 | |
| OE5WHR-10 | 2026-09-06 03:22:36 | 47.75197 | 15.18685 | 156° | 46km/h | 21506m | 6.6m/s | -54.1°C | 4.1% | 0hPa | 2.7V | 00:00:00 | 00:00:00 | 00:00:00 | |
| OE3MUC-15 | 2026-09-06 03:22:35 | 47.75206 | 15.18679 | 154° | 38km/h | 21500m | 5.2m/s | -54.1°C | 4.1% | 0hPa | 2.6V | 00:00:00 | 00:00:00 | 00:00:00 | |
| OE5MMP-10 | 2026-09-06 03:22:34 | 47.75214 | 15.18672 | 151° | 42km/h | 21494m | 7.2m/s | -54.2°C | 4.2% | 0hPa | 2.6V | 00:00:00 | 01:33:38 | 00:00:00 | |
| PG1ADW-2 | 2026-09-06 03:22:33 | 47.75222 | 15.18665 | 148° | 49km/h | 21487m | 5.7m/s | -54.2°C | 4.2% | 0hPa | 2.6V | 00:00:00 | 00:00:00 | 00:00:00 | |
| OE5FHM-15 | 2026-09-06 03:22:32 | 47.75230 | 15.18657 | 148° | 47km/h | 21481m | 6.6m/s | -54.3°C | 4.2% | 0hPa | 2.6V | 00:00:00 | 01:33:36 | 00:00:00 | |
| OE3MUC-15 | 2026-09-06 03:22:31 | 47.75238 | 15.18649 | 150° | 42km/h | 21475m | 5.6m/s | -54.3°C | 4.2% | 0hPa | 2.6V | 00:00:00 | 00:00:00 | 00:00:00 | |
| OM5KV | 2026-09-06 03:22:30 | 47.75238 | 15.18649 | 150° | 38km/h | 21475m | 5.6m/s | -54.4°C | 1.4% | 0hPa | 2.6V | 00:00:00 | 00:00:00 | 00:00:00 | |
| OE8JPQ-2 | 2026-09-06 03:22:27 | 47.75272 | 15.18612 | 140° | 51km/h | 21452m | 6.6m/s | -54.5°C | 4.2% | 0hPa | 2.6V | 00:00:00 | 00:00:00 | 08:30:00 | |
| OM5KV | 2026-09-06 03:22:25 | 47.75280 | 15.18601 | 142° | 44km/h | 21446m | 5.5m/s | -54.6°C | 1.4% | 0hPa | 2.7V | 00:00:00 | 00:00:00 | 00:00:00 | |
| OE5MMP-10 | 2026-09-06 03:22:24 | 47.75298 | 15.18580 | 140° | 51km/h | 21434m | 7.0m/s | -54.8°C | 4.4% | 0hPa | 2.7V | 00:00:00 | 01:33:28 | 00:00:00 | |
| OE3MUC-15 | 2026-09-06 03:22:23 | 47.75308 | 15.18568 | 141° | 49km/h | 21428m | 5.5m/s | -54.9°C | 4.4% | 0hPa | 2.7V | 00:00:00 | 00:00:00 | 00:00:00 | |
| OM5KV | 2026-09-06 03:22:20 | 47.75327 | 15.18546 | 144° | 47km/h | 21415m | 5.1m/s | -55.0°C | 1.5% | 0hPa | 2.7V | 00:00:00 | 00:00:00 | 00:00:00 | |
| OE3MUC-15 | 2026-09-06 03:22:19 | 47.75346 | 15.18523 | 137° | 53km/h | 21404m | 6.1m/s | -55.0°C | 4.5% | 0hPa | 2.7V | 00:00:00 | 00:00:00 | 00:00:00 | |
| PETON7-10 | 2026-09-06 03:22:17 | 47.75364 | 15.18494 | 133° | 51km/h | 21393m | 5.6m/s | -54.9°C | 4.5% | 0hPa | 2.7V | 00:00:00 | 01:33:21 | 00:00:00 | |
| OE5WHR-10 | 2026-09-06 03:22:15 | 47.75383 | 15.18465 | 133° | 49km/h | 21382m | 3.9m/s | -54.8°C | 4.5% | 0hPa | 2.7V | 00:00:00 | 00:00:00 | 00:00:00 | |
| DO3MHA-12 | 2026-09-06 03:22:14 | 47.75392 | 15.18450 | 131° | 49km/h | 21377m | 5.9m/s | -54.8°C | 4.5% | 0hPa | 2.7V | 00:00:00 | 01:33:18 | 00:00:00 | |
| DB0NH | 2026-09-06 03:22:13 | 47.75401 | 15.18433 | 127° | 47km/h | 21371m | 5.9m/s | -54.8°C | 4.4% | 0hPa | 2.7V | 00:00:00 | 01:33:17 | 00:00:00 | |
| OE5DRO-10 | 2026-09-06 03:22:12 | 47.75409 | 15.18416 | 124° | 49km/h | 21366m | 4.8m/s | -54.7°C | 4.4% | 0hPa | 2.6V | 00:00:00 | 00:00:00 | 00:00:00 | |
| OE3MUC-15 | 2026-09-06 03:22:11 | 47.75417 | 15.18399 | 124° | 49km/h | 21360m | 6.6m/s | -54.7°C | 4.4% | 0hPa | 2.6V | 00:00:00 | 00:00:00 | 00:00:00 | |
| OM5KV | 2026-09-06 03:22:09 | 47.75424 | 15.18384 | 125° | 47km/h | 21354m | 5.2m/s | -54.7°C | 1.5% | 0hPa | 2.6V | 00:00:00 | 00:00:00 | 00:00:00 | |
| OM5KV | 2026-09-06 03:22:08 | 47.75431 | 15.18369 | 124° | 47km/h | 21348m | 5.6m/s | -54.7°C | 1.5% | 0hPa | 2.6V | 00:00:00 | 00:00:00 | 00:00:00 | |
| OE8JPQ-2 | 2026-09-06 03:22:07 | 47.75443 | 15.18339 | 123° | 46km/h | 21336m | 5.1m/s | 0°C | 0% | 0hPa | 2.6V | 00:00:00 | 00:00:00 | 00:00:00 | |
| OE5DXL-15 | 2026-09-06 03:22:05 | 47.75457 | 15.18310 | 128° | 46km/h | 21326m | 7.3m/s | -54.6°C | 4.4% | 0hPa | 2.6V | 00:00:00 | 00:00:00 | 00:00:00 | |
| DO3MHA-12 | 2026-09-06 03:22:04 | 47.75465 | 15.18297 | 131° | 49km/h | 21319m | 5.3m/s | -54.5°C | 4.4% | 0hPa | 2.7V | 00:00:00 | 01:33:08 | 00:00:00 | |
| OM5KV | 2026-09-06 03:22:03 | 47.75464 | 15.18297 | 132° | 47km/h | 21319m | 5.4m/s | -54.6°C | 1.4% | 0hPa | 2.7V | 00:00:00 | 00:00:00 | 00:00:00 | |
| OE5FHM-15 | 2026-09-06 03:22:02 | 47.75481 | 15.18269 | 130° | 46km/h | 21306m | 4.9m/s | -54.5°C | 4.4% | 0hPa | 2.7V | 00:00:00 | 01:33:06 | 00:00:00 | |
| OE3MUC-15 | 2026-09-06 03:21:59 | 47.75505 | 15.18226 | 130° | 47km/h | 21291m | 4.8m/s | -54.4°C | 4.3% | 0hPa | 2.7V | 00:00:00 | 00:00:00 | 00:00:00 | |
| OM5KV | 2026-09-06 03:21:58 | 47.75505 | 15.18226 | 130° | 47km/h | 21291m | 4.8m/s | -54.5°C | 1.4% | 0hPa | 2.7V | 00:00:00 | 00:00:00 | 00:00:00 | |
| OE3MUC-15 | 2026-09-06 03:21:55 | 47.75532 | 15.18167 | 120° | 46km/h | 21271m | 5.3m/s | -54.3°C | 4.2% | 0hPa | 2.7V | 00:00:00 | 00:00:00 | 00:00:00 | |
| OE5MMP-10 | 2026-09-06 03:21:54 | 47.75538 | 15.18153 | 121° | 42km/h | 21265m | 6.5m/s | -54.3°C | 4.2% | 0hPa | 2.7V | 00:00:00 | 01:32:58 | 00:00:00 | |
| OE5DRO-10 | 2026-09-06 03:21:53 | 47.75543 | 15.18140 | 124° | 44km/h | 21259m | 4.9m/s | -54.3°C | 4.2% | 0hPa | 2.7V | 00:00:00 | 00:00:00 | 00:00:00 | |
| PG1ADW-2 | 2026-09-06 03:21:52 | 47.75548 | 15.18128 | 123° | 40km/h | 21254m | 5.4m/s | -54.2°C | 4.2% | 0hPa | 2.7V | 00:00:00 | 01:32:56 | 00:00:00 | |
| OE3MUC-15 | 2026-09-06 03:21:51 | 47.75553 | 15.18115 | 120° | 40km/h | 21248m | 5.9m/s | -54.2°C | 4.1% | 0hPa | 2.7V | 00:00:00 | 00:00:00 | 00:00:00 | |
| DO8TBO-1 | 2026-09-06 03:21:49 | 47.75564 | 15.18091 | 127° | 42km/h | 21237m | 6.1m/s | -54.2°C | 4.1% | 0hPa | 2.6V | 00:00:00 | 01:32:53 | 00:00:00 | |
| PETON7-10 | 2026-09-06 03:21:47 | 47.75576 | 15.18067 | 126° | 46km/h | 21226m | 6.7m/s | -54.3°C | 4.1% | 0hPa | 2.7V | 00:00:00 | 00:00:00 | 00:00:00 | |
| OM5KV | 2026-09-06 03:21:46 | 47.75575 | 15.18067 | 126° | 44km/h | 21226m | 6.8m/s | -54.3°C | 1.3% | 0hPa | 2.7V | 00:00:00 | 00:00:00 | 00:00:00 | |
| OE5MMP-10 | 2026-09-06 03:21:44 | 47.75595 | 15.18023 | 125° | 44km/h | 21209m | 5.8m/s | -54.6°C | 4.2% | 0hPa | 2.7V | 00:00:00 | 01:32:48 | 00:00:00 | |
| DB0NH | 2026-09-06 03:21:43 | 47.75602 | 15.18008 | 123° | 40km/h | 21204m | 5.1m/s | -54.6°C | 4.2% | 0hPa | 2.7V | 00:00:00 | 01:32:47 | 00:00:00 | |
| S52SK | 2026-09-06 03:21:42 | 47.75602 | 15.18008 | 123° | 49km/h | 21204m | 5.1m/s | -54.7°C | 0% | 0hPa | 2.7V | 00:00:00 | 00:00:00 | 00:00:00 | |
| OM5KV | 2026-09-06 03:21:39 | 47.75618 | 15.17960 | 115° | 46km/h | 21188m | 4.6m/s | -54.6°C | 1.4% | 0hPa | 2.7V | 00:00:00 | 00:00:00 | 00:00:00 | |
| S52SK | 2026-09-06 03:21:36 | 47.75632 | 15.17919 | 120° | 38km/h | 21172m | 4.9m/s | -54.6°C | 0% | 0hPa | 2.7V | 00:00:00 | 00:00:00 | 00:00:00 | |
| OE5DXL-15 | 2026-09-06 03:21:35 | 47.75641 | 15.17891 | 119° | 40km/h | 21162m | 4.1m/s | -54.8°C | 4.2% | 0hPa | 2.7V | 00:00:00 | 00:00:00 | 00:00:00 | |
| DO3MHA-12 | 2026-09-06 03:21:34 | 47.75646 | 15.17877 | 123° | 40km/h | 21157m | 5.4m/s | -54.9°C | 4.3% | 0hPa | 2.7V | 00:00:00 | 01:32:38 | 00:00:00 | |
| OE5WHR-10 | 2026-09-06 03:21:33 | 47.75652 | 15.17864 | 128° | 38km/h | 21152m | 5.7m/s | -55.2°C | 4.4% | 0hPa | 2.7V | 00:00:00 | 00:00:00 | 08:30:00 | |
| OE5FHM-15 | 2026-09-06 03:21:32 | 47.75659 | 15.17851 | 129° | 40km/h | 21147m | 5.1m/s | -55.4°C | 4.5% | 0hPa | 2.6V | 00:00:00 | 01:32:36 | 00:00:00 | |
| OM5KV | 2026-09-06 03:21:30 | 47.75666 | 15.17838 | 129° | 46km/h | 21141m | 6.9m/s | -55.5°C | 1.5% | 0hPa | 2.7V | 00:00:00 | 00:00:00 | 00:00:00 | |
| OM5KV | 2026-09-06 03:21:29 | 47.75672 | 15.17824 | 126° | 44km/h | 21135m | 5.1m/s | -55.6°C | 1.5% | 0hPa | 2.7V | 00:00:00 | 00:00:00 | 00:00:00 | |
| OE8JPQ-2 | 2026-09-06 03:21:27 | 47.75688 | 15.17789 | 124° | 38km/h | 21119m | 4.7m/s | -55.4°C | 4.5% | 0hPa | 2.7V | 00:00:00 | 00:00:00 | 00:00:00 | |
| OM5KV | 2026-09-06 03:21:25 | 47.75692 | 15.17778 | 118° | 35km/h | 21113m | 6.5m/s | -55.5°C | 1.5% | 0hPa | 2.6V | 00:00:00 | 00:00:00 | 00:00:00 | |
| DO3MHA-12 | 2026-09-06 03:21:24 | 47.75699 | 15.17753 | 114° | 38km/h | 21103m | 5.7m/s | -55.4°C | 4.4% | 0hPa | 2.6V | 00:00:00 | 01:32:28 | 00:00:00 | |
| DO8TBO-1 | 2026-09-06 03:21:19 | 47.75719 | 15.17685 | 118° | 37km/h | 21073m | 6.3m/s | -55.7°C | 4.5% | 0hPa | 2.7V | 00:00:00 | 01:32:23 | 00:00:00 | |
| OE3MUC-15 | 2026-09-06 03:21:18 | 47.75724 | 15.17672 | 119° | 37km/h | 21067m | 5.8m/s | -55.7°C | 4.6% | 0hPa | 2.7V | 00:00:00 | 00:00:00 | 00:00:00 | |
| PETON7-10 | 2026-09-06 03:21:17 | 47.75727 | 15.17660 | 115° | 40km/h | 21062m | 4.3m/s | -55.8°C | 4.6% | 0hPa | 2.7V | 00:00:00 | 00:00:00 | 00:00:00 | |
| OE5DRO-10 | 2026-09-06 03:21:15 | 47.75733 | 15.17634 | 106° | 38km/h | 21051m | 5.8m/s | -56.0°C | 4.7% | 0hPa | 2.6V | 00:00:00 | 00:00:00 | 00:00:00 | |
| OE5MMP-10 | 2026-09-06 03:21:14 | 47.75735 | 15.17620 | 104° | 40km/h | 21045m | 5.9m/s | -56.0°C | 4.7% | 0hPa | 2.6V | 00:00:00 | 01:32:18 | 00:00:00 | |
| DB0NH | 2026-09-06 03:21:13 | 47.75737 | 15.17607 | 106° | 37km/h | 21039m | 6.8m/s | -56.0°C | 4.7% | 0hPa | 2.6V | 00:00:00 | 01:32:17 | 00:00:00 | |
| OE5WHR-10 | 2026-09-06 03:21:12 | 47.75740 | 15.17593 | 104° | 37km/h | 21034m | 4.2m/s | -56.0°C | 4.7% | 0hPa | 2.6V | 00:00:00 | 00:00:00 | 00:00:00 | |
| OE3MUC-15 | 2026-09-06 03:21:10 | 47.75743 | 15.17564 | 97° | 44km/h | 21022m | 6.0m/s | -55.9°C | 4.7% | 0hPa | 2.6V | 00:00:00 | 00:00:00 | 00:00:00 | |
| OE3OSB-13 | 2026-09-06 03:21:09 | 47.75744 | 15.17531 | 95° | 42km/h | 21011m | 6.4m/s | -55.9°C | 1.4% | -1.0hPa | 2.6V | 00:00:00 | 00:00:00 | 00:00:00 | |
| PG1ADW-2 | 2026-09-06 03:21:08 | 47.75744 | 15.17530 | 96° | 35km/h | 21011m | 6.3m/s | -55.8°C | 4.7% | 0hPa | 2.6V | 00:00:00 | 00:00:00 | 00:00:00 | |
| OE8JPQ-2 | 2026-09-06 03:21:07 | 47.75745 | 15.17515 | 96° | 35km/h | 21006m | 5.3m/s | -55.8°C | 4.7% | 0hPa | 2.6V | 00:00:00 | 00:00:00 | 00:00:00 | |
| OE3MUC-15 | 2026-09-06 03:21:06 | 47.75746 | 15.17500 | 94° | 40km/h | 21001m | 4.2m/s | -55.8°C | 4.7% | 0hPa | 2.6V | 00:00:00 | 00:00:00 | 00:00:00 | |
| OE5DXL-15 | 2026-09-06 03:21:05 | 47.75746 | 15.17485 | 91° | 33km/h | 20996m | 6.0m/s | -55.7°C | 4.7% | 0hPa | 2.6V | 00:00:00 | 00:00:00 | 00:00:00 | |
| OE5MMP-10 | 2026-09-06 03:21:04 | 47.75745 | 15.17470 | 86° | 33km/h | 20990m | 5.0m/s | -55.7°C | 4.7% | 0hPa | 2.6V | 00:00:00 | 01:32:08 | 00:00:00 | |
| OE3MUC-15 | 2026-09-06 03:21:02 | 47.75744 | 15.17441 | 90° | 33km/h | 20980m | 6.6m/s | -55.6°C | 4.6% | 0hPa | 2.6V | 00:00:00 | 00:00:00 | 08:30:00 | |
| OM5KV | 2026-09-06 03:21:00 | 47.75744 | 15.17428 | 92° | 33km/h | 20974m | 5.3m/s | -55.6°C | 1.5% | 0hPa | 2.7V | 00:00:00 | 00:00:00 | 00:00:00 | |
| OE3MUC-15 | 2026-09-06 03:20:58 | 47.75742 | 15.17392 | 82° | 29km/h | 20958m | 4.9m/s | -55.4°C | 4.6% | 0hPa | 2.7V | 00:00:00 | 00:00:00 | 00:00:00 | |
| OE5DRO-10 | 2026-09-06 03:20:56 | 47.75740 | 15.17370 | 91° | 31km/h | 20946m | 5.5m/s | -55.3°C | 4.5% | 0hPa | 2.7V | 00:00:00 | 00:00:00 | 00:00:00 | |
| OM5KV | 2026-09-06 03:20:55 | 47.75740 | 15.17370 | 91° | 27km/h | 20946m | 5.5m/s | -55.4°C | 1.5% | 0hPa | 2.7V | 00:00:00 | 00:00:00 | 00:00:00 | |
| DO3MHA-12 | 2026-09-06 03:20:54 | 47.75740 | 15.17347 | 89° | 35km/h | 20935m | 6.9m/s | -55.3°C | 4.4% | 0hPa | 2.7V | 00:00:00 | 01:31:58 | 00:00:00 | |
| OM5KV | 2026-09-06 03:20:53 | 47.75740 | 15.17347 | 89° | 33km/h | 20935m | 7.0m/s | -55.4°C | 1.5% | 0hPa | 2.6V | 00:00:00 | 00:00:00 | 00:00:00 | |
| OE5WHR-10 | 2026-09-06 03:20:51 | 47.75739 | 15.17308 | 92° | 31km/h | 20917m | 5.0m/s | -55.2°C | 4.4% | 0hPa | 2.6V | 00:00:00 | 01:31:55 | 00:00:00 | |
| OE3MUC-15 | 2026-09-06 03:20:50 | 47.75739 | 15.17293 | 88° | 38km/h | 20911m | 7.1m/s | -55.2°C | 4.4% | 0hPa | 2.6V | 00:00:00 | 00:00:00 | 00:00:00 | |
| DO8TBO-1 | 2026-09-06 03:20:49 | 47.75738 | 15.17279 | 86° | 31km/h | 20905m | 5.0m/s | 0°C | 0% | 0hPa | 2.7V | 00:00:00 | 01:31:53 | 00:00:00 | |
| PG1ADW-2 | 2026-09-06 03:20:48 | 47.75738 | 15.17264 | 88° | 29km/h | 20900m | 5.4m/s | -55.3°C | 4.4% | 0hPa | 2.7V | 00:00:00 | 00:00:00 | 00:00:00 | |
| OE8JPQ-2 | 2026-09-06 03:20:47 | 47.75738 | 15.17250 | 92° | 29km/h | 20894m | 5.5m/s | -55.3°C | 4.4% | 0hPa | 2.6V | 00:00:00 | 01:31:51 | 00:00:00 | |
| OE3MUC-15 | 2026-09-06 03:20:46 | 47.75738 | 15.17238 | 93° | 29km/h | 20889m | 4.1m/s | -55.4°C | 4.4% | 0hPa | 2.6V | 00:00:00 | 00:00:00 | 00:00:00 | |
| OM5KV | 2026-09-06 03:20:45 | 47.75738 | 15.17226 | 89° | 29km/h | 20884m | 6.5m/s | -55.4°C | 1.5% | 0hPa | 2.6V | 00:00:00 | 00:00:00 | 00:00:00 | |
| OE5MMP-10 | 2026-09-06 03:20:44 | 47.75737 | 15.17216 | 84° | 27km/h | 20877m | 6.0m/s | -55.4°C | 4.4% | 0hPa | 2.6V | 00:00:00 | 01:31:48 | 00:00:00 | |
| DB0NH | 2026-09-06 03:20:43 | 47.75736 | 15.17206 | 83° | 31km/h | 20871m | 7.1m/s | 0°C | 0% | 0hPa | 2.6V | 00:00:00 | 01:31:47 | 00:00:00 | |
| OE3MUC-15 | 2026-09-06 03:20:42 | 47.75735 | 15.17196 | 83° | 26km/h | 20864m | 5.6m/s | -55.4°C | 4.4% | 0hPa | 2.6V | 00:00:00 | 00:00:00 | 00:00:00 | |
| OM5KV | 2026-09-06 03:20:39 | 47.75732 | 15.17177 | 70° | 26km/h | 20854m | 7.0m/s | -55.4°C | 1.5% | 0hPa | 2.6V | 00:00:00 | 00:00:00 | 00:00:00 | |
| OE3MUC-15 | 2026-09-06 03:20:38 | 47.75726 | 15.17160 | 65° | 27km/h | 20842m | 6.3m/s | -55.4°C | 4.4% | 0hPa | 2.6V | 00:00:00 | 00:00:00 | 00:00:00 | |
| OE5DRO-10 | 2026-09-06 03:20:37 | 47.75724 | 15.17151 | 71° | 31km/h | 20836m | 6.0m/s | -55.5°C | 4.4% | 0hPa | 2.7V | 00:00:00 | 00:00:00 | 00:00:00 | |
| OE5DXL-15 | 2026-09-06 03:20:35 | 47.75720 | 15.17131 | 79° | 29km/h | 20825m | 6.4m/s | -55.5°C | 4.3% | 0hPa | 2.6V | 00:00:00 | 00:00:00 | 08:30:00 | |
| DO3MHA-12 | 2026-09-06 03:20:34 | 47.75719 | 15.17120 | 83° | 33km/h | 20819m | 4.4m/s | -55.5°C | 4.4% | 0hPa | 2.6V | 00:00:00 | 01:31:38 | 00:00:00 | |
| OM5KV | 2026-09-06 03:20:33 | 47.75719 | 15.17120 | 83° | 31km/h | 20819m | 4.4m/s | -55.5°C | 1.5% | 0hPa | 2.6V | 00:00:00 | 00:00:00 | 00:00:00 | |
| OE5FHM-15 | 2026-09-06 03:20:32 | 47.75717 | 15.17097 | 85° | 29km/h | 20808m | 4.4m/s | -55.5°C | 4.3% | 0hPa | 2.6V | 00:00:00 | 01:31:36 | 00:00:00 | |
| OM5KV | 2026-09-06 03:20:31 | 47.75718 | 15.17097 | 85° | 31km/h | 20808m | 4.4m/s | -55.6°C | 1.4% | 0hPa | 2.6V | 00:00:00 | 00:00:00 | 00:00:00 | |
| OE3MUC-15 | 2026-09-06 03:20:30 | 47.75714 | 15.17073 | 75° | 31km/h | 20797m | 5.2m/s | -55.6°C | 4.3% | 0hPa | 2.6V | 00:00:00 | 00:00:00 | 00:00:00 | |
| OM5KV | 2026-09-06 03:20:29 | 47.75714 | 15.17073 | 75° | 35km/h | 20797m | 5.2m/s | -55.6°C | 1.4% | 0hPa | 2.6V | 00:00:00 | 00:00:00 | 00:00:00 | |
| PG1ADW-2 | 2026-09-06 03:20:28 | 47.75709 | 15.17050 | 64° | 31km/h | 20785m | 5.5m/s | -55.7°C | 4.3% | 0hPa | 2.6V | 00:00:00 | 00:00:00 | 00:00:00 | |
| OE8JPQ-2 | 2026-09-06 03:20:27 | 47.75705 | 15.17040 | 59° | 29km/h | 20780m | 5.5m/s | -55.8°C | 4.4% | 0hPa | 2.6V | 00:00:00 | 00:00:00 | 00:00:00 | |
| OE3MUC-15 | 2026-09-06 03:20:26 | 47.75701 | 15.17030 | 56° | 31km/h | 20774m | 5.8m/s | -55.9°C | 4.5% | 0hPa | 2.7V | 00:00:00 | 00:00:00 | 08:30:00 | |
| OE5MMP-10 | 2026-09-06 03:20:24 | 47.75692 | 15.17010 | 60° | 33km/h | 20762m | 6.6m/s | -56.1°C | 4.6% | 0hPa | 2.7V | 00:00:00 | 01:31:28 | 00:00:00 | |
| OE3MUC-15 | 2026-09-06 03:20:22 | 47.75685 | 15.16989 | 69° | 33km/h | 20752m | 4.4m/s | -56.4°C | 4.7% | 0hPa | 2.7V | 00:00:00 | 00:00:00 | 00:00:00 | |
| OM5KV | 2026-09-06 03:20:21 | 47.75686 | 15.16989 | 70° | 31km/h | 20752m | 4.5m/s | -56.4°C | 1.6% | 0hPa | 2.7V | 00:00:00 | 00:00:00 | 00:00:00 | |
| OM5KV | 2026-09-06 03:20:20 | 47.75682 | 15.16977 | 74° | 35km/h | 20747m | 5.9m/s | -56.6°C | 1.6% | 0hPa | 2.7V | 00:00:00 | 00:00:00 | 00:00:00 | |
| DO8TBO-1 | 2026-09-06 03:20:19 | 47.75679 | 15.16953 | 81° | 27km/h | 20737m | 5.9m/s | 0°C | 0% | 0hPa | 2.7V | 00:00:00 | 01:31:23 | 00:00:00 | |
| OE3MUC-15 | 2026-09-06 03:20:18 | 47.75677 | 15.16940 | 81° | 33km/h | 20732m | 5.1m/s | -56.5°C | 4.8% | 0hPa | 2.7V | 00:00:00 | 00:00:00 | 00:00:00 | |
| PETON7-10 | 2026-09-06 03:20:17 | 47.75676 | 15.16928 | 79° | 27km/h | 20726m | 5.7m/s | -56.5°C | 4.8% | 0hPa | 2.7V | 00:00:00 | 00:00:00 | 00:00:00 | |
| OM5KV | 2026-09-06 03:20:15 | 47.75674 | 15.16916 | 77° | 35km/h | 20721m | 5.2m/s | -56.6°C | 1.6% | 0hPa | 2.7V | 00:00:00 | 00:00:00 | 00:00:00 | |
| DO3MHA-12 | 2026-09-06 03:20:14 | 47.75669 | 15.16892 | 72° | 26km/h | 20710m | 6.6m/s | -56.5°C | 4.8% | 0hPa | 2.7V | 00:00:00 | 01:31:18 | 00:00:00 | |
| DB0NH | 2026-09-06 03:20:13 | 47.75667 | 15.16883 | 67° | 24km/h | 20704m | 4.1m/s | 0°C | 0% | 0hPa | 2.7V | 00:00:00 | 01:31:17 | 00:00:00 | |
| S52SK | 2026-09-06 03:20:12 | 47.75667 | 15.16883 | 68° | 26km/h | 20704m | 4.2m/s | -56.6°C | 0% | 0hPa | 2.7V | 00:00:00 | 00:00:00 | 00:00:00 | |
| OE3MUC-15 | 2026-09-06 03:20:10 | 47.75658 | 15.16858 | 60° | 22km/h | 20687m | 6.3m/s | -56.4°C | 4.8% | 0hPa | 2.7V | 00:00:00 | 00:00:00 | 00:00:00 | |
| OE5WHR-10 | 2026-09-06 03:20:09 | 47.75655 | 15.16851 | 62° | 24km/h | 20681m | 4.8m/s | -56.4°C | 4.8% | 0hPa | 2.7V | 00:00:00 | 00:00:00 | 00:00:00 | |
| PG1ADW-2 | 2026-09-06 03:20:08 | 47.75653 | 15.16843 | 60° | 24km/h | 20676m | 5.6m/s | -56.4°C | 4.8% | 0hPa | 2.7V | 00:00:00 | 01:31:12 | 00:00:00 | |
| OE8JPQ-2 | 2026-09-06 03:20:07 | 47.75649 | 15.16836 | 61° | 24km/h | 20671m | 5.2m/s | -56.4°C | 4.8% | 0hPa | 2.7V | 00:00:00 | 00:00:00 | 00:00:00 | |
| OE3MUC-15 | 2026-09-06 03:20:06 | 47.75646 | 15.16827 | 62° | 26km/h | 20666m | 4.4m/s | -56.3°C | 4.8% | 0hPa | 2.7V | 00:00:00 | 00:00:00 | 00:00:00 | |
| OE5DXL-15 | 2026-09-06 03:20:05 | 47.75643 | 15.16819 | 65° | 20km/h | 20660m | 6.4m/s | -56.3°C | 4.8% | 0hPa | 2.7V | 00:00:00 | 00:00:00 | 00:00:00 | |
| DO3MHA-12 | 2026-09-06 03:20:04 | 47.75641 | 15.16811 | 70° | 26km/h | 20655m | 5.0m/s | -56.3°C | 4.8% | 0hPa | 2.7V | 00:00:00 | 01:31:08 | 00:00:00 | |
| OE5FHM-15 | 2026-09-06 03:20:02 | 47.75636 | 15.16793 | 62° | 20km/h | 20644m | 5.9m/s | -56.2°C | 4.8% | 0hPa | 2.7V | 00:00:00 | 01:31:06 | 00:00:00 | |
| OM5KV | 2026-09-06 03:20:01 | 47.75636 | 15.16793 | 63° | 29km/h | 20644m | 6.0m/s | -56.3°C | 1.6% | 0hPa | 2.6V | 00:00:00 | 00:00:00 | 00:00:00 | |
| OM5KV | 2026-09-06 03:20:00 | 47.75632 | 15.16784 | 56° | 29km/h | 20639m | 4.2m/s | -56.2°C | 1.6% | 0hPa | 2.6V | 00:00:00 | 00:00:00 | 00:00:00 | |
| OE5DRO-10 | 2026-09-06 03:19:59 | 47.75623 | 15.16768 | 49° | 20km/h | 20629m | 4.2m/s | -56.1°C | 4.8% | 0hPa | 2.6V | 00:00:00 | 00:00:00 | 00:00:00 | |
| OE3MUC-15 | 2026-09-06 03:19:58 | 47.75619 | 15.16761 | 44° | 22km/h | 20623m | 5.9m/s | -56.1°C | 4.7% | 0hPa | 2.6V | 00:00:00 | 00:00:00 | 00:00:00 | |
| OM5KV | 2026-09-06 03:19:56 | 47.75614 | 15.16754 | 43° | 24km/h | 20618m | 4.6m/s | -56.1°C | 1.6% | 0hPa | 2.6V | 00:00:00 | 00:00:00 | 00:00:00 | |
| OM5KV | 2026-09-06 03:19:55 | 47.75610 | 15.16749 | 42° | 20km/h | 20613m | 6.4m/s | -56.1°C | 1.6% | 0hPa | 2.6V | 00:00:00 | 00:00:00 | 00:00:00 | |
| DO3MHA-12 | 2026-09-06 03:19:54 | 47.75602 | 15.16740 | 41° | 20km/h | 20602m | 5.8m/s | -56.0°C | 4.7% | 0hPa | 2.6V | 00:00:00 | 01:30:58 | 00:00:00 | |
| DB0UT-7 | 2026-09-06 03:19:52 | 47.75595 | 15.16730 | 41° | 16km/h | 20590m | 5.3m/s | 0°C | 0% | 0hPa | 2.6V | 00:00:00 | 00:00:00 | 00:00:00 | |
| OM5KV | 2026-09-06 03:19:51 | 47.75595 | 15.16730 | 42° | 20km/h | 20590m | 5.4m/s | -56.0°C | 1.5% | 0hPa | 2.6V | 00:00:00 | 00:00:00 | 00:00:00 | |
| OE5WHR-10 | 2026-09-06 03:19:48 | 47.75579 | 15.16711 | 42° | 16km/h | 20566m | 4.6m/s | -56.0°C | 4.7% | 0hPa | 2.6V | 00:00:00 | 01:30:52 | 00:00:00 | |
| PETON7-10 | 2026-09-06 03:19:47 | 47.75575 | 15.16705 | 45° | 16km/h | 20561m | 5.8m/s | -55.9°C | 4.7% | 0hPa | 2.6V | 00:00:00 | 00:00:00 | 00:00:00 | |
| OE3MUC-15 | 2026-09-06 03:19:46 | 47.75571 | 15.16699 | 43° | 22km/h | 20555m | 5.4m/s | -55.9°C | 4.8% | 0hPa | 2.7V | 00:00:00 | 00:00:00 | 00:00:00 | |
| OM5KV | 2026-09-06 03:19:45 | 47.75571 | 15.16699 | 43° | 20km/h | 20555m | 5.5m/s | -56.0°C | 1.6% | 0hPa | 2.7V | 00:00:00 | 00:00:00 | 00:00:00 | |
| OE5MMP-10 | 2026-09-06 03:19:44 | 47.75562 | 15.16689 | 37° | 15km/h | 20544m | 6.0m/s | -55.9°C | 4.8% | 0hPa | 2.7V | 00:00:00 | 01:30:48 | 00:00:00 | |
| DB0NH | 2026-09-06 03:19:43 | 47.75558 | 15.16685 | 34° | 13km/h | 20539m | 4.3m/s | 0°C | 0% | 0hPa | 2.7V | 00:00:00 | 01:30:47 | 00:00:00 | |
| OE3MUC-15 | 2026-09-06 03:19:42 | 47.75554 | 15.16681 | 35° | 13km/h | 20533m | 7.0m/s | -55.8°C | 4.8% | 0hPa | 2.7V | 00:00:00 | 00:00:00 | 00:00:00 | |
| OE5DRO-10 | 2026-09-06 03:19:40 | 47.75549 | 15.16676 | 28° | 13km/h | 20522m | 4.2m/s | -55.7°C | 4.7% | 0hPa | 2.7V | 00:00:00 | 00:00:00 | 08:30:00 | |
| OM5KV | 2026-09-06 03:19:39 | 47.75549 | 15.16676 | 29° | 13km/h | 20522m | 4.3m/s | -55.7°C | 1.6% | 0hPa | 2.7V | 00:00:00 | 00:00:00 | 00:00:00 | |
| OM5KV | 2026-09-06 03:19:38 | 47.75545 | 15.16674 | 34° | 15km/h | 20516m | 6.5m/s | -55.7°C | 1.6% | 0hPa | 2.7V | 00:00:00 | 00:00:00 | 00:00:00 | |
| OE5DXL-15 | 2026-09-06 03:19:35 | 47.75535 | 15.16660 | 57° | 11km/h | 20495m | 3.9m/s | -55.5°C | 4.6% | 0hPa | 2.7V | 00:00:00 | 00:00:00 | 00:00:00 | |
| DO3MHA-12 | 2026-09-06 03:19:34 | 47.75533 | 15.16655 | 57° | 15km/h | 20490m | 6.5m/s | -55.4°C | 4.6% | 0hPa | 2.7V | 00:00:00 | 01:30:38 | 00:00:00 | |
| OM5KV | 2026-09-06 03:19:33 | 47.75533 | 15.16655 | 58° | 18km/h | 20490m | 6.5m/s | -55.5°C | 1.5% | 0hPa | 2.7V | 00:00:00 | 00:00:00 | 00:00:00 | |
| OE5FHM-15 | 2026-09-06 03:19:32 | 47.75527 | 15.16645 | 51° | 9km/h | 20478m | 6.0m/s | -55.4°C | 4.6% | 0hPa | 2.7V | 00:00:00 | 01:30:36 | 00:00:00 | |
| PG1ADW-2 | 2026-09-06 03:19:28 | 47.75514 | 15.16635 | 9° | 9km/h | 20456m | 4.3m/s | -55.2°C | 4.5% | 0hPa | 2.7V | 00:00:00 | 00:00:00 | 00:00:00 | |
| OE8JPQ-2 | 2026-09-06 03:19:27 | 47.75511 | 15.16634 | 1° | 9km/h | 20450m | 7.4m/s | -55.1°C | 4.5% | 0hPa | 2.7V | 00:00:00 | 00:00:00 | 08:30:00 | |
| DO3MHA-12 | 2026-09-06 03:19:24 | 47.75502 | 15.16633 | 25° | 7km/h | 20432m | 5.0m/s | -55.0°C | 4.5% | 0hPa | 2.6V | 00:00:00 | 01:30:28 | 00:00:00 | |
| OM5KV | 2026-09-06 03:19:23 | 47.75500 | 15.16631 | 41° | 9km/h | 20426m | 6.0m/s | -55.0°C | 1.5% | 0hPa | 2.7V | 00:00:00 | 00:00:00 | 00:00:00 | |
| DB0UT-7 | 2026-09-06 03:19:22 | 47.75499 | 15.16629 | 58° | 7km/h | 20419m | 8.5m/s | 0°C | 0% | 0hPa | 2.7V | 00:00:00 | 01:30:26 | 00:00:00 | |
| OE5DRO-10 | 2026-09-06 03:19:21 | 47.75498 | 15.16627 | 82° | 24km/h | 20412m | 5.9m/s | -54.8°C | 4.5% | 0hPa | 2.7V | 00:00:00 | 00:00:00 | 00:00:00 | |
| OE3JTB-15 | 2026-09-06 03:19:19 | 47.75497 | 15.16621 | 82° | 9km/h | 20398m | 4.8m/s | -54.7°C | 4.6% | 0hPa | 2.7V | 00:00:00 | 01:30:23 | 00:00:00 | |
| OE3MUC-15 | 2026-09-06 03:19:18 | 47.75497 | 15.16618 | 91° | 5km/h | 20393m | 6.5m/s | -54.7°C | 4.5% | 0hPa | 2.7V | 00:00:00 | 00:00:00 | 00:00:00 | |
| PETON7-10 | 2026-09-06 03:19:17 | 47.75497 | 15.16616 | 105° | 7km/h | 20386m | 5.8m/s | -54.6°C | 4.5% | 0hPa | 2.7V | 00:00:00 | 01:30:21 | 00:00:00 | |
| OM5KV | 2026-09-06 03:19:16 | 47.75497 | 15.16616 | 106° | 5km/h | 20386m | 5.8m/s | -54.7°C | 1.5% | 0hPa | 2.7V | 00:00:00 | 00:00:00 | 00:00:00 | |
| OE5MMP-10 | 2026-09-06 03:19:14 | 47.75493 | 15.16614 | 3° | 9km/h | 20369m | 6.0m/s | -54.5°C | 4.5% | 0hPa | 2.7V | 00:00:00 | 01:30:18 | 00:00:00 | |
| DB0NH | 2026-09-06 03:19:13 | 47.75490 | 15.16614 | 354° | 11km/h | 20364m | 3.9m/s | 0°C | 0% | 0hPa | 2.7V | 00:00:00 | 01:30:17 | 00:00:00 | |
| OM5KV | 2026-09-06 03:19:11 | 47.75486 | 15.16615 | 347° | 13km/h | 20359m | 6.1m/s | -54.4°C | 1.5% | 0hPa | 2.7V | 00:00:00 | 00:00:00 | 00:00:00 | |
| OE3MUC-15 | 2026-09-06 03:19:10 | 47.75482 | 15.16617 | 336° | 5km/h | 20348m | 6.1m/s | -54.3°C | 4.4% | 0hPa | 2.7V | 00:00:00 | 00:00:00 | 00:00:00 | |
| PG1ADW-2 | 2026-09-06 03:19:08 | 47.75479 | 15.16617 | 63° | 9km/h | 20334m | 5.0m/s | -54.2°C | 4.4% | 0hPa | 2.7V | 00:00:00 | 00:00:00 | 00:00:00 | |
| OE8JPQ-2 | 2026-09-06 03:19:07 | 47.75480 | 15.16616 | 118° | 9km/h | 20327m | 7.9m/s | -54.1°C | 4.3% | 0hPa | 2.7V | 00:00:00 | 00:00:00 | 00:00:00 | |
| OE5WHR-10 | 2026-09-06 03:19:06 | 47.75480 | 15.16614 | 129° | 7km/h | 20320m | 5.1m/s | -54.1°C | 4.3% | 0hPa | 2.7V | 00:00:00 | 00:00:00 | 00:00:00 | |
| OE5DXL-15 | 2026-09-06 03:19:05 | 47.75482 | 15.16610 | 128° | 9km/h | 20315m | 6.0m/s | -54.0°C | 4.3% | 0hPa | 2.7V | 00:00:00 | 00:00:00 | 00:00:00 | |
| DO3MHA-12 | 2026-09-06 03:19:04 | 47.75484 | 15.16608 | 113° | 5km/h | 20309m | 6.6m/s | -54.0°C | 4.3% | 0hPa | 2.6V | 00:00:00 | 01:30:08 | 00:00:00 | |
| PETON7-10 | 2026-09-06 03:19:02 | 47.75484 | 15.16603 | 99° | 9km/h | 20297m | 6.8m/s | -53.9°C | 4.2% | 0hPa | 2.6V | 00:00:00 | 00:00:00 | 00:00:00 | |
| OE3MUC-15 | 2026-09-06 03:18:58 | 47.75480 | 15.16603 | 15° | 7km/h | 20275m | 4.7m/s | -53.7°C | 4.2% | 0hPa | 2.7V | 00:00:00 | 00:00:00 | 00:00:00 | |
| DO3MHA-12 | 2026-09-06 03:18:54 | 47.75477 | 15.16592 | 91° | 9km/h | 20251m | 5.6m/s | -53.5°C | 4.2% | 0hPa | 2.7V | 00:00:00 | 01:29:58 | 08:30:00 | |
| OM5KV | 2026-09-06 03:18:53 | 47.75476 | 15.16592 | 92° | 15km/h | 20251m | 5.7m/s | -53.6°C | 1.4% | 0hPa | 2.6V | 00:00:00 | 00:00:00 | 00:00:00 | |
| S52SK | 2026-09-06 03:18:52 | 47.75477 | 15.16587 | 108° | 16km/h | 20245m | 5.3m/s | -53.6°C | 0% | 0hPa | 2.6V | 00:00:00 | 00:00:00 | 00:00:00 | |
| OE3JTB-15 | 2026-09-06 03:18:50 | 47.75483 | 15.16574 | 145° | 15km/h | 20228m | 4.3m/s | -53.5°C | 4.2% | 0hPa | 2.6V | 00:00:00 | 00:00:00 | 08:30:00 | |
| PG1ADW-2 | 2026-09-06 03:18:48 | 47.75485 | 15.16571 | 161° | 13km/h | 20216m | 5.9m/s | -53.5°C | 4.2% | 0hPa | 2.7V | 00:00:00 | 01:29:52 | 00:00:00 | |
| OE8JPQ-2 | 2026-09-06 03:18:47 | 47.75486 | 15.16571 | 275° | 13km/h | 20210m | 5.4m/s | -53.5°C | 4.2% | 0hPa | 2.6V | 00:00:00 | 01:29:51 | 00:00:00 | |
| OE5WHR-10 | 2026-09-06 03:18:45 | 47.75486 | 15.16571 | 146° | 15km/h | 20198m | 5.0m/s | -53.5°C | 4.1% | 0hPa | 2.6V | 00:00:00 | 01:29:49 | 00:00:00 | |
| OE5MMP-10 | 2026-09-06 03:18:44 | 47.75487 | 15.16569 | 115° | 13km/h | 20192m | 5.8m/s | -53.4°C | 4.1% | 0hPa | 2.6V | 00:00:00 | 01:29:48 | 00:00:00 | |
| OM5KV | 2026-09-06 03:18:42 | 47.75487 | 15.16564 | 88° | 11km/h | 20178m | 5.7m/s | -53.4°C | 1.4% | 0hPa | 2.6V | 00:00:00 | 00:00:00 | 00:00:00 | |
| OE3MUC-15 | 2026-09-06 03:18:38 | 47.75495 | 15.16547 | 139° | 16km/h | 20153m | 6.9m/s | -53.3°C | 4.1% | 0hPa | 2.6V | 00:00:00 | 00:00:00 | 08:30:00 | |
| OM5KV | 2026-09-06 03:18:36 | 47.75498 | 15.16542 | 131° | 16km/h | 20146m | 6.2m/s | -53.3°C | 1.4% | 0hPa | 2.6V | 00:00:00 | 00:00:00 | 00:00:00 | |
| OE5DXL-15 | 2026-09-06 03:18:35 | 47.75504 | 15.16535 | 158° | 18km/h | 20135m | 6.8m/s | -53.2°C | 4.0% | 0hPa | 2.6V | 00:00:00 | 00:00:00 | 00:00:00 | |
| OE5MMP-10 | 2026-09-06 03:18:34 | 47.75509 | 15.16532 | 161° | 18km/h | 20129m | 4.4m/s | -53.1°C | 3.9% | 0hPa | 2.6V | 00:00:00 | 01:29:38 | 00:00:00 | |
| OE3OSB-13 | 2026-09-06 03:18:33 | 47.75513 | 15.16530 | 154° | 16km/h | 20123m | 6.5m/s | -53.2°C | 1.2% | -1.0hPa | 2.6V | 00:00:00 | 00:00:00 | 00:00:00 | |
| OE5FHM-15 | 2026-09-06 03:18:32 | 47.75516 | 15.16527 | 153° | 20km/h | 20117m | 5.5m/s | -53.1°C | 3.9% | 0hPa | 2.6V | 00:00:00 | 01:29:36 | 08:30:00 | |
| OE3MUC-15 | 2026-09-06 03:18:30 | 47.75523 | 15.16521 | 144° | 18km/h | 20107m | 6.0m/s | -53.1°C | 3.9% | 0hPa | 2.6V | 00:00:00 | 00:00:00 | 00:00:00 | |
| PG1ADW-2 | 2026-09-06 03:18:28 | 47.75530 | 15.16512 | 135° | 18km/h | 20095m | 6.6m/s | -53.1°C | 3.8% | 0hPa | 2.6V | 00:00:00 | 00:00:00 | 00:00:00 | |
| OE8JPQ-2 | 2026-09-06 03:18:27 | 47.75533 | 15.16507 | 125° | 18km/h | 20090m | 4.2m/s | -53.0°C | 3.9% | 0hPa | 2.6V | 00:00:00 | 00:00:00 | 00:00:00 | |
| OE3MUC-15 | 2026-09-06 03:18:26 | 47.75536 | 15.16501 | 136° | 20km/h | 20084m | 6.1m/s | -53.0°C | 3.8% | 0hPa | 2.6V | 00:00:00 | 01:29:30 | 00:00:00 | |
| OE5MMP-10 | 2026-09-06 03:18:24 | 47.75545 | 15.16492 | 146° | 18km/h | 20074m | 4.5m/s | -53.1°C | 3.9% | 0hPa | 2.6V | 00:00:00 | 01:29:28 | 00:00:00 | |
| OM5KV | 2026-09-06 03:18:23 | 47.75545 | 15.16492 | 147° | 22km/h | 20074m | 4.6m/s | -53.2°C | 1.3% | 0hPa | 2.6V | 00:00:00 | 00:00:00 | 00:00:00 | |
| OE3MUC-15 | 2026-09-06 03:18:22 | 47.75553 | 15.16484 | 152° | 20km/h | 20063m | 4.2m/s | -53.3°C | 3.9% | 0hPa | 2.6V | 00:00:00 | 00:00:00 | 00:00:00 | |
| OE3JTB-15 | 2026-09-06 03:18:21 | 47.75558 | 15.16480 | 149° | 22km/h | 20058m | 6.0m/s | -53.5°C | 4.0% | 0hPa | 2.6V | 00:00:00 | 00:00:00 | 00:00:00 | |
| OE3MUC-15 | 2026-09-06 03:18:18 | 47.75571 | 15.16471 | 157° | 15km/h | 20044m | 5.8m/s | -54.1°C | 4.2% | 0hPa | 2.6V | 00:00:00 | 00:00:00 | 00:00:00 | |
| PETON7-10 | 2026-09-06 03:18:17 | 47.75575 | 15.16468 | 153° | 20km/h | 20038m | 5.1m/s | -54.2°C | 4.2% | 0hPa | 2.6V | 00:00:00 | 00:00:00 | 08:30:00 | |
| DO3MHA-12 | 2026-09-06 03:18:14 | 47.75586 | 15.16466 | 179° | 20km/h | 20021m | 3.7m/s | -54.6°C | 4.3% | 0hPa | 2.6V | 00:00:00 | 01:29:18 | 00:00:00 | |
| OM5KV | 2026-09-06 03:18:12 | 47.75590 | 15.16466 | 174° | 15km/h | 20017m | 5.6m/s | -54.7°C | 1.5% | 0hPa | 2.6V | 00:00:00 | 00:00:00 | 00:00:00 | |
| OM5KV | 2026-09-06 03:18:11 | 47.75593 | 15.16465 | 171° | 13km/h | 20011m | 5.3m/s | -54.7°C | 1.5% | 0hPa | 2.6V | 00:00:00 | 00:00:00 | 00:00:00 | |
| OE3MUC-15 | 2026-09-06 03:18:10 | 47.75601 | 15.16460 | 154° | 24km/h | 20001m | 6.5m/s | -54.7°C | 4.4% | 0hPa | 2.6V | 00:00:00 | 00:00:00 | 00:00:00 | |
| PG1ADW-2 | 2026-09-06 03:18:08 | 47.75610 | 15.16451 | 135° | 26km/h | 19989m | 6.8m/s | -54.6°C | 4.4% | 0hPa | 2.6V | 00:00:00 | 00:00:00 | 00:00:00 | |
| OE8JPQ-2 | 2026-09-06 03:18:07 | 47.75614 | 15.16444 | 128° | 26km/h | 19983m | 4.7m/s | -54.5°C | 4.4% | 0hPa | 2.6V | 00:00:00 | 00:00:00 | 00:00:00 | |
| OE3MUC-15 | 2026-09-06 03:18:06 | 47.75618 | 15.16436 | 129° | 29km/h | 19978m | 4.6m/s | -54.5°C | 4.4% | 0hPa | 2.6V | 00:00:00 | 00:00:00 | 00:00:00 | |
| OE5DXL-15 | 2026-09-06 03:18:05 | 47.75623 | 15.16429 | 138° | 29km/h | 19973m | 6.7m/s | -54.4°C | 4.4% | 0hPa | 2.6V | 00:00:00 | 00:00:00 | 00:00:00 | |
| DO3MHA-12 | 2026-09-06 03:18:04 | 47.75629 | 15.16421 | 145° | 26km/h | 19967m | 5.1m/s | -54.4°C | 4.4% | 0hPa | 2.6V | 00:00:00 | 01:29:08 | 00:00:00 | |
| OE5WHR-10 | 2026-09-06 03:18:03 | 47.75635 | 15.16415 | 144° | 27km/h | 19961m | 5.9m/s | -54.3°C | 4.3% | 0hPa | 2.6V | 00:00:00 | 00:00:00 | 00:00:00 | |
| OE5FHM-15 | 2026-09-06 03:18:02 | 47.75641 | 15.16409 | 149° | 29km/h | 19956m | 5.4m/s | -54.3°C | 4.3% | 0hPa | 2.6V | 00:00:00 | 01:29:06 | 00:00:00 | |
| OE3MUC-15 | 2026-09-06 03:17:58 | 47.75665 | 15.16392 | 152° | 24km/h | 19934m | 5.9m/s | -54.2°C | 4.3% | 0hPa | 2.6V | 00:00:00 | 00:00:00 | 00:00:00 | |
| OM5KV | 2026-09-06 03:17:55 | 47.75675 | 15.16384 | 150° | 22km/h | 19922m | 5.3m/s | -54.2°C | 1.4% | 0hPa | 2.6V | 00:00:00 | 00:00:00 | 00:00:00 | |
| DO3MHA-12 | 2026-09-06 03:17:54 | 47.75686 | 15.16375 | 149° | 29km/h | 19910m | 4.2m/s | -54.0°C | 4.2% | 0hPa | 2.6V | 00:00:00 | 01:28:58 | 00:00:00 | |
| OE3JTB-15 | 2026-09-06 03:17:52 | 47.75697 | 15.16364 | 148° | 31km/h | 19901m | 4.8m/s | -54.0°C | 4.2% | 0hPa | 2.7V | 00:00:00 | 01:28:56 | 00:00:00 | |
| OE3MUC-15 | 2026-09-06 03:17:50 | 47.75708 | 15.16356 | 162° | 29km/h | 19891m | 6.4m/s | -53.9°C | 4.2% | 0hPa | 2.7V | 00:00:00 | 00:00:00 | 00:00:00 | |
| OM5KV | 2026-09-06 03:17:49 | 47.75708 | 15.16356 | 163° | 27km/h | 19891m | 6.5m/s | -54.0°C | 1.4% | 0hPa | 2.6V | 00:00:00 | 00:00:00 | 00:00:00 | |
| PG1ADW-2 | 2026-09-06 03:17:48 | 47.75722 | 15.16350 | 163° | 31km/h | 19879m | 5.1m/s | -54.0°C | 4.1% | 0hPa | 2.6V | 00:00:00 | 00:00:00 | 00:00:00 | |
| PETON7-10 | 2026-09-06 03:17:47 | 47.75729 | 15.16347 | 160° | 31km/h | 19874m | 5.8m/s | -54.1°C | 4.2% | 0hPa | 2.6V | 00:00:00 | 01:28:51 | 00:00:00 | |
| OE3MUC-15 | 2026-09-06 03:17:46 | 47.75736 | 15.16343 | 161° | 35km/h | 19868m | 4.3m/s | -54.1°C | 4.2% | 0hPa | 2.6V | 00:00:00 | 00:00:00 | 00:00:00 | |
| DO3MHA-12 | 2026-09-06 03:17:45 | 47.75753 | 15.16334 | 160° | 33km/h | 19856m | 5.2m/s | -54.1°C | 4.3% | 0hPa | 2.6V | 00:00:00 | 01:28:48 | 00:00:00 | |
| OE5MMP-10 | 2026-09-06 03:17:44 | 47.75753 | 15.16334 | 160° | 33km/h | 19856m | 5.2m/s | -54.1°C | 4.3% | 0hPa | 2.6V | 00:00:00 | 01:28:48 | 00:00:00 | |
| OE3MUC-15 | 2026-09-06 03:17:42 | 47.75768 | 15.16323 | 149° | 33km/h | 19844m | 5.0m/s | -54.1°C | 4.3% | 0hPa | 2.6V | 00:00:00 | 00:00:00 | 00:00:00 | |
| OM5KV | 2026-09-06 03:17:39 | 47.75782 | 15.16311 | 150° | 33km/h | 19834m | 6.9m/s | -54.1°C | 1.4% | 0hPa | 2.6V | 00:00:00 | 00:00:00 | 00:00:00 | |
| OM5KV | 2026-09-06 03:17:36 | 47.75802 | 15.16292 | 149° | 29km/h | 19817m | 6.9m/s | -54.1°C | 1.5% | 0hPa | 2.6V | 00:00:00 | 00:00:00 | 00:00:00 | |
| OE5DXL-15 | 2026-09-06 03:17:35 | 47.75815 | 15.16280 | 147° | 33km/h | 19805m | 5.7m/s | -54.0°C | 4.3% | 0hPa | 2.6V | 00:00:00 | 00:00:00 | 00:00:00 | |
| DO3MHA-12 | 2026-09-06 03:17:34 | 47.75821 | 15.16274 | 154° | 31km/h | 19800m | 5.4m/s | -54.0°C | 4.3% | 0hPa | 2.7V | 00:00:00 | 01:28:38 | 00:00:00 | |
| OE5FHM-15 | 2026-09-06 03:17:32 | 47.75835 | 15.16264 | 148° | 33km/h | 19790m | 5.7m/s | -54.0°C | 4.2% | 0hPa | 2.7V | 00:00:00 | 01:28:36 | 00:00:00 | |
| OE3OSB-13 | 2026-09-06 03:17:31 | 47.75841 | 15.16258 | 146° | 29km/h | 19785m | 4.6m/s | -54.0°C | 1.3% | -1.0hPa | 2.7V | 00:00:00 | 00:00:00 | 00:00:00 | |
| OM5KV | 2026-09-06 03:17:29 | 47.75847 | 15.16252 | 152° | 29km/h | 19780m | 5.4m/s | -54.0°C | 1.5% | 0hPa | 2.7V | 00:00:00 | 00:00:00 | 00:00:00 | |
| PG1ADW-2 | 2026-09-06 03:17:28 | 47.75862 | 15.16241 | 152° | 33km/h | 19770m | 4.3m/s | -53.9°C | 4.2% | 0hPa | 2.7V | 00:00:00 | 01:28:32 | 00:00:00 | |
| OE8JPQ-2 | 2026-09-06 03:17:27 | 47.75869 | 15.16235 | 149° | 33km/h | 19765m | 5.7m/s | -53.9°C | 4.2% | 0hPa | 2.7V | 00:00:00 | 00:00:00 | 00:00:00 | |
| DO3MHA-12 | 2026-09-06 03:17:24 | 47.75888 | 15.16212 | 139° | 35km/h | 19749m | 6.6m/s | -53.9°C | 4.2% | 0hPa | 2.6V | 00:00:00 | 01:28:28 | 08:30:00 | |
| OE3JTB-15 | 2026-09-06 03:17:23 | 47.75895 | 15.16204 | 143° | 35km/h | 19743m | 5.2m/s | -53.9°C | 4.2% | 0hPa | 2.6V | 00:00:00 | 00:00:00 | 00:00:00 | |
| S52SK | 2026-09-06 03:17:22 | 47.75895 | 15.16204 | 144° | 37km/h | 19743m | 5.2m/s | -53.9°C | 0% | 0hPa | 2.7V | 00:00:00 | 00:00:00 | 00:00:00 | |
| OE5WHR-10 | 2026-09-06 03:17:21 | 47.75909 | 15.16185 | 134° | 33km/h | 19732m | 6.1m/s | -53.9°C | 4.3% | 0hPa | 2.7V | 00:00:00 | 00:00:00 | 00:00:00 | |
| OE3MUC-15 | 2026-09-06 03:17:18 | 47.75929 | 15.16158 | 139° | 31km/h | 19715m | 5.2m/s | -53.9°C | 4.3% | 0hPa | 2.7V | 00:00:00 | 00:00:00 | 00:00:00 | |
| OM5KV | 2026-09-06 03:17:17 | 47.75935 | 15.16149 | 139° | 31km/h | 19710m | 5.1m/s | -54.0°C | 1.4% | 0hPa | 2.7V | 00:00:00 | 00:00:00 | 00:00:00 | |
| S52SK | 2026-09-06 03:17:16 | 47.75935 | 15.16149 | 139° | 31km/h | 19710m | 5.1m/s | -54.0°C | 0% | 0hPa | 2.7V | 00:00:00 | 00:00:00 | 00:00:00 | |
| OE5MMP-10 | 2026-09-06 03:17:14 | 47.75951 | 15.16124 | 133° | 33km/h | 19694m | 5.7m/s | -53.9°C | 4.3% | 0hPa | 2.7V | 00:00:00 | 01:28:18 | 00:00:00 | |
| OM5KV | 2026-09-06 03:17:13 | 47.75951 | 15.16124 | 134° | 27km/h | 19694m | 5.8m/s | -54.0°C | 1.5% | 0hPa | 2.7V | 00:00:00 | 00:00:00 | 00:00:00 | |
| OE3MUC-15 | 2026-09-06 03:17:10 | 47.75971 | 15.16088 | 127° | 35km/h | 19672m | 4.1m/s | -54.0°C | 4.3% | 0hPa | 2.7V | 00:00:00 | 00:00:00 | 00:00:00 | |
| OM5KV | 2026-09-06 03:17:09 | 47.75971 | 15.16088 | 128° | 35km/h | 19672m | 4.2m/s | -54.0°C | 1.5% | 0hPa | 2.7V | 00:00:00 | 00:00:00 | 00:00:00 | |
| PG1ADW-2 | 2026-09-06 03:17:08 | 47.75982 | 15.16067 | 133° | 35km/h | 19661m | 4.9m/s | -53.9°C | 4.3% | 0hPa | 2.7V | 00:00:00 | 00:00:00 | 00:00:00 | |
| OE8JPQ-2 | 2026-09-06 03:17:07 | 47.75988 | 15.16058 | 137° | 35km/h | 19657m | 4.7m/s | -53.9°C | 4.3% | 0hPa | 2.7V | 00:00:00 | 00:00:00 | 00:00:00 | |
| OE3MUC-15 | 2026-09-06 03:17:06 | 47.75994 | 15.16049 | 135° | 29km/h | 19651m | 6.5m/s | -53.8°C | 4.3% | 0hPa | 2.7V | 00:00:00 | 00:00:00 | 00:00:00 | |
| OE5DXL-15 | 2026-09-06 03:17:05 | 47.75999 | 15.16041 | 129° | 37km/h | 19645m | 4.9m/s | -53.8°C | 4.2% | 0hPa | 2.7V | 00:00:00 | 00:00:00 | 00:00:00 | |
| OE5MMP-10 | 2026-09-06 03:17:04 | 47.76004 | 15.16033 | 135° | 37km/h | 19640m | 4.8m/s | -53.7°C | 4.2% | 0hPa | 2.7V | 00:00:00 | 01:28:08 | 00:00:00 | |
| OE5WHR-10 | 2026-09-06 03:17:00 | 47.76028 | 15.15999 | 135° | 37km/h | 19617m | 4.9m/s | -53.5°C | 4.1% | 0hPa | 2.6V | 00:00:00 | 00:00:00 | 00:00:00 | |
| OE3MUC-15 | 2026-09-06 03:16:58 | 47.76043 | 15.15978 | 139° | 42km/h | 19606m | 5.0m/s | -53.4°C | 4.1% | 0hPa | 2.6V | 00:00:00 | 00:00:00 | 00:00:00 | |
| OM5KV | 2026-09-06 03:16:57 | 47.76043 | 15.15978 | 140° | 44km/h | 19606m | 5.0m/s | -53.5°C | 1.4% | 0hPa | 2.6V | 00:00:00 | 00:00:00 | 00:00:00 | |
| OM5KV | 2026-09-06 03:16:56 | 47.76051 | 15.15968 | 139° | 42km/h | 19601m | 4.7m/s | -53.5°C | 1.4% | 0hPa | 2.6V | 00:00:00 | 00:00:00 | 00:00:00 | |
| DO3MHA-12 | 2026-09-06 03:16:54 | 47.76072 | 15.15936 | 135° | 31km/h | 19583m | 6.8m/s | -53.4°C | 4.1% | 0hPa | 2.6V | 00:00:00 | 01:27:58 | 00:00:00 | |
| OM5KV | 2026-09-06 03:16:51 | 47.76084 | 15.15918 | 131° | 29km/h | 19573m | 5.4m/s | -53.4°C | 1.4% | 0hPa | 2.6V | 00:00:00 | 00:00:00 | 00:00:00 | |
| OE3MUC-15 | 2026-09-06 03:16:50 | 47.76092 | 15.15901 | 127° | 31km/h | 19562m | 4.4m/s | -53.3°C | 4.0% | 0hPa | 2.6V | 00:00:00 | 00:00:00 | 08:30:00 | |
| PG1ADW-2 | 2026-09-06 03:16:48 | 47.76103 | 15.15885 | 135° | 38km/h | 19551m | 3.9m/s | -53.3°C | 4.0% | 0hPa | 2.7V | 00:00:00 | 00:00:00 | 08:30:00 | |
| OE8JPQ-2 | 2026-09-06 03:16:47 | 47.76108 | 15.15877 | 135° | 38km/h | 19546m | 5.6m/s | -53.4°C | 4.0% | 0hPa | 2.6V | 00:00:00 | 01:27:51 | 00:00:00 | |
| OE3MUC-15 | 2026-09-06 03:16:46 | 47.76114 | 15.15868 | 133° | 38km/h | 19541m | 5.0m/s | -53.4°C | 4.0% | 0hPa | 2.6V | 00:00:00 | 00:00:00 | 00:00:00 | |
| OE5DRO-10 | 2026-09-06 03:16:45 | 47.76121 | 15.15858 | 139° | 40km/h | 19536m | 4.5m/s | -53.5°C | 4.0% | 0hPa | 2.6V | 00:00:00 | 00:00:00 | 00:00:00 | |
| OE5MMP-10 | 2026-09-06 03:16:44 | 47.76128 | 15.15849 | 141° | 40km/h | 19531m | 6.0m/s | -53.5°C | 4.0% | 0hPa | 2.6V | 00:00:00 | 01:27:48 | 00:00:00 | |
| OE3MUC-15 | 2026-09-06 03:16:42 | 47.76144 | 15.15831 | 145° | 40km/h | 19519m | 5.8m/s | -53.6°C | 4.0% | 0hPa | 2.6V | 00:00:00 | 00:00:00 | 00:00:00 | |
| OE5WHR-10 | 2026-09-06 03:16:39 | 47.76169 | 15.15803 | 140° | 42km/h | 19503m | 5.6m/s | -53.8°C | 4.0% | 0hPa | 2.6V | 00:00:00 | 01:27:43 | 00:00:00 | |
| OE3MUC-15 | 2026-09-06 03:16:38 | 47.76177 | 15.15792 | 137° | 38km/h | 19497m | 4.8m/s | -53.8°C | 4.0% | 0hPa | 2.6V | 00:00:00 | 00:00:00 | 00:00:00 | |
| OE5DXL-15 | 2026-09-06 03:16:35 | 47.76195 | 15.15759 | 124° | 46km/h | 19480m | 6.1m/s | -53.8°C | 4.0% | 0hPa | 2.6V | 00:00:00 | 00:00:00 | 00:00:00 | |
| OE3MUC-15 | 2026-09-06 03:16:34 | 47.76200 | 15.15747 | 126° | 37km/h | 19475m | 4.2m/s | -53.9°C | 4.0% | 0hPa | 2.6V | 00:00:00 | 00:00:00 | 00:00:00 | |
| PETON7-10 | 2026-09-06 03:16:32 | 47.76210 | 15.15725 | 124° | 46km/h | 19465m | 5.7m/s | -54.0°C | 4.0% | 0hPa | 2.6V | 00:00:00 | 00:00:00 | 00:00:00 | |
| OE3MUC-15 | 2026-09-06 03:16:30 | 47.76223 | 15.15702 | 133° | 40km/h | 19454m | 7.1m/s | -54.3°C | 4.1% | 0hPa | 2.6V | 00:00:00 | 00:00:00 | 00:00:00 | |
| OE3OSB-13 | 2026-09-06 03:16:29 | 47.76230 | 15.15691 | 135° | 40km/h | 19447m | 4.6m/s | -54.5°C | 1.3% | -1.0hPa | 2.6V | 00:00:00 | 00:00:00 | 00:00:00 | |
| PG1ADW-2 | 2026-09-06 03:16:28 | 47.76238 | 15.15680 | 138° | 47km/h | 19443m | 5.4m/s | -54.4°C | 4.1% | 0hPa | 2.6V | 00:00:00 | 00:00:00 | 00:00:00 | |
| OE8JPQ-2 | 2026-09-06 03:16:27 | 47.76245 | 15.15670 | 139° | 49km/h | 19437m | 5.8m/s | -54.4°C | 4.1% | 0hPa | 2.6V | 00:00:00 | 00:00:00 | 08:30:00 | |
| OE3MUC-15 | 2026-09-06 03:16:26 | 47.76253 | 15.15660 | 140° | 46km/h | 19432m | 4.5m/s | -54.5°C | 4.1% | 0hPa | 2.6V | 00:00:00 | 00:00:00 | 00:00:00 | |
| OE3JTB-15 | 2026-09-06 03:16:25 | 47.76262 | 15.15650 | 146° | 49km/h | 19427m | 5.2m/s | -54.6°C | 4.1% | 0hPa | 2.7V | 00:00:00 | 01:27:29 | 00:00:00 | |
| DO3MHA-12 | 2026-09-06 03:16:24 | 47.76271 | 15.15640 | 146° | 49km/h | 19421m | 6.0m/s | -54.7°C | 4.2% | 0hPa | 2.7V | 00:00:00 | 01:27:28 | 00:00:00 | |
| OM5KV | 2026-09-06 03:16:23 | 47.76271 | 15.15640 | 147° | 47km/h | 19421m | 6.1m/s | -54.7°C | 1.5% | 0hPa | 2.6V | 00:00:00 | 00:00:00 | 00:00:00 | |
| OE3MUC-15 | 2026-09-06 03:16:22 | 47.76291 | 15.15618 | 140° | 51km/h | 19410m | 6.1m/s | -54.9°C | 4.3% | 0hPa | 2.6V | 00:00:00 | 00:00:00 | 00:00:00 | |
| OE3MUC-15 | 2026-09-06 03:16:18 | 47.76329 | 15.15567 | 140° | 49km/h | 19389m | 4.3m/s | -55.2°C | 4.4% | 0hPa | 2.6V | 00:00:00 | 00:00:00 | 00:00:00 | |
| PETON7-10 | 2026-09-06 03:16:17 | 47.76339 | 15.15554 | 138° | 49km/h | 19383m | 6.4m/s | -55.2°C | 4.4% | 0hPa | 2.6V | 00:00:00 | 01:27:21 | 00:00:00 | |
| OM5KV | 2026-09-06 03:16:16 | 47.76339 | 15.15554 | 138° | 51km/h | 19383m | 6.4m/s | -55.3°C | 1.5% | 0hPa | 2.6V | 00:00:00 | 00:00:00 | 00:00:00 | |
| DO3MHA-12 | 2026-09-06 03:16:14 | 47.76365 | 15.15519 | 141° | 51km/h | 19367m | 5.8m/s | -55.3°C | 4.3% | 0hPa | 2.6V | 00:00:00 | 01:27:18 | 00:00:00 | |
| OM5KV | 2026-09-06 03:16:11 | 47.76384 | 15.15494 | 134° | 49km/h | 19357m | 5.8m/s | -55.4°C | 1.5% | 0hPa | 2.6V | 00:00:00 | 00:00:00 | 00:00:00 | |
| OE3MUC-15 | 2026-09-06 03:16:10 | 47.76399 | 15.15465 | 124° | 51km/h | 19346m | 4.7m/s | -55.4°C | 4.3% | 0hPa | 2.6V | 00:00:00 | 00:00:00 | 00:00:00 | |
| PG1ADW-2 | 2026-09-06 03:16:08 | 47.76413 | 15.15434 | 128° | 49km/h | 19335m | 5.4m/s | -55.6°C | 4.4% | 0hPa | 2.6V | 00:00:00 | 01:27:12 | 00:00:00 | |
| OE8JPQ-2 | 2026-09-06 03:16:07 | 47.76421 | 15.15419 | 128° | 51km/h | 19329m | 5.3m/s | -55.8°C | 4.4% | 0hPa | 2.6V | 00:00:00 | 00:00:00 | 00:00:00 | |
| OE3MUC-15 | 2026-09-06 03:16:06 | 47.76429 | 15.15403 | 126° | 51km/h | 19323m | 5.6m/s | -55.9°C | 4.5% | 0hPa | 2.6V | 00:00:00 | 00:00:00 | 00:00:00 | |
| OE5DXL-15 | 2026-09-06 03:16:05 | 47.76437 | 15.15388 | 128° | 57km/h | 19318m | 5.2m/s | -55.9°C | 4.5% | 0hPa | 2.6V | 00:00:00 | 00:00:00 | 08:30:00 | |
| OE5MMP-10 | 2026-09-06 03:16:04 | 47.76445 | 15.15373 | 132° | 47km/h | 19312m | 6.0m/s | -55.9°C | 4.5% | 0hPa | 2.6V | 00:00:00 | 01:27:08 | 08:30:00 | |
| OM5KV | 2026-09-06 03:16:03 | 47.76445 | 15.15373 | 133° | 51km/h | 19312m | 6.1m/s | -55.9°C | 1.6% | 0hPa | 2.7V | 00:00:00 | 00:00:00 | 00:00:00 | |
| OE5FHM-15 | 2026-09-06 03:16:02 | 47.76462 | 15.15347 | 136° | 57km/h | 19301m | 6.0m/s | -56.0°C | 4.5% | 0hPa | 2.7V | 00:00:00 | 01:27:06 | 00:00:00 | |
| S52SK | 2026-09-06 03:16:01 | 47.76462 | 15.15347 | 137° | 47km/h | 19301m | 6.0m/s | -56.0°C | 0% | 0hPa | 2.7V | 00:00:00 | 00:00:00 | 00:00:00 | |
| OM5KV | 2026-09-06 03:16:00 | 47.76471 | 15.15334 | 138° | 47km/h | 19296m | 5.2m/s | -56.0°C | 1.6% | 0hPa | 2.7V | 00:00:00 | 00:00:00 | 00:00:00 | |
| OE3MUC-15 | 2026-09-06 03:15:58 | 47.76498 | 15.15301 | 142° | 47km/h | 19278m | 6.4m/s | -56.0°C | 4.5% | 0hPa | 2.7V | 00:00:00 | 00:00:00 | 00:00:00 | |
| OE5WHR-10 | 2026-09-06 03:15:57 | 47.76507 | 15.15289 | 137° | 58km/h | 19272m | 4.8m/s | -56.0°C | 4.5% | 0hPa | 2.7V | 00:00:00 | 00:00:00 | 00:00:00 | |
| OE3JTB-15 | 2026-09-06 03:15:56 | 47.76516 | 15.15277 | 137° | 60km/h | 19267m | 4.4m/s | -56.1°C | 4.5% | 0hPa | 2.7V | 00:00:00 | 00:00:00 | 00:00:00 | |
| OM5KV | 2026-09-06 03:15:55 | 47.76516 | 15.15277 | 137° | 49km/h | 19267m | 4.5m/s | -56.2°C | 1.6% | 0hPa | 2.6V | 00:00:00 | 00:00:00 | 00:00:00 | |
| DO3MHA-12 | 2026-09-06 03:15:54 | 47.76535 | 15.15252 | 140° | 57km/h | 19258m | 4.3m/s | -56.4°C | 4.6% | 0hPa | 2.6V | 00:00:00 | 01:26:58 | 08:30:00 | |
| OM5KV | 2026-09-06 03:15:52 | 47.76545 | 15.15239 | 140° | 51km/h | 19252m | 6.3m/s | -56.5°C | 1.6% | 0hPa | 2.7V | 00:00:00 | 00:00:00 | 00:00:00 | |
| OE3MUC-15 | 2026-09-06 03:15:50 | 47.76574 | 15.15201 | 143° | 57km/h | 19236m | 5.9m/s | -56.8°C | 4.7% | 0hPa | 2.7V | 00:00:00 | 00:00:00 | 00:00:00 | |
| OM5KV | 2026-09-06 03:15:49 | 47.76574 | 15.15201 | 144° | 53km/h | 19236m | 6.0m/s | -56.8°C | 1.6% | 0hPa | 2.6V | 00:00:00 | 00:00:00 | 00:00:00 | |
| PG1ADW-2 | 2026-09-06 03:15:48 | 47.76597 | 15.15176 | 145° | 64km/h | 19225m | 6.0m/s | -56.8°C | 4.8% | 0hPa | 2.6V | 00:00:00 | 00:00:00 | 00:00:00 | |
| PETON7-10 | 2026-09-06 03:15:47 | 47.76609 | 15.15164 | 145° | 64km/h | 19219m | 5.2m/s | -56.8°C | 4.8% | 0hPa | 2.7V | 00:00:00 | 00:00:00 | 00:00:00 | |
| OE3MUC-15 | 2026-09-06 03:15:46 | 47.76621 | 15.15151 | 144° | 64km/h | 19213m | 6.5m/s | -56.8°C | 4.8% | 0hPa | 2.7V | 00:00:00 | 00:00:00 | 00:00:00 | |
| OM5KV | 2026-09-06 03:15:45 | 47.76621 | 15.15151 | 144° | 62km/h | 19213m | 6.6m/s | -56.9°C | 1.7% | 0hPa | 2.7V | 00:00:00 | 00:00:00 | 00:00:00 | |
| DO3MHA-12 | 2026-09-06 03:15:44 | 47.76647 | 15.15121 | 142° | 66km/h | 19203m | 5.4m/s | -56.8°C | 4.8% | 0hPa | 2.7V | 00:00:00 | 01:26:48 | 00:00:00 | |
| OE3MUC-15 | 2026-09-06 03:15:42 | 47.76671 | 15.15090 | 139° | 68km/h | 19193m | 4.5m/s | -56.7°C | 4.8% | 0hPa | 2.7V | 00:00:00 | 00:00:00 | 00:00:00 | |
| OM5KV | 2026-09-06 03:15:39 | 47.76697 | 15.15058 | 141° | 68km/h | 19182m | 4.8m/s | -56.7°C | 1.7% | 0hPa | 2.7V | 00:00:00 | 00:00:00 | 00:00:00 | |
| OE5WHR-10 | 2026-09-06 03:15:36 | 47.76747 | 15.14992 | 140° | 68km/h | 19161m | 5.4m/s | -56.6°C | 4.7% | 0hPa | 2.7V | 00:00:00 | 01:26:40 | 00:00:00 | |
| OE5DXL-15 | 2026-09-06 03:15:35 | 47.76760 | 15.14977 | 143° | 68km/h | 19156m | 5.3m/s | -56.6°C | 4.7% | 0hPa | 2.7V | 00:00:00 | 01:26:39 | 00:00:00 | |
| DO3MHA-12 | 2026-09-06 03:15:34 | 47.76772 | 15.14962 | 140° | 68km/h | 19151m | 4.6m/s | -56.6°C | 4.7% | 0hPa | 2.7V | 00:00:00 | 01:26:38 | 00:00:00 | |
| OE5FHM-15 | 2026-09-06 03:15:32 | 47.76795 | 15.14932 | 139° | 68km/h | 19141m | 3.8m/s | -56.6°C | 4.8% | 0hPa | 2.7V | 00:00:00 | 01:26:36 | 00:00:00 | |
| OE5DRO-10 | 2026-09-06 03:15:29 | 47.76832 | 15.14883 | 136° | 69km/h | 19125m | 4.0m/s | -56.8°C | 4.8% | 0hPa | 2.6V | 00:00:00 | 00:00:00 | 08:30:00 | |
| PG1ADW-2 | 2026-09-06 03:15:28 | 47.76845 | 15.14864 | 134° | 69km/h | 19120m | 6.0m/s | -56.9°C | 4.9% | 0hPa | 2.6V | 00:00:00 | 00:00:00 | 00:00:00 | |
| OE3OSB-13 | 2026-09-06 03:15:27 | 47.76868 | 15.14826 | 132° | 68km/h | 19109m | 5.0m/s | -56.9°C | 1.6% | -1.0hPa | 2.6V | 00:00:00 | 00:00:00 | 00:00:00 | |
| OE5MMP-10 | 2026-09-06 03:15:24 | 47.76893 | 15.14788 | 135° | 69km/h | 19097m | 5.3m/s | -56.8°C | 4.9% | 0hPa | 2.6V | 00:00:00 | 01:26:28 | 00:00:00 | |
| DO3MHA-12 | 2026-09-06 03:15:23 | 47.76905 | 15.14768 | 133° | 69km/h | 19091m | 6.7m/s | -56.8°C | 4.9% | 0hPa | 2.6V | 00:00:00 | 01:26:27 | 00:00:00 | |
| OM5KV | 2026-09-06 03:15:21 | 47.76917 | 15.14749 | 134° | 68km/h | 19085m | 4.2m/s | -56.8°C | 1.7% | 0hPa | 2.6V | 00:00:00 | 00:00:00 | 00:00:00 | |
| OE3MUC-15 | 2026-09-06 03:15:18 | 47.76965 | 15.14676 | 135° | 68km/h | 19065m | 6.0m/s | -56.6°C | 4.8% | 0hPa | 2.6V | 00:00:00 | 00:00:00 | 00:00:00 | |
| PETON7-10 | 2026-09-06 03:15:17 | 47.76977 | 15.14658 | 132° | 68km/h | 19059m | 4.7m/s | -56.5°C | 4.9% | 0hPa | 2.6V | 00:00:00 | 00:00:00 | 00:00:00 | |
| OM5KV | 2026-09-06 03:15:16 | 47.76977 | 15.14658 | 132° | 66km/h | 19059m | 4.7m/s | -56.6°C | 1.7% | 0hPa | 2.7V | 00:00:00 | 00:00:00 | 00:00:00 | |
| OE5WHR-10 | 2026-09-06 03:15:15 | 47.76999 | 15.14618 | 129° | 68km/h | 19048m | 5.5m/s | -56.4°C | 4.8% | 0hPa | 2.7V | 00:00:00 | 00:00:00 | 08:30:00 | |
| OE5MMP-10 | 2026-09-06 03:15:14 | 47.77010 | 15.14597 | 128° | 68km/h | 19044m | 4.5m/s | -56.4°C | 4.8% | 0hPa | 2.7V | 00:00:00 | 01:26:18 | 00:00:00 | |
| DO3MHA-12 | 2026-09-06 03:15:13 | 47.77021 | 15.14576 | 129° | 68km/h | 19038m | 6.5m/s | -56.4°C | 4.8% | 0hPa | 2.7V | 00:00:00 | 01:26:17 | 00:00:00 | |
| OE3MUC-15 | 2026-09-06 03:15:10 | 47.77054 | 15.14514 | 129° | 68km/h | 19021m | 5.7m/s | -56.3°C | 4.7% | 0hPa | 2.7V | 00:00:00 | 00:00:00 | 00:00:00 | |
| PG1ADW-2 | 2026-09-06 03:15:08 | 47.77076 | 15.14473 | 130° | 64km/h | 19009m | 6.4m/s | -56.2°C | 4.8% | 0hPa | 2.7V | 00:00:00 | 00:00:00 | 00:00:00 | |
| OE8JPQ-2 | 2026-09-06 03:15:07 | 47.77087 | 15.14455 | 134° | 64km/h | 19004m | 3.4m/s | -56.2°C | 4.8% | 0hPa | 2.7V | 00:00:00 | 00:00:00 | 00:00:00 | |
| OE5MMP-10 | 2026-09-06 03:15:04 | 47.77122 | 15.14404 | 139° | 66km/h | 18988m | 4.8m/s | -56.1°C | 4.7% | 0hPa | 2.7V | 00:00:00 | 01:26:08 | 00:00:00 | |
| OE3MUC-15 | 2026-09-06 03:15:02 | 47.77148 | 15.14370 | 138° | 68km/h | 18976m | 4.9m/s | -56.0°C | 4.7% | 0hPa | 2.6V | 00:00:00 | 00:00:00 | 08:30:00 | |
| OM5KV | 2026-09-06 03:15:01 | 47.77148 | 15.14370 | 138° | 68km/h | 18976m | 4.9m/s | -56.0°C | 1.6% | 0hPa | 2.6V | 00:00:00 | 00:00:00 | 00:00:00 | |
| OE3OSB-13 | 2026-09-06 03:14:56 | 47.77231 | 15.14254 | 138° | 57km/h | 18938m | 5.8m/s | -55.9°C | 1.5% | -1.0hPa | 2.6V | 00:00:00 | 00:00:00 | 00:00:00 | |
| OE3MUC-15 | 2026-09-06 03:14:54 | 47.77242 | 15.14239 | 141° | 60km/h | 18933m | 5.2m/s | -55.8°C | 4.5% | 0hPa | 2.6V | 00:00:00 | 00:00:00 | 00:00:00 | |
| OM5KV | 2026-09-06 03:14:53 | 47.77242 | 15.14240 | 141° | 60km/h | 18933m | 5.3m/s | -55.9°C | 1.6% | 0hPa | 2.6V | 00:00:00 | 00:00:00 | 00:00:00 | |
| OE5DRO-10 | 2026-09-06 03:14:51 | 47.77278 | 15.14198 | 142° | 60km/h | 18916m | 4.8m/s | -55.9°C | 4.5% | 0hPa | 2.6V | 00:00:00 | 00:00:00 | 00:00:00 | |
| OE3MUC-15 | 2026-09-06 03:14:50 | 47.77290 | 15.14183 | 141° | 66km/h | 18910m | 5.5m/s | -55.9°C | 4.5% | 0hPa | 2.6V | 00:00:00 | 00:00:00 | 00:00:00 | |
| PG1ADW-2 | 2026-09-06 03:14:48 | 47.77316 | 15.14151 | 139° | 58km/h | 18900m | 6.5m/s | -55.8°C | 4.4% | 0hPa | 2.6V | 00:00:00 | 01:25:52 | 00:00:00 | |
| OE8JPQ-2 | 2026-09-06 03:14:47 | 47.77327 | 15.14135 | 139° | 58km/h | 18894m | 5.9m/s | -55.8°C | 4.4% | 0hPa | 2.6V | 00:00:00 | 01:25:51 | 00:00:00 | |
| OE3MUC-15 | 2026-09-06 03:14:46 | 47.77339 | 15.14119 | 136° | 58km/h | 18887m | 6.4m/s | -55.7°C | 4.4% | 0hPa | 2.6V | 00:00:00 | 00:00:00 | 00:00:00 | |
| DO3MHA-12 | 2026-09-06 03:14:45 | 47.77350 | 15.14102 | 135° | 58km/h | 18882m | 4.3m/s | -55.7°C | 4.4% | 0hPa | 2.6V | 00:00:00 | 01:25:49 | 00:00:00 | |
| OE5MMP-10 | 2026-09-06 03:14:44 | 47.77361 | 15.14087 | 138° | 58km/h | 18877m | 6.4m/s | -55.7°C | 4.3% | 0hPa | 2.7V | 00:00:00 | 01:25:48 | 00:00:00 | |
| OM5KV | 2026-09-06 03:14:43 | 47.77361 | 15.14087 | 138° | 57km/h | 18877m | 6.5m/s | -55.8°C | 1.5% | 0hPa | 2.7V | 00:00:00 | 00:00:00 | 00:00:00 | |
| OE3MUC-15 | 2026-09-06 03:14:42 | 47.77382 | 15.14059 | 138° | 57km/h | 18865m | 6.1m/s | -55.8°C | 4.4% | 0hPa | 2.7V | 00:00:00 | 00:00:00 | 00:00:00 | |
| OM5KV | 2026-09-06 03:14:36 | 47.77439 | 15.13991 | 143° | 62km/h | 18838m | 6.0m/s | -56.3°C | 1.6% | 0hPa | 2.7V | 00:00:00 | 00:00:00 | 00:00:00 | |
| DO3MHA-12 | 2026-09-06 03:14:35 | 47.77464 | 15.13961 | 141° | 55km/h | 18828m | 5.8m/s | -56.3°C | 4.5% | 0hPa | 2.7V | 00:00:00 | 01:25:39 | 00:00:00 | |
| OE5MMP-10 | 2026-09-06 03:14:34 | 47.77476 | 15.13946 | 142° | 55km/h | 18824m | 2.9m/s | -56.2°C | 4.4% | 0hPa | 2.7V | 00:00:00 | 01:25:38 | 08:30:00 | |
| OE5WHR-10 | 2026-09-06 03:14:33 | 47.77488 | 15.13933 | 142° | 57km/h | 18821m | 2.9m/s | -56.2°C | 4.4% | 0hPa | 2.7V | 00:00:00 | 01:25:37 | 00:00:00 | |
| OE5FHM-15 | 2026-09-06 03:14:32 | 47.77499 | 15.13919 | 140° | 62km/h | 18816m | 6.4m/s | -56.3°C | 4.3% | 0hPa | 2.7V | 00:00:00 | 01:25:36 | 00:00:00 | |
| OE3MUC-15 | 2026-09-06 03:14:30 | 47.77520 | 15.13891 | 138° | 51km/h | 18804m | 6.3m/s | -56.8°C | 4.5% | 0hPa | 2.7V | 00:00:00 | 00:00:00 | 00:00:00 | |
| OE3JTB-15 | 2026-09-06 03:14:29 | 47.77530 | 15.13878 | 142° | 64km/h | 18797m | 7.2m/s | -56.9°C | 4.5% | 0hPa | 2.7V | 00:00:00 | 00:00:00 | 08:30:00 | |
| PG1ADW-2 | 2026-09-06 03:14:28 | 47.77540 | 15.13866 | 144° | 60km/h | 18792m | 2.9m/s | -56.9°C | 4.5% | 0hPa | 2.6V | 00:00:00 | 00:00:00 | 00:00:00 | |
| OE8JPQ-2 | 2026-09-06 03:14:27 | 47.77550 | 15.13854 | 141° | 62km/h | 18788m | 5.5m/s | -56.9°C | 4.5% | 0hPa | 2.6V | 00:00:00 | 00:00:00 | 00:00:00 | |
| OE3MUC-15 | 2026-09-06 03:14:26 | 47.77560 | 15.13841 | 134° | 60km/h | 18781m | 8.2m/s | -56.9°C | 4.5% | 0hPa | 2.6V | 00:00:00 | 00:00:00 | 08:30:00 | |
| OE3OSB-13 | 2026-09-06 03:14:25 | 47.77578 | 15.13807 | 124° | 64km/h | 18767m | 7.0m/s | -57.1°C | 1.4% | -1.0hPa | 2.6V | 00:00:00 | 00:00:00 | 00:00:00 | |
| OE5MMP-10 | 2026-09-06 03:14:24 | 47.77578 | 15.13806 | 125° | 58km/h | 18768m | 6.9m/s | -57.0°C | 4.5% | 0hPa | 2.6V | 00:00:00 | 01:25:28 | 00:00:00 | |
| OE3MUC-15 | 2026-09-06 03:14:22 | 47.77597 | 15.13766 | 127° | 60km/h | 18755m | 4.6m/s | -57.2°C | 4.5% | 0hPa | 2.6V | 00:00:00 | 00:00:00 | 00:00:00 | |
| OM5KV | 2026-09-06 03:14:19 | 47.77615 | 15.13729 | 127° | 58km/h | 18743m | 6.6m/s | -57.4°C | 1.6% | 0hPa | 2.6V | 00:00:00 | 00:00:00 | 00:00:00 | |
| OE3MUC-15 | 2026-09-06 03:14:18 | 47.77633 | 15.13695 | 131° | 55km/h | 18731m | 7.3m/s | -57.6°C | 4.6% | 0hPa | 2.6V | 00:00:00 | 00:00:00 | 00:00:00 | |
| PETON7-10 | 2026-09-06 03:14:17 | 47.77642 | 15.13679 | 131° | 68km/h | 18725m | 4.2m/s | -57.7°C | 4.6% | 0hPa | 2.6V | 00:00:00 | 00:00:00 | 00:00:00 | |
| DO3MHA-12 | 2026-09-06 03:14:15 | 47.77660 | 15.13647 | 125° | 69km/h | 18714m | 5.3m/s | -58.1°C | 4.8% | 0hPa | 2.6V | 00:00:00 | 01:25:19 | 08:30:00 | |
| OE3MUC-15 | 2026-09-06 03:14:14 | 47.77668 | 15.13629 | 122° | 66km/h | 18709m | 4.4m/s | -58.4°C | 4.9% | 0hPa | 2.6V | 00:00:00 | 00:00:00 | 00:00:00 | |
| OE5DRO-10 | 2026-09-06 03:14:13 | 47.77675 | 15.13610 | 121° | 66km/h | 18703m | 7.0m/s | -58.9°C | 5.1% | 0hPa | 2.6V | 00:00:00 | 00:00:00 | 00:00:00 | |
| OE3MUC-15 | 2026-09-06 03:14:10 | 47.77699 | 15.13541 | 115° | 75km/h | 18682m | 8.0m/s | -59.3°C | 5.3% | 0hPa | 2.6V | 00:00:00 | 00:00:00 | 00:00:00 | |
| PG1ADW-2 | 2026-09-06 03:14:08 | 47.77714 | 15.13490 | 112° | 62km/h | 18669m | 7.7m/s | -59.5°C | 5.4% | 0hPa | 2.6V | 00:00:00 | 00:00:00 | 00:00:00 | |
| OE8JPQ-2 | 2026-09-06 03:14:07 | 47.77721 | 15.13463 | 112° | 60km/h | 18662m | 5.7m/s | -59.5°C | 5.5% | 0hPa | 2.6V | 00:00:00 | 00:00:00 | 00:00:00 | |
| OE3MUC-15 | 2026-09-06 03:14:06 | 47.77728 | 15.13436 | 110° | 71km/h | 18657m | 4.7m/s | -59.5°C | 5.5% | 0hPa | 2.6V | 00:00:00 | 00:00:00 | 00:00:00 | |
| OE5DXL-15 | 2026-09-06 03:14:05 | 47.77735 | 15.13408 | 110° | 55km/h | 18650m | 8.1m/s | -59.5°C | 5.4% | 0hPa | 2.6V | 00:00:00 | 00:00:00 | 00:00:00 | |
| OE5MMP-10 | 2026-09-06 03:14:04 | 47.77740 | 15.13382 | 105° | 60km/h | 18643m | 5.4m/s | -59.5°C | 5.6% | 0hPa | 2.6V | 00:00:00 | 01:25:08 | 00:00:00 | |
| OM5KV | 2026-09-06 03:14:03 | 47.77740 | 15.13382 | 106° | 69km/h | 18643m | 5.4m/s | -59.5°C | 2.0% | 0hPa | 2.6V | 00:00:00 | 00:00:00 | 00:00:00 | |
| OE5FHM-15 | 2026-09-06 03:14:02 | 47.77748 | 15.13334 | 104° | 53km/h | 18632m | 7.6m/s | -59.3°C | 5.4% | 0hPa | 2.6V | 00:00:00 | 01:25:06 | 08:30:00 | |
| OE3OSB-13 | 2026-09-06 03:13:54 | 47.77783 | 15.13147 | 101° | 55km/h | 18576m | 5.7m/s | -59.3°C | 1.7% | -1.0hPa | 2.7V | 00:00:00 | 00:00:00 | 00:00:00 | |
| OM5KV | 2026-09-06 03:13:52 | 47.77783 | 15.13147 | 102° | 55km/h | 18576m | 5.7m/s | -59.3°C | 1.9% | 0hPa | 2.7V | 00:00:00 | 00:00:00 | 00:00:00 | |
| OE5WHR-10 | 2026-09-06 03:13:51 | 47.77789 | 15.13106 | 104° | 49km/h | 18565m | 4.3m/s | -59.1°C | 5.4% | 0hPa | 2.7V | 00:00:00 | 00:00:00 | 00:00:00 | |
| OE3MUC-15 | 2026-09-06 03:13:50 | 47.77792 | 15.13086 | 103° | 47km/h | 18559m | 7.3m/s | -59.1°C | 5.3% | 0hPa | 2.7V | 00:00:00 | 00:00:00 | 08:30:00 | |
| PG1ADW-2 | 2026-09-06 03:13:48 | 47.77797 | 15.13051 | 104° | 49km/h | 18547m | 5.6m/s | -59.0°C | 5.3% | 0hPa | 2.6V | 00:00:00 | 00:00:00 | 08:30:00 | |
| PETON7-10 | 2026-09-06 03:13:47 | 47.77800 | 15.13035 | 107° | 49km/h | 18541m | 6.4m/s | -59.0°C | 5.4% | 0hPa | 2.6V | 00:00:00 | 00:00:00 | 08:30:00 | |
| OE3MUC-15 | 2026-09-06 03:13:46 | 47.77803 | 15.13019 | 106° | 47km/h | 18535m | 3.9m/s | -58.9°C | 5.4% | 0hPa | 2.6V | 00:00:00 | 00:00:00 | 00:00:00 | |
| DO3MHA-12 | 2026-09-06 03:13:45 | 47.77806 | 15.13002 | 104° | 51km/h | 18530m | 6.6m/s | -58.9°C | 5.4% | 0hPa | 2.6V | 00:00:00 | 01:24:49 | 00:00:00 | |
| OE5MMP-10 | 2026-09-06 03:13:44 | 47.77809 | 15.12985 | 104° | 51km/h | 18525m | 4.8m/s | -58.9°C | 5.3% | 0hPa | 2.6V | 00:00:00 | 01:24:48 | 00:00:00 | |
| OM5KV | 2026-09-06 03:13:40 | 47.77818 | 15.12930 | 102° | 53km/h | 18507m | 6.5m/s | -58.9°C | 1.9% | 0hPa | 2.6V | 00:00:00 | 00:00:00 | 00:00:00 | |
| DO3MHA-12 | 2026-09-06 03:13:35 | 47.77831 | 15.12816 | 101° | 84km/h | 18474m | 4.6m/s | -58.5°C | 5.3% | 0hPa | 2.6V | 00:00:00 | 01:24:39 | 00:00:00 | |
| OE5MMP-10 | 2026-09-06 03:13:34 | 47.77833 | 15.12798 | 101° | 49km/h | 18468m | 5.6m/s | -58.5°C | 5.2% | 0hPa | 2.6V | 00:00:00 | 01:24:38 | 00:00:00 | |
| OE5FHM-15 | 2026-09-06 03:13:32 | 47.77838 | 15.12762 | 102° | 47km/h | 18457m | 4.8m/s | -58.4°C | 5.3% | 0hPa | 2.7V | 00:00:00 | 01:24:36 | 00:00:00 | |
| OE3JTB-15 | 2026-09-06 03:13:31 | 47.77840 | 15.12744 | 99° | 47km/h | 18452m | 6.6m/s | -58.4°C | 5.2% | 0hPa | 2.7V | 00:00:00 | 01:24:35 | 00:00:00 | |
| OE5WHR-10 | 2026-09-06 03:13:30 | 47.77842 | 15.12726 | 98° | 46km/h | 18446m | 4.7m/s | -58.3°C | 5.2% | 0hPa | 2.7V | 00:00:00 | 01:24:34 | 00:00:00 | |
| PG1ADW-2 | 2026-09-06 03:13:28 | 47.77846 | 15.12690 | 102° | 46km/h | 18434m | 5.5m/s | -58.2°C | 5.2% | 0hPa | 2.7V | 00:00:00 | 01:24:32 | 00:00:00 | |
| OE8JPQ-2 | 2026-09-06 03:13:27 | 47.77848 | 15.12672 | 100° | 46km/h | 18428m | 7.1m/s | -58.2°C | 5.1% | 0hPa | 2.7V | 00:00:00 | 00:00:00 | 08:30:00 | |
| OE5MMP-10 | 2026-09-06 03:13:24 | 47.77852 | 15.12617 | 100° | 46km/h | 18411m | 5.8m/s | -58.1°C | 5.1% | 0hPa | 2.7V | 00:00:00 | 01:24:28 | 00:00:00 | |
| OE3OSB-13 | 2026-09-06 03:13:22 | 47.77857 | 15.12583 | 102° | 46km/h | 18400m | 6.5m/s | -58.1°C | 1.6% | -1.0hPa | 2.7V | 00:00:00 | 00:00:00 | 00:00:00 | |
| OE3MUC-15 | 2026-09-06 03:13:18 | 47.77864 | 15.12513 | 102° | 42km/h | 18378m | 3.9m/s | -58.0°C | 5.2% | 0hPa | 2.7V | 00:00:00 | 00:00:00 | 00:00:00 | |
| PETON7-10 | 2026-09-06 03:13:17 | 47.77866 | 15.12497 | 101° | 47km/h | 18373m | 6.1m/s | -57.9°C | 5.1% | 0hPa | 2.7V | 00:00:00 | 01:24:21 | 00:00:00 | |
| OE5DRO-10 | 2026-09-06 03:13:16 | 47.77868 | 15.12482 | 102° | 47km/h | 18368m | 5.5m/s | -57.9°C | 5.1% | 0hPa | 2.7V | 00:00:00 | 00:00:00 | 00:00:00 | |
| OE5MMP-10 | 2026-09-06 03:13:14 | 47.77873 | 15.12451 | 104° | 47km/h | 18357m | 6.5m/s | -57.9°C | 5.1% | 0hPa | 2.7V | 00:00:00 | 01:24:18 | 00:00:00 | |
| S52SK | 2026-09-06 03:13:11 | 47.77877 | 15.12419 | 100° | 46km/h | 18348m | 6.4m/s | -57.9°C | 0% | 0hPa | 2.7V | 00:00:00 | 00:00:00 | 00:00:00 | |
| OE3MUC-15 | 2026-09-06 03:13:10 | 47.77879 | 15.12385 | 92° | 49km/h | 18336m | 6.0m/s | -57.7°C | 5.0% | 0hPa | 2.7V | 00:00:00 | 00:00:00 | 00:00:00 | |
| OE5WHR-10 | 2026-09-06 03:13:09 | 47.77880 | 15.12367 | 95° | 49km/h | 18330m | 5.9m/s | -57.7°C | 5.0% | 0hPa | 2.7V | 00:00:00 | 00:00:00 | 00:00:00 | |
| PG1ADW-2 | 2026-09-06 03:13:08 | 47.77880 | 15.12348 | 97° | 49km/h | 18324m | 6.3m/s | -57.7°C | 5.0% | 0hPa | 2.6V | 00:00:00 | 00:00:00 | 00:00:00 | |
| OE8JPQ-2 | 2026-09-06 03:13:07 | 47.77882 | 15.12329 | 97° | 49km/h | 18318m | 5.8m/s | -57.7°C | 5.0% | 0hPa | 2.6V | 00:00:00 | 00:00:00 | 00:00:00 | |
| OE3MUC-15 | 2026-09-06 03:13:06 | 47.77883 | 15.12309 | 94° | 53km/h | 18311m | 7.1m/s | -57.7°C | 5.0% | 0hPa | 2.6V | 00:00:00 | 00:00:00 | 00:00:00 | |
| OE5DXL-15 | 2026-09-06 03:13:05 | 47.77884 | 15.12289 | 90° | 49km/h | 18306m | 4.6m/s | -57.7°C | 5.0% | 0hPa | 2.6V | 00:00:00 | 00:00:00 | 00:00:00 | |
| OE5MMP-10 | 2026-09-06 03:13:04 | 47.77884 | 15.12269 | 92° | 49km/h | 18301m | 5.3m/s | -57.7°C | 5.0% | 0hPa | 2.7V | 00:00:00 | 01:24:08 | 08:30:00 | |
| OE3MUC-15 | 2026-09-06 03:13:02 | 47.77886 | 15.12232 | 98° | 47km/h | 18289m | 5.2m/s | -57.7°C | 5.1% | 0hPa | 2.6V | 00:00:00 | 00:00:00 | 00:00:00 | |
| OE3OSB-13 | 2026-09-06 03:12:51 | 47.77874 | 15.12032 | 87° | 49km/h | 18224m | 6.5m/s | -57.5°C | 1.6% | -1.0hPa | 2.6V | 00:00:00 | 00:00:00 | 00:00:00 | |
| OE3MUC-15 | 2026-09-06 03:12:50 | 47.77873 | 15.12014 | 87° | 46km/h | 18218m | 5.7m/s | -57.5°C | 5.0% | 0hPa | 2.6V | 00:00:00 | 00:00:00 | 00:00:00 | |
| OE5WHR-10 | 2026-09-06 03:12:48 | 47.77872 | 15.11979 | 89° | 47km/h | 18206m | 5.8m/s | -57.4°C | 5.0% | 0hPa | 2.6V | 00:00:00 | 00:00:00 | 00:00:00 | |
| PETON7-10 | 2026-09-06 03:12:47 | 47.77871 | 15.11962 | 81° | 49km/h | 18201m | 5.0m/s | -57.3°C | 5.0% | 0hPa | 2.6V | 00:00:00 | 00:00:00 | 00:00:00 | |
| OE3MUC-15 | 2026-09-06 03:12:46 | 47.77869 | 15.11945 | 76° | 49km/h | 18195m | 6.0m/s | -57.3°C | 4.9% | 0hPa | 2.6V | 00:00:00 | 00:00:00 | 00:00:00 | |
| OE5MMP-10 | 2026-09-06 03:12:44 | 47.77862 | 15.11908 | 77° | 49km/h | 18182m | 6.3m/s | -57.2°C | 5.0% | 0hPa | 2.6V | 00:00:00 | 01:23:48 | 00:00:00 | |
| OE3MUC-15 | 2026-09-06 03:12:42 | 47.77856 | 15.11870 | 77° | 53km/h | 18172m | 6.5m/s | -57.2°C | 4.9% | 0hPa | 2.6V | 00:00:00 | 00:00:00 | 00:00:00 | |
| OE3MUC-15 | 2026-09-06 03:12:38 | 47.77847 | 15.11795 | 86° | 47km/h | 18148m | 3.7m/s | -57.1°C | 5.0% | 0hPa | 2.6V | 00:00:00 | 00:00:00 | 08:30:00 | |
| OE5DXL-15 | 2026-09-06 03:12:35 | 47.77840 | 15.11743 | 76° | 40km/h | 18131m | 4.9m/s | -57.2°C | 5.0% | 0hPa | 2.6V | 00:00:00 | 00:00:00 | 00:00:00 | |
| OE5MMP-10 | 2026-09-06 03:12:34 | 47.77837 | 15.11726 | 79° | 42km/h | 18126m | 5.8m/s | -57.2°C | 4.9% | 0hPa | 2.6V | 00:00:00 | 01:23:38 | 00:00:00 | |
| OE3JTB-15 | 2026-09-06 03:12:33 | 47.77835 | 15.11709 | 80° | 38km/h | 18120m | 6.0m/s | -57.1°C | 4.9% | 0hPa | 2.6V | 00:00:00 | 00:00:00 | 00:00:00 | |
| PETON7-10 | 2026-09-06 03:12:32 | 47.77833 | 15.11693 | 79° | 38km/h | 18114m | 6.6m/s | -57.1°C | 4.9% | 0hPa | 2.6V | 00:00:00 | 01:23:36 | 00:00:00 | |
| OE3MUC-15 | 2026-09-06 03:12:30 | 47.77827 | 15.11661 | 75° | 42km/h | 18101m | 5.4m/s | -57.0°C | 4.9% | 0hPa | 2.6V | 00:00:00 | 00:00:00 | 00:00:00 | |
| PG1ADW-2 | 2026-09-06 03:12:28 | 47.77822 | 15.11630 | 76° | 38km/h | 18089m | 4.8m/s | -56.9°C | 4.8% | 0hPa | 2.6V | 00:00:00 | 00:00:00 | 00:00:00 | |
| OE5WHR-10 | 2026-09-06 03:12:27 | 47.77819 | 15.11616 | 71° | 38km/h | 18082m | 7.4m/s | -56.9°C | 4.8% | 0hPa | 2.6V | 00:00:00 | 01:23:31 | 00:00:00 | |
| OE3MUC-15 | 2026-09-06 03:12:26 | 47.77815 | 15.11602 | 65° | 38km/h | 18076m | 4.6m/s | -56.8°C | 4.9% | 0hPa | 2.6V | 00:00:00 | 00:00:00 | 00:00:00 | |
| OE5MMP-10 | 2026-09-06 03:12:24 | 47.77806 | 15.11575 | 64° | 37km/h | 18065m | 5.3m/s | -56.7°C | 4.9% | 0hPa | 2.6V | 00:00:00 | 01:23:28 | 00:00:00 | |
| OE3MUC-15 | 2026-09-06 03:12:22 | 47.77797 | 15.11551 | 59° | 35km/h | 18055m | 5.6m/s | -56.6°C | 4.8% | 0hPa | 2.6V | 00:00:00 | 00:00:00 | 00:00:00 | |
| OE3OSB-13 | 2026-09-06 03:12:20 | 47.77788 | 15.11528 | 62° | 33km/h | 18045m | 5.8m/s | -56.6°C | 1.6% | -1.0hPa | 2.6V | 00:00:00 | 00:00:00 | 00:00:00 | |
| OE5DRO-10 | 2026-09-06 03:12:19 | 47.77785 | 15.11517 | 67° | 35km/h | 18040m | 4.8m/s | -56.5°C | 4.8% | 0hPa | 2.6V | 00:00:00 | 00:00:00 | 00:00:00 | |
| OE3MUC-15 | 2026-09-06 03:12:18 | 47.77782 | 15.11506 | 68° | 38km/h | 18035m | 4.2m/s | -56.5°C | 4.8% | 0hPa | 2.6V | 00:00:00 | 00:00:00 | 00:00:00 | |
| PETON7-10 | 2026-09-06 03:12:17 | 47.77778 | 15.11493 | 66° | 37km/h | 18030m | 5.7m/s | -56.5°C | 4.9% | 0hPa | 2.6V | 00:00:00 | 00:00:00 | 00:00:00 | |
| OE3MUC-15 | 2026-09-06 03:12:14 | 47.77766 | 15.11453 | 67° | 40km/h | 18013m | 6.2m/s | -56.4°C | 4.8% | 0hPa | 2.6V | 00:00:00 | 00:00:00 | 00:00:00 | |
| OE3MUC-15 | 2026-09-06 03:12:10 | 47.77751 | 15.11396 | 73° | 38km/h | 17994m | 4.9m/s | -56.4°C | 4.8% | 0hPa | 2.6V | 00:00:00 | 00:00:00 | 00:00:00 | |
| PG1ADW-2 | 2026-09-06 03:12:08 | 47.77747 | 15.11368 | 81° | 33km/h | 17983m | 4.8m/s | -56.3°C | 4.8% | 0hPa | 2.6V | 00:00:00 | 01:23:12 | 00:00:00 | |
| OE8JPQ-2 | 2026-09-06 03:12:07 | 47.77745 | 15.11355 | 79° | 33km/h | 17977m | 6.5m/s | -56.3°C | 4.8% | 0hPa | 2.6V | 00:00:00 | 00:00:00 | 00:00:00 | |
| OE3MUC-15 | 2026-09-06 03:12:06 | 47.77743 | 15.11342 | 74° | 29km/h | 17971m | 4.0m/s | -56.3°C | 4.8% | 0hPa | 2.6V | 00:00:00 | 00:00:00 | 00:00:00 | |
| OE5DXL-15 | 2026-09-06 03:12:05 | 47.77740 | 15.11330 | 71° | 31km/h | 17966m | 5.3m/s | -56.2°C | 4.8% | 0hPa | 2.6V | 00:00:00 | 00:00:00 | 00:00:00 | |
| OE5MMP-10 | 2026-09-06 03:12:04 | 47.77738 | 15.11319 | 69° | 33km/h | 17961m | 6.5m/s | -56.2°C | 4.8% | 0hPa | 2.6V | 00:00:00 | 01:23:08 | 00:00:00 | |
| OE5FHM-15 | 2026-09-06 03:12:02 | 47.77732 | 15.11302 | 58° | 33km/h | 17950m | 6.1m/s | -56.1°C | 4.8% | 0hPa | 2.6V | 00:00:00 | 01:23:06 | 00:00:00 | |
| OE3OSB-13 | 2026-09-06 03:11:49 | 47.77711 | 15.11145 | 87° | 33km/h | 17873m | 4.8m/s | -55.5°C | 1.5% | -1.0hPa | 2.6V | 00:00:00 | 00:00:00 | 00:00:00 | |
| PG1ADW-2 | 2026-09-06 03:11:48 | 47.77710 | 15.11133 | 85° | 31km/h | 17866m | 7.6m/s | -55.5°C | 4.6% | 0hPa | 2.6V | 00:00:00 | 00:00:00 | 00:00:00 | |
| OE3MUC-15 | 2026-09-06 03:11:46 | 47.77707 | 15.11110 | 78° | 31km/h | 17856m | 5.4m/s | -55.5°C | 4.6% | 0hPa | 2.6V | 00:00:00 | 00:00:00 | 00:00:00 | |
| OE5WHR-10 | 2026-09-06 03:11:45 | 47.77705 | 15.11097 | 77° | 31km/h | 17850m | 5.4m/s | -55.5°C | 4.6% | 0hPa | 2.6V | 00:00:00 | 00:00:00 | 00:00:00 | |
| OE5MMP-10 | 2026-09-06 03:11:44 | 47.77704 | 15.11086 | 84° | 29km/h | 17845m | 3.7m/s | -55.4°C | 4.6% | 0hPa | 2.6V | 00:00:00 | 01:22:48 | 00:00:00 | |
| OE5DRO-10 | 2026-09-06 03:11:41 | 47.77706 | 15.11059 | 114° | 33km/h | 17829m | 4.1m/s | -55.4°C | 4.5% | 0hPa | 2.6V | 00:00:00 | 00:00:00 | 00:00:00 | |
| S52SK | 2026-09-06 03:11:39 | 47.77708 | 15.11051 | 110° | 24km/h | 17824m | 6.0m/s | -55.4°C | 0% | 0hPa | 2.6V | 00:00:00 | 00:00:00 | 00:00:00 | |
| OE5DXL-15 | 2026-09-06 03:11:35 | 47.77710 | 15.10988 | 95° | 42km/h | 17795m | 6.2m/s | -55.1°C | 4.4% | 0hPa | 2.6V | 00:00:00 | 00:00:00 | 08:30:00 | |
| OE5MMP-10 | 2026-09-06 03:11:34 | 47.77711 | 15.10974 | 98° | 31km/h | 17790m | 4.1m/s | -55.1°C | 4.3% | 0hPa | 2.6V | 00:00:00 | 01:22:38 | 08:30:00 | |
| OE5FHM-15 | 2026-09-06 03:11:32 | 47.77713 | 15.10945 | 94° | 44km/h | 17777m | 5.9m/s | -54.9°C | 4.3% | 0hPa | 2.7V | 00:00:00 | 01:22:36 | 00:00:00 | |
| PG1ADW-2 | 2026-09-06 03:11:28 | 47.77721 | 15.10905 | 123° | 42km/h | 17751m | 6.6m/s | -54.7°C | 4.2% | 0hPa | 2.7V | 00:00:00 | 00:00:00 | 00:00:00 | |
| OE8JPQ-2 | 2026-09-06 03:11:27 | 47.77724 | 15.10897 | 120° | 44km/h | 17744m | 7.6m/s | -54.8°C | 4.2% | 0hPa | 2.7V | 00:00:00 | 00:00:00 | 00:00:00 | |
| OE5MMP-10 | 2026-09-06 03:11:24 | 47.77737 | 15.10863 | 123° | 38km/h | 17719m | 10.3m/s | -54.7°C | 4.1% | 0hPa | 2.7V | 00:00:00 | 01:22:28 | 00:00:00 | |
| OE5DRO-10 | 2026-09-06 03:11:22 | 47.77747 | 15.10835 | 114° | 49km/h | 17702m | 8.7m/s | -55.0°C | 4.1% | 0hPa | 2.7V | 00:00:00 | 00:00:00 | 00:00:00 | |
| OE3MUC-15 | 2026-09-06 03:11:18 | 47.77751 | 15.10780 | 90° | 37km/h | 17678m | 6.6m/s | -56.2°C | 4.3% | 0hPa | 2.7V | 00:00:00 | 00:00:00 | 00:00:00 | |
| PETON7-10 | 2026-09-06 03:11:17 | 47.77752 | 15.10767 | 102° | 55km/h | 17672m | 6.2m/s | -56.3°C | 4.4% | 0hPa | 2.7V | 00:00:00 | 00:00:00 | 00:00:00 | |
| OE5MMP-10 | 2026-09-06 03:11:14 | 47.77765 | 15.10728 | 129° | 58km/h | 17651m | 8.0m/s | -57.0°C | 4.7% | 0hPa | 2.7V | 00:00:00 | 01:22:18 | 00:00:00 | |
| OE3MUC-15 | 2026-09-06 03:11:10 | 47.77800 | 15.10660 | 125° | 64km/h | 17624m | 6.6m/s | -57.1°C | 4.9% | 0hPa | 2.7V | 00:00:00 | 00:00:00 | 00:00:00 | |
| PG1ADW-2 | 2026-09-06 03:11:08 | 47.77818 | 15.10621 | 124° | 58km/h | 17612m | 4.6m/s | -57.2°C | 4.9% | 0hPa | 2.7V | 00:00:00 | 00:00:00 | 00:00:00 | |
| OE8JPQ-2 | 2026-09-06 03:11:07 | 47.77827 | 15.10601 | 125° | 58km/h | 17606m | 6.6m/s | -57.2°C | 4.9% | 0hPa | 2.7V | 00:00:00 | 00:00:00 | 00:00:00 | |
| OE3MUC-15 | 2026-09-06 03:11:06 | 47.77836 | 15.10582 | 128° | 60km/h | 17600m | 4.7m/s | -57.2°C | 4.9% | 0hPa | 2.7V | 00:00:00 | 00:00:00 | 00:00:00 | |
| OE5DXL-15 | 2026-09-06 03:11:05 | 47.77845 | 15.10564 | 127° | 57km/h | 17595m | 4.8m/s | -57.2°C | 4.9% | 0hPa | 2.7V | 00:00:00 | 00:00:00 | 00:00:00 | |
| OE5MMP-10 | 2026-09-06 03:11:04 | 47.77854 | 15.10546 | 125° | 58km/h | 17590m | 6.2m/s | -57.3°C | 4.9% | 0hPa | 2.7V | 00:00:00 | 01:22:08 | 00:00:00 | |
| OE3MUC-15 | 2026-09-06 03:11:02 | 47.77871 | 15.10510 | 126° | 60km/h | 17579m | 5.7m/s | -57.5°C | 5.0% | 0hPa | 2.6V | 00:00:00 | 00:00:00 | 00:00:00 | |
| OE3MUC-15 | 2026-09-06 03:10:58 | 47.77903 | 15.10434 | 124° | 55km/h | 17556m | 5.7m/s | -57.7°C | 5.1% | 0hPa | 2.6V | 00:00:00 | 00:00:00 | 00:00:00 | |
| OE3MUC-15 | 2026-09-06 03:10:54 | 47.77936 | 15.10368 | 133° | 55km/h | 17532m | 5.0m/s | -57.7°C | 5.1% | 0hPa | 2.6V | 00:00:00 | 00:00:00 | 00:00:00 | |
| OE3MUC-15 | 2026-09-06 03:10:50 | 47.77973 | 15.10307 | 137° | 57km/h | 17509m | 5.7m/s | -57.7°C | 5.1% | 0hPa | 2.6V | 00:00:00 | 00:00:00 | 08:30:00 | |
| PG1ADW-2 | 2026-09-06 03:10:48 | 47.77994 | 15.10277 | 133° | 58km/h | 17497m | 5.9m/s | -57.7°C | 5.0% | 0hPa | 2.7V | 00:00:00 | 01:21:52 | 08:30:00 | |
| OE8JPQ-2 | 2026-09-06 03:10:47 | 47.78003 | 15.10262 | 132° | 60km/h | 17492m | 4.0m/s | -57.7°C | 5.0% | 0hPa | 2.6V | 00:00:00 | 01:21:51 | 00:00:00 | |
| OE3MUC-15 | 2026-09-06 03:10:46 | 47.78013 | 15.10247 | 134° | 55km/h | 17486m | 6.0m/s | -57.7°C | 5.0% | 0hPa | 2.6V | 00:00:00 | 00:00:00 | 00:00:00 | |
| OE5MMP-10 | 2026-09-06 03:10:44 | 47.78033 | 15.10218 | 134° | 57km/h | 17476m | 4.9m/s | -57.9°C | 5.0% | 0hPa | 2.6V | 00:00:00 | 01:21:48 | 00:00:00 | |
| OE3MUC-15 | 2026-09-06 03:10:42 | 47.78050 | 15.10188 | 129° | 53km/h | 17464m | 4.5m/s | -58.0°C | 5.2% | 0hPa | 2.6V | 00:00:00 | 00:00:00 | 00:00:00 | |
| OE3MUC-15 | 2026-09-06 03:10:38 | 47.78086 | 15.10125 | 127° | 62km/h | 17444m | 5.5m/s | -58.0°C | 5.2% | 0hPa | 2.6V | 00:00:00 | 00:00:00 | 00:00:00 | |
| OE3JTB-15 | 2026-09-06 03:10:37 | 47.78094 | 15.10107 | 126° | 69km/h | 17439m | 4.3m/s | -58.0°C | 5.1% | 0hPa | 2.6V | 00:00:00 | 01:21:41 | 00:00:00 | |
| OE5DXL-15 | 2026-09-06 03:10:35 | 47.78114 | 15.10069 | 128° | 71km/h | 17429m | 4.9m/s | -58.0°C | 5.1% | 0hPa | 2.6V | 00:00:00 | 00:00:00 | 00:00:00 | |
| OE5MMP-10 | 2026-09-06 03:10:34 | 47.78124 | 15.10050 | 128° | 66km/h | 17423m | 5.7m/s | -58.0°C | 5.0% | 0hPa | 2.6V | 00:00:00 | 01:21:38 | 00:00:00 | |
| PETON7-10 | 2026-09-06 03:10:32 | 47.78144 | 15.10011 | 129° | 69km/h | 17412m | 4.9m/s | -58.0°C | 5.1% | 0hPa | 2.6V | 00:00:00 | 00:00:00 | 00:00:00 | |
| OE3MUC-15 | 2026-09-06 03:10:30 | 47.78166 | 15.09973 | 131° | 64km/h | 17402m | 5.1m/s | -58.0°C | 5.1% | 0hPa | 2.6V | 00:00:00 | 00:00:00 | 00:00:00 | |
| PG1ADW-2 | 2026-09-06 03:10:28 | 47.78185 | 15.09936 | 126° | 71km/h | 17391m | 4.2m/s | -57.9°C | 5.1% | 0hPa | 2.6V | 00:00:00 | 00:00:00 | 00:00:00 | |
| OE8JPQ-2 | 2026-09-06 03:10:27 | 47.78194 | 15.09916 | 126° | 73km/h | 17385m | 6.8m/s | -57.9°C | 5.1% | 0hPa | 2.6V | 00:00:00 | 00:00:00 | 08:30:00 | |
| OE3MUC-15 | 2026-09-06 03:10:26 | 47.78204 | 15.09895 | 124° | 71km/h | 17379m | 4.9m/s | -57.9°C | 5.1% | 0hPa | 2.6V | 00:00:00 | 00:00:00 | 00:00:00 | |
| OE5DRO-10 | 2026-09-06 03:10:25 | 47.78213 | 15.09873 | 122° | 73km/h | 17373m | 6.9m/s | -57.9°C | 5.0% | 0hPa | 2.7V | 00:00:00 | 00:00:00 | 00:00:00 | |
| OE5MMP-10 | 2026-09-06 03:10:24 | 47.78222 | 15.09850 | 120° | 71km/h | 17368m | 4.0m/s | -57.8°C | 5.1% | 0hPa | 2.7V | 00:00:00 | 01:21:28 | 00:00:00 | |
| OE3MUC-15 | 2026-09-06 03:10:22 | 47.78241 | 15.09801 | 122° | 73km/h | 17358m | 5.0m/s | -57.8°C | 5.1% | 0hPa | 2.7V | 00:00:00 | 00:00:00 | 00:00:00 | |
| OE5WHR-10 | 2026-09-06 03:10:21 | 47.78251 | 15.09777 | 124° | 73km/h | 17353m | 4.5m/s | -57.8°C | 5.0% | 0hPa | 2.7V | 00:00:00 | 01:21:25 | 00:00:00 | |
| OE3MUC-15 | 2026-09-06 03:10:18 | 47.78282 | 15.09711 | 129° | 69km/h | 17336m | 6.9m/s | -57.9°C | 5.0% | 0hPa | 2.7V | 00:00:00 | 00:00:00 | 00:00:00 | |
| PETON7-10 | 2026-09-06 03:10:17 | 47.78293 | 15.09690 | 130° | 73km/h | 17330m | 4.1m/s | -58.0°C | 5.1% | 0hPa | 2.7V | 00:00:00 | 01:21:21 | 00:00:00 | |
| OE3OSB-13 | 2026-09-06 03:10:16 | 47.78304 | 15.09670 | 128° | 66km/h | 17325m | 5.4m/s | -58.1°C | 1.8% | -1.0hPa | 2.7V | 00:00:00 | 00:00:00 | 00:00:00 | |
| OE3MUC-15 | 2026-09-06 03:10:14 | 47.78324 | 15.09629 | 122° | 73km/h | 17315m | 4.5m/s | -58.3°C | 5.2% | 0hPa | 2.7V | 00:00:00 | 00:00:00 | 08:30:00 | |
| OE3MUC-15 | 2026-09-06 03:10:10 | 47.78364 | 15.09535 | 124° | 77km/h | 17294m | 5.1m/s | -58.6°C | 5.3% | 0hPa | 2.6V | 00:00:00 | 00:00:00 | 00:00:00 | |
| PG1ADW-2 | 2026-09-06 03:10:08 | 47.78386 | 15.09489 | 128° | 75km/h | 17284m | 6.0m/s | -58.6°C | 5.3% | 0hPa | 2.6V | 00:00:00 | 00:00:00 | 00:00:00 | |
| OE8JPQ-2 | 2026-09-06 03:10:07 | 47.78399 | 15.09466 | 131° | 75km/h | 17279m | 4.2m/s | -58.6°C | 5.3% | 0hPa | 2.6V | 00:00:00 | 00:00:00 | 00:00:00 | |
| OE3MUC-15 | 2026-09-06 03:10:06 | 47.78411 | 15.09444 | 131° | 77km/h | 17274m | 6.1m/s | -58.6°C | 5.4% | 0hPa | 2.6V | 00:00:00 | 00:00:00 | 00:00:00 | |
| OE5DXL-15 | 2026-09-06 03:10:05 | 47.78423 | 15.09423 | 130° | 73km/h | 17268m | 4.4m/s | -58.6°C | 5.4% | 0hPa | 2.6V | 00:00:00 | 00:00:00 | 00:00:00 | |
| OE5MMP-10 | 2026-09-06 03:10:04 | 47.78435 | 15.09401 | 129° | 75km/h | 17264m | 4.8m/s | -58.6°C | 5.3% | 0hPa | 2.6V | 00:00:00 | 01:21:08 | 08:30:00 | |
| OE5FHM-15 | 2026-09-06 03:10:02 | 47.78459 | 15.09356 | 128° | 71km/h | 17254m | 4.0m/s | -58.6°C | 5.3% | 0hPa | 2.6V | 00:00:00 | 01:21:06 | 00:00:00 | |
| OE3OSB-13 | 2026-09-06 03:09:45 | 47.78644 | 15.08979 | 122° | 71km/h | 17162m | 5.4m/s | -58.2°C | 1.8% | -1.0hPa | 2.6V | 00:00:00 | 00:00:00 | 00:00:00 | |
| OE5MMP-10 | 2026-09-06 03:09:44 | 47.78653 | 15.08956 | 122° | 71km/h | 17157m | 4.4m/s | -58.2°C | 5.3% | 0hPa | 2.6V | 00:00:00 | 01:20:48 | 00:00:00 | |
| OE3MUC-15 | 2026-09-06 03:09:42 | 47.78673 | 15.08910 | 121° | 71km/h | 17147m | 4.8m/s | -58.2°C | 5.4% | 0hPa | 2.6V | 00:00:00 | 00:00:00 | 00:00:00 | |
| OE5WHR-10 | 2026-09-06 03:09:39 | 47.78701 | 15.08842 | 123° | 69km/h | 17133m | 4.9m/s | -58.1°C | 5.4% | 0hPa | 2.6V | 00:00:00 | 00:00:00 | 00:00:00 | |
| OE5DXL-15 | 2026-09-06 03:09:34 | 47.78750 | 15.08731 | 122° | 66km/h | 17104m | 6.4m/s | -57.9°C | 5.3% | 0hPa | 2.6V | 00:00:00 | 00:00:00 | 00:00:00 | |
| OE5FHM-15 | 2026-09-06 03:09:32 | 47.78768 | 15.08686 | 119° | 66km/h | 17093m | 5.7m/s | -57.9°C | 5.3% | 0hPa | 2.6V | 00:00:00 | 01:20:36 | 08:30:00 | |
| PG1ADW-2 | 2026-09-06 03:09:28 | 47.78802 | 15.08595 | 123° | 66km/h | 17071m | 5.0m/s | -57.8°C | 5.2% | 0hPa | 2.6V | 00:00:00 | 01:20:32 | 00:00:00 | |
| OE8JPQ-2 | 2026-09-06 03:09:27 | 47.78812 | 15.08572 | 126° | 66km/h | 17065m | 5.4m/s | -57.7°C | 5.2% | 0hPa | 2.6V | 00:00:00 | 00:00:00 | 00:00:00 | |
| OE5MMP-10 | 2026-09-06 03:09:24 | 47.78845 | 15.08511 | 131° | 64km/h | 17048m | 4.9m/s | -57.6°C | 5.1% | 0hPa | 2.7V | 00:00:00 | 01:20:28 | 00:00:00 | |
| OE5WHR-10 | 2026-09-06 03:09:18 | 47.78907 | 15.08392 | 122° | 62km/h | 17013m | 4.6m/s | -57.3°C | 5.0% | 0hPa | 2.7V | 00:00:00 | 01:20:22 | 00:00:00 | |
| PETON7-10 | 2026-09-06 03:09:17 | 47.78915 | 15.08373 | 122° | 62km/h | 17008m | 6.0m/s | -57.3°C | 5.0% | 0hPa | 2.7V | 00:00:00 | 00:00:00 | 08:30:00 | |
| OE5MMP-10 | 2026-09-06 03:09:14 | 47.78940 | 15.08316 | 125° | 64km/h | 16991m | 4.5m/s | -57.2°C | 5.0% | 0hPa | 2.6V | 00:00:00 | 01:20:18 | 00:00:00 | |
| OE3MUC-15 | 2026-09-06 03:09:10 | 47.78980 | 15.08240 | 130° | 66km/h | 16972m | 5.5m/s | -57.3°C | 5.0% | 0hPa | 2.6V | 00:00:00 | 00:00:00 | 00:00:00 | |
| OE5DRO-10 | 2026-09-06 03:09:09 | 47.78990 | 15.08221 | 129° | 62km/h | 16967m | 4.9m/s | -57.4°C | 5.1% | 0hPa | 2.6V | 00:00:00 | 00:00:00 | 00:00:00 | |
| PG1ADW-2 | 2026-09-06 03:09:08 | 47.79001 | 15.08201 | 129° | 62km/h | 16962m | 4.1m/s | -57.4°C | 5.1% | 0hPa | 2.6V | 00:00:00 | 00:00:00 | 00:00:00 | |
| OE8JPQ-2 | 2026-09-06 03:09:07 | 47.79011 | 15.08182 | 129° | 62km/h | 16957m | 6.0m/s | -57.4°C | 5.1% | 0hPa | 2.6V | 00:00:00 | 00:00:00 | 00:00:00 | |
| OE3MUC-15 | 2026-09-06 03:09:06 | 47.79020 | 15.08164 | 129° | 60km/h | 16951m | 4.3m/s | -57.4°C | 5.1% | 0hPa | 2.6V | 00:00:00 | 00:00:00 | 00:00:00 | |
| OE5DXL-15 | 2026-09-06 03:09:04 | 47.79039 | 15.08129 | 127° | 66km/h | 16941m | 4.5m/s | -57.5°C | 5.1% | 0hPa | 2.6V | 00:00:00 | 00:00:00 | 00:00:00 | |
| OE3MUC-15 | 2026-09-06 03:09:02 | 47.79057 | 15.08093 | 129° | 58km/h | 16930m | 5.6m/s | -57.6°C | 5.1% | 0hPa | 2.6V | 00:00:00 | 00:00:00 | 08:30:00 | |
| OE3MUC-15 | 2026-09-06 03:08:58 | 47.79094 | 15.08025 | 131° | 60km/h | 16910m | 5.8m/s | -57.7°C | 5.1% | 0hPa | 2.6V | 00:00:00 | 00:00:00 | 00:00:00 | |
| OE5WHR-10 | 2026-09-06 03:08:57 | 47.79103 | 15.08008 | 130° | 68km/h | 16904m | 5.3m/s | -57.7°C | 5.1% | 0hPa | 2.6V | 00:00:00 | 00:00:00 | 08:30:00 | |
| OE3MUC-15 | 2026-09-06 03:08:54 | 47.79132 | 15.07952 | 126° | 66km/h | 16888m | 5.0m/s | -57.6°C | 5.1% | 0hPa | 2.6V | 00:00:00 | 00:00:00 | 00:00:00 | |
| S52SK | 2026-09-06 03:08:52 | 47.79141 | 15.07932 | 126° | 64km/h | 16883m | 6.3m/s | -57.6°C | 0% | 0hPa | 2.6V | 00:00:00 | 00:00:00 | 00:00:00 | |
| OE5DRO-10 | 2026-09-06 03:08:50 | 47.79168 | 15.07871 | 121° | 71km/h | 16866m | 4.9m/s | -57.5°C | 5.1% | 0hPa | 2.6V | 00:00:00 | 00:00:00 | 00:00:00 | |
| PG1ADW-2 | 2026-09-06 03:08:48 | 47.79185 | 15.07828 | 121° | 73km/h | 16855m | 5.4m/s | -57.4°C | 5.0% | 0hPa | 2.7V | 00:00:00 | 00:00:00 | 00:00:00 | |
| OE8JPQ-2 | 2026-09-06 03:08:47 | 47.79193 | 15.07807 | 121° | 73km/h | 16849m | 4.7m/s | -57.4°C | 5.0% | 0hPa | 2.6V | 00:00:00 | 01:19:51 | 00:00:00 | |
| OE3MUC-15 | 2026-09-06 03:08:46 | 47.79201 | 15.07785 | 118° | 69km/h | 16843m | 6.9m/s | -57.4°C | 5.0% | 0hPa | 2.6V | 00:00:00 | 00:00:00 | 00:00:00 | |
| OE5MMP-10 | 2026-09-06 03:08:44 | 47.79218 | 15.07740 | 120° | 71km/h | 16831m | 7.2m/s | -57.3°C | 5.0% | 0hPa | 2.6V | 00:00:00 | 01:19:48 | 00:00:00 | |
| OE3OSB-13 | 2026-09-06 03:08:43 | 47.79227 | 15.07717 | 120° | 69km/h | 16825m | 4.6m/s | -57.4°C | 1.7% | -1.0hPa | 2.6V | 00:00:00 | 00:00:00 | 00:00:00 | |
| OE3MUC-15 | 2026-09-06 03:08:42 | 47.79237 | 15.07694 | 122° | 71km/h | 16819m | 7.3m/s | -57.3°C | 4.9% | 0hPa | 2.6V | 00:00:00 | 00:00:00 | 00:00:00 | |
| OE3JTB-15 | 2026-09-06 03:08:41 | 47.79246 | 15.07671 | 122° | 75km/h | 16813m | 5.1m/s | -57.4°C | 5.0% | 0hPa | 2.6V | 00:00:00 | 00:00:00 | 00:00:00 | |
| OE3MUC-15 | 2026-09-06 03:08:38 | 47.79275 | 15.07603 | 121° | 73km/h | 16796m | 6.3m/s | -57.9°C | 5.2% | 0hPa | 2.7V | 00:00:00 | 00:00:00 | 00:00:00 | |
| OE3MUC-15 | 2026-09-06 03:08:34 | 47.79310 | 15.07506 | 119° | 75km/h | 16775m | 4.5m/s | -58.0°C | 5.3% | 0hPa | 2.6V | 00:00:00 | 00:00:00 | 00:00:00 | |
| OE5FHM-15 | 2026-09-06 03:08:32 | 47.79329 | 15.07457 | 120° | 75km/h | 16763m | 5.2m/s | -58.0°C | 5.2% | 0hPa | 2.6V | 00:00:00 | 01:19:36 | 00:00:00 | |
| OE5DRO-10 | 2026-09-06 03:08:31 | 47.79338 | 15.07432 | 120° | 77km/h | 16757m | 6.0m/s | -58.0°C | 5.2% | 0hPa | 2.6V | 00:00:00 | 00:00:00 | 00:00:00 | |
| OE3MUC-15 | 2026-09-06 03:08:30 | 47.79348 | 15.07407 | 119° | 78km/h | 16751m | 5.6m/s | -58.0°C | 5.3% | 0hPa | 2.6V | 00:00:00 | 00:00:00 | 00:00:00 | |
| PG1ADW-2 | 2026-09-06 03:08:28 | 47.79366 | 15.07356 | 115° | 77km/h | 16741m | 6.0m/s | -58.1°C | 5.4% | 0hPa | 2.6V | 00:00:00 | 00:00:00 | 00:00:00 | |
| OE8JPQ-2 | 2026-09-06 03:08:27 | 47.79373 | 15.07329 | 112° | 77km/h | 16735m | 4.3m/s | -58.1°C | 5.4% | 0hPa | 2.6V | 00:00:00 | 00:00:00 | 00:00:00 | |
| OE3MUC-15 | 2026-09-06 03:08:26 | 47.79381 | 15.07301 | 111° | 75km/h | 16730m | 6.4m/s | -58.1°C | 5.3% | 0hPa | 2.7V | 00:00:00 | 00:00:00 | 08:30:00 | |
| OE5MMP-10 | 2026-09-06 03:08:24 | 47.79393 | 15.07249 | 110° | 77km/h | 16719m | 5.9m/s | -58.1°C | 5.4% | 0hPa | 2.7V | 00:00:00 | 01:19:28 | 00:00:00 | |
| OE3MUC-15 | 2026-09-06 03:08:22 | 47.79407 | 15.07196 | 114° | 78km/h | 16707m | 4.1m/s | -58.0°C | 5.4% | 0hPa | 2.7V | 00:00:00 | 00:00:00 | 00:00:00 | |
| OE3MUC-15 | 2026-09-06 03:08:18 | 47.79438 | 15.07087 | 113° | 75km/h | 16687m | 5.7m/s | -57.9°C | 5.3% | 0hPa | 2.7V | 00:00:00 | 00:00:00 | 00:00:00 | |
| PETON7-10 | 2026-09-06 03:08:17 | 47.79445 | 15.07060 | 114° | 73km/h | 16682m | 4.4m/s | -57.9°C | 5.3% | 0hPa | 2.7V | 00:00:00 | 00:00:00 | 00:00:00 | |
| OE5WHR-10 | 2026-09-06 03:08:15 | 47.79459 | 15.07009 | 111° | 71km/h | 16670m | 4.4m/s | -57.9°C | 5.3% | 0hPa | 2.7V | 00:00:00 | 01:19:19 | 00:00:00 | |
| OE3MUC-15 | 2026-09-06 03:08:14 | 47.79466 | 15.06984 | 111° | 73km/h | 16666m | 5.4m/s | -57.9°C | 5.3% | 0hPa | 2.7V | 00:00:00 | 00:00:00 | 00:00:00 | |
| OE3JTB-15 | 2026-09-06 03:08:12 | 47.79479 | 15.06932 | 110° | 69km/h | 16655m | 4.1m/s | -57.8°C | 5.2% | 0hPa | 2.7V | 00:00:00 | 00:00:00 | 00:00:00 | |
| OE3MUC-15 | 2026-09-06 03:08:10 | 47.79491 | 15.06880 | 111° | 77km/h | 16645m | 5.2m/s | -57.8°C | 5.2% | 0hPa | 2.7V | 00:00:00 | 00:00:00 | 00:00:00 | |
| PG1ADW-2 | 2026-09-06 03:08:08 | 47.79507 | 15.06826 | 117° | 68km/h | 16634m | 3.7m/s | -57.7°C | 5.2% | 0hPa | 2.7V | 00:00:00 | 01:19:12 | 00:00:00 | |
| OE8JPQ-2 | 2026-09-06 03:08:07 | 47.79516 | 15.06801 | 119° | 68km/h | 16630m | 6.4m/s | -57.7°C | 5.2% | 0hPa | 2.7V | 00:00:00 | 00:00:00 | 00:00:00 | |
| OE3MUC-15 | 2026-09-06 03:08:06 | 47.79525 | 15.06777 | 120° | 69km/h | 16623m | 5.2m/s | -57.7°C | 5.1% | 0hPa | 2.7V | 00:00:00 | 00:00:00 | 00:00:00 | |
| OE5MMP-10 | 2026-09-06 03:08:04 | 47.79543 | 15.06733 | 124° | 68km/h | 16612m | 6.5m/s | -57.6°C | 5.0% | 0hPa | 2.7V | 00:00:00 | 01:19:08 | 00:00:00 | |
| OE5FHM-15 | 2026-09-06 03:08:02 | 47.79562 | 15.06689 | 121° | 68km/h | 16602m | 6.4m/s | -57.8°C | 5.1% | 0hPa | 2.6V | 00:00:00 | 01:19:06 | 00:00:00 | |
| OE3MUC-15 | 2026-09-06 03:07:58 | 47.79593 | 15.06599 | 117° | 66km/h | 16581m | 4.2m/s | -58.0°C | 5.2% | 0hPa | 2.6V | 00:00:00 | 00:00:00 | 00:00:00 | |
| OE5MMP-10 | 2026-09-06 03:07:54 | 47.79627 | 15.06513 | 125° | 66km/h | 16559m | 5.0m/s | -58.1°C | 5.2% | 0hPa | 2.6V | 00:00:00 | 01:18:58 | 00:00:00 | |
| OE5DRO-10 | 2026-09-06 03:07:53 | 47.79636 | 15.06492 | 126° | 68km/h | 16554m | 4.8m/s | -58.2°C | 5.2% | 0hPa | 2.6V | 00:00:00 | 00:00:00 | 00:00:00 | |
| OE3MUC-15 | 2026-09-06 03:07:50 | 47.79664 | 15.06432 | 122° | 66km/h | 16538m | 6.8m/s | -58.3°C | 5.3% | 0hPa | 2.6V | 00:00:00 | 00:00:00 | 08:30:00 | |
| PG1ADW-2 | 2026-09-06 03:07:48 | 47.79680 | 15.06389 | 118° | 66km/h | 16526m | 5.1m/s | -58.3°C | 5.3% | 0hPa | 2.6V | 00:00:00 | 00:00:00 | 08:30:00 | |
| PETON7-10 | 2026-09-06 03:07:47 | 47.79688 | 15.06368 | 118° | 68km/h | 16521m | 6.0m/s | -58.3°C | 5.3% | 0hPa | 2.7V | 00:00:00 | 00:00:00 | 00:00:00 | |
| OE3MUC-15 | 2026-09-06 03:07:46 | 47.79695 | 15.06347 | 116° | 66km/h | 16515m | 4.4m/s | -58.3°C | 5.3% | 0hPa | 2.7V | 00:00:00 | 00:00:00 | 00:00:00 | |
| OE5MMP-10 | 2026-09-06 03:07:44 | 47.79709 | 15.06303 | 118° | 69km/h | 16504m | 4.9m/s | -58.3°C | 5.3% | 0hPa | 2.7V | 00:00:00 | 01:18:48 | 00:00:00 | |
| OE3JTB-15 | 2026-09-06 03:07:43 | 47.79718 | 15.06281 | 120° | 68km/h | 16498m | 6.6m/s | -58.4°C | 5.3% | 0hPa | 2.7V | 00:00:00 | 01:18:47 | 00:00:00 | |
| OE3OSB-13 | 2026-09-06 03:07:41 | 47.79743 | 15.06214 | 118° | 71km/h | 16481m | 5.5m/s | -58.6°C | 2.0% | -1.0hPa | 2.7V | 00:00:00 | 00:00:00 | 00:00:00 | |
| S52SK | 2026-09-06 03:07:38 | 47.79761 | 15.06168 | 122° | 68km/h | 16470m | 5.5m/s | -58.6°C | 0% | 0hPa | 2.7V | 00:00:00 | 00:00:00 | 00:00:00 | |
| OE5MMP-10 | 2026-09-06 03:07:34 | 47.79797 | 15.06078 | 122° | 64km/h | 16449m | 5.9m/s | -58.8°C | 5.6% | 0hPa | 2.7V | 00:00:00 | 01:18:38 | 00:00:00 | |
| OE5WHR-10 | 2026-09-06 03:07:33 | 47.79806 | 15.06057 | 123° | 68km/h | 16443m | 4.7m/s | -58.8°C | 5.7% | 0hPa | 2.6V | 00:00:00 | 00:00:00 | 00:00:00 | |
| OE5FHM-15 | 2026-09-06 03:07:32 | 47.79814 | 15.06036 | 120° | 69km/h | 16438m | 6.1m/s | -58.9°C | 5.7% | 0hPa | 2.6V | 00:00:00 | 01:18:36 | 00:00:00 | |
| S52SK | 2026-09-06 03:07:31 | 47.79814 | 15.06036 | 121° | 64km/h | 16438m | 6.2m/s | -58.9°C | 0% | 0hPa | 2.6V | 00:00:00 | 00:00:00 | 00:00:00 | |
| PG1ADW-2 | 2026-09-06 03:07:28 | 47.79840 | 15.05953 | 114° | 69km/h | 16417m | 4.5m/s | -59.0°C | 5.8% | 0hPa | 2.6V | 00:00:00 | 00:00:00 | 00:00:00 | |
| OE8JPQ-2 | 2026-09-06 03:07:27 | 47.79846 | 15.05932 | 112° | 71km/h | 16412m | 5.8m/s | -59.0°C | 5.8% | 0hPa | 2.6V | 00:00:00 | 00:00:00 | 08:30:00 | |
| S52SK | 2026-09-06 03:07:26 | 47.79846 | 15.05932 | 112° | 60km/h | 16412m | 5.9m/s | -59.1°C | 0% | 0hPa | 2.6V | 00:00:00 | 00:00:00 | 00:00:00 | |
| OE5MMP-10 | 2026-09-06 03:07:24 | 47.79869 | 15.05864 | 121° | 71km/h | 16395m | 6.1m/s | -58.9°C | 5.7% | 0hPa | 2.6V | 00:00:00 | 01:18:28 | 00:00:00 | |
| OE3MUC-15 | 2026-09-06 03:07:18 | 47.79926 | 15.05723 | 117° | 66km/h | 16360m | 8.2m/s | -58.9°C | 5.6% | 0hPa | 2.6V | 00:00:00 | 00:00:00 | 00:00:00 | |
| PETON7-10 | 2026-09-06 03:07:17 | 47.79933 | 15.05700 | 115° | 73km/h | 16354m | 4.0m/s | -58.8°C | 5.5% | 0hPa | 2.6V | 00:00:00 | 01:18:21 | 00:00:00 | |
| OE5DRO-10 | 2026-09-06 03:07:15 | 47.79948 | 15.05656 | 121° | 73km/h | 16342m | 5.6m/s | -58.8°C | 5.6% | 0hPa | 2.6V | 00:00:00 | 00:00:00 | 00:00:00 | |
| OE5MMP-10 | 2026-09-06 03:07:14 | 47.79957 | 15.05635 | 121° | 75km/h | 16337m | 5.0m/s | -58.8°C | 5.6% | 0hPa | 2.6V | 00:00:00 | 01:18:18 | 00:00:00 | |
| OE5WHR-10 | 2026-09-06 03:07:12 | 47.79975 | 15.05589 | 122° | 77km/h | 16325m | 5.2m/s | -58.7°C | 5.6% | 0hPa | 2.6V | 00:00:00 | 01:18:16 | 00:00:00 | |
| OE3OSB-13 | 2026-09-06 03:07:10 | 47.80008 | 15.05520 | 125° | 75km/h | 16307m | 5.5m/s | -58.7°C | 2.1% | -1.0hPa | 2.6V | 00:00:00 | 00:00:00 | 00:00:00 | |
| PG1ADW-2 | 2026-09-06 03:07:08 | 47.80018 | 15.05496 | 124° | 77km/h | 16302m | 4.8m/s | -58.6°C | 5.6% | 0hPa | 2.6V | 00:00:00 | 00:00:00 | 00:00:00 | |
| OE8JPQ-2 | 2026-09-06 03:07:07 | 47.80029 | 15.05472 | 124° | 77km/h | 16297m | 5.1m/s | -58.6°C | 5.6% | 0hPa | 2.6V | 00:00:00 | 00:00:00 | 00:00:00 | |
| OE3MUC-15 | 2026-09-06 03:07:06 | 47.80040 | 15.05449 | 125° | 75km/h | 16292m | 5.5m/s | -58.6°C | 5.5% | 0hPa | 2.6V | 00:00:00 | 00:00:00 | 00:00:00 | |
| OE5MMP-10 | 2026-09-06 03:07:04 | 47.80060 | 15.05401 | 121° | 75km/h | 16281m | 6.2m/s | -58.6°C | 5.5% | 0hPa | 2.6V | 00:00:00 | 01:18:08 | 08:30:00 | |
| OE3MUC-15 | 2026-09-06 03:07:02 | 47.80078 | 15.05354 | 120° | 71km/h | 16271m | 5.4m/s | -58.7°C | 5.5% | 0hPa | 2.6V | 00:00:00 | 00:00:00 | 00:00:00 | |
| OE3MUC-15 | 2026-09-06 03:06:58 | 47.80120 | 15.05264 | 128° | 77km/h | 16250m | 5.3m/s | -58.8°C | 5.5% | 0hPa | 2.6V | 00:00:00 | 00:00:00 | 00:00:00 | |
| OE3MUC-15 | 2026-09-06 03:06:54 | 47.80173 | 15.05176 | 131° | 80km/h | 16227m | 4.9m/s | -58.9°C | 5.7% | 0hPa | 2.6V | 00:00:00 | 00:00:00 | 00:00:00 | |
| OE5WHR-10 | 2026-09-06 03:06:51 | 47.80210 | 15.05104 | 124° | 78km/h | 16211m | 5.2m/s | -59.0°C | 5.6% | 0hPa | 2.6V | 00:00:00 | 00:00:00 | 00:00:00 | |
| OE3MUC-15 | 2026-09-06 03:06:50 | 47.80221 | 15.05079 | 122° | 77km/h | 16206m | 5.3m/s | -59.0°C | 5.7% | 0hPa | 2.7V | 00:00:00 | 00:00:00 | 00:00:00 | |
| PG1ADW-2 | 2026-09-06 03:06:48 | 47.80242 | 15.05030 | 123° | 77km/h | 16195m | 5.2m/s | -59.1°C | 5.7% | 0hPa | 2.6V | 00:00:00 | 01:17:52 | 00:00:00 | |
| OE8JPQ-2 | 2026-09-06 03:06:47 | 47.80253 | 15.05006 | 124° | 77km/h | 16190m | 4.2m/s | -59.1°C | 5.8% | 0hPa | 2.7V | 00:00:00 | 01:17:51 | 00:00:00 | |
| OE3MUC-15 | 2026-09-06 03:06:46 | 47.80264 | 15.04981 | 123° | 78km/h | 16185m | 6.8m/s | -59.2°C | 5.8% | 0hPa | 2.7V | 00:00:00 | 00:00:00 | 00:00:00 | |
| OE3JTB-15 | 2026-09-06 03:06:45 | 47.80275 | 15.04956 | 124° | 73km/h | 16179m | 3.9m/s | -59.2°C | 5.8% | 0hPa | 2.7V | 00:00:00 | 00:00:00 | 00:00:00 | |
| OE5MMP-10 | 2026-09-06 03:06:44 | 47.80286 | 15.04931 | 126° | 78km/h | 16174m | 7.1m/s | -59.2°C | 5.8% | 0hPa | 2.7V | 00:00:00 | 01:17:48 | 00:00:00 | |
| OE3MUC-15 | 2026-09-06 03:06:42 | 47.80309 | 15.04883 | 125° | 78km/h | 16162m | 5.0m/s | -59.2°C | 5.8% | 0hPa | 2.7V | 00:00:00 | 01:17:46 | 00:00:00 | |
| OE3OSB-13 | 2026-09-06 03:06:39 | 47.80353 | 15.04787 | 125° | 75km/h | 16140m | 4.5m/s | -59.2°C | 2.3% | -1.0hPa | 2.7V | 00:00:00 | 00:00:00 | 00:00:00 | |
| OE3MUC-15 | 2026-09-06 03:06:38 | 47.80353 | 15.04786 | 126° | 77km/h | 16140m | 4.4m/s | -59.1°C | 5.8% | 0hPa | 2.7V | 00:00:00 | 00:00:00 | 08:30:00 | |
| OE5DRO-10 | 2026-09-06 03:06:37 | 47.80364 | 15.04763 | 126° | 73km/h | 16135m | 5.4m/s | -59.1°C | 5.8% | 0hPa | 2.6V | 00:00:00 | 00:00:00 | 00:00:00 | |
| OE5MMP-10 | 2026-09-06 03:06:34 | 47.80399 | 15.04693 | 127° | 73km/h | 16121m | 5.2m/s | -59.2°C | 5.9% | 0hPa | 2.6V | 00:00:00 | 01:17:38 | 00:00:00 | |
| OE5FHM-15 | 2026-09-06 03:06:32 | 47.80422 | 15.04646 | 125° | 71km/h | 16111m | 6.2m/s | -59.2°C | 5.9% | 0hPa | 2.7V | 00:00:00 | 01:17:36 | 00:00:00 | |
| OE5WHR-10 | 2026-09-06 03:06:30 | 47.80443 | 15.04599 | 125° | 71km/h | 16099m | 5.5m/s | -59.3°C | 5.9% | 0hPa | 2.7V | 00:00:00 | 00:00:00 | 00:00:00 | |
| PG1ADW-2 | 2026-09-06 03:06:28 | 47.80463 | 15.04553 | 121° | 69km/h | 16088m | 5.2m/s | -59.4°C | 6.0% | 0hPa | 2.7V | 00:00:00 | 00:00:00 | 00:00:00 | |
| OE8JPQ-2 | 2026-09-06 03:06:27 | 47.80472 | 15.04530 | 120° | 69km/h | 16083m | 4.4m/s | -59.4°C | 6.0% | 0hPa | 2.7V | 00:00:00 | 00:00:00 | 00:00:00 | |
| OE3MUC-15 | 2026-09-06 03:06:26 | 47.80481 | 15.04508 | 122° | 68km/h | 16078m | 5.6m/s | -59.4°C | 6.0% | 0hPa | 2.6V | 00:00:00 | 00:00:00 | 00:00:00 | |
| OE5MMP-10 | 2026-09-06 03:06:24 | 47.80498 | 15.04464 | 119° | 69km/h | 16068m | 5.6m/s | -59.3°C | 6.1% | 0hPa | 2.7V | 00:00:00 | 01:17:28 | 00:00:00 | |
| OE3MUC-15 | 2026-09-06 03:06:22 | 47.80515 | 15.04421 | 124° | 68km/h | 16057m | 6.4m/s | -59.3°C | 6.1% | 0hPa | 2.7V | 00:00:00 | 00:00:00 | 00:00:00 | |
| OE3MUC-15 | 2026-09-06 03:06:18 | 47.80556 | 15.04338 | 127° | 69km/h | 16037m | 4.3m/s | -59.2°C | 6.0% | 0hPa | 2.7V | 00:00:00 | 00:00:00 | 00:00:00 | |
| PETON7-10 | 2026-09-06 03:06:17 | 47.80567 | 15.04317 | 128° | 73km/h | 16032m | 5.3m/s | -59.1°C | 6.0% | 0hPa | 2.7V | 00:00:00 | 00:00:00 | 00:00:00 | |
| OE3JTB-15 | 2026-09-06 03:06:16 | 47.80578 | 15.04296 | 128° | 75km/h | 16027m | 4.0m/s | -59.1°C | 6.0% | 0hPa | 2.6V | 00:00:00 | 01:17:20 | 00:00:00 | |
| OE3MUC-15 | 2026-09-06 03:06:14 | 47.80600 | 15.04254 | 128° | 73km/h | 16017m | 4.2m/s | -59.0°C | 6.0% | 0hPa | 2.6V | 00:00:00 | 00:00:00 | 00:00:00 | |
| OE3MUC-15 | 2026-09-06 03:06:10 | 47.80646 | 15.04168 | 131° | 73km/h | 15996m | 4.7m/s | -58.9°C | 5.9% | 0hPa | 2.7V | 00:00:00 | 00:00:00 | 00:00:00 | |
| OE5WHR-10 | 2026-09-06 03:06:09 | 47.80658 | 15.04147 | 132° | 75km/h | 15990m | 6.1m/s | -58.9°C | 5.9% | 0hPa | 2.7V | 00:00:00 | 01:17:13 | 00:00:00 | |
| OE3OSB-13 | 2026-09-06 03:06:08 | 47.80683 | 15.04106 | 130° | 71km/h | 15980m | 5.1m/s | -58.9°C | 2.4% | -1.0hPa | 2.7V | 00:00:00 | 00:00:00 | 00:00:00 | |
| OE8JPQ-2 | 2026-09-06 03:06:07 | 47.80683 | 15.04106 | 131° | 75km/h | 15980m | 5.1m/s | -58.8°C | 5.9% | 0hPa | 2.7V | 00:00:00 | 00:00:00 | 00:00:00 | |
| OE3MUC-15 | 2026-09-06 03:06:06 | 47.80695 | 15.04085 | 129° | 73km/h | 15975m | 5.4m/s | -58.8°C | 5.9% | 0hPa | 2.7V | 00:00:00 | 00:00:00 | 00:00:00 | |
| OE5MMP-10 | 2026-09-06 03:06:04 | 47.80718 | 15.04042 | 129° | 73km/h | 15964m | 6.0m/s | -58.8°C | 5.9% | 0hPa | 2.7V | 00:00:00 | 01:17:08 | 00:00:00 | |
| OE5FHM-15 | 2026-09-06 03:06:02 | 47.80740 | 15.03999 | 127° | 78km/h | 15953m | 5.8m/s | -58.9°C | 5.9% | 0hPa | 2.7V | 00:00:00 | 01:17:06 | 00:00:00 | |
| OE5DRO-10 | 2026-09-06 03:05:59 | 47.80773 | 15.03935 | 130° | 78km/h | 15938m | 3.1m/s | -58.9°C | 6.0% | 0hPa | 2.7V | 00:00:00 | 00:00:00 | 00:00:00 | |
| OE3MUC-15 | 2026-09-06 03:05:58 | 47.80785 | 15.03915 | 130° | 73km/h | 15933m | 6.4m/s | -58.9°C | 6.0% | 0hPa | 2.6V | 00:00:00 | 00:00:00 | 00:00:00 | |
| OE3MUC-15 | 2026-09-06 03:05:54 | 47.80837 | 15.03833 | 134° | 78km/h | 15911m | 5.7m/s | -58.9°C | 6.0% | 0hPa | 2.6V | 00:00:00 | 00:00:00 | 00:00:00 | |
| OE3MUC-15 | 2026-09-06 03:05:50 | 47.80892 | 15.03747 | 132° | 77km/h | 15890m | 4.4m/s | -59.0°C | 6.1% | 0hPa | 2.6V | 00:00:00 | 00:00:00 | 00:00:00 | |
| OE5WHR-10 | 2026-09-06 03:05:48 | 47.80917 | 15.03703 | 130° | 82km/h | 15879m | 5.8m/s | -58.9°C | 6.1% | 0hPa | 2.7V | 00:00:00 | 00:00:00 | 08:30:00 | |
| OE8JPQ-2 | 2026-09-06 03:05:47 | 47.80929 | 15.03681 | 130° | 82km/h | 15874m | 5.3m/s | -58.8°C | 6.1% | 0hPa | 2.6V | 00:00:00 | 01:16:51 | 00:00:00 | |
| OE3MUC-15 | 2026-09-06 03:05:46 | 47.80942 | 15.03659 | 130° | 80km/h | 15869m | 3.6m/s | -58.8°C | 6.2% | 0hPa | 2.6V | 00:00:00 | 00:00:00 | 00:00:00 | |
| OE5MMP-10 | 2026-09-06 03:05:44 | 47.80968 | 15.03612 | 130° | 82km/h | 15859m | 4.6m/s | -58.7°C | 6.1% | 0hPa | 2.6V | 00:00:00 | 01:16:48 | 00:00:00 | |
| OE5DRO-10 | 2026-09-06 03:05:40 | 47.81021 | 15.03519 | 131° | 84km/h | 15838m | 6.1m/s | -58.6°C | 6.0% | 0hPa | 2.6V | 00:00:00 | 00:00:00 | 00:00:00 | |
| OE3OSB-13 | 2026-09-06 03:05:36 | 47.81074 | 15.03426 | 131° | 84km/h | 15816m | 6.2m/s | -58.6°C | 2.6% | -1.0hPa | 2.6V | 00:00:00 | 00:00:00 | 00:00:00 | |
| OE5MMP-10 | 2026-09-06 03:05:34 | 47.81103 | 15.03380 | 133° | 84km/h | 15806m | 5.4m/s | -58.8°C | 6.1% | 0hPa | 2.6V | 00:00:00 | 01:16:38 | 08:30:00 | |
| OE5DXL-15 | 2026-09-06 03:05:33 | 47.81117 | 15.03358 | 134° | 84km/h | 15801m | 5.5m/s | -58.9°C | 6.1% | 0hPa | 2.6V | 00:00:00 | 00:00:00 | 00:00:00 | |
| OE5FHM-15 | 2026-09-06 03:05:32 | 47.81130 | 15.03336 | 130° | 84km/h | 15796m | 3.7m/s | -58.9°C | 6.1% | 0hPa | 2.6V | 00:00:00 | 01:16:36 | 00:00:00 | |
| PG1ADW-2 | 2026-09-06 03:05:28 | 47.81180 | 15.03234 | 122° | 86km/h | 15774m | 6.4m/s | -58.9°C | 6.1% | 0hPa | 2.6V | 00:00:00 | 01:16:32 | 00:00:00 | |
| OE8JPQ-2 | 2026-09-06 03:05:27 | 47.81191 | 15.03206 | 122° | 84km/h | 15769m | 4.7m/s | -58.9°C | 6.1% | 0hPa | 2.6V | 00:00:00 | 00:00:00 | 00:00:00 | |
| OE5MMP-10 | 2026-09-06 03:05:24 | 47.81227 | 15.03122 | 125° | 84km/h | 15753m | 6.1m/s | -58.9°C | 6.1% | 0hPa | 2.7V | 00:00:00 | 01:16:28 | 00:00:00 | |
| OE5DRO-10 | 2026-09-06 03:05:21 | 47.81267 | 15.03045 | 130° | 84km/h | 15737m | 5.2m/s | -59.1°C | 6.2% | 0hPa | 2.7V | 00:00:00 | 00:00:00 | 00:00:00 | |
| OE3MUC-15 | 2026-09-06 03:05:18 | 47.81306 | 15.02973 | 128° | 84km/h | 15721m | 3.7m/s | -59.2°C | 6.2% | 0hPa | 2.7V | 00:00:00 | 00:00:00 | 00:00:00 | |
| PETON7-10 | 2026-09-06 03:05:17 | 47.81319 | 15.02948 | 129° | 84km/h | 15716m | 5.5m/s | -59.2°C | 6.2% | 0hPa | 2.7V | 00:00:00 | 00:00:00 | 00:00:00 | |
| OE5MMP-10 | 2026-09-06 03:05:14 | 47.81357 | 15.02872 | 126° | 84km/h | 15702m | 5.3m/s | -59.4°C | 6.3% | 0hPa | 2.7V | 00:00:00 | 01:16:18 | 00:00:00 | |
| PG1ADW-2 | 2026-09-06 03:05:08 | 47.81433 | 15.02723 | 130° | 84km/h | 15673m | 4.1m/s | -59.6°C | 6.3% | 0hPa | 2.7V | 00:00:00 | 00:00:00 | 00:00:00 | |
| OE8JPQ-2 | 2026-09-06 03:05:07 | 47.81447 | 15.02697 | 129° | 84km/h | 15668m | 5.1m/s | -59.6°C | 6.4% | 0hPa | 2.7V | 00:00:00 | 00:00:00 | 00:00:00 | |
| OE3MUC-15 | 2026-09-06 03:05:06 | 47.81460 | 15.02671 | 127° | 86km/h | 15663m | 3.5m/s | -59.7°C | 6.4% | 0hPa | 2.7V | 00:00:00 | 00:00:00 | 00:00:00 | |
| OE3OSB-13 | 2026-09-06 03:05:05 | 47.81473 | 15.02644 | 124° | 86km/h | 15659m | 5.3m/s | -59.8°C | 2.9% | -1.0hPa | 2.7V | 00:00:00 | 00:00:00 | 00:00:00 | |
| OE5MMP-10 | 2026-09-06 03:05:04 | 47.81485 | 15.02618 | 124° | 84km/h | 15654m | 5.2m/s | -59.8°C | 6.4% | 0hPa | 2.7V | 00:00:00 | 01:16:08 | 00:00:00 | |
| OE5DXL-15 | 2026-09-06 03:05:03 | 47.81497 | 15.02592 | 124° | 84km/h | 15649m | 4.9m/s | -60.0°C | 6.5% | 0hPa | 2.6V | 00:00:00 | 00:00:00 | 00:00:00 | |
| OE3MUC-15 | 2026-09-06 03:05:02 | 47.81509 | 15.02566 | 123° | 84km/h | 15643m | 6.1m/s | -60.2°C | 6.6% | 0hPa | 2.6V | 00:00:00 | 00:00:00 | 00:00:00 | |
| OE3MUC-15 | 2026-09-06 03:04:58 | 47.81556 | 15.02461 | 126° | 86km/h | 15620m | 5.7m/s | -60.9°C | 7.1% | 0hPa | 2.6V | 00:00:00 | 00:00:00 | 00:00:00 | |
| OE5MMP-10 | 2026-09-06 03:04:54 | 47.81603 | 15.02356 | 123° | 82km/h | 15600m | 4.6m/s | -61.3°C | 7.3% | 0hPa | 2.6V | 00:00:00 | 01:15:58 | 00:00:00 | |
| S52SK | 2026-09-06 03:04:53 | 47.81603 | 15.02356 | 123° | 82km/h | 15600m | 4.7m/s | -61.4°C | 0% | 0hPa | 2.6V | 00:00:00 | 00:00:00 | 00:00:00 | |
| OE3MUC-15 | 2026-09-06 03:04:50 | 47.81646 | 15.02250 | 121° | 82km/h | 15580m | 3.8m/s | -61.4°C | 7.5% | 0hPa | 2.6V | 00:00:00 | 00:00:00 | 08:30:00 | |
| OE3JTB-15 | 2026-09-06 03:04:49 | 47.81656 | 15.02224 | 122° | 86km/h | 15575m | 5.8m/s | -61.4°C | 7.4% | 0hPa | 2.7V | 00:00:00 | 01:15:53 | 00:00:00 | |
| PG1ADW-2 | 2026-09-06 03:04:48 | 47.81667 | 15.02197 | 122° | 84km/h | 15569m | 5.5m/s | -61.5°C | 7.5% | 0hPa | 2.7V | 00:00:00 | 00:00:00 | 08:30:00 | |
| OE8JPQ-2 | 2026-09-06 03:04:47 | 47.81678 | 15.02171 | 125° | 84km/h | 15563m | 5.9m/s | -61.6°C | 7.5% | 0hPa | 2.6V | 00:00:00 | 01:15:51 | 00:00:00 | |
| OE3MUC-15 | 2026-09-06 03:04:46 | 47.81690 | 15.02145 | 125° | 84km/h | 15558m | 3.9m/s | -61.7°C | 7.7% | 0hPa | 2.6V | 00:00:00 | 00:00:00 | 00:00:00 | |
| OE5WHR-10 | 2026-09-06 03:04:45 | 47.81702 | 15.02120 | 126° | 84km/h | 15553m | 5.7m/s | -61.7°C | 7.8% | 0hPa | 2.6V | 00:00:00 | 00:00:00 | 00:00:00 | |
| OE5MMP-10 | 2026-09-06 03:04:44 | 47.81714 | 15.02094 | 125° | 84km/h | 15548m | 4.8m/s | -61.7°C | 7.8% | 0hPa | 2.7V | 00:00:00 | 01:15:48 | 00:00:00 | |
| OE5DRO-10 | 2026-09-06 03:04:43 | 47.81726 | 15.02068 | 125° | 84km/h | 15543m | 3.9m/s | -61.7°C | 7.8% | 0hPa | 2.7V | 00:00:00 | 00:00:00 | 00:00:00 | |
| OE3MUC-15 | 2026-09-06 03:04:42 | 47.81738 | 15.02042 | 124° | 82km/h | 15538m | 5.8m/s | -61.6°C | 7.7% | 0hPa | 2.7V | 00:00:00 | 00:00:00 | 00:00:00 | |
| OE3MUC-15 | 2026-09-06 03:04:38 | 47.81783 | 15.01938 | 124° | 84km/h | 15518m | 5.5m/s | -61.5°C | 7.7% | 0hPa | 2.7V | 00:00:00 | 00:00:00 | 00:00:00 | |
| OE3OSB-13 | 2026-09-06 03:04:35 | 47.81834 | 15.01836 | 127° | 86km/h | 15497m | 4.4m/s | -61.5°C | 3.5% | -1.0hPa | 2.6V | 00:00:00 | 00:00:00 | 00:00:00 | |
| OE5MMP-10 | 2026-09-06 03:04:34 | 47.81834 | 15.01836 | 128° | 86km/h | 15497m | 4.3m/s | -61.4°C | 7.6% | 0hPa | 2.6V | 00:00:00 | 01:15:38 | 00:00:00 | |
| OE5FHM-15 | 2026-09-06 03:04:32 | 47.81861 | 15.01784 | 128° | 88km/h | 15487m | 5.5m/s | -61.4°C | 7.6% | 0hPa | 2.7V | 00:00:00 | 01:15:36 | 00:00:00 | |
| OE3MUC-15 | 2026-09-06 03:04:30 | 47.81887 | 15.01732 | 126° | 84km/h | 15476m | 4.8m/s | -61.4°C | 7.7% | 0hPa | 2.7V | 00:00:00 | 00:00:00 | 00:00:00 | |
| PG1ADW-2 | 2026-09-06 03:04:28 | 47.81912 | 15.01681 | 126° | 88km/h | 15466m | 3.1m/s | -61.5°C | 7.8% | 0hPa | 2.7V | 00:00:00 | 00:00:00 | 00:00:00 | |
| OE8JPQ-2 | 2026-09-06 03:04:27 | 47.81924 | 15.01656 | 126° | 88km/h | 15461m | 5.6m/s | -61.6°C | 7.8% | 0hPa | 2.7V | 00:00:00 | 00:00:00 | 08:30:00 | |
| OE3MUC-15 | 2026-09-06 03:04:26 | 47.81936 | 15.01630 | 125° | 88km/h | 15456m | 5.7m/s | -61.6°C | 7.8% | 0hPa | 2.7V | 00:00:00 | 00:00:00 | 00:00:00 | |
| OE5MMP-10 | 2026-09-06 03:04:24 | 47.81962 | 15.01576 | 127° | 88km/h | 15445m | 6.1m/s | -61.6°C | 7.9% | 0hPa | 2.7V | 00:00:00 | 01:15:28 | 00:00:00 | |
| OE3MUC-15 | 2026-09-06 03:04:22 | 47.81991 | 15.01524 | 129° | 89km/h | 15434m | 5.6m/s | -61.6°C | 7.9% | 0hPa | 2.7V | 00:00:00 | 00:00:00 | 00:00:00 | |
| OE3JTB-15 | 2026-09-06 03:04:20 | 47.82019 | 15.01470 | 129° | 88km/h | 15424m | 5.4m/s | -61.6°C | 7.9% | 0hPa | 2.7V | 00:00:00 | 00:00:00 | 00:00:00 | |
| OE3MUC-15 | 2026-09-06 03:04:18 | 47.82047 | 15.01418 | 127° | 86km/h | 15413m | 5.9m/s | -61.6°C | 7.9% | 0hPa | 2.7V | 00:00:00 | 00:00:00 | 00:00:00 | |
| PETON7-10 | 2026-09-06 03:04:17 | 47.82060 | 15.01391 | 128° | 86km/h | 15408m | 4.4m/s | -61.6°C | 8.0% | 0hPa | 2.7V | 00:00:00 | 01:15:21 | 00:00:00 | |
| OE5MMP-10 | 2026-09-06 03:04:14 | 47.82100 | 15.01316 | 129° | 88km/h | 15392m | 6.0m/s | -61.7°C | 8.0% | 0hPa | 2.7V | 00:00:00 | 01:15:18 | 00:00:00 | |
| OE3MUC-15 | 2026-09-06 03:04:10 | 47.82154 | 15.01215 | 129° | 88km/h | 15370m | 5.2m/s | -61.7°C | 8.2% | 0hPa | 2.7V | 00:00:00 | 00:00:00 | 00:00:00 | |
| PG1ADW-2 | 2026-09-06 03:04:08 | 47.82182 | 15.01162 | 128° | 88km/h | 15360m | 4.0m/s | -61.9°C | 8.3% | 0hPa | 2.7V | 00:00:00 | 01:15:12 | 00:00:00 | |
| OE8JPQ-2 | 2026-09-06 03:04:07 | 47.82195 | 15.01135 | 127° | 88km/h | 15355m | 6.3m/s | -61.8°C | 8.3% | 0hPa | 2.7V | 00:00:00 | 00:00:00 | 00:00:00 | |
| OE3MUC-15 | 2026-09-06 03:04:06 | 47.82208 | 15.01109 | 127° | 86km/h | 15349m | 4.2m/s | -61.8°C | 8.4% | 0hPa | 2.7V | 00:00:00 | 00:00:00 | 00:00:00 | |
| OE5DRO-10 | 2026-09-06 03:04:05 | 47.82221 | 15.01083 | 126° | 88km/h | 15344m | 6.0m/s | -61.8°C | 8.4% | 0hPa | 2.7V | 00:00:00 | 00:00:00 | 08:30:00 | |
| OE5MMP-10 | 2026-09-06 03:04:04 | 47.82234 | 15.01057 | 126° | 86km/h | 15338m | 5.0m/s | -61.8°C | 8.4% | 0hPa | 2.7V | 00:00:00 | 01:15:08 | 08:30:00 | |
| OE5WHR-10 | 2026-09-06 03:04:03 | 47.82247 | 15.01030 | 126° | 89km/h | 15334m | 4.7m/s | -61.7°C | 8.3% | 0hPa | 2.7V | 00:00:00 | 01:15:07 | 00:00:00 | |
| OE5FHM-15 | 2026-09-06 03:04:02 | 47.82260 | 15.01004 | 127° | 91km/h | 15328m | 5.3m/s | -61.7°C | 8.4% | 0hPa | 2.7V | 00:00:00 | 01:15:06 | 00:00:00 | |
| OE5MMP-10 | 2026-09-06 03:03:54 | 47.82374 | 15.00808 | 133° | 91km/h | 15286m | 4.2m/s | -61.6°C | 8.6% | 0hPa | 2.7V | 00:00:00 | 01:14:58 | 00:00:00 | |
| OE3JTB-15 | 2026-09-06 03:03:51 | 47.82419 | 15.00736 | 133° | 97km/h | 15270m | 5.1m/s | -61.5°C | 8.5% | 0hPa | 2.7V | 00:00:00 | 00:00:00 | 00:00:00 | |
| OE3MUC-15 | 2026-09-06 03:03:50 | 47.82434 | 15.00711 | 131° | 91km/h | 15264m | 6.1m/s | -61.5°C | 8.6% | 0hPa | 2.7V | 00:00:00 | 00:00:00 | 00:00:00 | |
| PG1ADW-2 | 2026-09-06 03:03:48 | 47.82464 | 15.00660 | 131° | 95km/h | 15254m | 6.0m/s | -61.5°C | 8.6% | 0hPa | 2.7V | 00:00:00 | 00:00:00 | 00:00:00 | |
| PETON7-10 | 2026-09-06 03:03:47 | 47.82479 | 15.00633 | 132° | 93km/h | 15248m | 5.0m/s | -61.5°C | 8.6% | 0hPa | 2.7V | 00:00:00 | 00:00:00 | 00:00:00 | |
| OE3MUC-15 | 2026-09-06 03:03:46 | 47.82495 | 15.00607 | 130° | 93km/h | 15243m | 5.2m/s | -61.5°C | 8.6% | 0hPa | 2.7V | 00:00:00 | 01:14:50 | 00:00:00 | |
| OE5MMP-10 | 2026-09-06 03:03:44 | 47.82525 | 15.00553 | 132° | 93km/h | 15232m | 5.7m/s | -61.5°C | 8.6% | 0hPa | 2.7V | 00:00:00 | 01:14:48 | 00:00:00 | |
| S52SK | 2026-09-06 03:03:43 | 47.82525 | 15.00553 | 132° | 93km/h | 15232m | 5.8m/s | -61.6°C | 0% | 0hPa | 2.7V | 00:00:00 | 00:00:00 | 00:00:00 | |
| OE5WHR-10 | 2026-09-06 03:03:42 | 47.82558 | 15.00503 | 134° | 99km/h | 15222m | 4.8m/s | -61.7°C | 8.7% | 0hPa | 2.7V | 00:00:00 | 00:00:00 | 00:00:00 | |
| S52SK | 2026-09-06 03:03:38 | 47.82607 | 15.00427 | 137° | 95km/h | 15206m | 6.6m/s | -61.9°C | 0% | 0hPa | 2.7V | 00:00:00 | 00:00:00 | 00:00:00 | |
| OE5MMP-10 | 2026-09-06 03:03:34 | 47.82689 | 15.00300 | 134° | 102km/h | 15180m | 5.9m/s | -61.9°C | 9.4% | 0hPa | 2.7V | 00:00:00 | 01:14:38 | 00:00:00 | |
| OE5FHM-15 | 2026-09-06 03:03:32 | 47.82722 | 15.00246 | 131° | 102km/h | 15169m | 6.6m/s | -62.0°C | 9.4% | 0hPa | 2.7V | 00:00:00 | 01:14:36 | 00:00:00 | |
| PG1ADW-2 | 2026-09-06 03:03:28 | 47.82792 | 15.00129 | 134° | 104km/h | 15149m | 3.9m/s | -62.1°C | 9.5% | 0hPa | 2.7V | 00:00:00 | 00:00:00 | 00:00:00 | |
| OE8JPQ-2 | 2026-09-06 03:03:27 | 47.82810 | 15.00099 | 133° | 102km/h | 15143m | 6.2m/s | -62.1°C | 9.5% | 0hPa | 2.7V | 00:00:00 | 00:00:00 | 00:00:00 | |
| OE5MMP-10 | 2026-09-06 03:03:24 | 47.82861 | 15.00009 | 128° | 102km/h | 15126m | 6.2m/s | -62.1°C | 9.6% | 0hPa | 2.7V | 00:00:00 | 01:14:28 | 00:00:00 | |
| OE3JTB-15 | 2026-09-06 03:03:22 | 47.82892 | 14.99948 | 127° | 100km/h | 15112m | 5.9m/s | -62.2°C | 9.7% | 0hPa | 2.7V | 00:00:00 | 01:14:26 | 00:00:00 | |
| OE5WHR-10 | 2026-09-06 03:03:21 | 47.82908 | 14.99916 | 126° | 102km/h | 15108m | 3.4m/s | -62.2°C | 9.7% | 0hPa | 2.7V | 00:00:00 | 00:00:00 | 00:00:00 | |
| OE3MUC-15 | 2026-09-06 03:03:18 | 47.82953 | 14.99825 | 125° | 102km/h | 15089m | 7.5m/s | -62.1°C | 9.7% | 0hPa | 2.7V | 00:00:00 | 00:00:00 | 00:00:00 | |
| PETON7-10 | 2026-09-06 03:03:17 | 47.82967 | 14.99794 | 124° | 102km/h | 15082m | 6.4m/s | -62.1°C | 9.8% | 0hPa | 2.7V | 00:00:00 | 00:00:00 | 00:00:00 | |
| OE5MMP-10 | 2026-09-06 03:03:14 | 47.83009 | 14.99695 | 124° | 102km/h | 15065m | 8.1m/s | -62.2°C | 10.0% | 0hPa | 2.7V | 00:00:00 | 01:14:18 | 00:00:00 | |
| OE3MUC-15 | 2026-09-06 03:03:10 | 47.83065 | 14.99563 | 123° | 100km/h | 15042m | 5.2m/s | -62.3°C | 10.4% | 0hPa | 2.7V | 00:00:00 | 00:00:00 | 00:00:00 | |
| PG1ADW-2 | 2026-09-06 03:03:08 | 47.83092 | 14.99499 | 123° | 99km/h | 15030m | 5.2m/s | -62.5°C | 10.7% | 0hPa | 2.7V | 00:00:00 | 00:00:00 | 00:00:00 | |
| OE8JPQ-2 | 2026-09-06 03:03:07 | 47.83105 | 14.99468 | 121° | 99km/h | 15024m | 6.1m/s | -62.6°C | 10.9% | 0hPa | 2.7V | 00:00:00 | 00:00:00 | 00:00:00 | |
| OE3MUC-15 | 2026-09-06 03:03:06 | 47.83118 | 14.99435 | 119° | 102km/h | 15019m | 3.5m/s | -62.5°C | 10.9% | 0hPa | 2.7V | 00:00:00 | 00:00:00 | 00:00:00 | |
| OE5MMP-10 | 2026-09-06 03:03:04 | 47.83143 | 14.99368 | 121° | 99km/h | 15009m | 4.7m/s | -62.5°C | 10.8% | 0hPa | 2.7V | 00:00:00 | 01:14:08 | 00:00:00 | |
| OE5FHM-15 | 2026-09-06 03:03:02 | 47.83168 | 14.99302 | 118° | 95km/h | 14997m | 6.7m/s | -62.6°C | 11.0% | 0hPa | 2.7V | 00:00:00 | 01:14:06 | 00:00:00 | |
| OE3OSB-13 | 2026-09-06 03:03:01 | 47.83179 | 14.99269 | 116° | 99km/h | 14992m | 4.1m/s | -62.7°C | 6.4% | -1.0hPa | 2.7V | 00:00:00 | 00:00:00 | 00:00:00 | |
| OE5WHR-10 | 2026-09-06 03:03:00 | 47.83191 | 14.99236 | 119° | 95km/h | 14986m | 6.2m/s | -62.7°C | 11.1% | 0hPa | 2.7V | 00:00:00 | 01:14:04 | 00:00:00 | |
| OE3MUC-15 | 2026-09-06 03:02:58 | 47.83215 | 14.99173 | 123° | 95km/h | 14975m | 3.5m/s | -62.7°C | 11.3% | 0hPa | 2.7V | 00:00:00 | 00:00:00 | 00:00:00 | |
| OE3MUC-15 | 2026-09-06 03:02:54 | 47.83269 | 14.99053 | 125° | 95km/h | 14951m | 6.1m/s | -62.7°C | 11.3% | 0hPa | 2.7V | 00:00:00 | 00:00:00 | 00:00:00 | |
| OE3JTB-15 | 2026-09-06 03:02:53 | 47.83283 | 14.99023 | 124° | 95km/h | 14945m | 4.9m/s | -62.7°C | 11.4% | 0hPa | 2.7V | 00:00:00 | 00:00:00 | 00:00:00 | |
| OE3MUC-15 | 2026-09-06 03:02:50 | 47.83321 | 14.98932 | 121° | 97km/h | 14928m | 4.7m/s | -62.7°C | 11.7% | 0hPa | 2.7V | 00:00:00 | 00:00:00 | 00:00:00 | |
| OE5DRO-10 | 2026-09-06 03:02:49 | 47.83334 | 14.98901 | 122° | 93km/h | 14923m | 5.6m/s | -62.7°C | 11.8% | 0hPa | 2.7V | 00:00:00 | 00:00:00 | 00:00:00 | |
| PG1ADW-2 | 2026-09-06 03:02:48 | 47.83347 | 14.98870 | 122° | 95km/h | 14918m | 3.9m/s | -62.8°C | 11.9% | 0hPa | 2.7V | 00:00:00 | 01:13:52 | 00:00:00 | |
| OE3MUC-15 | 2026-09-06 03:02:46 | 47.83371 | 14.98806 | 119° | 93km/h | 14908m | 4.2m/s | -62.8°C | 12.0% | 0hPa | 2.7V | 00:00:00 | 00:00:00 | 00:00:00 | |
| OE5MMP-10 | 2026-09-06 03:02:44 | 47.83394 | 14.98745 | 120° | 91km/h | 14897m | 4.8m/s | -62.7°C | 12.1% | 0hPa | 2.7V | 00:00:00 | 01:13:48 | 00:00:00 | |
| OE3MUC-15 | 2026-09-06 03:02:42 | 47.83417 | 14.98685 | 120° | 91km/h | 14886m | 4.1m/s | -62.6°C | 12.1% | 0hPa | 2.7V | 00:00:00 | 00:00:00 | 00:00:00 | |
| OE5WHR-10 | 2026-09-06 03:02:39 | 47.83454 | 14.98599 | 123° | 95km/h | 14869m | 5.3m/s | -62.6°C | 12.1% | 0hPa | 2.7V | 00:00:00 | 00:00:00 | 08:30:00 | |
| OE3MUC-15 | 2026-09-06 03:02:38 | 47.83466 | 14.98571 | 121° | 91km/h | 14864m | 4.6m/s | -62.6°C | 12.3% | 0hPa | 2.7V | 00:00:00 | 00:00:00 | 00:00:00 | |
| OE5MMP-10 | 2026-09-06 03:02:34 | 47.83513 | 14.98451 | 120° | 99km/h | 14844m | 5.5m/s | -62.6°C | 12.5% | 0hPa | 2.7V | 00:00:00 | 01:13:38 | 08:30:00 | |
| OE5DXL-15 | 2026-09-06 03:02:33 | 47.83525 | 14.98419 | 120° | 99km/h | 14839m | 3.7m/s | -62.6°C | 12.6% | 0hPa | 2.7V | 00:00:00 | 00:00:00 | 08:30:00 | |
| OE5FHM-15 | 2026-09-06 03:02:32 | 47.83537 | 14.98388 | 120° | 99km/h | 14835m | 4.9m/s | -62.6°C | 12.6% | 0hPa | 2.7V | 00:00:00 | 01:13:36 | 00:00:00 | |
| OE3MUC-15 | 2026-09-06 03:02:30 | 47.83562 | 14.98322 | 119° | 100km/h | 14824m | 5.6m/s | -62.6°C | 12.8% | 0hPa | 2.7V | 00:00:00 | 00:00:00 | 00:00:00 | |
| PG1ADW-2 | 2026-09-06 03:02:28 | 47.83585 | 14.98256 | 118° | 99km/h | 14813m | 4.7m/s | -62.6°C | 12.9% | 0hPa | 2.7V | 00:00:00 | 00:00:00 | 00:00:00 | |
| OE8JPQ-2 | 2026-09-06 03:02:27 | 47.83597 | 14.98223 | 118° | 99km/h | 14808m | 4.9m/s | -62.5°C | 13.0% | 0hPa | 2.7V | 00:00:00 | 00:00:00 | 00:00:00 | |
| OE3MUC-15 | 2026-09-06 03:02:26 | 47.83608 | 14.98190 | 119° | 95km/h | 14803m | 5.6m/s | -62.5°C | 13.1% | 0hPa | 2.7V | 00:00:00 | 00:00:00 | 08:30:00 | |
| OE5MMP-10 | 2026-09-06 03:02:24 | 47.83632 | 14.98128 | 120° | 97km/h | 14793m | 3.7m/s | -62.5°C | 13.2% | 0hPa | 2.7V | 00:00:00 | 01:13:28 | 00:00:00 | |
| OE3MUC-15 | 2026-09-06 03:02:22 | 47.83657 | 14.98067 | 123° | 95km/h | 14783m | 4.0m/s | -62.5°C | 13.5% | 0hPa | 2.7V | 00:00:00 | 00:00:00 | 00:00:00 | |
| OE3MUC-15 | 2026-09-06 03:02:18 | 47.83708 | 14.97945 | 123° | 97km/h | 14763m | 4.8m/s | -62.6°C | 14.0% | 0hPa | 2.7V | 00:00:00 | 00:00:00 | 00:00:00 | |
| PETON7-10 | 2026-09-06 03:02:17 | 47.83720 | 14.97915 | 122° | 102km/h | 14758m | 6.0m/s | -62.6°C | 14.1% | 0hPa | 2.7V | 00:00:00 | 00:00:00 | 00:00:00 | |
| OE5MMP-10 | 2026-09-06 03:02:14 | 47.83758 | 14.97818 | 121° | 104km/h | 14743m | 5.7m/s | -62.7°C | 14.6% | 0hPa | 2.7V | 00:00:00 | 01:13:18 | 00:00:00 | |
| OE5DRO-10 | 2026-09-06 03:02:11 | 47.83798 | 14.97716 | 121° | 99km/h | 14728m | 4.1m/s | -62.8°C | 15.3% | 0hPa | 2.7V | 00:00:00 | 00:00:00 | 00:00:00 | |
| OE3MUC-15 | 2026-09-06 03:02:10 | 47.83812 | 14.97682 | 122° | 104km/h | 14723m | 6.0m/s | -62.8°C | 15.3% | 0hPa | 2.7V | 00:00:00 | 00:00:00 | 00:00:00 | |
| PG1ADW-2 | 2026-09-06 03:02:08 | 47.83840 | 14.97616 | 123° | 97km/h | 14714m | 4.7m/s | -62.8°C | 15.6% | 0hPa | 2.7V | 00:00:00 | 00:00:00 | 00:00:00 | |
| OE8JPQ-2 | 2026-09-06 03:02:07 | 47.83854 | 14.97584 | 121° | 97km/h | 14709m | 4.4m/s | -62.8°C | 15.9% | 0hPa | 2.7V | 00:00:00 | 00:00:00 | 00:00:00 | |
| OE3MUC-15 | 2026-09-06 03:02:06 | 47.83867 | 14.97551 | 121° | 99km/h | 14704m | 3.9m/s | -62.9°C | 16.1% | 0hPa | 2.7V | 00:00:00 | 00:00:00 | 00:00:00 | |
| OE5MMP-10 | 2026-09-06 03:02:04 | 47.83891 | 14.97486 | 119° | 99km/h | 14694m | 4.9m/s | -63.0°C | 16.5% | 0hPa | 2.7V | 00:00:00 | 01:13:08 | 00:00:00 | |
| OE5FHM-15 | 2026-09-06 03:02:02 | 47.83914 | 14.97422 | 118° | 93km/h | 14683m | 4.6m/s | -63.0°C | 16.9% | 0hPa | 2.7V | 00:00:00 | 01:13:06 | 00:00:00 | |
| OE3OSB-13 | 2026-09-06 03:01:59 | 47.83964 | 14.97299 | 125° | 97km/h | 14663m | 4.0m/s | -63.1°C | 11.8% | -1.0hPa | 2.7V | 00:00:00 | 00:00:00 | 00:00:00 | |
| OE3MUC-15 | 2026-09-06 03:01:58 | 47.83964 | 14.97299 | 126° | 100km/h | 14663m | 4.0m/s | -63.0°C | 17.5% | 0hPa | 2.7V | 00:00:00 | 00:00:00 | 00:00:00 | |
| OE5WHR-10 | 2026-09-06 03:01:57 | 47.83979 | 14.97268 | 125° | 91km/h | 14658m | 6.1m/s | -63.1°C | 17.8% | 0hPa | 2.7V | 00:00:00 | 01:13:01 | 00:00:00 | |
| OE3JTB-15 | 2026-09-06 03:01:55 | 47.84007 | 14.97206 | 125° | 88km/h | 14648m | 5.9m/s | -63.4°C | 18.6% | 0hPa | 2.7V | 00:00:00 | 01:12:59 | 00:00:00 | |
| OE5MMP-10 | 2026-09-06 03:01:54 | 47.84021 | 14.97175 | 122° | 91km/h | 14642m | 5.0m/s | -63.5°C | 19.0% | 0hPa | 2.7V | 00:00:00 | 01:12:58 | 00:00:00 | |
| OE5DRO-10 | 2026-09-06 03:01:52 | 47.84045 | 14.97113 | 120° | 88km/h | 14633m | 8.1m/s | -63.5°C | 19.2% | 0hPa | 2.7V | 00:00:00 | 00:00:00 | 00:00:00 | |
| OE3MUC-15 | 2026-09-06 03:01:50 | 47.84066 | 14.97052 | 118° | 89km/h | 14621m | 3.8m/s | -63.5°C | 19.8% | 0hPa | 2.7V | 00:00:00 | 00:00:00 | 08:30:00 | |
| PG1ADW-2 | 2026-09-06 03:01:48 | 47.84088 | 14.96993 | 122° | 86km/h | 14611m | 4.0m/s | -63.6°C | 20.7% | 0hPa | 2.7V | 00:00:00 | 00:00:00 | 08:30:00 | |
| PETON7-10 | 2026-09-06 03:01:47 | 47.84100 | 14.96964 | 124° | 86km/h | 14606m | 4.8m/s | -63.7°C | 20.8% | 0hPa | 2.7V | 00:00:00 | 00:00:00 | 00:00:00 | |
| OE3MUC-15 | 2026-09-06 03:01:46 | 47.84113 | 14.96935 | 123° | 93km/h | 14601m | 5.6m/s | -63.7°C | 21.1% | 0hPa | 2.7V | 00:00:00 | 00:00:00 | 00:00:00 | |
| OE5MMP-10 | 2026-09-06 03:01:44 | 47.84139 | 14.96877 | 125° | 86km/h | 14590m | 6.9m/s | -63.8°C | 21.7% | 0hPa | 2.7V | 00:00:00 | 01:12:48 | 00:00:00 | |
| OE5WHR-10 | 2026-09-06 03:01:36 | 47.84232 | 14.96662 | 122° | 82km/h | 14550m | 2.4m/s | -64.4°C | 25.5% | 0hPa | 2.7V | 00:00:00 | 00:00:00 | 00:00:00 | |
| OE5MMP-10 | 2026-09-06 03:01:34 | 47.84256 | 14.96609 | 125° | 82km/h | 14541m | 8.2m/s | -64.6°C | 26.7% | 0hPa | 2.7V | 00:00:00 | 01:12:38 | 00:00:00 | |
| OE5DRO-10 | 2026-09-06 03:01:33 | 47.84268 | 14.96584 | 128° | 82km/h | 14534m | 4.9m/s | -64.6°C | 27.2% | 0hPa | 2.7V | 00:00:00 | 00:00:00 | 00:00:00 | |
| OE5FHM-15 | 2026-09-06 03:01:32 | 47.84281 | 14.96559 | 128° | 88km/h | 14529m | 5.8m/s | -64.6°C | 27.7% | 0hPa | 2.7V | 00:00:00 | 01:12:36 | 00:00:00 | |
| OE5DXL-15 | 2026-09-06 03:01:31 | 47.84294 | 14.96534 | 129° | 88km/h | 14525m | 1.5m/s | -64.6°C | 28.4% | 0hPa | 2.7V | 00:00:00 | 00:00:00 | 00:00:00 | |
| PG1ADW-2 | 2026-09-06 03:01:28 | 47.84335 | 14.96461 | 130° | 84km/h | 14510m | 2.9m/s | -64.6°C | 29.5% | 0hPa | 2.7V | 00:00:00 | 01:12:32 | 00:00:00 | |
| OE8JPQ-2 | 2026-09-06 03:01:27 | 47.84348 | 14.96437 | 129° | 86km/h | 14505m | 6.3m/s | -64.6°C | 29.1% | 0hPa | 2.7V | 00:00:00 | 00:00:00 | 08:30:00 | |
| OE3JTB-15 | 2026-09-06 03:01:26 | 47.84360 | 14.96413 | 129° | 89km/h | 14499m | 5.6m/s | -64.5°C | 29.4% | 0hPa | 2.7V | 00:00:00 | 00:00:00 | 08:30:00 | |
| OE5MMP-10 | 2026-09-06 03:01:24 | 47.84386 | 14.96366 | 129° | 80km/h | 14487m | 5.5m/s | -64.4°C | 29.6% | 0hPa | 2.7V | 00:00:00 | 01:12:28 | 00:00:00 | |
| OE3MUC-15 | 2026-09-06 03:01:18 | 47.84471 | 14.96241 | 136° | 84km/h | 14451m | 6.4m/s | -64.3°C | 30.7% | 0hPa | 2.7V | 00:00:00 | 00:00:00 | 00:00:00 | |
| PETON7-10 | 2026-09-06 03:01:17 | 47.84485 | 14.96219 | 132° | 93km/h | 14446m | 5.2m/s | -64.2°C | 30.6% | 0hPa | 2.7V | 00:00:00 | 01:12:21 | 00:00:00 | |
| S52SK | 2026-09-06 03:01:16 | 47.84485 | 14.96219 | 133° | 82km/h | 14446m | 5.2m/s | -64.3°C | 0% | 0hPa | 2.7V | 00:00:00 | 00:00:00 | 00:00:00 | |
| OE5WHR-10 | 2026-09-06 03:01:15 | 47.84513 | 14.96170 | 131° | 95km/h | 14432m | 7.5m/s | -64.2°C | 30.1% | 0hPa | 2.7V | 00:00:00 | 00:00:00 | 00:00:00 | |
| OE5MMP-10 | 2026-09-06 03:01:14 | 47.84528 | 14.96145 | 133° | 95km/h | 14424m | 9.5m/s | -64.1°C | 30.6% | 0hPa | 2.7V | 00:00:00 | 01:12:18 | 00:00:00 | |
| OE3MUC-15 | 2026-09-06 03:01:10 | 47.84595 | 14.96047 | 135° | 97km/h | 14398m | 2.9m/s | -64.1°C | 32.4% | 0hPa | 2.7V | 00:00:00 | 00:00:00 | 00:00:00 | |
| PG1ADW-2 | 2026-09-06 03:01:08 | 47.84630 | 14.95996 | 138° | 99km/h | 14387m | 5.9m/s | -64.0°C | 32.8% | 0hPa | 2.7V | 00:00:00 | 00:00:00 | 00:00:00 | |
| OE8JPQ-2 | 2026-09-06 03:01:07 | 47.84648 | 14.95972 | 138° | 99km/h | 14382m | 4.2m/s | -64.0°C | 32.9% | 0hPa | 2.7V | 00:00:00 | 00:00:00 | 00:00:00 | |
| OE3MUC-15 | 2026-09-06 03:01:06 | 47.84666 | 14.95947 | 137° | 97km/h | 14376m | 7.2m/s | -64.0°C | 33.1% | 0hPa | 2.7V | 00:00:00 | 00:00:00 | 00:00:00 | |
| S52SK | 2026-09-06 03:01:05 | 47.84666 | 14.95947 | 137° | 97km/h | 14376m | 7.3m/s | -64.1°C | 0% | 0hPa | 2.7V | 00:00:00 | 00:00:00 | 00:00:00 | |
| OE5MMP-10 | 2026-09-06 03:01:04 | 47.84702 | 14.95896 | 137° | 97km/h | 14366m | 7.1m/s | -64.1°C | 33.7% | 0hPa | 2.7V | 00:00:00 | 01:12:08 | 08:30:00 | |
| OE5FHM-15 | 2026-09-06 03:01:02 | 47.84736 | 14.95848 | 137° | 108km/h | 14356m | 3.4m/s | -64.4°C | 35.1% | 0hPa | 2.7V | 00:00:00 | 01:12:06 | 00:00:00 | |
| OE3OSB-13 | 2026-09-06 03:00:57 | 47.84843 | 14.95701 | 137° | 99km/h | 14326m | 4.6m/s | -64.7°C | 29.9% | -1.0hPa | 2.7V | 00:00:00 | 00:00:00 | 00:00:00 | |
| OE5DRO-10 | 2026-09-06 03:00:55 | 47.84862 | 14.95675 | 137° | 110km/h | 14321m | 5.0m/s | -64.8°C | 39.2% | 0hPa | 2.7V | 00:00:00 | 00:00:00 | 00:00:00 | |
| OE5WHR-10 | 2026-09-06 03:00:54 | 47.84880 | 14.95649 | 137° | 111km/h | 14316m | 5.7m/s | -64.8°C | 39.3% | 0hPa | 2.7V | 00:00:00 | 01:11:58 | 00:00:00 | |
| OE3MUC-15 | 2026-09-06 03:00:50 | 47.84960 | 14.95541 | 140° | 102km/h | 14292m | 6.4m/s | -65.1°C | 39.8% | 0hPa | 2.7V | 00:00:00 | 01:11:54 | 00:00:00 | |
| PG1ADW-2 | 2026-09-06 03:00:48 | 47.85001 | 14.95496 | 147° | 117km/h | 14280m | 10.7m/s | -65.4°C | 40.2% | 0hPa | 2.7V | 00:00:00 | 00:00:00 | 00:00:00 | |
| OE8JPQ-2 | 2026-09-06 03:00:47 | 47.85022 | 14.95474 | 144° | 119km/h | 14271m | 6.6m/s | -65.6°C | 41.8% | 0hPa | 2.7V | 00:00:00 | 01:11:51 | 00:00:00 | |
| OE3MUC-15 | 2026-09-06 03:00:46 | 47.85043 | 14.95449 | 140° | 115km/h | 14264m | 8.2m/s | -65.7°C | 42.4% | 0hPa | 2.7V | 00:00:00 | 00:00:00 | 00:00:00 | |
| OE5MMP-10 | 2026-09-06 03:00:44 | 47.85086 | 14.95389 | 135° | 117km/h | 14247m | 10.4m/s | -65.6°C | 42.9% | 0hPa | 2.7V | 00:00:00 | 01:11:48 | 00:00:00 | |
| OE3MUC-15 | 2026-09-06 03:00:42 | 47.85127 | 14.95325 | 134° | 115km/h | 14231m | 7.4m/s | -65.6°C | 43.2% | 0hPa | 2.7V | 00:00:00 | 00:00:00 | 00:00:00 | |
| OE3MUC-15 | 2026-09-06 03:00:38 | 47.85207 | 14.95201 | 135° | 117km/h | 14206m | 5.5m/s | -66.1°C | 43.8% | 0hPa | 2.7V | 00:00:00 | 00:00:00 | 08:30:00 | |
| OE5DRO-10 | 2026-09-06 03:00:36 | 47.85249 | 14.95139 | 135° | 124km/h | 14195m | 5.8m/s | -66.4°C | 45.9% | 0hPa | 2.7V | 00:00:00 | 00:00:00 | 00:00:00 | |
| OE5MMP-10 | 2026-09-06 03:00:34 | 47.85291 | 14.95072 | 132° | 126km/h | 14184m | 4.3m/s | -66.5°C | 46.6% | 0hPa | 2.7V | 00:00:00 | 01:11:38 | 00:00:00 | |
| OE5WHR-10 | 2026-09-06 03:00:33 | 47.85312 | 14.95036 | 132° | 126km/h | 14179m | 6.4m/s | -66.5°C | 46.4% | 0hPa | 2.7V | 00:00:00 | 00:00:00 | 00:00:00 | |
| OE5FHM-15 | 2026-09-06 03:00:32 | 47.85333 | 14.95001 | 132° | 126km/h | 14172m | 7.3m/s | -66.5°C | 47.1% | 0hPa | 2.7V | 00:00:00 | 01:11:36 | 08:30:00 | |
| OE5DXL-15 | 2026-09-06 03:00:31 | 47.85353 | 14.94965 | 130° | 126km/h | 14166m | 5.2m/s | -66.6°C | 47.7% | 0hPa | 2.7V | 00:00:00 | 00:00:00 | 00:00:00 | |
| OE3MUC-15 | 2026-09-06 03:00:30 | 47.85373 | 14.94928 | 128° | 124km/h | 14159m | 6.7m/s | -66.7°C | 48.5% | 0hPa | 2.7V | 00:00:00 | 00:00:00 | 00:00:00 | |
| PG1ADW-2 | 2026-09-06 03:00:28 | 47.85411 | 14.94853 | 128° | 126km/h | 14149m | 6.4m/s | -66.8°C | 49.3% | 0hPa | 2.7V | 00:00:00 | 00:00:00 | 00:00:00 | |
| OE8JPQ-2 | 2026-09-06 03:00:27 | 47.85430 | 14.94816 | 128° | 126km/h | 14143m | 3.9m/s | -66.9°C | 50.2% | 0hPa | 2.7V | 00:00:00 | 00:00:00 | 00:00:00 | |
| OE3OSB-13 | 2026-09-06 03:00:26 | 47.85468 | 14.94741 | 125° | 124km/h | 14134m | 4.3m/s | -67.0°C | 40.2% | -1.0hPa | 2.7V | 00:00:00 | 00:00:00 | 00:00:00 | |
| OE5MMP-10 | 2026-09-06 03:00:24 | 47.85486 | 14.94703 | 126° | 128km/h | 14130m | 4.0m/s | -67.0°C | 50.7% | 0hPa | 2.7V | 00:00:00 | 01:11:28 | 00:00:00 | |
| OE3MUC-15 | 2026-09-06 03:00:22 | 47.85523 | 14.94627 | 126° | 128km/h | 14120m | 4.4m/s | -67.0°C | 50.9% | 0hPa | 2.7V | 00:00:00 | 00:00:00 | 00:00:00 | |
| OE3MUC-15 | 2026-09-06 03:00:18 | 47.85598 | 14.94472 | 128° | 130km/h | 14099m | 3.4m/s | -66.8°C | 51.0% | 0hPa | 2.7V | 00:00:00 | 00:00:00 | 00:00:00 | |
| PETON7-10 | 2026-09-06 03:00:17 | 47.85619 | 14.94434 | 129° | 128km/h | 14095m | 4.8m/s | -66.8°C | 50.6% | 0hPa | 2.7V | 00:00:00 | 00:00:00 | 08:30:00 | |
| OE3MUC-15 | 2026-09-06 03:00:14 | 47.85677 | 14.94316 | 126° | 122km/h | 14080m | 5.5m/s | -66.8°C | 50.7% | 0hPa | 2.7V | 00:00:00 | 00:00:00 | 00:00:00 | |
| DO3MHA-12 | 2026-09-06 03:00:13 | 47.85695 | 14.94278 | 125° | 122km/h | 14075m | 4.1m/s | -66.9°C | 51.6% | 0hPa | 2.7V | 00:00:00 | 01:11:17 | 00:00:00 | |
| OE5WHR-10 | 2026-09-06 03:00:12 | 47.85712 | 14.94240 | 124° | 126km/h | 14071m | 5.1m/s | -67.0°C | 51.6% | 0hPa | 2.7V | 00:00:00 | 00:00:00 | 00:00:00 | |
| OE3MUC-15 | 2026-09-06 03:00:10 | 47.85747 | 14.94162 | 122° | 126km/h | 14059m | 4.6m/s | -67.0°C | 52.1% | 0hPa | 2.7V | 00:00:00 | 00:00:00 | 00:00:00 | |
| PG1ADW-2 | 2026-09-06 03:00:08 | 47.85781 | 14.94083 | 124° | 126km/h | 14048m | 6.5m/s | -66.9°C | 52.2% | 0hPa | 2.7V | 00:00:00 | 01:11:12 | 00:00:00 | |
| OE8JPQ-2 | 2026-09-06 03:00:07 | 47.85798 | 14.94044 | 123° | 128km/h | 14042m | 5.9m/s | -66.9°C | 52.1% | 0hPa | 2.7V | 00:00:00 | 00:00:00 | 00:00:00 | |
| OE3MUC-15 | 2026-09-06 03:00:06 | 47.85815 | 14.94004 | 123° | 130km/h | 14036m | 4.7m/s | -66.9°C | 53.0% | 0hPa | 2.7V | 00:00:00 | 00:00:00 | 00:00:00 | |
| OE5MMP-10 | 2026-09-06 03:00:04 | 47.85851 | 14.93923 | 125° | 126km/h | 14024m | 4.4m/s | -66.9°C | 54.4% | 0hPa | 2.7V | 00:00:00 | 01:11:08 | 00:00:00 | |
| OE5FHM-15 | 2026-09-06 03:00:02 | 47.85888 | 14.93841 | 123° | 128km/h | 14015m | 4.5m/s | -66.8°C | 54.6% | 0hPa | 2.7V | 00:00:00 | 01:11:06 | 00:00:00 | |
| OE5DXL-15 | 2026-09-06 03:00:00 | 47.85925 | 14.93760 | 125° | 128km/h | 14004m | 7.7m/s | -66.8°C | 54.5% | 0hPa | 2.7V | 00:00:00 | 00:00:00 | 00:00:00 | |
| OE3JTB-15 | 2026-09-06 02:59:59 | 47.85943 | 14.93721 | 126° | 128km/h | 13998m | 3.8m/s | -66.9°C | 55.1% | 0hPa | 2.7V | 00:00:00 | 00:00:00 | 00:00:00 | |
| OE3MUC-15 | 2026-09-06 02:59:58 | 47.85961 | 14.93683 | 125° | 122km/h | 13993m | 6.9m/s | -66.9°C | 54.7% | 0hPa | 2.7V | 00:00:00 | 00:00:00 | 00:00:00 | |
| DO3MHA-12 | 2026-09-06 02:59:56 | 47.85995 | 14.93607 | 124° | 130km/h | 13982m | 5.8m/s | -67.0°C | 54.9% | 0hPa | 2.7V | 00:00:00 | 01:11:00 | 00:00:00 | |
| OE5MMP-10 | 2026-09-06 02:59:54 | 47.86028 | 14.93530 | 123° | 128km/h | 13971m | 4.1m/s | -67.0°C | 54.9% | 0hPa | 2.7V | 00:00:00 | 01:10:58 | 00:00:00 | |
| OE5WHR-10 | 2026-09-06 02:59:51 | 47.86080 | 14.93410 | 122° | 128km/h | 13950m | 4.4m/s | -66.9°C | 56.0% | 0hPa | 2.7V | 00:00:00 | 01:10:55 | 00:00:00 | |
| OE3MUC-15 | 2026-09-06 02:59:50 | 47.86097 | 14.93369 | 123° | 130km/h | 13944m | 6.9m/s | -66.9°C | 55.7% | 0hPa | 2.7V | 00:00:00 | 00:00:00 | 00:00:00 | |
| PG1ADW-2 | 2026-09-06 02:59:48 | 47.86134 | 14.93288 | 125° | 128km/h | 13933m | 5.4m/s | -66.8°C | 55.4% | 0hPa | 2.7V | 00:00:00 | 00:00:00 | 00:00:00 | |
| PETON7-10 | 2026-09-06 02:59:47 | 47.86152 | 14.93248 | 124° | 128km/h | 13927m | 6.1m/s | -66.8°C | 55.6% | 0hPa | 2.7V | 00:00:00 | 01:10:51 | 00:00:00 | |
| OE3MUC-15 | 2026-09-06 02:59:46 | 47.86170 | 14.93208 | 123° | 126km/h | 13922m | 4.9m/s | -66.8°C | 55.7% | 0hPa | 2.7V | 00:00:00 | 00:00:00 | 00:00:00 | |
| OE5MMP-10 | 2026-09-06 02:59:44 | 47.86205 | 14.93129 | 125° | 130km/h | 13910m | 4.2m/s | -66.7°C | 56.3% | 0hPa | 2.7V | 00:00:00 | 01:10:48 | 00:00:00 | |
| OE3MUC-15 | 2026-09-06 02:59:42 | 47.86241 | 14.93050 | 123° | 130km/h | 13900m | 4.8m/s | -66.6°C | 56.3% | 0hPa | 2.7V | 00:00:00 | 00:00:00 | 00:00:00 | |
| OE5DRO-10 | 2026-09-06 02:59:39 | 47.86295 | 14.92928 | 125° | 130km/h | 13885m | 4.0m/s | -66.5°C | 56.1% | 0hPa | 2.7V | 00:00:00 | 00:00:00 | 00:00:00 | |
| DB0NH | 2026-09-06 02:59:38 | 47.86314 | 14.92886 | 124° | 131km/h | 13879m | 6.6m/s | -66.4°C | 56.0% | 0hPa | 2.7V | 00:00:00 | 01:10:42 | 00:00:00 | |
| DO3MHA-12 | 2026-09-06 02:59:36 | 47.86351 | 14.92805 | 125° | 131km/h | 13868m | 5.9m/s | -66.4°C | 56.7% | 0hPa | 2.7V | 00:00:00 | 01:10:40 | 00:00:00 | |
| OE5MMP-10 | 2026-09-06 02:59:34 | 47.86386 | 14.92726 | 123° | 130km/h | 13858m | 6.2m/s | -66.3°C | 56.2% | 0hPa | 2.7V | 00:00:00 | 01:10:38 | 08:30:00 | |
| OE5FHM-15 | 2026-09-06 02:59:32 | 47.86420 | 14.92647 | 123° | 131km/h | 13848m | 6.1m/s | -66.2°C | 56.5% | 0hPa | 2.7V | 00:00:00 | 01:10:36 | 00:00:00 | |
| OE5DXL-15 | 2026-09-06 02:59:30 | 47.86455 | 14.92568 | 124° | 131km/h | 13838m | 5.2m/s | -66.1°C | 56.5% | 0hPa | 2.7V | 00:00:00 | 00:00:00 | 00:00:00 | |
| PG1ADW-2 | 2026-09-06 02:59:28 | 47.86491 | 14.92485 | 124° | 131km/h | 13826m | 5.2m/s | -66.0°C | 56.7% | 0hPa | 2.7V | 00:00:00 | 00:00:00 | 00:00:00 | |
| OE8JPQ-2 | 2026-09-06 02:59:27 | 47.86510 | 14.92443 | 124° | 131km/h | 13821m | 6.7m/s | -65.9°C | 57.2% | 0hPa | 2.7V | 00:00:00 | 00:00:00 | 00:00:00 | |
| DO3MHA-12 | 2026-09-06 02:59:25 | 47.86548 | 14.92358 | 124° | 130km/h | 13809m | 4.1m/s | -65.9°C | 58.6% | 0hPa | 2.7V | 00:00:00 | 01:10:29 | 00:00:00 | |
| OE5MMP-10 | 2026-09-06 02:59:24 | 47.86567 | 14.92316 | 124° | 130km/h | 13804m | 5.8m/s | -65.9°C | 58.1% | 0hPa | 2.7V | 00:00:00 | 01:10:28 | 00:00:00 | |
| OE3OSB-13 | 2026-09-06 02:59:23 | 47.86586 | 14.92276 | 125° | 130km/h | 13798m | 5.4m/s | -66.0°C | 47.2% | -1.0hPa | 2.7V | 00:00:00 | 00:00:00 | 00:00:00 | |
| OE5DRO-10 | 2026-09-06 02:59:20 | 47.86641 | 14.92158 | 125° | 130km/h | 13783m | 5.0m/s | -65.9°C | 58.7% | 0hPa | 2.7V | 00:00:00 | 00:00:00 | 00:00:00 | |
| OE3MUC-15 | 2026-09-06 02:59:18 | 47.86677 | 14.92080 | 124° | 131km/h | 13771m | 5.0m/s | -65.8°C | 57.9% | 0hPa | 2.7V | 00:00:00 | 00:00:00 | 00:00:00 | |
| PETON7-10 | 2026-09-06 02:59:17 | 47.86694 | 14.92038 | 122° | 131km/h | 13766m | 6.5m/s | -65.8°C | 57.4% | 0hPa | 2.7V | 00:00:00 | 00:00:00 | 00:00:00 | |
| DO3MHA-12 | 2026-09-06 02:59:15 | 47.86729 | 14.91951 | 121° | 133km/h | 13754m | 7.6m/s | -65.7°C | 56.1% | 0hPa | 2.7V | 00:00:00 | 01:10:19 | 08:30:00 | |
| OE5MMP-10 | 2026-09-06 02:59:14 | 47.86746 | 14.91908 | 122° | 131km/h | 13746m | 7.1m/s | -65.6°C | 56.2% | 0hPa | 2.7V | 00:00:00 | 01:10:18 | 00:00:00 | |
| OE3MUC-15 | 2026-09-06 02:59:10 | 47.86816 | 14.91739 | 123° | 130km/h | 13724m | 7.3m/s | -65.5°C | 55.5% | 0hPa | 2.7V | 00:00:00 | 00:00:00 | 00:00:00 | |
| OE5WHR-10 | 2026-09-06 02:59:09 | 47.86834 | 14.91699 | 125° | 131km/h | 13718m | 4.6m/s | -65.6°C | 56.7% | 0hPa | 2.7V | 00:00:00 | 00:00:00 | 00:00:00 | |
| PG1ADW-2 | 2026-09-06 02:59:08 | 47.86852 | 14.91658 | 124° | 131km/h | 13712m | 6.3m/s | -65.6°C | 56.6% | 0hPa | 2.7V | 00:00:00 | 00:00:00 | 00:00:00 | |
| OE8JPQ-2 | 2026-09-06 02:59:07 | 47.86870 | 14.91618 | 124° | 131km/h | 13707m | 3.4m/s | -65.6°C | 57.2% | 0hPa | 2.7V | 00:00:00 | 00:00:00 | 00:00:00 | |
| OE3MUC-15 | 2026-09-06 02:59:06 | 47.86888 | 14.91576 | 124° | 130km/h | 13702m | 6.2m/s | -65.6°C | 56.5% | 0hPa | 2.7V | 00:00:00 | 00:00:00 | 00:00:00 | |
| DO3MHA-12 | 2026-09-06 02:59:05 | 47.86907 | 14.91534 | 124° | 131km/h | 13696m | 6.0m/s | -65.6°C | 56.8% | 0hPa | 2.7V | 00:00:00 | 01:10:09 | 00:00:00 | |
| OE5MMP-10 | 2026-09-06 02:59:04 | 47.86925 | 14.91493 | 123° | 130km/h | 13689m | 7.2m/s | -65.5°C | 57.1% | 0hPa | 2.7V | 00:00:00 | 01:10:08 | 00:00:00 | |
| OE3MUC-15 | 2026-09-06 02:59:02 | 47.86958 | 14.91411 | 121° | 130km/h | 13678m | 6.5m/s | -65.5°C | 57.0% | 0hPa | 2.7V | 00:00:00 | 00:00:00 | 00:00:00 | |
| OE3JTB-15 | 2026-09-06 02:59:01 | 47.86975 | 14.91369 | 120° | 131km/h | 13672m | 3.7m/s | -65.5°C | 57.0% | 0hPa | 2.7V | 00:00:00 | 01:10:05 | 00:00:00 | |
| OE5DXL-15 | 2026-09-06 02:59:00 | 47.86991 | 14.91326 | 120° | 130km/h | 13667m | 7.1m/s | -65.5°C | 56.2% | 0hPa | 2.7V | 00:00:00 | 00:00:00 | 00:00:00 | |
| OE3MUC-15 | 2026-09-06 02:58:58 | 47.87023 | 14.91241 | 119° | 130km/h | 13656m | 7.5m/s | -65.6°C | 55.8% | 0hPa | 2.7V | 00:00:00 | 00:00:00 | 00:00:00 | |
| OE3MUC-15 | 2026-09-06 02:58:54 | 47.87090 | 14.91073 | 123° | 131km/h | 13632m | 6.3m/s | -65.9°C | 56.6% | 0hPa | 2.7V | 00:00:00 | 00:00:00 | 00:00:00 | |
| DO3MHA-12 | 2026-09-06 02:58:52 | 47.87126 | 14.90990 | 124° | 133km/h | 13618m | 6.3m/s | -65.9°C | 56.1% | 0hPa | 2.7V | 00:00:00 | 01:09:56 | 00:00:00 | |
| OE3MUC-15 | 2026-09-06 02:58:50 | 47.87163 | 14.90906 | 124° | 133km/h | 13606m | 7.8m/s | -65.8°C | 54.3% | 0hPa | 2.7V | 00:00:00 | 00:00:00 | 08:30:00 | |
| OE5WHR-10 | 2026-09-06 02:58:48 | 47.87199 | 14.90821 | 122° | 130km/h | 13593m | 7.1m/s | -65.9°C | 53.5% | 0hPa | 2.7V | 00:00:00 | 01:09:52 | 00:00:00 | |
| PETON7-10 | 2026-09-06 02:58:47 | 47.87217 | 14.90778 | 122° | 130km/h | 13587m | 6.0m/s | -66.2°C | 54.6% | 0hPa | 2.7V | 00:00:00 | 00:00:00 | 00:00:00 | |
| OE3MUC-15 | 2026-09-06 02:58:46 | 47.87235 | 14.90736 | 123° | 133km/h | 13579m | 8.8m/s | -66.5°C | 56.5% | 0hPa | 2.7V | 00:00:00 | 00:00:00 | 00:00:00 | |
| OE5MMP-10 | 2026-09-06 02:58:44 | 47.87270 | 14.90652 | 121° | 130km/h | 13567m | 6.7m/s | -66.8°C | 58.1% | 0hPa | 2.7V | 00:00:00 | 01:09:48 | 00:00:00 | |
| OE3MUC-15 | 2026-09-06 02:58:42 | 47.87304 | 14.90565 | 120° | 131km/h | 13557m | 6.8m/s | -66.8°C | 58.2% | 0hPa | 2.7V | 00:00:00 | 00:00:00 | 00:00:00 | |
| OE3MUC-15 | 2026-09-06 02:58:38 | 47.87371 | 14.90395 | 121° | 126km/h | 13534m | 3.8m/s | -67.3°C | 60.6% | 0hPa | 2.7V | 00:00:00 | 00:00:00 | 00:00:00 | |
| OE5MMP-10 | 2026-09-06 02:58:34 | 47.87437 | 14.90232 | 122° | 126km/h | 13511m | 6.6m/s | -67.3°C | 60.3% | 0hPa | 2.7V | 00:00:00 | 01:09:38 | 00:00:00 | |
| DB0NH | 2026-09-06 02:58:33 | 47.87455 | 14.90191 | 123° | 128km/h | 13505m | 4.6m/s | -67.3°C | 60.9% | 0hPa | 2.7V | 00:00:00 | 01:09:37 | 00:00:00 | |
| OE5FHM-15 | 2026-09-06 02:58:32 | 47.87472 | 14.90151 | 124° | 128km/h | 13500m | 6.4m/s | -67.3°C | 61.0% | 0hPa | 2.7V | 00:00:00 | 01:09:36 | 00:00:00 | |
| OE5DXL-15 | 2026-09-06 02:58:30 | 47.87509 | 14.90074 | 126° | 128km/h | 13488m | 6.3m/s | -67.3°C | 61.1% | 0hPa | 2.7V | 00:00:00 | 00:00:00 | 00:00:00 | |
| PG1ADW-2 | 2026-09-06 02:58:28 | 47.87546 | 14.89997 | 126° | 128km/h | 13476m | 4.8m/s | -67.3°C | 61.8% | 0hPa | 2.7V | 00:00:00 | 00:00:00 | 00:00:00 | |
| OE8JPQ-2 | 2026-09-06 02:58:27 | 47.87564 | 14.89960 | 127° | 128km/h | 13470m | 7.2m/s | -67.3°C | 62.2% | 0hPa | 2.7V | 00:00:00 | 00:00:00 | 08:30:00 | |
| OE3MUC-15 | 2026-09-06 02:58:26 | 47.87583 | 14.89923 | 128° | 126km/h | 13464m | 4.8m/s | -67.3°C | 62.9% | 0hPa | 2.7V | 00:00:00 | 00:00:00 | 00:00:00 | |
| OE5MMP-10 | 2026-09-06 02:58:24 | 47.87622 | 14.89849 | 130° | 130km/h | 13454m | 3.6m/s | -67.2°C | 63.1% | 0hPa | 2.7V | 00:00:00 | 01:09:28 | 00:00:00 | |
| OE5DRO-10 | 2026-09-06 02:58:23 | 47.87642 | 14.89812 | 129° | 130km/h | 13449m | 5.0m/s | -67.2°C | 62.6% | 0hPa | 2.7V | 00:00:00 | 00:00:00 | 08:30:00 | |
| OE3MUC-15 | 2026-09-06 02:58:22 | 47.87662 | 14.89775 | 128° | 128km/h | 13443m | 7.6m/s | -67.1°C | 62.6% | 0hPa | 2.7V | 00:00:00 | 00:00:00 | 00:00:00 | |
| OE3OSB-13 | 2026-09-06 02:58:21 | 47.87682 | 14.89737 | 126° | 126km/h | 13436m | 4.9m/s | -67.1°C | 51.3% | -1.0hPa | 2.7V | 00:00:00 | 00:00:00 | 00:00:00 | |
| OE3MUC-15 | 2026-09-06 02:58:18 | 47.87742 | 14.89623 | 128° | 131km/h | 13421m | 6.6m/s | -66.9°C | 62.7% | 0hPa | 2.7V | 00:00:00 | 00:00:00 | 00:00:00 | |
| PETON7-10 | 2026-09-06 02:58:17 | 47.87762 | 14.89584 | 129° | 130km/h | 13415m | 5.2m/s | -66.9°C | 63.6% | 0hPa | 2.7V | 00:00:00 | 01:09:21 | 00:00:00 | |
| OE5MMP-10 | 2026-09-06 02:58:14 | 47.87825 | 14.89470 | 130° | 130km/h | 13399m | 5.2m/s | -66.8°C | 62.7% | 0hPa | 2.7V | 00:00:00 | 01:09:18 | 00:00:00 | |
| OE3MUC-15 | 2026-09-06 02:58:10 | 47.87907 | 14.89319 | 129° | 130km/h | 13377m | 5.6m/s | -66.6°C | 62.6% | 0hPa | 2.7V | 00:00:00 | 00:00:00 | 00:00:00 | |
| PG1ADW-2 | 2026-09-06 02:58:08 | 47.87947 | 14.89242 | 128° | 131km/h | 13366m | 4.0m/s | -66.5°C | 61.6% | 0hPa | 2.7V | 00:00:00 | 00:00:00 | 00:00:00 | |
| OE8JPQ-2 | 2026-09-06 02:58:07 | 47.87967 | 14.89204 | 129° | 131km/h | 13360m | 8.4m/s | -66.4°C | 61.2% | 0hPa | 2.7V | 00:00:00 | 00:00:00 | 00:00:00 | |
| OE5WHR-10 | 2026-09-06 02:58:06 | 47.87988 | 14.89166 | 129° | 131km/h | 13354m | 3.6m/s | -66.4°C | 62.0% | 0hPa | 2.7V | 00:00:00 | 00:00:00 | 00:00:00 | |
| OE5MMP-10 | 2026-09-06 02:58:04 | 47.88030 | 14.89089 | 129° | 130km/h | 13344m | 3.0m/s | -66.3°C | 62.1% | 0hPa | 2.7V | 00:00:00 | 01:09:08 | 08:30:00 | |
| OE5FHM-15 | 2026-09-06 02:58:02 | 47.88069 | 14.89011 | 127° | 131km/h | 13333m | 4.7m/s | -66.2°C | 61.7% | 0hPa | 2.7V | 00:00:00 | 01:09:06 | 00:00:00 | |
| OE5DXL-15 | 2026-09-06 02:58:00 | 47.88108 | 14.88933 | 127° | 131km/h | 13323m | 6.5m/s | -66.1°C | 60.7% | 0hPa | 2.7V | 00:00:00 | 00:00:00 | 08:30:00 | |
| OE3MUC-15 | 2026-09-06 02:57:58 | 47.88148 | 14.88854 | 128° | 130km/h | 13311m | 4.9m/s | -66.0°C | 60.8% | 0hPa | 2.7V | 00:00:00 | 00:00:00 | 00:00:00 | |
| OE5MMP-10 | 2026-09-06 02:57:54 | 47.88227 | 14.88698 | 128° | 133km/h | 13289m | 5.8m/s | -65.8°C | 61.1% | 0hPa | 2.7V | 00:00:00 | 01:08:58 | 00:00:00 | |
| OE3MUC-15 | 2026-09-06 02:57:50 | 47.88311 | 14.88546 | 130° | 133km/h | 13269m | 6.2m/s | -65.6°C | 60.5% | 0hPa | 2.7V | 00:00:00 | 00:00:00 | 00:00:00 | |
| PG1ADW-2 | 2026-09-06 02:57:48 | 47.88354 | 14.88468 | 129° | 131km/h | 13259m | 5.4m/s | -65.5°C | 61.2% | 0hPa | 2.7V | 00:00:00 | 00:00:00 | 00:00:00 | |
| PETON7-10 | 2026-09-06 02:57:47 | 47.88375 | 14.88429 | 129° | 131km/h | 13255m | 3.8m/s | -65.5°C | 61.2% | 0hPa | 2.7V | 00:00:00 | 00:00:00 | 00:00:00 | |
| OE3MUC-15 | 2026-09-06 02:57:46 | 47.88396 | 14.88390 | 129° | 133km/h | 13250m | 5.2m/s | -65.4°C | 60.7% | 0hPa | 2.7V | 00:00:00 | 00:00:00 | 00:00:00 | |
| OE5WHR-10 | 2026-09-06 02:57:45 | 47.88418 | 14.88350 | 130° | 131km/h | 13245m | 4.5m/s | -65.4°C | 61.0% | 0hPa | 2.7V | 00:00:00 | 01:08:49 | 00:00:00 | |
| OE5MMP-10 | 2026-09-06 02:57:44 | 47.88440 | 14.88311 | 130° | 130km/h | 13241m | 4.3m/s | -65.4°C | 60.7% | 0hPa | 2.7V | 00:00:00 | 01:08:48 | 00:00:00 | |
| DO3MHA-12 | 2026-09-06 02:57:42 | 47.88481 | 14.88234 | 129° | 131km/h | 13230m | 6.1m/s | -65.3°C | 60.3% | 0hPa | 2.7V | 00:00:00 | 01:08:46 | 00:00:00 | |
| OE5MMP-10 | 2026-09-06 02:57:34 | 47.88651 | 14.87936 | 131° | 133km/h | 13188m | 5.9m/s | -65.0°C | 61.1% | 0hPa | 2.7V | 00:00:00 | 01:08:38 | 00:00:00 | |
| DB0NH | 2026-09-06 02:57:33 | 47.88672 | 14.87897 | 129° | 128km/h | 13183m | 5.4m/s | -65.0°C | 61.1% | 0hPa | 2.7V | 00:00:00 | 01:08:37 | 00:00:00 | |
| OE5FHM-15 | 2026-09-06 02:57:32 | 47.88693 | 14.87857 | 128° | 128km/h | 13177m | 5.2m/s | -65.0°C | 60.7% | 0hPa | 2.7V | 00:00:00 | 01:08:36 | 00:00:00 | |
| OE5DXL-15 | 2026-09-06 02:57:29 | 47.88755 | 14.87736 | 128° | 126km/h | 13162m | 8.4m/s | -64.9°C | 59.4% | 0hPa | 2.7V | 00:00:00 | 00:00:00 | 00:00:00 | |
| PG1ADW-2 | 2026-09-06 02:57:28 | 47.88775 | 14.87696 | 128° | 126km/h | 13156m | 4.9m/s | -64.9°C | 60.1% | 0hPa | 2.7V | 00:00:00 | 01:08:32 | 00:00:00 | |
| OE8JPQ-2 | 2026-09-06 02:57:27 | 47.88796 | 14.87657 | 129° | 126km/h | 13151m | 3.9m/s | -64.8°C | 59.2% | 0hPa | 2.7V | 00:00:00 | 00:00:00 | 00:00:00 | |
| OE5DRO-10 | 2026-09-06 02:57:26 | 47.88817 | 14.87619 | 130° | 126km/h | 13145m | 7.6m/s | -64.8°C | 58.7% | 0hPa | 2.7V | 00:00:00 | 00:00:00 | 00:00:00 | |
| OE5WHR-10 | 2026-09-06 02:57:24 | 47.88858 | 14.87542 | 129° | 126km/h | 13132m | 5.9m/s | -64.7°C | 59.1% | 0hPa | 2.7V | 00:00:00 | 00:00:00 | 00:00:00 | |
| DO3MHA-12 | 2026-09-06 02:57:22 | 47.88899 | 14.87465 | 129° | 124km/h | 13120m | 7.1m/s | -64.7°C | 59.8% | 0hPa | 2.7V | 00:00:00 | 01:08:26 | 00:00:00 | |
| OE3OSB-13 | 2026-09-06 02:57:19 | 47.88963 | 14.87353 | 131° | 126km/h | 13102m | 3.1m/s | -64.6°C | 50.5% | -1.0hPa | 2.7V | 00:00:00 | 00:00:00 | 00:00:00 | |
| OE3MUC-15 | 2026-09-06 02:57:18 | 47.88984 | 14.87318 | 132° | 124km/h | 13098m | 6.4m/s | -64.5°C | 60.6% | 0hPa | 2.7V | 00:00:00 | 00:00:00 | 00:00:00 | |
| PETON7-10 | 2026-09-06 02:57:17 | 47.89004 | 14.87283 | 130° | 122km/h | 13092m | 5.2m/s | -64.5°C | 61.4% | 0hPa | 2.7V | 00:00:00 | 00:00:00 | 00:00:00 | |
| S52SK | 2026-09-06 02:57:16 | 47.89005 | 14.87283 | 131° | 122km/h | 13092m | 5.3m/s | -64.5°C | 0% | 0hPa | 2.7V | 00:00:00 | 00:00:00 | 00:00:00 | |
| OE5MMP-10 | 2026-09-06 02:57:14 | 47.89063 | 14.87175 | 128° | 124km/h | 13077m | 2.9m/s | -64.4°C | 61.1% | 0hPa | 2.7V | 00:00:00 | 01:08:18 | 00:00:00 | |
| DO3MHA-12 | 2026-09-06 02:57:10 | 47.89140 | 14.87029 | 130° | 122km/h | 13053m | 6.6m/s | -64.4°C | 60.7% | 0hPa | 2.7V | 00:00:00 | 01:08:14 | 00:00:00 | |
| PG1ADW-2 | 2026-09-06 02:57:08 | 47.89180 | 14.86960 | 132° | 122km/h | 13043m | 4.5m/s | -64.4°C | 59.3% | 0hPa | 2.7V | 00:00:00 | 00:00:00 | 00:00:00 | |
| OE8JPQ-2 | 2026-09-06 02:57:07 | 47.89200 | 14.86925 | 130° | 117km/h | 13037m | 8.1m/s | -64.3°C | 59.1% | 0hPa | 2.7V | 00:00:00 | 00:00:00 | 00:00:00 | |
| OE3MUC-15 | 2026-09-06 02:57:06 | 47.89220 | 14.86888 | 127° | 124km/h | 13031m | 2.5m/s | -64.2°C | 59.5% | 0hPa | 2.7V | 00:00:00 | 00:00:00 | 00:00:00 | |
| OE3JTB-15 | 2026-09-06 02:57:05 | 47.89239 | 14.86849 | 127° | 117km/h | 13026m | 8.1m/s | -64.2°C | 58.4% | 0hPa | 2.7V | 00:00:00 | 00:00:00 | 08:30:00 | |
| OE5MMP-10 | 2026-09-06 02:57:04 | 47.89258 | 14.86812 | 127° | 117km/h | 13019m | 6.5m/s | -64.1°C | 59.4% | 0hPa | 2.7V | 00:00:00 | 01:08:08 | 00:00:00 | |
| OE5FHM-15 | 2026-09-06 02:57:02 | 47.89294 | 14.86740 | 128° | 115km/h | 13009m | 7.4m/s | -64.0°C | 58.2% | 0hPa | 2.7V | 00:00:00 | 01:08:06 | 00:00:00 | |
| DO3MHA-12 | 2026-09-06 02:57:00 | 47.89331 | 14.86670 | 130° | 115km/h | 12996m | 4.3m/s | -63.9°C | 59.1% | 0hPa | 2.7V | 00:00:00 | 01:08:04 | 00:00:00 | |
| OE5DXL-15 | 2026-09-06 02:56:59 | 47.89350 | 14.86636 | 130° | 115km/h | 12991m | 6.8m/s | -63.9°C | 59.2% | 0hPa | 2.7V | 00:00:00 | 00:00:00 | 00:00:00 | |
| OE3MUC-15 | 2026-09-06 02:56:58 | 47.89368 | 14.86603 | 130° | 113km/h | 12986m | 4.0m/s | -63.8°C | 59.8% | 0hPa | 2.7V | 00:00:00 | 00:00:00 | 00:00:00 | |
| DO3MHA-12 | 2026-09-06 02:56:50 | 47.89511 | 14.86335 | 128° | 117km/h | 12947m | 5.8m/s | -63.5°C | 59.2% | 0hPa | 2.7V | 00:00:00 | 01:07:54 | 00:00:00 | |
| PG1ADW-2 | 2026-09-06 02:56:48 | 47.89547 | 14.86266 | 128° | 115km/h | 12937m | 5.4m/s | -63.5°C | 58.9% | 0hPa | 2.7V | 00:00:00 | 00:00:00 | 00:00:00 | |
| PETON7-10 | 2026-09-06 02:56:47 | 47.89565 | 14.86231 | 127° | 115km/h | 12933m | 3.8m/s | -63.4°C | 58.9% | 0hPa | 2.7V | 00:00:00 | 01:07:51 | 00:00:00 | |
| OE3MUC-15 | 2026-09-06 02:56:46 | 47.89583 | 14.86195 | 127° | 115km/h | 12928m | 5.7m/s | -63.4°C | 58.5% | 0hPa | 2.7V | 00:00:00 | 00:00:00 | 00:00:00 | |
| OE5MMP-10 | 2026-09-06 02:56:44 | 47.89618 | 14.86126 | 127° | 115km/h | 12917m | 6.0m/s | -63.3°C | 59.0% | 0hPa | 2.7V | 00:00:00 | 01:07:48 | 00:00:00 | |
| OE3MUC-15 | 2026-09-06 02:56:42 | 47.89651 | 14.86057 | 125° | 111km/h | 12907m | 7.0m/s | -63.2°C | 59.5% | 0hPa | 2.7V | 00:00:00 | 00:00:00 | 00:00:00 | |
| DO3MHA-12 | 2026-09-06 02:56:40 | 47.89683 | 14.85990 | 128° | 115km/h | 12896m | 7.5m/s | -63.1°C | 59.4% | 0hPa | 2.7V | 00:00:00 | 01:07:44 | 08:30:00 | |
| OE3JTB-15 | 2026-09-06 02:56:36 | 47.89758 | 14.85850 | 128° | 117km/h | 12874m | 4.9m/s | -62.9°C | 58.6% | 0hPa | 2.7V | 00:00:00 | 00:00:00 | 00:00:00 | |
| OE5MMP-10 | 2026-09-06 02:56:34 | 47.89793 | 14.85780 | 126° | 113km/h | 12863m | 5.2m/s | -62.8°C | 57.9% | 0hPa | 2.7V | 00:00:00 | 01:07:38 | 08:30:00 | |
| DB0NH | 2026-09-06 02:56:33 | 47.89810 | 14.85745 | 126° | 117km/h | 12856m | 6.8m/s | -62.7°C | 57.7% | 0hPa | 2.7V | 00:00:00 | 01:07:37 | 00:00:00 | |
| PETON7-10 | 2026-09-06 02:56:32 | 47.89826 | 14.85710 | 127° | 115km/h | 12849m | 6.6m/s | -62.7°C | 58.1% | 0hPa | 2.7V | 00:00:00 | 00:00:00 | 00:00:00 | |
| DO3MHA-12 | 2026-09-06 02:56:30 | 47.89861 | 14.85643 | 128° | 117km/h | 12842m | 7.3m/s | -62.6°C | 55.9% | 0hPa | 2.7V | 00:00:00 | 01:07:34 | 00:00:00 | |
| OE5DXL-15 | 2026-09-06 02:56:29 | 47.89877 | 14.85609 | 125° | 117km/h | 12833m | 8.3m/s | -62.6°C | 56.0% | 0hPa | 2.7V | 00:00:00 | 00:00:00 | 00:00:00 | |
| OE8JPQ-2 | 2026-09-06 02:56:27 | 47.89910 | 14.85538 | 126° | 117km/h | 12822m | 6.7m/s | -62.5°C | 56.7% | 0hPa | 2.7V | 00:00:00 | 00:00:00 | 00:00:00 | |
| OE3MUC-15 | 2026-09-06 02:56:26 | 47.89927 | 14.85503 | 128° | 115km/h | 12816m | 4.9m/s | -62.5°C | 57.0% | 0hPa | 2.7V | 00:00:00 | 00:00:00 | 08:30:00 | |
| OE5MMP-10 | 2026-09-06 02:56:24 | 47.89963 | 14.85436 | 130° | 117km/h | 12805m | 6.0m/s | -62.4°C | 57.0% | 0hPa | 2.7V | 00:00:00 | 01:07:28 | 00:00:00 | |
| OE3MUC-15 | 2026-09-06 02:56:22 | 47.89999 | 14.85368 | 128° | 117km/h | 12794m | 5.7m/s | -62.4°C | 57.6% | 0hPa | 2.7V | 00:00:00 | 00:00:00 | 00:00:00 | |
| OE5WHR-10 | 2026-09-06 02:56:21 | 47.90018 | 14.85334 | 129° | 117km/h | 12789m | 3.9m/s | -62.3°C | 57.9% | 0hPa | 2.7V | 00:00:00 | 00:00:00 | 08:30:00 | |
| OE3MUC-15 | 2026-09-06 02:56:18 | 47.90077 | 14.85233 | 133° | 119km/h | 12774m | 6.4m/s | -62.2°C | 57.1% | 0hPa | 2.7V | 00:00:00 | 00:00:00 | 00:00:00 | |
| PETON7-10 | 2026-09-06 02:56:17 | 47.90097 | 14.85200 | 134° | 117km/h | 12768m | 4.5m/s | -62.2°C | 57.3% | 0hPa | 2.7V | 00:00:00 | 00:00:00 | 00:00:00 | |
| DO3MHA-12 | 2026-09-06 02:56:16 | 47.90118 | 14.85168 | 135° | 119km/h | 12763m | 6.2m/s | -62.2°C | 57.3% | 0hPa | 2.7V | 00:00:00 | 01:07:20 | 00:00:00 | |
| OE5DRO-10 | 2026-09-06 02:56:10 | 47.90236 | 14.84973 | 131° | 120km/h | 12731m | 7.6m/s | -61.9°C | 57.0% | 0hPa | 2.7V | 00:00:00 | 00:00:00 | 00:00:00 | |
| OE8JPQ-2 | 2026-09-06 02:56:07 | 47.90297 | 14.84873 | 134° | 122km/h | 12717m | 6.0m/s | -61.9°C | 58.2% | 0hPa | 2.7V | 00:00:00 | 00:00:00 | 00:00:00 | |
| OE3MUC-15 | 2026-09-06 02:56:06 | 47.90318 | 14.84840 | 134° | 115km/h | 12711m | 4.6m/s | -61.8°C | 58.2% | 0hPa | 2.7V | 00:00:00 | 00:00:00 | 00:00:00 | |
| S52SK | 2026-09-06 02:56:05 | 47.90318 | 14.84840 | 135° | 117km/h | 12711m | 4.6m/s | -61.9°C | 0% | 0hPa | 2.7V | 00:00:00 | 00:00:00 | 00:00:00 | |
| PG1ADW-2 | 2026-09-06 02:56:04 | 47.90358 | 14.84778 | 134° | 122km/h | 12700m | 3.7m/s | -61.8°C | 59.3% | 0hPa | 2.7V | 00:00:00 | 01:07:08 | 00:00:00 | |
| OE5FHM-15 | 2026-09-06 02:56:02 | 47.90399 | 14.84717 | 137° | 124km/h | 12692m | 3.6m/s | -61.7°C | 58.9% | 0hPa | 2.7V | 00:00:00 | 01:07:06 | 08:30:00 | |
| DO3MHA-12 | 2026-09-06 02:56:00 | 47.90441 | 14.84655 | 135° | 124km/h | 12682m | 5.3m/s | -61.6°C | 59.3% | 0hPa | 2.7V | 00:00:00 | 01:07:04 | 00:00:00 | |
| S52SK | 2026-09-06 02:55:59 | 47.90442 | 14.84655 | 136° | 119km/h | 12682m | 5.4m/s | -61.6°C | 0% | 0hPa | 2.7V | 00:00:00 | 00:00:00 | 00:00:00 | |
| OE3MUC-15 | 2026-09-06 02:55:58 | 47.90485 | 14.84590 | 136° | 124km/h | 12672m | 4.6m/s | -61.5°C | 58.8% | 0hPa | 2.7V | 00:00:00 | 00:00:00 | 00:00:00 | |
| OE3MUC-15 | 2026-09-06 02:55:54 | 47.90574 | 14.84455 | 134° | 126km/h | 12652m | 4.2m/s | -61.4°C | 57.8% | 0hPa | 2.7V | 00:00:00 | 00:00:00 | 00:00:00 | |
| OE5DRO-10 | 2026-09-06 02:55:51 | 47.90641 | 14.84354 | 136° | 124km/h | 12635m | 4.3m/s | -61.2°C | 57.8% | 0hPa | 2.7V | 00:00:00 | 00:00:00 | 00:00:00 | |
| PETON7-10 | 2026-09-06 02:55:47 | 47.90733 | 14.84225 | 137° | 124km/h | 12614m | 6.3m/s | -61.1°C | 58.9% | 0hPa | 2.7V | 00:00:00 | 00:00:00 | 08:30:00 | |
| OE3MUC-15 | 2026-09-06 02:55:46 | 47.90755 | 14.84193 | 136° | 120km/h | 12609m | 4.4m/s | -61.0°C | 59.8% | 0hPa | 2.7V | 00:00:00 | 00:00:00 | 00:00:00 | |
| OE5MMP-10 | 2026-09-06 02:55:44 | 47.90798 | 14.84129 | 136° | 124km/h | 12599m | 7.3m/s | -60.9°C | 59.2% | 0hPa | 2.7V | 00:00:00 | 01:06:48 | 00:00:00 | |
| OE5WHR-10 | 2026-09-06 02:55:39 | 47.90910 | 14.83970 | 138° | 126km/h | 12572m | 5.9m/s | -60.8°C | 59.3% | 0hPa | 2.7V | 00:00:00 | 01:06:43 | 00:00:00 | |
| OE5DRO-10 | 2026-09-06 02:55:31 | 47.91086 | 14.83701 | 136° | 124km/h | 12531m | 7.9m/s | -60.4°C | 59.1% | 0hPa | 2.7V | 00:00:00 | 00:00:00 | 08:30:00 | |
| OE5DXL-15 | 2026-09-06 02:55:28 | 47.91154 | 14.83609 | 139° | 126km/h | 12513m | 6.5m/s | -60.3°C | 59.4% | 0hPa | 2.7V | 00:00:00 | 00:00:00 | 00:00:00 | |
| OE8JPQ-2 | 2026-09-06 02:55:27 | 47.91177 | 14.83577 | 138° | 128km/h | 12507m | 4.6m/s | -60.2°C | 60.0% | 0hPa | 2.7V | 00:00:00 | 00:00:00 | 08:30:00 | |
| PG1ADW-2 | 2026-09-06 02:55:24 | 47.91248 | 14.83477 | 136° | 128km/h | 12490m | 7.9m/s | -60.0°C | 57.9% | 0hPa | 2.7V | 00:00:00 | 00:00:00 | 00:00:00 | |
| DO3MHA-12 | 2026-09-06 02:55:23 | 47.91271 | 14.83443 | 136° | 124km/h | 12484m | 5.0m/s | -60.0°C | 58.2% | 0hPa | 2.7V | 00:00:00 | 01:06:27 | 00:00:00 | |
| OE5WHR-10 | 2026-09-06 02:55:18 | 47.91388 | 14.83284 | 139° | 126km/h | 12456m | 6.6m/s | -59.8°C | 59.9% | 0hPa | 2.7V | 00:00:00 | 00:00:00 | 00:00:00 | |
| PETON7-10 | 2026-09-06 02:55:17 | 47.91412 | 14.83253 | 137° | 128km/h | 12450m | 3.2m/s | -59.7°C | 60.6% | 0hPa | 2.7V | 00:00:00 | 01:06:21 | 00:00:00 | |
| OE3OSB-13 | 2026-09-06 02:55:15 | 47.91456 | 14.83190 | 136° | 122km/h | 12441m | 5.0m/s | -59.7°C | 50.5% | -1.0hPa | 2.7V | 00:00:00 | 00:00:00 | 00:00:00 | |
| OE5MMP-10 | 2026-09-06 02:55:14 | 47.91479 | 14.83157 | 136° | 130km/h | 12436m | 4.6m/s | -59.6°C | 59.9% | 0hPa | 2.7V | 00:00:00 | 01:06:18 | 00:00:00 | |
| DO3MHA-12 | 2026-09-06 02:55:13 | 47.91502 | 14.83123 | 135° | 128km/h | 12431m | 5.2m/s | -59.6°C | 59.5% | 0hPa | 2.7V | 00:00:00 | 01:06:17 | 00:00:00 | |
| OE5DRO-10 | 2026-09-06 02:55:11 | 47.91548 | 14.83051 | 135° | 126km/h | 12422m | 6.8m/s | -59.5°C | 58.5% | 0hPa | 2.7V | 00:00:00 | 00:00:00 | 00:00:00 | |
| OE3MUC-15 | 2026-09-06 02:55:10 | 47.91572 | 14.83015 | 136° | 131km/h | 12416m | 4.4m/s | -59.4°C | 59.0% | 0hPa | 2.7V | 00:00:00 | 00:00:00 | 00:00:00 | |
| OE3JTB-15 | 2026-09-06 02:55:09 | 47.91595 | 14.82981 | 137° | 124km/h | 12412m | 3.8m/s | -59.4°C | 57.5% | 0hPa | 2.7V | 00:00:00 | 00:00:00 | 00:00:00 | |
| OE8JPQ-2 | 2026-09-06 02:55:07 | 47.91644 | 14.82914 | 138° | 126km/h | 12397m | 7.6m/s | -59.3°C | 57.6% | 0hPa | 2.7V | 00:00:00 | 00:00:00 | 00:00:00 | |
| OE3MUC-15 | 2026-09-06 02:55:06 | 47.91668 | 14.82881 | 139° | 124km/h | 12391m | 5.4m/s | -59.2°C | 58.2% | 0hPa | 2.7V | 00:00:00 | 00:00:00 | 00:00:00 | |
| OE5MMP-10 | 2026-09-06 02:55:04 | 47.91715 | 14.82820 | 139° | 124km/h | 12379m | 6.1m/s | -59.1°C | 58.9% | 0hPa | 2.7V | 00:00:00 | 01:06:08 | 08:30:00 | |
| PETON7-10 | 2026-09-06 02:55:02 | 47.91761 | 14.82758 | 138° | 126km/h | 12369m | 4.7m/s | -59.0°C | 58.7% | 0hPa | 2.7V | 00:00:00 | 00:00:00 | 00:00:00 | |
| OE3MUC-15 | 2026-09-06 02:54:58 | 47.91851 | 14.82629 | 136° | 128km/h | 12348m | 5.5m/s | -58.8°C | 57.4% | 0hPa | 2.7V | 00:00:00 | 01:06:02 | 00:00:00 | |
| OE5WHR-10 | 2026-09-06 02:54:57 | 47.91874 | 14.82595 | 136° | 124km/h | 12342m | 7.4m/s | -58.8°C | 57.3% | 0hPa | 2.7V | 00:00:00 | 00:00:00 | 00:00:00 | |
| OE3MUC-15 | 2026-09-06 02:54:54 | 47.91942 | 14.82495 | 138° | 126km/h | 12325m | 2.8m/s | -58.7°C | 58.3% | 0hPa | 2.7V | 00:00:00 | 00:00:00 | 00:00:00 | |
| OE5DRO-10 | 2026-09-06 02:54:52 | 47.91989 | 14.82432 | 137° | 124km/h | 12315m | 3.9m/s | -58.6°C | 57.3% | 0hPa | 2.7V | 00:00:00 | 00:00:00 | 00:00:00 | |
| OE3MUC-15 | 2026-09-06 02:54:50 | 47.92035 | 14.82366 | 136° | 124km/h | 12303m | 6.0m/s | -58.6°C | 56.7% | 0hPa | 2.7V | 00:00:00 | 00:00:00 | 00:00:00 | |
| DG1MFX-10 | 2026-09-06 02:54:49 | 47.92035 | 14.82366 | 137° | 126km/h | 12303m | 6.1m/s | -58.6°C | 48.6% | 0hPa | 2.7V | 00:00:00 | 00:00:00 | 00:00:00 | |
| S52SK | 2026-09-06 02:54:48 | 47.92058 | 14.82333 | 137° | 126km/h | 12297m | 5.6m/s | -58.6°C | 0% | 0hPa | 2.7V | 00:00:00 | 00:00:00 | 00:00:00 | |
| PETON7-10 | 2026-09-06 02:54:47 | 47.92103 | 14.82268 | 136° | 122km/h | 12286m | 4.4m/s | -58.4°C | 57.7% | 0hPa | 2.7V | 00:00:00 | 00:00:00 | 00:00:00 | |
| OE3MUC-15 | 2026-09-06 02:54:46 | 47.92125 | 14.82236 | 136° | 120km/h | 12282m | 4.6m/s | -58.4°C | 57.0% | 0hPa | 2.7V | 00:00:00 | 00:00:00 | 00:00:00 | |
| OE5MMP-10 | 2026-09-06 02:54:44 | 47.92170 | 14.82174 | 138° | 124km/h | 12270m | 6.9m/s | -58.3°C | 56.5% | 0hPa | 2.7V | 00:00:00 | 01:05:48 | 00:00:00 | |
| S52SK | 2026-09-06 02:54:43 | 47.92169 | 14.82174 | 139° | 120km/h | 12270m | 6.9m/s | -58.4°C | 0% | 0hPa | 2.7V | 00:00:00 | 00:00:00 | 00:00:00 | |
| OE3MUC-15 | 2026-09-06 02:54:42 | 47.92214 | 14.82112 | 137° | 124km/h | 12260m | 6.4m/s | -58.2°C | 57.0% | 0hPa | 2.7V | 00:00:00 | 00:00:00 | 00:00:00 | |
| OE3JTB-15 | 2026-09-06 02:54:40 | 47.92259 | 14.82047 | 136° | 122km/h | 12250m | 6.2m/s | -58.2°C | 57.2% | 0hPa | 2.7V | 00:00:00 | 01:05:44 | 00:00:00 | |
| OE3MUC-15 | 2026-09-06 02:54:38 | 47.92303 | 14.81980 | 134° | 124km/h | 12240m | 4.9m/s | -58.1°C | 56.7% | 0hPa | 2.7V | 00:00:00 | 00:00:00 | 08:30:00 | |
| OK1ALN | 2026-09-06 02:54:36 | 47.92347 | 14.81912 | 134° | 124km/h | 12231m | 5.4m/s | 0°C | 0% | 0hPa | 2.7V | 00:00:00 | 00:00:00 | 00:00:00 | |
| OE3MUC-15 | 2026-09-06 02:54:34 | 47.92390 | 14.81844 | 135° | 122km/h | 12220m | 5.2m/s | -57.9°C | 56.5% | 0hPa | 2.7V | 00:00:00 | 00:00:00 | 00:00:00 | |
| OE5DRO-10 | 2026-09-06 02:54:33 | 47.92412 | 14.81812 | 137° | 120km/h | 12215m | 4.0m/s | -57.9°C | 56.7% | 0hPa | 2.7V | 00:00:00 | 00:00:00 | 00:00:00 | |
| Es werden nur die letzten 3500 von 4639 Frames angezeigt. GPX/KML und Diagramme bleiben verfügbar. | |||||||||||||||